<?xml version="1.0" encoding="UTF-8" standalone="no" ?>
<gpx xmlns="http://www.topografix.com/GPX/1/1" xmlns:xsi="http://www.w3.org/2001/XMLSchema-instance" xsi:schemaLocation="http://www.topografix.com/GPX/1/1 http://www.topografix.com/GPX/1/1/gpx.xsd" version="1.1" creator="VisuGPX - https://www.visugpx.com">
  <metadata>
    <name>Tilloy-les-conty</name>
    <desc><![CDATA[#coeur et santé]]></desc>
  </metadata>
  <trk>
    <name><![CDATA[Tilloy-les-conty_1]]></name>
    <trkseg>
      <trkpt lat="49.75383" lon="2.17698">
        <ele>98.6</ele>
        <time>2023-01-18T13:01:54Z</time>
      </trkpt>
      <trkpt lat="49.75384" lon="2.17696">
        <ele>98.6</ele>
        <time>2023-01-18T13:01:55Z</time>
      </trkpt>
      <trkpt lat="49.75384" lon="2.17695">
        <ele>98.7</ele>
        <time>2023-01-18T13:01:56Z</time>
      </trkpt>
      <trkpt lat="49.75385" lon="2.17694">
        <ele>98.7</ele>
        <time>2023-01-18T13:01:58Z</time>
      </trkpt>
      <trkpt lat="49.75386" lon="2.17691">
        <ele>98.7</ele>
        <time>2023-01-18T13:01:59Z</time>
      </trkpt>
      <trkpt lat="49.75386" lon="2.17691">
        <ele>98.7</ele>
        <time>2023-01-18T13:02:00Z</time>
      </trkpt>
      <trkpt lat="49.75386" lon="2.17689">
        <ele>98.7</ele>
        <time>2023-01-18T13:02:01Z</time>
      </trkpt>
      <trkpt lat="49.75387" lon="2.17688">
        <ele>98.7</ele>
        <time>2023-01-18T13:02:02Z</time>
      </trkpt>
      <trkpt lat="49.75388" lon="2.17685">
        <ele>98.7</ele>
        <time>2023-01-18T13:02:03Z</time>
      </trkpt>
      <trkpt lat="49.75387" lon="2.17677">
        <ele>98.7</ele>
        <time>2023-01-18T13:02:05Z</time>
      </trkpt>
      <trkpt lat="49.75388" lon="2.17678">
        <ele>98.7</ele>
        <time>2023-01-18T13:02:06Z</time>
      </trkpt>
      <trkpt lat="49.75388" lon="2.17677">
        <ele>98.7</ele>
        <time>2023-01-18T13:02:07Z</time>
      </trkpt>
      <trkpt lat="49.75388" lon="2.17677">
        <ele>98.7</ele>
        <time>2023-01-18T13:02:08Z</time>
      </trkpt>
      <trkpt lat="49.75388" lon="2.17675">
        <ele>98.7</ele>
        <time>2023-01-18T13:02:10Z</time>
      </trkpt>
      <trkpt lat="49.75388" lon="2.17674">
        <ele>98.6</ele>
        <time>2023-01-18T13:02:12Z</time>
      </trkpt>
      <trkpt lat="49.75388" lon="2.17672">
        <ele>98.6</ele>
        <time>2023-01-18T13:02:13Z</time>
      </trkpt>
      <trkpt lat="49.75389" lon="2.17671">
        <ele>98.6</ele>
        <time>2023-01-18T13:02:14Z</time>
      </trkpt>
      <trkpt lat="49.75389" lon="2.1767">
        <ele>98.6</ele>
        <time>2023-01-18T13:02:16Z</time>
      </trkpt>
      <trkpt lat="49.75389" lon="2.1767">
        <ele>98.6</ele>
        <time>2023-01-18T13:02:18Z</time>
      </trkpt>
      <trkpt lat="49.75389" lon="2.17671">
        <ele>98.6</ele>
        <time>2023-01-18T13:02:19Z</time>
      </trkpt>
      <trkpt lat="49.75389" lon="2.17671">
        <ele>98.6</ele>
        <time>2023-01-18T13:02:20Z</time>
      </trkpt>
      <trkpt lat="49.75389" lon="2.17672">
        <ele>98.6</ele>
        <time>2023-01-18T13:02:22Z</time>
      </trkpt>
      <trkpt lat="49.75389" lon="2.17672">
        <ele>98.6</ele>
        <time>2023-01-18T13:02:23Z</time>
      </trkpt>
      <trkpt lat="49.75389" lon="2.17672">
        <ele>98.6</ele>
        <time>2023-01-18T13:02:24Z</time>
      </trkpt>
      <trkpt lat="49.75388" lon="2.17672">
        <ele>98.6</ele>
        <time>2023-01-18T13:02:26Z</time>
      </trkpt>
      <trkpt lat="49.75388" lon="2.17672">
        <ele>98.6</ele>
        <time>2023-01-18T13:02:27Z</time>
      </trkpt>
      <trkpt lat="49.75388" lon="2.17674">
        <ele>98.6</ele>
        <time>2023-01-18T13:02:29Z</time>
      </trkpt>
      <trkpt lat="49.75388" lon="2.17675">
        <ele>98.6</ele>
        <time>2023-01-18T13:02:30Z</time>
      </trkpt>
      <trkpt lat="49.75387" lon="2.17675">
        <ele>98.6</ele>
        <time>2023-01-18T13:02:32Z</time>
      </trkpt>
      <trkpt lat="49.75387" lon="2.17674">
        <ele>98.6</ele>
        <time>2023-01-18T13:02:33Z</time>
      </trkpt>
      <trkpt lat="49.75388" lon="2.17675">
        <ele>98.6</ele>
        <time>2023-01-18T13:02:34Z</time>
      </trkpt>
      <trkpt lat="49.75388" lon="2.17675">
        <ele>98.6</ele>
        <time>2023-01-18T13:02:35Z</time>
      </trkpt>
      <trkpt lat="49.75389" lon="2.17675">
        <ele>98.6</ele>
        <time>2023-01-18T13:02:36Z</time>
      </trkpt>
      <trkpt lat="49.75389" lon="2.17675">
        <ele>98.6</ele>
        <time>2023-01-18T13:02:37Z</time>
      </trkpt>
      <trkpt lat="49.75389" lon="2.17675">
        <ele>98.6</ele>
        <time>2023-01-18T13:02:38Z</time>
      </trkpt>
      <trkpt lat="49.75389" lon="2.17675">
        <ele>98.6</ele>
        <time>2023-01-18T13:02:39Z</time>
      </trkpt>
      <trkpt lat="49.75389" lon="2.17675">
        <ele>98.6</ele>
        <time>2023-01-18T13:02:40Z</time>
      </trkpt>
      <trkpt lat="49.75389" lon="2.17675">
        <ele>98.6</ele>
        <time>2023-01-18T13:02:41Z</time>
      </trkpt>
      <trkpt lat="49.75389" lon="2.17675">
        <ele>98.6</ele>
        <time>2023-01-18T13:02:42Z</time>
      </trkpt>
      <trkpt lat="49.75388" lon="2.17675">
        <ele>98.6</ele>
        <time>2023-01-18T13:02:43Z</time>
      </trkpt>
      <trkpt lat="49.75388" lon="2.17675">
        <ele>98.6</ele>
        <time>2023-01-18T13:02:45Z</time>
      </trkpt>
      <trkpt lat="49.75389" lon="2.17675">
        <ele>98.6</ele>
        <time>2023-01-18T13:02:46Z</time>
      </trkpt>
      <trkpt lat="49.75389" lon="2.17675">
        <ele>98.6</ele>
        <time>2023-01-18T13:02:47Z</time>
      </trkpt>
      <trkpt lat="49.75389" lon="2.17675">
        <ele>98.6</ele>
        <time>2023-01-18T13:02:48Z</time>
      </trkpt>
      <trkpt lat="49.75389" lon="2.17674">
        <ele>98.6</ele>
        <time>2023-01-18T13:02:49Z</time>
      </trkpt>
      <trkpt lat="49.7539" lon="2.17673">
        <ele>98.6</ele>
        <time>2023-01-18T13:02:50Z</time>
      </trkpt>
      <trkpt lat="49.7539" lon="2.17672">
        <ele>98.6</ele>
        <time>2023-01-18T13:02:52Z</time>
      </trkpt>
      <trkpt lat="49.75391" lon="2.17672">
        <ele>98.5</ele>
        <time>2023-01-18T13:02:53Z</time>
      </trkpt>
      <trkpt lat="49.75391" lon="2.1767">
        <ele>98.5</ele>
        <time>2023-01-18T13:02:55Z</time>
      </trkpt>
      <trkpt lat="49.75391" lon="2.1767">
        <ele>98.5</ele>
        <time>2023-01-18T13:02:56Z</time>
      </trkpt>
      <trkpt lat="49.75392" lon="2.1767">
        <ele>98.5</ele>
        <time>2023-01-18T13:02:58Z</time>
      </trkpt>
      <trkpt lat="49.75391" lon="2.1767">
        <ele>98.5</ele>
        <time>2023-01-18T13:02:59Z</time>
      </trkpt>
      <trkpt lat="49.7539" lon="2.17671">
        <ele>98.5</ele>
        <time>2023-01-18T13:03:01Z</time>
      </trkpt>
      <trkpt lat="49.7539" lon="2.17671">
        <ele>98.5</ele>
        <time>2023-01-18T13:03:02Z</time>
      </trkpt>
      <trkpt lat="49.7539" lon="2.17671">
        <ele>98.5</ele>
        <time>2023-01-18T13:03:03Z</time>
      </trkpt>
      <trkpt lat="49.7539" lon="2.17671">
        <ele>98.5</ele>
        <time>2023-01-18T13:03:05Z</time>
      </trkpt>
      <trkpt lat="49.7539" lon="2.1767">
        <ele>98.5</ele>
        <time>2023-01-18T13:03:06Z</time>
      </trkpt>
      <trkpt lat="49.7539" lon="2.1767">
        <ele>98.5</ele>
        <time>2023-01-18T13:03:08Z</time>
      </trkpt>
      <trkpt lat="49.7539" lon="2.1767">
        <ele>98.5</ele>
        <time>2023-01-18T13:03:09Z</time>
      </trkpt>
      <trkpt lat="49.7539" lon="2.1767">
        <ele>98.5</ele>
        <time>2023-01-18T13:03:10Z</time>
      </trkpt>
      <trkpt lat="49.75389" lon="2.1767">
        <ele>98.5</ele>
        <time>2023-01-18T13:03:12Z</time>
      </trkpt>
      <trkpt lat="49.75389" lon="2.17669">
        <ele>98.5</ele>
        <time>2023-01-18T13:03:13Z</time>
      </trkpt>
      <trkpt lat="49.75389" lon="2.17669">
        <ele>98.5</ele>
        <time>2023-01-18T13:03:15Z</time>
      </trkpt>
      <trkpt lat="49.75389" lon="2.17672">
        <ele>98.5</ele>
        <time>2023-01-18T13:03:16Z</time>
      </trkpt>
      <trkpt lat="49.75389" lon="2.17672">
        <ele>98.5</ele>
        <time>2023-01-18T13:03:17Z</time>
      </trkpt>
      <trkpt lat="49.75389" lon="2.17672">
        <ele>98.5</ele>
        <time>2023-01-18T13:03:18Z</time>
      </trkpt>
      <trkpt lat="49.75389" lon="2.17672">
        <ele>98.5</ele>
        <time>2023-01-18T13:03:19Z</time>
      </trkpt>
      <trkpt lat="49.75389" lon="2.17672">
        <ele>98.5</ele>
        <time>2023-01-18T13:03:20Z</time>
      </trkpt>
      <trkpt lat="49.75389" lon="2.17672">
        <ele>98.5</ele>
        <time>2023-01-18T13:03:21Z</time>
      </trkpt>
      <trkpt lat="49.75389" lon="2.17672">
        <ele>98.5</ele>
        <time>2023-01-18T13:03:22Z</time>
      </trkpt>
      <trkpt lat="49.75389" lon="2.17672">
        <ele>98.5</ele>
        <time>2023-01-18T13:03:23Z</time>
      </trkpt>
      <trkpt lat="49.75389" lon="2.17672">
        <ele>98.5</ele>
        <time>2023-01-18T13:03:24Z</time>
      </trkpt>
      <trkpt lat="49.75389" lon="2.17672">
        <ele>98.5</ele>
        <time>2023-01-18T13:03:25Z</time>
      </trkpt>
      <trkpt lat="49.75389" lon="2.17672">
        <ele>98.5</ele>
        <time>2023-01-18T13:03:26Z</time>
      </trkpt>
      <trkpt lat="49.75389" lon="2.17672">
        <ele>98.5</ele>
        <time>2023-01-18T13:03:27Z</time>
      </trkpt>
      <trkpt lat="49.75389" lon="2.17672">
        <ele>98.5</ele>
        <time>2023-01-18T13:03:28Z</time>
      </trkpt>
      <trkpt lat="49.75389" lon="2.17672">
        <ele>98.5</ele>
        <time>2023-01-18T13:03:29Z</time>
      </trkpt>
      <trkpt lat="49.75389" lon="2.17672">
        <ele>98.5</ele>
        <time>2023-01-18T13:03:30Z</time>
      </trkpt>
      <trkpt lat="49.75389" lon="2.17672">
        <ele>98.5</ele>
        <time>2023-01-18T13:03:31Z</time>
      </trkpt>
      <trkpt lat="49.75389" lon="2.17672">
        <ele>98.5</ele>
        <time>2023-01-18T13:03:32Z</time>
      </trkpt>
      <trkpt lat="49.75389" lon="2.17672">
        <ele>98.5</ele>
        <time>2023-01-18T13:03:33Z</time>
      </trkpt>
      <trkpt lat="49.75389" lon="2.17672">
        <ele>98.5</ele>
        <time>2023-01-18T13:03:34Z</time>
      </trkpt>
      <trkpt lat="49.75389" lon="2.17672">
        <ele>98.5</ele>
        <time>2023-01-18T13:03:35Z</time>
      </trkpt>
      <trkpt lat="49.75389" lon="2.17672">
        <ele>98.5</ele>
        <time>2023-01-18T13:03:36Z</time>
      </trkpt>
      <trkpt lat="49.75389" lon="2.17672">
        <ele>98.5</ele>
        <time>2023-01-18T13:03:37Z</time>
      </trkpt>
      <trkpt lat="49.75389" lon="2.17672">
        <ele>98.5</ele>
        <time>2023-01-18T13:03:38Z</time>
      </trkpt>
      <trkpt lat="49.75389" lon="2.17672">
        <ele>98.5</ele>
        <time>2023-01-18T13:03:39Z</time>
      </trkpt>
      <trkpt lat="49.75389" lon="2.17672">
        <ele>98.5</ele>
        <time>2023-01-18T13:03:40Z</time>
      </trkpt>
      <trkpt lat="49.75389" lon="2.17672">
        <ele>98.5</ele>
        <time>2023-01-18T13:03:41Z</time>
      </trkpt>
      <trkpt lat="49.75389" lon="2.17672">
        <ele>98.5</ele>
        <time>2023-01-18T13:03:42Z</time>
      </trkpt>
      <trkpt lat="49.75389" lon="2.17672">
        <ele>98.5</ele>
        <time>2023-01-18T13:03:43Z</time>
      </trkpt>
      <trkpt lat="49.75389" lon="2.17672">
        <ele>98.5</ele>
        <time>2023-01-18T13:03:44Z</time>
      </trkpt>
      <trkpt lat="49.75389" lon="2.17672">
        <ele>98.5</ele>
        <time>2023-01-18T13:03:45Z</time>
      </trkpt>
      <trkpt lat="49.75389" lon="2.17672">
        <ele>98.5</ele>
        <time>2023-01-18T13:03:46Z</time>
      </trkpt>
      <trkpt lat="49.75389" lon="2.17672">
        <ele>98.5</ele>
        <time>2023-01-18T13:03:47Z</time>
      </trkpt>
      <trkpt lat="49.75389" lon="2.17672">
        <ele>98.5</ele>
        <time>2023-01-18T13:03:48Z</time>
      </trkpt>
      <trkpt lat="49.75389" lon="2.17672">
        <ele>98.5</ele>
        <time>2023-01-18T13:03:49Z</time>
      </trkpt>
      <trkpt lat="49.75389" lon="2.17672">
        <ele>98.5</ele>
        <time>2023-01-18T13:03:50Z</time>
      </trkpt>
      <trkpt lat="49.75389" lon="2.17672">
        <ele>98.5</ele>
        <time>2023-01-18T13:03:51Z</time>
      </trkpt>
      <trkpt lat="49.75389" lon="2.17672">
        <ele>98.5</ele>
        <time>2023-01-18T13:03:52Z</time>
      </trkpt>
      <trkpt lat="49.75389" lon="2.17672">
        <ele>98.5</ele>
        <time>2023-01-18T13:03:53Z</time>
      </trkpt>
      <trkpt lat="49.75389" lon="2.17672">
        <ele>98.5</ele>
        <time>2023-01-18T13:03:54Z</time>
      </trkpt>
      <trkpt lat="49.75389" lon="2.17672">
        <ele>98.5</ele>
        <time>2023-01-18T13:03:55Z</time>
      </trkpt>
      <trkpt lat="49.75389" lon="2.17671">
        <ele>98.5</ele>
        <time>2023-01-18T13:03:56Z</time>
      </trkpt>
      <trkpt lat="49.75388" lon="2.17664">
        <ele>98.4</ele>
        <time>2023-01-18T13:03:58Z</time>
      </trkpt>
      <trkpt lat="49.75388" lon="2.17664">
        <ele>98.4</ele>
        <time>2023-01-18T13:03:59Z</time>
      </trkpt>
      <trkpt lat="49.75389" lon="2.17664">
        <ele>98.4</ele>
        <time>2023-01-18T13:04:00Z</time>
      </trkpt>
      <trkpt lat="49.7539" lon="2.17663">
        <ele>98.4</ele>
        <time>2023-01-18T13:04:01Z</time>
      </trkpt>
      <trkpt lat="49.7539" lon="2.17662">
        <ele>98.4</ele>
        <time>2023-01-18T13:04:03Z</time>
      </trkpt>
      <trkpt lat="49.75391" lon="2.17661">
        <ele>98.4</ele>
        <time>2023-01-18T13:04:04Z</time>
      </trkpt>
      <trkpt lat="49.75391" lon="2.1766">
        <ele>98.4</ele>
        <time>2023-01-18T13:04:05Z</time>
      </trkpt>
      <trkpt lat="49.75392" lon="2.17657">
        <ele>98.4</ele>
        <time>2023-01-18T13:04:06Z</time>
      </trkpt>
      <trkpt lat="49.75392" lon="2.17655">
        <ele>98.4</ele>
        <time>2023-01-18T13:04:07Z</time>
      </trkpt>
      <trkpt lat="49.75392" lon="2.17654">
        <ele>98.4</ele>
        <time>2023-01-18T13:04:08Z</time>
      </trkpt>
      <trkpt lat="49.75393" lon="2.17653">
        <ele>98.3</ele>
        <time>2023-01-18T13:04:10Z</time>
      </trkpt>
      <trkpt lat="49.75393" lon="2.17652">
        <ele>98.3</ele>
        <time>2023-01-18T13:04:11Z</time>
      </trkpt>
      <trkpt lat="49.75393" lon="2.17648">
        <ele>98.3</ele>
        <time>2023-01-18T13:04:12Z</time>
      </trkpt>
      <trkpt lat="49.75393" lon="2.17647">
        <ele>98.3</ele>
        <time>2023-01-18T13:04:13Z</time>
      </trkpt>
      <trkpt lat="49.75394" lon="2.17646">
        <ele>98.3</ele>
        <time>2023-01-18T13:04:14Z</time>
      </trkpt>
      <trkpt lat="49.75394" lon="2.17644">
        <ele>98.3</ele>
        <time>2023-01-18T13:04:15Z</time>
      </trkpt>
      <trkpt lat="49.75395" lon="2.17643">
        <ele>98.3</ele>
        <time>2023-01-18T13:04:17Z</time>
      </trkpt>
      <trkpt lat="49.75396" lon="2.17642">
        <ele>98.3</ele>
        <time>2023-01-18T13:04:18Z</time>
      </trkpt>
      <trkpt lat="49.75396" lon="2.1764">
        <ele>98.3</ele>
        <time>2023-01-18T13:04:19Z</time>
      </trkpt>
      <trkpt lat="49.75396" lon="2.17637">
        <ele>98.3</ele>
        <time>2023-01-18T13:04:20Z</time>
      </trkpt>
      <trkpt lat="49.75396" lon="2.17634">
        <ele>98.3</ele>
        <time>2023-01-18T13:04:21Z</time>
      </trkpt>
      <trkpt lat="49.75396" lon="2.17633">
        <ele>98.3</ele>
        <time>2023-01-18T13:04:22Z</time>
      </trkpt>
      <trkpt lat="49.75396" lon="2.17631">
        <ele>98.3</ele>
        <time>2023-01-18T13:04:23Z</time>
      </trkpt>
      <trkpt lat="49.75396" lon="2.1763">
        <ele>98.3</ele>
        <time>2023-01-18T13:04:24Z</time>
      </trkpt>
      <trkpt lat="49.75397" lon="2.17629">
        <ele>98.3</ele>
        <time>2023-01-18T13:04:26Z</time>
      </trkpt>
      <trkpt lat="49.75397" lon="2.17627">
        <ele>98.3</ele>
        <time>2023-01-18T13:04:27Z</time>
      </trkpt>
      <trkpt lat="49.75398" lon="2.17626">
        <ele>98.3</ele>
        <time>2023-01-18T13:04:28Z</time>
      </trkpt>
      <trkpt lat="49.75398" lon="2.17624">
        <ele>98.3</ele>
        <time>2023-01-18T13:04:29Z</time>
      </trkpt>
      <trkpt lat="49.75399" lon="2.17623">
        <ele>98.3</ele>
        <time>2023-01-18T13:04:30Z</time>
      </trkpt>
      <trkpt lat="49.75399" lon="2.17622">
        <ele>98.3</ele>
        <time>2023-01-18T13:04:31Z</time>
      </trkpt>
      <trkpt lat="49.754" lon="2.1762">
        <ele>98.3</ele>
        <time>2023-01-18T13:04:32Z</time>
      </trkpt>
      <trkpt lat="49.754" lon="2.17619">
        <ele>98.3</ele>
        <time>2023-01-18T13:04:33Z</time>
      </trkpt>
      <trkpt lat="49.754" lon="2.17618">
        <ele>98.3</ele>
        <time>2023-01-18T13:04:34Z</time>
      </trkpt>
      <trkpt lat="49.75401" lon="2.17617">
        <ele>98.3</ele>
        <time>2023-01-18T13:04:36Z</time>
      </trkpt>
      <trkpt lat="49.75401" lon="2.17616">
        <ele>98.3</ele>
        <time>2023-01-18T13:04:37Z</time>
      </trkpt>
      <trkpt lat="49.75402" lon="2.17614">
        <ele>98.3</ele>
        <time>2023-01-18T13:04:38Z</time>
      </trkpt>
      <trkpt lat="49.75402" lon="2.17611">
        <ele>98.3</ele>
        <time>2023-01-18T13:04:39Z</time>
      </trkpt>
      <trkpt lat="49.75403" lon="2.1761">
        <ele>98.3</ele>
        <time>2023-01-18T13:04:40Z</time>
      </trkpt>
      <trkpt lat="49.75403" lon="2.17609">
        <ele>98.3</ele>
        <time>2023-01-18T13:04:41Z</time>
      </trkpt>
      <trkpt lat="49.75404" lon="2.17606">
        <ele>98.3</ele>
        <time>2023-01-18T13:04:42Z</time>
      </trkpt>
      <trkpt lat="49.75405" lon="2.17604">
        <ele>98.3</ele>
        <time>2023-01-18T13:04:43Z</time>
      </trkpt>
      <trkpt lat="49.75405" lon="2.17602">
        <ele>98.3</ele>
        <time>2023-01-18T13:04:44Z</time>
      </trkpt>
      <trkpt lat="49.75406" lon="2.176">
        <ele>98.3</ele>
        <time>2023-01-18T13:04:45Z</time>
      </trkpt>
      <trkpt lat="49.75407" lon="2.17598">
        <ele>98.3</ele>
        <time>2023-01-18T13:04:47Z</time>
      </trkpt>
      <trkpt lat="49.75408" lon="2.17596">
        <ele>98.3</ele>
        <time>2023-01-18T13:04:48Z</time>
      </trkpt>
      <trkpt lat="49.75409" lon="2.17594">
        <ele>98.3</ele>
        <time>2023-01-18T13:04:49Z</time>
      </trkpt>
      <trkpt lat="49.7541" lon="2.17592">
        <ele>98.3</ele>
        <time>2023-01-18T13:04:50Z</time>
      </trkpt>
      <trkpt lat="49.75411" lon="2.1759">
        <ele>98.3</ele>
        <time>2023-01-18T13:04:51Z</time>
      </trkpt>
      <trkpt lat="49.75412" lon="2.17588">
        <ele>98.3</ele>
        <time>2023-01-18T13:04:52Z</time>
      </trkpt>
      <trkpt lat="49.75413" lon="2.17586">
        <ele>98.3</ele>
        <time>2023-01-18T13:04:53Z</time>
      </trkpt>
      <trkpt lat="49.75413" lon="2.17584">
        <ele>98.3</ele>
        <time>2023-01-18T13:04:54Z</time>
      </trkpt>
      <trkpt lat="49.75415" lon="2.1758">
        <ele>98.4</ele>
        <time>2023-01-18T13:04:55Z</time>
      </trkpt>
      <trkpt lat="49.75416" lon="2.17579">
        <ele>98.4</ele>
        <time>2023-01-18T13:04:57Z</time>
      </trkpt>
      <trkpt lat="49.75417" lon="2.17578">
        <ele>98.4</ele>
        <time>2023-01-18T13:04:58Z</time>
      </trkpt>
      <trkpt lat="49.75417" lon="2.17578">
        <ele>98.4</ele>
        <time>2023-01-18T13:04:59Z</time>
      </trkpt>
      <trkpt lat="49.75418" lon="2.17577">
        <ele>98.4</ele>
        <time>2023-01-18T13:05:00Z</time>
      </trkpt>
      <trkpt lat="49.75419" lon="2.17575">
        <ele>98.4</ele>
        <time>2023-01-18T13:05:01Z</time>
      </trkpt>
      <trkpt lat="49.75421" lon="2.17575">
        <ele>98.4</ele>
        <time>2023-01-18T13:05:02Z</time>
      </trkpt>
      <trkpt lat="49.75423" lon="2.17574">
        <ele>98.4</ele>
        <time>2023-01-18T13:05:03Z</time>
      </trkpt>
      <trkpt lat="49.75424" lon="2.17573">
        <ele>98.4</ele>
        <time>2023-01-18T13:05:04Z</time>
      </trkpt>
      <trkpt lat="49.75426" lon="2.17571">
        <ele>98.4</ele>
        <time>2023-01-18T13:05:05Z</time>
      </trkpt>
      <trkpt lat="49.75427" lon="2.17571">
        <ele>98.4</ele>
        <time>2023-01-18T13:05:06Z</time>
      </trkpt>
      <trkpt lat="49.75428" lon="2.17569">
        <ele>98.4</ele>
        <time>2023-01-18T13:05:08Z</time>
      </trkpt>
      <trkpt lat="49.75429" lon="2.17568">
        <ele>98.4</ele>
        <time>2023-01-18T13:05:09Z</time>
      </trkpt>
      <trkpt lat="49.75431" lon="2.17565">
        <ele>98.4</ele>
        <time>2023-01-18T13:05:10Z</time>
      </trkpt>
      <trkpt lat="49.75431" lon="2.17563">
        <ele>98.4</ele>
        <time>2023-01-18T13:05:11Z</time>
      </trkpt>
      <trkpt lat="49.75432" lon="2.17562">
        <ele>98.4</ele>
        <time>2023-01-18T13:05:12Z</time>
      </trkpt>
      <trkpt lat="49.75433" lon="2.17561">
        <ele>98.4</ele>
        <time>2023-01-18T13:05:13Z</time>
      </trkpt>
      <trkpt lat="49.75434" lon="2.17559">
        <ele>98.4</ele>
        <time>2023-01-18T13:05:14Z</time>
      </trkpt>
      <trkpt lat="49.75435" lon="2.17557">
        <ele>98.4</ele>
        <time>2023-01-18T13:05:16Z</time>
      </trkpt>
      <trkpt lat="49.75436" lon="2.17556">
        <ele>98.4</ele>
        <time>2023-01-18T13:05:17Z</time>
      </trkpt>
      <trkpt lat="49.75438" lon="2.17554">
        <ele>98.4</ele>
        <time>2023-01-18T13:05:18Z</time>
      </trkpt>
      <trkpt lat="49.75438" lon="2.17553">
        <ele>98.4</ele>
        <time>2023-01-18T13:05:19Z</time>
      </trkpt>
      <trkpt lat="49.75439" lon="2.17552">
        <ele>98.4</ele>
        <time>2023-01-18T13:05:20Z</time>
      </trkpt>
      <trkpt lat="49.7544" lon="2.17549">
        <ele>98.4</ele>
        <time>2023-01-18T13:05:21Z</time>
      </trkpt>
      <trkpt lat="49.75441" lon="2.17548">
        <ele>98.4</ele>
        <time>2023-01-18T13:05:22Z</time>
      </trkpt>
      <trkpt lat="49.75441" lon="2.17547">
        <ele>98.4</ele>
        <time>2023-01-18T13:05:23Z</time>
      </trkpt>
      <trkpt lat="49.75442" lon="2.17546">
        <ele>98.4</ele>
        <time>2023-01-18T13:05:24Z</time>
      </trkpt>
      <trkpt lat="49.75444" lon="2.17542">
        <ele>98.4</ele>
        <time>2023-01-18T13:05:26Z</time>
      </trkpt>
      <trkpt lat="49.75444" lon="2.17541">
        <ele>98.4</ele>
        <time>2023-01-18T13:05:27Z</time>
      </trkpt>
      <trkpt lat="49.75445" lon="2.1754">
        <ele>98.4</ele>
        <time>2023-01-18T13:05:28Z</time>
      </trkpt>
      <trkpt lat="49.75446" lon="2.17538">
        <ele>98.4</ele>
        <time>2023-01-18T13:05:29Z</time>
      </trkpt>
      <trkpt lat="49.75447" lon="2.17537">
        <ele>98.4</ele>
        <time>2023-01-18T13:05:30Z</time>
      </trkpt>
      <trkpt lat="49.75448" lon="2.17535">
        <ele>98.4</ele>
        <time>2023-01-18T13:05:31Z</time>
      </trkpt>
      <trkpt lat="49.75449" lon="2.17534">
        <ele>98.4</ele>
        <time>2023-01-18T13:05:32Z</time>
      </trkpt>
      <trkpt lat="49.7545" lon="2.17533">
        <ele>98.4</ele>
        <time>2023-01-18T13:05:33Z</time>
      </trkpt>
      <trkpt lat="49.75451" lon="2.17532">
        <ele>98.4</ele>
        <time>2023-01-18T13:05:34Z</time>
      </trkpt>
      <trkpt lat="49.75452" lon="2.17532">
        <ele>98.4</ele>
        <time>2023-01-18T13:05:35Z</time>
      </trkpt>
      <trkpt lat="49.75454" lon="2.1753">
        <ele>98.4</ele>
        <time>2023-01-18T13:05:36Z</time>
      </trkpt>
      <trkpt lat="49.75455" lon="2.1753">
        <ele>98.4</ele>
        <time>2023-01-18T13:05:37Z</time>
      </trkpt>
      <trkpt lat="49.75456" lon="2.17529">
        <ele>98.4</ele>
        <time>2023-01-18T13:05:38Z</time>
      </trkpt>
      <trkpt lat="49.75457" lon="2.17528">
        <ele>98.4</ele>
        <time>2023-01-18T13:05:39Z</time>
      </trkpt>
      <trkpt lat="49.75459" lon="2.17526">
        <ele>98.4</ele>
        <time>2023-01-18T13:05:40Z</time>
      </trkpt>
      <trkpt lat="49.75459" lon="2.17526">
        <ele>98.4</ele>
        <time>2023-01-18T13:05:42Z</time>
      </trkpt>
      <trkpt lat="49.7546" lon="2.17524">
        <ele>98.4</ele>
        <time>2023-01-18T13:05:43Z</time>
      </trkpt>
      <trkpt lat="49.75461" lon="2.17523">
        <ele>98.4</ele>
        <time>2023-01-18T13:05:44Z</time>
      </trkpt>
      <trkpt lat="49.75461" lon="2.17522">
        <ele>98.4</ele>
        <time>2023-01-18T13:05:45Z</time>
      </trkpt>
      <trkpt lat="49.75462" lon="2.17521">
        <ele>98.4</ele>
        <time>2023-01-18T13:05:46Z</time>
      </trkpt>
      <trkpt lat="49.75464" lon="2.17518">
        <ele>98.4</ele>
        <time>2023-01-18T13:05:47Z</time>
      </trkpt>
      <trkpt lat="49.75464" lon="2.17517">
        <ele>98.4</ele>
        <time>2023-01-18T13:05:48Z</time>
      </trkpt>
      <trkpt lat="49.75465" lon="2.17516">
        <ele>98.4</ele>
        <time>2023-01-18T13:05:49Z</time>
      </trkpt>
      <trkpt lat="49.75465" lon="2.17515">
        <ele>98.3</ele>
        <time>2023-01-18T13:05:50Z</time>
      </trkpt>
      <trkpt lat="49.75466" lon="2.17514">
        <ele>98.3</ele>
        <time>2023-01-18T13:05:51Z</time>
      </trkpt>
      <trkpt lat="49.75467" lon="2.17512">
        <ele>98.3</ele>
        <time>2023-01-18T13:05:52Z</time>
      </trkpt>
      <trkpt lat="49.75468" lon="2.17509">
        <ele>98.3</ele>
        <time>2023-01-18T13:05:54Z</time>
      </trkpt>
      <trkpt lat="49.75469" lon="2.17508">
        <ele>98.3</ele>
        <time>2023-01-18T13:05:55Z</time>
      </trkpt>
      <trkpt lat="49.75469" lon="2.17506">
        <ele>98.3</ele>
        <time>2023-01-18T13:05:56Z</time>
      </trkpt>
      <trkpt lat="49.7547" lon="2.17505">
        <ele>98.3</ele>
        <time>2023-01-18T13:05:57Z</time>
      </trkpt>
      <trkpt lat="49.75471" lon="2.17504">
        <ele>98.3</ele>
        <time>2023-01-18T13:05:58Z</time>
      </trkpt>
      <trkpt lat="49.75471" lon="2.17503">
        <ele>98.3</ele>
        <time>2023-01-18T13:05:59Z</time>
      </trkpt>
      <trkpt lat="49.75472" lon="2.17501">
        <ele>98.3</ele>
        <time>2023-01-18T13:06:00Z</time>
      </trkpt>
      <trkpt lat="49.75473" lon="2.17499">
        <ele>98.3</ele>
        <time>2023-01-18T13:06:01Z</time>
      </trkpt>
      <trkpt lat="49.75473" lon="2.17497">
        <ele>98.3</ele>
        <time>2023-01-18T13:06:02Z</time>
      </trkpt>
      <trkpt lat="49.75473" lon="2.17496">
        <ele>98.3</ele>
        <time>2023-01-18T13:06:03Z</time>
      </trkpt>
      <trkpt lat="49.75474" lon="2.17495">
        <ele>98.2</ele>
        <time>2023-01-18T13:06:05Z</time>
      </trkpt>
      <trkpt lat="49.75474" lon="2.17493">
        <ele>98.2</ele>
        <time>2023-01-18T13:06:06Z</time>
      </trkpt>
      <trkpt lat="49.75475" lon="2.17491">
        <ele>98.2</ele>
        <time>2023-01-18T13:06:07Z</time>
      </trkpt>
      <trkpt lat="49.75475" lon="2.1749">
        <ele>98.2</ele>
        <time>2023-01-18T13:06:08Z</time>
      </trkpt>
      <trkpt lat="49.75476" lon="2.17488">
        <ele>98.2</ele>
        <time>2023-01-18T13:06:09Z</time>
      </trkpt>
      <trkpt lat="49.75476" lon="2.17486">
        <ele>98.2</ele>
        <time>2023-01-18T13:06:10Z</time>
      </trkpt>
      <trkpt lat="49.75477" lon="2.17485">
        <ele>98.2</ele>
        <time>2023-01-18T13:06:11Z</time>
      </trkpt>
      <trkpt lat="49.75477" lon="2.17483">
        <ele>98.2</ele>
        <time>2023-01-18T13:06:12Z</time>
      </trkpt>
      <trkpt lat="49.75477" lon="2.17481">
        <ele>98.2</ele>
        <time>2023-01-18T13:06:13Z</time>
      </trkpt>
      <trkpt lat="49.75478" lon="2.17479">
        <ele>98.1</ele>
        <time>2023-01-18T13:06:14Z</time>
      </trkpt>
      <trkpt lat="49.75478" lon="2.17476">
        <ele>98.1</ele>
        <time>2023-01-18T13:06:16Z</time>
      </trkpt>
      <trkpt lat="49.75478" lon="2.17476">
        <ele>98.1</ele>
        <time>2023-01-18T13:06:17Z</time>
      </trkpt>
      <trkpt lat="49.75478" lon="2.17475">
        <ele>98.1</ele>
        <time>2023-01-18T13:06:18Z</time>
      </trkpt>
      <trkpt lat="49.75478" lon="2.17473">
        <ele>98.1</ele>
        <time>2023-01-18T13:06:19Z</time>
      </trkpt>
      <trkpt lat="49.75479" lon="2.17472">
        <ele>98.1</ele>
        <time>2023-01-18T13:06:20Z</time>
      </trkpt>
      <trkpt lat="49.7548" lon="2.17469">
        <ele>98</ele>
        <time>2023-01-18T13:06:21Z</time>
      </trkpt>
      <trkpt lat="49.7548" lon="2.17468">
        <ele>98</ele>
        <time>2023-01-18T13:06:23Z</time>
      </trkpt>
      <trkpt lat="49.75481" lon="2.17467">
        <ele>98</ele>
        <time>2023-01-18T13:06:24Z</time>
      </trkpt>
      <trkpt lat="49.75482" lon="2.17464">
        <ele>98</ele>
        <time>2023-01-18T13:06:25Z</time>
      </trkpt>
      <trkpt lat="49.75482" lon="2.17463">
        <ele>98</ele>
        <time>2023-01-18T13:06:26Z</time>
      </trkpt>
      <trkpt lat="49.75483" lon="2.17462">
        <ele>98</ele>
        <time>2023-01-18T13:06:27Z</time>
      </trkpt>
      <trkpt lat="49.75484" lon="2.1746">
        <ele>97.9</ele>
        <time>2023-01-18T13:06:28Z</time>
      </trkpt>
      <trkpt lat="49.75485" lon="2.17459">
        <ele>97.9</ele>
        <time>2023-01-18T13:06:29Z</time>
      </trkpt>
      <trkpt lat="49.75486" lon="2.17458">
        <ele>97.9</ele>
        <time>2023-01-18T13:06:30Z</time>
      </trkpt>
      <trkpt lat="49.75487" lon="2.17457">
        <ele>97.9</ele>
        <time>2023-01-18T13:06:32Z</time>
      </trkpt>
      <trkpt lat="49.75488" lon="2.17457">
        <ele>97.9</ele>
        <time>2023-01-18T13:06:33Z</time>
      </trkpt>
      <trkpt lat="49.75489" lon="2.17457">
        <ele>97.9</ele>
        <time>2023-01-18T13:06:34Z</time>
      </trkpt>
      <trkpt lat="49.7549" lon="2.17458">
        <ele>97.8</ele>
        <time>2023-01-18T13:06:35Z</time>
      </trkpt>
      <trkpt lat="49.75491" lon="2.17458">
        <ele>97.8</ele>
        <time>2023-01-18T13:06:36Z</time>
      </trkpt>
      <trkpt lat="49.75492" lon="2.17457">
        <ele>97.8</ele>
        <time>2023-01-18T13:06:37Z</time>
      </trkpt>
      <trkpt lat="49.75493" lon="2.17456">
        <ele>97.8</ele>
        <time>2023-01-18T13:06:38Z</time>
      </trkpt>
      <trkpt lat="49.75495" lon="2.17455">
        <ele>97.7</ele>
        <time>2023-01-18T13:06:39Z</time>
      </trkpt>
      <trkpt lat="49.75497" lon="2.17453">
        <ele>97.7</ele>
        <time>2023-01-18T13:06:40Z</time>
      </trkpt>
      <trkpt lat="49.75498" lon="2.17452">
        <ele>97.7</ele>
        <time>2023-01-18T13:06:42Z</time>
      </trkpt>
      <trkpt lat="49.75499" lon="2.17451">
        <ele>97.7</ele>
        <time>2023-01-18T13:06:43Z</time>
      </trkpt>
      <trkpt lat="49.755" lon="2.1745">
        <ele>97.6</ele>
        <time>2023-01-18T13:06:44Z</time>
      </trkpt>
      <trkpt lat="49.75501" lon="2.17448">
        <ele>97.6</ele>
        <time>2023-01-18T13:06:45Z</time>
      </trkpt>
      <trkpt lat="49.75504" lon="2.17449">
        <ele>97.6</ele>
        <time>2023-01-18T13:06:46Z</time>
      </trkpt>
      <trkpt lat="49.75506" lon="2.17451">
        <ele>97.5</ele>
        <time>2023-01-18T13:06:47Z</time>
      </trkpt>
      <trkpt lat="49.75508" lon="2.17451">
        <ele>97.5</ele>
        <time>2023-01-18T13:06:49Z</time>
      </trkpt>
      <trkpt lat="49.75511" lon="2.17452">
        <ele>97.4</ele>
        <time>2023-01-18T13:06:50Z</time>
      </trkpt>
      <trkpt lat="49.75513" lon="2.17454">
        <ele>97.4</ele>
        <time>2023-01-18T13:06:51Z</time>
      </trkpt>
      <trkpt lat="49.75514" lon="2.17455">
        <ele>97.3</ele>
        <time>2023-01-18T13:06:52Z</time>
      </trkpt>
      <trkpt lat="49.75515" lon="2.17455">
        <ele>97.3</ele>
        <time>2023-01-18T13:06:53Z</time>
      </trkpt>
      <trkpt lat="49.75516" lon="2.17454">
        <ele>97.3</ele>
        <time>2023-01-18T13:06:54Z</time>
      </trkpt>
      <trkpt lat="49.75517" lon="2.17453">
        <ele>97.3</ele>
        <time>2023-01-18T13:06:56Z</time>
      </trkpt>
      <trkpt lat="49.75517" lon="2.17453">
        <ele>97.3</ele>
        <time>2023-01-18T13:06:57Z</time>
      </trkpt>
      <trkpt lat="49.75516" lon="2.17453">
        <ele>97.3</ele>
        <time>2023-01-18T13:06:58Z</time>
      </trkpt>
      <trkpt lat="49.75515" lon="2.17453">
        <ele>97.2</ele>
        <time>2023-01-18T13:06:59Z</time>
      </trkpt>
      <trkpt lat="49.75511" lon="2.17453">
        <ele>97.2</ele>
        <time>2023-01-18T13:07:01Z</time>
      </trkpt>
      <trkpt lat="49.75511" lon="2.17453">
        <ele>97.2</ele>
        <time>2023-01-18T13:07:02Z</time>
      </trkpt>
      <trkpt lat="49.75511" lon="2.17453">
        <ele>97.2</ele>
        <time>2023-01-18T13:07:03Z</time>
      </trkpt>
      <trkpt lat="49.75512" lon="2.17452">
        <ele>97.2</ele>
        <time>2023-01-18T13:07:04Z</time>
      </trkpt>
      <trkpt lat="49.75512" lon="2.17452">
        <ele>97.2</ele>
        <time>2023-01-18T13:07:06Z</time>
      </trkpt>
      <trkpt lat="49.75512" lon="2.17453">
        <ele>97.1</ele>
        <time>2023-01-18T13:07:07Z</time>
      </trkpt>
      <trkpt lat="49.75513" lon="2.17453">
        <ele>97.1</ele>
        <time>2023-01-18T13:07:08Z</time>
      </trkpt>
      <trkpt lat="49.75514" lon="2.17453">
        <ele>97.1</ele>
        <time>2023-01-18T13:07:09Z</time>
      </trkpt>
      <trkpt lat="49.75514" lon="2.17453">
        <ele>97.1</ele>
        <time>2023-01-18T13:07:10Z</time>
      </trkpt>
      <trkpt lat="49.75515" lon="2.17453">
        <ele>97.1</ele>
        <time>2023-01-18T13:07:12Z</time>
      </trkpt>
      <trkpt lat="49.75515" lon="2.17453">
        <ele>97.1</ele>
        <time>2023-01-18T13:07:13Z</time>
      </trkpt>
      <trkpt lat="49.75515" lon="2.17453">
        <ele>97.1</ele>
        <time>2023-01-18T13:07:14Z</time>
      </trkpt>
      <trkpt lat="49.75515" lon="2.17452">
        <ele>97.1</ele>
        <time>2023-01-18T13:07:16Z</time>
      </trkpt>
      <trkpt lat="49.75515" lon="2.17452">
        <ele>97.1</ele>
        <time>2023-01-18T13:07:17Z</time>
      </trkpt>
      <trkpt lat="49.75514" lon="2.17452">
        <ele>97.1</ele>
        <time>2023-01-18T13:07:19Z</time>
      </trkpt>
      <trkpt lat="49.75514" lon="2.17452">
        <ele>97.1</ele>
        <time>2023-01-18T13:07:20Z</time>
      </trkpt>
      <trkpt lat="49.75514" lon="2.17452">
        <ele>97.1</ele>
        <time>2023-01-18T13:07:21Z</time>
      </trkpt>
      <trkpt lat="49.75514" lon="2.17451">
        <ele>97.1</ele>
        <time>2023-01-18T13:07:23Z</time>
      </trkpt>
      <trkpt lat="49.75514" lon="2.17451">
        <ele>97.1</ele>
        <time>2023-01-18T13:07:24Z</time>
      </trkpt>
      <trkpt lat="49.75514" lon="2.17451">
        <ele>97.1</ele>
        <time>2023-01-18T13:07:26Z</time>
      </trkpt>
      <trkpt lat="49.75513" lon="2.1745">
        <ele>97</ele>
        <time>2023-01-18T13:07:27Z</time>
      </trkpt>
      <trkpt lat="49.75513" lon="2.17449">
        <ele>97</ele>
        <time>2023-01-18T13:07:29Z</time>
      </trkpt>
      <trkpt lat="49.75513" lon="2.17449">
        <ele>97</ele>
        <time>2023-01-18T13:07:30Z</time>
      </trkpt>
      <trkpt lat="49.75513" lon="2.17448">
        <ele>97</ele>
        <time>2023-01-18T13:07:31Z</time>
      </trkpt>
      <trkpt lat="49.75513" lon="2.17448">
        <ele>97</ele>
        <time>2023-01-18T13:07:32Z</time>
      </trkpt>
      <trkpt lat="49.75513" lon="2.17449">
        <ele>97</ele>
        <time>2023-01-18T13:07:33Z</time>
      </trkpt>
      <trkpt lat="49.75513" lon="2.17449">
        <ele>97</ele>
        <time>2023-01-18T13:07:34Z</time>
      </trkpt>
      <trkpt lat="49.75513" lon="2.17449">
        <ele>97</ele>
        <time>2023-01-18T13:07:35Z</time>
      </trkpt>
      <trkpt lat="49.75513" lon="2.1745">
        <ele>97</ele>
        <time>2023-01-18T13:07:36Z</time>
      </trkpt>
      <trkpt lat="49.75513" lon="2.1745">
        <ele>97</ele>
        <time>2023-01-18T13:07:37Z</time>
      </trkpt>
      <trkpt lat="49.75513" lon="2.17451">
        <ele>97</ele>
        <time>2023-01-18T13:07:38Z</time>
      </trkpt>
      <trkpt lat="49.75513" lon="2.17451">
        <ele>97</ele>
        <time>2023-01-18T13:07:39Z</time>
      </trkpt>
      <trkpt lat="49.75513" lon="2.17452">
        <ele>97</ele>
        <time>2023-01-18T13:07:40Z</time>
      </trkpt>
      <trkpt lat="49.75513" lon="2.17452">
        <ele>97</ele>
        <time>2023-01-18T13:07:41Z</time>
      </trkpt>
      <trkpt lat="49.75513" lon="2.17453">
        <ele>97</ele>
        <time>2023-01-18T13:07:42Z</time>
      </trkpt>
      <trkpt lat="49.75513" lon="2.17453">
        <ele>97</ele>
        <time>2023-01-18T13:07:43Z</time>
      </trkpt>
      <trkpt lat="49.75513" lon="2.17454">
        <ele>97</ele>
        <time>2023-01-18T13:07:44Z</time>
      </trkpt>
      <trkpt lat="49.75513" lon="2.17454">
        <ele>97</ele>
        <time>2023-01-18T13:07:45Z</time>
      </trkpt>
      <trkpt lat="49.75513" lon="2.17454">
        <ele>97</ele>
        <time>2023-01-18T13:07:46Z</time>
      </trkpt>
      <trkpt lat="49.75514" lon="2.17455">
        <ele>97</ele>
        <time>2023-01-18T13:07:47Z</time>
      </trkpt>
      <trkpt lat="49.75514" lon="2.17455">
        <ele>97</ele>
        <time>2023-01-18T13:07:48Z</time>
      </trkpt>
      <trkpt lat="49.75514" lon="2.17456">
        <ele>97</ele>
        <time>2023-01-18T13:07:49Z</time>
      </trkpt>
      <trkpt lat="49.75514" lon="2.17456">
        <ele>97</ele>
        <time>2023-01-18T13:07:50Z</time>
      </trkpt>
      <trkpt lat="49.75514" lon="2.17457">
        <ele>96.9</ele>
        <time>2023-01-18T13:07:51Z</time>
      </trkpt>
      <trkpt lat="49.75514" lon="2.17457">
        <ele>96.9</ele>
        <time>2023-01-18T13:07:52Z</time>
      </trkpt>
      <trkpt lat="49.75515" lon="2.17456">
        <ele>96.9</ele>
        <time>2023-01-18T13:07:54Z</time>
      </trkpt>
      <trkpt lat="49.75515" lon="2.17455">
        <ele>96.9</ele>
        <time>2023-01-18T13:07:55Z</time>
      </trkpt>
      <trkpt lat="49.75516" lon="2.17453">
        <ele>96.9</ele>
        <time>2023-01-18T13:07:56Z</time>
      </trkpt>
      <trkpt lat="49.75516" lon="2.17452">
        <ele>96.9</ele>
        <time>2023-01-18T13:07:57Z</time>
      </trkpt>
      <trkpt lat="49.75517" lon="2.17451">
        <ele>96.9</ele>
        <time>2023-01-18T13:07:59Z</time>
      </trkpt>
      <trkpt lat="49.75518" lon="2.17451">
        <ele>96.9</ele>
        <time>2023-01-18T13:08:00Z</time>
      </trkpt>
      <trkpt lat="49.75519" lon="2.1745">
        <ele>96.9</ele>
        <time>2023-01-18T13:08:01Z</time>
      </trkpt>
      <trkpt lat="49.7552" lon="2.17449">
        <ele>96.8</ele>
        <time>2023-01-18T13:08:02Z</time>
      </trkpt>
      <trkpt lat="49.75521" lon="2.17449">
        <ele>96.8</ele>
        <time>2023-01-18T13:08:03Z</time>
      </trkpt>
      <trkpt lat="49.75522" lon="2.17448">
        <ele>96.8</ele>
        <time>2023-01-18T13:08:04Z</time>
      </trkpt>
      <trkpt lat="49.75524" lon="2.17445">
        <ele>96.8</ele>
        <time>2023-01-18T13:08:06Z</time>
      </trkpt>
      <trkpt lat="49.75525" lon="2.17443">
        <ele>96.8</ele>
        <time>2023-01-18T13:08:07Z</time>
      </trkpt>
      <trkpt lat="49.75526" lon="2.17443">
        <ele>96.7</ele>
        <time>2023-01-18T13:08:08Z</time>
      </trkpt>
      <trkpt lat="49.75527" lon="2.17442">
        <ele>96.7</ele>
        <time>2023-01-18T13:08:09Z</time>
      </trkpt>
      <trkpt lat="49.75528" lon="2.17442">
        <ele>96.7</ele>
        <time>2023-01-18T13:08:10Z</time>
      </trkpt>
      <trkpt lat="49.75531" lon="2.17442">
        <ele>96.7</ele>
        <time>2023-01-18T13:08:11Z</time>
      </trkpt>
      <trkpt lat="49.75532" lon="2.17442">
        <ele>96.7</ele>
        <time>2023-01-18T13:08:12Z</time>
      </trkpt>
      <trkpt lat="49.75534" lon="2.17442">
        <ele>96.6</ele>
        <time>2023-01-18T13:08:13Z</time>
      </trkpt>
      <trkpt lat="49.75536" lon="2.17442">
        <ele>96.6</ele>
        <time>2023-01-18T13:08:15Z</time>
      </trkpt>
      <trkpt lat="49.75537" lon="2.17442">
        <ele>96.6</ele>
        <time>2023-01-18T13:08:16Z</time>
      </trkpt>
      <trkpt lat="49.75539" lon="2.17442">
        <ele>96.6</ele>
        <time>2023-01-18T13:08:17Z</time>
      </trkpt>
      <trkpt lat="49.75541" lon="2.17442">
        <ele>96.6</ele>
        <time>2023-01-18T13:08:18Z</time>
      </trkpt>
      <trkpt lat="49.75542" lon="2.17442">
        <ele>96.6</ele>
        <time>2023-01-18T13:08:19Z</time>
      </trkpt>
      <trkpt lat="49.75544" lon="2.17442">
        <ele>96.5</ele>
        <time>2023-01-18T13:08:20Z</time>
      </trkpt>
      <trkpt lat="49.75546" lon="2.17441">
        <ele>96.5</ele>
        <time>2023-01-18T13:08:21Z</time>
      </trkpt>
      <trkpt lat="49.75548" lon="2.17441">
        <ele>96.5</ele>
        <time>2023-01-18T13:08:22Z</time>
      </trkpt>
      <trkpt lat="49.75549" lon="2.17441">
        <ele>96.5</ele>
        <time>2023-01-18T13:08:24Z</time>
      </trkpt>
      <trkpt lat="49.75549" lon="2.1744">
        <ele>96.5</ele>
        <time>2023-01-18T13:08:25Z</time>
      </trkpt>
      <trkpt lat="49.75551" lon="2.1744">
        <ele>96.5</ele>
        <time>2023-01-18T13:08:26Z</time>
      </trkpt>
      <trkpt lat="49.75553" lon="2.17441">
        <ele>96.5</ele>
        <time>2023-01-18T13:08:27Z</time>
      </trkpt>
      <trkpt lat="49.75553" lon="2.17441">
        <ele>96.4</ele>
        <time>2023-01-18T13:08:28Z</time>
      </trkpt>
      <trkpt lat="49.75555" lon="2.1744">
        <ele>96.4</ele>
        <time>2023-01-18T13:08:29Z</time>
      </trkpt>
      <trkpt lat="49.75556" lon="2.1744">
        <ele>96.4</ele>
        <time>2023-01-18T13:08:30Z</time>
      </trkpt>
      <trkpt lat="49.75557" lon="2.1744">
        <ele>96.4</ele>
        <time>2023-01-18T13:08:31Z</time>
      </trkpt>
      <trkpt lat="49.75559" lon="2.1744">
        <ele>96.4</ele>
        <time>2023-01-18T13:08:32Z</time>
      </trkpt>
      <trkpt lat="49.7556" lon="2.17439">
        <ele>96.4</ele>
        <time>2023-01-18T13:08:34Z</time>
      </trkpt>
      <trkpt lat="49.75561" lon="2.17439">
        <ele>96.4</ele>
        <time>2023-01-18T13:08:35Z</time>
      </trkpt>
      <trkpt lat="49.75562" lon="2.17438">
        <ele>96.4</ele>
        <time>2023-01-18T13:08:36Z</time>
      </trkpt>
      <trkpt lat="49.75563" lon="2.17438">
        <ele>96.4</ele>
        <time>2023-01-18T13:08:37Z</time>
      </trkpt>
      <trkpt lat="49.75563" lon="2.17438">
        <ele>96.4</ele>
        <time>2023-01-18T13:08:38Z</time>
      </trkpt>
      <trkpt lat="49.75564" lon="2.17437">
        <ele>96.4</ele>
        <time>2023-01-18T13:08:39Z</time>
      </trkpt>
      <trkpt lat="49.75565" lon="2.17436">
        <ele>96.4</ele>
        <time>2023-01-18T13:08:40Z</time>
      </trkpt>
      <trkpt lat="49.75567" lon="2.17435">
        <ele>96.4</ele>
        <time>2023-01-18T13:08:41Z</time>
      </trkpt>
      <trkpt lat="49.75567" lon="2.17434">
        <ele>96.4</ele>
        <time>2023-01-18T13:08:42Z</time>
      </trkpt>
      <trkpt lat="49.75567" lon="2.17434">
        <ele>96.4</ele>
        <time>2023-01-18T13:08:44Z</time>
      </trkpt>
      <trkpt lat="49.75568" lon="2.17433">
        <ele>96.4</ele>
        <time>2023-01-18T13:08:45Z</time>
      </trkpt>
      <trkpt lat="49.75569" lon="2.17432">
        <ele>96.4</ele>
        <time>2023-01-18T13:08:46Z</time>
      </trkpt>
      <trkpt lat="49.75571" lon="2.17431">
        <ele>96.4</ele>
        <time>2023-01-18T13:08:47Z</time>
      </trkpt>
      <trkpt lat="49.75571" lon="2.17431">
        <ele>96.4</ele>
        <time>2023-01-18T13:08:48Z</time>
      </trkpt>
      <trkpt lat="49.75572" lon="2.17431">
        <ele>96.4</ele>
        <time>2023-01-18T13:08:49Z</time>
      </trkpt>
      <trkpt lat="49.75572" lon="2.17432">
        <ele>96.4</ele>
        <time>2023-01-18T13:08:51Z</time>
      </trkpt>
      <trkpt lat="49.75572" lon="2.17433">
        <ele>96.4</ele>
        <time>2023-01-18T13:08:52Z</time>
      </trkpt>
      <trkpt lat="49.75572" lon="2.17436">
        <ele>96.4</ele>
        <time>2023-01-18T13:08:53Z</time>
      </trkpt>
      <trkpt lat="49.75572" lon="2.17438">
        <ele>96.4</ele>
        <time>2023-01-18T13:08:54Z</time>
      </trkpt>
      <trkpt lat="49.75572" lon="2.17439">
        <ele>96.4</ele>
        <time>2023-01-18T13:08:55Z</time>
      </trkpt>
      <trkpt lat="49.75572" lon="2.17442">
        <ele>96.4</ele>
        <time>2023-01-18T13:08:57Z</time>
      </trkpt>
      <trkpt lat="49.75572" lon="2.17444">
        <ele>96.4</ele>
        <time>2023-01-18T13:08:58Z</time>
      </trkpt>
      <trkpt lat="49.75572" lon="2.17446">
        <ele>96.4</ele>
        <time>2023-01-18T13:08:59Z</time>
      </trkpt>
      <trkpt lat="49.75572" lon="2.17448">
        <ele>96.4</ele>
        <time>2023-01-18T13:09:00Z</time>
      </trkpt>
      <trkpt lat="49.75572" lon="2.17451">
        <ele>96.4</ele>
        <time>2023-01-18T13:09:01Z</time>
      </trkpt>
      <trkpt lat="49.75571" lon="2.17456">
        <ele>96.4</ele>
        <time>2023-01-18T13:09:02Z</time>
      </trkpt>
      <trkpt lat="49.75571" lon="2.17457">
        <ele>96.4</ele>
        <time>2023-01-18T13:09:03Z</time>
      </trkpt>
      <trkpt lat="49.7557" lon="2.17458">
        <ele>96.4</ele>
        <time>2023-01-18T13:09:05Z</time>
      </trkpt>
      <trkpt lat="49.7557" lon="2.17461">
        <ele>96.4</ele>
        <time>2023-01-18T13:09:06Z</time>
      </trkpt>
      <trkpt lat="49.75569" lon="2.17463">
        <ele>96.4</ele>
        <time>2023-01-18T13:09:07Z</time>
      </trkpt>
      <trkpt lat="49.75569" lon="2.17465">
        <ele>96.4</ele>
        <time>2023-01-18T13:09:08Z</time>
      </trkpt>
      <trkpt lat="49.75569" lon="2.17467">
        <ele>96.4</ele>
        <time>2023-01-18T13:09:09Z</time>
      </trkpt>
      <trkpt lat="49.75568" lon="2.1747">
        <ele>96.4</ele>
        <time>2023-01-18T13:09:10Z</time>
      </trkpt>
      <trkpt lat="49.75568" lon="2.17472">
        <ele>96.4</ele>
        <time>2023-01-18T13:09:11Z</time>
      </trkpt>
      <trkpt lat="49.75567" lon="2.17476">
        <ele>96.4</ele>
        <time>2023-01-18T13:09:13Z</time>
      </trkpt>
      <trkpt lat="49.75568" lon="2.17478">
        <ele>96.4</ele>
        <time>2023-01-18T13:09:14Z</time>
      </trkpt>
      <trkpt lat="49.75568" lon="2.1748">
        <ele>96.4</ele>
        <time>2023-01-18T13:09:15Z</time>
      </trkpt>
      <trkpt lat="49.75568" lon="2.17482">
        <ele>96.4</ele>
        <time>2023-01-18T13:09:16Z</time>
      </trkpt>
      <trkpt lat="49.75568" lon="2.17483">
        <ele>96.4</ele>
        <time>2023-01-18T13:09:17Z</time>
      </trkpt>
      <trkpt lat="49.75568" lon="2.17485">
        <ele>96.4</ele>
        <time>2023-01-18T13:09:18Z</time>
      </trkpt>
      <trkpt lat="49.75568" lon="2.17486">
        <ele>96.4</ele>
        <time>2023-01-18T13:09:19Z</time>
      </trkpt>
      <trkpt lat="49.75568" lon="2.17488">
        <ele>96.4</ele>
        <time>2023-01-18T13:09:21Z</time>
      </trkpt>
      <trkpt lat="49.75568" lon="2.17489">
        <ele>96.5</ele>
        <time>2023-01-18T13:09:22Z</time>
      </trkpt>
      <trkpt lat="49.75568" lon="2.17493">
        <ele>96.5</ele>
        <time>2023-01-18T13:09:23Z</time>
      </trkpt>
      <trkpt lat="49.75568" lon="2.17494">
        <ele>96.5</ele>
        <time>2023-01-18T13:09:24Z</time>
      </trkpt>
      <trkpt lat="49.75568" lon="2.17496">
        <ele>96.5</ele>
        <time>2023-01-18T13:09:25Z</time>
      </trkpt>
      <trkpt lat="49.75568" lon="2.17498">
        <ele>96.5</ele>
        <time>2023-01-18T13:09:26Z</time>
      </trkpt>
      <trkpt lat="49.75568" lon="2.175">
        <ele>96.5</ele>
        <time>2023-01-18T13:09:27Z</time>
      </trkpt>
      <trkpt lat="49.75568" lon="2.17502">
        <ele>96.5</ele>
        <time>2023-01-18T13:09:28Z</time>
      </trkpt>
      <trkpt lat="49.75568" lon="2.17504">
        <ele>96.5</ele>
        <time>2023-01-18T13:09:29Z</time>
      </trkpt>
      <trkpt lat="49.75568" lon="2.17506">
        <ele>96.5</ele>
        <time>2023-01-18T13:09:31Z</time>
      </trkpt>
      <trkpt lat="49.75567" lon="2.17508">
        <ele>96.5</ele>
        <time>2023-01-18T13:09:32Z</time>
      </trkpt>
      <trkpt lat="49.75567" lon="2.17509">
        <ele>96.5</ele>
        <time>2023-01-18T13:09:33Z</time>
      </trkpt>
      <trkpt lat="49.75567" lon="2.17511">
        <ele>96.5</ele>
        <time>2023-01-18T13:09:34Z</time>
      </trkpt>
      <trkpt lat="49.75566" lon="2.17513">
        <ele>96.5</ele>
        <time>2023-01-18T13:09:35Z</time>
      </trkpt>
      <trkpt lat="49.75566" lon="2.17514">
        <ele>96.5</ele>
        <time>2023-01-18T13:09:36Z</time>
      </trkpt>
      <trkpt lat="49.75566" lon="2.17516">
        <ele>96.5</ele>
        <time>2023-01-18T13:09:37Z</time>
      </trkpt>
      <trkpt lat="49.75566" lon="2.1752">
        <ele>96.5</ele>
        <time>2023-01-18T13:09:38Z</time>
      </trkpt>
      <trkpt lat="49.75566" lon="2.17521">
        <ele>96.5</ele>
        <time>2023-01-18T13:09:40Z</time>
      </trkpt>
      <trkpt lat="49.75567" lon="2.17522">
        <ele>96.5</ele>
        <time>2023-01-18T13:09:41Z</time>
      </trkpt>
      <trkpt lat="49.75566" lon="2.17525">
        <ele>96.5</ele>
        <time>2023-01-18T13:09:42Z</time>
      </trkpt>
      <trkpt lat="49.75566" lon="2.17527">
        <ele>96.5</ele>
        <time>2023-01-18T13:09:43Z</time>
      </trkpt>
      <trkpt lat="49.75566" lon="2.17528">
        <ele>96.5</ele>
        <time>2023-01-18T13:09:44Z</time>
      </trkpt>
      <trkpt lat="49.75566" lon="2.1753">
        <ele>96.5</ele>
        <time>2023-01-18T13:09:45Z</time>
      </trkpt>
      <trkpt lat="49.75566" lon="2.17532">
        <ele>96.5</ele>
        <time>2023-01-18T13:09:46Z</time>
      </trkpt>
      <trkpt lat="49.75566" lon="2.17534">
        <ele>96.5</ele>
        <time>2023-01-18T13:09:47Z</time>
      </trkpt>
      <trkpt lat="49.75567" lon="2.17537">
        <ele>96.5</ele>
        <time>2023-01-18T13:09:48Z</time>
      </trkpt>
      <trkpt lat="49.75568" lon="2.1754">
        <ele>96.6</ele>
        <time>2023-01-18T13:09:50Z</time>
      </trkpt>
      <trkpt lat="49.75568" lon="2.17542">
        <ele>96.6</ele>
        <time>2023-01-18T13:09:51Z</time>
      </trkpt>
      <trkpt lat="49.75568" lon="2.17543">
        <ele>96.6</ele>
        <time>2023-01-18T13:09:52Z</time>
      </trkpt>
      <trkpt lat="49.75568" lon="2.17546">
        <ele>96.6</ele>
        <time>2023-01-18T13:09:53Z</time>
      </trkpt>
      <trkpt lat="49.75569" lon="2.17547">
        <ele>96.6</ele>
        <time>2023-01-18T13:09:54Z</time>
      </trkpt>
      <trkpt lat="49.75569" lon="2.1755">
        <ele>96.6</ele>
        <time>2023-01-18T13:09:55Z</time>
      </trkpt>
      <trkpt lat="49.75569" lon="2.17552">
        <ele>96.6</ele>
        <time>2023-01-18T13:09:56Z</time>
      </trkpt>
      <trkpt lat="49.75569" lon="2.17553">
        <ele>96.6</ele>
        <time>2023-01-18T13:09:57Z</time>
      </trkpt>
      <trkpt lat="49.75569" lon="2.17555">
        <ele>96.6</ele>
        <time>2023-01-18T13:09:58Z</time>
      </trkpt>
      <trkpt lat="49.75569" lon="2.17556">
        <ele>96.6</ele>
        <time>2023-01-18T13:10:00Z</time>
      </trkpt>
      <trkpt lat="49.75569" lon="2.17558">
        <ele>96.6</ele>
        <time>2023-01-18T13:10:01Z</time>
      </trkpt>
      <trkpt lat="49.75569" lon="2.1756">
        <ele>96.6</ele>
        <time>2023-01-18T13:10:02Z</time>
      </trkpt>
      <trkpt lat="49.75569" lon="2.17563">
        <ele>96.6</ele>
        <time>2023-01-18T13:10:03Z</time>
      </trkpt>
      <trkpt lat="49.75569" lon="2.17565">
        <ele>96.6</ele>
        <time>2023-01-18T13:10:04Z</time>
      </trkpt>
      <trkpt lat="49.75569" lon="2.17567">
        <ele>96.6</ele>
        <time>2023-01-18T13:10:05Z</time>
      </trkpt>
      <trkpt lat="49.7557" lon="2.17569">
        <ele>96.6</ele>
        <time>2023-01-18T13:10:06Z</time>
      </trkpt>
      <trkpt lat="49.7557" lon="2.17571">
        <ele>96.6</ele>
        <time>2023-01-18T13:10:07Z</time>
      </trkpt>
      <trkpt lat="49.7557" lon="2.17572">
        <ele>96.6</ele>
        <time>2023-01-18T13:10:08Z</time>
      </trkpt>
      <trkpt lat="49.7557" lon="2.17573">
        <ele>96.6</ele>
        <time>2023-01-18T13:10:10Z</time>
      </trkpt>
      <trkpt lat="49.7557" lon="2.17574">
        <ele>96.6</ele>
        <time>2023-01-18T13:10:11Z</time>
      </trkpt>
      <trkpt lat="49.7557" lon="2.17576">
        <ele>96.6</ele>
        <time>2023-01-18T13:10:12Z</time>
      </trkpt>
      <trkpt lat="49.7557" lon="2.17577">
        <ele>96.6</ele>
        <time>2023-01-18T13:10:13Z</time>
      </trkpt>
      <trkpt lat="49.7557" lon="2.17578">
        <ele>96.6</ele>
        <time>2023-01-18T13:10:14Z</time>
      </trkpt>
      <trkpt lat="49.7557" lon="2.1758">
        <ele>96.6</ele>
        <time>2023-01-18T13:10:15Z</time>
      </trkpt>
      <trkpt lat="49.7557" lon="2.17582">
        <ele>96.6</ele>
        <time>2023-01-18T13:10:16Z</time>
      </trkpt>
      <trkpt lat="49.7557" lon="2.17584">
        <ele>96.6</ele>
        <time>2023-01-18T13:10:17Z</time>
      </trkpt>
      <trkpt lat="49.7557" lon="2.17587">
        <ele>96.6</ele>
        <time>2023-01-18T13:10:19Z</time>
      </trkpt>
      <trkpt lat="49.7557" lon="2.17589">
        <ele>96.6</ele>
        <time>2023-01-18T13:10:20Z</time>
      </trkpt>
      <trkpt lat="49.75571" lon="2.1759">
        <ele>96.6</ele>
        <time>2023-01-18T13:10:21Z</time>
      </trkpt>
      <trkpt lat="49.75571" lon="2.17592">
        <ele>96.5</ele>
        <time>2023-01-18T13:10:22Z</time>
      </trkpt>
      <trkpt lat="49.75571" lon="2.17595">
        <ele>96.5</ele>
        <time>2023-01-18T13:10:23Z</time>
      </trkpt>
      <trkpt lat="49.75571" lon="2.17597">
        <ele>96.5</ele>
        <time>2023-01-18T13:10:24Z</time>
      </trkpt>
      <trkpt lat="49.75571" lon="2.17599">
        <ele>96.5</ele>
        <time>2023-01-18T13:10:26Z</time>
      </trkpt>
      <trkpt lat="49.75571" lon="2.17601">
        <ele>96.5</ele>
        <time>2023-01-18T13:10:27Z</time>
      </trkpt>
      <trkpt lat="49.75571" lon="2.17604">
        <ele>96.5</ele>
        <time>2023-01-18T13:10:28Z</time>
      </trkpt>
      <trkpt lat="49.75571" lon="2.17604">
        <ele>96.5</ele>
        <time>2023-01-18T13:10:29Z</time>
      </trkpt>
      <trkpt lat="49.75571" lon="2.17606">
        <ele>96.5</ele>
        <time>2023-01-18T13:10:30Z</time>
      </trkpt>
      <trkpt lat="49.75571" lon="2.1761">
        <ele>96.5</ele>
        <time>2023-01-18T13:10:32Z</time>
      </trkpt>
      <trkpt lat="49.75571" lon="2.17611">
        <ele>96.4</ele>
        <time>2023-01-18T13:10:33Z</time>
      </trkpt>
      <trkpt lat="49.75571" lon="2.17612">
        <ele>96.4</ele>
        <time>2023-01-18T13:10:34Z</time>
      </trkpt>
      <trkpt lat="49.75571" lon="2.17614">
        <ele>96.4</ele>
        <time>2023-01-18T13:10:35Z</time>
      </trkpt>
      <trkpt lat="49.7557" lon="2.17617">
        <ele>96.4</ele>
        <time>2023-01-18T13:10:36Z</time>
      </trkpt>
      <trkpt lat="49.7557" lon="2.17618">
        <ele>96.4</ele>
        <time>2023-01-18T13:10:37Z</time>
      </trkpt>
      <trkpt lat="49.7557" lon="2.17621">
        <ele>96.4</ele>
        <time>2023-01-18T13:10:38Z</time>
      </trkpt>
      <trkpt lat="49.7557" lon="2.17622">
        <ele>96.4</ele>
        <time>2023-01-18T13:10:39Z</time>
      </trkpt>
      <trkpt lat="49.75571" lon="2.17624">
        <ele>96.3</ele>
        <time>2023-01-18T13:10:41Z</time>
      </trkpt>
      <trkpt lat="49.75571" lon="2.17625">
        <ele>96.3</ele>
        <time>2023-01-18T13:10:42Z</time>
      </trkpt>
      <trkpt lat="49.75572" lon="2.17629">
        <ele>96.3</ele>
        <time>2023-01-18T13:10:43Z</time>
      </trkpt>
      <trkpt lat="49.75573" lon="2.17629">
        <ele>96.3</ele>
        <time>2023-01-18T13:10:44Z</time>
      </trkpt>
      <trkpt lat="49.75573" lon="2.1763">
        <ele>96.3</ele>
        <time>2023-01-18T13:10:45Z</time>
      </trkpt>
      <trkpt lat="49.75573" lon="2.17633">
        <ele>96.2</ele>
        <time>2023-01-18T13:10:46Z</time>
      </trkpt>
      <trkpt lat="49.75574" lon="2.17635">
        <ele>96.2</ele>
        <time>2023-01-18T13:10:47Z</time>
      </trkpt>
      <trkpt lat="49.75574" lon="2.17636">
        <ele>96.2</ele>
        <time>2023-01-18T13:10:48Z</time>
      </trkpt>
      <trkpt lat="49.75574" lon="2.17637">
        <ele>96.2</ele>
        <time>2023-01-18T13:10:49Z</time>
      </trkpt>
      <trkpt lat="49.75574" lon="2.17639">
        <ele>96.1</ele>
        <time>2023-01-18T13:10:50Z</time>
      </trkpt>
      <trkpt lat="49.75574" lon="2.1764">
        <ele>96.1</ele>
        <time>2023-01-18T13:10:51Z</time>
      </trkpt>
      <trkpt lat="49.75574" lon="2.17642">
        <ele>96.1</ele>
        <time>2023-01-18T13:10:53Z</time>
      </trkpt>
      <trkpt lat="49.75574" lon="2.17646">
        <ele>96</ele>
        <time>2023-01-18T13:10:54Z</time>
      </trkpt>
      <trkpt lat="49.75574" lon="2.17649">
        <ele>95.9</ele>
        <time>2023-01-18T13:10:55Z</time>
      </trkpt>
      <trkpt lat="49.75575" lon="2.1765">
        <ele>95.9</ele>
        <time>2023-01-18T13:10:56Z</time>
      </trkpt>
      <trkpt lat="49.75575" lon="2.17652">
        <ele>95.9</ele>
        <time>2023-01-18T13:10:57Z</time>
      </trkpt>
      <trkpt lat="49.75575" lon="2.17655">
        <ele>95.8</ele>
        <time>2023-01-18T13:10:58Z</time>
      </trkpt>
      <trkpt lat="49.75575" lon="2.17657">
        <ele>95.8</ele>
        <time>2023-01-18T13:10:59Z</time>
      </trkpt>
      <trkpt lat="49.75576" lon="2.1766">
        <ele>95.7</ele>
        <time>2023-01-18T13:11:00Z</time>
      </trkpt>
      <trkpt lat="49.75577" lon="2.17661">
        <ele>95.6</ele>
        <time>2023-01-18T13:11:01Z</time>
      </trkpt>
      <trkpt lat="49.75577" lon="2.17662">
        <ele>95.6</ele>
        <time>2023-01-18T13:11:02Z</time>
      </trkpt>
      <trkpt lat="49.75579" lon="2.17664">
        <ele>95.6</ele>
        <time>2023-01-18T13:11:03Z</time>
      </trkpt>
      <trkpt lat="49.75579" lon="2.17665">
        <ele>95.5</ele>
        <time>2023-01-18T13:11:05Z</time>
      </trkpt>
      <trkpt lat="49.7558" lon="2.17667">
        <ele>95.5</ele>
        <time>2023-01-18T13:11:06Z</time>
      </trkpt>
      <trkpt lat="49.75581" lon="2.17668">
        <ele>95.4</ele>
        <time>2023-01-18T13:11:07Z</time>
      </trkpt>
      <trkpt lat="49.75583" lon="2.17672">
        <ele>95.3</ele>
        <time>2023-01-18T13:11:08Z</time>
      </trkpt>
      <trkpt lat="49.75583" lon="2.17672">
        <ele>95.3</ele>
        <time>2023-01-18T13:11:09Z</time>
      </trkpt>
      <trkpt lat="49.75583" lon="2.17673">
        <ele>95.3</ele>
        <time>2023-01-18T13:11:10Z</time>
      </trkpt>
      <trkpt lat="49.75585" lon="2.17674">
        <ele>95.2</ele>
        <time>2023-01-18T13:11:11Z</time>
      </trkpt>
      <trkpt lat="49.75586" lon="2.17675">
        <ele>95.2</ele>
        <time>2023-01-18T13:11:12Z</time>
      </trkpt>
      <trkpt lat="49.75586" lon="2.17676">
        <ele>95.1</ele>
        <time>2023-01-18T13:11:14Z</time>
      </trkpt>
      <trkpt lat="49.75587" lon="2.17677">
        <ele>95.1</ele>
        <time>2023-01-18T13:11:15Z</time>
      </trkpt>
      <trkpt lat="49.75588" lon="2.17678">
        <ele>95.1</ele>
        <time>2023-01-18T13:11:16Z</time>
      </trkpt>
      <trkpt lat="49.7559" lon="2.17679">
        <ele>95</ele>
        <time>2023-01-18T13:11:17Z</time>
      </trkpt>
      <trkpt lat="49.75591" lon="2.17681">
        <ele>95</ele>
        <time>2023-01-18T13:11:18Z</time>
      </trkpt>
      <trkpt lat="49.7559" lon="2.17684">
        <ele>95</ele>
        <time>2023-01-18T13:11:19Z</time>
      </trkpt>
      <trkpt lat="49.7559" lon="2.17685">
        <ele>95.1</ele>
        <time>2023-01-18T13:11:21Z</time>
      </trkpt>
      <trkpt lat="49.7559" lon="2.17687">
        <ele>95.1</ele>
        <time>2023-01-18T13:11:22Z</time>
      </trkpt>
      <trkpt lat="49.7559" lon="2.17689">
        <ele>95.1</ele>
        <time>2023-01-18T13:11:23Z</time>
      </trkpt>
      <trkpt lat="49.7559" lon="2.17689">
        <ele>95.1</ele>
        <time>2023-01-18T13:11:24Z</time>
      </trkpt>
      <trkpt lat="49.7559" lon="2.17691">
        <ele>95.1</ele>
        <time>2023-01-18T13:11:25Z</time>
      </trkpt>
      <trkpt lat="49.7559" lon="2.17693">
        <ele>95.1</ele>
        <time>2023-01-18T13:11:27Z</time>
      </trkpt>
      <trkpt lat="49.7559" lon="2.17694">
        <ele>95.1</ele>
        <time>2023-01-18T13:11:28Z</time>
      </trkpt>
      <trkpt lat="49.7559" lon="2.17696">
        <ele>95.2</ele>
        <time>2023-01-18T13:11:29Z</time>
      </trkpt>
      <trkpt lat="49.75589" lon="2.17698">
        <ele>95.2</ele>
        <time>2023-01-18T13:11:30Z</time>
      </trkpt>
      <trkpt lat="49.75589" lon="2.17702">
        <ele>95.2</ele>
        <time>2023-01-18T13:11:32Z</time>
      </trkpt>
      <trkpt lat="49.75588" lon="2.17704">
        <ele>95.3</ele>
        <time>2023-01-18T13:11:33Z</time>
      </trkpt>
      <trkpt lat="49.75588" lon="2.17705">
        <ele>95.3</ele>
        <time>2023-01-18T13:11:35Z</time>
      </trkpt>
      <trkpt lat="49.75587" lon="2.17707">
        <ele>95.3</ele>
        <time>2023-01-18T13:11:36Z</time>
      </trkpt>
      <trkpt lat="49.75586" lon="2.17708">
        <ele>95.3</ele>
        <time>2023-01-18T13:11:37Z</time>
      </trkpt>
      <trkpt lat="49.75583" lon="2.17709">
        <ele>95.4</ele>
        <time>2023-01-18T13:11:38Z</time>
      </trkpt>
      <trkpt lat="49.75582" lon="2.17709">
        <ele>95.4</ele>
        <time>2023-01-18T13:11:39Z</time>
      </trkpt>
      <trkpt lat="49.75581" lon="2.17711">
        <ele>95.4</ele>
        <time>2023-01-18T13:11:41Z</time>
      </trkpt>
      <trkpt lat="49.75581" lon="2.17713">
        <ele>95.5</ele>
        <time>2023-01-18T13:11:42Z</time>
      </trkpt>
      <trkpt lat="49.75581" lon="2.17714">
        <ele>95.5</ele>
        <time>2023-01-18T13:11:43Z</time>
      </trkpt>
      <trkpt lat="49.75581" lon="2.17714">
        <ele>95.5</ele>
        <time>2023-01-18T13:11:44Z</time>
      </trkpt>
      <trkpt lat="49.7558" lon="2.17716">
        <ele>95.5</ele>
        <time>2023-01-18T13:11:45Z</time>
      </trkpt>
      <trkpt lat="49.7558" lon="2.17717">
        <ele>95.5</ele>
        <time>2023-01-18T13:11:46Z</time>
      </trkpt>
      <trkpt lat="49.75579" lon="2.17719">
        <ele>95.5</ele>
        <time>2023-01-18T13:11:47Z</time>
      </trkpt>
      <trkpt lat="49.75579" lon="2.17721">
        <ele>95.6</ele>
        <time>2023-01-18T13:11:49Z</time>
      </trkpt>
      <trkpt lat="49.75579" lon="2.17722">
        <ele>95.6</ele>
        <time>2023-01-18T13:11:50Z</time>
      </trkpt>
      <trkpt lat="49.75579" lon="2.17723">
        <ele>95.6</ele>
        <time>2023-01-18T13:11:51Z</time>
      </trkpt>
      <trkpt lat="49.75579" lon="2.17725">
        <ele>95.6</ele>
        <time>2023-01-18T13:11:52Z</time>
      </trkpt>
      <trkpt lat="49.75579" lon="2.17727">
        <ele>95.6</ele>
        <time>2023-01-18T13:11:53Z</time>
      </trkpt>
      <trkpt lat="49.75579" lon="2.17728">
        <ele>95.6</ele>
        <time>2023-01-18T13:11:55Z</time>
      </trkpt>
      <trkpt lat="49.75578" lon="2.17729">
        <ele>95.7</ele>
        <time>2023-01-18T13:11:56Z</time>
      </trkpt>
      <trkpt lat="49.75578" lon="2.1773">
        <ele>95.7</ele>
        <time>2023-01-18T13:11:57Z</time>
      </trkpt>
      <trkpt lat="49.75578" lon="2.17731">
        <ele>95.7</ele>
        <time>2023-01-18T13:11:58Z</time>
      </trkpt>
      <trkpt lat="49.75578" lon="2.17733">
        <ele>95.7</ele>
        <time>2023-01-18T13:11:59Z</time>
      </trkpt>
      <trkpt lat="49.75578" lon="2.17735">
        <ele>95.7</ele>
        <time>2023-01-18T13:12:00Z</time>
      </trkpt>
      <trkpt lat="49.75578" lon="2.17736">
        <ele>95.7</ele>
        <time>2023-01-18T13:12:02Z</time>
      </trkpt>
      <trkpt lat="49.75577" lon="2.17738">
        <ele>95.8</ele>
        <time>2023-01-18T13:12:03Z</time>
      </trkpt>
      <trkpt lat="49.75576" lon="2.1774">
        <ele>95.8</ele>
        <time>2023-01-18T13:12:04Z</time>
      </trkpt>
      <trkpt lat="49.75576" lon="2.17741">
        <ele>95.8</ele>
        <time>2023-01-18T13:12:05Z</time>
      </trkpt>
      <trkpt lat="49.75575" lon="2.17742">
        <ele>95.8</ele>
        <time>2023-01-18T13:12:06Z</time>
      </trkpt>
      <trkpt lat="49.75574" lon="2.17744">
        <ele>95.9</ele>
        <time>2023-01-18T13:12:07Z</time>
      </trkpt>
      <trkpt lat="49.75574" lon="2.17745">
        <ele>95.9</ele>
        <time>2023-01-18T13:12:09Z</time>
      </trkpt>
      <trkpt lat="49.75573" lon="2.17747">
        <ele>95.9</ele>
        <time>2023-01-18T13:12:10Z</time>
      </trkpt>
      <trkpt lat="49.75573" lon="2.17748">
        <ele>95.9</ele>
        <time>2023-01-18T13:12:11Z</time>
      </trkpt>
      <trkpt lat="49.75572" lon="2.1775">
        <ele>95.9</ele>
        <time>2023-01-18T13:12:12Z</time>
      </trkpt>
      <trkpt lat="49.75572" lon="2.17753">
        <ele>96</ele>
        <time>2023-01-18T13:12:13Z</time>
      </trkpt>
      <trkpt lat="49.75571" lon="2.17754">
        <ele>96</ele>
        <time>2023-01-18T13:12:15Z</time>
      </trkpt>
      <trkpt lat="49.75571" lon="2.17755">
        <ele>96</ele>
        <time>2023-01-18T13:12:16Z</time>
      </trkpt>
      <trkpt lat="49.75571" lon="2.17756">
        <ele>96</ele>
        <time>2023-01-18T13:12:17Z</time>
      </trkpt>
      <trkpt lat="49.7557" lon="2.17758">
        <ele>96.1</ele>
        <time>2023-01-18T13:12:18Z</time>
      </trkpt>
      <trkpt lat="49.7557" lon="2.17759">
        <ele>96.1</ele>
        <time>2023-01-18T13:12:19Z</time>
      </trkpt>
      <trkpt lat="49.75569" lon="2.17761">
        <ele>96.1</ele>
        <time>2023-01-18T13:12:20Z</time>
      </trkpt>
      <trkpt lat="49.75569" lon="2.17762">
        <ele>96.1</ele>
        <time>2023-01-18T13:12:22Z</time>
      </trkpt>
      <trkpt lat="49.75568" lon="2.17764">
        <ele>96.1</ele>
        <time>2023-01-18T13:12:23Z</time>
      </trkpt>
      <trkpt lat="49.75568" lon="2.17765">
        <ele>96.1</ele>
        <time>2023-01-18T13:12:24Z</time>
      </trkpt>
      <trkpt lat="49.75567" lon="2.17766">
        <ele>96.2</ele>
        <time>2023-01-18T13:12:25Z</time>
      </trkpt>
      <trkpt lat="49.75566" lon="2.17769">
        <ele>96.2</ele>
        <time>2023-01-18T13:12:26Z</time>
      </trkpt>
      <trkpt lat="49.75565" lon="2.17771">
        <ele>96.2</ele>
        <time>2023-01-18T13:12:27Z</time>
      </trkpt>
      <trkpt lat="49.75565" lon="2.17773">
        <ele>96.2</ele>
        <time>2023-01-18T13:12:28Z</time>
      </trkpt>
      <trkpt lat="49.75564" lon="2.17774">
        <ele>96.2</ele>
        <time>2023-01-18T13:12:30Z</time>
      </trkpt>
      <trkpt lat="49.75564" lon="2.17775">
        <ele>96.3</ele>
        <time>2023-01-18T13:12:31Z</time>
      </trkpt>
      <trkpt lat="49.75563" lon="2.17777">
        <ele>96.3</ele>
        <time>2023-01-18T13:12:32Z</time>
      </trkpt>
      <trkpt lat="49.75562" lon="2.1778">
        <ele>96.3</ele>
        <time>2023-01-18T13:12:33Z</time>
      </trkpt>
      <trkpt lat="49.75562" lon="2.17781">
        <ele>96.3</ele>
        <time>2023-01-18T13:12:34Z</time>
      </trkpt>
      <trkpt lat="49.75562" lon="2.17782">
        <ele>96.3</ele>
        <time>2023-01-18T13:12:35Z</time>
      </trkpt>
      <trkpt lat="49.75561" lon="2.17784">
        <ele>96.3</ele>
        <time>2023-01-18T13:12:36Z</time>
      </trkpt>
      <trkpt lat="49.75561" lon="2.17785">
        <ele>96.3</ele>
        <time>2023-01-18T13:12:38Z</time>
      </trkpt>
      <trkpt lat="49.7556" lon="2.17786">
        <ele>96.3</ele>
        <time>2023-01-18T13:12:39Z</time>
      </trkpt>
      <trkpt lat="49.7556" lon="2.17788">
        <ele>96.3</ele>
        <time>2023-01-18T13:12:40Z</time>
      </trkpt>
      <trkpt lat="49.75559" lon="2.17789">
        <ele>96.4</ele>
        <time>2023-01-18T13:12:41Z</time>
      </trkpt>
      <trkpt lat="49.75558" lon="2.1779">
        <ele>96.4</ele>
        <time>2023-01-18T13:12:42Z</time>
      </trkpt>
      <trkpt lat="49.75558" lon="2.17792">
        <ele>96.4</ele>
        <time>2023-01-18T13:12:43Z</time>
      </trkpt>
      <trkpt lat="49.75558" lon="2.17794">
        <ele>96.4</ele>
        <time>2023-01-18T13:12:44Z</time>
      </trkpt>
      <trkpt lat="49.75557" lon="2.17795">
        <ele>96.4</ele>
        <time>2023-01-18T13:12:45Z</time>
      </trkpt>
      <trkpt lat="49.75556" lon="2.17797">
        <ele>96.4</ele>
        <time>2023-01-18T13:12:46Z</time>
      </trkpt>
      <trkpt lat="49.75556" lon="2.17798">
        <ele>96.4</ele>
        <time>2023-01-18T13:12:47Z</time>
      </trkpt>
      <trkpt lat="49.75555" lon="2.178">
        <ele>96.4</ele>
        <time>2023-01-18T13:12:49Z</time>
      </trkpt>
      <trkpt lat="49.75555" lon="2.17801">
        <ele>96.4</ele>
        <time>2023-01-18T13:12:50Z</time>
      </trkpt>
      <trkpt lat="49.75554" lon="2.17803">
        <ele>96.4</ele>
        <time>2023-01-18T13:12:51Z</time>
      </trkpt>
      <trkpt lat="49.75554" lon="2.17804">
        <ele>96.4</ele>
        <time>2023-01-18T13:12:52Z</time>
      </trkpt>
      <trkpt lat="49.75553" lon="2.17807">
        <ele>96.5</ele>
        <time>2023-01-18T13:12:53Z</time>
      </trkpt>
      <trkpt lat="49.75552" lon="2.17808">
        <ele>96.5</ele>
        <time>2023-01-18T13:12:55Z</time>
      </trkpt>
      <trkpt lat="49.75552" lon="2.17809">
        <ele>96.5</ele>
        <time>2023-01-18T13:12:56Z</time>
      </trkpt>
      <trkpt lat="49.75551" lon="2.17812">
        <ele>96.5</ele>
        <time>2023-01-18T13:12:57Z</time>
      </trkpt>
      <trkpt lat="49.7555" lon="2.17813">
        <ele>96.5</ele>
        <time>2023-01-18T13:12:58Z</time>
      </trkpt>
      <trkpt lat="49.7555" lon="2.17814">
        <ele>96.5</ele>
        <time>2023-01-18T13:12:59Z</time>
      </trkpt>
      <trkpt lat="49.75548" lon="2.17816">
        <ele>96.5</ele>
        <time>2023-01-18T13:13:00Z</time>
      </trkpt>
      <trkpt lat="49.75548" lon="2.17817">
        <ele>96.6</ele>
        <time>2023-01-18T13:13:01Z</time>
      </trkpt>
      <trkpt lat="49.75547" lon="2.17819">
        <ele>96.6</ele>
        <time>2023-01-18T13:13:02Z</time>
      </trkpt>
      <trkpt lat="49.75546" lon="2.17821">
        <ele>96.6</ele>
        <time>2023-01-18T13:13:04Z</time>
      </trkpt>
      <trkpt lat="49.75546" lon="2.17822">
        <ele>96.6</ele>
        <time>2023-01-18T13:13:05Z</time>
      </trkpt>
      <trkpt lat="49.75545" lon="2.17824">
        <ele>96.6</ele>
        <time>2023-01-18T13:13:06Z</time>
      </trkpt>
      <trkpt lat="49.75545" lon="2.17825">
        <ele>96.6</ele>
        <time>2023-01-18T13:13:07Z</time>
      </trkpt>
      <trkpt lat="49.75544" lon="2.17826">
        <ele>96.6</ele>
        <time>2023-01-18T13:13:08Z</time>
      </trkpt>
      <trkpt lat="49.75543" lon="2.17829">
        <ele>96.7</ele>
        <time>2023-01-18T13:13:09Z</time>
      </trkpt>
      <trkpt lat="49.75543" lon="2.1783">
        <ele>96.7</ele>
        <time>2023-01-18T13:13:10Z</time>
      </trkpt>
      <trkpt lat="49.75543" lon="2.17832">
        <ele>96.7</ele>
        <time>2023-01-18T13:13:11Z</time>
      </trkpt>
      <trkpt lat="49.75542" lon="2.17833">
        <ele>96.7</ele>
        <time>2023-01-18T13:13:12Z</time>
      </trkpt>
      <trkpt lat="49.75541" lon="2.17837">
        <ele>96.7</ele>
        <time>2023-01-18T13:13:14Z</time>
      </trkpt>
      <trkpt lat="49.75541" lon="2.17837">
        <ele>96.7</ele>
        <time>2023-01-18T13:13:15Z</time>
      </trkpt>
      <trkpt lat="49.7554" lon="2.17839">
        <ele>96.8</ele>
        <time>2023-01-18T13:13:16Z</time>
      </trkpt>
      <trkpt lat="49.7554" lon="2.1784">
        <ele>96.8</ele>
        <time>2023-01-18T13:13:17Z</time>
      </trkpt>
      <trkpt lat="49.75539" lon="2.17842">
        <ele>96.8</ele>
        <time>2023-01-18T13:13:18Z</time>
      </trkpt>
      <trkpt lat="49.75539" lon="2.17845">
        <ele>96.8</ele>
        <time>2023-01-18T13:13:19Z</time>
      </trkpt>
      <trkpt lat="49.75538" lon="2.17846">
        <ele>96.8</ele>
        <time>2023-01-18T13:13:20Z</time>
      </trkpt>
      <trkpt lat="49.75538" lon="2.17848">
        <ele>96.8</ele>
        <time>2023-01-18T13:13:21Z</time>
      </trkpt>
      <trkpt lat="49.75537" lon="2.1785">
        <ele>96.9</ele>
        <time>2023-01-18T13:13:23Z</time>
      </trkpt>
      <trkpt lat="49.75536" lon="2.17853">
        <ele>96.9</ele>
        <time>2023-01-18T13:13:24Z</time>
      </trkpt>
      <trkpt lat="49.75536" lon="2.17854">
        <ele>96.9</ele>
        <time>2023-01-18T13:13:25Z</time>
      </trkpt>
      <trkpt lat="49.75535" lon="2.17855">
        <ele>96.9</ele>
        <time>2023-01-18T13:13:26Z</time>
      </trkpt>
      <trkpt lat="49.75534" lon="2.17857">
        <ele>96.9</ele>
        <time>2023-01-18T13:13:27Z</time>
      </trkpt>
      <trkpt lat="49.75534" lon="2.17859">
        <ele>96.9</ele>
        <time>2023-01-18T13:13:29Z</time>
      </trkpt>
      <trkpt lat="49.75533" lon="2.17861">
        <ele>97</ele>
        <time>2023-01-18T13:13:30Z</time>
      </trkpt>
      <trkpt lat="49.75532" lon="2.17863">
        <ele>97</ele>
        <time>2023-01-18T13:13:31Z</time>
      </trkpt>
      <trkpt lat="49.75531" lon="2.17865">
        <ele>97</ele>
        <time>2023-01-18T13:13:32Z</time>
      </trkpt>
      <trkpt lat="49.7553" lon="2.17867">
        <ele>97</ele>
        <time>2023-01-18T13:13:33Z</time>
      </trkpt>
      <trkpt lat="49.7553" lon="2.17869">
        <ele>97</ele>
        <time>2023-01-18T13:13:34Z</time>
      </trkpt>
      <trkpt lat="49.75529" lon="2.17871">
        <ele>97.1</ele>
        <time>2023-01-18T13:13:36Z</time>
      </trkpt>
      <trkpt lat="49.75528" lon="2.17873">
        <ele>97.1</ele>
        <time>2023-01-18T13:13:37Z</time>
      </trkpt>
      <trkpt lat="49.75527" lon="2.17875">
        <ele>97.1</ele>
        <time>2023-01-18T13:13:38Z</time>
      </trkpt>
      <trkpt lat="49.75526" lon="2.17877">
        <ele>97.1</ele>
        <time>2023-01-18T13:13:39Z</time>
      </trkpt>
      <trkpt lat="49.75526" lon="2.17878">
        <ele>97.1</ele>
        <time>2023-01-18T13:13:40Z</time>
      </trkpt>
      <trkpt lat="49.75524" lon="2.17881">
        <ele>97.2</ele>
        <time>2023-01-18T13:13:41Z</time>
      </trkpt>
      <trkpt lat="49.75524" lon="2.17882">
        <ele>97.2</ele>
        <time>2023-01-18T13:13:42Z</time>
      </trkpt>
      <trkpt lat="49.75523" lon="2.17883">
        <ele>97.2</ele>
        <time>2023-01-18T13:13:43Z</time>
      </trkpt>
      <trkpt lat="49.75522" lon="2.17885">
        <ele>97.2</ele>
        <time>2023-01-18T13:13:44Z</time>
      </trkpt>
      <trkpt lat="49.75522" lon="2.17887">
        <ele>97.2</ele>
        <time>2023-01-18T13:13:46Z</time>
      </trkpt>
      <trkpt lat="49.75521" lon="2.17889">
        <ele>97.2</ele>
        <time>2023-01-18T13:13:47Z</time>
      </trkpt>
      <trkpt lat="49.7552" lon="2.17891">
        <ele>97.2</ele>
        <time>2023-01-18T13:13:48Z</time>
      </trkpt>
      <trkpt lat="49.7552" lon="2.17892">
        <ele>97.3</ele>
        <time>2023-01-18T13:13:49Z</time>
      </trkpt>
      <trkpt lat="49.75519" lon="2.17894">
        <ele>97.3</ele>
        <time>2023-01-18T13:13:50Z</time>
      </trkpt>
      <trkpt lat="49.75519" lon="2.17896">
        <ele>97.3</ele>
        <time>2023-01-18T13:13:51Z</time>
      </trkpt>
      <trkpt lat="49.75518" lon="2.17899">
        <ele>97.3</ele>
        <time>2023-01-18T13:13:52Z</time>
      </trkpt>
      <trkpt lat="49.75517" lon="2.179">
        <ele>97.3</ele>
        <time>2023-01-18T13:13:53Z</time>
      </trkpt>
      <trkpt lat="49.75517" lon="2.17901">
        <ele>97.3</ele>
        <time>2023-01-18T13:13:54Z</time>
      </trkpt>
      <trkpt lat="49.75517" lon="2.17903">
        <ele>97.4</ele>
        <time>2023-01-18T13:13:56Z</time>
      </trkpt>
      <trkpt lat="49.75516" lon="2.17905">
        <ele>97.4</ele>
        <time>2023-01-18T13:13:57Z</time>
      </trkpt>
      <trkpt lat="49.75516" lon="2.17906">
        <ele>97.4</ele>
        <time>2023-01-18T13:13:58Z</time>
      </trkpt>
      <trkpt lat="49.75516" lon="2.1791">
        <ele>97.4</ele>
        <time>2023-01-18T13:13:59Z</time>
      </trkpt>
      <trkpt lat="49.75516" lon="2.17911">
        <ele>97.4</ele>
        <time>2023-01-18T13:14:00Z</time>
      </trkpt>
      <trkpt lat="49.75515" lon="2.17912">
        <ele>97.5</ele>
        <time>2023-01-18T13:14:01Z</time>
      </trkpt>
      <trkpt lat="49.75515" lon="2.17915">
        <ele>97.5</ele>
        <time>2023-01-18T13:14:02Z</time>
      </trkpt>
      <trkpt lat="49.75515" lon="2.17916">
        <ele>97.5</ele>
        <time>2023-01-18T13:14:04Z</time>
      </trkpt>
      <trkpt lat="49.75514" lon="2.17917">
        <ele>97.5</ele>
        <time>2023-01-18T13:14:05Z</time>
      </trkpt>
      <trkpt lat="49.75514" lon="2.17919">
        <ele>97.5</ele>
        <time>2023-01-18T13:14:06Z</time>
      </trkpt>
      <trkpt lat="49.75514" lon="2.1792">
        <ele>97.5</ele>
        <time>2023-01-18T13:14:07Z</time>
      </trkpt>
      <trkpt lat="49.75513" lon="2.17922">
        <ele>97.6</ele>
        <time>2023-01-18T13:14:08Z</time>
      </trkpt>
      <trkpt lat="49.75513" lon="2.17924">
        <ele>97.6</ele>
        <time>2023-01-18T13:14:09Z</time>
      </trkpt>
      <trkpt lat="49.75512" lon="2.17925">
        <ele>97.6</ele>
        <time>2023-01-18T13:14:10Z</time>
      </trkpt>
      <trkpt lat="49.75512" lon="2.17927">
        <ele>97.6</ele>
        <time>2023-01-18T13:14:12Z</time>
      </trkpt>
      <trkpt lat="49.75512" lon="2.17929">
        <ele>97.6</ele>
        <time>2023-01-18T13:14:13Z</time>
      </trkpt>
      <trkpt lat="49.75511" lon="2.1793">
        <ele>97.7</ele>
        <time>2023-01-18T13:14:14Z</time>
      </trkpt>
      <trkpt lat="49.75511" lon="2.17932">
        <ele>97.7</ele>
        <time>2023-01-18T13:14:15Z</time>
      </trkpt>
      <trkpt lat="49.7551" lon="2.17933">
        <ele>97.7</ele>
        <time>2023-01-18T13:14:16Z</time>
      </trkpt>
      <trkpt lat="49.7551" lon="2.17935">
        <ele>97.7</ele>
        <time>2023-01-18T13:14:17Z</time>
      </trkpt>
      <trkpt lat="49.75509" lon="2.17937">
        <ele>97.7</ele>
        <time>2023-01-18T13:14:18Z</time>
      </trkpt>
      <trkpt lat="49.75509" lon="2.17939">
        <ele>97.7</ele>
        <time>2023-01-18T13:14:20Z</time>
      </trkpt>
      <trkpt lat="49.75508" lon="2.1794">
        <ele>97.8</ele>
        <time>2023-01-18T13:14:21Z</time>
      </trkpt>
      <trkpt lat="49.75508" lon="2.17942">
        <ele>97.8</ele>
        <time>2023-01-18T13:14:22Z</time>
      </trkpt>
      <trkpt lat="49.75508" lon="2.17943">
        <ele>97.8</ele>
        <time>2023-01-18T13:14:23Z</time>
      </trkpt>
      <trkpt lat="49.75507" lon="2.17945">
        <ele>97.8</ele>
        <time>2023-01-18T13:14:24Z</time>
      </trkpt>
      <trkpt lat="49.75506" lon="2.17946">
        <ele>97.8</ele>
        <time>2023-01-18T13:14:25Z</time>
      </trkpt>
      <trkpt lat="49.75506" lon="2.17948">
        <ele>97.8</ele>
        <time>2023-01-18T13:14:26Z</time>
      </trkpt>
      <trkpt lat="49.75505" lon="2.17949">
        <ele>97.8</ele>
        <time>2023-01-18T13:14:27Z</time>
      </trkpt>
      <trkpt lat="49.75504" lon="2.17951">
        <ele>97.8</ele>
        <time>2023-01-18T13:14:29Z</time>
      </trkpt>
      <trkpt lat="49.75503" lon="2.17953">
        <ele>97.8</ele>
        <time>2023-01-18T13:14:30Z</time>
      </trkpt>
      <trkpt lat="49.75503" lon="2.17954">
        <ele>97.9</ele>
        <time>2023-01-18T13:14:31Z</time>
      </trkpt>
      <trkpt lat="49.75502" lon="2.17955">
        <ele>97.9</ele>
        <time>2023-01-18T13:14:32Z</time>
      </trkpt>
      <trkpt lat="49.75501" lon="2.17956">
        <ele>97.9</ele>
        <time>2023-01-18T13:14:33Z</time>
      </trkpt>
      <trkpt lat="49.755" lon="2.17958">
        <ele>97.9</ele>
        <time>2023-01-18T13:14:34Z</time>
      </trkpt>
      <trkpt lat="49.755" lon="2.17959">
        <ele>97.9</ele>
        <time>2023-01-18T13:14:36Z</time>
      </trkpt>
      <trkpt lat="49.75499" lon="2.1796">
        <ele>97.9</ele>
        <time>2023-01-18T13:14:37Z</time>
      </trkpt>
      <trkpt lat="49.75498" lon="2.17961">
        <ele>97.9</ele>
        <time>2023-01-18T13:14:38Z</time>
      </trkpt>
      <trkpt lat="49.75497" lon="2.17962">
        <ele>97.9</ele>
        <time>2023-01-18T13:14:39Z</time>
      </trkpt>
      <trkpt lat="49.75497" lon="2.17964">
        <ele>97.9</ele>
        <time>2023-01-18T13:14:40Z</time>
      </trkpt>
      <trkpt lat="49.75496" lon="2.17965">
        <ele>98</ele>
        <time>2023-01-18T13:14:41Z</time>
      </trkpt>
      <trkpt lat="49.75495" lon="2.17966">
        <ele>98</ele>
        <time>2023-01-18T13:14:42Z</time>
      </trkpt>
      <trkpt lat="49.75495" lon="2.17967">
        <ele>98</ele>
        <time>2023-01-18T13:14:43Z</time>
      </trkpt>
      <trkpt lat="49.75494" lon="2.17969">
        <ele>98</ele>
        <time>2023-01-18T13:14:45Z</time>
      </trkpt>
      <trkpt lat="49.75493" lon="2.1797">
        <ele>98</ele>
        <time>2023-01-18T13:14:46Z</time>
      </trkpt>
      <trkpt lat="49.75493" lon="2.17972">
        <ele>98</ele>
        <time>2023-01-18T13:14:47Z</time>
      </trkpt>
      <trkpt lat="49.75492" lon="2.17973">
        <ele>98</ele>
        <time>2023-01-18T13:14:48Z</time>
      </trkpt>
      <trkpt lat="49.75492" lon="2.17975">
        <ele>98.1</ele>
        <time>2023-01-18T13:14:49Z</time>
      </trkpt>
      <trkpt lat="49.75491" lon="2.17976">
        <ele>98.1</ele>
        <time>2023-01-18T13:14:50Z</time>
      </trkpt>
      <trkpt lat="49.75491" lon="2.17978">
        <ele>98.1</ele>
        <time>2023-01-18T13:14:51Z</time>
      </trkpt>
      <trkpt lat="49.75489" lon="2.17981">
        <ele>98.1</ele>
        <time>2023-01-18T13:14:52Z</time>
      </trkpt>
      <trkpt lat="49.75489" lon="2.17982">
        <ele>98.1</ele>
        <time>2023-01-18T13:14:54Z</time>
      </trkpt>
      <trkpt lat="49.75488" lon="2.17983">
        <ele>98.1</ele>
        <time>2023-01-18T13:14:55Z</time>
      </trkpt>
      <trkpt lat="49.75488" lon="2.17984">
        <ele>98.2</ele>
        <time>2023-01-18T13:14:56Z</time>
      </trkpt>
      <trkpt lat="49.75488" lon="2.17986">
        <ele>98.2</ele>
        <time>2023-01-18T13:14:57Z</time>
      </trkpt>
      <trkpt lat="49.75487" lon="2.17987">
        <ele>98.2</ele>
        <time>2023-01-18T13:14:58Z</time>
      </trkpt>
      <trkpt lat="49.75486" lon="2.1799">
        <ele>98.2</ele>
        <time>2023-01-18T13:14:59Z</time>
      </trkpt>
      <trkpt lat="49.75486" lon="2.17991">
        <ele>98.2</ele>
        <time>2023-01-18T13:15:00Z</time>
      </trkpt>
      <trkpt lat="49.75485" lon="2.17992">
        <ele>98.2</ele>
        <time>2023-01-18T13:15:01Z</time>
      </trkpt>
      <trkpt lat="49.75485" lon="2.17994">
        <ele>98.2</ele>
        <time>2023-01-18T13:15:03Z</time>
      </trkpt>
      <trkpt lat="49.75484" lon="2.17996">
        <ele>98.3</ele>
        <time>2023-01-18T13:15:04Z</time>
      </trkpt>
      <trkpt lat="49.75484" lon="2.17997">
        <ele>98.3</ele>
        <time>2023-01-18T13:15:05Z</time>
      </trkpt>
      <trkpt lat="49.75483" lon="2.17998">
        <ele>98.3</ele>
        <time>2023-01-18T13:15:06Z</time>
      </trkpt>
      <trkpt lat="49.75483" lon="2.18">
        <ele>98.3</ele>
        <time>2023-01-18T13:15:07Z</time>
      </trkpt>
      <trkpt lat="49.75482" lon="2.18002">
        <ele>98.3</ele>
        <time>2023-01-18T13:15:08Z</time>
      </trkpt>
      <trkpt lat="49.75481" lon="2.18004">
        <ele>98.3</ele>
        <time>2023-01-18T13:15:09Z</time>
      </trkpt>
      <trkpt lat="49.75481" lon="2.18006">
        <ele>98.3</ele>
        <time>2023-01-18T13:15:10Z</time>
      </trkpt>
      <trkpt lat="49.75481" lon="2.18008">
        <ele>98.3</ele>
        <time>2023-01-18T13:15:12Z</time>
      </trkpt>
      <trkpt lat="49.7548" lon="2.18009">
        <ele>98.3</ele>
        <time>2023-01-18T13:15:13Z</time>
      </trkpt>
      <trkpt lat="49.75479" lon="2.18011">
        <ele>98.4</ele>
        <time>2023-01-18T13:15:14Z</time>
      </trkpt>
      <trkpt lat="49.75479" lon="2.18012">
        <ele>98.4</ele>
        <time>2023-01-18T13:15:15Z</time>
      </trkpt>
      <trkpt lat="49.75478" lon="2.18014">
        <ele>98.4</ele>
        <time>2023-01-18T13:15:16Z</time>
      </trkpt>
      <trkpt lat="49.75478" lon="2.18016">
        <ele>98.4</ele>
        <time>2023-01-18T13:15:18Z</time>
      </trkpt>
      <trkpt lat="49.75477" lon="2.18019">
        <ele>98.4</ele>
        <time>2023-01-18T13:15:19Z</time>
      </trkpt>
      <trkpt lat="49.75476" lon="2.1802">
        <ele>98.4</ele>
        <time>2023-01-18T13:15:20Z</time>
      </trkpt>
      <trkpt lat="49.75476" lon="2.18021">
        <ele>98.4</ele>
        <time>2023-01-18T13:15:21Z</time>
      </trkpt>
      <trkpt lat="49.75475" lon="2.18022">
        <ele>98.4</ele>
        <time>2023-01-18T13:15:22Z</time>
      </trkpt>
      <trkpt lat="49.75475" lon="2.18024">
        <ele>98.4</ele>
        <time>2023-01-18T13:15:23Z</time>
      </trkpt>
      <trkpt lat="49.75474" lon="2.18025">
        <ele>98.4</ele>
        <time>2023-01-18T13:15:24Z</time>
      </trkpt>
      <trkpt lat="49.75473" lon="2.18027">
        <ele>98.4</ele>
        <time>2023-01-18T13:15:25Z</time>
      </trkpt>
      <trkpt lat="49.75472" lon="2.18029">
        <ele>98.4</ele>
        <time>2023-01-18T13:15:26Z</time>
      </trkpt>
      <trkpt lat="49.75471" lon="2.18031">
        <ele>98.4</ele>
        <time>2023-01-18T13:15:28Z</time>
      </trkpt>
      <trkpt lat="49.75471" lon="2.18033">
        <ele>98.4</ele>
        <time>2023-01-18T13:15:29Z</time>
      </trkpt>
      <trkpt lat="49.7547" lon="2.18034">
        <ele>98.4</ele>
        <time>2023-01-18T13:15:30Z</time>
      </trkpt>
      <trkpt lat="49.7547" lon="2.18035">
        <ele>98.4</ele>
        <time>2023-01-18T13:15:31Z</time>
      </trkpt>
      <trkpt lat="49.75469" lon="2.18037">
        <ele>98.4</ele>
        <time>2023-01-18T13:15:32Z</time>
      </trkpt>
      <trkpt lat="49.75469" lon="2.18039">
        <ele>98.4</ele>
        <time>2023-01-18T13:15:33Z</time>
      </trkpt>
      <trkpt lat="49.75468" lon="2.18041">
        <ele>98.4</ele>
        <time>2023-01-18T13:15:35Z</time>
      </trkpt>
      <trkpt lat="49.75468" lon="2.18042">
        <ele>98.5</ele>
        <time>2023-01-18T13:15:36Z</time>
      </trkpt>
      <trkpt lat="49.75468" lon="2.18043">
        <ele>98.5</ele>
        <time>2023-01-18T13:15:37Z</time>
      </trkpt>
      <trkpt lat="49.75467" lon="2.18044">
        <ele>98.5</ele>
        <time>2023-01-18T13:15:38Z</time>
      </trkpt>
      <trkpt lat="49.75467" lon="2.18046">
        <ele>98.5</ele>
        <time>2023-01-18T13:15:39Z</time>
      </trkpt>
      <trkpt lat="49.75467" lon="2.18047">
        <ele>98.5</ele>
        <time>2023-01-18T13:15:40Z</time>
      </trkpt>
      <trkpt lat="49.75467" lon="2.18048">
        <ele>98.5</ele>
        <time>2023-01-18T13:15:41Z</time>
      </trkpt>
      <trkpt lat="49.75466" lon="2.1805">
        <ele>98.5</ele>
        <time>2023-01-18T13:15:42Z</time>
      </trkpt>
      <trkpt lat="49.75466" lon="2.18051">
        <ele>98.5</ele>
        <time>2023-01-18T13:15:44Z</time>
      </trkpt>
      <trkpt lat="49.75465" lon="2.18053">
        <ele>98.5</ele>
        <time>2023-01-18T13:15:45Z</time>
      </trkpt>
      <trkpt lat="49.75465" lon="2.18054">
        <ele>98.5</ele>
        <time>2023-01-18T13:15:46Z</time>
      </trkpt>
      <trkpt lat="49.75465" lon="2.18055">
        <ele>98.5</ele>
        <time>2023-01-18T13:15:47Z</time>
      </trkpt>
      <trkpt lat="49.75465" lon="2.18056">
        <ele>98.5</ele>
        <time>2023-01-18T13:15:48Z</time>
      </trkpt>
      <trkpt lat="49.75465" lon="2.18058">
        <ele>98.5</ele>
        <time>2023-01-18T13:15:49Z</time>
      </trkpt>
      <trkpt lat="49.75464" lon="2.18061">
        <ele>98.5</ele>
        <time>2023-01-18T13:15:50Z</time>
      </trkpt>
      <trkpt lat="49.75464" lon="2.18061">
        <ele>98.5</ele>
        <time>2023-01-18T13:15:52Z</time>
      </trkpt>
      <trkpt lat="49.75463" lon="2.18062">
        <ele>98.5</ele>
        <time>2023-01-18T13:15:53Z</time>
      </trkpt>
      <trkpt lat="49.75463" lon="2.18063">
        <ele>98.5</ele>
        <time>2023-01-18T13:15:54Z</time>
      </trkpt>
      <trkpt lat="49.75462" lon="2.18066">
        <ele>98.5</ele>
        <time>2023-01-18T13:15:55Z</time>
      </trkpt>
      <trkpt lat="49.75461" lon="2.18068">
        <ele>98.5</ele>
        <time>2023-01-18T13:15:56Z</time>
      </trkpt>
      <trkpt lat="49.75461" lon="2.1807">
        <ele>98.5</ele>
        <time>2023-01-18T13:15:57Z</time>
      </trkpt>
      <trkpt lat="49.75461" lon="2.18071">
        <ele>98.5</ele>
        <time>2023-01-18T13:15:59Z</time>
      </trkpt>
      <trkpt lat="49.75461" lon="2.18072">
        <ele>98.5</ele>
        <time>2023-01-18T13:16:00Z</time>
      </trkpt>
      <trkpt lat="49.75461" lon="2.18073">
        <ele>98.5</ele>
        <time>2023-01-18T13:16:01Z</time>
      </trkpt>
      <trkpt lat="49.75461" lon="2.18075">
        <ele>98.5</ele>
        <time>2023-01-18T13:16:02Z</time>
      </trkpt>
      <trkpt lat="49.75462" lon="2.18077">
        <ele>98.5</ele>
        <time>2023-01-18T13:16:03Z</time>
      </trkpt>
      <trkpt lat="49.75462" lon="2.18081">
        <ele>98.5</ele>
        <time>2023-01-18T13:16:04Z</time>
      </trkpt>
      <trkpt lat="49.75462" lon="2.18083">
        <ele>98.4</ele>
        <time>2023-01-18T13:16:06Z</time>
      </trkpt>
      <trkpt lat="49.75463" lon="2.18085">
        <ele>98.4</ele>
        <time>2023-01-18T13:16:07Z</time>
      </trkpt>
      <trkpt lat="49.75463" lon="2.18087">
        <ele>98.4</ele>
        <time>2023-01-18T13:16:08Z</time>
      </trkpt>
      <trkpt lat="49.75463" lon="2.18089">
        <ele>98.4</ele>
        <time>2023-01-18T13:16:09Z</time>
      </trkpt>
      <trkpt lat="49.75463" lon="2.18091">
        <ele>98.4</ele>
        <time>2023-01-18T13:16:10Z</time>
      </trkpt>
      <trkpt lat="49.75463" lon="2.18094">
        <ele>98.4</ele>
        <time>2023-01-18T13:16:11Z</time>
      </trkpt>
      <trkpt lat="49.75464" lon="2.18096">
        <ele>98.4</ele>
        <time>2023-01-18T13:16:12Z</time>
      </trkpt>
      <trkpt lat="49.75464" lon="2.18099">
        <ele>98.4</ele>
        <time>2023-01-18T13:16:13Z</time>
      </trkpt>
      <trkpt lat="49.75464" lon="2.18102">
        <ele>98.4</ele>
        <time>2023-01-18T13:16:14Z</time>
      </trkpt>
      <trkpt lat="49.75465" lon="2.18106">
        <ele>98.3</ele>
        <time>2023-01-18T13:16:16Z</time>
      </trkpt>
      <trkpt lat="49.75465" lon="2.18108">
        <ele>98.3</ele>
        <time>2023-01-18T13:16:17Z</time>
      </trkpt>
      <trkpt lat="49.75465" lon="2.18111">
        <ele>98.3</ele>
        <time>2023-01-18T13:16:18Z</time>
      </trkpt>
      <trkpt lat="49.75465" lon="2.18112">
        <ele>98.3</ele>
        <time>2023-01-18T13:16:19Z</time>
      </trkpt>
      <trkpt lat="49.75465" lon="2.18114">
        <ele>98.3</ele>
        <time>2023-01-18T13:16:20Z</time>
      </trkpt>
      <trkpt lat="49.75465" lon="2.18118">
        <ele>98.3</ele>
        <time>2023-01-18T13:16:21Z</time>
      </trkpt>
      <trkpt lat="49.75465" lon="2.1812">
        <ele>98.3</ele>
        <time>2023-01-18T13:16:23Z</time>
      </trkpt>
      <trkpt lat="49.75465" lon="2.18122">
        <ele>98.3</ele>
        <time>2023-01-18T13:16:24Z</time>
      </trkpt>
      <trkpt lat="49.75466" lon="2.18124">
        <ele>98.2</ele>
        <time>2023-01-18T13:16:25Z</time>
      </trkpt>
      <trkpt lat="49.75466" lon="2.18126">
        <ele>98.2</ele>
        <time>2023-01-18T13:16:26Z</time>
      </trkpt>
      <trkpt lat="49.75466" lon="2.18127">
        <ele>98.2</ele>
        <time>2023-01-18T13:16:27Z</time>
      </trkpt>
      <trkpt lat="49.75466" lon="2.18129">
        <ele>98.2</ele>
        <time>2023-01-18T13:16:28Z</time>
      </trkpt>
      <trkpt lat="49.75467" lon="2.1813">
        <ele>98.2</ele>
        <time>2023-01-18T13:16:30Z</time>
      </trkpt>
      <trkpt lat="49.75467" lon="2.18132">
        <ele>98.2</ele>
        <time>2023-01-18T13:16:31Z</time>
      </trkpt>
      <trkpt lat="49.75467" lon="2.18135">
        <ele>98.2</ele>
        <time>2023-01-18T13:16:32Z</time>
      </trkpt>
      <trkpt lat="49.75467" lon="2.18136">
        <ele>98.2</ele>
        <time>2023-01-18T13:16:33Z</time>
      </trkpt>
      <trkpt lat="49.75467" lon="2.18139">
        <ele>98.2</ele>
        <time>2023-01-18T13:16:35Z</time>
      </trkpt>
      <trkpt lat="49.75467" lon="2.1814">
        <ele>98.2</ele>
        <time>2023-01-18T13:16:36Z</time>
      </trkpt>
      <trkpt lat="49.75468" lon="2.18142">
        <ele>98.2</ele>
        <time>2023-01-18T13:16:37Z</time>
      </trkpt>
      <trkpt lat="49.75468" lon="2.18143">
        <ele>98.2</ele>
        <time>2023-01-18T13:16:38Z</time>
      </trkpt>
      <trkpt lat="49.75468" lon="2.18144">
        <ele>98.2</ele>
        <time>2023-01-18T13:16:39Z</time>
      </trkpt>
      <trkpt lat="49.75468" lon="2.18146">
        <ele>98.2</ele>
        <time>2023-01-18T13:16:40Z</time>
      </trkpt>
      <trkpt lat="49.75469" lon="2.18148">
        <ele>98.2</ele>
        <time>2023-01-18T13:16:41Z</time>
      </trkpt>
      <trkpt lat="49.75469" lon="2.18149">
        <ele>98.2</ele>
        <time>2023-01-18T13:16:42Z</time>
      </trkpt>
      <trkpt lat="49.7547" lon="2.1815">
        <ele>98.2</ele>
        <time>2023-01-18T13:16:43Z</time>
      </trkpt>
      <trkpt lat="49.7547" lon="2.18152">
        <ele>98.2</ele>
        <time>2023-01-18T13:16:45Z</time>
      </trkpt>
      <trkpt lat="49.7547" lon="2.18153">
        <ele>98.2</ele>
        <time>2023-01-18T13:16:46Z</time>
      </trkpt>
      <trkpt lat="49.7547" lon="2.18155">
        <ele>98.2</ele>
        <time>2023-01-18T13:16:47Z</time>
      </trkpt>
      <trkpt lat="49.7547" lon="2.18154">
        <ele>98.2</ele>
        <time>2023-01-18T13:16:48Z</time>
      </trkpt>
      <trkpt lat="49.75471" lon="2.18156">
        <ele>98.2</ele>
        <time>2023-01-18T13:16:49Z</time>
      </trkpt>
      <trkpt lat="49.75471" lon="2.18157">
        <ele>98.2</ele>
        <time>2023-01-18T13:16:50Z</time>
      </trkpt>
      <trkpt lat="49.75471" lon="2.1816">
        <ele>98.2</ele>
        <time>2023-01-18T13:16:51Z</time>
      </trkpt>
      <trkpt lat="49.75471" lon="2.18161">
        <ele>98.2</ele>
        <time>2023-01-18T13:16:52Z</time>
      </trkpt>
      <trkpt lat="49.75472" lon="2.18163">
        <ele>98.2</ele>
        <time>2023-01-18T13:16:54Z</time>
      </trkpt>
      <trkpt lat="49.75472" lon="2.18164">
        <ele>98.2</ele>
        <time>2023-01-18T13:16:55Z</time>
      </trkpt>
      <trkpt lat="49.75471" lon="2.18166">
        <ele>98.2</ele>
        <time>2023-01-18T13:16:56Z</time>
      </trkpt>
      <trkpt lat="49.75472" lon="2.18169">
        <ele>98.2</ele>
        <time>2023-01-18T13:16:57Z</time>
      </trkpt>
      <trkpt lat="49.75472" lon="2.1817">
        <ele>98.2</ele>
        <time>2023-01-18T13:16:59Z</time>
      </trkpt>
      <trkpt lat="49.75472" lon="2.18172">
        <ele>98.2</ele>
        <time>2023-01-18T13:17:00Z</time>
      </trkpt>
      <trkpt lat="49.75472" lon="2.18174">
        <ele>98.2</ele>
        <time>2023-01-18T13:17:01Z</time>
      </trkpt>
      <trkpt lat="49.75472" lon="2.18176">
        <ele>98.1</ele>
        <time>2023-01-18T13:17:02Z</time>
      </trkpt>
      <trkpt lat="49.75472" lon="2.18177">
        <ele>98.1</ele>
        <time>2023-01-18T13:17:03Z</time>
      </trkpt>
      <trkpt lat="49.75472" lon="2.18178">
        <ele>98.1</ele>
        <time>2023-01-18T13:17:04Z</time>
      </trkpt>
      <trkpt lat="49.75472" lon="2.1818">
        <ele>98.1</ele>
        <time>2023-01-18T13:17:05Z</time>
      </trkpt>
      <trkpt lat="49.75472" lon="2.18183">
        <ele>98.1</ele>
        <time>2023-01-18T13:17:06Z</time>
      </trkpt>
      <trkpt lat="49.75472" lon="2.18185">
        <ele>98.1</ele>
        <time>2023-01-18T13:17:07Z</time>
      </trkpt>
      <trkpt lat="49.75472" lon="2.18186">
        <ele>98.1</ele>
        <time>2023-01-18T13:17:08Z</time>
      </trkpt>
      <trkpt lat="49.75473" lon="2.18188">
        <ele>98.1</ele>
        <time>2023-01-18T13:17:10Z</time>
      </trkpt>
      <trkpt lat="49.75473" lon="2.1819">
        <ele>98.1</ele>
        <time>2023-01-18T13:17:11Z</time>
      </trkpt>
      <trkpt lat="49.75473" lon="2.18192">
        <ele>98.1</ele>
        <time>2023-01-18T13:17:12Z</time>
      </trkpt>
      <trkpt lat="49.75473" lon="2.18193">
        <ele>98.1</ele>
        <time>2023-01-18T13:17:13Z</time>
      </trkpt>
      <trkpt lat="49.75474" lon="2.18195">
        <ele>98.1</ele>
        <time>2023-01-18T13:17:14Z</time>
      </trkpt>
      <trkpt lat="49.75474" lon="2.18197">
        <ele>98.1</ele>
        <time>2023-01-18T13:17:16Z</time>
      </trkpt>
      <trkpt lat="49.75474" lon="2.182">
        <ele>98</ele>
        <time>2023-01-18T13:17:17Z</time>
      </trkpt>
      <trkpt lat="49.75474" lon="2.18202">
        <ele>98</ele>
        <time>2023-01-18T13:17:18Z</time>
      </trkpt>
      <trkpt lat="49.75475" lon="2.18206">
        <ele>98</ele>
        <time>2023-01-18T13:17:20Z</time>
      </trkpt>
      <trkpt lat="49.75475" lon="2.18208">
        <ele>97.9</ele>
        <time>2023-01-18T13:17:21Z</time>
      </trkpt>
      <trkpt lat="49.75475" lon="2.18209">
        <ele>97.9</ele>
        <time>2023-01-18T13:17:22Z</time>
      </trkpt>
      <trkpt lat="49.75475" lon="2.1821">
        <ele>97.9</ele>
        <time>2023-01-18T13:17:23Z</time>
      </trkpt>
      <trkpt lat="49.75475" lon="2.18212">
        <ele>97.9</ele>
        <time>2023-01-18T13:17:24Z</time>
      </trkpt>
      <trkpt lat="49.75476" lon="2.18215">
        <ele>97.9</ele>
        <time>2023-01-18T13:17:26Z</time>
      </trkpt>
      <trkpt lat="49.75476" lon="2.18218">
        <ele>97.8</ele>
        <time>2023-01-18T13:17:27Z</time>
      </trkpt>
      <trkpt lat="49.75477" lon="2.18219">
        <ele>97.8</ele>
        <time>2023-01-18T13:17:28Z</time>
      </trkpt>
      <trkpt lat="49.75477" lon="2.18222">
        <ele>97.7</ele>
        <time>2023-01-18T13:17:29Z</time>
      </trkpt>
      <trkpt lat="49.75477" lon="2.18223">
        <ele>97.7</ele>
        <time>2023-01-18T13:17:30Z</time>
      </trkpt>
      <trkpt lat="49.75477" lon="2.18225">
        <ele>97.7</ele>
        <time>2023-01-18T13:17:31Z</time>
      </trkpt>
      <trkpt lat="49.75477" lon="2.18227">
        <ele>97.6</ele>
        <time>2023-01-18T13:17:32Z</time>
      </trkpt>
      <trkpt lat="49.75477" lon="2.18229">
        <ele>97.6</ele>
        <time>2023-01-18T13:17:33Z</time>
      </trkpt>
      <trkpt lat="49.75478" lon="2.18231">
        <ele>97.6</ele>
        <time>2023-01-18T13:17:34Z</time>
      </trkpt>
      <trkpt lat="49.75478" lon="2.18233">
        <ele>97.5</ele>
        <time>2023-01-18T13:17:35Z</time>
      </trkpt>
      <trkpt lat="49.75478" lon="2.18235">
        <ele>97.5</ele>
        <time>2023-01-18T13:17:37Z</time>
      </trkpt>
      <trkpt lat="49.75478" lon="2.18237">
        <ele>97.4</ele>
        <time>2023-01-18T13:17:38Z</time>
      </trkpt>
      <trkpt lat="49.75478" lon="2.18238">
        <ele>97.4</ele>
        <time>2023-01-18T13:17:39Z</time>
      </trkpt>
      <trkpt lat="49.75479" lon="2.1824">
        <ele>97.4</ele>
        <time>2023-01-18T13:17:40Z</time>
      </trkpt>
      <trkpt lat="49.75479" lon="2.18242">
        <ele>97.3</ele>
        <time>2023-01-18T13:17:41Z</time>
      </trkpt>
      <trkpt lat="49.75479" lon="2.18244">
        <ele>97.3</ele>
        <time>2023-01-18T13:17:42Z</time>
      </trkpt>
      <trkpt lat="49.7548" lon="2.18248">
        <ele>97.2</ele>
        <time>2023-01-18T13:17:44Z</time>
      </trkpt>
      <trkpt lat="49.7548" lon="2.18249">
        <ele>97.2</ele>
        <time>2023-01-18T13:17:45Z</time>
      </trkpt>
      <trkpt lat="49.75481" lon="2.18252">
        <ele>97.1</ele>
        <time>2023-01-18T13:17:47Z</time>
      </trkpt>
      <trkpt lat="49.75481" lon="2.18254">
        <ele>97.1</ele>
        <time>2023-01-18T13:17:48Z</time>
      </trkpt>
      <trkpt lat="49.75482" lon="2.18255">
        <ele>97.1</ele>
        <time>2023-01-18T13:17:49Z</time>
      </trkpt>
      <trkpt lat="49.75482" lon="2.18258">
        <ele>97</ele>
        <time>2023-01-18T13:17:50Z</time>
      </trkpt>
      <trkpt lat="49.75483" lon="2.1826">
        <ele>97</ele>
        <time>2023-01-18T13:17:52Z</time>
      </trkpt>
      <trkpt lat="49.75483" lon="2.18261">
        <ele>97</ele>
        <time>2023-01-18T13:17:53Z</time>
      </trkpt>
      <trkpt lat="49.75483" lon="2.18262">
        <ele>96.9</ele>
        <time>2023-01-18T13:17:54Z</time>
      </trkpt>
      <trkpt lat="49.75483" lon="2.18264">
        <ele>96.9</ele>
        <time>2023-01-18T13:17:55Z</time>
      </trkpt>
      <trkpt lat="49.75484" lon="2.18266">
        <ele>96.9</ele>
        <time>2023-01-18T13:17:56Z</time>
      </trkpt>
      <trkpt lat="49.75484" lon="2.18267">
        <ele>96.8</ele>
        <time>2023-01-18T13:17:57Z</time>
      </trkpt>
      <trkpt lat="49.75485" lon="2.18269">
        <ele>96.8</ele>
        <time>2023-01-18T13:17:59Z</time>
      </trkpt>
      <trkpt lat="49.75485" lon="2.18271">
        <ele>96.8</ele>
        <time>2023-01-18T13:18:00Z</time>
      </trkpt>
      <trkpt lat="49.75485" lon="2.18272">
        <ele>96.7</ele>
        <time>2023-01-18T13:18:01Z</time>
      </trkpt>
      <trkpt lat="49.75486" lon="2.18276">
        <ele>96.7</ele>
        <time>2023-01-18T13:18:02Z</time>
      </trkpt>
      <trkpt lat="49.75486" lon="2.18277">
        <ele>96.6</ele>
        <time>2023-01-18T13:18:03Z</time>
      </trkpt>
      <trkpt lat="49.75486" lon="2.18278">
        <ele>96.6</ele>
        <time>2023-01-18T13:18:04Z</time>
      </trkpt>
      <trkpt lat="49.75487" lon="2.18281">
        <ele>96.6</ele>
        <time>2023-01-18T13:18:05Z</time>
      </trkpt>
      <trkpt lat="49.75487" lon="2.18282">
        <ele>96.5</ele>
        <time>2023-01-18T13:18:06Z</time>
      </trkpt>
      <trkpt lat="49.75488" lon="2.18283">
        <ele>96.5</ele>
        <time>2023-01-18T13:18:07Z</time>
      </trkpt>
      <trkpt lat="49.75488" lon="2.18285">
        <ele>96.5</ele>
        <time>2023-01-18T13:18:09Z</time>
      </trkpt>
      <trkpt lat="49.75488" lon="2.18287">
        <ele>96.4</ele>
        <time>2023-01-18T13:18:10Z</time>
      </trkpt>
      <trkpt lat="49.75489" lon="2.18288">
        <ele>96.4</ele>
        <time>2023-01-18T13:18:11Z</time>
      </trkpt>
      <trkpt lat="49.75489" lon="2.18291">
        <ele>96.4</ele>
        <time>2023-01-18T13:18:12Z</time>
      </trkpt>
      <trkpt lat="49.7549" lon="2.18293">
        <ele>96.3</ele>
        <time>2023-01-18T13:18:13Z</time>
      </trkpt>
      <trkpt lat="49.7549" lon="2.18296">
        <ele>96.3</ele>
        <time>2023-01-18T13:18:15Z</time>
      </trkpt>
      <trkpt lat="49.7549" lon="2.18297">
        <ele>96.3</ele>
        <time>2023-01-18T13:18:16Z</time>
      </trkpt>
      <trkpt lat="49.7549" lon="2.18299">
        <ele>96.3</ele>
        <time>2023-01-18T13:18:17Z</time>
      </trkpt>
      <trkpt lat="49.7549" lon="2.18302">
        <ele>96.2</ele>
        <time>2023-01-18T13:18:18Z</time>
      </trkpt>
      <trkpt lat="49.7549" lon="2.18303">
        <ele>96.2</ele>
        <time>2023-01-18T13:18:19Z</time>
      </trkpt>
      <trkpt lat="49.7549" lon="2.18305">
        <ele>96.2</ele>
        <time>2023-01-18T13:18:20Z</time>
      </trkpt>
      <trkpt lat="49.7549" lon="2.18307">
        <ele>96.2</ele>
        <time>2023-01-18T13:18:22Z</time>
      </trkpt>
      <trkpt lat="49.75491" lon="2.18309">
        <ele>96.2</ele>
        <time>2023-01-18T13:18:23Z</time>
      </trkpt>
      <trkpt lat="49.75491" lon="2.18311">
        <ele>96.1</ele>
        <time>2023-01-18T13:18:24Z</time>
      </trkpt>
      <trkpt lat="49.75491" lon="2.18312">
        <ele>96.1</ele>
        <time>2023-01-18T13:18:25Z</time>
      </trkpt>
      <trkpt lat="49.75492" lon="2.18314">
        <ele>96.1</ele>
        <time>2023-01-18T13:18:26Z</time>
      </trkpt>
      <trkpt lat="49.75492" lon="2.18317">
        <ele>96.1</ele>
        <time>2023-01-18T13:18:27Z</time>
      </trkpt>
      <trkpt lat="49.75492" lon="2.18318">
        <ele>96.1</ele>
        <time>2023-01-18T13:18:28Z</time>
      </trkpt>
      <trkpt lat="49.75492" lon="2.18319">
        <ele>96.1</ele>
        <time>2023-01-18T13:18:29Z</time>
      </trkpt>
      <trkpt lat="49.75492" lon="2.18321">
        <ele>96.1</ele>
        <time>2023-01-18T13:18:30Z</time>
      </trkpt>
      <trkpt lat="49.75492" lon="2.18321">
        <ele>96.1</ele>
        <time>2023-01-18T13:18:32Z</time>
      </trkpt>
      <trkpt lat="49.75492" lon="2.18321">
        <ele>96.1</ele>
        <time>2023-01-18T13:18:33Z</time>
      </trkpt>
      <trkpt lat="49.75491" lon="2.18321">
        <ele>96.1</ele>
        <time>2023-01-18T13:18:34Z</time>
      </trkpt>
      <trkpt lat="49.75491" lon="2.18321">
        <ele>96.1</ele>
        <time>2023-01-18T13:18:36Z</time>
      </trkpt>
      <trkpt lat="49.75491" lon="2.18321">
        <ele>96.1</ele>
        <time>2023-01-18T13:18:38Z</time>
      </trkpt>
      <trkpt lat="49.75491" lon="2.18321">
        <ele>96.1</ele>
        <time>2023-01-18T13:18:39Z</time>
      </trkpt>
      <trkpt lat="49.75491" lon="2.18321">
        <ele>96.1</ele>
        <time>2023-01-18T13:18:41Z</time>
      </trkpt>
      <trkpt lat="49.75491" lon="2.18321">
        <ele>96.1</ele>
        <time>2023-01-18T13:18:42Z</time>
      </trkpt>
      <trkpt lat="49.75491" lon="2.18322">
        <ele>96.1</ele>
        <time>2023-01-18T13:18:44Z</time>
      </trkpt>
      <trkpt lat="49.75491" lon="2.18322">
        <ele>96.1</ele>
        <time>2023-01-18T13:18:45Z</time>
      </trkpt>
      <trkpt lat="49.75491" lon="2.18322">
        <ele>96.1</ele>
        <time>2023-01-18T13:18:46Z</time>
      </trkpt>
      <trkpt lat="49.75491" lon="2.18322">
        <ele>96.1</ele>
        <time>2023-01-18T13:18:48Z</time>
      </trkpt>
      <trkpt lat="49.75491" lon="2.18322">
        <ele>96.1</ele>
        <time>2023-01-18T13:18:49Z</time>
      </trkpt>
      <trkpt lat="49.75491" lon="2.18322">
        <ele>96.1</ele>
        <time>2023-01-18T13:18:51Z</time>
      </trkpt>
      <trkpt lat="49.75491" lon="2.18322">
        <ele>96.1</ele>
        <time>2023-01-18T13:18:52Z</time>
      </trkpt>
      <trkpt lat="49.75491" lon="2.18322">
        <ele>96.1</ele>
        <time>2023-01-18T13:18:54Z</time>
      </trkpt>
      <trkpt lat="49.75491" lon="2.18322">
        <ele>96.1</ele>
        <time>2023-01-18T13:18:55Z</time>
      </trkpt>
      <trkpt lat="49.7549" lon="2.18322">
        <ele>96.1</ele>
        <time>2023-01-18T13:18:56Z</time>
      </trkpt>
      <trkpt lat="49.7549" lon="2.18322">
        <ele>96.1</ele>
        <time>2023-01-18T13:18:57Z</time>
      </trkpt>
      <trkpt lat="49.7549" lon="2.18322">
        <ele>96.1</ele>
        <time>2023-01-18T13:18:58Z</time>
      </trkpt>
      <trkpt lat="49.7549" lon="2.18322">
        <ele>96.1</ele>
        <time>2023-01-18T13:18:59Z</time>
      </trkpt>
      <trkpt lat="49.7549" lon="2.18322">
        <ele>96.1</ele>
        <time>2023-01-18T13:19:00Z</time>
      </trkpt>
      <trkpt lat="49.7549" lon="2.18322">
        <ele>96.1</ele>
        <time>2023-01-18T13:19:01Z</time>
      </trkpt>
      <trkpt lat="49.7549" lon="2.18322">
        <ele>96.1</ele>
        <time>2023-01-18T13:19:02Z</time>
      </trkpt>
      <trkpt lat="49.7549" lon="2.18322">
        <ele>96.1</ele>
        <time>2023-01-18T13:19:03Z</time>
      </trkpt>
      <trkpt lat="49.7549" lon="2.18322">
        <ele>96.1</ele>
        <time>2023-01-18T13:19:04Z</time>
      </trkpt>
      <trkpt lat="49.7549" lon="2.18322">
        <ele>96.1</ele>
        <time>2023-01-18T13:19:05Z</time>
      </trkpt>
      <trkpt lat="49.7549" lon="2.18322">
        <ele>96.1</ele>
        <time>2023-01-18T13:19:06Z</time>
      </trkpt>
      <trkpt lat="49.7549" lon="2.18322">
        <ele>96.1</ele>
        <time>2023-01-18T13:19:07Z</time>
      </trkpt>
      <trkpt lat="49.7549" lon="2.18323">
        <ele>96.1</ele>
        <time>2023-01-18T13:19:08Z</time>
      </trkpt>
      <trkpt lat="49.7549" lon="2.18323">
        <ele>96.1</ele>
        <time>2023-01-18T13:19:09Z</time>
      </trkpt>
      <trkpt lat="49.7549" lon="2.18323">
        <ele>96.1</ele>
        <time>2023-01-18T13:19:10Z</time>
      </trkpt>
      <trkpt lat="49.7549" lon="2.18323">
        <ele>96.1</ele>
        <time>2023-01-18T13:19:11Z</time>
      </trkpt>
      <trkpt lat="49.7549" lon="2.18324">
        <ele>96.1</ele>
        <time>2023-01-18T13:19:12Z</time>
      </trkpt>
      <trkpt lat="49.7549" lon="2.18324">
        <ele>96.1</ele>
        <time>2023-01-18T13:19:13Z</time>
      </trkpt>
      <trkpt lat="49.7549" lon="2.18324">
        <ele>96.1</ele>
        <time>2023-01-18T13:19:14Z</time>
      </trkpt>
      <trkpt lat="49.7549" lon="2.18324">
        <ele>96.1</ele>
        <time>2023-01-18T13:19:15Z</time>
      </trkpt>
      <trkpt lat="49.7549" lon="2.18325">
        <ele>96.1</ele>
        <time>2023-01-18T13:19:16Z</time>
      </trkpt>
      <trkpt lat="49.7549" lon="2.18325">
        <ele>96.1</ele>
        <time>2023-01-18T13:19:17Z</time>
      </trkpt>
      <trkpt lat="49.7549" lon="2.18325">
        <ele>96.1</ele>
        <time>2023-01-18T13:19:18Z</time>
      </trkpt>
      <trkpt lat="49.7549" lon="2.18325">
        <ele>96.1</ele>
        <time>2023-01-18T13:19:19Z</time>
      </trkpt>
      <trkpt lat="49.7549" lon="2.18326">
        <ele>96.1</ele>
        <time>2023-01-18T13:19:20Z</time>
      </trkpt>
      <trkpt lat="49.7549" lon="2.18326">
        <ele>96.1</ele>
        <time>2023-01-18T13:19:21Z</time>
      </trkpt>
      <trkpt lat="49.7549" lon="2.18326">
        <ele>96.1</ele>
        <time>2023-01-18T13:19:22Z</time>
      </trkpt>
      <trkpt lat="49.7549" lon="2.18326">
        <ele>96.1</ele>
        <time>2023-01-18T13:19:23Z</time>
      </trkpt>
      <trkpt lat="49.7549" lon="2.18327">
        <ele>96.1</ele>
        <time>2023-01-18T13:19:24Z</time>
      </trkpt>
      <trkpt lat="49.7549" lon="2.18327">
        <ele>96.1</ele>
        <time>2023-01-18T13:19:25Z</time>
      </trkpt>
      <trkpt lat="49.7549" lon="2.18327">
        <ele>96.1</ele>
        <time>2023-01-18T13:19:27Z</time>
      </trkpt>
      <trkpt lat="49.7549" lon="2.18327">
        <ele>96.1</ele>
        <time>2023-01-18T13:19:28Z</time>
      </trkpt>
      <trkpt lat="49.7549" lon="2.18328">
        <ele>96.1</ele>
        <time>2023-01-18T13:19:30Z</time>
      </trkpt>
      <trkpt lat="49.7549" lon="2.18328">
        <ele>96.1</ele>
        <time>2023-01-18T13:19:31Z</time>
      </trkpt>
      <trkpt lat="49.7549" lon="2.18328">
        <ele>96.1</ele>
        <time>2023-01-18T13:19:32Z</time>
      </trkpt>
      <trkpt lat="49.7549" lon="2.18329">
        <ele>96.1</ele>
        <time>2023-01-18T13:19:34Z</time>
      </trkpt>
      <trkpt lat="49.75491" lon="2.18331">
        <ele>96.1</ele>
        <time>2023-01-18T13:19:35Z</time>
      </trkpt>
      <trkpt lat="49.75491" lon="2.18332">
        <ele>96.1</ele>
        <time>2023-01-18T13:19:36Z</time>
      </trkpt>
      <trkpt lat="49.75491" lon="2.18334">
        <ele>96.1</ele>
        <time>2023-01-18T13:19:37Z</time>
      </trkpt>
      <trkpt lat="49.75492" lon="2.18336">
        <ele>96.1</ele>
        <time>2023-01-18T13:19:38Z</time>
      </trkpt>
      <trkpt lat="49.75492" lon="2.18338">
        <ele>96.1</ele>
        <time>2023-01-18T13:19:40Z</time>
      </trkpt>
      <trkpt lat="49.75493" lon="2.18341">
        <ele>96.2</ele>
        <time>2023-01-18T13:19:41Z</time>
      </trkpt>
      <trkpt lat="49.75494" lon="2.18342">
        <ele>96.2</ele>
        <time>2023-01-18T13:19:42Z</time>
      </trkpt>
      <trkpt lat="49.75494" lon="2.18344">
        <ele>96.2</ele>
        <time>2023-01-18T13:19:43Z</time>
      </trkpt>
      <trkpt lat="49.75495" lon="2.18346">
        <ele>96.2</ele>
        <time>2023-01-18T13:19:44Z</time>
      </trkpt>
      <trkpt lat="49.75496" lon="2.18348">
        <ele>96.3</ele>
        <time>2023-01-18T13:19:45Z</time>
      </trkpt>
      <trkpt lat="49.75497" lon="2.18351">
        <ele>96.3</ele>
        <time>2023-01-18T13:19:46Z</time>
      </trkpt>
      <trkpt lat="49.75498" lon="2.18353">
        <ele>96.4</ele>
        <time>2023-01-18T13:19:48Z</time>
      </trkpt>
      <trkpt lat="49.75498" lon="2.18355">
        <ele>96.4</ele>
        <time>2023-01-18T13:19:49Z</time>
      </trkpt>
      <trkpt lat="49.75499" lon="2.18356">
        <ele>96.4</ele>
        <time>2023-01-18T13:19:50Z</time>
      </trkpt>
      <trkpt lat="49.75499" lon="2.18358">
        <ele>96.5</ele>
        <time>2023-01-18T13:19:51Z</time>
      </trkpt>
      <trkpt lat="49.755" lon="2.18361">
        <ele>96.5</ele>
        <time>2023-01-18T13:19:52Z</time>
      </trkpt>
      <trkpt lat="49.755" lon="2.18362">
        <ele>96.5</ele>
        <time>2023-01-18T13:19:53Z</time>
      </trkpt>
      <trkpt lat="49.75501" lon="2.18364">
        <ele>96.6</ele>
        <time>2023-01-18T13:19:55Z</time>
      </trkpt>
      <trkpt lat="49.75501" lon="2.18365">
        <ele>96.6</ele>
        <time>2023-01-18T13:19:56Z</time>
      </trkpt>
      <trkpt lat="49.75501" lon="2.18367">
        <ele>96.6</ele>
        <time>2023-01-18T13:19:57Z</time>
      </trkpt>
      <trkpt lat="49.75501" lon="2.18369">
        <ele>96.7</ele>
        <time>2023-01-18T13:19:58Z</time>
      </trkpt>
      <trkpt lat="49.75501" lon="2.18371">
        <ele>96.7</ele>
        <time>2023-01-18T13:19:59Z</time>
      </trkpt>
      <trkpt lat="49.75501" lon="2.18372">
        <ele>96.7</ele>
        <time>2023-01-18T13:20:01Z</time>
      </trkpt>
      <trkpt lat="49.75501" lon="2.18374">
        <ele>96.8</ele>
        <time>2023-01-18T13:20:02Z</time>
      </trkpt>
      <trkpt lat="49.75501" lon="2.18376">
        <ele>96.8</ele>
        <time>2023-01-18T13:20:03Z</time>
      </trkpt>
      <trkpt lat="49.75502" lon="2.18377">
        <ele>96.8</ele>
        <time>2023-01-18T13:20:04Z</time>
      </trkpt>
      <trkpt lat="49.75502" lon="2.18379">
        <ele>96.9</ele>
        <time>2023-01-18T13:20:05Z</time>
      </trkpt>
      <trkpt lat="49.75503" lon="2.1838">
        <ele>96.9</ele>
        <time>2023-01-18T13:20:06Z</time>
      </trkpt>
      <trkpt lat="49.75503" lon="2.18382">
        <ele>96.9</ele>
        <time>2023-01-18T13:20:08Z</time>
      </trkpt>
      <trkpt lat="49.75504" lon="2.18383">
        <ele>97</ele>
        <time>2023-01-18T13:20:09Z</time>
      </trkpt>
      <trkpt lat="49.75504" lon="2.18385">
        <ele>97</ele>
        <time>2023-01-18T13:20:10Z</time>
      </trkpt>
      <trkpt lat="49.75505" lon="2.18387">
        <ele>97</ele>
        <time>2023-01-18T13:20:11Z</time>
      </trkpt>
      <trkpt lat="49.75505" lon="2.18389">
        <ele>97.1</ele>
        <time>2023-01-18T13:20:12Z</time>
      </trkpt>
      <trkpt lat="49.75505" lon="2.18391">
        <ele>97.1</ele>
        <time>2023-01-18T13:20:14Z</time>
      </trkpt>
      <trkpt lat="49.75506" lon="2.18392">
        <ele>97.1</ele>
        <time>2023-01-18T13:20:15Z</time>
      </trkpt>
      <trkpt lat="49.75506" lon="2.18394">
        <ele>97.1</ele>
        <time>2023-01-18T13:20:16Z</time>
      </trkpt>
      <trkpt lat="49.75506" lon="2.18396">
        <ele>97.1</ele>
        <time>2023-01-18T13:20:17Z</time>
      </trkpt>
      <trkpt lat="49.75506" lon="2.18398">
        <ele>97.1</ele>
        <time>2023-01-18T13:20:19Z</time>
      </trkpt>
      <trkpt lat="49.75506" lon="2.184">
        <ele>97.2</ele>
        <time>2023-01-18T13:20:20Z</time>
      </trkpt>
      <trkpt lat="49.75506" lon="2.18402">
        <ele>97.2</ele>
        <time>2023-01-18T13:20:21Z</time>
      </trkpt>
      <trkpt lat="49.75506" lon="2.18403">
        <ele>97.2</ele>
        <time>2023-01-18T13:20:22Z</time>
      </trkpt>
      <trkpt lat="49.75506" lon="2.18405">
        <ele>97.2</ele>
        <time>2023-01-18T13:20:23Z</time>
      </trkpt>
      <trkpt lat="49.75506" lon="2.18406">
        <ele>97.2</ele>
        <time>2023-01-18T13:20:24Z</time>
      </trkpt>
      <trkpt lat="49.75506" lon="2.18408">
        <ele>97.2</ele>
        <time>2023-01-18T13:20:26Z</time>
      </trkpt>
      <trkpt lat="49.75507" lon="2.18409">
        <ele>97.2</ele>
        <time>2023-01-18T13:20:27Z</time>
      </trkpt>
      <trkpt lat="49.75507" lon="2.1841">
        <ele>97.2</ele>
        <time>2023-01-18T13:20:28Z</time>
      </trkpt>
      <trkpt lat="49.75507" lon="2.18411">
        <ele>97.2</ele>
        <time>2023-01-18T13:20:29Z</time>
      </trkpt>
      <trkpt lat="49.75507" lon="2.18412">
        <ele>97.2</ele>
        <time>2023-01-18T13:20:30Z</time>
      </trkpt>
      <trkpt lat="49.75506" lon="2.18412">
        <ele>97.2</ele>
        <time>2023-01-18T13:20:31Z</time>
      </trkpt>
      <trkpt lat="49.75506" lon="2.18413">
        <ele>97.2</ele>
        <time>2023-01-18T13:20:32Z</time>
      </trkpt>
      <trkpt lat="49.75506" lon="2.18415">
        <ele>97.2</ele>
        <time>2023-01-18T13:20:34Z</time>
      </trkpt>
      <trkpt lat="49.75506" lon="2.18416">
        <ele>97.2</ele>
        <time>2023-01-18T13:20:36Z</time>
      </trkpt>
      <trkpt lat="49.75506" lon="2.18417">
        <ele>97.2</ele>
        <time>2023-01-18T13:20:37Z</time>
      </trkpt>
      <trkpt lat="49.75505" lon="2.18417">
        <ele>97.2</ele>
        <time>2023-01-18T13:20:39Z</time>
      </trkpt>
      <trkpt lat="49.75505" lon="2.18417">
        <ele>97.2</ele>
        <time>2023-01-18T13:20:40Z</time>
      </trkpt>
      <trkpt lat="49.75505" lon="2.18416">
        <ele>97.2</ele>
        <time>2023-01-18T13:20:42Z</time>
      </trkpt>
      <trkpt lat="49.75504" lon="2.18416">
        <ele>97.2</ele>
        <time>2023-01-18T13:20:43Z</time>
      </trkpt>
      <trkpt lat="49.75504" lon="2.18416">
        <ele>97.2</ele>
        <time>2023-01-18T13:20:45Z</time>
      </trkpt>
      <trkpt lat="49.75504" lon="2.18416">
        <ele>97.2</ele>
        <time>2023-01-18T13:20:46Z</time>
      </trkpt>
      <trkpt lat="49.75504" lon="2.18416">
        <ele>97.2</ele>
        <time>2023-01-18T13:20:47Z</time>
      </trkpt>
      <trkpt lat="49.75504" lon="2.18416">
        <ele>97.2</ele>
        <time>2023-01-18T13:20:49Z</time>
      </trkpt>
      <trkpt lat="49.75504" lon="2.18416">
        <ele>97.2</ele>
        <time>2023-01-18T13:20:50Z</time>
      </trkpt>
      <trkpt lat="49.75504" lon="2.18416">
        <ele>97.2</ele>
        <time>2023-01-18T13:20:52Z</time>
      </trkpt>
      <trkpt lat="49.75504" lon="2.18416">
        <ele>97.2</ele>
        <time>2023-01-18T13:20:53Z</time>
      </trkpt>
      <trkpt lat="49.75504" lon="2.18416">
        <ele>97.2</ele>
        <time>2023-01-18T13:20:54Z</time>
      </trkpt>
      <trkpt lat="49.75504" lon="2.18416">
        <ele>97.2</ele>
        <time>2023-01-18T13:20:55Z</time>
      </trkpt>
      <trkpt lat="49.75504" lon="2.18416">
        <ele>97.2</ele>
        <time>2023-01-18T13:20:56Z</time>
      </trkpt>
      <trkpt lat="49.75504" lon="2.18416">
        <ele>97.2</ele>
        <time>2023-01-18T13:20:57Z</time>
      </trkpt>
      <trkpt lat="49.75504" lon="2.18416">
        <ele>97.2</ele>
        <time>2023-01-18T13:20:58Z</time>
      </trkpt>
      <trkpt lat="49.75504" lon="2.18416">
        <ele>97.2</ele>
        <time>2023-01-18T13:20:59Z</time>
      </trkpt>
      <trkpt lat="49.75504" lon="2.18416">
        <ele>97.2</ele>
        <time>2023-01-18T13:21:00Z</time>
      </trkpt>
      <trkpt lat="49.75504" lon="2.18416">
        <ele>97.2</ele>
        <time>2023-01-18T13:21:01Z</time>
      </trkpt>
      <trkpt lat="49.75504" lon="2.18416">
        <ele>97.2</ele>
        <time>2023-01-18T13:21:02Z</time>
      </trkpt>
      <trkpt lat="49.75504" lon="2.18416">
        <ele>97.2</ele>
        <time>2023-01-18T13:21:03Z</time>
      </trkpt>
      <trkpt lat="49.75504" lon="2.18416">
        <ele>97.2</ele>
        <time>2023-01-18T13:21:04Z</time>
      </trkpt>
      <trkpt lat="49.75504" lon="2.18416">
        <ele>97.2</ele>
        <time>2023-01-18T13:21:05Z</time>
      </trkpt>
      <trkpt lat="49.75504" lon="2.18416">
        <ele>97.2</ele>
        <time>2023-01-18T13:21:06Z</time>
      </trkpt>
      <trkpt lat="49.75504" lon="2.18416">
        <ele>97.2</ele>
        <time>2023-01-18T13:21:07Z</time>
      </trkpt>
      <trkpt lat="49.75504" lon="2.18416">
        <ele>97.2</ele>
        <time>2023-01-18T13:21:08Z</time>
      </trkpt>
      <trkpt lat="49.75504" lon="2.18416">
        <ele>97.2</ele>
        <time>2023-01-18T13:21:09Z</time>
      </trkpt>
      <trkpt lat="49.75504" lon="2.18416">
        <ele>97.2</ele>
        <time>2023-01-18T13:21:10Z</time>
      </trkpt>
      <trkpt lat="49.75504" lon="2.18416">
        <ele>97.2</ele>
        <time>2023-01-18T13:21:11Z</time>
      </trkpt>
      <trkpt lat="49.75504" lon="2.18416">
        <ele>97.2</ele>
        <time>2023-01-18T13:21:12Z</time>
      </trkpt>
      <trkpt lat="49.75504" lon="2.18416">
        <ele>97.2</ele>
        <time>2023-01-18T13:21:13Z</time>
      </trkpt>
      <trkpt lat="49.75504" lon="2.18416">
        <ele>97.2</ele>
        <time>2023-01-18T13:21:14Z</time>
      </trkpt>
      <trkpt lat="49.75504" lon="2.18416">
        <ele>97.2</ele>
        <time>2023-01-18T13:21:15Z</time>
      </trkpt>
      <trkpt lat="49.75504" lon="2.18416">
        <ele>97.2</ele>
        <time>2023-01-18T13:21:16Z</time>
      </trkpt>
      <trkpt lat="49.75504" lon="2.18416">
        <ele>97.2</ele>
        <time>2023-01-18T13:21:17Z</time>
      </trkpt>
      <trkpt lat="49.75504" lon="2.18416">
        <ele>97.2</ele>
        <time>2023-01-18T13:21:18Z</time>
      </trkpt>
      <trkpt lat="49.75504" lon="2.18416">
        <ele>97.2</ele>
        <time>2023-01-18T13:21:19Z</time>
      </trkpt>
      <trkpt lat="49.75504" lon="2.18416">
        <ele>97.2</ele>
        <time>2023-01-18T13:21:20Z</time>
      </trkpt>
      <trkpt lat="49.75504" lon="2.18416">
        <ele>97.2</ele>
        <time>2023-01-18T13:21:21Z</time>
      </trkpt>
      <trkpt lat="49.75504" lon="2.18416">
        <ele>97.2</ele>
        <time>2023-01-18T13:21:22Z</time>
      </trkpt>
      <trkpt lat="49.75504" lon="2.18416">
        <ele>97.2</ele>
        <time>2023-01-18T13:21:23Z</time>
      </trkpt>
      <trkpt lat="49.75504" lon="2.18416">
        <ele>97.2</ele>
        <time>2023-01-18T13:21:24Z</time>
      </trkpt>
      <trkpt lat="49.75504" lon="2.18416">
        <ele>97.2</ele>
        <time>2023-01-18T13:21:25Z</time>
      </trkpt>
      <trkpt lat="49.75504" lon="2.18416">
        <ele>97.2</ele>
        <time>2023-01-18T13:21:26Z</time>
      </trkpt>
      <trkpt lat="49.75504" lon="2.18416">
        <ele>97.2</ele>
        <time>2023-01-18T13:21:27Z</time>
      </trkpt>
      <trkpt lat="49.75504" lon="2.18416">
        <ele>97.2</ele>
        <time>2023-01-18T13:21:28Z</time>
      </trkpt>
      <trkpt lat="49.75504" lon="2.18416">
        <ele>97.2</ele>
        <time>2023-01-18T13:21:29Z</time>
      </trkpt>
      <trkpt lat="49.75504" lon="2.18416">
        <ele>97.2</ele>
        <time>2023-01-18T13:21:30Z</time>
      </trkpt>
      <trkpt lat="49.75504" lon="2.18416">
        <ele>97.2</ele>
        <time>2023-01-18T13:21:31Z</time>
      </trkpt>
      <trkpt lat="49.75504" lon="2.18416">
        <ele>97.2</ele>
        <time>2023-01-18T13:21:32Z</time>
      </trkpt>
      <trkpt lat="49.75504" lon="2.18416">
        <ele>97.2</ele>
        <time>2023-01-18T13:21:33Z</time>
      </trkpt>
      <trkpt lat="49.75504" lon="2.18416">
        <ele>97.2</ele>
        <time>2023-01-18T13:21:34Z</time>
      </trkpt>
      <trkpt lat="49.75504" lon="2.18416">
        <ele>97.2</ele>
        <time>2023-01-18T13:21:35Z</time>
      </trkpt>
      <trkpt lat="49.75504" lon="2.18416">
        <ele>97.2</ele>
        <time>2023-01-18T13:21:36Z</time>
      </trkpt>
      <trkpt lat="49.75504" lon="2.18416">
        <ele>97.2</ele>
        <time>2023-01-18T13:21:37Z</time>
      </trkpt>
      <trkpt lat="49.75504" lon="2.18416">
        <ele>97.2</ele>
        <time>2023-01-18T13:21:38Z</time>
      </trkpt>
      <trkpt lat="49.75505" lon="2.18416">
        <ele>97.2</ele>
        <time>2023-01-18T13:21:39Z</time>
      </trkpt>
      <trkpt lat="49.75505" lon="2.18417">
        <ele>97.2</ele>
        <time>2023-01-18T13:21:40Z</time>
      </trkpt>
      <trkpt lat="49.75505" lon="2.18417">
        <ele>97.2</ele>
        <time>2023-01-18T13:21:41Z</time>
      </trkpt>
      <trkpt lat="49.75505" lon="2.18418">
        <ele>97.2</ele>
        <time>2023-01-18T13:21:42Z</time>
      </trkpt>
      <trkpt lat="49.75505" lon="2.18419">
        <ele>97.3</ele>
        <time>2023-01-18T13:21:43Z</time>
      </trkpt>
      <trkpt lat="49.75504" lon="2.18421">
        <ele>97.3</ele>
        <time>2023-01-18T13:21:44Z</time>
      </trkpt>
      <trkpt lat="49.75504" lon="2.18424">
        <ele>97.3</ele>
        <time>2023-01-18T13:21:45Z</time>
      </trkpt>
      <trkpt lat="49.75504" lon="2.18426">
        <ele>97.3</ele>
        <time>2023-01-18T13:21:46Z</time>
      </trkpt>
      <trkpt lat="49.75504" lon="2.18429">
        <ele>97.4</ele>
        <time>2023-01-18T13:21:47Z</time>
      </trkpt>
      <trkpt lat="49.75503" lon="2.18432">
        <ele>97.5</ele>
        <time>2023-01-18T13:21:49Z</time>
      </trkpt>
      <trkpt lat="49.75503" lon="2.18435">
        <ele>97.5</ele>
        <time>2023-01-18T13:21:50Z</time>
      </trkpt>
      <trkpt lat="49.75502" lon="2.18437">
        <ele>97.6</ele>
        <time>2023-01-18T13:21:51Z</time>
      </trkpt>
      <trkpt lat="49.75502" lon="2.18439">
        <ele>97.6</ele>
        <time>2023-01-18T13:21:52Z</time>
      </trkpt>
      <trkpt lat="49.75501" lon="2.18441">
        <ele>97.7</ele>
        <time>2023-01-18T13:21:53Z</time>
      </trkpt>
      <trkpt lat="49.75501" lon="2.18443">
        <ele>97.7</ele>
        <time>2023-01-18T13:21:55Z</time>
      </trkpt>
      <trkpt lat="49.75501" lon="2.18445">
        <ele>97.8</ele>
        <time>2023-01-18T13:21:56Z</time>
      </trkpt>
      <trkpt lat="49.75501" lon="2.18446">
        <ele>97.8</ele>
        <time>2023-01-18T13:21:57Z</time>
      </trkpt>
      <trkpt lat="49.75501" lon="2.18448">
        <ele>97.8</ele>
        <time>2023-01-18T13:21:58Z</time>
      </trkpt>
      <trkpt lat="49.755" lon="2.18451">
        <ele>97.9</ele>
        <time>2023-01-18T13:21:59Z</time>
      </trkpt>
      <trkpt lat="49.755" lon="2.18453">
        <ele>97.9</ele>
        <time>2023-01-18T13:22:00Z</time>
      </trkpt>
      <trkpt lat="49.755" lon="2.18455">
        <ele>97.9</ele>
        <time>2023-01-18T13:22:01Z</time>
      </trkpt>
      <trkpt lat="49.755" lon="2.18456">
        <ele>97.9</ele>
        <time>2023-01-18T13:22:03Z</time>
      </trkpt>
      <trkpt lat="49.75499" lon="2.1846">
        <ele>98</ele>
        <time>2023-01-18T13:22:04Z</time>
      </trkpt>
      <trkpt lat="49.75499" lon="2.18461">
        <ele>98</ele>
        <time>2023-01-18T13:22:05Z</time>
      </trkpt>
      <trkpt lat="49.75498" lon="2.18462">
        <ele>98</ele>
        <time>2023-01-18T13:22:06Z</time>
      </trkpt>
      <trkpt lat="49.75497" lon="2.18464">
        <ele>98</ele>
        <time>2023-01-18T13:22:07Z</time>
      </trkpt>
      <trkpt lat="49.75497" lon="2.18467">
        <ele>98.1</ele>
        <time>2023-01-18T13:22:08Z</time>
      </trkpt>
      <trkpt lat="49.75496" lon="2.18468">
        <ele>98.1</ele>
        <time>2023-01-18T13:22:09Z</time>
      </trkpt>
      <trkpt lat="49.75496" lon="2.18469">
        <ele>98.1</ele>
        <time>2023-01-18T13:22:11Z</time>
      </trkpt>
      <trkpt lat="49.75495" lon="2.18471">
        <ele>98.1</ele>
        <time>2023-01-18T13:22:12Z</time>
      </trkpt>
      <trkpt lat="49.75495" lon="2.18473">
        <ele>98.1</ele>
        <time>2023-01-18T13:22:13Z</time>
      </trkpt>
      <trkpt lat="49.75494" lon="2.18475">
        <ele>98.1</ele>
        <time>2023-01-18T13:22:14Z</time>
      </trkpt>
      <trkpt lat="49.75493" lon="2.18478">
        <ele>98.1</ele>
        <time>2023-01-18T13:22:15Z</time>
      </trkpt>
      <trkpt lat="49.75492" lon="2.18479">
        <ele>98.1</ele>
        <time>2023-01-18T13:22:16Z</time>
      </trkpt>
      <trkpt lat="49.75492" lon="2.1848">
        <ele>98.1</ele>
        <time>2023-01-18T13:22:17Z</time>
      </trkpt>
      <trkpt lat="49.75491" lon="2.18482">
        <ele>98.1</ele>
        <time>2023-01-18T13:22:18Z</time>
      </trkpt>
      <trkpt lat="49.7549" lon="2.18483">
        <ele>98.1</ele>
        <time>2023-01-18T13:22:19Z</time>
      </trkpt>
      <trkpt lat="49.75489" lon="2.18486">
        <ele>98.1</ele>
        <time>2023-01-18T13:22:21Z</time>
      </trkpt>
      <trkpt lat="49.75488" lon="2.18487">
        <ele>98.1</ele>
        <time>2023-01-18T13:22:22Z</time>
      </trkpt>
      <trkpt lat="49.75488" lon="2.18488">
        <ele>98.1</ele>
        <time>2023-01-18T13:22:23Z</time>
      </trkpt>
      <trkpt lat="49.75486" lon="2.1849">
        <ele>98</ele>
        <time>2023-01-18T13:22:24Z</time>
      </trkpt>
      <trkpt lat="49.75486" lon="2.18491">
        <ele>98</ele>
        <time>2023-01-18T13:22:25Z</time>
      </trkpt>
      <trkpt lat="49.75484" lon="2.18494">
        <ele>98</ele>
        <time>2023-01-18T13:22:26Z</time>
      </trkpt>
      <trkpt lat="49.75483" lon="2.18495">
        <ele>98</ele>
        <time>2023-01-18T13:22:27Z</time>
      </trkpt>
      <trkpt lat="49.75483" lon="2.18496">
        <ele>98</ele>
        <time>2023-01-18T13:22:28Z</time>
      </trkpt>
      <trkpt lat="49.75482" lon="2.18497">
        <ele>98</ele>
        <time>2023-01-18T13:22:29Z</time>
      </trkpt>
      <trkpt lat="49.75482" lon="2.18498">
        <ele>98</ele>
        <time>2023-01-18T13:22:30Z</time>
      </trkpt>
      <trkpt lat="49.75481" lon="2.185">
        <ele>97.9</ele>
        <time>2023-01-18T13:22:32Z</time>
      </trkpt>
      <trkpt lat="49.7548" lon="2.18501">
        <ele>97.9</ele>
        <time>2023-01-18T13:22:33Z</time>
      </trkpt>
      <trkpt lat="49.7548" lon="2.18503">
        <ele>97.9</ele>
        <time>2023-01-18T13:22:34Z</time>
      </trkpt>
      <trkpt lat="49.75479" lon="2.18504">
        <ele>97.9</ele>
        <time>2023-01-18T13:22:35Z</time>
      </trkpt>
      <trkpt lat="49.75479" lon="2.18506">
        <ele>97.9</ele>
        <time>2023-01-18T13:22:36Z</time>
      </trkpt>
      <trkpt lat="49.75478" lon="2.18508">
        <ele>97.8</ele>
        <time>2023-01-18T13:22:37Z</time>
      </trkpt>
      <trkpt lat="49.75477" lon="2.18511">
        <ele>97.8</ele>
        <time>2023-01-18T13:22:38Z</time>
      </trkpt>
      <trkpt lat="49.75476" lon="2.18512">
        <ele>97.8</ele>
        <time>2023-01-18T13:22:39Z</time>
      </trkpt>
      <trkpt lat="49.75476" lon="2.18514">
        <ele>97.8</ele>
        <time>2023-01-18T13:22:40Z</time>
      </trkpt>
      <trkpt lat="49.75475" lon="2.18516">
        <ele>97.7</ele>
        <time>2023-01-18T13:22:42Z</time>
      </trkpt>
      <trkpt lat="49.75475" lon="2.18517">
        <ele>97.7</ele>
        <time>2023-01-18T13:22:43Z</time>
      </trkpt>
      <trkpt lat="49.75474" lon="2.18519">
        <ele>97.7</ele>
        <time>2023-01-18T13:22:44Z</time>
      </trkpt>
      <trkpt lat="49.75473" lon="2.18521">
        <ele>97.7</ele>
        <time>2023-01-18T13:22:45Z</time>
      </trkpt>
      <trkpt lat="49.75473" lon="2.18522">
        <ele>97.6</ele>
        <time>2023-01-18T13:22:46Z</time>
      </trkpt>
      <trkpt lat="49.75472" lon="2.18524">
        <ele>97.6</ele>
        <time>2023-01-18T13:22:47Z</time>
      </trkpt>
      <trkpt lat="49.75471" lon="2.18527">
        <ele>97.6</ele>
        <time>2023-01-18T13:22:48Z</time>
      </trkpt>
      <trkpt lat="49.7547" lon="2.18528">
        <ele>97.6</ele>
        <time>2023-01-18T13:22:49Z</time>
      </trkpt>
      <trkpt lat="49.75469" lon="2.1853">
        <ele>97.5</ele>
        <time>2023-01-18T13:22:51Z</time>
      </trkpt>
      <trkpt lat="49.75468" lon="2.18531">
        <ele>97.5</ele>
        <time>2023-01-18T13:22:52Z</time>
      </trkpt>
      <trkpt lat="49.75468" lon="2.18532">
        <ele>97.5</ele>
        <time>2023-01-18T13:22:53Z</time>
      </trkpt>
      <trkpt lat="49.75466" lon="2.18535">
        <ele>97.4</ele>
        <time>2023-01-18T13:22:54Z</time>
      </trkpt>
      <trkpt lat="49.75466" lon="2.18536">
        <ele>97.4</ele>
        <time>2023-01-18T13:22:55Z</time>
      </trkpt>
      <trkpt lat="49.75465" lon="2.18537">
        <ele>97.4</ele>
        <time>2023-01-18T13:22:56Z</time>
      </trkpt>
      <trkpt lat="49.75465" lon="2.18538">
        <ele>97.3</ele>
        <time>2023-01-18T13:22:58Z</time>
      </trkpt>
      <trkpt lat="49.75464" lon="2.1854">
        <ele>97.3</ele>
        <time>2023-01-18T13:22:59Z</time>
      </trkpt>
      <trkpt lat="49.75463" lon="2.18541">
        <ele>97.3</ele>
        <time>2023-01-18T13:23:00Z</time>
      </trkpt>
      <trkpt lat="49.75463" lon="2.18542">
        <ele>97.3</ele>
        <time>2023-01-18T13:23:01Z</time>
      </trkpt>
      <trkpt lat="49.75462" lon="2.18544">
        <ele>97.2</ele>
        <time>2023-01-18T13:23:02Z</time>
      </trkpt>
      <trkpt lat="49.75461" lon="2.18546">
        <ele>97.2</ele>
        <time>2023-01-18T13:23:03Z</time>
      </trkpt>
      <trkpt lat="49.7546" lon="2.18547">
        <ele>97.1</ele>
        <time>2023-01-18T13:23:04Z</time>
      </trkpt>
      <trkpt lat="49.75459" lon="2.1855">
        <ele>97.1</ele>
        <time>2023-01-18T13:23:06Z</time>
      </trkpt>
      <trkpt lat="49.75458" lon="2.18551">
        <ele>97.1</ele>
        <time>2023-01-18T13:23:07Z</time>
      </trkpt>
      <trkpt lat="49.75458" lon="2.18552">
        <ele>97.1</ele>
        <time>2023-01-18T13:23:08Z</time>
      </trkpt>
      <trkpt lat="49.75456" lon="2.18555">
        <ele>97</ele>
        <time>2023-01-18T13:23:09Z</time>
      </trkpt>
      <trkpt lat="49.75456" lon="2.18556">
        <ele>97</ele>
        <time>2023-01-18T13:23:10Z</time>
      </trkpt>
      <trkpt lat="49.75456" lon="2.18557">
        <ele>97</ele>
        <time>2023-01-18T13:23:11Z</time>
      </trkpt>
      <trkpt lat="49.75455" lon="2.18558">
        <ele>96.9</ele>
        <time>2023-01-18T13:23:13Z</time>
      </trkpt>
      <trkpt lat="49.75454" lon="2.18561">
        <ele>96.9</ele>
        <time>2023-01-18T13:23:14Z</time>
      </trkpt>
      <trkpt lat="49.75454" lon="2.18562">
        <ele>96.9</ele>
        <time>2023-01-18T13:23:15Z</time>
      </trkpt>
      <trkpt lat="49.75453" lon="2.18563">
        <ele>96.8</ele>
        <time>2023-01-18T13:23:16Z</time>
      </trkpt>
      <trkpt lat="49.75453" lon="2.18565">
        <ele>96.8</ele>
        <time>2023-01-18T13:23:17Z</time>
      </trkpt>
      <trkpt lat="49.75452" lon="2.18568">
        <ele>96.7</ele>
        <time>2023-01-18T13:23:18Z</time>
      </trkpt>
      <trkpt lat="49.75451" lon="2.1857">
        <ele>96.7</ele>
        <time>2023-01-18T13:23:20Z</time>
      </trkpt>
      <trkpt lat="49.75451" lon="2.18571">
        <ele>96.7</ele>
        <time>2023-01-18T13:23:21Z</time>
      </trkpt>
      <trkpt lat="49.7545" lon="2.18573">
        <ele>96.7</ele>
        <time>2023-01-18T13:23:22Z</time>
      </trkpt>
      <trkpt lat="49.75449" lon="2.18575">
        <ele>96.6</ele>
        <time>2023-01-18T13:23:23Z</time>
      </trkpt>
      <trkpt lat="49.75449" lon="2.18576">
        <ele>96.6</ele>
        <time>2023-01-18T13:23:24Z</time>
      </trkpt>
      <trkpt lat="49.75448" lon="2.18577">
        <ele>96.6</ele>
        <time>2023-01-18T13:23:25Z</time>
      </trkpt>
      <trkpt lat="49.75447" lon="2.18579">
        <ele>96.6</ele>
        <time>2023-01-18T13:23:26Z</time>
      </trkpt>
      <trkpt lat="49.75447" lon="2.18581">
        <ele>96.5</ele>
        <time>2023-01-18T13:23:27Z</time>
      </trkpt>
      <trkpt lat="49.75446" lon="2.18582">
        <ele>96.5</ele>
        <time>2023-01-18T13:23:28Z</time>
      </trkpt>
      <trkpt lat="49.75445" lon="2.18585">
        <ele>96.5</ele>
        <time>2023-01-18T13:23:30Z</time>
      </trkpt>
      <trkpt lat="49.75443" lon="2.18587">
        <ele>96.5</ele>
        <time>2023-01-18T13:23:31Z</time>
      </trkpt>
      <trkpt lat="49.75443" lon="2.18588">
        <ele>96.5</ele>
        <time>2023-01-18T13:23:32Z</time>
      </trkpt>
      <trkpt lat="49.75442" lon="2.18589">
        <ele>96.4</ele>
        <time>2023-01-18T13:23:33Z</time>
      </trkpt>
      <trkpt lat="49.75441" lon="2.18591">
        <ele>96.4</ele>
        <time>2023-01-18T13:23:34Z</time>
      </trkpt>
      <trkpt lat="49.7544" lon="2.18593">
        <ele>96.4</ele>
        <time>2023-01-18T13:23:35Z</time>
      </trkpt>
      <trkpt lat="49.75439" lon="2.18594">
        <ele>96.4</ele>
        <time>2023-01-18T13:23:36Z</time>
      </trkpt>
      <trkpt lat="49.75439" lon="2.18595">
        <ele>96.4</ele>
        <time>2023-01-18T13:23:37Z</time>
      </trkpt>
      <trkpt lat="49.75438" lon="2.18597">
        <ele>96.4</ele>
        <time>2023-01-18T13:23:39Z</time>
      </trkpt>
      <trkpt lat="49.75436" lon="2.186">
        <ele>96.4</ele>
        <time>2023-01-18T13:23:40Z</time>
      </trkpt>
      <trkpt lat="49.75436" lon="2.18601">
        <ele>96.4</ele>
        <time>2023-01-18T13:23:41Z</time>
      </trkpt>
      <trkpt lat="49.75435" lon="2.18602">
        <ele>96.4</ele>
        <time>2023-01-18T13:23:42Z</time>
      </trkpt>
      <trkpt lat="49.75435" lon="2.18604">
        <ele>96.4</ele>
        <time>2023-01-18T13:23:43Z</time>
      </trkpt>
      <trkpt lat="49.75434" lon="2.18606">
        <ele>96.3</ele>
        <time>2023-01-18T13:23:44Z</time>
      </trkpt>
      <trkpt lat="49.75432" lon="2.18609">
        <ele>96.3</ele>
        <time>2023-01-18T13:23:46Z</time>
      </trkpt>
      <trkpt lat="49.75432" lon="2.1861">
        <ele>96.3</ele>
        <time>2023-01-18T13:23:47Z</time>
      </trkpt>
      <trkpt lat="49.75431" lon="2.18611">
        <ele>96.3</ele>
        <time>2023-01-18T13:23:48Z</time>
      </trkpt>
      <trkpt lat="49.7543" lon="2.18614">
        <ele>96.3</ele>
        <time>2023-01-18T13:23:50Z</time>
      </trkpt>
      <trkpt lat="49.7543" lon="2.18615">
        <ele>96.3</ele>
        <time>2023-01-18T13:23:51Z</time>
      </trkpt>
      <trkpt lat="49.75429" lon="2.18616">
        <ele>96.3</ele>
        <time>2023-01-18T13:23:52Z</time>
      </trkpt>
      <trkpt lat="49.75429" lon="2.18617">
        <ele>96.3</ele>
        <time>2023-01-18T13:23:53Z</time>
      </trkpt>
      <trkpt lat="49.75427" lon="2.18619">
        <ele>96.3</ele>
        <time>2023-01-18T13:23:54Z</time>
      </trkpt>
      <trkpt lat="49.75427" lon="2.1862">
        <ele>96.3</ele>
        <time>2023-01-18T13:23:55Z</time>
      </trkpt>
      <trkpt lat="49.75426" lon="2.18622">
        <ele>96.4</ele>
        <time>2023-01-18T13:23:56Z</time>
      </trkpt>
      <trkpt lat="49.75425" lon="2.18623">
        <ele>96.4</ele>
        <time>2023-01-18T13:23:57Z</time>
      </trkpt>
      <trkpt lat="49.75424" lon="2.18626">
        <ele>96.4</ele>
        <time>2023-01-18T13:23:58Z</time>
      </trkpt>
      <trkpt lat="49.75423" lon="2.18627">
        <ele>96.4</ele>
        <time>2023-01-18T13:23:59Z</time>
      </trkpt>
      <trkpt lat="49.75422" lon="2.18629">
        <ele>96.4</ele>
        <time>2023-01-18T13:24:01Z</time>
      </trkpt>
      <trkpt lat="49.75422" lon="2.1863">
        <ele>96.4</ele>
        <time>2023-01-18T13:24:02Z</time>
      </trkpt>
      <trkpt lat="49.75421" lon="2.18631">
        <ele>96.4</ele>
        <time>2023-01-18T13:24:03Z</time>
      </trkpt>
      <trkpt lat="49.75421" lon="2.18633">
        <ele>96.4</ele>
        <time>2023-01-18T13:24:04Z</time>
      </trkpt>
      <trkpt lat="49.7542" lon="2.18634">
        <ele>96.4</ele>
        <time>2023-01-18T13:24:05Z</time>
      </trkpt>
      <trkpt lat="49.75419" lon="2.18635">
        <ele>96.4</ele>
        <time>2023-01-18T13:24:06Z</time>
      </trkpt>
      <trkpt lat="49.75419" lon="2.18637">
        <ele>96.4</ele>
        <time>2023-01-18T13:24:07Z</time>
      </trkpt>
      <trkpt lat="49.75418" lon="2.18639">
        <ele>96.5</ele>
        <time>2023-01-18T13:24:08Z</time>
      </trkpt>
      <trkpt lat="49.75417" lon="2.18641">
        <ele>96.5</ele>
        <time>2023-01-18T13:24:10Z</time>
      </trkpt>
      <trkpt lat="49.75417" lon="2.18642">
        <ele>96.5</ele>
        <time>2023-01-18T13:24:11Z</time>
      </trkpt>
      <trkpt lat="49.75416" lon="2.18644">
        <ele>96.5</ele>
        <time>2023-01-18T13:24:12Z</time>
      </trkpt>
      <trkpt lat="49.75415" lon="2.18645">
        <ele>96.5</ele>
        <time>2023-01-18T13:24:13Z</time>
      </trkpt>
      <trkpt lat="49.75414" lon="2.18648">
        <ele>96.6</ele>
        <time>2023-01-18T13:24:14Z</time>
      </trkpt>
      <trkpt lat="49.75413" lon="2.18649">
        <ele>96.6</ele>
        <time>2023-01-18T13:24:15Z</time>
      </trkpt>
      <trkpt lat="49.75412" lon="2.18651">
        <ele>96.6</ele>
        <time>2023-01-18T13:24:16Z</time>
      </trkpt>
      <trkpt lat="49.75412" lon="2.18653">
        <ele>96.6</ele>
        <time>2023-01-18T13:24:17Z</time>
      </trkpt>
      <trkpt lat="49.75411" lon="2.18655">
        <ele>96.6</ele>
        <time>2023-01-18T13:24:19Z</time>
      </trkpt>
      <trkpt lat="49.7541" lon="2.18657">
        <ele>96.7</ele>
        <time>2023-01-18T13:24:20Z</time>
      </trkpt>
      <trkpt lat="49.75409" lon="2.18658">
        <ele>96.7</ele>
        <time>2023-01-18T13:24:21Z</time>
      </trkpt>
      <trkpt lat="49.75407" lon="2.18661">
        <ele>96.7</ele>
        <time>2023-01-18T13:24:22Z</time>
      </trkpt>
      <trkpt lat="49.75407" lon="2.18662">
        <ele>96.7</ele>
        <time>2023-01-18T13:24:23Z</time>
      </trkpt>
      <trkpt lat="49.75406" lon="2.18663">
        <ele>96.8</ele>
        <time>2023-01-18T13:24:24Z</time>
      </trkpt>
      <trkpt lat="49.75405" lon="2.18665">
        <ele>96.8</ele>
        <time>2023-01-18T13:24:25Z</time>
      </trkpt>
      <trkpt lat="49.75404" lon="2.18666">
        <ele>96.8</ele>
        <time>2023-01-18T13:24:26Z</time>
      </trkpt>
      <trkpt lat="49.75404" lon="2.18667">
        <ele>96.8</ele>
        <time>2023-01-18T13:24:27Z</time>
      </trkpt>
      <trkpt lat="49.75403" lon="2.18669">
        <ele>96.8</ele>
        <time>2023-01-18T13:24:29Z</time>
      </trkpt>
      <trkpt lat="49.75402" lon="2.18671">
        <ele>96.9</ele>
        <time>2023-01-18T13:24:30Z</time>
      </trkpt>
      <trkpt lat="49.75401" lon="2.18672">
        <ele>96.9</ele>
        <time>2023-01-18T13:24:31Z</time>
      </trkpt>
      <trkpt lat="49.75401" lon="2.18674">
        <ele>96.9</ele>
        <time>2023-01-18T13:24:32Z</time>
      </trkpt>
      <trkpt lat="49.75401" lon="2.18675">
        <ele>96.9</ele>
        <time>2023-01-18T13:24:33Z</time>
      </trkpt>
      <trkpt lat="49.75399" lon="2.18678">
        <ele>97</ele>
        <time>2023-01-18T13:24:34Z</time>
      </trkpt>
      <trkpt lat="49.75399" lon="2.18679">
        <ele>97</ele>
        <time>2023-01-18T13:24:35Z</time>
      </trkpt>
      <trkpt lat="49.75398" lon="2.1868">
        <ele>97</ele>
        <time>2023-01-18T13:24:36Z</time>
      </trkpt>
      <trkpt lat="49.75397" lon="2.18681">
        <ele>97</ele>
        <time>2023-01-18T13:24:37Z</time>
      </trkpt>
      <trkpt lat="49.75397" lon="2.18682">
        <ele>97</ele>
        <time>2023-01-18T13:24:38Z</time>
      </trkpt>
      <trkpt lat="49.75396" lon="2.18684">
        <ele>97.1</ele>
        <time>2023-01-18T13:24:40Z</time>
      </trkpt>
      <trkpt lat="49.75395" lon="2.18686">
        <ele>97.1</ele>
        <time>2023-01-18T13:24:41Z</time>
      </trkpt>
      <trkpt lat="49.75394" lon="2.18687">
        <ele>97.1</ele>
        <time>2023-01-18T13:24:42Z</time>
      </trkpt>
      <trkpt lat="49.75393" lon="2.18688">
        <ele>97.1</ele>
        <time>2023-01-18T13:24:43Z</time>
      </trkpt>
      <trkpt lat="49.75392" lon="2.1869">
        <ele>97.2</ele>
        <time>2023-01-18T13:24:44Z</time>
      </trkpt>
      <trkpt lat="49.75392" lon="2.18691">
        <ele>97.2</ele>
        <time>2023-01-18T13:24:46Z</time>
      </trkpt>
      <trkpt lat="49.75391" lon="2.18692">
        <ele>97.2</ele>
        <time>2023-01-18T13:24:47Z</time>
      </trkpt>
      <trkpt lat="49.7539" lon="2.18694">
        <ele>97.2</ele>
        <time>2023-01-18T13:24:48Z</time>
      </trkpt>
      <trkpt lat="49.75389" lon="2.18696">
        <ele>97.3</ele>
        <time>2023-01-18T13:24:49Z</time>
      </trkpt>
      <trkpt lat="49.75388" lon="2.18698">
        <ele>97.3</ele>
        <time>2023-01-18T13:24:50Z</time>
      </trkpt>
      <trkpt lat="49.75388" lon="2.18699">
        <ele>97.3</ele>
        <time>2023-01-18T13:24:51Z</time>
      </trkpt>
      <trkpt lat="49.75387" lon="2.18701">
        <ele>97.3</ele>
        <time>2023-01-18T13:24:52Z</time>
      </trkpt>
      <trkpt lat="49.75387" lon="2.18702">
        <ele>97.4</ele>
        <time>2023-01-18T13:24:53Z</time>
      </trkpt>
      <trkpt lat="49.75386" lon="2.18704">
        <ele>97.4</ele>
        <time>2023-01-18T13:24:54Z</time>
      </trkpt>
      <trkpt lat="49.75385" lon="2.18705">
        <ele>97.4</ele>
        <time>2023-01-18T13:24:56Z</time>
      </trkpt>
      <trkpt lat="49.75384" lon="2.18706">
        <ele>97.4</ele>
        <time>2023-01-18T13:24:57Z</time>
      </trkpt>
      <trkpt lat="49.75383" lon="2.18708">
        <ele>97.5</ele>
        <time>2023-01-18T13:24:58Z</time>
      </trkpt>
      <trkpt lat="49.75382" lon="2.18709">
        <ele>97.5</ele>
        <time>2023-01-18T13:24:59Z</time>
      </trkpt>
      <trkpt lat="49.75381" lon="2.1871">
        <ele>97.5</ele>
        <time>2023-01-18T13:25:00Z</time>
      </trkpt>
      <trkpt lat="49.75381" lon="2.18711">
        <ele>97.5</ele>
        <time>2023-01-18T13:25:01Z</time>
      </trkpt>
      <trkpt lat="49.7538" lon="2.18712">
        <ele>97.5</ele>
        <time>2023-01-18T13:25:02Z</time>
      </trkpt>
      <trkpt lat="49.75379" lon="2.18713">
        <ele>97.5</ele>
        <time>2023-01-18T13:25:03Z</time>
      </trkpt>
      <trkpt lat="49.75378" lon="2.18715">
        <ele>97.6</ele>
        <time>2023-01-18T13:25:04Z</time>
      </trkpt>
      <trkpt lat="49.75378" lon="2.18716">
        <ele>97.6</ele>
        <time>2023-01-18T13:25:06Z</time>
      </trkpt>
      <trkpt lat="49.75377" lon="2.18717">
        <ele>97.6</ele>
        <time>2023-01-18T13:25:07Z</time>
      </trkpt>
      <trkpt lat="49.75376" lon="2.18718">
        <ele>97.6</ele>
        <time>2023-01-18T13:25:08Z</time>
      </trkpt>
      <trkpt lat="49.75375" lon="2.1872">
        <ele>97.6</ele>
        <time>2023-01-18T13:25:09Z</time>
      </trkpt>
      <trkpt lat="49.75374" lon="2.18722">
        <ele>97.6</ele>
        <time>2023-01-18T13:25:10Z</time>
      </trkpt>
      <trkpt lat="49.75374" lon="2.18723">
        <ele>97.6</ele>
        <time>2023-01-18T13:25:11Z</time>
      </trkpt>
      <trkpt lat="49.75373" lon="2.18725">
        <ele>97.6</ele>
        <time>2023-01-18T13:25:12Z</time>
      </trkpt>
      <trkpt lat="49.75373" lon="2.18726">
        <ele>97.7</ele>
        <time>2023-01-18T13:25:13Z</time>
      </trkpt>
      <trkpt lat="49.75371" lon="2.1873">
        <ele>97.7</ele>
        <time>2023-01-18T13:25:14Z</time>
      </trkpt>
      <trkpt lat="49.75371" lon="2.18731">
        <ele>97.7</ele>
        <time>2023-01-18T13:25:16Z</time>
      </trkpt>
      <trkpt lat="49.7537" lon="2.18732">
        <ele>97.7</ele>
        <time>2023-01-18T13:25:17Z</time>
      </trkpt>
      <trkpt lat="49.75369" lon="2.18735">
        <ele>97.7</ele>
        <time>2023-01-18T13:25:18Z</time>
      </trkpt>
      <trkpt lat="49.75369" lon="2.18736">
        <ele>97.7</ele>
        <time>2023-01-18T13:25:19Z</time>
      </trkpt>
      <trkpt lat="49.75368" lon="2.18737">
        <ele>97.7</ele>
        <time>2023-01-18T13:25:20Z</time>
      </trkpt>
      <trkpt lat="49.75368" lon="2.18739">
        <ele>97.7</ele>
        <time>2023-01-18T13:25:22Z</time>
      </trkpt>
      <trkpt lat="49.75367" lon="2.1874">
        <ele>97.7</ele>
        <time>2023-01-18T13:25:23Z</time>
      </trkpt>
      <trkpt lat="49.75367" lon="2.18742">
        <ele>97.7</ele>
        <time>2023-01-18T13:25:24Z</time>
      </trkpt>
      <trkpt lat="49.75367" lon="2.18743">
        <ele>97.7</ele>
        <time>2023-01-18T13:25:25Z</time>
      </trkpt>
      <trkpt lat="49.75367" lon="2.18743">
        <ele>97.7</ele>
        <time>2023-01-18T13:25:26Z</time>
      </trkpt>
      <trkpt lat="49.75367" lon="2.18744">
        <ele>97.7</ele>
        <time>2023-01-18T13:25:27Z</time>
      </trkpt>
      <trkpt lat="49.75367" lon="2.18744">
        <ele>97.7</ele>
        <time>2023-01-18T13:25:28Z</time>
      </trkpt>
      <trkpt lat="49.75367" lon="2.18744">
        <ele>97.7</ele>
        <time>2023-01-18T13:25:30Z</time>
      </trkpt>
      <trkpt lat="49.75367" lon="2.18744">
        <ele>97.7</ele>
        <time>2023-01-18T13:25:32Z</time>
      </trkpt>
      <trkpt lat="49.75367" lon="2.18744">
        <ele>97.7</ele>
        <time>2023-01-18T13:25:33Z</time>
      </trkpt>
      <trkpt lat="49.75367" lon="2.18744">
        <ele>97.7</ele>
        <time>2023-01-18T13:25:34Z</time>
      </trkpt>
      <trkpt lat="49.75367" lon="2.18744">
        <ele>97.7</ele>
        <time>2023-01-18T13:25:36Z</time>
      </trkpt>
      <trkpt lat="49.75367" lon="2.18744">
        <ele>97.7</ele>
        <time>2023-01-18T13:25:38Z</time>
      </trkpt>
      <trkpt lat="49.75367" lon="2.18745">
        <ele>97.7</ele>
        <time>2023-01-18T13:25:39Z</time>
      </trkpt>
      <trkpt lat="49.75368" lon="2.18745">
        <ele>97.7</ele>
        <time>2023-01-18T13:25:40Z</time>
      </trkpt>
      <trkpt lat="49.75368" lon="2.18745">
        <ele>97.7</ele>
        <time>2023-01-18T13:25:42Z</time>
      </trkpt>
      <trkpt lat="49.75368" lon="2.18745">
        <ele>97.7</ele>
        <time>2023-01-18T13:25:43Z</time>
      </trkpt>
      <trkpt lat="49.75368" lon="2.18745">
        <ele>97.7</ele>
        <time>2023-01-18T13:25:44Z</time>
      </trkpt>
      <trkpt lat="49.75368" lon="2.18745">
        <ele>97.7</ele>
        <time>2023-01-18T13:25:45Z</time>
      </trkpt>
      <trkpt lat="49.75368" lon="2.18745">
        <ele>97.5</ele>
        <time>2023-01-18T13:25:46Z</time>
      </trkpt>
      <trkpt lat="49.75368" lon="2.18745">
        <ele>97.5</ele>
        <time>2023-01-18T13:25:47Z</time>
      </trkpt>
      <trkpt lat="49.75368" lon="2.18746">
        <ele>97.5</ele>
        <time>2023-01-18T13:25:48Z</time>
      </trkpt>
      <trkpt lat="49.75368" lon="2.18746">
        <ele>97.5</ele>
        <time>2023-01-18T13:25:49Z</time>
      </trkpt>
      <trkpt lat="49.75368" lon="2.18746">
        <ele>97.5</ele>
        <time>2023-01-18T13:25:50Z</time>
      </trkpt>
      <trkpt lat="49.75368" lon="2.18746">
        <ele>97.5</ele>
        <time>2023-01-18T13:25:51Z</time>
      </trkpt>
      <trkpt lat="49.75368" lon="2.18746">
        <ele>97.5</ele>
        <time>2023-01-18T13:25:52Z</time>
      </trkpt>
      <trkpt lat="49.75368" lon="2.18746">
        <ele>97.5</ele>
        <time>2023-01-18T13:25:53Z</time>
      </trkpt>
      <trkpt lat="49.75368" lon="2.18746">
        <ele>97.5</ele>
        <time>2023-01-18T13:25:54Z</time>
      </trkpt>
      <trkpt lat="49.75368" lon="2.18747">
        <ele>97.5</ele>
        <time>2023-01-18T13:25:55Z</time>
      </trkpt>
      <trkpt lat="49.75369" lon="2.18747">
        <ele>97.5</ele>
        <time>2023-01-18T13:25:56Z</time>
      </trkpt>
      <trkpt lat="49.75369" lon="2.18747">
        <ele>97.5</ele>
        <time>2023-01-18T13:25:57Z</time>
      </trkpt>
      <trkpt lat="49.75369" lon="2.18747">
        <ele>97.5</ele>
        <time>2023-01-18T13:25:58Z</time>
      </trkpt>
      <trkpt lat="49.75369" lon="2.18747">
        <ele>97.5</ele>
        <time>2023-01-18T13:25:59Z</time>
      </trkpt>
      <trkpt lat="49.75369" lon="2.18747">
        <ele>97.5</ele>
        <time>2023-01-18T13:26:00Z</time>
      </trkpt>
      <trkpt lat="49.75369" lon="2.18747">
        <ele>97.4</ele>
        <time>2023-01-18T13:26:01Z</time>
      </trkpt>
      <trkpt lat="49.75369" lon="2.18747">
        <ele>97.4</ele>
        <time>2023-01-18T13:26:02Z</time>
      </trkpt>
      <trkpt lat="49.75369" lon="2.18748">
        <ele>97.4</ele>
        <time>2023-01-18T13:26:03Z</time>
      </trkpt>
      <trkpt lat="49.75369" lon="2.18748">
        <ele>97.4</ele>
        <time>2023-01-18T13:26:04Z</time>
      </trkpt>
      <trkpt lat="49.75369" lon="2.18748">
        <ele>97.4</ele>
        <time>2023-01-18T13:26:05Z</time>
      </trkpt>
      <trkpt lat="49.75369" lon="2.18748">
        <ele>97.4</ele>
        <time>2023-01-18T13:26:06Z</time>
      </trkpt>
      <trkpt lat="49.75369" lon="2.18748">
        <ele>97.4</ele>
        <time>2023-01-18T13:26:07Z</time>
      </trkpt>
      <trkpt lat="49.75369" lon="2.18748">
        <ele>97.4</ele>
        <time>2023-01-18T13:26:08Z</time>
      </trkpt>
      <trkpt lat="49.75369" lon="2.18748">
        <ele>97.4</ele>
        <time>2023-01-18T13:26:09Z</time>
      </trkpt>
      <trkpt lat="49.7537" lon="2.18748">
        <ele>97.4</ele>
        <time>2023-01-18T13:26:10Z</time>
      </trkpt>
      <trkpt lat="49.7537" lon="2.18749">
        <ele>97.4</ele>
        <time>2023-01-18T13:26:11Z</time>
      </trkpt>
      <trkpt lat="49.7537" lon="2.18749">
        <ele>97.4</ele>
        <time>2023-01-18T13:26:12Z</time>
      </trkpt>
      <trkpt lat="49.7537" lon="2.18749">
        <ele>97.4</ele>
        <time>2023-01-18T13:26:13Z</time>
      </trkpt>
      <trkpt lat="49.7537" lon="2.18749">
        <ele>97.4</ele>
        <time>2023-01-18T13:26:14Z</time>
      </trkpt>
      <trkpt lat="49.7537" lon="2.18749">
        <ele>97.4</ele>
        <time>2023-01-18T13:26:15Z</time>
      </trkpt>
      <trkpt lat="49.7537" lon="2.18749">
        <ele>97.4</ele>
        <time>2023-01-18T13:26:16Z</time>
      </trkpt>
      <trkpt lat="49.7537" lon="2.18749">
        <ele>97.3</ele>
        <time>2023-01-18T13:26:17Z</time>
      </trkpt>
      <trkpt lat="49.7537" lon="2.18749">
        <ele>97.3</ele>
        <time>2023-01-18T13:26:18Z</time>
      </trkpt>
      <trkpt lat="49.7537" lon="2.1875">
        <ele>97.3</ele>
        <time>2023-01-18T13:26:19Z</time>
      </trkpt>
      <trkpt lat="49.7537" lon="2.1875">
        <ele>97.3</ele>
        <time>2023-01-18T13:26:20Z</time>
      </trkpt>
      <trkpt lat="49.7537" lon="2.1875">
        <ele>97.3</ele>
        <time>2023-01-18T13:26:21Z</time>
      </trkpt>
      <trkpt lat="49.7537" lon="2.1875">
        <ele>97.3</ele>
        <time>2023-01-18T13:26:22Z</time>
      </trkpt>
      <trkpt lat="49.7537" lon="2.1875">
        <ele>97.3</ele>
        <time>2023-01-18T13:26:23Z</time>
      </trkpt>
      <trkpt lat="49.75371" lon="2.1875">
        <ele>97.3</ele>
        <time>2023-01-18T13:26:24Z</time>
      </trkpt>
      <trkpt lat="49.75371" lon="2.1875">
        <ele>97.3</ele>
        <time>2023-01-18T13:26:25Z</time>
      </trkpt>
      <trkpt lat="49.75371" lon="2.1875">
        <ele>97.3</ele>
        <time>2023-01-18T13:26:27Z</time>
      </trkpt>
      <trkpt lat="49.75371" lon="2.18751">
        <ele>97.3</ele>
        <time>2023-01-18T13:26:28Z</time>
      </trkpt>
      <trkpt lat="49.75371" lon="2.18751">
        <ele>97.3</ele>
        <time>2023-01-18T13:26:29Z</time>
      </trkpt>
      <trkpt lat="49.75371" lon="2.18751">
        <ele>97.3</ele>
        <time>2023-01-18T13:26:30Z</time>
      </trkpt>
      <trkpt lat="49.75372" lon="2.18752">
        <ele>97.2</ele>
        <time>2023-01-18T13:26:31Z</time>
      </trkpt>
      <trkpt lat="49.75372" lon="2.18754">
        <ele>97.2</ele>
        <time>2023-01-18T13:26:32Z</time>
      </trkpt>
      <trkpt lat="49.75373" lon="2.18755">
        <ele>97.1</ele>
        <time>2023-01-18T13:26:33Z</time>
      </trkpt>
      <trkpt lat="49.75374" lon="2.18758">
        <ele>97</ele>
        <time>2023-01-18T13:26:35Z</time>
      </trkpt>
      <trkpt lat="49.75375" lon="2.18758">
        <ele>96.9</ele>
        <time>2023-01-18T13:26:36Z</time>
      </trkpt>
      <trkpt lat="49.75375" lon="2.18759">
        <ele>96.9</ele>
        <time>2023-01-18T13:26:37Z</time>
      </trkpt>
      <trkpt lat="49.75376" lon="2.1876">
        <ele>96.8</ele>
        <time>2023-01-18T13:26:38Z</time>
      </trkpt>
      <trkpt lat="49.75377" lon="2.18761">
        <ele>96.8</ele>
        <time>2023-01-18T13:26:39Z</time>
      </trkpt>
      <trkpt lat="49.75378" lon="2.18763">
        <ele>96.7</ele>
        <time>2023-01-18T13:26:40Z</time>
      </trkpt>
      <trkpt lat="49.75378" lon="2.18764">
        <ele>96.7</ele>
        <time>2023-01-18T13:26:41Z</time>
      </trkpt>
      <trkpt lat="49.75379" lon="2.18765">
        <ele>96.6</ele>
        <time>2023-01-18T13:26:42Z</time>
      </trkpt>
      <trkpt lat="49.7538" lon="2.18766">
        <ele>96.6</ele>
        <time>2023-01-18T13:26:44Z</time>
      </trkpt>
      <trkpt lat="49.75381" lon="2.18767">
        <ele>96.5</ele>
        <time>2023-01-18T13:26:45Z</time>
      </trkpt>
      <trkpt lat="49.75381" lon="2.18768">
        <ele>96.5</ele>
        <time>2023-01-18T13:26:46Z</time>
      </trkpt>
      <trkpt lat="49.75382" lon="2.18769">
        <ele>96.4</ele>
        <time>2023-01-18T13:26:47Z</time>
      </trkpt>
      <trkpt lat="49.75384" lon="2.18771">
        <ele>96.3</ele>
        <time>2023-01-18T13:26:48Z</time>
      </trkpt>
      <trkpt lat="49.75384" lon="2.18772">
        <ele>96.3</ele>
        <time>2023-01-18T13:26:49Z</time>
      </trkpt>
      <trkpt lat="49.75385" lon="2.18773">
        <ele>96.2</ele>
        <time>2023-01-18T13:26:50Z</time>
      </trkpt>
      <trkpt lat="49.75386" lon="2.18774">
        <ele>96.2</ele>
        <time>2023-01-18T13:26:51Z</time>
      </trkpt>
      <trkpt lat="49.75386" lon="2.18775">
        <ele>96.1</ele>
        <time>2023-01-18T13:26:52Z</time>
      </trkpt>
      <trkpt lat="49.75387" lon="2.18776">
        <ele>96</ele>
        <time>2023-01-18T13:26:54Z</time>
      </trkpt>
      <trkpt lat="49.75388" lon="2.18778">
        <ele>96</ele>
        <time>2023-01-18T13:26:55Z</time>
      </trkpt>
      <trkpt lat="49.75389" lon="2.18779">
        <ele>95.9</ele>
        <time>2023-01-18T13:26:56Z</time>
      </trkpt>
      <trkpt lat="49.7539" lon="2.1878">
        <ele>95.9</ele>
        <time>2023-01-18T13:26:57Z</time>
      </trkpt>
      <trkpt lat="49.75391" lon="2.18781">
        <ele>95.8</ele>
        <time>2023-01-18T13:26:58Z</time>
      </trkpt>
      <trkpt lat="49.75391" lon="2.18782">
        <ele>95.8</ele>
        <time>2023-01-18T13:26:59Z</time>
      </trkpt>
      <trkpt lat="49.75392" lon="2.18784">
        <ele>95.7</ele>
        <time>2023-01-18T13:27:00Z</time>
      </trkpt>
      <trkpt lat="49.75393" lon="2.18785">
        <ele>95.6</ele>
        <time>2023-01-18T13:27:01Z</time>
      </trkpt>
      <trkpt lat="49.75394" lon="2.18786">
        <ele>95.6</ele>
        <time>2023-01-18T13:27:02Z</time>
      </trkpt>
      <trkpt lat="49.75394" lon="2.18787">
        <ele>95.5</ele>
        <time>2023-01-18T13:27:03Z</time>
      </trkpt>
      <trkpt lat="49.75395" lon="2.18789">
        <ele>95.5</ele>
        <time>2023-01-18T13:27:04Z</time>
      </trkpt>
      <trkpt lat="49.75396" lon="2.1879">
        <ele>95.4</ele>
        <time>2023-01-18T13:27:06Z</time>
      </trkpt>
      <trkpt lat="49.75396" lon="2.18792">
        <ele>95.3</ele>
        <time>2023-01-18T13:27:07Z</time>
      </trkpt>
      <trkpt lat="49.75398" lon="2.18794">
        <ele>95.2</ele>
        <time>2023-01-18T13:27:08Z</time>
      </trkpt>
      <trkpt lat="49.75398" lon="2.18795">
        <ele>95.2</ele>
        <time>2023-01-18T13:27:09Z</time>
      </trkpt>
      <trkpt lat="49.75399" lon="2.18797">
        <ele>95.1</ele>
        <time>2023-01-18T13:27:10Z</time>
      </trkpt>
      <trkpt lat="49.754" lon="2.18799">
        <ele>95</ele>
        <time>2023-01-18T13:27:11Z</time>
      </trkpt>
      <trkpt lat="49.75401" lon="2.188">
        <ele>95</ele>
        <time>2023-01-18T13:27:12Z</time>
      </trkpt>
      <trkpt lat="49.75402" lon="2.18801">
        <ele>94.9</ele>
        <time>2023-01-18T13:27:13Z</time>
      </trkpt>
      <trkpt lat="49.75403" lon="2.18802">
        <ele>94.8</ele>
        <time>2023-01-18T13:27:15Z</time>
      </trkpt>
      <trkpt lat="49.75404" lon="2.18804">
        <ele>94.8</ele>
        <time>2023-01-18T13:27:16Z</time>
      </trkpt>
      <trkpt lat="49.75405" lon="2.18805">
        <ele>94.7</ele>
        <time>2023-01-18T13:27:17Z</time>
      </trkpt>
      <trkpt lat="49.75405" lon="2.18806">
        <ele>94.6</ele>
        <time>2023-01-18T13:27:18Z</time>
      </trkpt>
      <trkpt lat="49.75406" lon="2.18807">
        <ele>94.6</ele>
        <time>2023-01-18T13:27:19Z</time>
      </trkpt>
      <trkpt lat="49.75407" lon="2.18809">
        <ele>94.5</ele>
        <time>2023-01-18T13:27:20Z</time>
      </trkpt>
      <trkpt lat="49.75408" lon="2.1881">
        <ele>94.5</ele>
        <time>2023-01-18T13:27:21Z</time>
      </trkpt>
      <trkpt lat="49.75409" lon="2.18811">
        <ele>94.4</ele>
        <time>2023-01-18T13:27:22Z</time>
      </trkpt>
      <trkpt lat="49.7541" lon="2.18812">
        <ele>94.4</ele>
        <time>2023-01-18T13:27:23Z</time>
      </trkpt>
      <trkpt lat="49.7541" lon="2.18813">
        <ele>94.3</ele>
        <time>2023-01-18T13:27:24Z</time>
      </trkpt>
      <trkpt lat="49.75412" lon="2.18815">
        <ele>94.2</ele>
        <time>2023-01-18T13:27:26Z</time>
      </trkpt>
      <trkpt lat="49.75413" lon="2.18816">
        <ele>94.1</ele>
        <time>2023-01-18T13:27:27Z</time>
      </trkpt>
      <trkpt lat="49.75413" lon="2.18817">
        <ele>94.1</ele>
        <time>2023-01-18T13:27:28Z</time>
      </trkpt>
      <trkpt lat="49.75414" lon="2.18819">
        <ele>94</ele>
        <time>2023-01-18T13:27:29Z</time>
      </trkpt>
      <trkpt lat="49.75416" lon="2.18821">
        <ele>93.9</ele>
        <time>2023-01-18T13:27:30Z</time>
      </trkpt>
      <trkpt lat="49.75416" lon="2.18822">
        <ele>93.9</ele>
        <time>2023-01-18T13:27:31Z</time>
      </trkpt>
      <trkpt lat="49.75417" lon="2.18823">
        <ele>93.8</ele>
        <time>2023-01-18T13:27:32Z</time>
      </trkpt>
      <trkpt lat="49.75418" lon="2.18825">
        <ele>93.7</ele>
        <time>2023-01-18T13:27:33Z</time>
      </trkpt>
      <trkpt lat="49.75419" lon="2.18826">
        <ele>93.7</ele>
        <time>2023-01-18T13:27:34Z</time>
      </trkpt>
      <trkpt lat="49.75419" lon="2.18828">
        <ele>93.6</ele>
        <time>2023-01-18T13:27:35Z</time>
      </trkpt>
      <trkpt lat="49.7542" lon="2.18829">
        <ele>93.5</ele>
        <time>2023-01-18T13:27:36Z</time>
      </trkpt>
      <trkpt lat="49.75421" lon="2.18831">
        <ele>93.5</ele>
        <time>2023-01-18T13:27:38Z</time>
      </trkpt>
      <trkpt lat="49.75423" lon="2.18833">
        <ele>93.4</ele>
        <time>2023-01-18T13:27:39Z</time>
      </trkpt>
      <trkpt lat="49.75423" lon="2.18834">
        <ele>93.3</ele>
        <time>2023-01-18T13:27:40Z</time>
      </trkpt>
      <trkpt lat="49.75424" lon="2.18836">
        <ele>93.2</ele>
        <time>2023-01-18T13:27:41Z</time>
      </trkpt>
      <trkpt lat="49.75426" lon="2.18838">
        <ele>93.1</ele>
        <time>2023-01-18T13:27:42Z</time>
      </trkpt>
      <trkpt lat="49.75426" lon="2.18839">
        <ele>93.1</ele>
        <time>2023-01-18T13:27:43Z</time>
      </trkpt>
      <trkpt lat="49.75427" lon="2.1884">
        <ele>93</ele>
        <time>2023-01-18T13:27:44Z</time>
      </trkpt>
      <trkpt lat="49.75429" lon="2.18842">
        <ele>92.9</ele>
        <time>2023-01-18T13:27:45Z</time>
      </trkpt>
      <trkpt lat="49.75429" lon="2.18843">
        <ele>92.9</ele>
        <time>2023-01-18T13:27:47Z</time>
      </trkpt>
      <trkpt lat="49.7543" lon="2.18844">
        <ele>92.8</ele>
        <time>2023-01-18T13:27:48Z</time>
      </trkpt>
      <trkpt lat="49.75431" lon="2.18845">
        <ele>92.8</ele>
        <time>2023-01-18T13:27:49Z</time>
      </trkpt>
      <trkpt lat="49.75432" lon="2.18847">
        <ele>92.7</ele>
        <time>2023-01-18T13:27:50Z</time>
      </trkpt>
      <trkpt lat="49.75434" lon="2.18848">
        <ele>92.6</ele>
        <time>2023-01-18T13:27:51Z</time>
      </trkpt>
      <trkpt lat="49.75434" lon="2.18849">
        <ele>92.5</ele>
        <time>2023-01-18T13:27:52Z</time>
      </trkpt>
      <trkpt lat="49.75435" lon="2.1885">
        <ele>92.5</ele>
        <time>2023-01-18T13:27:54Z</time>
      </trkpt>
      <trkpt lat="49.75436" lon="2.18852">
        <ele>92.4</ele>
        <time>2023-01-18T13:27:55Z</time>
      </trkpt>
      <trkpt lat="49.75437" lon="2.18853">
        <ele>92.4</ele>
        <time>2023-01-18T13:27:56Z</time>
      </trkpt>
      <trkpt lat="49.75437" lon="2.18854">
        <ele>92.3</ele>
        <time>2023-01-18T13:27:57Z</time>
      </trkpt>
      <trkpt lat="49.75439" lon="2.18856">
        <ele>92.2</ele>
        <time>2023-01-18T13:27:58Z</time>
      </trkpt>
      <trkpt lat="49.7544" lon="2.18857">
        <ele>92.1</ele>
        <time>2023-01-18T13:27:59Z</time>
      </trkpt>
      <trkpt lat="49.75441" lon="2.18858">
        <ele>92.1</ele>
        <time>2023-01-18T13:28:00Z</time>
      </trkpt>
      <trkpt lat="49.75442" lon="2.1886">
        <ele>92</ele>
        <time>2023-01-18T13:28:01Z</time>
      </trkpt>
      <trkpt lat="49.75443" lon="2.18861">
        <ele>91.9</ele>
        <time>2023-01-18T13:28:02Z</time>
      </trkpt>
      <trkpt lat="49.75444" lon="2.18862">
        <ele>91.8</ele>
        <time>2023-01-18T13:28:04Z</time>
      </trkpt>
      <trkpt lat="49.75445" lon="2.18863">
        <ele>91.8</ele>
        <time>2023-01-18T13:28:06Z</time>
      </trkpt>
      <trkpt lat="49.75446" lon="2.18864">
        <ele>91.7</ele>
        <time>2023-01-18T13:28:07Z</time>
      </trkpt>
      <trkpt lat="49.75447" lon="2.18865">
        <ele>91.7</ele>
        <time>2023-01-18T13:28:08Z</time>
      </trkpt>
      <trkpt lat="49.75448" lon="2.18866">
        <ele>91.6</ele>
        <time>2023-01-18T13:28:09Z</time>
      </trkpt>
      <trkpt lat="49.75448" lon="2.18867">
        <ele>91.6</ele>
        <time>2023-01-18T13:28:10Z</time>
      </trkpt>
      <trkpt lat="49.75451" lon="2.1887">
        <ele>91.4</ele>
        <time>2023-01-18T13:28:11Z</time>
      </trkpt>
      <trkpt lat="49.75451" lon="2.18871">
        <ele>91.4</ele>
        <time>2023-01-18T13:28:13Z</time>
      </trkpt>
      <trkpt lat="49.75452" lon="2.18872">
        <ele>91.3</ele>
        <time>2023-01-18T13:28:14Z</time>
      </trkpt>
      <trkpt lat="49.75453" lon="2.18873">
        <ele>91.2</ele>
        <time>2023-01-18T13:28:15Z</time>
      </trkpt>
      <trkpt lat="49.75454" lon="2.18875">
        <ele>91.2</ele>
        <time>2023-01-18T13:28:16Z</time>
      </trkpt>
      <trkpt lat="49.75455" lon="2.18876">
        <ele>91.1</ele>
        <time>2023-01-18T13:28:17Z</time>
      </trkpt>
      <trkpt lat="49.75456" lon="2.18877">
        <ele>91</ele>
        <time>2023-01-18T13:28:18Z</time>
      </trkpt>
      <trkpt lat="49.75457" lon="2.18878">
        <ele>91</ele>
        <time>2023-01-18T13:28:19Z</time>
      </trkpt>
      <trkpt lat="49.75458" lon="2.1888">
        <ele>90.9</ele>
        <time>2023-01-18T13:28:20Z</time>
      </trkpt>
      <trkpt lat="49.75459" lon="2.18881">
        <ele>90.8</ele>
        <time>2023-01-18T13:28:22Z</time>
      </trkpt>
      <trkpt lat="49.7546" lon="2.18883">
        <ele>90.8</ele>
        <time>2023-01-18T13:28:23Z</time>
      </trkpt>
      <trkpt lat="49.75461" lon="2.18884">
        <ele>90.7</ele>
        <time>2023-01-18T13:28:24Z</time>
      </trkpt>
      <trkpt lat="49.75462" lon="2.18885">
        <ele>90.6</ele>
        <time>2023-01-18T13:28:25Z</time>
      </trkpt>
      <trkpt lat="49.75463" lon="2.18886">
        <ele>90.5</ele>
        <time>2023-01-18T13:28:26Z</time>
      </trkpt>
      <trkpt lat="49.75464" lon="2.18887">
        <ele>90.5</ele>
        <time>2023-01-18T13:28:27Z</time>
      </trkpt>
      <trkpt lat="49.75465" lon="2.18889">
        <ele>90.4</ele>
        <time>2023-01-18T13:28:28Z</time>
      </trkpt>
      <trkpt lat="49.75466" lon="2.1889">
        <ele>90.3</ele>
        <time>2023-01-18T13:28:30Z</time>
      </trkpt>
      <trkpt lat="49.75468" lon="2.18892">
        <ele>90.2</ele>
        <time>2023-01-18T13:28:31Z</time>
      </trkpt>
      <trkpt lat="49.75468" lon="2.18894">
        <ele>90.2</ele>
        <time>2023-01-18T13:28:32Z</time>
      </trkpt>
      <trkpt lat="49.75469" lon="2.18896">
        <ele>90.1</ele>
        <time>2023-01-18T13:28:33Z</time>
      </trkpt>
      <trkpt lat="49.7547" lon="2.18897">
        <ele>90</ele>
        <time>2023-01-18T13:28:34Z</time>
      </trkpt>
      <trkpt lat="49.75471" lon="2.18899">
        <ele>89.9</ele>
        <time>2023-01-18T13:28:35Z</time>
      </trkpt>
      <trkpt lat="49.75472" lon="2.18901">
        <ele>89.9</ele>
        <time>2023-01-18T13:28:36Z</time>
      </trkpt>
      <trkpt lat="49.75473" lon="2.18903">
        <ele>89.8</ele>
        <time>2023-01-18T13:28:38Z</time>
      </trkpt>
      <trkpt lat="49.75474" lon="2.18904">
        <ele>89.7</ele>
        <time>2023-01-18T13:28:39Z</time>
      </trkpt>
      <trkpt lat="49.75475" lon="2.18905">
        <ele>89.7</ele>
        <time>2023-01-18T13:28:40Z</time>
      </trkpt>
      <trkpt lat="49.75476" lon="2.18907">
        <ele>89.6</ele>
        <time>2023-01-18T13:28:41Z</time>
      </trkpt>
      <trkpt lat="49.75476" lon="2.18908">
        <ele>89.5</ele>
        <time>2023-01-18T13:28:42Z</time>
      </trkpt>
      <trkpt lat="49.75477" lon="2.18909">
        <ele>89.5</ele>
        <time>2023-01-18T13:28:43Z</time>
      </trkpt>
      <trkpt lat="49.75478" lon="2.18911">
        <ele>89.4</ele>
        <time>2023-01-18T13:28:44Z</time>
      </trkpt>
      <trkpt lat="49.75479" lon="2.18913">
        <ele>89.3</ele>
        <time>2023-01-18T13:28:45Z</time>
      </trkpt>
      <trkpt lat="49.75479" lon="2.18914">
        <ele>89.3</ele>
        <time>2023-01-18T13:28:46Z</time>
      </trkpt>
      <trkpt lat="49.7548" lon="2.18915">
        <ele>89.2</ele>
        <time>2023-01-18T13:28:48Z</time>
      </trkpt>
      <trkpt lat="49.75481" lon="2.18917">
        <ele>89.2</ele>
        <time>2023-01-18T13:28:49Z</time>
      </trkpt>
      <trkpt lat="49.75481" lon="2.18918">
        <ele>89.1</ele>
        <time>2023-01-18T13:28:50Z</time>
      </trkpt>
      <trkpt lat="49.75482" lon="2.1892">
        <ele>89</ele>
        <time>2023-01-18T13:28:51Z</time>
      </trkpt>
      <trkpt lat="49.75483" lon="2.18921">
        <ele>89</ele>
        <time>2023-01-18T13:28:52Z</time>
      </trkpt>
      <trkpt lat="49.75484" lon="2.18922">
        <ele>88.9</ele>
        <time>2023-01-18T13:28:53Z</time>
      </trkpt>
      <trkpt lat="49.75485" lon="2.18924">
        <ele>88.8</ele>
        <time>2023-01-18T13:28:55Z</time>
      </trkpt>
      <trkpt lat="49.75486" lon="2.18926">
        <ele>88.7</ele>
        <time>2023-01-18T13:28:56Z</time>
      </trkpt>
      <trkpt lat="49.75487" lon="2.18927">
        <ele>88.7</ele>
        <time>2023-01-18T13:28:57Z</time>
      </trkpt>
      <trkpt lat="49.75488" lon="2.18928">
        <ele>88.6</ele>
        <time>2023-01-18T13:28:58Z</time>
      </trkpt>
      <trkpt lat="49.75489" lon="2.1893">
        <ele>88.5</ele>
        <time>2023-01-18T13:28:59Z</time>
      </trkpt>
      <trkpt lat="49.7549" lon="2.18931">
        <ele>88.5</ele>
        <time>2023-01-18T13:29:00Z</time>
      </trkpt>
      <trkpt lat="49.75491" lon="2.18933">
        <ele>88.4</ele>
        <time>2023-01-18T13:29:01Z</time>
      </trkpt>
      <trkpt lat="49.75492" lon="2.18934">
        <ele>88.3</ele>
        <time>2023-01-18T13:29:02Z</time>
      </trkpt>
      <trkpt lat="49.75492" lon="2.18935">
        <ele>88.3</ele>
        <time>2023-01-18T13:29:03Z</time>
      </trkpt>
      <trkpt lat="49.75494" lon="2.18937">
        <ele>88.2</ele>
        <time>2023-01-18T13:29:05Z</time>
      </trkpt>
      <trkpt lat="49.75495" lon="2.18939">
        <ele>88.1</ele>
        <time>2023-01-18T13:29:06Z</time>
      </trkpt>
      <trkpt lat="49.75497" lon="2.1894">
        <ele>88</ele>
        <time>2023-01-18T13:29:07Z</time>
      </trkpt>
      <trkpt lat="49.75497" lon="2.18941">
        <ele>87.9</ele>
        <time>2023-01-18T13:29:08Z</time>
      </trkpt>
      <trkpt lat="49.75498" lon="2.18942">
        <ele>87.9</ele>
        <time>2023-01-18T13:29:09Z</time>
      </trkpt>
      <trkpt lat="49.75499" lon="2.18943">
        <ele>87.8</ele>
        <time>2023-01-18T13:29:10Z</time>
      </trkpt>
      <trkpt lat="49.75501" lon="2.18946">
        <ele>87.7</ele>
        <time>2023-01-18T13:29:12Z</time>
      </trkpt>
      <trkpt lat="49.75502" lon="2.18948">
        <ele>87.6</ele>
        <time>2023-01-18T13:29:13Z</time>
      </trkpt>
      <trkpt lat="49.75503" lon="2.18949">
        <ele>87.5</ele>
        <time>2023-01-18T13:29:14Z</time>
      </trkpt>
      <trkpt lat="49.75503" lon="2.1895">
        <ele>87.5</ele>
        <time>2023-01-18T13:29:15Z</time>
      </trkpt>
      <trkpt lat="49.75504" lon="2.18952">
        <ele>87.4</ele>
        <time>2023-01-18T13:29:16Z</time>
      </trkpt>
      <trkpt lat="49.75505" lon="2.18953">
        <ele>87.4</ele>
        <time>2023-01-18T13:29:17Z</time>
      </trkpt>
      <trkpt lat="49.75506" lon="2.18955">
        <ele>87.3</ele>
        <time>2023-01-18T13:29:19Z</time>
      </trkpt>
      <trkpt lat="49.75507" lon="2.18957">
        <ele>87.2</ele>
        <time>2023-01-18T13:29:20Z</time>
      </trkpt>
      <trkpt lat="49.75508" lon="2.18959">
        <ele>87.1</ele>
        <time>2023-01-18T13:29:21Z</time>
      </trkpt>
      <trkpt lat="49.75509" lon="2.1896">
        <ele>87</ele>
        <time>2023-01-18T13:29:22Z</time>
      </trkpt>
      <trkpt lat="49.7551" lon="2.18961">
        <ele>87</ele>
        <time>2023-01-18T13:29:23Z</time>
      </trkpt>
      <trkpt lat="49.75511" lon="2.18963">
        <ele>86.9</ele>
        <time>2023-01-18T13:29:24Z</time>
      </trkpt>
      <trkpt lat="49.75511" lon="2.18964">
        <ele>86.9</ele>
        <time>2023-01-18T13:29:25Z</time>
      </trkpt>
      <trkpt lat="49.75513" lon="2.18966">
        <ele>86.8</ele>
        <time>2023-01-18T13:29:27Z</time>
      </trkpt>
      <trkpt lat="49.75514" lon="2.18968">
        <ele>86.7</ele>
        <time>2023-01-18T13:29:28Z</time>
      </trkpt>
      <trkpt lat="49.75515" lon="2.1897">
        <ele>86.6</ele>
        <time>2023-01-18T13:29:29Z</time>
      </trkpt>
      <trkpt lat="49.75515" lon="2.18972">
        <ele>86.5</ele>
        <time>2023-01-18T13:29:30Z</time>
      </trkpt>
      <trkpt lat="49.75516" lon="2.18973">
        <ele>86.5</ele>
        <time>2023-01-18T13:29:31Z</time>
      </trkpt>
      <trkpt lat="49.75516" lon="2.18974">
        <ele>86.4</ele>
        <time>2023-01-18T13:29:32Z</time>
      </trkpt>
      <trkpt lat="49.75517" lon="2.18975">
        <ele>86.4</ele>
        <time>2023-01-18T13:29:33Z</time>
      </trkpt>
      <trkpt lat="49.75518" lon="2.18977">
        <ele>86.3</ele>
        <time>2023-01-18T13:29:34Z</time>
      </trkpt>
      <trkpt lat="49.75518" lon="2.18978">
        <ele>86.3</ele>
        <time>2023-01-18T13:29:35Z</time>
      </trkpt>
      <trkpt lat="49.75519" lon="2.1898">
        <ele>86.2</ele>
        <time>2023-01-18T13:29:36Z</time>
      </trkpt>
      <trkpt lat="49.7552" lon="2.18982">
        <ele>86.1</ele>
        <time>2023-01-18T13:29:37Z</time>
      </trkpt>
      <trkpt lat="49.75521" lon="2.18983">
        <ele>86</ele>
        <time>2023-01-18T13:29:38Z</time>
      </trkpt>
      <trkpt lat="49.75522" lon="2.18985">
        <ele>86</ele>
        <time>2023-01-18T13:29:40Z</time>
      </trkpt>
      <trkpt lat="49.75523" lon="2.18987">
        <ele>85.9</ele>
        <time>2023-01-18T13:29:41Z</time>
      </trkpt>
      <trkpt lat="49.75524" lon="2.18988">
        <ele>85.8</ele>
        <time>2023-01-18T13:29:42Z</time>
      </trkpt>
      <trkpt lat="49.75525" lon="2.1899">
        <ele>85.7</ele>
        <time>2023-01-18T13:29:43Z</time>
      </trkpt>
      <trkpt lat="49.75526" lon="2.18991">
        <ele>85.7</ele>
        <time>2023-01-18T13:29:44Z</time>
      </trkpt>
      <trkpt lat="49.75527" lon="2.18993">
        <ele>85.6</ele>
        <time>2023-01-18T13:29:45Z</time>
      </trkpt>
      <trkpt lat="49.75528" lon="2.18994">
        <ele>85.5</ele>
        <time>2023-01-18T13:29:46Z</time>
      </trkpt>
      <trkpt lat="49.75529" lon="2.18997">
        <ele>85.4</ele>
        <time>2023-01-18T13:29:48Z</time>
      </trkpt>
      <trkpt lat="49.75531" lon="2.18999">
        <ele>85.3</ele>
        <time>2023-01-18T13:29:49Z</time>
      </trkpt>
      <trkpt lat="49.75532" lon="2.19">
        <ele>85.2</ele>
        <time>2023-01-18T13:29:51Z</time>
      </trkpt>
      <trkpt lat="49.75533" lon="2.19001">
        <ele>85.2</ele>
        <time>2023-01-18T13:29:52Z</time>
      </trkpt>
      <trkpt lat="49.75533" lon="2.19003">
        <ele>85.1</ele>
        <time>2023-01-18T13:29:53Z</time>
      </trkpt>
      <trkpt lat="49.75534" lon="2.19004">
        <ele>85.1</ele>
        <time>2023-01-18T13:29:54Z</time>
      </trkpt>
      <trkpt lat="49.75535" lon="2.19005">
        <ele>85</ele>
        <time>2023-01-18T13:29:55Z</time>
      </trkpt>
      <trkpt lat="49.75536" lon="2.19007">
        <ele>84.9</ele>
        <time>2023-01-18T13:29:56Z</time>
      </trkpt>
      <trkpt lat="49.75538" lon="2.1901">
        <ele>84.8</ele>
        <time>2023-01-18T13:29:57Z</time>
      </trkpt>
      <trkpt lat="49.75538" lon="2.19011">
        <ele>84.7</ele>
        <time>2023-01-18T13:29:59Z</time>
      </trkpt>
      <trkpt lat="49.75539" lon="2.19012">
        <ele>84.7</ele>
        <time>2023-01-18T13:30:00Z</time>
      </trkpt>
      <trkpt lat="49.75541" lon="2.19015">
        <ele>84.5</ele>
        <time>2023-01-18T13:30:01Z</time>
      </trkpt>
      <trkpt lat="49.75541" lon="2.19015">
        <ele>84.5</ele>
        <time>2023-01-18T13:30:02Z</time>
      </trkpt>
      <trkpt lat="49.75542" lon="2.19016">
        <ele>84.5</ele>
        <time>2023-01-18T13:30:03Z</time>
      </trkpt>
      <trkpt lat="49.75543" lon="2.19018">
        <ele>84.4</ele>
        <time>2023-01-18T13:30:04Z</time>
      </trkpt>
      <trkpt lat="49.75544" lon="2.19019">
        <ele>84.3</ele>
        <time>2023-01-18T13:30:06Z</time>
      </trkpt>
      <trkpt lat="49.75545" lon="2.1902">
        <ele>84.3</ele>
        <time>2023-01-18T13:30:07Z</time>
      </trkpt>
      <trkpt lat="49.75545" lon="2.19022">
        <ele>84.2</ele>
        <time>2023-01-18T13:30:08Z</time>
      </trkpt>
      <trkpt lat="49.75546" lon="2.19023">
        <ele>84.1</ele>
        <time>2023-01-18T13:30:09Z</time>
      </trkpt>
      <trkpt lat="49.75547" lon="2.19025">
        <ele>84</ele>
        <time>2023-01-18T13:30:10Z</time>
      </trkpt>
      <trkpt lat="49.75549" lon="2.19027">
        <ele>84</ele>
        <time>2023-01-18T13:30:11Z</time>
      </trkpt>
      <trkpt lat="49.7555" lon="2.19029">
        <ele>83.9</ele>
        <time>2023-01-18T13:30:13Z</time>
      </trkpt>
      <trkpt lat="49.7555" lon="2.1903">
        <ele>83.8</ele>
        <time>2023-01-18T13:30:14Z</time>
      </trkpt>
      <trkpt lat="49.75551" lon="2.19031">
        <ele>83.8</ele>
        <time>2023-01-18T13:30:15Z</time>
      </trkpt>
      <trkpt lat="49.75552" lon="2.19032">
        <ele>83.7</ele>
        <time>2023-01-18T13:30:16Z</time>
      </trkpt>
      <trkpt lat="49.75553" lon="2.19033">
        <ele>83.6</ele>
        <time>2023-01-18T13:30:17Z</time>
      </trkpt>
      <trkpt lat="49.75553" lon="2.19034">
        <ele>83.6</ele>
        <time>2023-01-18T13:30:18Z</time>
      </trkpt>
      <trkpt lat="49.75555" lon="2.19036">
        <ele>83.5</ele>
        <time>2023-01-18T13:30:19Z</time>
      </trkpt>
      <trkpt lat="49.75555" lon="2.19037">
        <ele>83.5</ele>
        <time>2023-01-18T13:30:20Z</time>
      </trkpt>
      <trkpt lat="49.75556" lon="2.19038">
        <ele>83.4</ele>
        <time>2023-01-18T13:30:21Z</time>
      </trkpt>
      <trkpt lat="49.75557" lon="2.19039">
        <ele>83.4</ele>
        <time>2023-01-18T13:30:22Z</time>
      </trkpt>
      <trkpt lat="49.75558" lon="2.1904">
        <ele>83.3</ele>
        <time>2023-01-18T13:30:23Z</time>
      </trkpt>
      <trkpt lat="49.75559" lon="2.19042">
        <ele>83.2</ele>
        <time>2023-01-18T13:30:24Z</time>
      </trkpt>
      <trkpt lat="49.75559" lon="2.19043">
        <ele>83.2</ele>
        <time>2023-01-18T13:30:26Z</time>
      </trkpt>
      <trkpt lat="49.7556" lon="2.19044">
        <ele>83.1</ele>
        <time>2023-01-18T13:30:27Z</time>
      </trkpt>
      <trkpt lat="49.75561" lon="2.19046">
        <ele>83</ele>
        <time>2023-01-18T13:30:28Z</time>
      </trkpt>
      <trkpt lat="49.75562" lon="2.19047">
        <ele>83</ele>
        <time>2023-01-18T13:30:29Z</time>
      </trkpt>
      <trkpt lat="49.75562" lon="2.19048">
        <ele>82.9</ele>
        <time>2023-01-18T13:30:30Z</time>
      </trkpt>
      <trkpt lat="49.75563" lon="2.19049">
        <ele>82.9</ele>
        <time>2023-01-18T13:30:31Z</time>
      </trkpt>
      <trkpt lat="49.75564" lon="2.1905">
        <ele>82.8</ele>
        <time>2023-01-18T13:30:32Z</time>
      </trkpt>
      <trkpt lat="49.75564" lon="2.19052">
        <ele>82.8</ele>
        <time>2023-01-18T13:30:33Z</time>
      </trkpt>
      <trkpt lat="49.75565" lon="2.19053">
        <ele>82.7</ele>
        <time>2023-01-18T13:30:34Z</time>
      </trkpt>
      <trkpt lat="49.75566" lon="2.19054">
        <ele>82.6</ele>
        <time>2023-01-18T13:30:35Z</time>
      </trkpt>
      <trkpt lat="49.75567" lon="2.19056">
        <ele>82.6</ele>
        <time>2023-01-18T13:30:36Z</time>
      </trkpt>
      <trkpt lat="49.75568" lon="2.19057">
        <ele>82.5</ele>
        <time>2023-01-18T13:30:38Z</time>
      </trkpt>
      <trkpt lat="49.75568" lon="2.19058">
        <ele>82.5</ele>
        <time>2023-01-18T13:30:39Z</time>
      </trkpt>
      <trkpt lat="49.75569" lon="2.1906">
        <ele>82.4</ele>
        <time>2023-01-18T13:30:40Z</time>
      </trkpt>
      <trkpt lat="49.7557" lon="2.19061">
        <ele>82.3</ele>
        <time>2023-01-18T13:30:41Z</time>
      </trkpt>
      <trkpt lat="49.75571" lon="2.19063">
        <ele>82.3</ele>
        <time>2023-01-18T13:30:42Z</time>
      </trkpt>
      <trkpt lat="49.75571" lon="2.19064">
        <ele>82.2</ele>
        <time>2023-01-18T13:30:43Z</time>
      </trkpt>
      <trkpt lat="49.75572" lon="2.19065">
        <ele>82.2</ele>
        <time>2023-01-18T13:30:44Z</time>
      </trkpt>
      <trkpt lat="49.75573" lon="2.19067">
        <ele>82.1</ele>
        <time>2023-01-18T13:30:45Z</time>
      </trkpt>
      <trkpt lat="49.75574" lon="2.19069">
        <ele>82</ele>
        <time>2023-01-18T13:30:46Z</time>
      </trkpt>
      <trkpt lat="49.75574" lon="2.1907">
        <ele>82</ele>
        <time>2023-01-18T13:30:47Z</time>
      </trkpt>
      <trkpt lat="49.75575" lon="2.19071">
        <ele>81.9</ele>
        <time>2023-01-18T13:30:49Z</time>
      </trkpt>
      <trkpt lat="49.75576" lon="2.19073">
        <ele>81.8</ele>
        <time>2023-01-18T13:30:50Z</time>
      </trkpt>
      <trkpt lat="49.75577" lon="2.19074">
        <ele>81.8</ele>
        <time>2023-01-18T13:30:51Z</time>
      </trkpt>
      <trkpt lat="49.75578" lon="2.19076">
        <ele>81.7</ele>
        <time>2023-01-18T13:30:52Z</time>
      </trkpt>
      <trkpt lat="49.75578" lon="2.19077">
        <ele>81.6</ele>
        <time>2023-01-18T13:30:53Z</time>
      </trkpt>
      <trkpt lat="49.75579" lon="2.19079">
        <ele>81.5</ele>
        <time>2023-01-18T13:30:54Z</time>
      </trkpt>
      <trkpt lat="49.7558" lon="2.19081">
        <ele>81.5</ele>
        <time>2023-01-18T13:30:55Z</time>
      </trkpt>
      <trkpt lat="49.75581" lon="2.19082">
        <ele>81.4</ele>
        <time>2023-01-18T13:30:56Z</time>
      </trkpt>
      <trkpt lat="49.75581" lon="2.19083">
        <ele>81.4</ele>
        <time>2023-01-18T13:30:57Z</time>
      </trkpt>
      <trkpt lat="49.75582" lon="2.19085">
        <ele>81.3</ele>
        <time>2023-01-18T13:30:59Z</time>
      </trkpt>
      <trkpt lat="49.75583" lon="2.19086">
        <ele>81.3</ele>
        <time>2023-01-18T13:31:00Z</time>
      </trkpt>
      <trkpt lat="49.75583" lon="2.19087">
        <ele>81.2</ele>
        <time>2023-01-18T13:31:01Z</time>
      </trkpt>
      <trkpt lat="49.75584" lon="2.19089">
        <ele>81.1</ele>
        <time>2023-01-18T13:31:02Z</time>
      </trkpt>
      <trkpt lat="49.75586" lon="2.19092">
        <ele>81</ele>
        <time>2023-01-18T13:31:03Z</time>
      </trkpt>
      <trkpt lat="49.75586" lon="2.19093">
        <ele>80.9</ele>
        <time>2023-01-18T13:31:04Z</time>
      </trkpt>
      <trkpt lat="49.75587" lon="2.19094">
        <ele>80.9</ele>
        <time>2023-01-18T13:31:06Z</time>
      </trkpt>
      <trkpt lat="49.75588" lon="2.19095">
        <ele>80.8</ele>
        <time>2023-01-18T13:31:07Z</time>
      </trkpt>
      <trkpt lat="49.75588" lon="2.19096">
        <ele>80.8</ele>
        <time>2023-01-18T13:31:08Z</time>
      </trkpt>
      <trkpt lat="49.75589" lon="2.19097">
        <ele>80.7</ele>
        <time>2023-01-18T13:31:09Z</time>
      </trkpt>
      <trkpt lat="49.75591" lon="2.191">
        <ele>80.6</ele>
        <time>2023-01-18T13:31:10Z</time>
      </trkpt>
      <trkpt lat="49.75591" lon="2.19101">
        <ele>80.6</ele>
        <time>2023-01-18T13:31:11Z</time>
      </trkpt>
      <trkpt lat="49.75592" lon="2.19102">
        <ele>80.5</ele>
        <time>2023-01-18T13:31:12Z</time>
      </trkpt>
      <trkpt lat="49.75592" lon="2.19103">
        <ele>80.5</ele>
        <time>2023-01-18T13:31:13Z</time>
      </trkpt>
      <trkpt lat="49.75593" lon="2.19104">
        <ele>80.4</ele>
        <time>2023-01-18T13:31:14Z</time>
      </trkpt>
      <trkpt lat="49.75594" lon="2.19105">
        <ele>80.4</ele>
        <time>2023-01-18T13:31:15Z</time>
      </trkpt>
      <trkpt lat="49.75595" lon="2.19107">
        <ele>80.3</ele>
        <time>2023-01-18T13:31:16Z</time>
      </trkpt>
      <trkpt lat="49.75595" lon="2.19108">
        <ele>80.3</ele>
        <time>2023-01-18T13:31:18Z</time>
      </trkpt>
      <trkpt lat="49.75596" lon="2.1911">
        <ele>80.2</ele>
        <time>2023-01-18T13:31:19Z</time>
      </trkpt>
      <trkpt lat="49.75597" lon="2.19112">
        <ele>80.1</ele>
        <time>2023-01-18T13:31:20Z</time>
      </trkpt>
      <trkpt lat="49.75597" lon="2.19113">
        <ele>80</ele>
        <time>2023-01-18T13:31:21Z</time>
      </trkpt>
      <trkpt lat="49.75598" lon="2.19114">
        <ele>80</ele>
        <time>2023-01-18T13:31:22Z</time>
      </trkpt>
      <trkpt lat="49.75599" lon="2.19115">
        <ele>79.9</ele>
        <time>2023-01-18T13:31:23Z</time>
      </trkpt>
      <trkpt lat="49.756" lon="2.19117">
        <ele>79.9</ele>
        <time>2023-01-18T13:31:24Z</time>
      </trkpt>
      <trkpt lat="49.756" lon="2.19118">
        <ele>79.8</ele>
        <time>2023-01-18T13:31:25Z</time>
      </trkpt>
      <trkpt lat="49.75602" lon="2.1912">
        <ele>79.7</ele>
        <time>2023-01-18T13:31:27Z</time>
      </trkpt>
      <trkpt lat="49.75603" lon="2.19121">
        <ele>79.6</ele>
        <time>2023-01-18T13:31:28Z</time>
      </trkpt>
      <trkpt lat="49.75603" lon="2.19122">
        <ele>79.6</ele>
        <time>2023-01-18T13:31:29Z</time>
      </trkpt>
      <trkpt lat="49.75604" lon="2.19123">
        <ele>79.5</ele>
        <time>2023-01-18T13:31:30Z</time>
      </trkpt>
      <trkpt lat="49.75605" lon="2.19125">
        <ele>79.5</ele>
        <time>2023-01-18T13:31:31Z</time>
      </trkpt>
      <trkpt lat="49.75608" lon="2.19128">
        <ele>79.3</ele>
        <time>2023-01-18T13:31:32Z</time>
      </trkpt>
      <trkpt lat="49.75608" lon="2.19129">
        <ele>79.3</ele>
        <time>2023-01-18T13:31:34Z</time>
      </trkpt>
      <trkpt lat="49.75609" lon="2.1913">
        <ele>79.2</ele>
        <time>2023-01-18T13:31:35Z</time>
      </trkpt>
      <trkpt lat="49.7561" lon="2.19131">
        <ele>79.1</ele>
        <time>2023-01-18T13:31:36Z</time>
      </trkpt>
      <trkpt lat="49.75611" lon="2.19132">
        <ele>79.1</ele>
        <time>2023-01-18T13:31:37Z</time>
      </trkpt>
      <trkpt lat="49.75611" lon="2.19133">
        <ele>79.1</ele>
        <time>2023-01-18T13:31:38Z</time>
      </trkpt>
      <trkpt lat="49.75612" lon="2.19133">
        <ele>79</ele>
        <time>2023-01-18T13:31:39Z</time>
      </trkpt>
      <trkpt lat="49.75613" lon="2.19134">
        <ele>79</ele>
        <time>2023-01-18T13:31:40Z</time>
      </trkpt>
      <trkpt lat="49.75614" lon="2.19136">
        <ele>78.9</ele>
        <time>2023-01-18T13:31:42Z</time>
      </trkpt>
      <trkpt lat="49.75614" lon="2.19138">
        <ele>78.8</ele>
        <time>2023-01-18T13:31:43Z</time>
      </trkpt>
      <trkpt lat="49.75615" lon="2.19139">
        <ele>78.8</ele>
        <time>2023-01-18T13:31:44Z</time>
      </trkpt>
      <trkpt lat="49.75616" lon="2.19141">
        <ele>78.7</ele>
        <time>2023-01-18T13:31:45Z</time>
      </trkpt>
      <trkpt lat="49.75617" lon="2.19142">
        <ele>78.6</ele>
        <time>2023-01-18T13:31:46Z</time>
      </trkpt>
      <trkpt lat="49.75618" lon="2.19144">
        <ele>78.5</ele>
        <time>2023-01-18T13:31:47Z</time>
      </trkpt>
      <trkpt lat="49.75619" lon="2.19145">
        <ele>78.5</ele>
        <time>2023-01-18T13:31:48Z</time>
      </trkpt>
      <trkpt lat="49.75619" lon="2.19147">
        <ele>78.4</ele>
        <time>2023-01-18T13:31:49Z</time>
      </trkpt>
      <trkpt lat="49.7562" lon="2.19148">
        <ele>78.4</ele>
        <time>2023-01-18T13:31:50Z</time>
      </trkpt>
      <trkpt lat="49.75621" lon="2.19151">
        <ele>78.2</ele>
        <time>2023-01-18T13:31:51Z</time>
      </trkpt>
      <trkpt lat="49.75622" lon="2.19153">
        <ele>78.2</ele>
        <time>2023-01-18T13:31:52Z</time>
      </trkpt>
      <trkpt lat="49.75622" lon="2.19154">
        <ele>78.1</ele>
        <time>2023-01-18T13:31:54Z</time>
      </trkpt>
      <trkpt lat="49.75623" lon="2.19155">
        <ele>78.1</ele>
        <time>2023-01-18T13:31:55Z</time>
      </trkpt>
      <trkpt lat="49.75624" lon="2.19156">
        <ele>78</ele>
        <time>2023-01-18T13:31:56Z</time>
      </trkpt>
      <trkpt lat="49.75624" lon="2.19158">
        <ele>78</ele>
        <time>2023-01-18T13:31:57Z</time>
      </trkpt>
      <trkpt lat="49.75625" lon="2.19159">
        <ele>77.9</ele>
        <time>2023-01-18T13:31:58Z</time>
      </trkpt>
      <trkpt lat="49.75626" lon="2.1916">
        <ele>77.8</ele>
        <time>2023-01-18T13:32:00Z</time>
      </trkpt>
      <trkpt lat="49.75627" lon="2.19162">
        <ele>77.8</ele>
        <time>2023-01-18T13:32:01Z</time>
      </trkpt>
      <trkpt lat="49.75628" lon="2.19164">
        <ele>77.6</ele>
        <time>2023-01-18T13:32:02Z</time>
      </trkpt>
      <trkpt lat="49.75629" lon="2.19165">
        <ele>77.6</ele>
        <time>2023-01-18T13:32:03Z</time>
      </trkpt>
      <trkpt lat="49.75629" lon="2.19166">
        <ele>77.6</ele>
        <time>2023-01-18T13:32:04Z</time>
      </trkpt>
      <trkpt lat="49.7563" lon="2.19168">
        <ele>77.5</ele>
        <time>2023-01-18T13:32:05Z</time>
      </trkpt>
      <trkpt lat="49.75631" lon="2.1917">
        <ele>77.4</ele>
        <time>2023-01-18T13:32:06Z</time>
      </trkpt>
      <trkpt lat="49.75632" lon="2.19171">
        <ele>77.4</ele>
        <time>2023-01-18T13:32:08Z</time>
      </trkpt>
      <trkpt lat="49.75632" lon="2.19172">
        <ele>77.3</ele>
        <time>2023-01-18T13:32:09Z</time>
      </trkpt>
      <trkpt lat="49.75633" lon="2.19174">
        <ele>77.2</ele>
        <time>2023-01-18T13:32:10Z</time>
      </trkpt>
      <trkpt lat="49.75634" lon="2.19175">
        <ele>77.2</ele>
        <time>2023-01-18T13:32:11Z</time>
      </trkpt>
      <trkpt lat="49.75635" lon="2.19177">
        <ele>77.1</ele>
        <time>2023-01-18T13:32:12Z</time>
      </trkpt>
      <trkpt lat="49.75636" lon="2.19178">
        <ele>77</ele>
        <time>2023-01-18T13:32:13Z</time>
      </trkpt>
      <trkpt lat="49.75637" lon="2.19179">
        <ele>77</ele>
        <time>2023-01-18T13:32:14Z</time>
      </trkpt>
      <trkpt lat="49.75638" lon="2.19181">
        <ele>76.9</ele>
        <time>2023-01-18T13:32:15Z</time>
      </trkpt>
      <trkpt lat="49.75638" lon="2.19182">
        <ele>76.8</ele>
        <time>2023-01-18T13:32:16Z</time>
      </trkpt>
      <trkpt lat="49.7564" lon="2.19183">
        <ele>76.8</ele>
        <time>2023-01-18T13:32:17Z</time>
      </trkpt>
      <trkpt lat="49.7564" lon="2.19184">
        <ele>76.7</ele>
        <time>2023-01-18T13:32:18Z</time>
      </trkpt>
      <trkpt lat="49.75641" lon="2.19185">
        <ele>76.7</ele>
        <time>2023-01-18T13:32:20Z</time>
      </trkpt>
      <trkpt lat="49.75643" lon="2.19186">
        <ele>76.6</ele>
        <time>2023-01-18T13:32:21Z</time>
      </trkpt>
      <trkpt lat="49.75644" lon="2.19187">
        <ele>76.5</ele>
        <time>2023-01-18T13:32:22Z</time>
      </trkpt>
      <trkpt lat="49.75645" lon="2.19188">
        <ele>76.4</ele>
        <time>2023-01-18T13:32:23Z</time>
      </trkpt>
      <trkpt lat="49.75647" lon="2.1919">
        <ele>76.3</ele>
        <time>2023-01-18T13:32:24Z</time>
      </trkpt>
      <trkpt lat="49.75648" lon="2.19191">
        <ele>76.3</ele>
        <time>2023-01-18T13:32:26Z</time>
      </trkpt>
      <trkpt lat="49.75648" lon="2.19192">
        <ele>76.2</ele>
        <time>2023-01-18T13:32:27Z</time>
      </trkpt>
      <trkpt lat="49.75649" lon="2.19193">
        <ele>76.2</ele>
        <time>2023-01-18T13:32:28Z</time>
      </trkpt>
      <trkpt lat="49.7565" lon="2.19194">
        <ele>76.1</ele>
        <time>2023-01-18T13:32:29Z</time>
      </trkpt>
      <trkpt lat="49.75651" lon="2.19195">
        <ele>76</ele>
        <time>2023-01-18T13:32:30Z</time>
      </trkpt>
      <trkpt lat="49.75652" lon="2.19197">
        <ele>75.9</ele>
        <time>2023-01-18T13:32:31Z</time>
      </trkpt>
      <trkpt lat="49.75653" lon="2.19198">
        <ele>75.9</ele>
        <time>2023-01-18T13:32:32Z</time>
      </trkpt>
      <trkpt lat="49.75654" lon="2.19199">
        <ele>75.8</ele>
        <time>2023-01-18T13:32:33Z</time>
      </trkpt>
      <trkpt lat="49.75655" lon="2.19201">
        <ele>75.7</ele>
        <time>2023-01-18T13:32:34Z</time>
      </trkpt>
      <trkpt lat="49.75656" lon="2.19202">
        <ele>75.7</ele>
        <time>2023-01-18T13:32:35Z</time>
      </trkpt>
      <trkpt lat="49.75656" lon="2.19203">
        <ele>75.7</ele>
        <time>2023-01-18T13:32:36Z</time>
      </trkpt>
      <trkpt lat="49.75658" lon="2.19206">
        <ele>75.5</ele>
        <time>2023-01-18T13:32:38Z</time>
      </trkpt>
      <trkpt lat="49.75659" lon="2.19206">
        <ele>75.5</ele>
        <time>2023-01-18T13:32:39Z</time>
      </trkpt>
      <trkpt lat="49.75659" lon="2.19207">
        <ele>75.4</ele>
        <time>2023-01-18T13:32:40Z</time>
      </trkpt>
      <trkpt lat="49.7566" lon="2.19209">
        <ele>75.4</ele>
        <time>2023-01-18T13:32:41Z</time>
      </trkpt>
      <trkpt lat="49.75661" lon="2.19211">
        <ele>75.3</ele>
        <time>2023-01-18T13:32:42Z</time>
      </trkpt>
      <trkpt lat="49.75661" lon="2.19211">
        <ele>75.3</ele>
        <time>2023-01-18T13:32:43Z</time>
      </trkpt>
      <trkpt lat="49.75662" lon="2.19213">
        <ele>75.2</ele>
        <time>2023-01-18T13:32:45Z</time>
      </trkpt>
      <trkpt lat="49.75663" lon="2.19215">
        <ele>75.1</ele>
        <time>2023-01-18T13:32:46Z</time>
      </trkpt>
      <trkpt lat="49.75664" lon="2.19217">
        <ele>75</ele>
        <time>2023-01-18T13:32:47Z</time>
      </trkpt>
      <trkpt lat="49.75664" lon="2.19218">
        <ele>75</ele>
        <time>2023-01-18T13:32:48Z</time>
      </trkpt>
      <trkpt lat="49.75665" lon="2.19219">
        <ele>74.9</ele>
        <time>2023-01-18T13:32:49Z</time>
      </trkpt>
      <trkpt lat="49.75666" lon="2.19221">
        <ele>74.9</ele>
        <time>2023-01-18T13:32:50Z</time>
      </trkpt>
      <trkpt lat="49.75667" lon="2.19225">
        <ele>74.7</ele>
        <time>2023-01-18T13:32:52Z</time>
      </trkpt>
      <trkpt lat="49.75668" lon="2.19227">
        <ele>74.6</ele>
        <time>2023-01-18T13:32:53Z</time>
      </trkpt>
      <trkpt lat="49.75668" lon="2.19228">
        <ele>74.6</ele>
        <time>2023-01-18T13:32:54Z</time>
      </trkpt>
      <trkpt lat="49.75669" lon="2.1923">
        <ele>74.5</ele>
        <time>2023-01-18T13:32:56Z</time>
      </trkpt>
      <trkpt lat="49.7567" lon="2.19233">
        <ele>74.4</ele>
        <time>2023-01-18T13:32:57Z</time>
      </trkpt>
      <trkpt lat="49.7567" lon="2.19234">
        <ele>74.4</ele>
        <time>2023-01-18T13:32:58Z</time>
      </trkpt>
      <trkpt lat="49.7567" lon="2.19236">
        <ele>74.3</ele>
        <time>2023-01-18T13:32:59Z</time>
      </trkpt>
      <trkpt lat="49.75671" lon="2.19239">
        <ele>74.2</ele>
        <time>2023-01-18T13:33:00Z</time>
      </trkpt>
      <trkpt lat="49.75672" lon="2.1924">
        <ele>74.1</ele>
        <time>2023-01-18T13:33:01Z</time>
      </trkpt>
      <trkpt lat="49.75672" lon="2.19241">
        <ele>74.1</ele>
        <time>2023-01-18T13:33:02Z</time>
      </trkpt>
      <trkpt lat="49.75673" lon="2.19242">
        <ele>74</ele>
        <time>2023-01-18T13:33:03Z</time>
      </trkpt>
      <trkpt lat="49.75674" lon="2.19244">
        <ele>74</ele>
        <time>2023-01-18T13:33:04Z</time>
      </trkpt>
      <trkpt lat="49.75674" lon="2.19245">
        <ele>73.9</ele>
        <time>2023-01-18T13:33:05Z</time>
      </trkpt>
      <trkpt lat="49.75675" lon="2.19246">
        <ele>73.9</ele>
        <time>2023-01-18T13:33:07Z</time>
      </trkpt>
      <trkpt lat="49.75676" lon="2.19248">
        <ele>73.8</ele>
        <time>2023-01-18T13:33:08Z</time>
      </trkpt>
      <trkpt lat="49.75677" lon="2.1925">
        <ele>73.7</ele>
        <time>2023-01-18T13:33:09Z</time>
      </trkpt>
      <trkpt lat="49.75678" lon="2.19251">
        <ele>73.6</ele>
        <time>2023-01-18T13:33:10Z</time>
      </trkpt>
      <trkpt lat="49.75678" lon="2.19253">
        <ele>73.6</ele>
        <time>2023-01-18T13:33:11Z</time>
      </trkpt>
      <trkpt lat="49.7568" lon="2.19255">
        <ele>73.5</ele>
        <time>2023-01-18T13:33:12Z</time>
      </trkpt>
      <trkpt lat="49.7568" lon="2.19256">
        <ele>73.4</ele>
        <time>2023-01-18T13:33:13Z</time>
      </trkpt>
      <trkpt lat="49.75682" lon="2.19259">
        <ele>73.4</ele>
        <time>2023-01-18T13:33:14Z</time>
      </trkpt>
      <trkpt lat="49.75682" lon="2.1926">
        <ele>73.3</ele>
        <time>2023-01-18T13:33:15Z</time>
      </trkpt>
      <trkpt lat="49.75682" lon="2.19261">
        <ele>73.3</ele>
        <time>2023-01-18T13:33:16Z</time>
      </trkpt>
      <trkpt lat="49.75683" lon="2.19263">
        <ele>73.3</ele>
        <time>2023-01-18T13:33:18Z</time>
      </trkpt>
      <trkpt lat="49.75684" lon="2.19264">
        <ele>73.2</ele>
        <time>2023-01-18T13:33:19Z</time>
      </trkpt>
      <trkpt lat="49.75685" lon="2.19267">
        <ele>73.2</ele>
        <time>2023-01-18T13:33:20Z</time>
      </trkpt>
      <trkpt lat="49.75686" lon="2.19269">
        <ele>73.1</ele>
        <time>2023-01-18T13:33:21Z</time>
      </trkpt>
      <trkpt lat="49.75687" lon="2.1927">
        <ele>73.1</ele>
        <time>2023-01-18T13:33:22Z</time>
      </trkpt>
      <trkpt lat="49.75687" lon="2.19271">
        <ele>73.1</ele>
        <time>2023-01-18T13:33:23Z</time>
      </trkpt>
      <trkpt lat="49.75688" lon="2.19273">
        <ele>73</ele>
        <time>2023-01-18T13:33:24Z</time>
      </trkpt>
      <trkpt lat="49.75689" lon="2.19274">
        <ele>73</ele>
        <time>2023-01-18T13:33:25Z</time>
      </trkpt>
      <trkpt lat="49.7569" lon="2.19276">
        <ele>73</ele>
        <time>2023-01-18T13:33:26Z</time>
      </trkpt>
      <trkpt lat="49.75691" lon="2.19278">
        <ele>73</ele>
        <time>2023-01-18T13:33:27Z</time>
      </trkpt>
      <trkpt lat="49.75691" lon="2.19279">
        <ele>73</ele>
        <time>2023-01-18T13:33:29Z</time>
      </trkpt>
      <trkpt lat="49.75692" lon="2.19281">
        <ele>72.9</ele>
        <time>2023-01-18T13:33:30Z</time>
      </trkpt>
      <trkpt lat="49.75692" lon="2.19282">
        <ele>72.9</ele>
        <time>2023-01-18T13:33:31Z</time>
      </trkpt>
      <trkpt lat="49.75693" lon="2.19285">
        <ele>72.9</ele>
        <time>2023-01-18T13:33:32Z</time>
      </trkpt>
      <trkpt lat="49.75694" lon="2.19286">
        <ele>72.9</ele>
        <time>2023-01-18T13:33:33Z</time>
      </trkpt>
      <trkpt lat="49.75695" lon="2.19287">
        <ele>72.9</ele>
        <time>2023-01-18T13:33:34Z</time>
      </trkpt>
      <trkpt lat="49.75696" lon="2.19288">
        <ele>72.9</ele>
        <time>2023-01-18T13:33:35Z</time>
      </trkpt>
      <trkpt lat="49.75696" lon="2.1929">
        <ele>72.8</ele>
        <time>2023-01-18T13:33:36Z</time>
      </trkpt>
      <trkpt lat="49.75697" lon="2.19292">
        <ele>72.8</ele>
        <time>2023-01-18T13:33:37Z</time>
      </trkpt>
      <trkpt lat="49.75697" lon="2.19292">
        <ele>72.8</ele>
        <time>2023-01-18T13:33:39Z</time>
      </trkpt>
      <trkpt lat="49.75698" lon="2.19293">
        <ele>72.7</ele>
        <time>2023-01-18T13:33:40Z</time>
      </trkpt>
      <trkpt lat="49.75698" lon="2.19294">
        <ele>72.7</ele>
        <time>2023-01-18T13:33:41Z</time>
      </trkpt>
      <trkpt lat="49.75699" lon="2.19297">
        <ele>72.7</ele>
        <time>2023-01-18T13:33:42Z</time>
      </trkpt>
      <trkpt lat="49.757" lon="2.19298">
        <ele>72.7</ele>
        <time>2023-01-18T13:33:43Z</time>
      </trkpt>
      <trkpt lat="49.757" lon="2.19299">
        <ele>72.7</ele>
        <time>2023-01-18T13:33:44Z</time>
      </trkpt>
      <trkpt lat="49.75702" lon="2.19302">
        <ele>72.7</ele>
        <time>2023-01-18T13:33:45Z</time>
      </trkpt>
      <trkpt lat="49.75702" lon="2.19303">
        <ele>72.6</ele>
        <time>2023-01-18T13:33:46Z</time>
      </trkpt>
      <trkpt lat="49.75703" lon="2.19304">
        <ele>72.6</ele>
        <time>2023-01-18T13:33:47Z</time>
      </trkpt>
      <trkpt lat="49.75703" lon="2.19304">
        <ele>72.6</ele>
        <time>2023-01-18T13:33:49Z</time>
      </trkpt>
      <trkpt lat="49.75704" lon="2.19305">
        <ele>72.6</ele>
        <time>2023-01-18T13:33:50Z</time>
      </trkpt>
      <trkpt lat="49.75704" lon="2.19306">
        <ele>72.6</ele>
        <time>2023-01-18T13:33:51Z</time>
      </trkpt>
      <trkpt lat="49.75705" lon="2.19307">
        <ele>72.6</ele>
        <time>2023-01-18T13:33:52Z</time>
      </trkpt>
      <trkpt lat="49.75707" lon="2.19311">
        <ele>72.5</ele>
        <time>2023-01-18T13:33:53Z</time>
      </trkpt>
      <trkpt lat="49.75708" lon="2.19312">
        <ele>72.5</ele>
        <time>2023-01-18T13:33:55Z</time>
      </trkpt>
      <trkpt lat="49.75708" lon="2.19313">
        <ele>72.5</ele>
        <time>2023-01-18T13:33:56Z</time>
      </trkpt>
      <trkpt lat="49.75709" lon="2.19315">
        <ele>72.4</ele>
        <time>2023-01-18T13:33:57Z</time>
      </trkpt>
      <trkpt lat="49.7571" lon="2.19316">
        <ele>72.4</ele>
        <time>2023-01-18T13:33:58Z</time>
      </trkpt>
      <trkpt lat="49.7571" lon="2.19317">
        <ele>72.4</ele>
        <time>2023-01-18T13:33:59Z</time>
      </trkpt>
      <trkpt lat="49.75711" lon="2.19319">
        <ele>72.4</ele>
        <time>2023-01-18T13:34:00Z</time>
      </trkpt>
      <trkpt lat="49.75711" lon="2.1932">
        <ele>72.4</ele>
        <time>2023-01-18T13:34:01Z</time>
      </trkpt>
      <trkpt lat="49.75713" lon="2.19324">
        <ele>72.3</ele>
        <time>2023-01-18T13:34:02Z</time>
      </trkpt>
      <trkpt lat="49.75713" lon="2.19325">
        <ele>72.3</ele>
        <time>2023-01-18T13:34:04Z</time>
      </trkpt>
      <trkpt lat="49.75714" lon="2.19327">
        <ele>72.3</ele>
        <time>2023-01-18T13:34:05Z</time>
      </trkpt>
      <trkpt lat="49.75714" lon="2.19328">
        <ele>72.1</ele>
        <time>2023-01-18T13:34:06Z</time>
      </trkpt>
      <trkpt lat="49.75714" lon="2.19329">
        <ele>72.1</ele>
        <time>2023-01-18T13:34:07Z</time>
      </trkpt>
      <trkpt lat="49.75716" lon="2.19332">
        <ele>72</ele>
        <time>2023-01-18T13:34:08Z</time>
      </trkpt>
      <trkpt lat="49.75716" lon="2.19333">
        <ele>72</ele>
        <time>2023-01-18T13:34:09Z</time>
      </trkpt>
      <trkpt lat="49.75716" lon="2.19334">
        <ele>72</ele>
        <time>2023-01-18T13:34:10Z</time>
      </trkpt>
      <trkpt lat="49.75717" lon="2.19336">
        <ele>72</ele>
        <time>2023-01-18T13:34:11Z</time>
      </trkpt>
      <trkpt lat="49.75718" lon="2.19339">
        <ele>71.9</ele>
        <time>2023-01-18T13:34:12Z</time>
      </trkpt>
      <trkpt lat="49.75718" lon="2.1934">
        <ele>71.8</ele>
        <time>2023-01-18T13:34:14Z</time>
      </trkpt>
      <trkpt lat="49.75719" lon="2.19342">
        <ele>71.7</ele>
        <time>2023-01-18T13:34:15Z</time>
      </trkpt>
      <trkpt lat="49.75719" lon="2.19343">
        <ele>71.7</ele>
        <time>2023-01-18T13:34:16Z</time>
      </trkpt>
      <trkpt lat="49.7572" lon="2.19345">
        <ele>71.6</ele>
        <time>2023-01-18T13:34:17Z</time>
      </trkpt>
      <trkpt lat="49.75721" lon="2.19347">
        <ele>71.5</ele>
        <time>2023-01-18T13:34:18Z</time>
      </trkpt>
      <trkpt lat="49.75721" lon="2.19348">
        <ele>71.5</ele>
        <time>2023-01-18T13:34:19Z</time>
      </trkpt>
      <trkpt lat="49.75722" lon="2.1935">
        <ele>71.4</ele>
        <time>2023-01-18T13:34:20Z</time>
      </trkpt>
      <trkpt lat="49.75723" lon="2.19351">
        <ele>71.4</ele>
        <time>2023-01-18T13:34:21Z</time>
      </trkpt>
      <trkpt lat="49.75724" lon="2.19353">
        <ele>71.2</ele>
        <time>2023-01-18T13:34:23Z</time>
      </trkpt>
      <trkpt lat="49.75724" lon="2.19354">
        <ele>71.2</ele>
        <time>2023-01-18T13:34:24Z</time>
      </trkpt>
      <trkpt lat="49.75723" lon="2.19356">
        <ele>71.2</ele>
        <time>2023-01-18T13:34:25Z</time>
      </trkpt>
      <trkpt lat="49.75723" lon="2.19359">
        <ele>71.2</ele>
        <time>2023-01-18T13:34:27Z</time>
      </trkpt>
      <trkpt lat="49.75723" lon="2.1936">
        <ele>71.2</ele>
        <time>2023-01-18T13:34:29Z</time>
      </trkpt>
      <trkpt lat="49.75723" lon="2.19361">
        <ele>71.2</ele>
        <time>2023-01-18T13:34:30Z</time>
      </trkpt>
      <trkpt lat="49.75723" lon="2.19363">
        <ele>71.1</ele>
        <time>2023-01-18T13:34:32Z</time>
      </trkpt>
      <trkpt lat="49.75723" lon="2.19364">
        <ele>71.1</ele>
        <time>2023-01-18T13:34:33Z</time>
      </trkpt>
      <trkpt lat="49.75723" lon="2.19364">
        <ele>71.1</ele>
        <time>2023-01-18T13:34:34Z</time>
      </trkpt>
      <trkpt lat="49.75723" lon="2.19365">
        <ele>71.1</ele>
        <time>2023-01-18T13:34:35Z</time>
      </trkpt>
      <trkpt lat="49.75723" lon="2.19366">
        <ele>71</ele>
        <time>2023-01-18T13:34:36Z</time>
      </trkpt>
      <trkpt lat="49.75724" lon="2.19366">
        <ele>71</ele>
        <time>2023-01-18T13:34:37Z</time>
      </trkpt>
      <trkpt lat="49.75725" lon="2.19367">
        <ele>70.9</ele>
        <time>2023-01-18T13:34:39Z</time>
      </trkpt>
      <trkpt lat="49.75725" lon="2.19367">
        <ele>70.9</ele>
        <time>2023-01-18T13:34:40Z</time>
      </trkpt>
      <trkpt lat="49.75726" lon="2.19368">
        <ele>70.9</ele>
        <time>2023-01-18T13:34:41Z</time>
      </trkpt>
      <trkpt lat="49.75727" lon="2.19369">
        <ele>70.8</ele>
        <time>2023-01-18T13:34:42Z</time>
      </trkpt>
      <trkpt lat="49.75727" lon="2.19369">
        <ele>70.8</ele>
        <time>2023-01-18T13:34:44Z</time>
      </trkpt>
      <trkpt lat="49.75728" lon="2.1937">
        <ele>70.8</ele>
        <time>2023-01-18T13:34:45Z</time>
      </trkpt>
      <trkpt lat="49.75728" lon="2.19371">
        <ele>70.7</ele>
        <time>2023-01-18T13:34:46Z</time>
      </trkpt>
      <trkpt lat="49.75729" lon="2.19372">
        <ele>70.7</ele>
        <time>2023-01-18T13:34:47Z</time>
      </trkpt>
      <trkpt lat="49.75729" lon="2.19374">
        <ele>70.7</ele>
        <time>2023-01-18T13:34:48Z</time>
      </trkpt>
      <trkpt lat="49.7573" lon="2.19375">
        <ele>70.6</ele>
        <time>2023-01-18T13:34:49Z</time>
      </trkpt>
      <trkpt lat="49.7573" lon="2.19377">
        <ele>70.6</ele>
        <time>2023-01-18T13:34:51Z</time>
      </trkpt>
      <trkpt lat="49.75731" lon="2.19378">
        <ele>70.6</ele>
        <time>2023-01-18T13:34:52Z</time>
      </trkpt>
      <trkpt lat="49.75732" lon="2.19381">
        <ele>70.5</ele>
        <time>2023-01-18T13:34:53Z</time>
      </trkpt>
      <trkpt lat="49.75732" lon="2.19381">
        <ele>70.5</ele>
        <time>2023-01-18T13:34:54Z</time>
      </trkpt>
      <trkpt lat="49.75732" lon="2.19382">
        <ele>70.5</ele>
        <time>2023-01-18T13:34:55Z</time>
      </trkpt>
      <trkpt lat="49.75733" lon="2.19384">
        <ele>70.5</ele>
        <time>2023-01-18T13:34:56Z</time>
      </trkpt>
      <trkpt lat="49.75734" lon="2.19385">
        <ele>70.5</ele>
        <time>2023-01-18T13:34:57Z</time>
      </trkpt>
      <trkpt lat="49.75735" lon="2.19387">
        <ele>70.4</ele>
        <time>2023-01-18T13:34:59Z</time>
      </trkpt>
      <trkpt lat="49.75735" lon="2.19388">
        <ele>70.4</ele>
        <time>2023-01-18T13:35:00Z</time>
      </trkpt>
      <trkpt lat="49.75736" lon="2.19389">
        <ele>70.4</ele>
        <time>2023-01-18T13:35:01Z</time>
      </trkpt>
      <trkpt lat="49.75737" lon="2.19391">
        <ele>70.4</ele>
        <time>2023-01-18T13:35:02Z</time>
      </trkpt>
      <trkpt lat="49.75738" lon="2.19392">
        <ele>70.3</ele>
        <time>2023-01-18T13:35:04Z</time>
      </trkpt>
      <trkpt lat="49.75739" lon="2.19394">
        <ele>70.3</ele>
        <time>2023-01-18T13:35:05Z</time>
      </trkpt>
      <trkpt lat="49.75739" lon="2.19395">
        <ele>70.3</ele>
        <time>2023-01-18T13:35:06Z</time>
      </trkpt>
      <trkpt lat="49.7574" lon="2.19397">
        <ele>70.2</ele>
        <time>2023-01-18T13:35:07Z</time>
      </trkpt>
      <trkpt lat="49.75741" lon="2.19399">
        <ele>70.2</ele>
        <time>2023-01-18T13:35:08Z</time>
      </trkpt>
      <trkpt lat="49.75742" lon="2.194">
        <ele>70.2</ele>
        <time>2023-01-18T13:35:09Z</time>
      </trkpt>
      <trkpt lat="49.75742" lon="2.19402">
        <ele>70.1</ele>
        <time>2023-01-18T13:35:10Z</time>
      </trkpt>
      <trkpt lat="49.75743" lon="2.19403">
        <ele>70.1</ele>
        <time>2023-01-18T13:35:11Z</time>
      </trkpt>
      <trkpt lat="49.75744" lon="2.19406">
        <ele>70</ele>
        <time>2023-01-18T13:35:13Z</time>
      </trkpt>
      <trkpt lat="49.75744" lon="2.19407">
        <ele>70</ele>
        <time>2023-01-18T13:35:14Z</time>
      </trkpt>
      <trkpt lat="49.75744" lon="2.19408">
        <ele>70</ele>
        <time>2023-01-18T13:35:15Z</time>
      </trkpt>
      <trkpt lat="49.75745" lon="2.1941">
        <ele>69.8</ele>
        <time>2023-01-18T13:35:16Z</time>
      </trkpt>
      <trkpt lat="49.75746" lon="2.19411">
        <ele>69.9</ele>
        <time>2023-01-18T13:35:17Z</time>
      </trkpt>
      <trkpt lat="49.75747" lon="2.19413">
        <ele>69.7</ele>
        <time>2023-01-18T13:35:19Z</time>
      </trkpt>
      <trkpt lat="49.75748" lon="2.19415">
        <ele>69.7</ele>
        <time>2023-01-18T13:35:20Z</time>
      </trkpt>
      <trkpt lat="49.75748" lon="2.19416">
        <ele>69.7</ele>
        <time>2023-01-18T13:35:21Z</time>
      </trkpt>
      <trkpt lat="49.75749" lon="2.19417">
        <ele>69.7</ele>
        <time>2023-01-18T13:35:22Z</time>
      </trkpt>
      <trkpt lat="49.7575" lon="2.19419">
        <ele>69.6</ele>
        <time>2023-01-18T13:35:23Z</time>
      </trkpt>
      <trkpt lat="49.7575" lon="2.19421">
        <ele>69.6</ele>
        <time>2023-01-18T13:35:24Z</time>
      </trkpt>
      <trkpt lat="49.75751" lon="2.19423">
        <ele>69.6</ele>
        <time>2023-01-18T13:35:25Z</time>
      </trkpt>
      <trkpt lat="49.75752" lon="2.19424">
        <ele>69.7</ele>
        <time>2023-01-18T13:35:26Z</time>
      </trkpt>
      <trkpt lat="49.75752" lon="2.19426">
        <ele>69.7</ele>
        <time>2023-01-18T13:35:28Z</time>
      </trkpt>
      <trkpt lat="49.75753" lon="2.19429">
        <ele>69.7</ele>
        <time>2023-01-18T13:35:29Z</time>
      </trkpt>
      <trkpt lat="49.75754" lon="2.1943">
        <ele>69.8</ele>
        <time>2023-01-18T13:35:30Z</time>
      </trkpt>
      <trkpt lat="49.75754" lon="2.19432">
        <ele>69.9</ele>
        <time>2023-01-18T13:35:31Z</time>
      </trkpt>
      <trkpt lat="49.75755" lon="2.19434">
        <ele>69.9</ele>
        <time>2023-01-18T13:35:32Z</time>
      </trkpt>
      <trkpt lat="49.75756" lon="2.19436">
        <ele>70.1</ele>
        <time>2023-01-18T13:35:33Z</time>
      </trkpt>
      <trkpt lat="49.75757" lon="2.19438">
        <ele>70.2</ele>
        <time>2023-01-18T13:35:34Z</time>
      </trkpt>
      <trkpt lat="49.75758" lon="2.19441">
        <ele>70.5</ele>
        <time>2023-01-18T13:35:36Z</time>
      </trkpt>
      <trkpt lat="49.75758" lon="2.19442">
        <ele>70.5</ele>
        <time>2023-01-18T13:35:37Z</time>
      </trkpt>
      <trkpt lat="49.75759" lon="2.19444">
        <ele>70.7</ele>
        <time>2023-01-18T13:35:38Z</time>
      </trkpt>
      <trkpt lat="49.75759" lon="2.19445">
        <ele>70.7</ele>
        <time>2023-01-18T13:35:39Z</time>
      </trkpt>
      <trkpt lat="49.75759" lon="2.19447">
        <ele>70.9</ele>
        <time>2023-01-18T13:35:40Z</time>
      </trkpt>
      <trkpt lat="49.7576" lon="2.19448">
        <ele>71.2</ele>
        <time>2023-01-18T13:35:41Z</time>
      </trkpt>
      <trkpt lat="49.75761" lon="2.19451">
        <ele>71.2</ele>
        <time>2023-01-18T13:35:42Z</time>
      </trkpt>
      <trkpt lat="49.75762" lon="2.19453">
        <ele>71.6</ele>
        <time>2023-01-18T13:35:44Z</time>
      </trkpt>
      <trkpt lat="49.75762" lon="2.19454">
        <ele>71.6</ele>
        <time>2023-01-18T13:35:45Z</time>
      </trkpt>
      <trkpt lat="49.75762" lon="2.19456">
        <ele>71.7</ele>
        <time>2023-01-18T13:35:46Z</time>
      </trkpt>
      <trkpt lat="49.75763" lon="2.19457">
        <ele>72.1</ele>
        <time>2023-01-18T13:35:47Z</time>
      </trkpt>
      <trkpt lat="49.75764" lon="2.1946">
        <ele>72.1</ele>
        <time>2023-01-18T13:35:48Z</time>
      </trkpt>
      <trkpt lat="49.75764" lon="2.19461">
        <ele>72.4</ele>
        <time>2023-01-18T13:35:49Z</time>
      </trkpt>
      <trkpt lat="49.75765" lon="2.19465">
        <ele>72.4</ele>
        <time>2023-01-18T13:35:51Z</time>
      </trkpt>
      <trkpt lat="49.75765" lon="2.19466">
        <ele>72.8</ele>
        <time>2023-01-18T13:35:52Z</time>
      </trkpt>
      <trkpt lat="49.75765" lon="2.19467">
        <ele>72.8</ele>
        <time>2023-01-18T13:35:53Z</time>
      </trkpt>
      <trkpt lat="49.75765" lon="2.19469">
        <ele>72.6</ele>
        <time>2023-01-18T13:35:54Z</time>
      </trkpt>
      <trkpt lat="49.75764" lon="2.1947">
        <ele>72.9</ele>
        <time>2023-01-18T13:35:55Z</time>
      </trkpt>
      <trkpt lat="49.75764" lon="2.19472">
        <ele>72.9</ele>
        <time>2023-01-18T13:35:57Z</time>
      </trkpt>
      <trkpt lat="49.75763" lon="2.19473">
        <ele>72.9</ele>
        <time>2023-01-18T13:35:58Z</time>
      </trkpt>
      <trkpt lat="49.75762" lon="2.19475">
        <ele>72.9</ele>
        <time>2023-01-18T13:35:59Z</time>
      </trkpt>
      <trkpt lat="49.75761" lon="2.19475">
        <ele>72.9</ele>
        <time>2023-01-18T13:36:00Z</time>
      </trkpt>
      <trkpt lat="49.7576" lon="2.19477">
        <ele>72.9</ele>
        <time>2023-01-18T13:36:01Z</time>
      </trkpt>
      <trkpt lat="49.75759" lon="2.19477">
        <ele>72.7</ele>
        <time>2023-01-18T13:36:03Z</time>
      </trkpt>
      <trkpt lat="49.75758" lon="2.19479">
        <ele>72.9</ele>
        <time>2023-01-18T13:36:04Z</time>
      </trkpt>
      <trkpt lat="49.75757" lon="2.1948">
        <ele>72.9</ele>
        <time>2023-01-18T13:36:05Z</time>
      </trkpt>
      <trkpt lat="49.75756" lon="2.19481">
        <ele>72.7</ele>
        <time>2023-01-18T13:36:06Z</time>
      </trkpt>
      <trkpt lat="49.75756" lon="2.19482">
        <ele>72.9</ele>
        <time>2023-01-18T13:36:07Z</time>
      </trkpt>
      <trkpt lat="49.75755" lon="2.19483">
        <ele>72.9</ele>
        <time>2023-01-18T13:36:08Z</time>
      </trkpt>
      <trkpt lat="49.75754" lon="2.19483">
        <ele>72.9</ele>
        <time>2023-01-18T13:36:09Z</time>
      </trkpt>
      <trkpt lat="49.75754" lon="2.19484">
        <ele>72.7</ele>
        <time>2023-01-18T13:36:11Z</time>
      </trkpt>
      <trkpt lat="49.75753" lon="2.19484">
        <ele>72.7</ele>
        <time>2023-01-18T13:36:12Z</time>
      </trkpt>
      <trkpt lat="49.75752" lon="2.19485">
        <ele>72.7</ele>
        <time>2023-01-18T13:36:13Z</time>
      </trkpt>
      <trkpt lat="49.7575" lon="2.19485">
        <ele>72.5</ele>
        <time>2023-01-18T13:36:14Z</time>
      </trkpt>
      <trkpt lat="49.7575" lon="2.19486">
        <ele>72.5</ele>
        <time>2023-01-18T13:36:15Z</time>
      </trkpt>
      <trkpt lat="49.75749" lon="2.19487">
        <ele>72.7</ele>
        <time>2023-01-18T13:36:17Z</time>
      </trkpt>
      <trkpt lat="49.75748" lon="2.19488">
        <ele>72.4</ele>
        <time>2023-01-18T13:36:18Z</time>
      </trkpt>
      <trkpt lat="49.75747" lon="2.19488">
        <ele>72.4</ele>
        <time>2023-01-18T13:36:19Z</time>
      </trkpt>
      <trkpt lat="49.75746" lon="2.19488">
        <ele>72.4</ele>
        <time>2023-01-18T13:36:20Z</time>
      </trkpt>
      <trkpt lat="49.75745" lon="2.19489">
        <ele>72.2</ele>
        <time>2023-01-18T13:36:21Z</time>
      </trkpt>
      <trkpt lat="49.75745" lon="2.19489">
        <ele>72.2</ele>
        <time>2023-01-18T13:36:22Z</time>
      </trkpt>
      <trkpt lat="49.75744" lon="2.19489">
        <ele>72.2</ele>
        <time>2023-01-18T13:36:24Z</time>
      </trkpt>
      <trkpt lat="49.75744" lon="2.19489">
        <ele>72.2</ele>
        <time>2023-01-18T13:36:25Z</time>
      </trkpt>
      <trkpt lat="49.75743" lon="2.19489">
        <ele>72.2</ele>
        <time>2023-01-18T13:36:26Z</time>
      </trkpt>
      <trkpt lat="49.75743" lon="2.1949">
        <ele>72.2</ele>
        <time>2023-01-18T13:36:27Z</time>
      </trkpt>
      <trkpt lat="49.75742" lon="2.1949">
        <ele>72</ele>
        <time>2023-01-18T13:36:28Z</time>
      </trkpt>
      <trkpt lat="49.75741" lon="2.19491">
        <ele>72.3</ele>
        <time>2023-01-18T13:36:29Z</time>
      </trkpt>
      <trkpt lat="49.7574" lon="2.19491">
        <ele>72.3</ele>
        <time>2023-01-18T13:36:31Z</time>
      </trkpt>
      <trkpt lat="49.7574" lon="2.19492">
        <ele>72.1</ele>
        <time>2023-01-18T13:36:32Z</time>
      </trkpt>
      <trkpt lat="49.75739" lon="2.19493">
        <ele>72.1</ele>
        <time>2023-01-18T13:36:33Z</time>
      </trkpt>
      <trkpt lat="49.75738" lon="2.19494">
        <ele>72.1</ele>
        <time>2023-01-18T13:36:34Z</time>
      </trkpt>
      <trkpt lat="49.75737" lon="2.19495">
        <ele>71.9</ele>
        <time>2023-01-18T13:36:35Z</time>
      </trkpt>
      <trkpt lat="49.75736" lon="2.19496">
        <ele>72.1</ele>
        <time>2023-01-18T13:36:36Z</time>
      </trkpt>
      <trkpt lat="49.75735" lon="2.19497">
        <ele>72.1</ele>
        <time>2023-01-18T13:36:37Z</time>
      </trkpt>
      <trkpt lat="49.75734" lon="2.19498">
        <ele>71.9</ele>
        <time>2023-01-18T13:36:39Z</time>
      </trkpt>
      <trkpt lat="49.75734" lon="2.19499">
        <ele>71.9</ele>
        <time>2023-01-18T13:36:40Z</time>
      </trkpt>
      <trkpt lat="49.75733" lon="2.195">
        <ele>72.2</ele>
        <time>2023-01-18T13:36:41Z</time>
      </trkpt>
      <trkpt lat="49.75732" lon="2.19501">
        <ele>72.2</ele>
        <time>2023-01-18T13:36:42Z</time>
      </trkpt>
      <trkpt lat="49.75731" lon="2.19502">
        <ele>72</ele>
        <time>2023-01-18T13:36:43Z</time>
      </trkpt>
      <trkpt lat="49.7573" lon="2.19503">
        <ele>72</ele>
        <time>2023-01-18T13:36:45Z</time>
      </trkpt>
      <trkpt lat="49.75729" lon="2.19504">
        <ele>72.2</ele>
        <time>2023-01-18T13:36:46Z</time>
      </trkpt>
      <trkpt lat="49.75728" lon="2.19504">
        <ele>72.1</ele>
        <time>2023-01-18T13:36:47Z</time>
      </trkpt>
      <trkpt lat="49.75728" lon="2.19505">
        <ele>72.1</ele>
        <time>2023-01-18T13:36:48Z</time>
      </trkpt>
      <trkpt lat="49.75726" lon="2.19507">
        <ele>72.1</ele>
        <time>2023-01-18T13:36:49Z</time>
      </trkpt>
      <trkpt lat="49.75725" lon="2.19508">
        <ele>71.9</ele>
        <time>2023-01-18T13:36:50Z</time>
      </trkpt>
      <trkpt lat="49.75724" lon="2.1951">
        <ele>72.2</ele>
        <time>2023-01-18T13:36:52Z</time>
      </trkpt>
      <trkpt lat="49.75723" lon="2.19511">
        <ele>72.1</ele>
        <time>2023-01-18T13:36:53Z</time>
      </trkpt>
      <trkpt lat="49.75722" lon="2.19512">
        <ele>72.1</ele>
        <time>2023-01-18T13:36:54Z</time>
      </trkpt>
      <trkpt lat="49.7572" lon="2.19514">
        <ele>72.4</ele>
        <time>2023-01-18T13:36:55Z</time>
      </trkpt>
      <trkpt lat="49.7572" lon="2.19515">
        <ele>72.4</ele>
        <time>2023-01-18T13:36:56Z</time>
      </trkpt>
      <trkpt lat="49.75719" lon="2.19515">
        <ele>72.4</ele>
        <time>2023-01-18T13:36:57Z</time>
      </trkpt>
      <trkpt lat="49.75717" lon="2.19517">
        <ele>72.7</ele>
        <time>2023-01-18T13:36:59Z</time>
      </trkpt>
      <trkpt lat="49.75716" lon="2.19518">
        <ele>72.7</ele>
        <time>2023-01-18T13:37:00Z</time>
      </trkpt>
      <trkpt lat="49.75715" lon="2.1952">
        <ele>72.7</ele>
        <time>2023-01-18T13:37:01Z</time>
      </trkpt>
      <trkpt lat="49.75714" lon="2.19521">
        <ele>73.1</ele>
        <time>2023-01-18T13:37:02Z</time>
      </trkpt>
      <trkpt lat="49.75713" lon="2.19522">
        <ele>73.1</ele>
        <time>2023-01-18T13:37:03Z</time>
      </trkpt>
      <trkpt lat="49.75712" lon="2.19524">
        <ele>73.1</ele>
        <time>2023-01-18T13:37:05Z</time>
      </trkpt>
      <trkpt lat="49.75711" lon="2.19525">
        <ele>73.5</ele>
        <time>2023-01-18T13:37:06Z</time>
      </trkpt>
      <trkpt lat="49.7571" lon="2.19526">
        <ele>73.5</ele>
        <time>2023-01-18T13:37:07Z</time>
      </trkpt>
      <trkpt lat="49.75709" lon="2.19527">
        <ele>73.6</ele>
        <time>2023-01-18T13:37:08Z</time>
      </trkpt>
      <trkpt lat="49.75708" lon="2.1953">
        <ele>74</ele>
        <time>2023-01-18T13:37:10Z</time>
      </trkpt>
      <trkpt lat="49.75707" lon="2.19532">
        <ele>74</ele>
        <time>2023-01-18T13:37:11Z</time>
      </trkpt>
      <trkpt lat="49.75707" lon="2.19533">
        <ele>74</ele>
        <time>2023-01-18T13:37:12Z</time>
      </trkpt>
      <trkpt lat="49.75706" lon="2.19534">
        <ele>74.5</ele>
        <time>2023-01-18T13:37:13Z</time>
      </trkpt>
      <trkpt lat="49.75706" lon="2.19535">
        <ele>74.5</ele>
        <time>2023-01-18T13:37:14Z</time>
      </trkpt>
      <trkpt lat="49.75706" lon="2.19537">
        <ele>74.5</ele>
        <time>2023-01-18T13:37:16Z</time>
      </trkpt>
      <trkpt lat="49.75705" lon="2.19538">
        <ele>75</ele>
        <time>2023-01-18T13:37:17Z</time>
      </trkpt>
      <trkpt lat="49.75704" lon="2.19539">
        <ele>75.1</ele>
        <time>2023-01-18T13:37:18Z</time>
      </trkpt>
      <trkpt lat="49.75703" lon="2.1954">
        <ele>75.1</ele>
        <time>2023-01-18T13:37:20Z</time>
      </trkpt>
      <trkpt lat="49.75702" lon="2.1954">
        <ele>75.1</ele>
        <time>2023-01-18T13:37:21Z</time>
      </trkpt>
      <trkpt lat="49.75702" lon="2.19541">
        <ele>75.1</ele>
        <time>2023-01-18T13:37:22Z</time>
      </trkpt>
      <trkpt lat="49.75701" lon="2.19541">
        <ele>75.3</ele>
        <time>2023-01-18T13:37:23Z</time>
      </trkpt>
      <trkpt lat="49.757" lon="2.19542">
        <ele>75.3</ele>
        <time>2023-01-18T13:37:24Z</time>
      </trkpt>
      <trkpt lat="49.75699" lon="2.19544">
        <ele>75.7</ele>
        <time>2023-01-18T13:37:26Z</time>
      </trkpt>
      <trkpt lat="49.75698" lon="2.19544">
        <ele>75.9</ele>
        <time>2023-01-18T13:37:27Z</time>
      </trkpt>
      <trkpt lat="49.75697" lon="2.19545">
        <ele>75.9</ele>
        <time>2023-01-18T13:37:28Z</time>
      </trkpt>
      <trkpt lat="49.75696" lon="2.19545">
        <ele>75.9</ele>
        <time>2023-01-18T13:37:30Z</time>
      </trkpt>
      <trkpt lat="49.75694" lon="2.19546">
        <ele>76.1</ele>
        <time>2023-01-18T13:37:31Z</time>
      </trkpt>
      <trkpt lat="49.75693" lon="2.19547">
        <ele>76.8</ele>
        <time>2023-01-18T13:37:33Z</time>
      </trkpt>
      <trkpt lat="49.75692" lon="2.19547">
        <ele>76.8</ele>
        <time>2023-01-18T13:37:34Z</time>
      </trkpt>
      <trkpt lat="49.75691" lon="2.19548">
        <ele>76.8</ele>
        <time>2023-01-18T13:37:35Z</time>
      </trkpt>
      <trkpt lat="49.75689" lon="2.1955">
        <ele>77.1</ele>
        <time>2023-01-18T13:37:37Z</time>
      </trkpt>
      <trkpt lat="49.75688" lon="2.1955">
        <ele>77.1</ele>
        <time>2023-01-18T13:37:38Z</time>
      </trkpt>
      <trkpt lat="49.75687" lon="2.19551">
        <ele>77.9</ele>
        <time>2023-01-18T13:37:40Z</time>
      </trkpt>
      <trkpt lat="49.75686" lon="2.19552">
        <ele>77.9</ele>
        <time>2023-01-18T13:37:41Z</time>
      </trkpt>
      <trkpt lat="49.75686" lon="2.19552">
        <ele>77.9</ele>
        <time>2023-01-18T13:37:43Z</time>
      </trkpt>
      <trkpt lat="49.75686" lon="2.19552">
        <ele>77.9</ele>
        <time>2023-01-18T13:37:44Z</time>
      </trkpt>
      <trkpt lat="49.75685" lon="2.19552">
        <ele>77.9</ele>
        <time>2023-01-18T13:37:46Z</time>
      </trkpt>
      <trkpt lat="49.75685" lon="2.19552">
        <ele>77.9</ele>
        <time>2023-01-18T13:37:47Z</time>
      </trkpt>
      <trkpt lat="49.75685" lon="2.19552">
        <ele>77.9</ele>
        <time>2023-01-18T13:37:49Z</time>
      </trkpt>
      <trkpt lat="49.75685" lon="2.19552">
        <ele>77.9</ele>
        <time>2023-01-18T13:37:50Z</time>
      </trkpt>
      <trkpt lat="49.75685" lon="2.19552">
        <ele>77.9</ele>
        <time>2023-01-18T13:37:51Z</time>
      </trkpt>
      <trkpt lat="49.75685" lon="2.19552">
        <ele>77.9</ele>
        <time>2023-01-18T13:37:53Z</time>
      </trkpt>
      <trkpt lat="49.75685" lon="2.19553">
        <ele>77.9</ele>
        <time>2023-01-18T13:37:54Z</time>
      </trkpt>
      <trkpt lat="49.75684" lon="2.19553">
        <ele>78.2</ele>
        <time>2023-01-18T13:37:56Z</time>
      </trkpt>
      <trkpt lat="49.75684" lon="2.19552">
        <ele>78.2</ele>
        <time>2023-01-18T13:37:57Z</time>
      </trkpt>
      <trkpt lat="49.75684" lon="2.19552">
        <ele>78.2</ele>
        <time>2023-01-18T13:37:58Z</time>
      </trkpt>
      <trkpt lat="49.75684" lon="2.19552">
        <ele>78.2</ele>
        <time>2023-01-18T13:37:59Z</time>
      </trkpt>
      <trkpt lat="49.75684" lon="2.19552">
        <ele>78.2</ele>
        <time>2023-01-18T13:38:00Z</time>
      </trkpt>
      <trkpt lat="49.75684" lon="2.19552">
        <ele>78.2</ele>
        <time>2023-01-18T13:38:01Z</time>
      </trkpt>
      <trkpt lat="49.75684" lon="2.19552">
        <ele>78.2</ele>
        <time>2023-01-18T13:38:02Z</time>
      </trkpt>
      <trkpt lat="49.75684" lon="2.19552">
        <ele>78.2</ele>
        <time>2023-01-18T13:38:03Z</time>
      </trkpt>
      <trkpt lat="49.75684" lon="2.19552">
        <ele>78.2</ele>
        <time>2023-01-18T13:38:04Z</time>
      </trkpt>
      <trkpt lat="49.75684" lon="2.19552">
        <ele>78.2</ele>
        <time>2023-01-18T13:38:05Z</time>
      </trkpt>
      <trkpt lat="49.75684" lon="2.19552">
        <ele>78.2</ele>
        <time>2023-01-18T13:38:06Z</time>
      </trkpt>
      <trkpt lat="49.75684" lon="2.19552">
        <ele>78.2</ele>
        <time>2023-01-18T13:38:07Z</time>
      </trkpt>
      <trkpt lat="49.75684" lon="2.19552">
        <ele>78.2</ele>
        <time>2023-01-18T13:38:08Z</time>
      </trkpt>
      <trkpt lat="49.75684" lon="2.19552">
        <ele>78.2</ele>
        <time>2023-01-18T13:38:09Z</time>
      </trkpt>
      <trkpt lat="49.75684" lon="2.19552">
        <ele>78.2</ele>
        <time>2023-01-18T13:38:10Z</time>
      </trkpt>
      <trkpt lat="49.75684" lon="2.19552">
        <ele>78.2</ele>
        <time>2023-01-18T13:38:11Z</time>
      </trkpt>
      <trkpt lat="49.75684" lon="2.19552">
        <ele>78.2</ele>
        <time>2023-01-18T13:38:12Z</time>
      </trkpt>
      <trkpt lat="49.75684" lon="2.19552">
        <ele>78.2</ele>
        <time>2023-01-18T13:38:13Z</time>
      </trkpt>
      <trkpt lat="49.75684" lon="2.19552">
        <ele>78.2</ele>
        <time>2023-01-18T13:38:14Z</time>
      </trkpt>
      <trkpt lat="49.75684" lon="2.19552">
        <ele>78.2</ele>
        <time>2023-01-18T13:38:15Z</time>
      </trkpt>
      <trkpt lat="49.75684" lon="2.19552">
        <ele>78.2</ele>
        <time>2023-01-18T13:38:16Z</time>
      </trkpt>
      <trkpt lat="49.75684" lon="2.19552">
        <ele>78.2</ele>
        <time>2023-01-18T13:38:17Z</time>
      </trkpt>
      <trkpt lat="49.75684" lon="2.19552">
        <ele>78.2</ele>
        <time>2023-01-18T13:38:18Z</time>
      </trkpt>
      <trkpt lat="49.75684" lon="2.19552">
        <ele>78.2</ele>
        <time>2023-01-18T13:38:19Z</time>
      </trkpt>
      <trkpt lat="49.75684" lon="2.19552">
        <ele>78.2</ele>
        <time>2023-01-18T13:38:20Z</time>
      </trkpt>
      <trkpt lat="49.75684" lon="2.19552">
        <ele>78.2</ele>
        <time>2023-01-18T13:38:21Z</time>
      </trkpt>
      <trkpt lat="49.75684" lon="2.19552">
        <ele>78.2</ele>
        <time>2023-01-18T13:38:22Z</time>
      </trkpt>
      <trkpt lat="49.75684" lon="2.19552">
        <ele>78.2</ele>
        <time>2023-01-18T13:38:23Z</time>
      </trkpt>
      <trkpt lat="49.75684" lon="2.19551">
        <ele>78.2</ele>
        <time>2023-01-18T13:38:25Z</time>
      </trkpt>
      <trkpt lat="49.75683" lon="2.1955">
        <ele>77.7</ele>
        <time>2023-01-18T13:38:26Z</time>
      </trkpt>
      <trkpt lat="49.75682" lon="2.19549">
        <ele>77.7</ele>
        <time>2023-01-18T13:38:27Z</time>
      </trkpt>
      <trkpt lat="49.75682" lon="2.19548">
        <ele>78.1</ele>
        <time>2023-01-18T13:38:28Z</time>
      </trkpt>
      <trkpt lat="49.75681" lon="2.19547">
        <ele>78.1</ele>
        <time>2023-01-18T13:38:30Z</time>
      </trkpt>
      <trkpt lat="49.75681" lon="2.19547">
        <ele>78.1</ele>
        <time>2023-01-18T13:38:31Z</time>
      </trkpt>
      <trkpt lat="49.75682" lon="2.19547">
        <ele>78.1</ele>
        <time>2023-01-18T13:38:32Z</time>
      </trkpt>
      <trkpt lat="49.75682" lon="2.19547">
        <ele>78.1</ele>
        <time>2023-01-18T13:38:34Z</time>
      </trkpt>
      <trkpt lat="49.75682" lon="2.19547">
        <ele>78.1</ele>
        <time>2023-01-18T13:38:35Z</time>
      </trkpt>
      <trkpt lat="49.75682" lon="2.19547">
        <ele>78.1</ele>
        <time>2023-01-18T13:38:37Z</time>
      </trkpt>
      <trkpt lat="49.75682" lon="2.19547">
        <ele>78.1</ele>
        <time>2023-01-18T13:38:38Z</time>
      </trkpt>
      <trkpt lat="49.75682" lon="2.19547">
        <ele>77.7</ele>
        <time>2023-01-18T13:38:40Z</time>
      </trkpt>
      <trkpt lat="49.75682" lon="2.19547">
        <ele>77.7</ele>
        <time>2023-01-18T13:38:41Z</time>
      </trkpt>
      <trkpt lat="49.75682" lon="2.19547">
        <ele>77.7</ele>
        <time>2023-01-18T13:38:43Z</time>
      </trkpt>
      <trkpt lat="49.75682" lon="2.19547">
        <ele>77.7</ele>
        <time>2023-01-18T13:38:44Z</time>
      </trkpt>
      <trkpt lat="49.75682" lon="2.19546">
        <ele>77.7</ele>
        <time>2023-01-18T13:38:45Z</time>
      </trkpt>
      <trkpt lat="49.75682" lon="2.19546">
        <ele>77.7</ele>
        <time>2023-01-18T13:38:46Z</time>
      </trkpt>
      <trkpt lat="49.75682" lon="2.19546">
        <ele>77.4</ele>
        <time>2023-01-18T13:38:47Z</time>
      </trkpt>
      <trkpt lat="49.75682" lon="2.19546">
        <ele>77.4</ele>
        <time>2023-01-18T13:38:48Z</time>
      </trkpt>
      <trkpt lat="49.75682" lon="2.19546">
        <ele>77.4</ele>
        <time>2023-01-18T13:38:49Z</time>
      </trkpt>
      <trkpt lat="49.75682" lon="2.19546">
        <ele>77.4</ele>
        <time>2023-01-18T13:38:50Z</time>
      </trkpt>
      <trkpt lat="49.75682" lon="2.19546">
        <ele>77.4</ele>
        <time>2023-01-18T13:38:51Z</time>
      </trkpt>
      <trkpt lat="49.75682" lon="2.19546">
        <ele>77.4</ele>
        <time>2023-01-18T13:38:52Z</time>
      </trkpt>
      <trkpt lat="49.75683" lon="2.19546">
        <ele>77.4</ele>
        <time>2023-01-18T13:38:53Z</time>
      </trkpt>
      <trkpt lat="49.75683" lon="2.19546">
        <ele>77.4</ele>
        <time>2023-01-18T13:38:54Z</time>
      </trkpt>
      <trkpt lat="49.75683" lon="2.19546">
        <ele>77.4</ele>
        <time>2023-01-18T13:38:55Z</time>
      </trkpt>
      <trkpt lat="49.75683" lon="2.19546">
        <ele>77.4</ele>
        <time>2023-01-18T13:38:56Z</time>
      </trkpt>
      <trkpt lat="49.75683" lon="2.19545">
        <ele>77.4</ele>
        <time>2023-01-18T13:38:57Z</time>
      </trkpt>
      <trkpt lat="49.75683" lon="2.19545">
        <ele>77.4</ele>
        <time>2023-01-18T13:38:58Z</time>
      </trkpt>
      <trkpt lat="49.75683" lon="2.19545">
        <ele>77.4</ele>
        <time>2023-01-18T13:38:59Z</time>
      </trkpt>
      <trkpt lat="49.75683" lon="2.19545">
        <ele>77.4</ele>
        <time>2023-01-18T13:39:00Z</time>
      </trkpt>
      <trkpt lat="49.75683" lon="2.19545">
        <ele>77.4</ele>
        <time>2023-01-18T13:39:01Z</time>
      </trkpt>
      <trkpt lat="49.75683" lon="2.19545">
        <ele>77.4</ele>
        <time>2023-01-18T13:39:02Z</time>
      </trkpt>
      <trkpt lat="49.75683" lon="2.19545">
        <ele>77.4</ele>
        <time>2023-01-18T13:39:03Z</time>
      </trkpt>
      <trkpt lat="49.75683" lon="2.19545">
        <ele>77.4</ele>
        <time>2023-01-18T13:39:04Z</time>
      </trkpt>
      <trkpt lat="49.75683" lon="2.19545">
        <ele>77.4</ele>
        <time>2023-01-18T13:39:05Z</time>
      </trkpt>
      <trkpt lat="49.75683" lon="2.19545">
        <ele>77.4</ele>
        <time>2023-01-18T13:39:06Z</time>
      </trkpt>
      <trkpt lat="49.75683" lon="2.19545">
        <ele>77.4</ele>
        <time>2023-01-18T13:39:07Z</time>
      </trkpt>
      <trkpt lat="49.75683" lon="2.19544">
        <ele>77.4</ele>
        <time>2023-01-18T13:39:08Z</time>
      </trkpt>
      <trkpt lat="49.75683" lon="2.19544">
        <ele>77.4</ele>
        <time>2023-01-18T13:39:09Z</time>
      </trkpt>
      <trkpt lat="49.75684" lon="2.19544">
        <ele>77.4</ele>
        <time>2023-01-18T13:39:10Z</time>
      </trkpt>
      <trkpt lat="49.75684" lon="2.19544">
        <ele>77.4</ele>
        <time>2023-01-18T13:39:11Z</time>
      </trkpt>
      <trkpt lat="49.75684" lon="2.19544">
        <ele>77.4</ele>
        <time>2023-01-18T13:39:12Z</time>
      </trkpt>
      <trkpt lat="49.75684" lon="2.19544">
        <ele>77.4</ele>
        <time>2023-01-18T13:39:13Z</time>
      </trkpt>
      <trkpt lat="49.75684" lon="2.19544">
        <ele>77.4</ele>
        <time>2023-01-18T13:39:14Z</time>
      </trkpt>
      <trkpt lat="49.75684" lon="2.19544">
        <ele>77.4</ele>
        <time>2023-01-18T13:39:15Z</time>
      </trkpt>
      <trkpt lat="49.75684" lon="2.19544">
        <ele>77.4</ele>
        <time>2023-01-18T13:39:16Z</time>
      </trkpt>
      <trkpt lat="49.75684" lon="2.19544">
        <ele>77.4</ele>
        <time>2023-01-18T13:39:17Z</time>
      </trkpt>
      <trkpt lat="49.75684" lon="2.19544">
        <ele>77.4</ele>
        <time>2023-01-18T13:39:18Z</time>
      </trkpt>
      <trkpt lat="49.75684" lon="2.19544">
        <ele>77.4</ele>
        <time>2023-01-18T13:39:19Z</time>
      </trkpt>
      <trkpt lat="49.75684" lon="2.19543">
        <ele>77.4</ele>
        <time>2023-01-18T13:39:20Z</time>
      </trkpt>
      <trkpt lat="49.75684" lon="2.19543">
        <ele>77.4</ele>
        <time>2023-01-18T13:39:21Z</time>
      </trkpt>
      <trkpt lat="49.75684" lon="2.19543">
        <ele>77.4</ele>
        <time>2023-01-18T13:39:22Z</time>
      </trkpt>
      <trkpt lat="49.75684" lon="2.19543">
        <ele>77.4</ele>
        <time>2023-01-18T13:39:23Z</time>
      </trkpt>
      <trkpt lat="49.75684" lon="2.19543">
        <ele>77.4</ele>
        <time>2023-01-18T13:39:24Z</time>
      </trkpt>
      <trkpt lat="49.75684" lon="2.19543">
        <ele>77.4</ele>
        <time>2023-01-18T13:39:25Z</time>
      </trkpt>
      <trkpt lat="49.75684" lon="2.19543">
        <ele>77.4</ele>
        <time>2023-01-18T13:39:26Z</time>
      </trkpt>
      <trkpt lat="49.75685" lon="2.19543">
        <ele>77</ele>
        <time>2023-01-18T13:39:27Z</time>
      </trkpt>
      <trkpt lat="49.75685" lon="2.19543">
        <ele>77</ele>
        <time>2023-01-18T13:39:28Z</time>
      </trkpt>
      <trkpt lat="49.75685" lon="2.19543">
        <ele>77</ele>
        <time>2023-01-18T13:39:29Z</time>
      </trkpt>
      <trkpt lat="49.75685" lon="2.19543">
        <ele>77</ele>
        <time>2023-01-18T13:39:30Z</time>
      </trkpt>
      <trkpt lat="49.75685" lon="2.19542">
        <ele>77</ele>
        <time>2023-01-18T13:39:31Z</time>
      </trkpt>
      <trkpt lat="49.75685" lon="2.19542">
        <ele>77</ele>
        <time>2023-01-18T13:39:32Z</time>
      </trkpt>
      <trkpt lat="49.75685" lon="2.19542">
        <ele>77</ele>
        <time>2023-01-18T13:39:33Z</time>
      </trkpt>
      <trkpt lat="49.75685" lon="2.19542">
        <ele>77</ele>
        <time>2023-01-18T13:39:34Z</time>
      </trkpt>
      <trkpt lat="49.75685" lon="2.19542">
        <ele>77</ele>
        <time>2023-01-18T13:39:35Z</time>
      </trkpt>
      <trkpt lat="49.75685" lon="2.19542">
        <ele>76.6</ele>
        <time>2023-01-18T13:39:36Z</time>
      </trkpt>
      <trkpt lat="49.75685" lon="2.19542">
        <ele>76.6</ele>
        <time>2023-01-18T13:39:37Z</time>
      </trkpt>
      <trkpt lat="49.75686" lon="2.19541">
        <ele>76.6</ele>
        <time>2023-01-18T13:39:38Z</time>
      </trkpt>
      <trkpt lat="49.75686" lon="2.1954">
        <ele>76.6</ele>
        <time>2023-01-18T13:39:39Z</time>
      </trkpt>
      <trkpt lat="49.75686" lon="2.1954">
        <ele>76.6</ele>
        <time>2023-01-18T13:39:40Z</time>
      </trkpt>
      <trkpt lat="49.75686" lon="2.1954">
        <ele>76.6</ele>
        <time>2023-01-18T13:39:41Z</time>
      </trkpt>
      <trkpt lat="49.75686" lon="2.1954">
        <ele>76.6</ele>
        <time>2023-01-18T13:39:42Z</time>
      </trkpt>
      <trkpt lat="49.75686" lon="2.19541">
        <ele>76.6</ele>
        <time>2023-01-18T13:39:43Z</time>
      </trkpt>
      <trkpt lat="49.75686" lon="2.19541">
        <ele>76.6</ele>
        <time>2023-01-18T13:39:44Z</time>
      </trkpt>
      <trkpt lat="49.75687" lon="2.19541">
        <ele>76.6</ele>
        <time>2023-01-18T13:39:45Z</time>
      </trkpt>
      <trkpt lat="49.75687" lon="2.19541">
        <ele>76.6</ele>
        <time>2023-01-18T13:39:46Z</time>
      </trkpt>
      <trkpt lat="49.75687" lon="2.19541">
        <ele>76.6</ele>
        <time>2023-01-18T13:39:47Z</time>
      </trkpt>
      <trkpt lat="49.75687" lon="2.19541">
        <ele>76.6</ele>
        <time>2023-01-18T13:39:48Z</time>
      </trkpt>
      <trkpt lat="49.75687" lon="2.19542">
        <ele>76.6</ele>
        <time>2023-01-18T13:39:49Z</time>
      </trkpt>
      <trkpt lat="49.75687" lon="2.19542">
        <ele>76.6</ele>
        <time>2023-01-18T13:39:50Z</time>
      </trkpt>
      <trkpt lat="49.75687" lon="2.19542">
        <ele>76.6</ele>
        <time>2023-01-18T13:39:51Z</time>
      </trkpt>
      <trkpt lat="49.75687" lon="2.19542">
        <ele>76.6</ele>
        <time>2023-01-18T13:39:52Z</time>
      </trkpt>
      <trkpt lat="49.75687" lon="2.19542">
        <ele>76.6</ele>
        <time>2023-01-18T13:39:53Z</time>
      </trkpt>
      <trkpt lat="49.75687" lon="2.19542">
        <ele>76.6</ele>
        <time>2023-01-18T13:39:54Z</time>
      </trkpt>
      <trkpt lat="49.75687" lon="2.19542">
        <ele>76.6</ele>
        <time>2023-01-18T13:39:55Z</time>
      </trkpt>
      <trkpt lat="49.75687" lon="2.19542">
        <ele>76.6</ele>
        <time>2023-01-18T13:39:56Z</time>
      </trkpt>
      <trkpt lat="49.75687" lon="2.19542">
        <ele>76.6</ele>
        <time>2023-01-18T13:39:57Z</time>
      </trkpt>
      <trkpt lat="49.75687" lon="2.19542">
        <ele>76.6</ele>
        <time>2023-01-18T13:39:58Z</time>
      </trkpt>
      <trkpt lat="49.75687" lon="2.19542">
        <ele>76.6</ele>
        <time>2023-01-18T13:39:59Z</time>
      </trkpt>
      <trkpt lat="49.75687" lon="2.19542">
        <ele>76.6</ele>
        <time>2023-01-18T13:40:00Z</time>
      </trkpt>
      <trkpt lat="49.75687" lon="2.19542">
        <ele>76.6</ele>
        <time>2023-01-18T13:40:01Z</time>
      </trkpt>
      <trkpt lat="49.75687" lon="2.19542">
        <ele>76.6</ele>
        <time>2023-01-18T13:40:02Z</time>
      </trkpt>
      <trkpt lat="49.75687" lon="2.19542">
        <ele>76.6</ele>
        <time>2023-01-18T13:40:03Z</time>
      </trkpt>
      <trkpt lat="49.75687" lon="2.19542">
        <ele>76.6</ele>
        <time>2023-01-18T13:40:04Z</time>
      </trkpt>
      <trkpt lat="49.75687" lon="2.19542">
        <ele>76.6</ele>
        <time>2023-01-18T13:40:05Z</time>
      </trkpt>
      <trkpt lat="49.75687" lon="2.19542">
        <ele>76.6</ele>
        <time>2023-01-18T13:40:06Z</time>
      </trkpt>
      <trkpt lat="49.75687" lon="2.19542">
        <ele>76.6</ele>
        <time>2023-01-18T13:40:07Z</time>
      </trkpt>
      <trkpt lat="49.75687" lon="2.19542">
        <ele>76.6</ele>
        <time>2023-01-18T13:40:08Z</time>
      </trkpt>
      <trkpt lat="49.75687" lon="2.19542">
        <ele>76.6</ele>
        <time>2023-01-18T13:40:09Z</time>
      </trkpt>
      <trkpt lat="49.75687" lon="2.19542">
        <ele>76.6</ele>
        <time>2023-01-18T13:40:10Z</time>
      </trkpt>
      <trkpt lat="49.75687" lon="2.19542">
        <ele>76.6</ele>
        <time>2023-01-18T13:40:11Z</time>
      </trkpt>
      <trkpt lat="49.75687" lon="2.19542">
        <ele>76.6</ele>
        <time>2023-01-18T13:40:12Z</time>
      </trkpt>
      <trkpt lat="49.75687" lon="2.19542">
        <ele>76.6</ele>
        <time>2023-01-18T13:40:13Z</time>
      </trkpt>
      <trkpt lat="49.75687" lon="2.19542">
        <ele>76.6</ele>
        <time>2023-01-18T13:40:14Z</time>
      </trkpt>
      <trkpt lat="49.75687" lon="2.19542">
        <ele>76.6</ele>
        <time>2023-01-18T13:40:15Z</time>
      </trkpt>
      <trkpt lat="49.75687" lon="2.19542">
        <ele>76.6</ele>
        <time>2023-01-18T13:40:16Z</time>
      </trkpt>
      <trkpt lat="49.75687" lon="2.19542">
        <ele>76.6</ele>
        <time>2023-01-18T13:40:17Z</time>
      </trkpt>
      <trkpt lat="49.75687" lon="2.19542">
        <ele>76.6</ele>
        <time>2023-01-18T13:40:18Z</time>
      </trkpt>
      <trkpt lat="49.75687" lon="2.19542">
        <ele>76.6</ele>
        <time>2023-01-18T13:40:19Z</time>
      </trkpt>
      <trkpt lat="49.75687" lon="2.19542">
        <ele>76.6</ele>
        <time>2023-01-18T13:40:20Z</time>
      </trkpt>
      <trkpt lat="49.75687" lon="2.19542">
        <ele>76.6</ele>
        <time>2023-01-18T13:40:21Z</time>
      </trkpt>
      <trkpt lat="49.75687" lon="2.19542">
        <ele>76.6</ele>
        <time>2023-01-18T13:40:22Z</time>
      </trkpt>
      <trkpt lat="49.75687" lon="2.19542">
        <ele>76.6</ele>
        <time>2023-01-18T13:40:23Z</time>
      </trkpt>
      <trkpt lat="49.75687" lon="2.19542">
        <ele>76.6</ele>
        <time>2023-01-18T13:40:24Z</time>
      </trkpt>
      <trkpt lat="49.75687" lon="2.19542">
        <ele>76.6</ele>
        <time>2023-01-18T13:40:25Z</time>
      </trkpt>
      <trkpt lat="49.75687" lon="2.19542">
        <ele>76.6</ele>
        <time>2023-01-18T13:40:26Z</time>
      </trkpt>
      <trkpt lat="49.75687" lon="2.19542">
        <ele>76.6</ele>
        <time>2023-01-18T13:40:27Z</time>
      </trkpt>
      <trkpt lat="49.75687" lon="2.19542">
        <ele>76.6</ele>
        <time>2023-01-18T13:40:28Z</time>
      </trkpt>
      <trkpt lat="49.75687" lon="2.19542">
        <ele>76.6</ele>
        <time>2023-01-18T13:40:29Z</time>
      </trkpt>
      <trkpt lat="49.75687" lon="2.19542">
        <ele>76.6</ele>
        <time>2023-01-18T13:40:30Z</time>
      </trkpt>
      <trkpt lat="49.75687" lon="2.19542">
        <ele>76.6</ele>
        <time>2023-01-18T13:40:31Z</time>
      </trkpt>
      <trkpt lat="49.75687" lon="2.19542">
        <ele>76.6</ele>
        <time>2023-01-18T13:40:32Z</time>
      </trkpt>
      <trkpt lat="49.75687" lon="2.19542">
        <ele>76.6</ele>
        <time>2023-01-18T13:40:33Z</time>
      </trkpt>
      <trkpt lat="49.75687" lon="2.19542">
        <ele>76.6</ele>
        <time>2023-01-18T13:40:34Z</time>
      </trkpt>
      <trkpt lat="49.75687" lon="2.19542">
        <ele>76.6</ele>
        <time>2023-01-18T13:40:35Z</time>
      </trkpt>
      <trkpt lat="49.75687" lon="2.19542">
        <ele>76.6</ele>
        <time>2023-01-18T13:40:36Z</time>
      </trkpt>
      <trkpt lat="49.75687" lon="2.19542">
        <ele>76.6</ele>
        <time>2023-01-18T13:40:37Z</time>
      </trkpt>
      <trkpt lat="49.75687" lon="2.19542">
        <ele>76.6</ele>
        <time>2023-01-18T13:40:38Z</time>
      </trkpt>
      <trkpt lat="49.75687" lon="2.19542">
        <ele>76.6</ele>
        <time>2023-01-18T13:40:39Z</time>
      </trkpt>
      <trkpt lat="49.75687" lon="2.19542">
        <ele>76.6</ele>
        <time>2023-01-18T13:40:40Z</time>
      </trkpt>
      <trkpt lat="49.75687" lon="2.19542">
        <ele>76.6</ele>
        <time>2023-01-18T13:40:41Z</time>
      </trkpt>
      <trkpt lat="49.75687" lon="2.19542">
        <ele>76.6</ele>
        <time>2023-01-18T13:40:42Z</time>
      </trkpt>
      <trkpt lat="49.75687" lon="2.19542">
        <ele>76.6</ele>
        <time>2023-01-18T13:40:43Z</time>
      </trkpt>
      <trkpt lat="49.75687" lon="2.19542">
        <ele>76.6</ele>
        <time>2023-01-18T13:40:44Z</time>
      </trkpt>
      <trkpt lat="49.75687" lon="2.19542">
        <ele>76.6</ele>
        <time>2023-01-18T13:40:45Z</time>
      </trkpt>
      <trkpt lat="49.75687" lon="2.19542">
        <ele>76.6</ele>
        <time>2023-01-18T13:40:46Z</time>
      </trkpt>
      <trkpt lat="49.75687" lon="2.19542">
        <ele>76.6</ele>
        <time>2023-01-18T13:40:47Z</time>
      </trkpt>
      <trkpt lat="49.75687" lon="2.19542">
        <ele>76.6</ele>
        <time>2023-01-18T13:40:48Z</time>
      </trkpt>
      <trkpt lat="49.75687" lon="2.19542">
        <ele>76.6</ele>
        <time>2023-01-18T13:40:49Z</time>
      </trkpt>
      <trkpt lat="49.75687" lon="2.19542">
        <ele>76.6</ele>
        <time>2023-01-18T13:40:50Z</time>
      </trkpt>
      <trkpt lat="49.75687" lon="2.19542">
        <ele>76.6</ele>
        <time>2023-01-18T13:40:51Z</time>
      </trkpt>
      <trkpt lat="49.75687" lon="2.19542">
        <ele>76.6</ele>
        <time>2023-01-18T13:40:52Z</time>
      </trkpt>
      <trkpt lat="49.75687" lon="2.19542">
        <ele>76.6</ele>
        <time>2023-01-18T13:40:53Z</time>
      </trkpt>
      <trkpt lat="49.75687" lon="2.19542">
        <ele>76.6</ele>
        <time>2023-01-18T13:40:54Z</time>
      </trkpt>
      <trkpt lat="49.75687" lon="2.19542">
        <ele>76.6</ele>
        <time>2023-01-18T13:40:55Z</time>
      </trkpt>
      <trkpt lat="49.75687" lon="2.19542">
        <ele>76.6</ele>
        <time>2023-01-18T13:40:56Z</time>
      </trkpt>
      <trkpt lat="49.75687" lon="2.19542">
        <ele>76.6</ele>
        <time>2023-01-18T13:40:57Z</time>
      </trkpt>
      <trkpt lat="49.75687" lon="2.19542">
        <ele>76.6</ele>
        <time>2023-01-18T13:40:58Z</time>
      </trkpt>
      <trkpt lat="49.75687" lon="2.19542">
        <ele>76.6</ele>
        <time>2023-01-18T13:40:59Z</time>
      </trkpt>
      <trkpt lat="49.75687" lon="2.19542">
        <ele>76.6</ele>
        <time>2023-01-18T13:41:00Z</time>
      </trkpt>
      <trkpt lat="49.75687" lon="2.19542">
        <ele>76.6</ele>
        <time>2023-01-18T13:41:01Z</time>
      </trkpt>
      <trkpt lat="49.75687" lon="2.19542">
        <ele>76.6</ele>
        <time>2023-01-18T13:41:02Z</time>
      </trkpt>
      <trkpt lat="49.75687" lon="2.19542">
        <ele>76.6</ele>
        <time>2023-01-18T13:41:03Z</time>
      </trkpt>
      <trkpt lat="49.75687" lon="2.19542">
        <ele>76.6</ele>
        <time>2023-01-18T13:41:04Z</time>
      </trkpt>
      <trkpt lat="49.75687" lon="2.19542">
        <ele>76.6</ele>
        <time>2023-01-18T13:41:05Z</time>
      </trkpt>
      <trkpt lat="49.75687" lon="2.19542">
        <ele>76.6</ele>
        <time>2023-01-18T13:41:06Z</time>
      </trkpt>
      <trkpt lat="49.75687" lon="2.19542">
        <ele>76.6</ele>
        <time>2023-01-18T13:41:07Z</time>
      </trkpt>
      <trkpt lat="49.75687" lon="2.19542">
        <ele>76.6</ele>
        <time>2023-01-18T13:41:08Z</time>
      </trkpt>
      <trkpt lat="49.75687" lon="2.19542">
        <ele>76.6</ele>
        <time>2023-01-18T13:41:09Z</time>
      </trkpt>
      <trkpt lat="49.75687" lon="2.19542">
        <ele>76.6</ele>
        <time>2023-01-18T13:41:10Z</time>
      </trkpt>
      <trkpt lat="49.75687" lon="2.19542">
        <ele>76.6</ele>
        <time>2023-01-18T13:41:11Z</time>
      </trkpt>
      <trkpt lat="49.75687" lon="2.19542">
        <ele>76.6</ele>
        <time>2023-01-18T13:41:12Z</time>
      </trkpt>
      <trkpt lat="49.75687" lon="2.19542">
        <ele>76.6</ele>
        <time>2023-01-18T13:41:13Z</time>
      </trkpt>
      <trkpt lat="49.75687" lon="2.19542">
        <ele>76.6</ele>
        <time>2023-01-18T13:41:14Z</time>
      </trkpt>
      <trkpt lat="49.75687" lon="2.19542">
        <ele>76.6</ele>
        <time>2023-01-18T13:41:15Z</time>
      </trkpt>
      <trkpt lat="49.75687" lon="2.19542">
        <ele>76.6</ele>
        <time>2023-01-18T13:41:16Z</time>
      </trkpt>
      <trkpt lat="49.75687" lon="2.19542">
        <ele>76.6</ele>
        <time>2023-01-18T13:41:17Z</time>
      </trkpt>
      <trkpt lat="49.75687" lon="2.19542">
        <ele>76.6</ele>
        <time>2023-01-18T13:41:18Z</time>
      </trkpt>
      <trkpt lat="49.75687" lon="2.19542">
        <ele>76.6</ele>
        <time>2023-01-18T13:41:19Z</time>
      </trkpt>
      <trkpt lat="49.75687" lon="2.19542">
        <ele>76.6</ele>
        <time>2023-01-18T13:41:20Z</time>
      </trkpt>
      <trkpt lat="49.75687" lon="2.19542">
        <ele>76.6</ele>
        <time>2023-01-18T13:41:21Z</time>
      </trkpt>
      <trkpt lat="49.75687" lon="2.19542">
        <ele>76.6</ele>
        <time>2023-01-18T13:41:22Z</time>
      </trkpt>
      <trkpt lat="49.75687" lon="2.19542">
        <ele>76.6</ele>
        <time>2023-01-18T13:41:23Z</time>
      </trkpt>
      <trkpt lat="49.75687" lon="2.19542">
        <ele>76.6</ele>
        <time>2023-01-18T13:41:24Z</time>
      </trkpt>
      <trkpt lat="49.75687" lon="2.19542">
        <ele>76.6</ele>
        <time>2023-01-18T13:41:25Z</time>
      </trkpt>
      <trkpt lat="49.75687" lon="2.19542">
        <ele>76.6</ele>
        <time>2023-01-18T13:41:26Z</time>
      </trkpt>
      <trkpt lat="49.75687" lon="2.19542">
        <ele>76.6</ele>
        <time>2023-01-18T13:41:27Z</time>
      </trkpt>
      <trkpt lat="49.75687" lon="2.19542">
        <ele>76.6</ele>
        <time>2023-01-18T13:41:28Z</time>
      </trkpt>
      <trkpt lat="49.75687" lon="2.19542">
        <ele>76.6</ele>
        <time>2023-01-18T13:41:29Z</time>
      </trkpt>
      <trkpt lat="49.75687" lon="2.19542">
        <ele>76.6</ele>
        <time>2023-01-18T13:41:30Z</time>
      </trkpt>
      <trkpt lat="49.75687" lon="2.19542">
        <ele>76.6</ele>
        <time>2023-01-18T13:41:31Z</time>
      </trkpt>
      <trkpt lat="49.75687" lon="2.19542">
        <ele>76.6</ele>
        <time>2023-01-18T13:41:32Z</time>
      </trkpt>
      <trkpt lat="49.75687" lon="2.19542">
        <ele>76.6</ele>
        <time>2023-01-18T13:41:33Z</time>
      </trkpt>
      <trkpt lat="49.75687" lon="2.19542">
        <ele>76.6</ele>
        <time>2023-01-18T13:41:34Z</time>
      </trkpt>
      <trkpt lat="49.75687" lon="2.19542">
        <ele>76.6</ele>
        <time>2023-01-18T13:41:35Z</time>
      </trkpt>
      <trkpt lat="49.75687" lon="2.19542">
        <ele>76.6</ele>
        <time>2023-01-18T13:41:36Z</time>
      </trkpt>
      <trkpt lat="49.75687" lon="2.19542">
        <ele>76.6</ele>
        <time>2023-01-18T13:41:37Z</time>
      </trkpt>
      <trkpt lat="49.75687" lon="2.19542">
        <ele>76.6</ele>
        <time>2023-01-18T13:41:38Z</time>
      </trkpt>
      <trkpt lat="49.75687" lon="2.19542">
        <ele>76.6</ele>
        <time>2023-01-18T13:41:39Z</time>
      </trkpt>
      <trkpt lat="49.75687" lon="2.19542">
        <ele>76.3</ele>
        <time>2023-01-18T13:41:40Z</time>
      </trkpt>
      <trkpt lat="49.75687" lon="2.19542">
        <ele>76.3</ele>
        <time>2023-01-18T13:41:41Z</time>
      </trkpt>
      <trkpt lat="49.75687" lon="2.19542">
        <ele>76.7</ele>
        <time>2023-01-18T13:41:42Z</time>
      </trkpt>
      <trkpt lat="49.75687" lon="2.19542">
        <ele>76.7</ele>
        <time>2023-01-18T13:41:43Z</time>
      </trkpt>
      <trkpt lat="49.75687" lon="2.19542">
        <ele>77</ele>
        <time>2023-01-18T13:41:44Z</time>
      </trkpt>
      <trkpt lat="49.75687" lon="2.19542">
        <ele>77</ele>
        <time>2023-01-18T13:41:45Z</time>
      </trkpt>
      <trkpt lat="49.75687" lon="2.19542">
        <ele>77</ele>
        <time>2023-01-18T13:41:46Z</time>
      </trkpt>
      <trkpt lat="49.75687" lon="2.19542">
        <ele>77</ele>
        <time>2023-01-18T13:41:47Z</time>
      </trkpt>
      <trkpt lat="49.75687" lon="2.19543">
        <ele>77</ele>
        <time>2023-01-18T13:41:48Z</time>
      </trkpt>
      <trkpt lat="49.75687" lon="2.19544">
        <ele>76.7</ele>
        <time>2023-01-18T13:41:49Z</time>
      </trkpt>
      <trkpt lat="49.75688" lon="2.19544">
        <ele>76.7</ele>
        <time>2023-01-18T13:41:50Z</time>
      </trkpt>
      <trkpt lat="49.75688" lon="2.19544">
        <ele>76.7</ele>
        <time>2023-01-18T13:41:51Z</time>
      </trkpt>
      <trkpt lat="49.75688" lon="2.19543">
        <ele>76.7</ele>
        <time>2023-01-18T13:41:52Z</time>
      </trkpt>
      <trkpt lat="49.75689" lon="2.19543">
        <ele>76.7</ele>
        <time>2023-01-18T13:41:53Z</time>
      </trkpt>
      <trkpt lat="49.75689" lon="2.19543">
        <ele>76.7</ele>
        <time>2023-01-18T13:41:54Z</time>
      </trkpt>
      <trkpt lat="49.75689" lon="2.19542">
        <ele>76.7</ele>
        <time>2023-01-18T13:41:55Z</time>
      </trkpt>
      <trkpt lat="49.75689" lon="2.19542">
        <ele>76.3</ele>
        <time>2023-01-18T13:41:56Z</time>
      </trkpt>
      <trkpt lat="49.75688" lon="2.19542">
        <ele>76.3</ele>
        <time>2023-01-18T13:41:57Z</time>
      </trkpt>
      <trkpt lat="49.75688" lon="2.19542">
        <ele>76.3</ele>
        <time>2023-01-18T13:41:58Z</time>
      </trkpt>
      <trkpt lat="49.75688" lon="2.19542">
        <ele>76.3</ele>
        <time>2023-01-18T13:41:59Z</time>
      </trkpt>
      <trkpt lat="49.75688" lon="2.19542">
        <ele>76.3</ele>
        <time>2023-01-18T13:42:00Z</time>
      </trkpt>
      <trkpt lat="49.75688" lon="2.19542">
        <ele>76.3</ele>
        <time>2023-01-18T13:42:01Z</time>
      </trkpt>
      <trkpt lat="49.75688" lon="2.19542">
        <ele>76.3</ele>
        <time>2023-01-18T13:42:02Z</time>
      </trkpt>
      <trkpt lat="49.75688" lon="2.19542">
        <ele>76.3</ele>
        <time>2023-01-18T13:42:03Z</time>
      </trkpt>
      <trkpt lat="49.75688" lon="2.19542">
        <ele>76.3</ele>
        <time>2023-01-18T13:42:04Z</time>
      </trkpt>
      <trkpt lat="49.7569" lon="2.19541">
        <ele>76.3</ele>
        <time>2023-01-18T13:42:05Z</time>
      </trkpt>
      <trkpt lat="49.75691" lon="2.19541">
        <ele>76</ele>
        <time>2023-01-18T13:42:06Z</time>
      </trkpt>
      <trkpt lat="49.75691" lon="2.1954">
        <ele>76</ele>
        <time>2023-01-18T13:42:07Z</time>
      </trkpt>
      <trkpt lat="49.75692" lon="2.1954">
        <ele>76</ele>
        <time>2023-01-18T13:42:08Z</time>
      </trkpt>
      <trkpt lat="49.75692" lon="2.19539">
        <ele>76</ele>
        <time>2023-01-18T13:42:09Z</time>
      </trkpt>
      <trkpt lat="49.75693" lon="2.19539">
        <ele>76</ele>
        <time>2023-01-18T13:42:10Z</time>
      </trkpt>
      <trkpt lat="49.75693" lon="2.19539">
        <ele>75.7</ele>
        <time>2023-01-18T13:42:11Z</time>
      </trkpt>
      <trkpt lat="49.75694" lon="2.19539">
        <ele>75.7</ele>
        <time>2023-01-18T13:42:12Z</time>
      </trkpt>
      <trkpt lat="49.75694" lon="2.19539">
        <ele>75.7</ele>
        <time>2023-01-18T13:42:13Z</time>
      </trkpt>
      <trkpt lat="49.75694" lon="2.19539">
        <ele>75.7</ele>
        <time>2023-01-18T13:42:14Z</time>
      </trkpt>
      <trkpt lat="49.75694" lon="2.1954">
        <ele>75.7</ele>
        <time>2023-01-18T13:42:15Z</time>
      </trkpt>
      <trkpt lat="49.75695" lon="2.1954">
        <ele>75.7</ele>
        <time>2023-01-18T13:42:16Z</time>
      </trkpt>
      <trkpt lat="49.75695" lon="2.1954">
        <ele>75.7</ele>
        <time>2023-01-18T13:42:17Z</time>
      </trkpt>
      <trkpt lat="49.75695" lon="2.1954">
        <ele>75.7</ele>
        <time>2023-01-18T13:42:18Z</time>
      </trkpt>
      <trkpt lat="49.75695" lon="2.1954">
        <ele>75.7</ele>
        <time>2023-01-18T13:42:19Z</time>
      </trkpt>
      <trkpt lat="49.75696" lon="2.1954">
        <ele>75.7</ele>
        <time>2023-01-18T13:42:20Z</time>
      </trkpt>
      <trkpt lat="49.75696" lon="2.1954">
        <ele>75.5</ele>
        <time>2023-01-18T13:42:21Z</time>
      </trkpt>
      <trkpt lat="49.75696" lon="2.1954">
        <ele>75.5</ele>
        <time>2023-01-18T13:42:22Z</time>
      </trkpt>
      <trkpt lat="49.75696" lon="2.1954">
        <ele>75.5</ele>
        <time>2023-01-18T13:42:23Z</time>
      </trkpt>
      <trkpt lat="49.75696" lon="2.1954">
        <ele>75.5</ele>
        <time>2023-01-18T13:42:24Z</time>
      </trkpt>
      <trkpt lat="49.75697" lon="2.1954">
        <ele>75.5</ele>
        <time>2023-01-18T13:42:25Z</time>
      </trkpt>
      <trkpt lat="49.75697" lon="2.19541">
        <ele>75.5</ele>
        <time>2023-01-18T13:42:26Z</time>
      </trkpt>
      <trkpt lat="49.75697" lon="2.19541">
        <ele>75.5</ele>
        <time>2023-01-18T13:42:27Z</time>
      </trkpt>
      <trkpt lat="49.75699" lon="2.19542">
        <ele>75.3</ele>
        <time>2023-01-18T13:42:28Z</time>
      </trkpt>
      <trkpt lat="49.757" lon="2.19542">
        <ele>75.7</ele>
        <time>2023-01-18T13:42:29Z</time>
      </trkpt>
      <trkpt lat="49.757" lon="2.19543">
        <ele>75.7</ele>
        <time>2023-01-18T13:42:30Z</time>
      </trkpt>
      <trkpt lat="49.75701" lon="2.19544">
        <ele>75.7</ele>
        <time>2023-01-18T13:42:31Z</time>
      </trkpt>
      <trkpt lat="49.75702" lon="2.19544">
        <ele>75.6</ele>
        <time>2023-01-18T13:42:32Z</time>
      </trkpt>
      <trkpt lat="49.75703" lon="2.19545">
        <ele>75.6</ele>
        <time>2023-01-18T13:42:33Z</time>
      </trkpt>
      <trkpt lat="49.75704" lon="2.19546">
        <ele>75.6</ele>
        <time>2023-01-18T13:42:34Z</time>
      </trkpt>
      <trkpt lat="49.75704" lon="2.19546">
        <ele>75.4</ele>
        <time>2023-01-18T13:42:35Z</time>
      </trkpt>
      <trkpt lat="49.75704" lon="2.19546">
        <ele>75.4</ele>
        <time>2023-01-18T13:42:36Z</time>
      </trkpt>
      <trkpt lat="49.75705" lon="2.19547">
        <ele>75.9</ele>
        <time>2023-01-18T13:42:37Z</time>
      </trkpt>
      <trkpt lat="49.75705" lon="2.19547">
        <ele>75.9</ele>
        <time>2023-01-18T13:42:38Z</time>
      </trkpt>
      <trkpt lat="49.75705" lon="2.19547">
        <ele>75.9</ele>
        <time>2023-01-18T13:42:39Z</time>
      </trkpt>
      <trkpt lat="49.75705" lon="2.19547">
        <ele>75.9</ele>
        <time>2023-01-18T13:42:40Z</time>
      </trkpt>
      <trkpt lat="49.75706" lon="2.19547">
        <ele>75.9</ele>
        <time>2023-01-18T13:42:41Z</time>
      </trkpt>
      <trkpt lat="49.75706" lon="2.19547">
        <ele>75.9</ele>
        <time>2023-01-18T13:42:42Z</time>
      </trkpt>
      <trkpt lat="49.75706" lon="2.19548">
        <ele>75.9</ele>
        <time>2023-01-18T13:42:43Z</time>
      </trkpt>
      <trkpt lat="49.75706" lon="2.19548">
        <ele>75.9</ele>
        <time>2023-01-18T13:42:44Z</time>
      </trkpt>
      <trkpt lat="49.75706" lon="2.19548">
        <ele>75.9</ele>
        <time>2023-01-18T13:42:45Z</time>
      </trkpt>
      <trkpt lat="49.75706" lon="2.19548">
        <ele>75.9</ele>
        <time>2023-01-18T13:42:46Z</time>
      </trkpt>
      <trkpt lat="49.75707" lon="2.19549">
        <ele>75.9</ele>
        <time>2023-01-18T13:42:47Z</time>
      </trkpt>
      <trkpt lat="49.75707" lon="2.19549">
        <ele>75.8</ele>
        <time>2023-01-18T13:42:48Z</time>
      </trkpt>
      <trkpt lat="49.75708" lon="2.19549">
        <ele>75.8</ele>
        <time>2023-01-18T13:42:49Z</time>
      </trkpt>
      <trkpt lat="49.75708" lon="2.1955">
        <ele>75.8</ele>
        <time>2023-01-18T13:42:50Z</time>
      </trkpt>
      <trkpt lat="49.75711" lon="2.19548">
        <ele>75.6</ele>
        <time>2023-01-18T13:42:51Z</time>
      </trkpt>
      <trkpt lat="49.75712" lon="2.19547">
        <ele>75.6</ele>
        <time>2023-01-18T13:42:52Z</time>
      </trkpt>
      <trkpt lat="49.75713" lon="2.19546">
        <ele>75.1</ele>
        <time>2023-01-18T13:42:53Z</time>
      </trkpt>
      <trkpt lat="49.75714" lon="2.19545">
        <ele>75.1</ele>
        <time>2023-01-18T13:42:55Z</time>
      </trkpt>
      <trkpt lat="49.75715" lon="2.19544">
        <ele>75.1</ele>
        <time>2023-01-18T13:42:56Z</time>
      </trkpt>
      <trkpt lat="49.75716" lon="2.19543">
        <ele>75</ele>
        <time>2023-01-18T13:42:57Z</time>
      </trkpt>
      <trkpt lat="49.75717" lon="2.19543">
        <ele>75</ele>
        <time>2023-01-18T13:42:58Z</time>
      </trkpt>
      <trkpt lat="49.75718" lon="2.19542">
        <ele>74.9</ele>
        <time>2023-01-18T13:42:59Z</time>
      </trkpt>
      <trkpt lat="49.75719" lon="2.19542">
        <ele>74.5</ele>
        <time>2023-01-18T13:43:00Z</time>
      </trkpt>
      <trkpt lat="49.7572" lon="2.19541">
        <ele>74.5</ele>
        <time>2023-01-18T13:43:01Z</time>
      </trkpt>
      <trkpt lat="49.75721" lon="2.19541">
        <ele>74.4</ele>
        <time>2023-01-18T13:43:02Z</time>
      </trkpt>
      <trkpt lat="49.75722" lon="2.1954">
        <ele>74.4</ele>
        <time>2023-01-18T13:43:04Z</time>
      </trkpt>
      <trkpt lat="49.75723" lon="2.1954">
        <ele>74.3</ele>
        <time>2023-01-18T13:43:05Z</time>
      </trkpt>
      <trkpt lat="49.75724" lon="2.19539">
        <ele>74.3</ele>
        <time>2023-01-18T13:43:06Z</time>
      </trkpt>
      <trkpt lat="49.75725" lon="2.19538">
        <ele>74.3</ele>
        <time>2023-01-18T13:43:08Z</time>
      </trkpt>
      <trkpt lat="49.75726" lon="2.19538">
        <ele>74.3</ele>
        <time>2023-01-18T13:43:09Z</time>
      </trkpt>
      <trkpt lat="49.75728" lon="2.19537">
        <ele>74</ele>
        <time>2023-01-18T13:43:10Z</time>
      </trkpt>
      <trkpt lat="49.75729" lon="2.19536">
        <ele>74.1</ele>
        <time>2023-01-18T13:43:11Z</time>
      </trkpt>
      <trkpt lat="49.7573" lon="2.19536">
        <ele>74</ele>
        <time>2023-01-18T13:43:12Z</time>
      </trkpt>
      <trkpt lat="49.75731" lon="2.19535">
        <ele>74</ele>
        <time>2023-01-18T13:43:13Z</time>
      </trkpt>
      <trkpt lat="49.75732" lon="2.19535">
        <ele>74.1</ele>
        <time>2023-01-18T13:43:14Z</time>
      </trkpt>
      <trkpt lat="49.75733" lon="2.19534">
        <ele>74</ele>
        <time>2023-01-18T13:43:16Z</time>
      </trkpt>
      <trkpt lat="49.75735" lon="2.19533">
        <ele>73.8</ele>
        <time>2023-01-18T13:43:17Z</time>
      </trkpt>
      <trkpt lat="49.75736" lon="2.19531">
        <ele>73.8</ele>
        <time>2023-01-18T13:43:18Z</time>
      </trkpt>
      <trkpt lat="49.75738" lon="2.1953">
        <ele>73.9</ele>
        <time>2023-01-18T13:43:19Z</time>
      </trkpt>
      <trkpt lat="49.75739" lon="2.19529">
        <ele>73.6</ele>
        <time>2023-01-18T13:43:20Z</time>
      </trkpt>
      <trkpt lat="49.7574" lon="2.19528">
        <ele>73.5</ele>
        <time>2023-01-18T13:43:21Z</time>
      </trkpt>
      <trkpt lat="49.75741" lon="2.19527">
        <ele>73.7</ele>
        <time>2023-01-18T13:43:23Z</time>
      </trkpt>
      <trkpt lat="49.75742" lon="2.19526">
        <ele>73.7</ele>
        <time>2023-01-18T13:43:24Z</time>
      </trkpt>
      <trkpt lat="49.75743" lon="2.19525">
        <ele>73.6</ele>
        <time>2023-01-18T13:43:25Z</time>
      </trkpt>
      <trkpt lat="49.75744" lon="2.19524">
        <ele>73.5</ele>
        <time>2023-01-18T13:43:26Z</time>
      </trkpt>
      <trkpt lat="49.75745" lon="2.19524">
        <ele>73.5</ele>
        <time>2023-01-18T13:43:27Z</time>
      </trkpt>
      <trkpt lat="49.75746" lon="2.19523">
        <ele>73.6</ele>
        <time>2023-01-18T13:43:28Z</time>
      </trkpt>
      <trkpt lat="49.75746" lon="2.19523">
        <ele>73.6</ele>
        <time>2023-01-18T13:43:30Z</time>
      </trkpt>
      <trkpt lat="49.75747" lon="2.19522">
        <ele>73.6</ele>
        <time>2023-01-18T13:43:31Z</time>
      </trkpt>
      <trkpt lat="49.75747" lon="2.19522">
        <ele>73.5</ele>
        <time>2023-01-18T13:43:32Z</time>
      </trkpt>
      <trkpt lat="49.75748" lon="2.19521">
        <ele>73.5</ele>
        <time>2023-01-18T13:43:33Z</time>
      </trkpt>
      <trkpt lat="49.75749" lon="2.1952">
        <ele>73.3</ele>
        <time>2023-01-18T13:43:34Z</time>
      </trkpt>
      <trkpt lat="49.7575" lon="2.19519">
        <ele>73.3</ele>
        <time>2023-01-18T13:43:36Z</time>
      </trkpt>
      <trkpt lat="49.75751" lon="2.19519">
        <ele>73.5</ele>
        <time>2023-01-18T13:43:37Z</time>
      </trkpt>
      <trkpt lat="49.75753" lon="2.19517">
        <ele>73.4</ele>
        <time>2023-01-18T13:43:38Z</time>
      </trkpt>
      <trkpt lat="49.75754" lon="2.19516">
        <ele>73.1</ele>
        <time>2023-01-18T13:43:39Z</time>
      </trkpt>
      <trkpt lat="49.75754" lon="2.19515">
        <ele>73.3</ele>
        <time>2023-01-18T13:43:40Z</time>
      </trkpt>
      <trkpt lat="49.75755" lon="2.19515">
        <ele>73.2</ele>
        <time>2023-01-18T13:43:41Z</time>
      </trkpt>
      <trkpt lat="49.75757" lon="2.19514">
        <ele>73.4</ele>
        <time>2023-01-18T13:43:43Z</time>
      </trkpt>
      <trkpt lat="49.75759" lon="2.19513">
        <ele>73.4</ele>
        <time>2023-01-18T13:43:44Z</time>
      </trkpt>
      <trkpt lat="49.7576" lon="2.19512">
        <ele>73.5</ele>
        <time>2023-01-18T13:43:46Z</time>
      </trkpt>
      <trkpt lat="49.7576" lon="2.19512">
        <ele>73.2</ele>
        <time>2023-01-18T13:43:47Z</time>
      </trkpt>
      <trkpt lat="49.75762" lon="2.19511">
        <ele>73.2</ele>
        <time>2023-01-18T13:43:49Z</time>
      </trkpt>
      <trkpt lat="49.75763" lon="2.19511">
        <ele>73.4</ele>
        <time>2023-01-18T13:43:50Z</time>
      </trkpt>
      <trkpt lat="49.75764" lon="2.19511">
        <ele>73.3</ele>
        <time>2023-01-18T13:43:51Z</time>
      </trkpt>
      <trkpt lat="49.75765" lon="2.1951">
        <ele>73.3</ele>
        <time>2023-01-18T13:43:52Z</time>
      </trkpt>
      <trkpt lat="49.75766" lon="2.19509">
        <ele>73.5</ele>
        <time>2023-01-18T13:43:53Z</time>
      </trkpt>
      <trkpt lat="49.75767" lon="2.19508">
        <ele>73.4</ele>
        <time>2023-01-18T13:43:54Z</time>
      </trkpt>
      <trkpt lat="49.75768" lon="2.19507">
        <ele>73.3</ele>
        <time>2023-01-18T13:43:56Z</time>
      </trkpt>
      <trkpt lat="49.75768" lon="2.19506">
        <ele>73.3</ele>
        <time>2023-01-18T13:43:57Z</time>
      </trkpt>
      <trkpt lat="49.75769" lon="2.19505">
        <ele>73.3</ele>
        <time>2023-01-18T13:43:58Z</time>
      </trkpt>
      <trkpt lat="49.75769" lon="2.19504">
        <ele>73.2</ele>
        <time>2023-01-18T13:44:00Z</time>
      </trkpt>
      <trkpt lat="49.75769" lon="2.19504">
        <ele>73.2</ele>
        <time>2023-01-18T13:44:01Z</time>
      </trkpt>
      <trkpt lat="49.75769" lon="2.19504">
        <ele>73.2</ele>
        <time>2023-01-18T13:44:02Z</time>
      </trkpt>
      <trkpt lat="49.75769" lon="2.19504">
        <ele>73.1</ele>
        <time>2023-01-18T13:44:03Z</time>
      </trkpt>
      <trkpt lat="49.75769" lon="2.19504">
        <ele>73.1</ele>
        <time>2023-01-18T13:44:04Z</time>
      </trkpt>
      <trkpt lat="49.7577" lon="2.19503">
        <ele>72.8</ele>
        <time>2023-01-18T13:44:05Z</time>
      </trkpt>
      <trkpt lat="49.75771" lon="2.19503">
        <ele>73</ele>
        <time>2023-01-18T13:44:07Z</time>
      </trkpt>
      <trkpt lat="49.75771" lon="2.19502">
        <ele>73</ele>
        <time>2023-01-18T13:44:08Z</time>
      </trkpt>
      <trkpt lat="49.75772" lon="2.19501">
        <ele>72.9</ele>
        <time>2023-01-18T13:44:09Z</time>
      </trkpt>
      <trkpt lat="49.75773" lon="2.195">
        <ele>72.9</ele>
        <time>2023-01-18T13:44:11Z</time>
      </trkpt>
      <trkpt lat="49.75774" lon="2.195">
        <ele>73.1</ele>
        <time>2023-01-18T13:44:12Z</time>
      </trkpt>
      <trkpt lat="49.75775" lon="2.19499">
        <ele>73</ele>
        <time>2023-01-18T13:44:13Z</time>
      </trkpt>
      <trkpt lat="49.75776" lon="2.19499">
        <ele>72.8</ele>
        <time>2023-01-18T13:44:14Z</time>
      </trkpt>
      <trkpt lat="49.75778" lon="2.19497">
        <ele>73</ele>
        <time>2023-01-18T13:44:15Z</time>
      </trkpt>
      <trkpt lat="49.75779" lon="2.19497">
        <ele>72.9</ele>
        <time>2023-01-18T13:44:17Z</time>
      </trkpt>
      <trkpt lat="49.75779" lon="2.19496">
        <ele>73.1</ele>
        <time>2023-01-18T13:44:18Z</time>
      </trkpt>
      <trkpt lat="49.7578" lon="2.19495">
        <ele>73.1</ele>
        <time>2023-01-18T13:44:19Z</time>
      </trkpt>
      <trkpt lat="49.75781" lon="2.19495">
        <ele>72.8</ele>
        <time>2023-01-18T13:44:20Z</time>
      </trkpt>
      <trkpt lat="49.75782" lon="2.19494">
        <ele>73</ele>
        <time>2023-01-18T13:44:22Z</time>
      </trkpt>
      <trkpt lat="49.75782" lon="2.19494">
        <ele>72.9</ele>
        <time>2023-01-18T13:44:23Z</time>
      </trkpt>
      <trkpt lat="49.75783" lon="2.19494">
        <ele>72.9</ele>
        <time>2023-01-18T13:44:24Z</time>
      </trkpt>
      <trkpt lat="49.75784" lon="2.19493">
        <ele>72.9</ele>
        <time>2023-01-18T13:44:25Z</time>
      </trkpt>
      <trkpt lat="49.75785" lon="2.19492">
        <ele>73</ele>
        <time>2023-01-18T13:44:26Z</time>
      </trkpt>
      <trkpt lat="49.75785" lon="2.19491">
        <ele>73</ele>
        <time>2023-01-18T13:44:27Z</time>
      </trkpt>
      <trkpt lat="49.75786" lon="2.1949">
        <ele>72.7</ele>
        <time>2023-01-18T13:44:29Z</time>
      </trkpt>
      <trkpt lat="49.75786" lon="2.1949">
        <ele>72.7</ele>
        <time>2023-01-18T13:44:30Z</time>
      </trkpt>
      <trkpt lat="49.75786" lon="2.19489">
        <ele>72.7</ele>
        <time>2023-01-18T13:44:31Z</time>
      </trkpt>
      <trkpt lat="49.75787" lon="2.19487">
        <ele>72.8</ele>
        <time>2023-01-18T13:44:32Z</time>
      </trkpt>
      <trkpt lat="49.75788" lon="2.19486">
        <ele>72.8</ele>
        <time>2023-01-18T13:44:34Z</time>
      </trkpt>
      <trkpt lat="49.75789" lon="2.19485">
        <ele>72.5</ele>
        <time>2023-01-18T13:44:35Z</time>
      </trkpt>
      <trkpt lat="49.7579" lon="2.19484">
        <ele>72.4</ele>
        <time>2023-01-18T13:44:36Z</time>
      </trkpt>
      <trkpt lat="49.7579" lon="2.19483">
        <ele>72.6</ele>
        <time>2023-01-18T13:44:37Z</time>
      </trkpt>
      <trkpt lat="49.7579" lon="2.19483">
        <ele>72.6</ele>
        <time>2023-01-18T13:44:38Z</time>
      </trkpt>
      <trkpt lat="49.75791" lon="2.19482">
        <ele>72.3</ele>
        <time>2023-01-18T13:44:39Z</time>
      </trkpt>
      <trkpt lat="49.75792" lon="2.19481">
        <ele>72.3</ele>
        <time>2023-01-18T13:44:41Z</time>
      </trkpt>
      <trkpt lat="49.75793" lon="2.19479">
        <ele>72.4</ele>
        <time>2023-01-18T13:44:42Z</time>
      </trkpt>
      <trkpt lat="49.75793" lon="2.19479">
        <ele>72.3</ele>
        <time>2023-01-18T13:44:43Z</time>
      </trkpt>
      <trkpt lat="49.75794" lon="2.19477">
        <ele>72.1</ele>
        <time>2023-01-18T13:44:44Z</time>
      </trkpt>
      <trkpt lat="49.75794" lon="2.19476">
        <ele>72.1</ele>
        <time>2023-01-18T13:44:45Z</time>
      </trkpt>
      <trkpt lat="49.75795" lon="2.19475">
        <ele>72</ele>
        <time>2023-01-18T13:44:47Z</time>
      </trkpt>
      <trkpt lat="49.75796" lon="2.19473">
        <ele>71.8</ele>
        <time>2023-01-18T13:44:48Z</time>
      </trkpt>
      <trkpt lat="49.75797" lon="2.19472">
        <ele>71.8</ele>
        <time>2023-01-18T13:44:49Z</time>
      </trkpt>
      <trkpt lat="49.75798" lon="2.19471">
        <ele>71.7</ele>
        <time>2023-01-18T13:44:50Z</time>
      </trkpt>
      <trkpt lat="49.75799" lon="2.1947">
        <ele>71.9</ele>
        <time>2023-01-18T13:44:51Z</time>
      </trkpt>
      <trkpt lat="49.758" lon="2.19469">
        <ele>71.5</ele>
        <time>2023-01-18T13:44:52Z</time>
      </trkpt>
      <trkpt lat="49.75803" lon="2.19466">
        <ele>71.7</ele>
        <time>2023-01-18T13:44:53Z</time>
      </trkpt>
      <trkpt lat="49.75804" lon="2.19465">
        <ele>71.9</ele>
        <time>2023-01-18T13:44:55Z</time>
      </trkpt>
      <trkpt lat="49.75805" lon="2.19464">
        <ele>71.5</ele>
        <time>2023-01-18T13:44:56Z</time>
      </trkpt>
      <trkpt lat="49.75807" lon="2.19463">
        <ele>71.7</ele>
        <time>2023-01-18T13:44:57Z</time>
      </trkpt>
      <trkpt lat="49.75808" lon="2.19462">
        <ele>71.7</ele>
        <time>2023-01-18T13:44:58Z</time>
      </trkpt>
      <trkpt lat="49.75809" lon="2.19461">
        <ele>71.7</ele>
        <time>2023-01-18T13:44:59Z</time>
      </trkpt>
      <trkpt lat="49.7581" lon="2.1946">
        <ele>71.6</ele>
        <time>2023-01-18T13:45:00Z</time>
      </trkpt>
      <trkpt lat="49.75811" lon="2.19459">
        <ele>71.6</ele>
        <time>2023-01-18T13:45:02Z</time>
      </trkpt>
      <trkpt lat="49.75812" lon="2.19458">
        <ele>71.6</ele>
        <time>2023-01-18T13:45:03Z</time>
      </trkpt>
      <trkpt lat="49.75814" lon="2.19455">
        <ele>71.4</ele>
        <time>2023-01-18T13:45:04Z</time>
      </trkpt>
      <trkpt lat="49.75814" lon="2.19454">
        <ele>71.4</ele>
        <time>2023-01-18T13:45:05Z</time>
      </trkpt>
      <trkpt lat="49.75815" lon="2.19452">
        <ele>71.2</ele>
        <time>2023-01-18T13:45:06Z</time>
      </trkpt>
      <trkpt lat="49.75816" lon="2.1945">
        <ele>71.2</ele>
        <time>2023-01-18T13:45:08Z</time>
      </trkpt>
      <trkpt lat="49.75817" lon="2.19448">
        <ele>71.2</ele>
        <time>2023-01-18T13:45:09Z</time>
      </trkpt>
      <trkpt lat="49.75818" lon="2.19447">
        <ele>71.1</ele>
        <time>2023-01-18T13:45:10Z</time>
      </trkpt>
      <trkpt lat="49.7582" lon="2.19444">
        <ele>71.1</ele>
        <time>2023-01-18T13:45:11Z</time>
      </trkpt>
      <trkpt lat="49.75821" lon="2.19443">
        <ele>70.9</ele>
        <time>2023-01-18T13:45:12Z</time>
      </trkpt>
      <trkpt lat="49.75821" lon="2.19442">
        <ele>70.9</ele>
        <time>2023-01-18T13:45:13Z</time>
      </trkpt>
      <trkpt lat="49.75824" lon="2.19437">
        <ele>70.7</ele>
        <time>2023-01-18T13:45:15Z</time>
      </trkpt>
      <trkpt lat="49.75825" lon="2.19435">
        <ele>70.7</ele>
        <time>2023-01-18T13:45:16Z</time>
      </trkpt>
      <trkpt lat="49.75826" lon="2.19434">
        <ele>70.3</ele>
        <time>2023-01-18T13:45:17Z</time>
      </trkpt>
      <trkpt lat="49.75827" lon="2.19432">
        <ele>70.5</ele>
        <time>2023-01-18T13:45:18Z</time>
      </trkpt>
      <trkpt lat="49.75828" lon="2.1943">
        <ele>70.1</ele>
        <time>2023-01-18T13:45:19Z</time>
      </trkpt>
      <trkpt lat="49.7583" lon="2.19429">
        <ele>70.4</ele>
        <time>2023-01-18T13:45:20Z</time>
      </trkpt>
      <trkpt lat="49.75831" lon="2.19427">
        <ele>70.4</ele>
        <time>2023-01-18T13:45:21Z</time>
      </trkpt>
      <trkpt lat="49.75832" lon="2.19425">
        <ele>70.2</ele>
        <time>2023-01-18T13:45:23Z</time>
      </trkpt>
      <trkpt lat="49.75833" lon="2.19423">
        <ele>70.2</ele>
        <time>2023-01-18T13:45:24Z</time>
      </trkpt>
      <trkpt lat="49.75835" lon="2.1942">
        <ele>70</ele>
        <time>2023-01-18T13:45:25Z</time>
      </trkpt>
      <trkpt lat="49.75836" lon="2.19419">
        <ele>70</ele>
        <time>2023-01-18T13:45:26Z</time>
      </trkpt>
      <trkpt lat="49.75838" lon="2.19417">
        <ele>69.9</ele>
        <time>2023-01-18T13:45:27Z</time>
      </trkpt>
      <trkpt lat="49.75838" lon="2.19416">
        <ele>69.9</ele>
        <time>2023-01-18T13:45:29Z</time>
      </trkpt>
      <trkpt lat="49.75839" lon="2.19415">
        <ele>69.9</ele>
        <time>2023-01-18T13:45:30Z</time>
      </trkpt>
      <trkpt lat="49.7584" lon="2.19414">
        <ele>70.1</ele>
        <time>2023-01-18T13:45:31Z</time>
      </trkpt>
      <trkpt lat="49.75841" lon="2.19413">
        <ele>70.1</ele>
        <time>2023-01-18T13:45:32Z</time>
      </trkpt>
      <trkpt lat="49.75843" lon="2.19412">
        <ele>69.9</ele>
        <time>2023-01-18T13:45:33Z</time>
      </trkpt>
      <trkpt lat="49.75844" lon="2.19411">
        <ele>69.9</ele>
        <time>2023-01-18T13:45:34Z</time>
      </trkpt>
      <trkpt lat="49.75845" lon="2.1941">
        <ele>69.9</ele>
        <time>2023-01-18T13:45:35Z</time>
      </trkpt>
      <trkpt lat="49.75846" lon="2.1941">
        <ele>70.1</ele>
        <time>2023-01-18T13:45:37Z</time>
      </trkpt>
      <trkpt lat="49.75847" lon="2.19409">
        <ele>69.8</ele>
        <time>2023-01-18T13:45:38Z</time>
      </trkpt>
      <trkpt lat="49.75848" lon="2.19408">
        <ele>69.8</ele>
        <time>2023-01-18T13:45:39Z</time>
      </trkpt>
      <trkpt lat="49.75848" lon="2.19407">
        <ele>70</ele>
        <time>2023-01-18T13:45:40Z</time>
      </trkpt>
      <trkpt lat="49.75849" lon="2.19406">
        <ele>70</ele>
        <time>2023-01-18T13:45:41Z</time>
      </trkpt>
      <trkpt lat="49.75849" lon="2.19404">
        <ele>69.6</ele>
        <time>2023-01-18T13:45:42Z</time>
      </trkpt>
      <trkpt lat="49.7585" lon="2.19403">
        <ele>69.6</ele>
        <time>2023-01-18T13:45:43Z</time>
      </trkpt>
      <trkpt lat="49.75851" lon="2.19401">
        <ele>69.9</ele>
        <time>2023-01-18T13:45:45Z</time>
      </trkpt>
      <trkpt lat="49.75852" lon="2.194">
        <ele>69.5</ele>
        <time>2023-01-18T13:45:46Z</time>
      </trkpt>
      <trkpt lat="49.75852" lon="2.19399">
        <ele>69.5</ele>
        <time>2023-01-18T13:45:47Z</time>
      </trkpt>
      <trkpt lat="49.75853" lon="2.19398">
        <ele>69.5</ele>
        <time>2023-01-18T13:45:48Z</time>
      </trkpt>
      <trkpt lat="49.75854" lon="2.19396">
        <ele>69.2</ele>
        <time>2023-01-18T13:45:49Z</time>
      </trkpt>
      <trkpt lat="49.75854" lon="2.19395">
        <ele>69.4</ele>
        <time>2023-01-18T13:45:50Z</time>
      </trkpt>
      <trkpt lat="49.75854" lon="2.19393">
        <ele>69.4</ele>
        <time>2023-01-18T13:45:51Z</time>
      </trkpt>
      <trkpt lat="49.75853" lon="2.19392">
        <ele>69.2</ele>
        <time>2023-01-18T13:45:53Z</time>
      </trkpt>
      <trkpt lat="49.75853" lon="2.19391">
        <ele>68.8</ele>
        <time>2023-01-18T13:45:54Z</time>
      </trkpt>
      <trkpt lat="49.75854" lon="2.19389">
        <ele>69</ele>
        <time>2023-01-18T13:45:55Z</time>
      </trkpt>
      <trkpt lat="49.75855" lon="2.19387">
        <ele>68.6</ele>
        <time>2023-01-18T13:45:56Z</time>
      </trkpt>
      <trkpt lat="49.75855" lon="2.19385">
        <ele>68.6</ele>
        <time>2023-01-18T13:45:57Z</time>
      </trkpt>
      <trkpt lat="49.75856" lon="2.19384">
        <ele>68.6</ele>
        <time>2023-01-18T13:45:58Z</time>
      </trkpt>
      <trkpt lat="49.75856" lon="2.19383">
        <ele>68.2</ele>
        <time>2023-01-18T13:45:59Z</time>
      </trkpt>
      <trkpt lat="49.75857" lon="2.19381">
        <ele>68.4</ele>
        <time>2023-01-18T13:46:01Z</time>
      </trkpt>
      <trkpt lat="49.75857" lon="2.1938">
        <ele>68.4</ele>
        <time>2023-01-18T13:46:02Z</time>
      </trkpt>
      <trkpt lat="49.75859" lon="2.19377">
        <ele>68</ele>
        <time>2023-01-18T13:46:03Z</time>
      </trkpt>
      <trkpt lat="49.75859" lon="2.19376">
        <ele>68</ele>
        <time>2023-01-18T13:46:04Z</time>
      </trkpt>
      <trkpt lat="49.7586" lon="2.19375">
        <ele>68.3</ele>
        <time>2023-01-18T13:46:05Z</time>
      </trkpt>
      <trkpt lat="49.7586" lon="2.19374">
        <ele>67.9</ele>
        <time>2023-01-18T13:46:06Z</time>
      </trkpt>
      <trkpt lat="49.75861" lon="2.19372">
        <ele>67.9</ele>
        <time>2023-01-18T13:46:08Z</time>
      </trkpt>
      <trkpt lat="49.75862" lon="2.19371">
        <ele>67.9</ele>
        <time>2023-01-18T13:46:09Z</time>
      </trkpt>
      <trkpt lat="49.75863" lon="2.19368">
        <ele>67.8</ele>
        <time>2023-01-18T13:46:10Z</time>
      </trkpt>
      <trkpt lat="49.75863" lon="2.19367">
        <ele>67.8</ele>
        <time>2023-01-18T13:46:11Z</time>
      </trkpt>
      <trkpt lat="49.75864" lon="2.19366">
        <ele>67.8</ele>
        <time>2023-01-18T13:46:12Z</time>
      </trkpt>
      <trkpt lat="49.75865" lon="2.19363">
        <ele>67.6</ele>
        <time>2023-01-18T13:46:13Z</time>
      </trkpt>
      <trkpt lat="49.75865" lon="2.19362">
        <ele>67.6</ele>
        <time>2023-01-18T13:46:14Z</time>
      </trkpt>
      <trkpt lat="49.75866" lon="2.19361">
        <ele>67.2</ele>
        <time>2023-01-18T13:46:15Z</time>
      </trkpt>
      <trkpt lat="49.75867" lon="2.19359">
        <ele>67.2</ele>
        <time>2023-01-18T13:46:17Z</time>
      </trkpt>
      <trkpt lat="49.75868" lon="2.19358">
        <ele>67.5</ele>
        <time>2023-01-18T13:46:18Z</time>
      </trkpt>
      <trkpt lat="49.75868" lon="2.19357">
        <ele>67.1</ele>
        <time>2023-01-18T13:46:19Z</time>
      </trkpt>
      <trkpt lat="49.75869" lon="2.19354">
        <ele>67.1</ele>
        <time>2023-01-18T13:46:20Z</time>
      </trkpt>
      <trkpt lat="49.75869" lon="2.19353">
        <ele>66.6</ele>
        <time>2023-01-18T13:46:21Z</time>
      </trkpt>
      <trkpt lat="49.7587" lon="2.19352">
        <ele>66.6</ele>
        <time>2023-01-18T13:46:22Z</time>
      </trkpt>
      <trkpt lat="49.7587" lon="2.19349">
        <ele>66.4</ele>
        <time>2023-01-18T13:46:23Z</time>
      </trkpt>
      <trkpt lat="49.75871" lon="2.19348">
        <ele>66.4</ele>
        <time>2023-01-18T13:46:24Z</time>
      </trkpt>
      <trkpt lat="49.75871" lon="2.19346">
        <ele>66.4</ele>
        <time>2023-01-18T13:46:25Z</time>
      </trkpt>
      <trkpt lat="49.75872" lon="2.19344">
        <ele>65.9</ele>
        <time>2023-01-18T13:46:27Z</time>
      </trkpt>
      <trkpt lat="49.75872" lon="2.19342">
        <ele>65.9</ele>
        <time>2023-01-18T13:46:28Z</time>
      </trkpt>
      <trkpt lat="49.75872" lon="2.19341">
        <ele>65.9</ele>
        <time>2023-01-18T13:46:29Z</time>
      </trkpt>
      <trkpt lat="49.75872" lon="2.19339">
        <ele>65.3</ele>
        <time>2023-01-18T13:46:30Z</time>
      </trkpt>
      <trkpt lat="49.75873" lon="2.19337">
        <ele>65.3</ele>
        <time>2023-01-18T13:46:31Z</time>
      </trkpt>
      <trkpt lat="49.75874" lon="2.19334">
        <ele>65.2</ele>
        <time>2023-01-18T13:46:32Z</time>
      </trkpt>
      <trkpt lat="49.75874" lon="2.19332">
        <ele>65.2</ele>
        <time>2023-01-18T13:46:34Z</time>
      </trkpt>
      <trkpt lat="49.75874" lon="2.1933">
        <ele>64.7</ele>
        <time>2023-01-18T13:46:35Z</time>
      </trkpt>
      <trkpt lat="49.75875" lon="2.19329">
        <ele>64.7</ele>
        <time>2023-01-18T13:46:36Z</time>
      </trkpt>
      <trkpt lat="49.75875" lon="2.19327">
        <ele>64.3</ele>
        <time>2023-01-18T13:46:37Z</time>
      </trkpt>
      <trkpt lat="49.75876" lon="2.19325">
        <ele>64.3</ele>
        <time>2023-01-18T13:46:38Z</time>
      </trkpt>
      <trkpt lat="49.75876" lon="2.19323">
        <ele>64.5</ele>
        <time>2023-01-18T13:46:40Z</time>
      </trkpt>
      <trkpt lat="49.75876" lon="2.19321">
        <ele>64.5</ele>
        <time>2023-01-18T13:46:41Z</time>
      </trkpt>
      <trkpt lat="49.75877" lon="2.1932">
        <ele>64.5</ele>
        <time>2023-01-18T13:46:42Z</time>
      </trkpt>
      <trkpt lat="49.75877" lon="2.19318">
        <ele>64.3</ele>
        <time>2023-01-18T13:46:43Z</time>
      </trkpt>
      <trkpt lat="49.75877" lon="2.19316">
        <ele>64.3</ele>
        <time>2023-01-18T13:46:44Z</time>
      </trkpt>
      <trkpt lat="49.75877" lon="2.19314">
        <ele>64.2</ele>
        <time>2023-01-18T13:46:45Z</time>
      </trkpt>
      <trkpt lat="49.75877" lon="2.19313">
        <ele>64.2</ele>
        <time>2023-01-18T13:46:46Z</time>
      </trkpt>
      <trkpt lat="49.75877" lon="2.19311">
        <ele>64.2</ele>
        <time>2023-01-18T13:46:47Z</time>
      </trkpt>
      <trkpt lat="49.75878" lon="2.19309">
        <ele>64.2</ele>
        <time>2023-01-18T13:46:49Z</time>
      </trkpt>
      <trkpt lat="49.75878" lon="2.19307">
        <ele>64.2</ele>
        <time>2023-01-18T13:46:50Z</time>
      </trkpt>
      <trkpt lat="49.75878" lon="2.19305">
        <ele>64.3</ele>
        <time>2023-01-18T13:46:51Z</time>
      </trkpt>
      <trkpt lat="49.75878" lon="2.19304">
        <ele>64.3</ele>
        <time>2023-01-18T13:46:52Z</time>
      </trkpt>
      <trkpt lat="49.75878" lon="2.19302">
        <ele>64.3</ele>
        <time>2023-01-18T13:46:53Z</time>
      </trkpt>
      <trkpt lat="49.75878" lon="2.19301">
        <ele>64.4</ele>
        <time>2023-01-18T13:46:54Z</time>
      </trkpt>
      <trkpt lat="49.75878" lon="2.19299">
        <ele>64.4</ele>
        <time>2023-01-18T13:46:55Z</time>
      </trkpt>
      <trkpt lat="49.75878" lon="2.19297">
        <ele>64.6</ele>
        <time>2023-01-18T13:46:56Z</time>
      </trkpt>
      <trkpt lat="49.75878" lon="2.19296">
        <ele>64.6</ele>
        <time>2023-01-18T13:46:57Z</time>
      </trkpt>
      <trkpt lat="49.75878" lon="2.19294">
        <ele>64.6</ele>
        <time>2023-01-18T13:46:59Z</time>
      </trkpt>
      <trkpt lat="49.75878" lon="2.19292">
        <ele>64.8</ele>
        <time>2023-01-18T13:47:00Z</time>
      </trkpt>
      <trkpt lat="49.75878" lon="2.19291">
        <ele>64.8</ele>
        <time>2023-01-18T13:47:01Z</time>
      </trkpt>
      <trkpt lat="49.75878" lon="2.19289">
        <ele>64.8</ele>
        <time>2023-01-18T13:47:02Z</time>
      </trkpt>
      <trkpt lat="49.75877" lon="2.19286">
        <ele>65</ele>
        <time>2023-01-18T13:47:03Z</time>
      </trkpt>
      <trkpt lat="49.75877" lon="2.19285">
        <ele>65</ele>
        <time>2023-01-18T13:47:04Z</time>
      </trkpt>
      <trkpt lat="49.75876" lon="2.19284">
        <ele>65.2</ele>
        <time>2023-01-18T13:47:05Z</time>
      </trkpt>
      <trkpt lat="49.75876" lon="2.19282">
        <ele>65.2</ele>
        <time>2023-01-18T13:47:07Z</time>
      </trkpt>
      <trkpt lat="49.75876" lon="2.1928">
        <ele>65.1</ele>
        <time>2023-01-18T13:47:08Z</time>
      </trkpt>
      <trkpt lat="49.75876" lon="2.19278">
        <ele>65.1</ele>
        <time>2023-01-18T13:47:09Z</time>
      </trkpt>
      <trkpt lat="49.75875" lon="2.19277">
        <ele>65.1</ele>
        <time>2023-01-18T13:47:10Z</time>
      </trkpt>
      <trkpt lat="49.75875" lon="2.19275">
        <ele>65.2</ele>
        <time>2023-01-18T13:47:11Z</time>
      </trkpt>
      <trkpt lat="49.75874" lon="2.19273">
        <ele>65.2</ele>
        <time>2023-01-18T13:47:12Z</time>
      </trkpt>
      <trkpt lat="49.75874" lon="2.1927">
        <ele>65.4</ele>
        <time>2023-01-18T13:47:13Z</time>
      </trkpt>
      <trkpt lat="49.75874" lon="2.19269">
        <ele>65.4</ele>
        <time>2023-01-18T13:47:14Z</time>
      </trkpt>
      <trkpt lat="49.75874" lon="2.19268">
        <ele>65.4</ele>
        <time>2023-01-18T13:47:15Z</time>
      </trkpt>
      <trkpt lat="49.75873" lon="2.19265">
        <ele>65.1</ele>
        <time>2023-01-18T13:47:17Z</time>
      </trkpt>
      <trkpt lat="49.75873" lon="2.19263">
        <ele>65.1</ele>
        <time>2023-01-18T13:47:18Z</time>
      </trkpt>
      <trkpt lat="49.75873" lon="2.19262">
        <ele>65.2</ele>
        <time>2023-01-18T13:47:19Z</time>
      </trkpt>
      <trkpt lat="49.75872" lon="2.19259">
        <ele>65.3</ele>
        <time>2023-01-18T13:47:20Z</time>
      </trkpt>
      <trkpt lat="49.75872" lon="2.19257">
        <ele>65.3</ele>
        <time>2023-01-18T13:47:21Z</time>
      </trkpt>
      <trkpt lat="49.75871" lon="2.19256">
        <ele>65.3</ele>
        <time>2023-01-18T13:47:22Z</time>
      </trkpt>
      <trkpt lat="49.75871" lon="2.19252">
        <ele>65.3</ele>
        <time>2023-01-18T13:47:24Z</time>
      </trkpt>
      <trkpt lat="49.75871" lon="2.1925">
        <ele>65.4</ele>
        <time>2023-01-18T13:47:25Z</time>
      </trkpt>
      <trkpt lat="49.7587" lon="2.19247">
        <ele>65</ele>
        <time>2023-01-18T13:47:26Z</time>
      </trkpt>
      <trkpt lat="49.7587" lon="2.19246">
        <ele>65.1</ele>
        <time>2023-01-18T13:47:27Z</time>
      </trkpt>
      <trkpt lat="49.7587" lon="2.19244">
        <ele>65.1</ele>
        <time>2023-01-18T13:47:28Z</time>
      </trkpt>
      <trkpt lat="49.7587" lon="2.19242">
        <ele>65.1</ele>
        <time>2023-01-18T13:47:29Z</time>
      </trkpt>
      <trkpt lat="49.7587" lon="2.1924">
        <ele>65.2</ele>
        <time>2023-01-18T13:47:30Z</time>
      </trkpt>
      <trkpt lat="49.75869" lon="2.19238">
        <ele>65.2</ele>
        <time>2023-01-18T13:47:32Z</time>
      </trkpt>
      <trkpt lat="49.75869" lon="2.19236">
        <ele>65.3</ele>
        <time>2023-01-18T13:47:33Z</time>
      </trkpt>
      <trkpt lat="49.75869" lon="2.19234">
        <ele>65.3</ele>
        <time>2023-01-18T13:47:34Z</time>
      </trkpt>
      <trkpt lat="49.7587" lon="2.19232">
        <ele>65.4</ele>
        <time>2023-01-18T13:47:35Z</time>
      </trkpt>
      <trkpt lat="49.7587" lon="2.19231">
        <ele>65.4</ele>
        <time>2023-01-18T13:47:36Z</time>
      </trkpt>
      <trkpt lat="49.75869" lon="2.19229">
        <ele>65.6</ele>
        <time>2023-01-18T13:47:37Z</time>
      </trkpt>
      <trkpt lat="49.75869" lon="2.19227">
        <ele>65.6</ele>
        <time>2023-01-18T13:47:38Z</time>
      </trkpt>
      <trkpt lat="49.75869" lon="2.19225">
        <ele>65.6</ele>
        <time>2023-01-18T13:47:40Z</time>
      </trkpt>
      <trkpt lat="49.75869" lon="2.19224">
        <ele>65.8</ele>
        <time>2023-01-18T13:47:41Z</time>
      </trkpt>
      <trkpt lat="49.75869" lon="2.19223">
        <ele>65.8</ele>
        <time>2023-01-18T13:47:42Z</time>
      </trkpt>
      <trkpt lat="49.75868" lon="2.19221">
        <ele>65.8</ele>
        <time>2023-01-18T13:47:43Z</time>
      </trkpt>
      <trkpt lat="49.75868" lon="2.19219">
        <ele>66</ele>
        <time>2023-01-18T13:47:44Z</time>
      </trkpt>
      <trkpt lat="49.75868" lon="2.19218">
        <ele>66</ele>
        <time>2023-01-18T13:47:45Z</time>
      </trkpt>
      <trkpt lat="49.75868" lon="2.19216">
        <ele>66</ele>
        <time>2023-01-18T13:47:46Z</time>
      </trkpt>
      <trkpt lat="49.75868" lon="2.19215">
        <ele>66.1</ele>
        <time>2023-01-18T13:47:47Z</time>
      </trkpt>
      <trkpt lat="49.75868" lon="2.19214">
        <ele>66.1</ele>
        <time>2023-01-18T13:47:48Z</time>
      </trkpt>
      <trkpt lat="49.75868" lon="2.19212">
        <ele>66.1</ele>
        <time>2023-01-18T13:47:50Z</time>
      </trkpt>
      <trkpt lat="49.75868" lon="2.19211">
        <ele>66.2</ele>
        <time>2023-01-18T13:47:51Z</time>
      </trkpt>
      <trkpt lat="49.75867" lon="2.19208">
        <ele>65.9</ele>
        <time>2023-01-18T13:47:52Z</time>
      </trkpt>
      <trkpt lat="49.75867" lon="2.19207">
        <ele>65.9</ele>
        <time>2023-01-18T13:47:53Z</time>
      </trkpt>
      <trkpt lat="49.75867" lon="2.19206">
        <ele>65.9</ele>
        <time>2023-01-18T13:47:54Z</time>
      </trkpt>
      <trkpt lat="49.75867" lon="2.19204">
        <ele>65.9</ele>
        <time>2023-01-18T13:47:55Z</time>
      </trkpt>
      <trkpt lat="49.75868" lon="2.19203">
        <ele>66.4</ele>
        <time>2023-01-18T13:47:56Z</time>
      </trkpt>
      <trkpt lat="49.75868" lon="2.19201">
        <ele>66.4</ele>
        <time>2023-01-18T13:47:57Z</time>
      </trkpt>
      <trkpt lat="49.75868" lon="2.19199">
        <ele>66.4</ele>
        <time>2023-01-18T13:47:58Z</time>
      </trkpt>
      <trkpt lat="49.75868" lon="2.19196">
        <ele>66.4</ele>
        <time>2023-01-18T13:48:00Z</time>
      </trkpt>
      <trkpt lat="49.75868" lon="2.19195">
        <ele>66.4</ele>
        <time>2023-01-18T13:48:01Z</time>
      </trkpt>
      <trkpt lat="49.75867" lon="2.19193">
        <ele>66</ele>
        <time>2023-01-18T13:48:02Z</time>
      </trkpt>
      <trkpt lat="49.75868" lon="2.19192">
        <ele>66.4</ele>
        <time>2023-01-18T13:48:03Z</time>
      </trkpt>
      <trkpt lat="49.75868" lon="2.1919">
        <ele>66.4</ele>
        <time>2023-01-18T13:48:04Z</time>
      </trkpt>
      <trkpt lat="49.75868" lon="2.19188">
        <ele>66.4</ele>
        <time>2023-01-18T13:48:05Z</time>
      </trkpt>
      <trkpt lat="49.75867" lon="2.19186">
        <ele>66</ele>
        <time>2023-01-18T13:48:06Z</time>
      </trkpt>
      <trkpt lat="49.75867" lon="2.19185">
        <ele>66</ele>
        <time>2023-01-18T13:48:07Z</time>
      </trkpt>
      <trkpt lat="49.75867" lon="2.19183">
        <ele>66</ele>
        <time>2023-01-18T13:48:09Z</time>
      </trkpt>
      <trkpt lat="49.75867" lon="2.19182">
        <ele>66</ele>
        <time>2023-01-18T13:48:10Z</time>
      </trkpt>
      <trkpt lat="49.75867" lon="2.1918">
        <ele>66</ele>
        <time>2023-01-18T13:48:11Z</time>
      </trkpt>
      <trkpt lat="49.75867" lon="2.19178">
        <ele>66</ele>
        <time>2023-01-18T13:48:12Z</time>
      </trkpt>
      <trkpt lat="49.75866" lon="2.19177">
        <ele>66.1</ele>
        <time>2023-01-18T13:48:13Z</time>
      </trkpt>
      <trkpt lat="49.75866" lon="2.19176">
        <ele>66.1</ele>
        <time>2023-01-18T13:48:14Z</time>
      </trkpt>
      <trkpt lat="49.75866" lon="2.19174">
        <ele>66.1</ele>
        <time>2023-01-18T13:48:15Z</time>
      </trkpt>
      <trkpt lat="49.75866" lon="2.19172">
        <ele>66.1</ele>
        <time>2023-01-18T13:48:17Z</time>
      </trkpt>
      <trkpt lat="49.75866" lon="2.19171">
        <ele>66.1</ele>
        <time>2023-01-18T13:48:18Z</time>
      </trkpt>
      <trkpt lat="49.75866" lon="2.19169">
        <ele>66.1</ele>
        <time>2023-01-18T13:48:19Z</time>
      </trkpt>
      <trkpt lat="49.75866" lon="2.19167">
        <ele>66.1</ele>
        <time>2023-01-18T13:48:20Z</time>
      </trkpt>
      <trkpt lat="49.75866" lon="2.19165">
        <ele>66.1</ele>
        <time>2023-01-18T13:48:21Z</time>
      </trkpt>
      <trkpt lat="49.75866" lon="2.19163">
        <ele>66.2</ele>
        <time>2023-01-18T13:48:23Z</time>
      </trkpt>
      <trkpt lat="49.75866" lon="2.19162">
        <ele>66.2</ele>
        <time>2023-01-18T13:48:24Z</time>
      </trkpt>
      <trkpt lat="49.75866" lon="2.1916">
        <ele>66.2</ele>
        <time>2023-01-18T13:48:25Z</time>
      </trkpt>
      <trkpt lat="49.75866" lon="2.19159">
        <ele>66.2</ele>
        <time>2023-01-18T13:48:26Z</time>
      </trkpt>
      <trkpt lat="49.75866" lon="2.19158">
        <ele>66.2</ele>
        <time>2023-01-18T13:48:27Z</time>
      </trkpt>
      <trkpt lat="49.75866" lon="2.19156">
        <ele>66.2</ele>
        <time>2023-01-18T13:48:28Z</time>
      </trkpt>
      <trkpt lat="49.75866" lon="2.19153">
        <ele>66.3</ele>
        <time>2023-01-18T13:48:29Z</time>
      </trkpt>
      <trkpt lat="49.75865" lon="2.19152">
        <ele>66.3</ele>
        <time>2023-01-18T13:48:30Z</time>
      </trkpt>
      <trkpt lat="49.75865" lon="2.1915">
        <ele>66.3</ele>
        <time>2023-01-18T13:48:31Z</time>
      </trkpt>
      <trkpt lat="49.75865" lon="2.19148">
        <ele>66.3</ele>
        <time>2023-01-18T13:48:33Z</time>
      </trkpt>
      <trkpt lat="49.75865" lon="2.19147">
        <ele>66.3</ele>
        <time>2023-01-18T13:48:34Z</time>
      </trkpt>
      <trkpt lat="49.75865" lon="2.19145">
        <ele>66.3</ele>
        <time>2023-01-18T13:48:35Z</time>
      </trkpt>
      <trkpt lat="49.75865" lon="2.19141">
        <ele>66.2</ele>
        <time>2023-01-18T13:48:36Z</time>
      </trkpt>
      <trkpt lat="49.75865" lon="2.1914">
        <ele>66.2</ele>
        <time>2023-01-18T13:48:37Z</time>
      </trkpt>
      <trkpt lat="49.75865" lon="2.19138">
        <ele>66.2</ele>
        <time>2023-01-18T13:48:38Z</time>
      </trkpt>
      <trkpt lat="49.75865" lon="2.19136">
        <ele>66.2</ele>
        <time>2023-01-18T13:48:39Z</time>
      </trkpt>
      <trkpt lat="49.75865" lon="2.19134">
        <ele>66.2</ele>
        <time>2023-01-18T13:48:40Z</time>
      </trkpt>
      <trkpt lat="49.75865" lon="2.19132">
        <ele>66.2</ele>
        <time>2023-01-18T13:48:42Z</time>
      </trkpt>
      <trkpt lat="49.75865" lon="2.19129">
        <ele>66.2</ele>
        <time>2023-01-18T13:48:43Z</time>
      </trkpt>
      <trkpt lat="49.75865" lon="2.19127">
        <ele>66.2</ele>
        <time>2023-01-18T13:48:44Z</time>
      </trkpt>
      <trkpt lat="49.75865" lon="2.19126">
        <ele>66.2</ele>
        <time>2023-01-18T13:48:45Z</time>
      </trkpt>
      <trkpt lat="49.75866" lon="2.19122">
        <ele>66.2</ele>
        <time>2023-01-18T13:48:46Z</time>
      </trkpt>
      <trkpt lat="49.75866" lon="2.1912">
        <ele>66.3</ele>
        <time>2023-01-18T13:48:48Z</time>
      </trkpt>
      <trkpt lat="49.75866" lon="2.19118">
        <ele>66.3</ele>
        <time>2023-01-18T13:48:49Z</time>
      </trkpt>
      <trkpt lat="49.75866" lon="2.19117">
        <ele>66.3</ele>
        <time>2023-01-18T13:48:50Z</time>
      </trkpt>
      <trkpt lat="49.75866" lon="2.19115">
        <ele>66.3</ele>
        <time>2023-01-18T13:48:51Z</time>
      </trkpt>
      <trkpt lat="49.75865" lon="2.19113">
        <ele>66.4</ele>
        <time>2023-01-18T13:48:52Z</time>
      </trkpt>
      <trkpt lat="49.75865" lon="2.19111">
        <ele>66.4</ele>
        <time>2023-01-18T13:48:53Z</time>
      </trkpt>
      <trkpt lat="49.75865" lon="2.19109">
        <ele>66.4</ele>
        <time>2023-01-18T13:48:55Z</time>
      </trkpt>
      <trkpt lat="49.75865" lon="2.19106">
        <ele>65.9</ele>
        <time>2023-01-18T13:48:56Z</time>
      </trkpt>
      <trkpt lat="49.75865" lon="2.19105">
        <ele>65.9</ele>
        <time>2023-01-18T13:48:57Z</time>
      </trkpt>
      <trkpt lat="49.75864" lon="2.19103">
        <ele>65.9</ele>
        <time>2023-01-18T13:48:58Z</time>
      </trkpt>
      <trkpt lat="49.75864" lon="2.191">
        <ele>65.9</ele>
        <time>2023-01-18T13:48:59Z</time>
      </trkpt>
      <trkpt lat="49.75864" lon="2.19099">
        <ele>65.9</ele>
        <time>2023-01-18T13:49:00Z</time>
      </trkpt>
      <trkpt lat="49.75864" lon="2.19098">
        <ele>65.9</ele>
        <time>2023-01-18T13:49:01Z</time>
      </trkpt>
      <trkpt lat="49.75864" lon="2.19096">
        <ele>65.8</ele>
        <time>2023-01-18T13:49:03Z</time>
      </trkpt>
      <trkpt lat="49.75864" lon="2.19094">
        <ele>65.8</ele>
        <time>2023-01-18T13:49:04Z</time>
      </trkpt>
      <trkpt lat="49.75864" lon="2.19092">
        <ele>65.8</ele>
        <time>2023-01-18T13:49:05Z</time>
      </trkpt>
      <trkpt lat="49.75864" lon="2.1909">
        <ele>65.7</ele>
        <time>2023-01-18T13:49:06Z</time>
      </trkpt>
      <trkpt lat="49.75864" lon="2.19089">
        <ele>65.7</ele>
        <time>2023-01-18T13:49:07Z</time>
      </trkpt>
      <trkpt lat="49.75864" lon="2.19087">
        <ele>65.6</ele>
        <time>2023-01-18T13:49:08Z</time>
      </trkpt>
      <trkpt lat="49.75864" lon="2.19085">
        <ele>65.6</ele>
        <time>2023-01-18T13:49:09Z</time>
      </trkpt>
      <trkpt lat="49.75865" lon="2.19083">
        <ele>65.5</ele>
        <time>2023-01-18T13:49:10Z</time>
      </trkpt>
      <trkpt lat="49.75865" lon="2.19081">
        <ele>65.9</ele>
        <time>2023-01-18T13:49:12Z</time>
      </trkpt>
      <trkpt lat="49.75865" lon="2.19079">
        <ele>65.9</ele>
        <time>2023-01-18T13:49:13Z</time>
      </trkpt>
      <trkpt lat="49.75865" lon="2.19077">
        <ele>65.8</ele>
        <time>2023-01-18T13:49:14Z</time>
      </trkpt>
      <trkpt lat="49.75865" lon="2.19076">
        <ele>65.8</ele>
        <time>2023-01-18T13:49:15Z</time>
      </trkpt>
      <trkpt lat="49.75865" lon="2.19074">
        <ele>65.6</ele>
        <time>2023-01-18T13:49:16Z</time>
      </trkpt>
      <trkpt lat="49.75865" lon="2.19072">
        <ele>65.6</ele>
        <time>2023-01-18T13:49:17Z</time>
      </trkpt>
      <trkpt lat="49.75865" lon="2.1907">
        <ele>65.6</ele>
        <time>2023-01-18T13:49:18Z</time>
      </trkpt>
      <trkpt lat="49.75865" lon="2.19067">
        <ele>65.4</ele>
        <time>2023-01-18T13:49:19Z</time>
      </trkpt>
      <trkpt lat="49.75865" lon="2.19066">
        <ele>65.4</ele>
        <time>2023-01-18T13:49:21Z</time>
      </trkpt>
      <trkpt lat="49.75865" lon="2.19065">
        <ele>65.3</ele>
        <time>2023-01-18T13:49:22Z</time>
      </trkpt>
      <trkpt lat="49.75866" lon="2.19061">
        <ele>65.1</ele>
        <time>2023-01-18T13:49:23Z</time>
      </trkpt>
      <trkpt lat="49.75866" lon="2.1906">
        <ele>65.1</ele>
        <time>2023-01-18T13:49:24Z</time>
      </trkpt>
      <trkpt lat="49.75866" lon="2.19059">
        <ele>65.1</ele>
        <time>2023-01-18T13:49:25Z</time>
      </trkpt>
      <trkpt lat="49.75866" lon="2.19055">
        <ele>64.9</ele>
        <time>2023-01-18T13:49:26Z</time>
      </trkpt>
      <trkpt lat="49.75866" lon="2.19054">
        <ele>64.9</ele>
        <time>2023-01-18T13:49:27Z</time>
      </trkpt>
      <trkpt lat="49.75867" lon="2.19053">
        <ele>64.9</ele>
        <time>2023-01-18T13:49:28Z</time>
      </trkpt>
      <trkpt lat="49.75867" lon="2.1905">
        <ele>64.8</ele>
        <time>2023-01-18T13:49:30Z</time>
      </trkpt>
      <trkpt lat="49.75867" lon="2.19048">
        <ele>64.7</ele>
        <time>2023-01-18T13:49:31Z</time>
      </trkpt>
      <trkpt lat="49.75868" lon="2.19047">
        <ele>65.2</ele>
        <time>2023-01-18T13:49:32Z</time>
      </trkpt>
      <trkpt lat="49.75868" lon="2.19044">
        <ele>65</ele>
        <time>2023-01-18T13:49:33Z</time>
      </trkpt>
      <trkpt lat="49.75868" lon="2.19043">
        <ele>65</ele>
        <time>2023-01-18T13:49:34Z</time>
      </trkpt>
      <trkpt lat="49.75868" lon="2.19041">
        <ele>65</ele>
        <time>2023-01-18T13:49:35Z</time>
      </trkpt>
      <trkpt lat="49.75869" lon="2.19038">
        <ele>64.9</ele>
        <time>2023-01-18T13:49:36Z</time>
      </trkpt>
      <trkpt lat="49.75869" lon="2.19037">
        <ele>64.9</ele>
        <time>2023-01-18T13:49:38Z</time>
      </trkpt>
      <trkpt lat="49.75869" lon="2.19036">
        <ele>64.9</ele>
        <time>2023-01-18T13:49:39Z</time>
      </trkpt>
      <trkpt lat="49.75869" lon="2.19034">
        <ele>64.8</ele>
        <time>2023-01-18T13:49:40Z</time>
      </trkpt>
      <trkpt lat="49.75869" lon="2.19033">
        <ele>64.8</ele>
        <time>2023-01-18T13:49:41Z</time>
      </trkpt>
      <trkpt lat="49.75869" lon="2.19032">
        <ele>64.8</ele>
        <time>2023-01-18T13:49:42Z</time>
      </trkpt>
      <trkpt lat="49.75869" lon="2.19029">
        <ele>64.7</ele>
        <time>2023-01-18T13:49:43Z</time>
      </trkpt>
      <trkpt lat="49.7587" lon="2.19027">
        <ele>64.7</ele>
        <time>2023-01-18T13:49:44Z</time>
      </trkpt>
      <trkpt lat="49.7587" lon="2.19026">
        <ele>64.6</ele>
        <time>2023-01-18T13:49:45Z</time>
      </trkpt>
      <trkpt lat="49.7587" lon="2.19024">
        <ele>64.6</ele>
        <time>2023-01-18T13:49:46Z</time>
      </trkpt>
      <trkpt lat="49.7587" lon="2.19022">
        <ele>64.9</ele>
        <time>2023-01-18T13:49:47Z</time>
      </trkpt>
      <trkpt lat="49.75871" lon="2.1902">
        <ele>64.9</ele>
        <time>2023-01-18T13:49:49Z</time>
      </trkpt>
      <trkpt lat="49.75871" lon="2.19018">
        <ele>64.8</ele>
        <time>2023-01-18T13:49:50Z</time>
      </trkpt>
      <trkpt lat="49.75871" lon="2.19016">
        <ele>64.8</ele>
        <time>2023-01-18T13:49:51Z</time>
      </trkpt>
      <trkpt lat="49.75872" lon="2.19014">
        <ele>64.7</ele>
        <time>2023-01-18T13:49:53Z</time>
      </trkpt>
      <trkpt lat="49.75872" lon="2.19011">
        <ele>64.7</ele>
        <time>2023-01-18T13:49:54Z</time>
      </trkpt>
      <trkpt lat="49.75872" lon="2.19009">
        <ele>64.6</ele>
        <time>2023-01-18T13:49:55Z</time>
      </trkpt>
      <trkpt lat="49.75872" lon="2.19008">
        <ele>64.6</ele>
        <time>2023-01-18T13:49:56Z</time>
      </trkpt>
      <trkpt lat="49.75872" lon="2.19006">
        <ele>64.6</ele>
        <time>2023-01-18T13:49:57Z</time>
      </trkpt>
      <trkpt lat="49.75873" lon="2.19004">
        <ele>64.5</ele>
        <time>2023-01-18T13:49:58Z</time>
      </trkpt>
      <trkpt lat="49.75873" lon="2.19001">
        <ele>64.8</ele>
        <time>2023-01-18T13:49:59Z</time>
      </trkpt>
      <trkpt lat="49.75873" lon="2.18999">
        <ele>64.8</ele>
        <time>2023-01-18T13:50:00Z</time>
      </trkpt>
      <trkpt lat="49.75873" lon="2.18998">
        <ele>64.8</ele>
        <time>2023-01-18T13:50:01Z</time>
      </trkpt>
      <trkpt lat="49.75874" lon="2.18995">
        <ele>64.6</ele>
        <time>2023-01-18T13:50:03Z</time>
      </trkpt>
      <trkpt lat="49.75874" lon="2.18994">
        <ele>64.6</ele>
        <time>2023-01-18T13:50:04Z</time>
      </trkpt>
      <trkpt lat="49.75874" lon="2.18993">
        <ele>64.5</ele>
        <time>2023-01-18T13:50:05Z</time>
      </trkpt>
      <trkpt lat="49.75875" lon="2.18991">
        <ele>64.5</ele>
        <time>2023-01-18T13:50:06Z</time>
      </trkpt>
      <trkpt lat="49.75875" lon="2.1899">
        <ele>64.5</ele>
        <time>2023-01-18T13:50:07Z</time>
      </trkpt>
      <trkpt lat="49.75875" lon="2.18988">
        <ele>64.3</ele>
        <time>2023-01-18T13:50:08Z</time>
      </trkpt>
      <trkpt lat="49.75876" lon="2.18985">
        <ele>64.7</ele>
        <time>2023-01-18T13:50:09Z</time>
      </trkpt>
      <trkpt lat="49.75877" lon="2.18984">
        <ele>64.5</ele>
        <time>2023-01-18T13:50:11Z</time>
      </trkpt>
      <trkpt lat="49.75877" lon="2.18983">
        <ele>64.5</ele>
        <time>2023-01-18T13:50:12Z</time>
      </trkpt>
      <trkpt lat="49.75877" lon="2.18982">
        <ele>64.5</ele>
        <time>2023-01-18T13:50:13Z</time>
      </trkpt>
      <trkpt lat="49.75878" lon="2.1898">
        <ele>64.5</ele>
        <time>2023-01-18T13:50:14Z</time>
      </trkpt>
      <trkpt lat="49.75879" lon="2.18979">
        <ele>64.7</ele>
        <time>2023-01-18T13:50:15Z</time>
      </trkpt>
      <trkpt lat="49.7588" lon="2.18977">
        <ele>64.7</ele>
        <time>2023-01-18T13:50:17Z</time>
      </trkpt>
      <trkpt lat="49.7588" lon="2.18976">
        <ele>64.7</ele>
        <time>2023-01-18T13:50:18Z</time>
      </trkpt>
      <trkpt lat="49.75881" lon="2.18974">
        <ele>64.5</ele>
        <time>2023-01-18T13:50:19Z</time>
      </trkpt>
      <trkpt lat="49.75881" lon="2.18973">
        <ele>64.5</ele>
        <time>2023-01-18T13:50:20Z</time>
      </trkpt>
      <trkpt lat="49.75882" lon="2.18972">
        <ele>64.9</ele>
        <time>2023-01-18T13:50:21Z</time>
      </trkpt>
      <trkpt lat="49.75883" lon="2.1897">
        <ele>64.8</ele>
        <time>2023-01-18T13:50:22Z</time>
      </trkpt>
      <trkpt lat="49.75883" lon="2.18967">
        <ele>64.8</ele>
        <time>2023-01-18T13:50:23Z</time>
      </trkpt>
      <trkpt lat="49.75884" lon="2.18966">
        <ele>64.6</ele>
        <time>2023-01-18T13:50:24Z</time>
      </trkpt>
      <trkpt lat="49.75884" lon="2.18965">
        <ele>64.6</ele>
        <time>2023-01-18T13:50:25Z</time>
      </trkpt>
      <trkpt lat="49.75885" lon="2.18962">
        <ele>64.9</ele>
        <time>2023-01-18T13:50:27Z</time>
      </trkpt>
      <trkpt lat="49.75885" lon="2.1896">
        <ele>64.9</ele>
        <time>2023-01-18T13:50:28Z</time>
      </trkpt>
      <trkpt lat="49.75885" lon="2.18959">
        <ele>64.9</ele>
        <time>2023-01-18T13:50:29Z</time>
      </trkpt>
      <trkpt lat="49.75885" lon="2.18957">
        <ele>64.9</ele>
        <time>2023-01-18T13:50:30Z</time>
      </trkpt>
      <trkpt lat="49.75886" lon="2.18955">
        <ele>64.9</ele>
        <time>2023-01-18T13:50:31Z</time>
      </trkpt>
      <trkpt lat="49.75886" lon="2.18953">
        <ele>64.8</ele>
        <time>2023-01-18T13:50:32Z</time>
      </trkpt>
      <trkpt lat="49.75886" lon="2.18951">
        <ele>64.8</ele>
        <time>2023-01-18T13:50:33Z</time>
      </trkpt>
      <trkpt lat="49.75887" lon="2.1895">
        <ele>64.8</ele>
        <time>2023-01-18T13:50:34Z</time>
      </trkpt>
      <trkpt lat="49.75887" lon="2.18948">
        <ele>65.2</ele>
        <time>2023-01-18T13:50:36Z</time>
      </trkpt>
      <trkpt lat="49.75887" lon="2.18946">
        <ele>65.2</ele>
        <time>2023-01-18T13:50:37Z</time>
      </trkpt>
      <trkpt lat="49.75888" lon="2.18944">
        <ele>65.1</ele>
        <time>2023-01-18T13:50:38Z</time>
      </trkpt>
      <trkpt lat="49.75888" lon="2.18942">
        <ele>65.1</ele>
        <time>2023-01-18T13:50:39Z</time>
      </trkpt>
      <trkpt lat="49.75888" lon="2.1894">
        <ele>65</ele>
        <time>2023-01-18T13:50:41Z</time>
      </trkpt>
      <trkpt lat="49.75888" lon="2.18938">
        <ele>65</ele>
        <time>2023-01-18T13:50:42Z</time>
      </trkpt>
      <trkpt lat="49.75888" lon="2.18936">
        <ele>65</ele>
        <time>2023-01-18T13:50:43Z</time>
      </trkpt>
      <trkpt lat="49.75888" lon="2.18935">
        <ele>65</ele>
        <time>2023-01-18T13:50:44Z</time>
      </trkpt>
      <trkpt lat="49.75888" lon="2.18933">
        <ele>65</ele>
        <time>2023-01-18T13:50:45Z</time>
      </trkpt>
      <trkpt lat="49.75889" lon="2.18931">
        <ele>65</ele>
        <time>2023-01-18T13:50:46Z</time>
      </trkpt>
      <trkpt lat="49.75889" lon="2.18929">
        <ele>65</ele>
        <time>2023-01-18T13:50:47Z</time>
      </trkpt>
      <trkpt lat="49.75889" lon="2.18926">
        <ele>64.9</ele>
        <time>2023-01-18T13:50:48Z</time>
      </trkpt>
      <trkpt lat="49.7589" lon="2.18925">
        <ele>64.9</ele>
        <time>2023-01-18T13:50:50Z</time>
      </trkpt>
      <trkpt lat="49.7589" lon="2.18923">
        <ele>65</ele>
        <time>2023-01-18T13:50:51Z</time>
      </trkpt>
      <trkpt lat="49.7589" lon="2.18922">
        <ele>65</ele>
        <time>2023-01-18T13:50:52Z</time>
      </trkpt>
      <trkpt lat="49.75891" lon="2.1892">
        <ele>65</ele>
        <time>2023-01-18T13:50:53Z</time>
      </trkpt>
      <trkpt lat="49.75892" lon="2.18917">
        <ele>65</ele>
        <time>2023-01-18T13:50:54Z</time>
      </trkpt>
      <trkpt lat="49.75892" lon="2.18916">
        <ele>65</ele>
        <time>2023-01-18T13:50:55Z</time>
      </trkpt>
      <trkpt lat="49.75892" lon="2.18914">
        <ele>64.9</ele>
        <time>2023-01-18T13:50:56Z</time>
      </trkpt>
      <trkpt lat="49.75893" lon="2.18911">
        <ele>65.1</ele>
        <time>2023-01-18T13:50:57Z</time>
      </trkpt>
      <trkpt lat="49.75893" lon="2.1891">
        <ele>65.1</ele>
        <time>2023-01-18T13:50:59Z</time>
      </trkpt>
      <trkpt lat="49.75894" lon="2.18909">
        <ele>65.1</ele>
        <time>2023-01-18T13:51:00Z</time>
      </trkpt>
      <trkpt lat="49.75894" lon="2.18906">
        <ele>65</ele>
        <time>2023-01-18T13:51:01Z</time>
      </trkpt>
      <trkpt lat="49.75895" lon="2.18904">
        <ele>65</ele>
        <time>2023-01-18T13:51:02Z</time>
      </trkpt>
      <trkpt lat="49.75895" lon="2.18903">
        <ele>65</ele>
        <time>2023-01-18T13:51:03Z</time>
      </trkpt>
      <trkpt lat="49.75896" lon="2.189">
        <ele>65.1</ele>
        <time>2023-01-18T13:51:04Z</time>
      </trkpt>
      <trkpt lat="49.75896" lon="2.18899">
        <ele>65.1</ele>
        <time>2023-01-18T13:51:05Z</time>
      </trkpt>
      <trkpt lat="49.75897" lon="2.18898">
        <ele>64.9</ele>
        <time>2023-01-18T13:51:06Z</time>
      </trkpt>
      <trkpt lat="49.75897" lon="2.18896">
        <ele>64.9</ele>
        <time>2023-01-18T13:51:07Z</time>
      </trkpt>
      <trkpt lat="49.75898" lon="2.18895">
        <ele>64.9</ele>
        <time>2023-01-18T13:51:08Z</time>
      </trkpt>
      <trkpt lat="49.75898" lon="2.18893">
        <ele>64.9</ele>
        <time>2023-01-18T13:51:10Z</time>
      </trkpt>
      <trkpt lat="49.75899" lon="2.1889">
        <ele>64.7</ele>
        <time>2023-01-18T13:51:11Z</time>
      </trkpt>
      <trkpt lat="49.75899" lon="2.18888">
        <ele>64.7</ele>
        <time>2023-01-18T13:51:12Z</time>
      </trkpt>
      <trkpt lat="49.75899" lon="2.18887">
        <ele>64.7</ele>
        <time>2023-01-18T13:51:13Z</time>
      </trkpt>
      <trkpt lat="49.759" lon="2.18885">
        <ele>64.5</ele>
        <time>2023-01-18T13:51:14Z</time>
      </trkpt>
      <trkpt lat="49.759" lon="2.18884">
        <ele>64.5</ele>
        <time>2023-01-18T13:51:15Z</time>
      </trkpt>
      <trkpt lat="49.75901" lon="2.18882">
        <ele>64.5</ele>
        <time>2023-01-18T13:51:16Z</time>
      </trkpt>
      <trkpt lat="49.75901" lon="2.1888">
        <ele>64.4</ele>
        <time>2023-01-18T13:51:17Z</time>
      </trkpt>
      <trkpt lat="49.75901" lon="2.18879">
        <ele>64.4</ele>
        <time>2023-01-18T13:51:18Z</time>
      </trkpt>
      <trkpt lat="49.75902" lon="2.18877">
        <ele>64.4</ele>
        <time>2023-01-18T13:51:20Z</time>
      </trkpt>
      <trkpt lat="49.75902" lon="2.18875">
        <ele>64.2</ele>
        <time>2023-01-18T13:51:21Z</time>
      </trkpt>
      <trkpt lat="49.75903" lon="2.18873">
        <ele>64.2</ele>
        <time>2023-01-18T13:51:22Z</time>
      </trkpt>
      <trkpt lat="49.75903" lon="2.18872">
        <ele>64.1</ele>
        <time>2023-01-18T13:51:23Z</time>
      </trkpt>
      <trkpt lat="49.75904" lon="2.1887">
        <ele>64.2</ele>
        <time>2023-01-18T13:51:24Z</time>
      </trkpt>
      <trkpt lat="49.75904" lon="2.18869">
        <ele>64.2</ele>
        <time>2023-01-18T13:51:25Z</time>
      </trkpt>
      <trkpt lat="49.75905" lon="2.18867">
        <ele>64.1</ele>
        <time>2023-01-18T13:51:26Z</time>
      </trkpt>
      <trkpt lat="49.75905" lon="2.18866">
        <ele>64.1</ele>
        <time>2023-01-18T13:51:27Z</time>
      </trkpt>
      <trkpt lat="49.75906" lon="2.18865">
        <ele>64.1</ele>
        <time>2023-01-18T13:51:28Z</time>
      </trkpt>
      <trkpt lat="49.75906" lon="2.18863">
        <ele>64</ele>
        <time>2023-01-18T13:51:30Z</time>
      </trkpt>
      <trkpt lat="49.75907" lon="2.18861">
        <ele>64.1</ele>
        <time>2023-01-18T13:51:31Z</time>
      </trkpt>
      <trkpt lat="49.75907" lon="2.1886">
        <ele>64.1</ele>
        <time>2023-01-18T13:51:32Z</time>
      </trkpt>
      <trkpt lat="49.75908" lon="2.18858">
        <ele>64.1</ele>
        <time>2023-01-18T13:51:33Z</time>
      </trkpt>
      <trkpt lat="49.75908" lon="2.18856">
        <ele>64.1</ele>
        <time>2023-01-18T13:51:34Z</time>
      </trkpt>
      <trkpt lat="49.75909" lon="2.18855">
        <ele>64</ele>
        <time>2023-01-18T13:51:35Z</time>
      </trkpt>
      <trkpt lat="49.7591" lon="2.18853">
        <ele>64.2</ele>
        <time>2023-01-18T13:51:36Z</time>
      </trkpt>
      <trkpt lat="49.7591" lon="2.18852">
        <ele>64.2</ele>
        <time>2023-01-18T13:51:37Z</time>
      </trkpt>
      <trkpt lat="49.75911" lon="2.1885">
        <ele>64.2</ele>
        <time>2023-01-18T13:51:39Z</time>
      </trkpt>
      <trkpt lat="49.75912" lon="2.18847">
        <ele>64.2</ele>
        <time>2023-01-18T13:51:40Z</time>
      </trkpt>
      <trkpt lat="49.75912" lon="2.18846">
        <ele>64.4</ele>
        <time>2023-01-18T13:51:41Z</time>
      </trkpt>
      <trkpt lat="49.75913" lon="2.18844">
        <ele>64.4</ele>
        <time>2023-01-18T13:51:42Z</time>
      </trkpt>
      <trkpt lat="49.75914" lon="2.18841">
        <ele>64.3</ele>
        <time>2023-01-18T13:51:43Z</time>
      </trkpt>
      <trkpt lat="49.75914" lon="2.1884">
        <ele>64.3</ele>
        <time>2023-01-18T13:51:44Z</time>
      </trkpt>
      <trkpt lat="49.75914" lon="2.18839">
        <ele>64.3</ele>
        <time>2023-01-18T13:51:45Z</time>
      </trkpt>
      <trkpt lat="49.75915" lon="2.18837">
        <ele>64.5</ele>
        <time>2023-01-18T13:51:46Z</time>
      </trkpt>
      <trkpt lat="49.75916" lon="2.18835">
        <ele>64.5</ele>
        <time>2023-01-18T13:51:47Z</time>
      </trkpt>
      <trkpt lat="49.75916" lon="2.18833">
        <ele>64.5</ele>
        <time>2023-01-18T13:51:48Z</time>
      </trkpt>
      <trkpt lat="49.75917" lon="2.18832">
        <ele>64.5</ele>
        <time>2023-01-18T13:51:49Z</time>
      </trkpt>
      <trkpt lat="49.75918" lon="2.1883">
        <ele>64.7</ele>
        <time>2023-01-18T13:51:51Z</time>
      </trkpt>
      <trkpt lat="49.75919" lon="2.18828">
        <ele>64.6</ele>
        <time>2023-01-18T13:51:52Z</time>
      </trkpt>
      <trkpt lat="49.7592" lon="2.18826">
        <ele>64.6</ele>
        <time>2023-01-18T13:51:53Z</time>
      </trkpt>
      <trkpt lat="49.75921" lon="2.18824">
        <ele>64.7</ele>
        <time>2023-01-18T13:51:54Z</time>
      </trkpt>
      <trkpt lat="49.75921" lon="2.18823">
        <ele>64.7</ele>
        <time>2023-01-18T13:51:55Z</time>
      </trkpt>
      <trkpt lat="49.75922" lon="2.18821">
        <ele>64.7</ele>
        <time>2023-01-18T13:51:56Z</time>
      </trkpt>
      <trkpt lat="49.75923" lon="2.18818">
        <ele>64.8</ele>
        <time>2023-01-18T13:51:57Z</time>
      </trkpt>
      <trkpt lat="49.75924" lon="2.18817">
        <ele>64.8</ele>
        <time>2023-01-18T13:51:59Z</time>
      </trkpt>
      <trkpt lat="49.75924" lon="2.18816">
        <ele>64.6</ele>
        <time>2023-01-18T13:52:00Z</time>
      </trkpt>
      <trkpt lat="49.75925" lon="2.18814">
        <ele>64.6</ele>
        <time>2023-01-18T13:52:01Z</time>
      </trkpt>
      <trkpt lat="49.75925" lon="2.18813">
        <ele>64.6</ele>
        <time>2023-01-18T13:52:02Z</time>
      </trkpt>
      <trkpt lat="49.75926" lon="2.18812">
        <ele>64.6</ele>
        <time>2023-01-18T13:52:03Z</time>
      </trkpt>
      <trkpt lat="49.75927" lon="2.1881">
        <ele>64.6</ele>
        <time>2023-01-18T13:52:04Z</time>
      </trkpt>
      <trkpt lat="49.75928" lon="2.18808">
        <ele>64.6</ele>
        <time>2023-01-18T13:52:06Z</time>
      </trkpt>
      <trkpt lat="49.75928" lon="2.18807">
        <ele>64.4</ele>
        <time>2023-01-18T13:52:07Z</time>
      </trkpt>
      <trkpt lat="49.75929" lon="2.18805">
        <ele>64.5</ele>
        <time>2023-01-18T13:52:08Z</time>
      </trkpt>
      <trkpt lat="49.7593" lon="2.18804">
        <ele>64.5</ele>
        <time>2023-01-18T13:52:09Z</time>
      </trkpt>
      <trkpt lat="49.75932" lon="2.18802">
        <ele>64.4</ele>
        <time>2023-01-18T13:52:10Z</time>
      </trkpt>
      <trkpt lat="49.75932" lon="2.18801">
        <ele>64.4</ele>
        <time>2023-01-18T13:52:11Z</time>
      </trkpt>
      <trkpt lat="49.75933" lon="2.18801">
        <ele>64.4</ele>
        <time>2023-01-18T13:52:13Z</time>
      </trkpt>
      <trkpt lat="49.75934" lon="2.188">
        <ele>64.6</ele>
        <time>2023-01-18T13:52:14Z</time>
      </trkpt>
      <trkpt lat="49.75935" lon="2.18799">
        <ele>64.4</ele>
        <time>2023-01-18T13:52:15Z</time>
      </trkpt>
      <trkpt lat="49.75936" lon="2.18798">
        <ele>64.4</ele>
        <time>2023-01-18T13:52:16Z</time>
      </trkpt>
      <trkpt lat="49.75938" lon="2.18797">
        <ele>64.6</ele>
        <time>2023-01-18T13:52:17Z</time>
      </trkpt>
      <trkpt lat="49.75939" lon="2.18796">
        <ele>64.6</ele>
        <time>2023-01-18T13:52:18Z</time>
      </trkpt>
      <trkpt lat="49.75939" lon="2.18796">
        <ele>64.6</ele>
        <time>2023-01-18T13:52:19Z</time>
      </trkpt>
      <trkpt lat="49.75941" lon="2.18795">
        <ele>64.6</ele>
        <time>2023-01-18T13:52:20Z</time>
      </trkpt>
      <trkpt lat="49.75942" lon="2.18794">
        <ele>64.6</ele>
        <time>2023-01-18T13:52:22Z</time>
      </trkpt>
      <trkpt lat="49.75943" lon="2.18794">
        <ele>64.9</ele>
        <time>2023-01-18T13:52:23Z</time>
      </trkpt>
      <trkpt lat="49.75944" lon="2.18793">
        <ele>64.9</ele>
        <time>2023-01-18T13:52:24Z</time>
      </trkpt>
      <trkpt lat="49.75945" lon="2.18793">
        <ele>64.9</ele>
        <time>2023-01-18T13:52:25Z</time>
      </trkpt>
      <trkpt lat="49.75946" lon="2.18792">
        <ele>65.2</ele>
        <time>2023-01-18T13:52:26Z</time>
      </trkpt>
      <trkpt lat="49.75948" lon="2.1879">
        <ele>65.1</ele>
        <time>2023-01-18T13:52:27Z</time>
      </trkpt>
      <trkpt lat="49.75949" lon="2.1879">
        <ele>65.4</ele>
        <time>2023-01-18T13:52:28Z</time>
      </trkpt>
      <trkpt lat="49.75949" lon="2.18789">
        <ele>65.4</ele>
        <time>2023-01-18T13:52:29Z</time>
      </trkpt>
      <trkpt lat="49.75951" lon="2.18787">
        <ele>65.7</ele>
        <time>2023-01-18T13:52:31Z</time>
      </trkpt>
      <trkpt lat="49.75952" lon="2.18787">
        <ele>65.6</ele>
        <time>2023-01-18T13:52:32Z</time>
      </trkpt>
      <trkpt lat="49.75953" lon="2.18786">
        <ele>65.6</ele>
        <time>2023-01-18T13:52:33Z</time>
      </trkpt>
      <trkpt lat="49.75954" lon="2.18786">
        <ele>65.9</ele>
        <time>2023-01-18T13:52:34Z</time>
      </trkpt>
      <trkpt lat="49.75955" lon="2.18785">
        <ele>65.9</ele>
        <time>2023-01-18T13:52:35Z</time>
      </trkpt>
      <trkpt lat="49.75956" lon="2.18785">
        <ele>65.9</ele>
        <time>2023-01-18T13:52:36Z</time>
      </trkpt>
      <trkpt lat="49.75957" lon="2.18784">
        <ele>66.2</ele>
        <time>2023-01-18T13:52:37Z</time>
      </trkpt>
      <trkpt lat="49.75958" lon="2.18783">
        <ele>66.2</ele>
        <time>2023-01-18T13:52:38Z</time>
      </trkpt>
      <trkpt lat="49.75959" lon="2.18782">
        <ele>66.3</ele>
        <time>2023-01-18T13:52:40Z</time>
      </trkpt>
      <trkpt lat="49.75961" lon="2.18781">
        <ele>66.3</ele>
        <time>2023-01-18T13:52:41Z</time>
      </trkpt>
      <trkpt lat="49.75962" lon="2.18781">
        <ele>66.3</ele>
        <time>2023-01-18T13:52:42Z</time>
      </trkpt>
      <trkpt lat="49.75962" lon="2.1878">
        <ele>66.6</ele>
        <time>2023-01-18T13:52:43Z</time>
      </trkpt>
      <trkpt lat="49.75964" lon="2.1878">
        <ele>66.6</ele>
        <time>2023-01-18T13:52:44Z</time>
      </trkpt>
      <trkpt lat="49.75965" lon="2.18779">
        <ele>66.9</ele>
        <time>2023-01-18T13:52:45Z</time>
      </trkpt>
      <trkpt lat="49.75966" lon="2.18779">
        <ele>66.9</ele>
        <time>2023-01-18T13:52:46Z</time>
      </trkpt>
      <trkpt lat="49.75967" lon="2.18778">
        <ele>66.7</ele>
        <time>2023-01-18T13:52:47Z</time>
      </trkpt>
      <trkpt lat="49.75968" lon="2.18777">
        <ele>67</ele>
        <time>2023-01-18T13:52:49Z</time>
      </trkpt>
      <trkpt lat="49.75969" lon="2.18777">
        <ele>67</ele>
        <time>2023-01-18T13:52:50Z</time>
      </trkpt>
      <trkpt lat="49.7597" lon="2.18776">
        <ele>67</ele>
        <time>2023-01-18T13:52:51Z</time>
      </trkpt>
      <trkpt lat="49.75971" lon="2.18775">
        <ele>67.3</ele>
        <time>2023-01-18T13:52:52Z</time>
      </trkpt>
      <trkpt lat="49.75972" lon="2.18775">
        <ele>67.3</ele>
        <time>2023-01-18T13:52:53Z</time>
      </trkpt>
      <trkpt lat="49.75974" lon="2.18773">
        <ele>67.4</ele>
        <time>2023-01-18T13:52:54Z</time>
      </trkpt>
      <trkpt lat="49.75975" lon="2.18773">
        <ele>67.4</ele>
        <time>2023-01-18T13:52:55Z</time>
      </trkpt>
      <trkpt lat="49.75975" lon="2.18772">
        <ele>67.4</ele>
        <time>2023-01-18T13:52:56Z</time>
      </trkpt>
      <trkpt lat="49.75976" lon="2.18771">
        <ele>67.7</ele>
        <time>2023-01-18T13:52:58Z</time>
      </trkpt>
      <trkpt lat="49.75977" lon="2.18771">
        <ele>67.7</ele>
        <time>2023-01-18T13:52:59Z</time>
      </trkpt>
      <trkpt lat="49.75978" lon="2.1877">
        <ele>67.7</ele>
        <time>2023-01-18T13:53:00Z</time>
      </trkpt>
      <trkpt lat="49.75979" lon="2.18769">
        <ele>67.7</ele>
        <time>2023-01-18T13:53:01Z</time>
      </trkpt>
      <trkpt lat="49.7598" lon="2.18768">
        <ele>67.7</ele>
        <time>2023-01-18T13:53:02Z</time>
      </trkpt>
      <trkpt lat="49.75981" lon="2.18767">
        <ele>67.7</ele>
        <time>2023-01-18T13:53:03Z</time>
      </trkpt>
      <trkpt lat="49.75982" lon="2.18766">
        <ele>67.9</ele>
        <time>2023-01-18T13:53:04Z</time>
      </trkpt>
      <trkpt lat="49.75983" lon="2.18765">
        <ele>67.6</ele>
        <time>2023-01-18T13:53:05Z</time>
      </trkpt>
      <trkpt lat="49.75984" lon="2.18764">
        <ele>67.6</ele>
        <time>2023-01-18T13:53:06Z</time>
      </trkpt>
      <trkpt lat="49.75985" lon="2.18762">
        <ele>67.9</ele>
        <time>2023-01-18T13:53:07Z</time>
      </trkpt>
      <trkpt lat="49.75986" lon="2.18761">
        <ele>67.9</ele>
        <time>2023-01-18T13:53:09Z</time>
      </trkpt>
      <trkpt lat="49.75987" lon="2.18761">
        <ele>67.8</ele>
        <time>2023-01-18T13:53:10Z</time>
      </trkpt>
      <trkpt lat="49.75989" lon="2.18759">
        <ele>67.8</ele>
        <time>2023-01-18T13:53:11Z</time>
      </trkpt>
      <trkpt lat="49.75989" lon="2.18758">
        <ele>67.8</ele>
        <time>2023-01-18T13:53:12Z</time>
      </trkpt>
      <trkpt lat="49.7599" lon="2.18758">
        <ele>68</ele>
        <time>2023-01-18T13:53:13Z</time>
      </trkpt>
      <trkpt lat="49.75992" lon="2.18756">
        <ele>67.6</ele>
        <time>2023-01-18T13:53:14Z</time>
      </trkpt>
      <trkpt lat="49.75993" lon="2.18756">
        <ele>67.9</ele>
        <time>2023-01-18T13:53:15Z</time>
      </trkpt>
      <trkpt lat="49.75993" lon="2.18755">
        <ele>67.9</ele>
        <time>2023-01-18T13:53:16Z</time>
      </trkpt>
      <trkpt lat="49.75995" lon="2.18753">
        <ele>68.1</ele>
        <time>2023-01-18T13:53:18Z</time>
      </trkpt>
      <trkpt lat="49.75996" lon="2.18753">
        <ele>68.1</ele>
        <time>2023-01-18T13:53:19Z</time>
      </trkpt>
      <trkpt lat="49.75997" lon="2.18752">
        <ele>67.7</ele>
        <time>2023-01-18T13:53:20Z</time>
      </trkpt>
      <trkpt lat="49.75998" lon="2.18752">
        <ele>68.1</ele>
        <time>2023-01-18T13:53:21Z</time>
      </trkpt>
      <trkpt lat="49.75999" lon="2.18751">
        <ele>68.1</ele>
        <time>2023-01-18T13:53:22Z</time>
      </trkpt>
      <trkpt lat="49.76" lon="2.1875">
        <ele>68.1</ele>
        <time>2023-01-18T13:53:23Z</time>
      </trkpt>
      <trkpt lat="49.76001" lon="2.18749">
        <ele>68.4</ele>
        <time>2023-01-18T13:53:24Z</time>
      </trkpt>
      <trkpt lat="49.76002" lon="2.18748">
        <ele>68</ele>
        <time>2023-01-18T13:53:25Z</time>
      </trkpt>
      <trkpt lat="49.76003" lon="2.18747">
        <ele>68</ele>
        <time>2023-01-18T13:53:27Z</time>
      </trkpt>
      <trkpt lat="49.76004" lon="2.18746">
        <ele>68.2</ele>
        <time>2023-01-18T13:53:28Z</time>
      </trkpt>
      <trkpt lat="49.76005" lon="2.18745">
        <ele>68.2</ele>
        <time>2023-01-18T13:53:29Z</time>
      </trkpt>
      <trkpt lat="49.76006" lon="2.18744">
        <ele>68.2</ele>
        <time>2023-01-18T13:53:30Z</time>
      </trkpt>
      <trkpt lat="49.76008" lon="2.18743">
        <ele>68</ele>
        <time>2023-01-18T13:53:31Z</time>
      </trkpt>
      <trkpt lat="49.76008" lon="2.18742">
        <ele>68</ele>
        <time>2023-01-18T13:53:32Z</time>
      </trkpt>
      <trkpt lat="49.76009" lon="2.18741">
        <ele>68.2</ele>
        <time>2023-01-18T13:53:33Z</time>
      </trkpt>
      <trkpt lat="49.76011" lon="2.1874">
        <ele>68.2</ele>
        <time>2023-01-18T13:53:35Z</time>
      </trkpt>
      <trkpt lat="49.76012" lon="2.18739">
        <ele>68</ele>
        <time>2023-01-18T13:53:36Z</time>
      </trkpt>
      <trkpt lat="49.76013" lon="2.18738">
        <ele>68</ele>
        <time>2023-01-18T13:53:37Z</time>
      </trkpt>
      <trkpt lat="49.76014" lon="2.18737">
        <ele>68</ele>
        <time>2023-01-18T13:53:38Z</time>
      </trkpt>
      <trkpt lat="49.76015" lon="2.18736">
        <ele>68.2</ele>
        <time>2023-01-18T13:53:39Z</time>
      </trkpt>
      <trkpt lat="49.76016" lon="2.18735">
        <ele>68.2</ele>
        <time>2023-01-18T13:53:40Z</time>
      </trkpt>
      <trkpt lat="49.76017" lon="2.18734">
        <ele>68</ele>
        <time>2023-01-18T13:53:41Z</time>
      </trkpt>
      <trkpt lat="49.76018" lon="2.18733">
        <ele>68</ele>
        <time>2023-01-18T13:53:43Z</time>
      </trkpt>
      <trkpt lat="49.76019" lon="2.18732">
        <ele>68</ele>
        <time>2023-01-18T13:53:44Z</time>
      </trkpt>
      <trkpt lat="49.7602" lon="2.18731">
        <ele>68</ele>
        <time>2023-01-18T13:53:45Z</time>
      </trkpt>
      <trkpt lat="49.76021" lon="2.1873">
        <ele>67.8</ele>
        <time>2023-01-18T13:53:46Z</time>
      </trkpt>
      <trkpt lat="49.76022" lon="2.18729">
        <ele>67.8</ele>
        <time>2023-01-18T13:53:47Z</time>
      </trkpt>
      <trkpt lat="49.76024" lon="2.18728">
        <ele>68</ele>
        <time>2023-01-18T13:53:48Z</time>
      </trkpt>
      <trkpt lat="49.76025" lon="2.18728">
        <ele>68</ele>
        <time>2023-01-18T13:53:50Z</time>
      </trkpt>
      <trkpt lat="49.76025" lon="2.18728">
        <ele>68</ele>
        <time>2023-01-18T13:53:51Z</time>
      </trkpt>
      <trkpt lat="49.76027" lon="2.18727">
        <ele>67.8</ele>
        <time>2023-01-18T13:53:52Z</time>
      </trkpt>
      <trkpt lat="49.76028" lon="2.18726">
        <ele>67.8</ele>
        <time>2023-01-18T13:53:53Z</time>
      </trkpt>
      <trkpt lat="49.76029" lon="2.18725">
        <ele>68</ele>
        <time>2023-01-18T13:53:54Z</time>
      </trkpt>
      <trkpt lat="49.7603" lon="2.18725">
        <ele>68</ele>
        <time>2023-01-18T13:53:56Z</time>
      </trkpt>
      <trkpt lat="49.76031" lon="2.18724">
        <ele>68</ele>
        <time>2023-01-18T13:53:57Z</time>
      </trkpt>
      <trkpt lat="49.76032" lon="2.18723">
        <ele>68.2</ele>
        <time>2023-01-18T13:53:58Z</time>
      </trkpt>
      <trkpt lat="49.76033" lon="2.18722">
        <ele>67.8</ele>
        <time>2023-01-18T13:53:59Z</time>
      </trkpt>
      <trkpt lat="49.76034" lon="2.18721">
        <ele>67.8</ele>
        <time>2023-01-18T13:54:00Z</time>
      </trkpt>
      <trkpt lat="49.76035" lon="2.1872">
        <ele>68</ele>
        <time>2023-01-18T13:54:01Z</time>
      </trkpt>
      <trkpt lat="49.76036" lon="2.18718">
        <ele>68</ele>
        <time>2023-01-18T13:54:03Z</time>
      </trkpt>
      <trkpt lat="49.76037" lon="2.18718">
        <ele>67.8</ele>
        <time>2023-01-18T13:54:04Z</time>
      </trkpt>
      <trkpt lat="49.76038" lon="2.18717">
        <ele>67.8</ele>
        <time>2023-01-18T13:54:05Z</time>
      </trkpt>
      <trkpt lat="49.7604" lon="2.18716">
        <ele>67.9</ele>
        <time>2023-01-18T13:54:06Z</time>
      </trkpt>
      <trkpt lat="49.7604" lon="2.18715">
        <ele>67.9</ele>
        <time>2023-01-18T13:54:07Z</time>
      </trkpt>
      <trkpt lat="49.76041" lon="2.18714">
        <ele>67.9</ele>
        <time>2023-01-18T13:54:08Z</time>
      </trkpt>
      <trkpt lat="49.76042" lon="2.18713">
        <ele>67.6</ele>
        <time>2023-01-18T13:54:10Z</time>
      </trkpt>
      <trkpt lat="49.76043" lon="2.18712">
        <ele>67.7</ele>
        <time>2023-01-18T13:54:11Z</time>
      </trkpt>
      <trkpt lat="49.76045" lon="2.1871">
        <ele>67.9</ele>
        <time>2023-01-18T13:54:12Z</time>
      </trkpt>
      <trkpt lat="49.76046" lon="2.18709">
        <ele>67.5</ele>
        <time>2023-01-18T13:54:13Z</time>
      </trkpt>
      <trkpt lat="49.76046" lon="2.18709">
        <ele>67.5</ele>
        <time>2023-01-18T13:54:14Z</time>
      </trkpt>
      <trkpt lat="49.76048" lon="2.18708">
        <ele>67.5</ele>
        <time>2023-01-18T13:54:15Z</time>
      </trkpt>
      <trkpt lat="49.76049" lon="2.18707">
        <ele>67.7</ele>
        <time>2023-01-18T13:54:16Z</time>
      </trkpt>
      <trkpt lat="49.7605" lon="2.18706">
        <ele>67.7</ele>
        <time>2023-01-18T13:54:17Z</time>
      </trkpt>
      <trkpt lat="49.76051" lon="2.18705">
        <ele>67.5</ele>
        <time>2023-01-18T13:54:19Z</time>
      </trkpt>
      <trkpt lat="49.76052" lon="2.18704">
        <ele>67.5</ele>
        <time>2023-01-18T13:54:20Z</time>
      </trkpt>
      <trkpt lat="49.76053" lon="2.18704">
        <ele>67.5</ele>
        <time>2023-01-18T13:54:21Z</time>
      </trkpt>
      <trkpt lat="49.76053" lon="2.18703">
        <ele>67.7</ele>
        <time>2023-01-18T13:54:22Z</time>
      </trkpt>
      <trkpt lat="49.76054" lon="2.18702">
        <ele>67.7</ele>
        <time>2023-01-18T13:54:23Z</time>
      </trkpt>
      <trkpt lat="49.76055" lon="2.18701">
        <ele>67.7</ele>
        <time>2023-01-18T13:54:24Z</time>
      </trkpt>
      <trkpt lat="49.76056" lon="2.187">
        <ele>67.4</ele>
        <time>2023-01-18T13:54:25Z</time>
      </trkpt>
      <trkpt lat="49.76057" lon="2.187">
        <ele>67.6</ele>
        <time>2023-01-18T13:54:26Z</time>
      </trkpt>
      <trkpt lat="49.76058" lon="2.18699">
        <ele>67.6</ele>
        <time>2023-01-18T13:54:28Z</time>
      </trkpt>
      <trkpt lat="49.76059" lon="2.18698">
        <ele>67.6</ele>
        <time>2023-01-18T13:54:29Z</time>
      </trkpt>
      <trkpt lat="49.7606" lon="2.18697">
        <ele>67.7</ele>
        <time>2023-01-18T13:54:30Z</time>
      </trkpt>
      <trkpt lat="49.76061" lon="2.18696">
        <ele>67.4</ele>
        <time>2023-01-18T13:54:31Z</time>
      </trkpt>
      <trkpt lat="49.76062" lon="2.18694">
        <ele>67.6</ele>
        <time>2023-01-18T13:54:32Z</time>
      </trkpt>
      <trkpt lat="49.76063" lon="2.18693">
        <ele>67.6</ele>
        <time>2023-01-18T13:54:33Z</time>
      </trkpt>
      <trkpt lat="49.76064" lon="2.18693">
        <ele>67.6</ele>
        <time>2023-01-18T13:54:34Z</time>
      </trkpt>
      <trkpt lat="49.76065" lon="2.18691">
        <ele>67.5</ele>
        <time>2023-01-18T13:54:36Z</time>
      </trkpt>
      <trkpt lat="49.76066" lon="2.1869">
        <ele>67.5</ele>
        <time>2023-01-18T13:54:37Z</time>
      </trkpt>
      <trkpt lat="49.76067" lon="2.18689">
        <ele>67.5</ele>
        <time>2023-01-18T13:54:38Z</time>
      </trkpt>
      <trkpt lat="49.76067" lon="2.18688">
        <ele>67.6</ele>
        <time>2023-01-18T13:54:39Z</time>
      </trkpt>
      <trkpt lat="49.76068" lon="2.18687">
        <ele>67.4</ele>
        <time>2023-01-18T13:54:40Z</time>
      </trkpt>
      <trkpt lat="49.76069" lon="2.18686">
        <ele>67.4</ele>
        <time>2023-01-18T13:54:41Z</time>
      </trkpt>
      <trkpt lat="49.7607" lon="2.18685">
        <ele>67.4</ele>
        <time>2023-01-18T13:54:42Z</time>
      </trkpt>
      <trkpt lat="49.76071" lon="2.18682">
        <ele>67.3</ele>
        <time>2023-01-18T13:54:43Z</time>
      </trkpt>
      <trkpt lat="49.76072" lon="2.18681">
        <ele>67.3</ele>
        <time>2023-01-18T13:54:44Z</time>
      </trkpt>
      <trkpt lat="49.76073" lon="2.18679">
        <ele>67.1</ele>
        <time>2023-01-18T13:54:46Z</time>
      </trkpt>
      <trkpt lat="49.76073" lon="2.18678">
        <ele>67.3</ele>
        <time>2023-01-18T13:54:47Z</time>
      </trkpt>
      <trkpt lat="49.76074" lon="2.18677">
        <ele>67.3</ele>
        <time>2023-01-18T13:54:48Z</time>
      </trkpt>
      <trkpt lat="49.76074" lon="2.18676">
        <ele>67.3</ele>
        <time>2023-01-18T13:54:49Z</time>
      </trkpt>
      <trkpt lat="49.76076" lon="2.18674">
        <ele>67.2</ele>
        <time>2023-01-18T13:54:50Z</time>
      </trkpt>
      <trkpt lat="49.76077" lon="2.18673">
        <ele>67.2</ele>
        <time>2023-01-18T13:54:51Z</time>
      </trkpt>
      <trkpt lat="49.76077" lon="2.18672">
        <ele>67.2</ele>
        <time>2023-01-18T13:54:52Z</time>
      </trkpt>
      <trkpt lat="49.76078" lon="2.1867">
        <ele>67</ele>
        <time>2023-01-18T13:54:53Z</time>
      </trkpt>
      <trkpt lat="49.76079" lon="2.18669">
        <ele>67.2</ele>
        <time>2023-01-18T13:54:54Z</time>
      </trkpt>
      <trkpt lat="49.7608" lon="2.18668">
        <ele>67.2</ele>
        <time>2023-01-18T13:54:55Z</time>
      </trkpt>
      <trkpt lat="49.76081" lon="2.18665">
        <ele>67</ele>
        <time>2023-01-18T13:54:57Z</time>
      </trkpt>
      <trkpt lat="49.76081" lon="2.18664">
        <ele>67.2</ele>
        <time>2023-01-18T13:54:58Z</time>
      </trkpt>
      <trkpt lat="49.76082" lon="2.18663">
        <ele>67.2</ele>
        <time>2023-01-18T13:54:59Z</time>
      </trkpt>
      <trkpt lat="49.76084" lon="2.1866">
        <ele>67</ele>
        <time>2023-01-18T13:55:00Z</time>
      </trkpt>
      <trkpt lat="49.76084" lon="2.18659">
        <ele>67.2</ele>
        <time>2023-01-18T13:55:02Z</time>
      </trkpt>
      <trkpt lat="49.76085" lon="2.18658">
        <ele>67.2</ele>
        <time>2023-01-18T13:55:03Z</time>
      </trkpt>
      <trkpt lat="49.76086" lon="2.18657">
        <ele>67</ele>
        <time>2023-01-18T13:55:04Z</time>
      </trkpt>
      <trkpt lat="49.76087" lon="2.18656">
        <ele>67.2</ele>
        <time>2023-01-18T13:55:05Z</time>
      </trkpt>
      <trkpt lat="49.76088" lon="2.18654">
        <ele>67.1</ele>
        <time>2023-01-18T13:55:06Z</time>
      </trkpt>
      <trkpt lat="49.76089" lon="2.18653">
        <ele>67.1</ele>
        <time>2023-01-18T13:55:07Z</time>
      </trkpt>
      <trkpt lat="49.7609" lon="2.18652">
        <ele>67.3</ele>
        <time>2023-01-18T13:55:08Z</time>
      </trkpt>
      <trkpt lat="49.76091" lon="2.18651">
        <ele>67.3</ele>
        <time>2023-01-18T13:55:09Z</time>
      </trkpt>
      <trkpt lat="49.76091" lon="2.1865">
        <ele>67.3</ele>
        <time>2023-01-18T13:55:10Z</time>
      </trkpt>
      <trkpt lat="49.76092" lon="2.18648">
        <ele>67.1</ele>
        <time>2023-01-18T13:55:11Z</time>
      </trkpt>
      <trkpt lat="49.76093" lon="2.18646">
        <ele>67.3</ele>
        <time>2023-01-18T13:55:13Z</time>
      </trkpt>
      <trkpt lat="49.76094" lon="2.18645">
        <ele>67.1</ele>
        <time>2023-01-18T13:55:14Z</time>
      </trkpt>
      <trkpt lat="49.76094" lon="2.18643">
        <ele>67.1</ele>
        <time>2023-01-18T13:55:15Z</time>
      </trkpt>
      <trkpt lat="49.76095" lon="2.18642">
        <ele>67.3</ele>
        <time>2023-01-18T13:55:16Z</time>
      </trkpt>
      <trkpt lat="49.76096" lon="2.18639">
        <ele>67.1</ele>
        <time>2023-01-18T13:55:17Z</time>
      </trkpt>
      <trkpt lat="49.76096" lon="2.18638">
        <ele>67.1</ele>
        <time>2023-01-18T13:55:18Z</time>
      </trkpt>
      <trkpt lat="49.76096" lon="2.18636">
        <ele>67</ele>
        <time>2023-01-18T13:55:19Z</time>
      </trkpt>
      <trkpt lat="49.76097" lon="2.18635">
        <ele>67</ele>
        <time>2023-01-18T13:55:20Z</time>
      </trkpt>
      <trkpt lat="49.76097" lon="2.18633">
        <ele>67</ele>
        <time>2023-01-18T13:55:22Z</time>
      </trkpt>
      <trkpt lat="49.76097" lon="2.18632">
        <ele>66.8</ele>
        <time>2023-01-18T13:55:23Z</time>
      </trkpt>
      <trkpt lat="49.76097" lon="2.18631">
        <ele>66.8</ele>
        <time>2023-01-18T13:55:24Z</time>
      </trkpt>
      <trkpt lat="49.76098" lon="2.18628">
        <ele>67</ele>
        <time>2023-01-18T13:55:26Z</time>
      </trkpt>
      <trkpt lat="49.76098" lon="2.18627">
        <ele>66.8</ele>
        <time>2023-01-18T13:55:27Z</time>
      </trkpt>
      <trkpt lat="49.76098" lon="2.18626">
        <ele>66.8</ele>
        <time>2023-01-18T13:55:28Z</time>
      </trkpt>
      <trkpt lat="49.76098" lon="2.18624">
        <ele>66.8</ele>
        <time>2023-01-18T13:55:30Z</time>
      </trkpt>
      <trkpt lat="49.76098" lon="2.18623">
        <ele>66.9</ele>
        <time>2023-01-18T13:55:31Z</time>
      </trkpt>
      <trkpt lat="49.76097" lon="2.18622">
        <ele>66.9</ele>
        <time>2023-01-18T13:55:33Z</time>
      </trkpt>
      <trkpt lat="49.76097" lon="2.18622">
        <ele>66.9</ele>
        <time>2023-01-18T13:55:34Z</time>
      </trkpt>
      <trkpt lat="49.76096" lon="2.18623">
        <ele>66.9</ele>
        <time>2023-01-18T13:55:36Z</time>
      </trkpt>
      <trkpt lat="49.76096" lon="2.18623">
        <ele>66.9</ele>
        <time>2023-01-18T13:55:37Z</time>
      </trkpt>
      <trkpt lat="49.76096" lon="2.18623">
        <ele>66.9</ele>
        <time>2023-01-18T13:55:39Z</time>
      </trkpt>
      <trkpt lat="49.76095" lon="2.18623">
        <ele>66.9</ele>
        <time>2023-01-18T13:55:40Z</time>
      </trkpt>
      <trkpt lat="49.76095" lon="2.18624">
        <ele>67</ele>
        <time>2023-01-18T13:55:42Z</time>
      </trkpt>
      <trkpt lat="49.76095" lon="2.18624">
        <ele>67</ele>
        <time>2023-01-18T13:55:43Z</time>
      </trkpt>
      <trkpt lat="49.76095" lon="2.18624">
        <ele>67</ele>
        <time>2023-01-18T13:55:44Z</time>
      </trkpt>
      <trkpt lat="49.76095" lon="2.18624">
        <ele>67</ele>
        <time>2023-01-18T13:55:46Z</time>
      </trkpt>
      <trkpt lat="49.76095" lon="2.18624">
        <ele>67</ele>
        <time>2023-01-18T13:55:47Z</time>
      </trkpt>
      <trkpt lat="49.76095" lon="2.18624">
        <ele>67</ele>
        <time>2023-01-18T13:55:49Z</time>
      </trkpt>
      <trkpt lat="49.76095" lon="2.18624">
        <ele>67</ele>
        <time>2023-01-18T13:55:50Z</time>
      </trkpt>
      <trkpt lat="49.76095" lon="2.18624">
        <ele>67</ele>
        <time>2023-01-18T13:55:51Z</time>
      </trkpt>
      <trkpt lat="49.76095" lon="2.18624">
        <ele>67</ele>
        <time>2023-01-18T13:55:52Z</time>
      </trkpt>
      <trkpt lat="49.76095" lon="2.18625">
        <ele>67</ele>
        <time>2023-01-18T13:55:53Z</time>
      </trkpt>
      <trkpt lat="49.76095" lon="2.18625">
        <ele>67</ele>
        <time>2023-01-18T13:55:54Z</time>
      </trkpt>
      <trkpt lat="49.76095" lon="2.18625">
        <ele>67</ele>
        <time>2023-01-18T13:55:55Z</time>
      </trkpt>
      <trkpt lat="49.76095" lon="2.18625">
        <ele>67</ele>
        <time>2023-01-18T13:55:56Z</time>
      </trkpt>
      <trkpt lat="49.76095" lon="2.18625">
        <ele>67</ele>
        <time>2023-01-18T13:55:57Z</time>
      </trkpt>
      <trkpt lat="49.76095" lon="2.18625">
        <ele>67</ele>
        <time>2023-01-18T13:55:58Z</time>
      </trkpt>
      <trkpt lat="49.76095" lon="2.18625">
        <ele>67</ele>
        <time>2023-01-18T13:55:59Z</time>
      </trkpt>
      <trkpt lat="49.76095" lon="2.18625">
        <ele>67</ele>
        <time>2023-01-18T13:56:00Z</time>
      </trkpt>
      <trkpt lat="49.76095" lon="2.18626">
        <ele>67</ele>
        <time>2023-01-18T13:56:01Z</time>
      </trkpt>
      <trkpt lat="49.76095" lon="2.18626">
        <ele>67</ele>
        <time>2023-01-18T13:56:02Z</time>
      </trkpt>
      <trkpt lat="49.76095" lon="2.18626">
        <ele>67</ele>
        <time>2023-01-18T13:56:03Z</time>
      </trkpt>
      <trkpt lat="49.76095" lon="2.18626">
        <ele>67</ele>
        <time>2023-01-18T13:56:04Z</time>
      </trkpt>
      <trkpt lat="49.76095" lon="2.18626">
        <ele>67</ele>
        <time>2023-01-18T13:56:05Z</time>
      </trkpt>
      <trkpt lat="49.76095" lon="2.18626">
        <ele>67</ele>
        <time>2023-01-18T13:56:06Z</time>
      </trkpt>
      <trkpt lat="49.76095" lon="2.18626">
        <ele>67</ele>
        <time>2023-01-18T13:56:07Z</time>
      </trkpt>
      <trkpt lat="49.76095" lon="2.18626">
        <ele>67</ele>
        <time>2023-01-18T13:56:08Z</time>
      </trkpt>
      <trkpt lat="49.76095" lon="2.18626">
        <ele>67</ele>
        <time>2023-01-18T13:56:09Z</time>
      </trkpt>
      <trkpt lat="49.76095" lon="2.18627">
        <ele>67</ele>
        <time>2023-01-18T13:56:10Z</time>
      </trkpt>
      <trkpt lat="49.76095" lon="2.18627">
        <ele>67</ele>
        <time>2023-01-18T13:56:11Z</time>
      </trkpt>
      <trkpt lat="49.76095" lon="2.18627">
        <ele>67</ele>
        <time>2023-01-18T13:56:12Z</time>
      </trkpt>
      <trkpt lat="49.76095" lon="2.18627">
        <ele>67</ele>
        <time>2023-01-18T13:56:13Z</time>
      </trkpt>
      <trkpt lat="49.76095" lon="2.18627">
        <ele>67</ele>
        <time>2023-01-18T13:56:14Z</time>
      </trkpt>
      <trkpt lat="49.76095" lon="2.18627">
        <ele>67.1</ele>
        <time>2023-01-18T13:56:15Z</time>
      </trkpt>
      <trkpt lat="49.76095" lon="2.18627">
        <ele>67.1</ele>
        <time>2023-01-18T13:56:16Z</time>
      </trkpt>
      <trkpt lat="49.76095" lon="2.18627">
        <ele>67.1</ele>
        <time>2023-01-18T13:56:17Z</time>
      </trkpt>
      <trkpt lat="49.76095" lon="2.18628">
        <ele>67.1</ele>
        <time>2023-01-18T13:56:18Z</time>
      </trkpt>
      <trkpt lat="49.76095" lon="2.18628">
        <ele>67.1</ele>
        <time>2023-01-18T13:56:19Z</time>
      </trkpt>
      <trkpt lat="49.76095" lon="2.18628">
        <ele>67.1</ele>
        <time>2023-01-18T13:56:20Z</time>
      </trkpt>
      <trkpt lat="49.76095" lon="2.18628">
        <ele>67.1</ele>
        <time>2023-01-18T13:56:21Z</time>
      </trkpt>
      <trkpt lat="49.76095" lon="2.18628">
        <ele>67.1</ele>
        <time>2023-01-18T13:56:22Z</time>
      </trkpt>
      <trkpt lat="49.76095" lon="2.18628">
        <ele>67.1</ele>
        <time>2023-01-18T13:56:23Z</time>
      </trkpt>
      <trkpt lat="49.76095" lon="2.18628">
        <ele>67.1</ele>
        <time>2023-01-18T13:56:24Z</time>
      </trkpt>
      <trkpt lat="49.76095" lon="2.18628">
        <ele>67.1</ele>
        <time>2023-01-18T13:56:25Z</time>
      </trkpt>
      <trkpt lat="49.76095" lon="2.18628">
        <ele>67.1</ele>
        <time>2023-01-18T13:56:26Z</time>
      </trkpt>
      <trkpt lat="49.76095" lon="2.18629">
        <ele>67.1</ele>
        <time>2023-01-18T13:56:27Z</time>
      </trkpt>
      <trkpt lat="49.76095" lon="2.18629">
        <ele>67.1</ele>
        <time>2023-01-18T13:56:28Z</time>
      </trkpt>
      <trkpt lat="49.76095" lon="2.18631">
        <ele>67.1</ele>
        <time>2023-01-18T13:56:29Z</time>
      </trkpt>
      <trkpt lat="49.76095" lon="2.18632">
        <ele>67.2</ele>
        <time>2023-01-18T13:56:30Z</time>
      </trkpt>
      <trkpt lat="49.76095" lon="2.18632">
        <ele>67.2</ele>
        <time>2023-01-18T13:56:31Z</time>
      </trkpt>
      <trkpt lat="49.76095" lon="2.18632">
        <ele>67.2</ele>
        <time>2023-01-18T13:56:32Z</time>
      </trkpt>
      <trkpt lat="49.76095" lon="2.18632">
        <ele>67.2</ele>
        <time>2023-01-18T13:56:33Z</time>
      </trkpt>
      <trkpt lat="49.76096" lon="2.18632">
        <ele>67.2</ele>
        <time>2023-01-18T13:56:34Z</time>
      </trkpt>
      <trkpt lat="49.76096" lon="2.18631">
        <ele>67.2</ele>
        <time>2023-01-18T13:56:35Z</time>
      </trkpt>
      <trkpt lat="49.76096" lon="2.18631">
        <ele>67.2</ele>
        <time>2023-01-18T13:56:36Z</time>
      </trkpt>
      <trkpt lat="49.76096" lon="2.18631">
        <ele>67.2</ele>
        <time>2023-01-18T13:56:37Z</time>
      </trkpt>
      <trkpt lat="49.76096" lon="2.18631">
        <ele>67.2</ele>
        <time>2023-01-18T13:56:38Z</time>
      </trkpt>
      <trkpt lat="49.76096" lon="2.18631">
        <ele>67.2</ele>
        <time>2023-01-18T13:56:39Z</time>
      </trkpt>
      <trkpt lat="49.76097" lon="2.18631">
        <ele>67.2</ele>
        <time>2023-01-18T13:56:40Z</time>
      </trkpt>
      <trkpt lat="49.76097" lon="2.18632">
        <ele>67.2</ele>
        <time>2023-01-18T13:56:41Z</time>
      </trkpt>
      <trkpt lat="49.76097" lon="2.18632">
        <ele>67.2</ele>
        <time>2023-01-18T13:56:42Z</time>
      </trkpt>
      <trkpt lat="49.76097" lon="2.18632">
        <ele>67.2</ele>
        <time>2023-01-18T13:56:43Z</time>
      </trkpt>
      <trkpt lat="49.76097" lon="2.18632">
        <ele>67.2</ele>
        <time>2023-01-18T13:56:44Z</time>
      </trkpt>
      <trkpt lat="49.76097" lon="2.18632">
        <ele>67.2</ele>
        <time>2023-01-18T13:56:45Z</time>
      </trkpt>
      <trkpt lat="49.76097" lon="2.18632">
        <ele>67.2</ele>
        <time>2023-01-18T13:56:46Z</time>
      </trkpt>
      <trkpt lat="49.76097" lon="2.18632">
        <ele>67.2</ele>
        <time>2023-01-18T13:56:47Z</time>
      </trkpt>
      <trkpt lat="49.76097" lon="2.18632">
        <ele>67.2</ele>
        <time>2023-01-18T13:56:48Z</time>
      </trkpt>
      <trkpt lat="49.76097" lon="2.18632">
        <ele>67.2</ele>
        <time>2023-01-18T13:56:49Z</time>
      </trkpt>
      <trkpt lat="49.76097" lon="2.18632">
        <ele>67.2</ele>
        <time>2023-01-18T13:56:50Z</time>
      </trkpt>
      <trkpt lat="49.76097" lon="2.18632">
        <ele>67.2</ele>
        <time>2023-01-18T13:56:51Z</time>
      </trkpt>
      <trkpt lat="49.76097" lon="2.18632">
        <ele>67.2</ele>
        <time>2023-01-18T13:56:52Z</time>
      </trkpt>
      <trkpt lat="49.76097" lon="2.18632">
        <ele>67.2</ele>
        <time>2023-01-18T13:56:53Z</time>
      </trkpt>
      <trkpt lat="49.76097" lon="2.18632">
        <ele>67.2</ele>
        <time>2023-01-18T13:56:54Z</time>
      </trkpt>
      <trkpt lat="49.76097" lon="2.18632">
        <ele>67.2</ele>
        <time>2023-01-18T13:56:55Z</time>
      </trkpt>
      <trkpt lat="49.76097" lon="2.18632">
        <ele>67.2</ele>
        <time>2023-01-18T13:56:56Z</time>
      </trkpt>
      <trkpt lat="49.76097" lon="2.18632">
        <ele>67.2</ele>
        <time>2023-01-18T13:56:57Z</time>
      </trkpt>
      <trkpt lat="49.76097" lon="2.18632">
        <ele>67.2</ele>
        <time>2023-01-18T13:56:58Z</time>
      </trkpt>
      <trkpt lat="49.76097" lon="2.18632">
        <ele>67.2</ele>
        <time>2023-01-18T13:56:59Z</time>
      </trkpt>
      <trkpt lat="49.76097" lon="2.18632">
        <ele>67.2</ele>
        <time>2023-01-18T13:57:00Z</time>
      </trkpt>
      <trkpt lat="49.76097" lon="2.18632">
        <ele>67.2</ele>
        <time>2023-01-18T13:57:01Z</time>
      </trkpt>
      <trkpt lat="49.76097" lon="2.18632">
        <ele>67.2</ele>
        <time>2023-01-18T13:57:02Z</time>
      </trkpt>
      <trkpt lat="49.76097" lon="2.18632">
        <ele>67.2</ele>
        <time>2023-01-18T13:57:03Z</time>
      </trkpt>
      <trkpt lat="49.76097" lon="2.18632">
        <ele>67.2</ele>
        <time>2023-01-18T13:57:04Z</time>
      </trkpt>
      <trkpt lat="49.76097" lon="2.18632">
        <ele>67.2</ele>
        <time>2023-01-18T13:57:05Z</time>
      </trkpt>
      <trkpt lat="49.76097" lon="2.18632">
        <ele>67.2</ele>
        <time>2023-01-18T13:57:06Z</time>
      </trkpt>
      <trkpt lat="49.76097" lon="2.18632">
        <ele>67.2</ele>
        <time>2023-01-18T13:57:07Z</time>
      </trkpt>
      <trkpt lat="49.76097" lon="2.18632">
        <ele>67.2</ele>
        <time>2023-01-18T13:57:08Z</time>
      </trkpt>
      <trkpt lat="49.76097" lon="2.18632">
        <ele>67.2</ele>
        <time>2023-01-18T13:57:09Z</time>
      </trkpt>
      <trkpt lat="49.76097" lon="2.18632">
        <ele>67.2</ele>
        <time>2023-01-18T13:57:10Z</time>
      </trkpt>
      <trkpt lat="49.76097" lon="2.18632">
        <ele>67.2</ele>
        <time>2023-01-18T13:57:11Z</time>
      </trkpt>
      <trkpt lat="49.76097" lon="2.18632">
        <ele>67.2</ele>
        <time>2023-01-18T13:57:12Z</time>
      </trkpt>
      <trkpt lat="49.76097" lon="2.18632">
        <ele>67.2</ele>
        <time>2023-01-18T13:57:13Z</time>
      </trkpt>
      <trkpt lat="49.76097" lon="2.18632">
        <ele>67.2</ele>
        <time>2023-01-18T13:57:14Z</time>
      </trkpt>
      <trkpt lat="49.76097" lon="2.18632">
        <ele>67.2</ele>
        <time>2023-01-18T13:57:15Z</time>
      </trkpt>
      <trkpt lat="49.76097" lon="2.18632">
        <ele>67.2</ele>
        <time>2023-01-18T13:57:16Z</time>
      </trkpt>
      <trkpt lat="49.76097" lon="2.18632">
        <ele>67.2</ele>
        <time>2023-01-18T13:57:17Z</time>
      </trkpt>
      <trkpt lat="49.76097" lon="2.18632">
        <ele>67.2</ele>
        <time>2023-01-18T13:57:18Z</time>
      </trkpt>
      <trkpt lat="49.76097" lon="2.18632">
        <ele>67.2</ele>
        <time>2023-01-18T13:57:19Z</time>
      </trkpt>
      <trkpt lat="49.76097" lon="2.18632">
        <ele>67.2</ele>
        <time>2023-01-18T13:57:20Z</time>
      </trkpt>
      <trkpt lat="49.76097" lon="2.18632">
        <ele>67.2</ele>
        <time>2023-01-18T13:57:21Z</time>
      </trkpt>
      <trkpt lat="49.76097" lon="2.18632">
        <ele>67.2</ele>
        <time>2023-01-18T13:57:22Z</time>
      </trkpt>
      <trkpt lat="49.76097" lon="2.18632">
        <ele>67.2</ele>
        <time>2023-01-18T13:57:23Z</time>
      </trkpt>
      <trkpt lat="49.76097" lon="2.18632">
        <ele>67.2</ele>
        <time>2023-01-18T13:57:24Z</time>
      </trkpt>
      <trkpt lat="49.76097" lon="2.18632">
        <ele>67.3</ele>
        <time>2023-01-18T13:57:25Z</time>
      </trkpt>
      <trkpt lat="49.76099" lon="2.18631">
        <ele>67.3</ele>
        <time>2023-01-18T13:57:26Z</time>
      </trkpt>
      <trkpt lat="49.76099" lon="2.18631">
        <ele>67.4</ele>
        <time>2023-01-18T13:57:27Z</time>
      </trkpt>
      <trkpt lat="49.761" lon="2.1863">
        <ele>67.4</ele>
        <time>2023-01-18T13:57:28Z</time>
      </trkpt>
      <trkpt lat="49.761" lon="2.1863">
        <ele>67.4</ele>
        <time>2023-01-18T13:57:29Z</time>
      </trkpt>
      <trkpt lat="49.76101" lon="2.18629">
        <ele>67.4</ele>
        <time>2023-01-18T13:57:30Z</time>
      </trkpt>
      <trkpt lat="49.76101" lon="2.18629">
        <ele>67.4</ele>
        <time>2023-01-18T13:57:31Z</time>
      </trkpt>
      <trkpt lat="49.76101" lon="2.18629">
        <ele>67.4</ele>
        <time>2023-01-18T13:57:32Z</time>
      </trkpt>
      <trkpt lat="49.76101" lon="2.18629">
        <ele>67.4</ele>
        <time>2023-01-18T13:57:33Z</time>
      </trkpt>
      <trkpt lat="49.76101" lon="2.18629">
        <ele>67.4</ele>
        <time>2023-01-18T13:57:34Z</time>
      </trkpt>
      <trkpt lat="49.76101" lon="2.18629">
        <ele>67.4</ele>
        <time>2023-01-18T13:57:35Z</time>
      </trkpt>
      <trkpt lat="49.76101" lon="2.18629">
        <ele>67.4</ele>
        <time>2023-01-18T13:57:36Z</time>
      </trkpt>
      <trkpt lat="49.76101" lon="2.18629">
        <ele>67.4</ele>
        <time>2023-01-18T13:57:37Z</time>
      </trkpt>
      <trkpt lat="49.76101" lon="2.18629">
        <ele>67.4</ele>
        <time>2023-01-18T13:57:38Z</time>
      </trkpt>
      <trkpt lat="49.76101" lon="2.18629">
        <ele>67.4</ele>
        <time>2023-01-18T13:57:39Z</time>
      </trkpt>
      <trkpt lat="49.76101" lon="2.18629">
        <ele>67.4</ele>
        <time>2023-01-18T13:57:40Z</time>
      </trkpt>
      <trkpt lat="49.76101" lon="2.18629">
        <ele>67.4</ele>
        <time>2023-01-18T13:57:41Z</time>
      </trkpt>
      <trkpt lat="49.76101" lon="2.18629">
        <ele>67.4</ele>
        <time>2023-01-18T13:57:42Z</time>
      </trkpt>
      <trkpt lat="49.76101" lon="2.18629">
        <ele>67.4</ele>
        <time>2023-01-18T13:57:43Z</time>
      </trkpt>
      <trkpt lat="49.76101" lon="2.18629">
        <ele>67.4</ele>
        <time>2023-01-18T13:57:44Z</time>
      </trkpt>
      <trkpt lat="49.76101" lon="2.18629">
        <ele>67.4</ele>
        <time>2023-01-18T13:57:45Z</time>
      </trkpt>
      <trkpt lat="49.76101" lon="2.18629">
        <ele>67.4</ele>
        <time>2023-01-18T13:57:46Z</time>
      </trkpt>
      <trkpt lat="49.76101" lon="2.18629">
        <ele>67.4</ele>
        <time>2023-01-18T13:57:47Z</time>
      </trkpt>
      <trkpt lat="49.76101" lon="2.18629">
        <ele>67.4</ele>
        <time>2023-01-18T13:57:48Z</time>
      </trkpt>
      <trkpt lat="49.76101" lon="2.18629">
        <ele>67.4</ele>
        <time>2023-01-18T13:57:49Z</time>
      </trkpt>
      <trkpt lat="49.76101" lon="2.18629">
        <ele>67.4</ele>
        <time>2023-01-18T13:57:50Z</time>
      </trkpt>
      <trkpt lat="49.76101" lon="2.18629">
        <ele>67.4</ele>
        <time>2023-01-18T13:57:51Z</time>
      </trkpt>
      <trkpt lat="49.76101" lon="2.18629">
        <ele>67.4</ele>
        <time>2023-01-18T13:57:52Z</time>
      </trkpt>
      <trkpt lat="49.76101" lon="2.18629">
        <ele>67.4</ele>
        <time>2023-01-18T13:57:53Z</time>
      </trkpt>
      <trkpt lat="49.76101" lon="2.18629">
        <ele>67.4</ele>
        <time>2023-01-18T13:57:54Z</time>
      </trkpt>
      <trkpt lat="49.76101" lon="2.18629">
        <ele>67.4</ele>
        <time>2023-01-18T13:57:55Z</time>
      </trkpt>
      <trkpt lat="49.76101" lon="2.18629">
        <ele>67.4</ele>
        <time>2023-01-18T13:57:56Z</time>
      </trkpt>
      <trkpt lat="49.76101" lon="2.18629">
        <ele>67.4</ele>
        <time>2023-01-18T13:57:57Z</time>
      </trkpt>
      <trkpt lat="49.76101" lon="2.18629">
        <ele>67.4</ele>
        <time>2023-01-18T13:57:58Z</time>
      </trkpt>
      <trkpt lat="49.76101" lon="2.18629">
        <ele>67.4</ele>
        <time>2023-01-18T13:57:59Z</time>
      </trkpt>
      <trkpt lat="49.76101" lon="2.18629">
        <ele>67.4</ele>
        <time>2023-01-18T13:58:00Z</time>
      </trkpt>
      <trkpt lat="49.76101" lon="2.18629">
        <ele>67.4</ele>
        <time>2023-01-18T13:58:01Z</time>
      </trkpt>
      <trkpt lat="49.76101" lon="2.18629">
        <ele>67.4</ele>
        <time>2023-01-18T13:58:02Z</time>
      </trkpt>
      <trkpt lat="49.76101" lon="2.18629">
        <ele>67.4</ele>
        <time>2023-01-18T13:58:03Z</time>
      </trkpt>
      <trkpt lat="49.76101" lon="2.18629">
        <ele>67.4</ele>
        <time>2023-01-18T13:58:04Z</time>
      </trkpt>
      <trkpt lat="49.76101" lon="2.18629">
        <ele>67.4</ele>
        <time>2023-01-18T13:58:05Z</time>
      </trkpt>
      <trkpt lat="49.76101" lon="2.18629">
        <ele>67.4</ele>
        <time>2023-01-18T13:58:06Z</time>
      </trkpt>
      <trkpt lat="49.76101" lon="2.18629">
        <ele>67.4</ele>
        <time>2023-01-18T13:58:07Z</time>
      </trkpt>
      <trkpt lat="49.76101" lon="2.18629">
        <ele>67.4</ele>
        <time>2023-01-18T13:58:08Z</time>
      </trkpt>
      <trkpt lat="49.76101" lon="2.18629">
        <ele>67.4</ele>
        <time>2023-01-18T13:58:09Z</time>
      </trkpt>
      <trkpt lat="49.76101" lon="2.18629">
        <ele>67.4</ele>
        <time>2023-01-18T13:58:10Z</time>
      </trkpt>
      <trkpt lat="49.76101" lon="2.18629">
        <ele>67.4</ele>
        <time>2023-01-18T13:58:11Z</time>
      </trkpt>
      <trkpt lat="49.76101" lon="2.18629">
        <ele>67.4</ele>
        <time>2023-01-18T13:58:12Z</time>
      </trkpt>
      <trkpt lat="49.76101" lon="2.18629">
        <ele>67.4</ele>
        <time>2023-01-18T13:58:13Z</time>
      </trkpt>
      <trkpt lat="49.76101" lon="2.18629">
        <ele>67.4</ele>
        <time>2023-01-18T13:58:14Z</time>
      </trkpt>
      <trkpt lat="49.76101" lon="2.18629">
        <ele>67.4</ele>
        <time>2023-01-18T13:58:15Z</time>
      </trkpt>
      <trkpt lat="49.76101" lon="2.18629">
        <ele>67.4</ele>
        <time>2023-01-18T13:58:16Z</time>
      </trkpt>
      <trkpt lat="49.76101" lon="2.18629">
        <ele>67.4</ele>
        <time>2023-01-18T13:58:17Z</time>
      </trkpt>
      <trkpt lat="49.76101" lon="2.18629">
        <ele>67.4</ele>
        <time>2023-01-18T13:58:18Z</time>
      </trkpt>
      <trkpt lat="49.76101" lon="2.18629">
        <ele>67.4</ele>
        <time>2023-01-18T13:58:19Z</time>
      </trkpt>
      <trkpt lat="49.76101" lon="2.18629">
        <ele>67.4</ele>
        <time>2023-01-18T13:58:20Z</time>
      </trkpt>
      <trkpt lat="49.76101" lon="2.18629">
        <ele>67.4</ele>
        <time>2023-01-18T13:58:21Z</time>
      </trkpt>
      <trkpt lat="49.76101" lon="2.18629">
        <ele>67.4</ele>
        <time>2023-01-18T13:58:22Z</time>
      </trkpt>
      <trkpt lat="49.76101" lon="2.18629">
        <ele>67.4</ele>
        <time>2023-01-18T13:58:23Z</time>
      </trkpt>
      <trkpt lat="49.76101" lon="2.18629">
        <ele>67.4</ele>
        <time>2023-01-18T13:58:24Z</time>
      </trkpt>
      <trkpt lat="49.76101" lon="2.18629">
        <ele>67.4</ele>
        <time>2023-01-18T13:58:25Z</time>
      </trkpt>
      <trkpt lat="49.76101" lon="2.18629">
        <ele>67.4</ele>
        <time>2023-01-18T13:58:26Z</time>
      </trkpt>
      <trkpt lat="49.76101" lon="2.18629">
        <ele>67.4</ele>
        <time>2023-01-18T13:58:27Z</time>
      </trkpt>
      <trkpt lat="49.76101" lon="2.18629">
        <ele>67.4</ele>
        <time>2023-01-18T13:58:28Z</time>
      </trkpt>
      <trkpt lat="49.76101" lon="2.18629">
        <ele>67.4</ele>
        <time>2023-01-18T13:58:29Z</time>
      </trkpt>
      <trkpt lat="49.76101" lon="2.18629">
        <ele>67.4</ele>
        <time>2023-01-18T13:58:30Z</time>
      </trkpt>
      <trkpt lat="49.76101" lon="2.18629">
        <ele>67.4</ele>
        <time>2023-01-18T13:58:31Z</time>
      </trkpt>
      <trkpt lat="49.76101" lon="2.18629">
        <ele>67.4</ele>
        <time>2023-01-18T13:58:32Z</time>
      </trkpt>
      <trkpt lat="49.76101" lon="2.18629">
        <ele>67.4</ele>
        <time>2023-01-18T13:58:33Z</time>
      </trkpt>
      <trkpt lat="49.76101" lon="2.18629">
        <ele>67.4</ele>
        <time>2023-01-18T13:58:34Z</time>
      </trkpt>
      <trkpt lat="49.76101" lon="2.18629">
        <ele>67.4</ele>
        <time>2023-01-18T13:58:35Z</time>
      </trkpt>
      <trkpt lat="49.76101" lon="2.18629">
        <ele>67.4</ele>
        <time>2023-01-18T13:58:36Z</time>
      </trkpt>
      <trkpt lat="49.76101" lon="2.18629">
        <ele>67.4</ele>
        <time>2023-01-18T13:58:37Z</time>
      </trkpt>
      <trkpt lat="49.76101" lon="2.18629">
        <ele>67.4</ele>
        <time>2023-01-18T13:58:38Z</time>
      </trkpt>
      <trkpt lat="49.76101" lon="2.18629">
        <ele>67.4</ele>
        <time>2023-01-18T13:58:39Z</time>
      </trkpt>
      <trkpt lat="49.76101" lon="2.18629">
        <ele>67.4</ele>
        <time>2023-01-18T13:58:40Z</time>
      </trkpt>
      <trkpt lat="49.76101" lon="2.18629">
        <ele>67.4</ele>
        <time>2023-01-18T13:58:41Z</time>
      </trkpt>
      <trkpt lat="49.76101" lon="2.18629">
        <ele>67.4</ele>
        <time>2023-01-18T13:58:42Z</time>
      </trkpt>
      <trkpt lat="49.76101" lon="2.18629">
        <ele>67.4</ele>
        <time>2023-01-18T13:58:43Z</time>
      </trkpt>
      <trkpt lat="49.76101" lon="2.18629">
        <ele>67.4</ele>
        <time>2023-01-18T13:58:44Z</time>
      </trkpt>
      <trkpt lat="49.76101" lon="2.18629">
        <ele>67.4</ele>
        <time>2023-01-18T13:58:45Z</time>
      </trkpt>
      <trkpt lat="49.76101" lon="2.18629">
        <ele>67.4</ele>
        <time>2023-01-18T13:58:46Z</time>
      </trkpt>
      <trkpt lat="49.76101" lon="2.18629">
        <ele>67.4</ele>
        <time>2023-01-18T13:58:47Z</time>
      </trkpt>
      <trkpt lat="49.76101" lon="2.18629">
        <ele>67.4</ele>
        <time>2023-01-18T13:58:48Z</time>
      </trkpt>
      <trkpt lat="49.76101" lon="2.18629">
        <ele>67.4</ele>
        <time>2023-01-18T13:58:49Z</time>
      </trkpt>
      <trkpt lat="49.76101" lon="2.18629">
        <ele>67.4</ele>
        <time>2023-01-18T13:58:50Z</time>
      </trkpt>
      <trkpt lat="49.76101" lon="2.18629">
        <ele>67.4</ele>
        <time>2023-01-18T13:58:51Z</time>
      </trkpt>
      <trkpt lat="49.76101" lon="2.18629">
        <ele>67.4</ele>
        <time>2023-01-18T13:58:52Z</time>
      </trkpt>
      <trkpt lat="49.76101" lon="2.18629">
        <ele>67.4</ele>
        <time>2023-01-18T13:58:53Z</time>
      </trkpt>
      <trkpt lat="49.76101" lon="2.18629">
        <ele>67.4</ele>
        <time>2023-01-18T13:58:54Z</time>
      </trkpt>
      <trkpt lat="49.76101" lon="2.18629">
        <ele>67.4</ele>
        <time>2023-01-18T13:58:55Z</time>
      </trkpt>
      <trkpt lat="49.76101" lon="2.18629">
        <ele>67.4</ele>
        <time>2023-01-18T13:58:56Z</time>
      </trkpt>
      <trkpt lat="49.76101" lon="2.18629">
        <ele>67.4</ele>
        <time>2023-01-18T13:58:57Z</time>
      </trkpt>
      <trkpt lat="49.76101" lon="2.18629">
        <ele>67.4</ele>
        <time>2023-01-18T13:58:58Z</time>
      </trkpt>
      <trkpt lat="49.76101" lon="2.18629">
        <ele>67.4</ele>
        <time>2023-01-18T13:58:59Z</time>
      </trkpt>
      <trkpt lat="49.76101" lon="2.18629">
        <ele>67.4</ele>
        <time>2023-01-18T13:59:00Z</time>
      </trkpt>
      <trkpt lat="49.76101" lon="2.18629">
        <ele>67.4</ele>
        <time>2023-01-18T13:59:01Z</time>
      </trkpt>
      <trkpt lat="49.76101" lon="2.18629">
        <ele>67.4</ele>
        <time>2023-01-18T13:59:02Z</time>
      </trkpt>
      <trkpt lat="49.76101" lon="2.18629">
        <ele>67.4</ele>
        <time>2023-01-18T13:59:03Z</time>
      </trkpt>
      <trkpt lat="49.76101" lon="2.18629">
        <ele>67.4</ele>
        <time>2023-01-18T13:59:04Z</time>
      </trkpt>
      <trkpt lat="49.76101" lon="2.18629">
        <ele>67.4</ele>
        <time>2023-01-18T13:59:05Z</time>
      </trkpt>
      <trkpt lat="49.76101" lon="2.18629">
        <ele>67.4</ele>
        <time>2023-01-18T13:59:06Z</time>
      </trkpt>
      <trkpt lat="49.76101" lon="2.18629">
        <ele>67.4</ele>
        <time>2023-01-18T13:59:07Z</time>
      </trkpt>
      <trkpt lat="49.76101" lon="2.18629">
        <ele>67.4</ele>
        <time>2023-01-18T13:59:08Z</time>
      </trkpt>
      <trkpt lat="49.76101" lon="2.18629">
        <ele>67.4</ele>
        <time>2023-01-18T13:59:09Z</time>
      </trkpt>
      <trkpt lat="49.76101" lon="2.18629">
        <ele>67.4</ele>
        <time>2023-01-18T13:59:10Z</time>
      </trkpt>
      <trkpt lat="49.76101" lon="2.18629">
        <ele>67.4</ele>
        <time>2023-01-18T13:59:11Z</time>
      </trkpt>
      <trkpt lat="49.76101" lon="2.18629">
        <ele>67.4</ele>
        <time>2023-01-18T13:59:12Z</time>
      </trkpt>
      <trkpt lat="49.76101" lon="2.18629">
        <ele>67.4</ele>
        <time>2023-01-18T13:59:13Z</time>
      </trkpt>
      <trkpt lat="49.76101" lon="2.18629">
        <ele>67.4</ele>
        <time>2023-01-18T13:59:14Z</time>
      </trkpt>
      <trkpt lat="49.76101" lon="2.18629">
        <ele>67.4</ele>
        <time>2023-01-18T13:59:15Z</time>
      </trkpt>
      <trkpt lat="49.76101" lon="2.18629">
        <ele>67.4</ele>
        <time>2023-01-18T13:59:16Z</time>
      </trkpt>
      <trkpt lat="49.76101" lon="2.18629">
        <ele>67.4</ele>
        <time>2023-01-18T13:59:17Z</time>
      </trkpt>
      <trkpt lat="49.76101" lon="2.18629">
        <ele>67.4</ele>
        <time>2023-01-18T13:59:18Z</time>
      </trkpt>
      <trkpt lat="49.76101" lon="2.18629">
        <ele>67.4</ele>
        <time>2023-01-18T13:59:19Z</time>
      </trkpt>
      <trkpt lat="49.76101" lon="2.18629">
        <ele>67.4</ele>
        <time>2023-01-18T13:59:20Z</time>
      </trkpt>
      <trkpt lat="49.76101" lon="2.18629">
        <ele>67.4</ele>
        <time>2023-01-18T13:59:21Z</time>
      </trkpt>
      <trkpt lat="49.76101" lon="2.18629">
        <ele>67.4</ele>
        <time>2023-01-18T13:59:22Z</time>
      </trkpt>
      <trkpt lat="49.76101" lon="2.18629">
        <ele>67.4</ele>
        <time>2023-01-18T13:59:23Z</time>
      </trkpt>
      <trkpt lat="49.76101" lon="2.18629">
        <ele>67.4</ele>
        <time>2023-01-18T13:59:24Z</time>
      </trkpt>
      <trkpt lat="49.76101" lon="2.18629">
        <ele>67.4</ele>
        <time>2023-01-18T13:59:25Z</time>
      </trkpt>
      <trkpt lat="49.76101" lon="2.18629">
        <ele>67.4</ele>
        <time>2023-01-18T13:59:26Z</time>
      </trkpt>
      <trkpt lat="49.76101" lon="2.18629">
        <ele>67.4</ele>
        <time>2023-01-18T13:59:27Z</time>
      </trkpt>
      <trkpt lat="49.76101" lon="2.18629">
        <ele>67.4</ele>
        <time>2023-01-18T13:59:28Z</time>
      </trkpt>
      <trkpt lat="49.76101" lon="2.18629">
        <ele>67.4</ele>
        <time>2023-01-18T13:59:29Z</time>
      </trkpt>
      <trkpt lat="49.76101" lon="2.18629">
        <ele>67.4</ele>
        <time>2023-01-18T13:59:30Z</time>
      </trkpt>
      <trkpt lat="49.76101" lon="2.18629">
        <ele>67.4</ele>
        <time>2023-01-18T13:59:31Z</time>
      </trkpt>
      <trkpt lat="49.76101" lon="2.18629">
        <ele>67.4</ele>
        <time>2023-01-18T13:59:32Z</time>
      </trkpt>
      <trkpt lat="49.76101" lon="2.18629">
        <ele>67.4</ele>
        <time>2023-01-18T13:59:33Z</time>
      </trkpt>
      <trkpt lat="49.76101" lon="2.18629">
        <ele>67.4</ele>
        <time>2023-01-18T13:59:34Z</time>
      </trkpt>
      <trkpt lat="49.76101" lon="2.18629">
        <ele>67.4</ele>
        <time>2023-01-18T13:59:35Z</time>
      </trkpt>
      <trkpt lat="49.76101" lon="2.18629">
        <ele>67.4</ele>
        <time>2023-01-18T13:59:36Z</time>
      </trkpt>
      <trkpt lat="49.76101" lon="2.18629">
        <ele>67.4</ele>
        <time>2023-01-18T13:59:37Z</time>
      </trkpt>
      <trkpt lat="49.76101" lon="2.18629">
        <ele>67.4</ele>
        <time>2023-01-18T13:59:38Z</time>
      </trkpt>
      <trkpt lat="49.76101" lon="2.18629">
        <ele>67.4</ele>
        <time>2023-01-18T13:59:39Z</time>
      </trkpt>
      <trkpt lat="49.76101" lon="2.18629">
        <ele>67.4</ele>
        <time>2023-01-18T13:59:40Z</time>
      </trkpt>
      <trkpt lat="49.76101" lon="2.18629">
        <ele>67.4</ele>
        <time>2023-01-18T13:59:41Z</time>
      </trkpt>
      <trkpt lat="49.76101" lon="2.18629">
        <ele>67.4</ele>
        <time>2023-01-18T13:59:42Z</time>
      </trkpt>
      <trkpt lat="49.76101" lon="2.18629">
        <ele>67.4</ele>
        <time>2023-01-18T13:59:43Z</time>
      </trkpt>
      <trkpt lat="49.76101" lon="2.18629">
        <ele>67.4</ele>
        <time>2023-01-18T13:59:44Z</time>
      </trkpt>
      <trkpt lat="49.76101" lon="2.18629">
        <ele>67.4</ele>
        <time>2023-01-18T13:59:45Z</time>
      </trkpt>
      <trkpt lat="49.76101" lon="2.18629">
        <ele>67.4</ele>
        <time>2023-01-18T13:59:46Z</time>
      </trkpt>
      <trkpt lat="49.76101" lon="2.18629">
        <ele>67.4</ele>
        <time>2023-01-18T13:59:47Z</time>
      </trkpt>
      <trkpt lat="49.76101" lon="2.18629">
        <ele>67.4</ele>
        <time>2023-01-18T13:59:48Z</time>
      </trkpt>
      <trkpt lat="49.76101" lon="2.18629">
        <ele>67.4</ele>
        <time>2023-01-18T13:59:49Z</time>
      </trkpt>
      <trkpt lat="49.76101" lon="2.18629">
        <ele>67.4</ele>
        <time>2023-01-18T13:59:50Z</time>
      </trkpt>
      <trkpt lat="49.76101" lon="2.18629">
        <ele>67.4</ele>
        <time>2023-01-18T13:59:51Z</time>
      </trkpt>
      <trkpt lat="49.76101" lon="2.18629">
        <ele>67.4</ele>
        <time>2023-01-18T13:59:52Z</time>
      </trkpt>
      <trkpt lat="49.76101" lon="2.18629">
        <ele>67.4</ele>
        <time>2023-01-18T13:59:53Z</time>
      </trkpt>
      <trkpt lat="49.76101" lon="2.18629">
        <ele>67.4</ele>
        <time>2023-01-18T13:59:54Z</time>
      </trkpt>
      <trkpt lat="49.76101" lon="2.18629">
        <ele>67.4</ele>
        <time>2023-01-18T13:59:55Z</time>
      </trkpt>
      <trkpt lat="49.76101" lon="2.18629">
        <ele>67.4</ele>
        <time>2023-01-18T13:59:56Z</time>
      </trkpt>
      <trkpt lat="49.76101" lon="2.18629">
        <ele>67.4</ele>
        <time>2023-01-18T13:59:57Z</time>
      </trkpt>
      <trkpt lat="49.76101" lon="2.18629">
        <ele>67.4</ele>
        <time>2023-01-18T13:59:58Z</time>
      </trkpt>
      <trkpt lat="49.76101" lon="2.18629">
        <ele>67.4</ele>
        <time>2023-01-18T13:59:59Z</time>
      </trkpt>
      <trkpt lat="49.76101" lon="2.18629">
        <ele>67.4</ele>
        <time>2023-01-18T14:00:00Z</time>
      </trkpt>
      <trkpt lat="49.76101" lon="2.18629">
        <ele>67.4</ele>
        <time>2023-01-18T14:00:01Z</time>
      </trkpt>
      <trkpt lat="49.76101" lon="2.18629">
        <ele>67.4</ele>
        <time>2023-01-18T14:00:02Z</time>
      </trkpt>
      <trkpt lat="49.76101" lon="2.18629">
        <ele>67.4</ele>
        <time>2023-01-18T14:00:03Z</time>
      </trkpt>
      <trkpt lat="49.76101" lon="2.18629">
        <ele>67.4</ele>
        <time>2023-01-18T14:00:04Z</time>
      </trkpt>
      <trkpt lat="49.76101" lon="2.18629">
        <ele>67.4</ele>
        <time>2023-01-18T14:00:05Z</time>
      </trkpt>
      <trkpt lat="49.76101" lon="2.18629">
        <ele>67.4</ele>
        <time>2023-01-18T14:00:06Z</time>
      </trkpt>
      <trkpt lat="49.76101" lon="2.18629">
        <ele>67.4</ele>
        <time>2023-01-18T14:00:07Z</time>
      </trkpt>
      <trkpt lat="49.76101" lon="2.18629">
        <ele>67.4</ele>
        <time>2023-01-18T14:00:08Z</time>
      </trkpt>
      <trkpt lat="49.76101" lon="2.18629">
        <ele>67.4</ele>
        <time>2023-01-18T14:00:09Z</time>
      </trkpt>
      <trkpt lat="49.76101" lon="2.18629">
        <ele>67.4</ele>
        <time>2023-01-18T14:00:10Z</time>
      </trkpt>
      <trkpt lat="49.76101" lon="2.18629">
        <ele>67.4</ele>
        <time>2023-01-18T14:00:11Z</time>
      </trkpt>
      <trkpt lat="49.76101" lon="2.18629">
        <ele>67.4</ele>
        <time>2023-01-18T14:00:12Z</time>
      </trkpt>
      <trkpt lat="49.76101" lon="2.18629">
        <ele>67.4</ele>
        <time>2023-01-18T14:00:13Z</time>
      </trkpt>
      <trkpt lat="49.76101" lon="2.18629">
        <ele>67.4</ele>
        <time>2023-01-18T14:00:14Z</time>
      </trkpt>
      <trkpt lat="49.76101" lon="2.18629">
        <ele>67.4</ele>
        <time>2023-01-18T14:00:15Z</time>
      </trkpt>
      <trkpt lat="49.76101" lon="2.18629">
        <ele>67.4</ele>
        <time>2023-01-18T14:00:16Z</time>
      </trkpt>
      <trkpt lat="49.76101" lon="2.18629">
        <ele>67.4</ele>
        <time>2023-01-18T14:00:17Z</time>
      </trkpt>
      <trkpt lat="49.76101" lon="2.18629">
        <ele>67.4</ele>
        <time>2023-01-18T14:00:18Z</time>
      </trkpt>
      <trkpt lat="49.76101" lon="2.18629">
        <ele>67.4</ele>
        <time>2023-01-18T14:00:19Z</time>
      </trkpt>
      <trkpt lat="49.76101" lon="2.18629">
        <ele>67.4</ele>
        <time>2023-01-18T14:00:20Z</time>
      </trkpt>
      <trkpt lat="49.76101" lon="2.18629">
        <ele>67.4</ele>
        <time>2023-01-18T14:00:21Z</time>
      </trkpt>
      <trkpt lat="49.76101" lon="2.18629">
        <ele>67.4</ele>
        <time>2023-01-18T14:00:22Z</time>
      </trkpt>
      <trkpt lat="49.76101" lon="2.18629">
        <ele>67.4</ele>
        <time>2023-01-18T14:00:23Z</time>
      </trkpt>
      <trkpt lat="49.76101" lon="2.18629">
        <ele>67.4</ele>
        <time>2023-01-18T14:00:24Z</time>
      </trkpt>
      <trkpt lat="49.76102" lon="2.18627">
        <ele>67.5</ele>
        <time>2023-01-18T14:00:25Z</time>
      </trkpt>
      <trkpt lat="49.76103" lon="2.18624">
        <ele>67.6</ele>
        <time>2023-01-18T14:00:26Z</time>
      </trkpt>
      <trkpt lat="49.76104" lon="2.18622">
        <ele>67.7</ele>
        <time>2023-01-18T14:00:27Z</time>
      </trkpt>
      <trkpt lat="49.76104" lon="2.18622">
        <ele>67.7</ele>
        <time>2023-01-18T14:00:28Z</time>
      </trkpt>
      <trkpt lat="49.76104" lon="2.18623">
        <ele>67.8</ele>
        <time>2023-01-18T14:00:29Z</time>
      </trkpt>
      <trkpt lat="49.76104" lon="2.18623">
        <ele>67.8</ele>
        <time>2023-01-18T14:00:30Z</time>
      </trkpt>
      <trkpt lat="49.76106" lon="2.18621">
        <ele>67.9</ele>
        <time>2023-01-18T14:00:32Z</time>
      </trkpt>
      <trkpt lat="49.76106" lon="2.18621">
        <ele>67.9</ele>
        <time>2023-01-18T14:00:33Z</time>
      </trkpt>
      <trkpt lat="49.76108" lon="2.18619">
        <ele>68</ele>
        <time>2023-01-18T14:00:34Z</time>
      </trkpt>
      <trkpt lat="49.76108" lon="2.18619">
        <ele>68</ele>
        <time>2023-01-18T14:00:35Z</time>
      </trkpt>
      <trkpt lat="49.76109" lon="2.18618">
        <ele>68.1</ele>
        <time>2023-01-18T14:00:36Z</time>
      </trkpt>
      <trkpt lat="49.7611" lon="2.18618">
        <ele>68.1</ele>
        <time>2023-01-18T14:00:37Z</time>
      </trkpt>
      <trkpt lat="49.76111" lon="2.18618">
        <ele>68.1</ele>
        <time>2023-01-18T14:00:39Z</time>
      </trkpt>
      <trkpt lat="49.76111" lon="2.18618">
        <ele>68.2</ele>
        <time>2023-01-18T14:00:40Z</time>
      </trkpt>
      <trkpt lat="49.76112" lon="2.18618">
        <ele>68.2</ele>
        <time>2023-01-18T14:00:41Z</time>
      </trkpt>
      <trkpt lat="49.76113" lon="2.18618">
        <ele>68.2</ele>
        <time>2023-01-18T14:00:42Z</time>
      </trkpt>
      <trkpt lat="49.76113" lon="2.18619">
        <ele>68.3</ele>
        <time>2023-01-18T14:00:43Z</time>
      </trkpt>
      <trkpt lat="49.76114" lon="2.18619">
        <ele>68.3</ele>
        <time>2023-01-18T14:00:44Z</time>
      </trkpt>
      <trkpt lat="49.76115" lon="2.18619">
        <ele>68.3</ele>
        <time>2023-01-18T14:00:45Z</time>
      </trkpt>
      <trkpt lat="49.76115" lon="2.18619">
        <ele>68.4</ele>
        <time>2023-01-18T14:00:47Z</time>
      </trkpt>
      <trkpt lat="49.76116" lon="2.1862">
        <ele>68.4</ele>
        <time>2023-01-18T14:00:48Z</time>
      </trkpt>
      <trkpt lat="49.76117" lon="2.1862">
        <ele>68.5</ele>
        <time>2023-01-18T14:00:49Z</time>
      </trkpt>
      <trkpt lat="49.76117" lon="2.18621">
        <ele>68.5</ele>
        <time>2023-01-18T14:00:50Z</time>
      </trkpt>
      <trkpt lat="49.76118" lon="2.1862">
        <ele>68.5</ele>
        <time>2023-01-18T14:00:51Z</time>
      </trkpt>
      <trkpt lat="49.76119" lon="2.1862">
        <ele>68.6</ele>
        <time>2023-01-18T14:00:53Z</time>
      </trkpt>
      <trkpt lat="49.7612" lon="2.1862">
        <ele>68.6</ele>
        <time>2023-01-18T14:00:54Z</time>
      </trkpt>
      <trkpt lat="49.7612" lon="2.1862">
        <ele>68.7</ele>
        <time>2023-01-18T14:00:56Z</time>
      </trkpt>
      <trkpt lat="49.76121" lon="2.1862">
        <ele>68.7</ele>
        <time>2023-01-18T14:00:57Z</time>
      </trkpt>
      <trkpt lat="49.76121" lon="2.18621">
        <ele>68.7</ele>
        <time>2023-01-18T14:00:58Z</time>
      </trkpt>
      <trkpt lat="49.76122" lon="2.18621">
        <ele>68.7</ele>
        <time>2023-01-18T14:00:59Z</time>
      </trkpt>
      <trkpt lat="49.76123" lon="2.18621">
        <ele>68.8</ele>
        <time>2023-01-18T14:01:00Z</time>
      </trkpt>
      <trkpt lat="49.76123" lon="2.18622">
        <ele>68.8</ele>
        <time>2023-01-18T14:01:01Z</time>
      </trkpt>
      <trkpt lat="49.76124" lon="2.18622">
        <ele>68.9</ele>
        <time>2023-01-18T14:01:03Z</time>
      </trkpt>
      <trkpt lat="49.76125" lon="2.18622">
        <ele>68.9</ele>
        <time>2023-01-18T14:01:04Z</time>
      </trkpt>
      <trkpt lat="49.76126" lon="2.18622">
        <ele>69</ele>
        <time>2023-01-18T14:01:05Z</time>
      </trkpt>
      <trkpt lat="49.76127" lon="2.18622">
        <ele>69</ele>
        <time>2023-01-18T14:01:06Z</time>
      </trkpt>
      <trkpt lat="49.76128" lon="2.18622">
        <ele>69.1</ele>
        <time>2023-01-18T14:01:08Z</time>
      </trkpt>
      <trkpt lat="49.76129" lon="2.18622">
        <ele>69.1</ele>
        <time>2023-01-18T14:01:10Z</time>
      </trkpt>
      <trkpt lat="49.7613" lon="2.18622">
        <ele>69.2</ele>
        <time>2023-01-18T14:01:11Z</time>
      </trkpt>
      <trkpt lat="49.76131" lon="2.18622">
        <ele>69.3</ele>
        <time>2023-01-18T14:01:12Z</time>
      </trkpt>
      <trkpt lat="49.76132" lon="2.18622">
        <ele>69.3</ele>
        <time>2023-01-18T14:01:13Z</time>
      </trkpt>
      <trkpt lat="49.76134" lon="2.18622">
        <ele>69.4</ele>
        <time>2023-01-18T14:01:15Z</time>
      </trkpt>
      <trkpt lat="49.76135" lon="2.18622">
        <ele>69.4</ele>
        <time>2023-01-18T14:01:16Z</time>
      </trkpt>
      <trkpt lat="49.76135" lon="2.18622">
        <ele>69.5</ele>
        <time>2023-01-18T14:01:17Z</time>
      </trkpt>
      <trkpt lat="49.76136" lon="2.18622">
        <ele>69.5</ele>
        <time>2023-01-18T14:01:18Z</time>
      </trkpt>
      <trkpt lat="49.76137" lon="2.18622">
        <ele>69.6</ele>
        <time>2023-01-18T14:01:19Z</time>
      </trkpt>
      <trkpt lat="49.76138" lon="2.18623">
        <ele>69.6</ele>
        <time>2023-01-18T14:01:20Z</time>
      </trkpt>
      <trkpt lat="49.76139" lon="2.18623">
        <ele>69.7</ele>
        <time>2023-01-18T14:01:21Z</time>
      </trkpt>
      <trkpt lat="49.7614" lon="2.18623">
        <ele>69.8</ele>
        <time>2023-01-18T14:01:22Z</time>
      </trkpt>
      <trkpt lat="49.76141" lon="2.18624">
        <ele>69.8</ele>
        <time>2023-01-18T14:01:24Z</time>
      </trkpt>
      <trkpt lat="49.76142" lon="2.18624">
        <ele>69.9</ele>
        <time>2023-01-18T14:01:25Z</time>
      </trkpt>
      <trkpt lat="49.76144" lon="2.18623">
        <ele>70</ele>
        <time>2023-01-18T14:01:26Z</time>
      </trkpt>
      <trkpt lat="49.76145" lon="2.18623">
        <ele>70.1</ele>
        <time>2023-01-18T14:01:27Z</time>
      </trkpt>
      <trkpt lat="49.76146" lon="2.18623">
        <ele>70.1</ele>
        <time>2023-01-18T14:01:28Z</time>
      </trkpt>
      <trkpt lat="49.76147" lon="2.18623">
        <ele>70.2</ele>
        <time>2023-01-18T14:01:30Z</time>
      </trkpt>
      <trkpt lat="49.76149" lon="2.18624">
        <ele>70.3</ele>
        <time>2023-01-18T14:01:31Z</time>
      </trkpt>
      <trkpt lat="49.76151" lon="2.18624">
        <ele>70.4</ele>
        <time>2023-01-18T14:01:32Z</time>
      </trkpt>
      <trkpt lat="49.76152" lon="2.18625">
        <ele>70.4</ele>
        <time>2023-01-18T14:01:33Z</time>
      </trkpt>
      <trkpt lat="49.76153" lon="2.18625">
        <ele>70.5</ele>
        <time>2023-01-18T14:01:34Z</time>
      </trkpt>
      <trkpt lat="49.76154" lon="2.18626">
        <ele>70.6</ele>
        <time>2023-01-18T14:01:36Z</time>
      </trkpt>
      <trkpt lat="49.76155" lon="2.18626">
        <ele>70.6</ele>
        <time>2023-01-18T14:01:37Z</time>
      </trkpt>
      <trkpt lat="49.76156" lon="2.18626">
        <ele>70.7</ele>
        <time>2023-01-18T14:01:38Z</time>
      </trkpt>
      <trkpt lat="49.76158" lon="2.18627">
        <ele>70.8</ele>
        <time>2023-01-18T14:01:39Z</time>
      </trkpt>
      <trkpt lat="49.76159" lon="2.18627">
        <ele>70.9</ele>
        <time>2023-01-18T14:01:40Z</time>
      </trkpt>
      <trkpt lat="49.76161" lon="2.18628">
        <ele>71</ele>
        <time>2023-01-18T14:01:41Z</time>
      </trkpt>
      <trkpt lat="49.76162" lon="2.18628">
        <ele>71</ele>
        <time>2023-01-18T14:01:42Z</time>
      </trkpt>
      <trkpt lat="49.76163" lon="2.18628">
        <ele>71.1</ele>
        <time>2023-01-18T14:01:44Z</time>
      </trkpt>
      <trkpt lat="49.76164" lon="2.18628">
        <ele>71.2</ele>
        <time>2023-01-18T14:01:45Z</time>
      </trkpt>
      <trkpt lat="49.76165" lon="2.18628">
        <ele>71.2</ele>
        <time>2023-01-18T14:01:47Z</time>
      </trkpt>
      <trkpt lat="49.76166" lon="2.18629">
        <ele>71.3</ele>
        <time>2023-01-18T14:01:48Z</time>
      </trkpt>
      <trkpt lat="49.76167" lon="2.18629">
        <ele>71.3</ele>
        <time>2023-01-18T14:01:49Z</time>
      </trkpt>
      <trkpt lat="49.76168" lon="2.18629">
        <ele>71.4</ele>
        <time>2023-01-18T14:01:50Z</time>
      </trkpt>
      <trkpt lat="49.7617" lon="2.18629">
        <ele>71.5</ele>
        <time>2023-01-18T14:01:52Z</time>
      </trkpt>
      <trkpt lat="49.76172" lon="2.18629">
        <ele>71.6</ele>
        <time>2023-01-18T14:01:53Z</time>
      </trkpt>
      <trkpt lat="49.76173" lon="2.18629">
        <ele>71.7</ele>
        <time>2023-01-18T14:01:55Z</time>
      </trkpt>
      <trkpt lat="49.76174" lon="2.18629">
        <ele>71.8</ele>
        <time>2023-01-18T14:01:56Z</time>
      </trkpt>
      <trkpt lat="49.76175" lon="2.1863">
        <ele>71.8</ele>
        <time>2023-01-18T14:01:57Z</time>
      </trkpt>
      <trkpt lat="49.76176" lon="2.1863">
        <ele>71.9</ele>
        <time>2023-01-18T14:01:58Z</time>
      </trkpt>
      <trkpt lat="49.76178" lon="2.1863">
        <ele>72</ele>
        <time>2023-01-18T14:01:59Z</time>
      </trkpt>
      <trkpt lat="49.76179" lon="2.18631">
        <ele>72.1</ele>
        <time>2023-01-18T14:02:01Z</time>
      </trkpt>
      <trkpt lat="49.76181" lon="2.18631">
        <ele>72.1</ele>
        <time>2023-01-18T14:02:02Z</time>
      </trkpt>
      <trkpt lat="49.76182" lon="2.18631">
        <ele>72.2</ele>
        <time>2023-01-18T14:02:03Z</time>
      </trkpt>
      <trkpt lat="49.76183" lon="2.18631">
        <ele>72.3</ele>
        <time>2023-01-18T14:02:04Z</time>
      </trkpt>
      <trkpt lat="49.76185" lon="2.18631">
        <ele>72.4</ele>
        <time>2023-01-18T14:02:05Z</time>
      </trkpt>
      <trkpt lat="49.76187" lon="2.18631">
        <ele>72.5</ele>
        <time>2023-01-18T14:02:06Z</time>
      </trkpt>
      <trkpt lat="49.76188" lon="2.18632">
        <ele>72.6</ele>
        <time>2023-01-18T14:02:08Z</time>
      </trkpt>
      <trkpt lat="49.76189" lon="2.18632">
        <ele>72.6</ele>
        <time>2023-01-18T14:02:09Z</time>
      </trkpt>
      <trkpt lat="49.7619" lon="2.18632">
        <ele>72.7</ele>
        <time>2023-01-18T14:02:10Z</time>
      </trkpt>
      <trkpt lat="49.76191" lon="2.18633">
        <ele>72.7</ele>
        <time>2023-01-18T14:02:11Z</time>
      </trkpt>
      <trkpt lat="49.76192" lon="2.18633">
        <ele>72.8</ele>
        <time>2023-01-18T14:02:12Z</time>
      </trkpt>
      <trkpt lat="49.76193" lon="2.18634">
        <ele>72.8</ele>
        <time>2023-01-18T14:02:13Z</time>
      </trkpt>
      <trkpt lat="49.76195" lon="2.18634">
        <ele>73</ele>
        <time>2023-01-18T14:02:15Z</time>
      </trkpt>
      <trkpt lat="49.76196" lon="2.18635">
        <ele>73</ele>
        <time>2023-01-18T14:02:16Z</time>
      </trkpt>
      <trkpt lat="49.76197" lon="2.18636">
        <ele>73.1</ele>
        <time>2023-01-18T14:02:17Z</time>
      </trkpt>
      <trkpt lat="49.76198" lon="2.18636">
        <ele>73.2</ele>
        <time>2023-01-18T14:02:18Z</time>
      </trkpt>
      <trkpt lat="49.76201" lon="2.18638">
        <ele>73.3</ele>
        <time>2023-01-18T14:02:19Z</time>
      </trkpt>
      <trkpt lat="49.76202" lon="2.18638">
        <ele>73.3</ele>
        <time>2023-01-18T14:02:21Z</time>
      </trkpt>
      <trkpt lat="49.76203" lon="2.18638">
        <ele>73.4</ele>
        <time>2023-01-18T14:02:22Z</time>
      </trkpt>
      <trkpt lat="49.76204" lon="2.18639">
        <ele>73.5</ele>
        <time>2023-01-18T14:02:23Z</time>
      </trkpt>
      <trkpt lat="49.76205" lon="2.18639">
        <ele>73.5</ele>
        <time>2023-01-18T14:02:24Z</time>
      </trkpt>
      <trkpt lat="49.76207" lon="2.1864">
        <ele>73.6</ele>
        <time>2023-01-18T14:02:25Z</time>
      </trkpt>
      <trkpt lat="49.76208" lon="2.18641">
        <ele>73.7</ele>
        <time>2023-01-18T14:02:26Z</time>
      </trkpt>
      <trkpt lat="49.76208" lon="2.18641">
        <ele>73.7</ele>
        <time>2023-01-18T14:02:27Z</time>
      </trkpt>
      <trkpt lat="49.7621" lon="2.18642">
        <ele>73.8</ele>
        <time>2023-01-18T14:02:29Z</time>
      </trkpt>
      <trkpt lat="49.76211" lon="2.18642">
        <ele>73.8</ele>
        <time>2023-01-18T14:02:30Z</time>
      </trkpt>
      <trkpt lat="49.76211" lon="2.18643">
        <ele>73.9</ele>
        <time>2023-01-18T14:02:31Z</time>
      </trkpt>
      <trkpt lat="49.76212" lon="2.18644">
        <ele>73.9</ele>
        <time>2023-01-18T14:02:32Z</time>
      </trkpt>
      <trkpt lat="49.76213" lon="2.18645">
        <ele>74</ele>
        <time>2023-01-18T14:02:33Z</time>
      </trkpt>
      <trkpt lat="49.76215" lon="2.18647">
        <ele>74</ele>
        <time>2023-01-18T14:02:35Z</time>
      </trkpt>
      <trkpt lat="49.76215" lon="2.18648">
        <ele>74.1</ele>
        <time>2023-01-18T14:02:36Z</time>
      </trkpt>
      <trkpt lat="49.76216" lon="2.18649">
        <ele>74.1</ele>
        <time>2023-01-18T14:02:37Z</time>
      </trkpt>
      <trkpt lat="49.76217" lon="2.1865">
        <ele>74.2</ele>
        <time>2023-01-18T14:02:38Z</time>
      </trkpt>
      <trkpt lat="49.76219" lon="2.18652">
        <ele>74.3</ele>
        <time>2023-01-18T14:02:39Z</time>
      </trkpt>
      <trkpt lat="49.7622" lon="2.18652">
        <ele>74.3</ele>
        <time>2023-01-18T14:02:40Z</time>
      </trkpt>
      <trkpt lat="49.7622" lon="2.18653">
        <ele>74.3</ele>
        <time>2023-01-18T14:02:41Z</time>
      </trkpt>
      <trkpt lat="49.76223" lon="2.18654">
        <ele>74.4</ele>
        <time>2023-01-18T14:02:42Z</time>
      </trkpt>
      <trkpt lat="49.76224" lon="2.18655">
        <ele>74.4</ele>
        <time>2023-01-18T14:02:44Z</time>
      </trkpt>
      <trkpt lat="49.76225" lon="2.18655">
        <ele>74.4</ele>
        <time>2023-01-18T14:02:45Z</time>
      </trkpt>
      <trkpt lat="49.76226" lon="2.18656">
        <ele>74.5</ele>
        <time>2023-01-18T14:02:46Z</time>
      </trkpt>
      <trkpt lat="49.76227" lon="2.18656">
        <ele>74.5</ele>
        <time>2023-01-18T14:02:47Z</time>
      </trkpt>
      <trkpt lat="49.76228" lon="2.18657">
        <ele>74.6</ele>
        <time>2023-01-18T14:02:48Z</time>
      </trkpt>
      <trkpt lat="49.7623" lon="2.18658">
        <ele>74.6</ele>
        <time>2023-01-18T14:02:50Z</time>
      </trkpt>
      <trkpt lat="49.76231" lon="2.18659">
        <ele>74.6</ele>
        <time>2023-01-18T14:02:51Z</time>
      </trkpt>
      <trkpt lat="49.76232" lon="2.1866">
        <ele>74.7</ele>
        <time>2023-01-18T14:02:52Z</time>
      </trkpt>
      <trkpt lat="49.76233" lon="2.1866">
        <ele>74.7</ele>
        <time>2023-01-18T14:02:53Z</time>
      </trkpt>
      <trkpt lat="49.76235" lon="2.18661">
        <ele>74.8</ele>
        <time>2023-01-18T14:02:54Z</time>
      </trkpt>
      <trkpt lat="49.76236" lon="2.18662">
        <ele>74.8</ele>
        <time>2023-01-18T14:02:55Z</time>
      </trkpt>
      <trkpt lat="49.76237" lon="2.18662">
        <ele>74.8</ele>
        <time>2023-01-18T14:02:56Z</time>
      </trkpt>
      <trkpt lat="49.76238" lon="2.18663">
        <ele>74.8</ele>
        <time>2023-01-18T14:02:58Z</time>
      </trkpt>
      <trkpt lat="49.76239" lon="2.18664">
        <ele>74.9</ele>
        <time>2023-01-18T14:02:59Z</time>
      </trkpt>
      <trkpt lat="49.7624" lon="2.18665">
        <ele>74.9</ele>
        <time>2023-01-18T14:03:00Z</time>
      </trkpt>
      <trkpt lat="49.76241" lon="2.18666">
        <ele>74.9</ele>
        <time>2023-01-18T14:03:01Z</time>
      </trkpt>
      <trkpt lat="49.76242" lon="2.18667">
        <ele>75</ele>
        <time>2023-01-18T14:03:02Z</time>
      </trkpt>
      <trkpt lat="49.76243" lon="2.18668">
        <ele>75</ele>
        <time>2023-01-18T14:03:03Z</time>
      </trkpt>
      <trkpt lat="49.76244" lon="2.18669">
        <ele>75</ele>
        <time>2023-01-18T14:03:04Z</time>
      </trkpt>
      <trkpt lat="49.76245" lon="2.1867">
        <ele>75</ele>
        <time>2023-01-18T14:03:05Z</time>
      </trkpt>
      <trkpt lat="49.76247" lon="2.18671">
        <ele>75.1</ele>
        <time>2023-01-18T14:03:06Z</time>
      </trkpt>
      <trkpt lat="49.76248" lon="2.18672">
        <ele>75.1</ele>
        <time>2023-01-18T14:03:08Z</time>
      </trkpt>
      <trkpt lat="49.76248" lon="2.18672">
        <ele>75.1</ele>
        <time>2023-01-18T14:03:09Z</time>
      </trkpt>
      <trkpt lat="49.7625" lon="2.18673">
        <ele>75.2</ele>
        <time>2023-01-18T14:03:10Z</time>
      </trkpt>
      <trkpt lat="49.76251" lon="2.18673">
        <ele>75.2</ele>
        <time>2023-01-18T14:03:11Z</time>
      </trkpt>
      <trkpt lat="49.76251" lon="2.18674">
        <ele>75.2</ele>
        <time>2023-01-18T14:03:12Z</time>
      </trkpt>
      <trkpt lat="49.76252" lon="2.18674">
        <ele>75.2</ele>
        <time>2023-01-18T14:03:13Z</time>
      </trkpt>
      <trkpt lat="49.76253" lon="2.18675">
        <ele>75.3</ele>
        <time>2023-01-18T14:03:14Z</time>
      </trkpt>
      <trkpt lat="49.76255" lon="2.18676">
        <ele>75.3</ele>
        <time>2023-01-18T14:03:15Z</time>
      </trkpt>
      <trkpt lat="49.76255" lon="2.18677">
        <ele>75.3</ele>
        <time>2023-01-18T14:03:17Z</time>
      </trkpt>
      <trkpt lat="49.76256" lon="2.18678">
        <ele>75.4</ele>
        <time>2023-01-18T14:03:18Z</time>
      </trkpt>
      <trkpt lat="49.76258" lon="2.18679">
        <ele>75.4</ele>
        <time>2023-01-18T14:03:19Z</time>
      </trkpt>
      <trkpt lat="49.76258" lon="2.1868">
        <ele>75.4</ele>
        <time>2023-01-18T14:03:20Z</time>
      </trkpt>
      <trkpt lat="49.76259" lon="2.1868">
        <ele>75.4</ele>
        <time>2023-01-18T14:03:21Z</time>
      </trkpt>
      <trkpt lat="49.7626" lon="2.18681">
        <ele>75.5</ele>
        <time>2023-01-18T14:03:22Z</time>
      </trkpt>
      <trkpt lat="49.76261" lon="2.18682">
        <ele>75.5</ele>
        <time>2023-01-18T14:03:23Z</time>
      </trkpt>
      <trkpt lat="49.76263" lon="2.18683">
        <ele>75.5</ele>
        <time>2023-01-18T14:03:24Z</time>
      </trkpt>
      <trkpt lat="49.76264" lon="2.18684">
        <ele>75.6</ele>
        <time>2023-01-18T14:03:25Z</time>
      </trkpt>
      <trkpt lat="49.76265" lon="2.18684">
        <ele>75.6</ele>
        <time>2023-01-18T14:03:27Z</time>
      </trkpt>
      <trkpt lat="49.76266" lon="2.18685">
        <ele>75.6</ele>
        <time>2023-01-18T14:03:28Z</time>
      </trkpt>
      <trkpt lat="49.76267" lon="2.18685">
        <ele>75.6</ele>
        <time>2023-01-18T14:03:29Z</time>
      </trkpt>
      <trkpt lat="49.76269" lon="2.18686">
        <ele>75.7</ele>
        <time>2023-01-18T14:03:30Z</time>
      </trkpt>
      <trkpt lat="49.7627" lon="2.18686">
        <ele>75.7</ele>
        <time>2023-01-18T14:03:31Z</time>
      </trkpt>
      <trkpt lat="49.76271" lon="2.18687">
        <ele>75.7</ele>
        <time>2023-01-18T14:03:32Z</time>
      </trkpt>
      <trkpt lat="49.76272" lon="2.18687">
        <ele>75.7</ele>
        <time>2023-01-18T14:03:33Z</time>
      </trkpt>
      <trkpt lat="49.76274" lon="2.18688">
        <ele>75.8</ele>
        <time>2023-01-18T14:03:34Z</time>
      </trkpt>
      <trkpt lat="49.76275" lon="2.18688">
        <ele>75.8</ele>
        <time>2023-01-18T14:03:35Z</time>
      </trkpt>
      <trkpt lat="49.76276" lon="2.18688">
        <ele>75.8</ele>
        <time>2023-01-18T14:03:36Z</time>
      </trkpt>
      <trkpt lat="49.76278" lon="2.18689">
        <ele>75.9</ele>
        <time>2023-01-18T14:03:37Z</time>
      </trkpt>
      <trkpt lat="49.76279" lon="2.1869">
        <ele>75.9</ele>
        <time>2023-01-18T14:03:39Z</time>
      </trkpt>
      <trkpt lat="49.76279" lon="2.1869">
        <ele>75.9</ele>
        <time>2023-01-18T14:03:40Z</time>
      </trkpt>
      <trkpt lat="49.7628" lon="2.18691">
        <ele>75.9</ele>
        <time>2023-01-18T14:03:41Z</time>
      </trkpt>
      <trkpt lat="49.76281" lon="2.18691">
        <ele>75.9</ele>
        <time>2023-01-18T14:03:42Z</time>
      </trkpt>
      <trkpt lat="49.76282" lon="2.18692">
        <ele>75.9</ele>
        <time>2023-01-18T14:03:43Z</time>
      </trkpt>
      <trkpt lat="49.76284" lon="2.18693">
        <ele>76</ele>
        <time>2023-01-18T14:03:44Z</time>
      </trkpt>
      <trkpt lat="49.76285" lon="2.18694">
        <ele>76</ele>
        <time>2023-01-18T14:03:45Z</time>
      </trkpt>
      <trkpt lat="49.76285" lon="2.18694">
        <ele>76</ele>
        <time>2023-01-18T14:03:46Z</time>
      </trkpt>
      <trkpt lat="49.76288" lon="2.18696">
        <ele>76</ele>
        <time>2023-01-18T14:03:47Z</time>
      </trkpt>
      <trkpt lat="49.76289" lon="2.18696">
        <ele>76.1</ele>
        <time>2023-01-18T14:03:48Z</time>
      </trkpt>
      <trkpt lat="49.7629" lon="2.18697">
        <ele>76.1</ele>
        <time>2023-01-18T14:03:49Z</time>
      </trkpt>
      <trkpt lat="49.76291" lon="2.18698">
        <ele>76.1</ele>
        <time>2023-01-18T14:03:51Z</time>
      </trkpt>
      <trkpt lat="49.76292" lon="2.18698">
        <ele>76.1</ele>
        <time>2023-01-18T14:03:52Z</time>
      </trkpt>
      <trkpt lat="49.76293" lon="2.18699">
        <ele>76.1</ele>
        <time>2023-01-18T14:03:53Z</time>
      </trkpt>
      <trkpt lat="49.76294" lon="2.187">
        <ele>76.1</ele>
        <time>2023-01-18T14:03:54Z</time>
      </trkpt>
      <trkpt lat="49.76296" lon="2.18702">
        <ele>76.2</ele>
        <time>2023-01-18T14:03:55Z</time>
      </trkpt>
      <trkpt lat="49.76297" lon="2.18702">
        <ele>76.2</ele>
        <time>2023-01-18T14:03:56Z</time>
      </trkpt>
      <trkpt lat="49.76298" lon="2.18703">
        <ele>76.2</ele>
        <time>2023-01-18T14:03:57Z</time>
      </trkpt>
      <trkpt lat="49.76299" lon="2.18704">
        <ele>76.2</ele>
        <time>2023-01-18T14:03:58Z</time>
      </trkpt>
      <trkpt lat="49.76301" lon="2.18705">
        <ele>76.2</ele>
        <time>2023-01-18T14:03:59Z</time>
      </trkpt>
      <trkpt lat="49.76302" lon="2.18706">
        <ele>76.2</ele>
        <time>2023-01-18T14:04:00Z</time>
      </trkpt>
      <trkpt lat="49.76303" lon="2.18707">
        <ele>76.3</ele>
        <time>2023-01-18T14:04:01Z</time>
      </trkpt>
      <trkpt lat="49.76304" lon="2.18708">
        <ele>76.3</ele>
        <time>2023-01-18T14:04:02Z</time>
      </trkpt>
      <trkpt lat="49.76307" lon="2.1871">
        <ele>76.3</ele>
        <time>2023-01-18T14:04:04Z</time>
      </trkpt>
      <trkpt lat="49.76307" lon="2.18711">
        <ele>76.3</ele>
        <time>2023-01-18T14:04:05Z</time>
      </trkpt>
      <trkpt lat="49.76307" lon="2.18713">
        <ele>76.3</ele>
        <time>2023-01-18T14:04:06Z</time>
      </trkpt>
      <trkpt lat="49.76308" lon="2.18714">
        <ele>76.3</ele>
        <time>2023-01-18T14:04:08Z</time>
      </trkpt>
      <trkpt lat="49.76309" lon="2.18715">
        <ele>76.4</ele>
        <time>2023-01-18T14:04:09Z</time>
      </trkpt>
      <trkpt lat="49.7631" lon="2.18717">
        <ele>76.4</ele>
        <time>2023-01-18T14:04:10Z</time>
      </trkpt>
      <trkpt lat="49.76311" lon="2.18717">
        <ele>76.4</ele>
        <time>2023-01-18T14:04:11Z</time>
      </trkpt>
      <trkpt lat="49.76311" lon="2.18718">
        <ele>76.3</ele>
        <time>2023-01-18T14:04:12Z</time>
      </trkpt>
      <trkpt lat="49.76312" lon="2.18719">
        <ele>76.4</ele>
        <time>2023-01-18T14:04:13Z</time>
      </trkpt>
      <trkpt lat="49.76313" lon="2.1872">
        <ele>76.4</ele>
        <time>2023-01-18T14:04:14Z</time>
      </trkpt>
      <trkpt lat="49.76316" lon="2.18721">
        <ele>76.4</ele>
        <time>2023-01-18T14:04:15Z</time>
      </trkpt>
      <trkpt lat="49.76317" lon="2.18721">
        <ele>76.4</ele>
        <time>2023-01-18T14:04:17Z</time>
      </trkpt>
      <trkpt lat="49.76317" lon="2.18722">
        <ele>76.4</ele>
        <time>2023-01-18T14:04:18Z</time>
      </trkpt>
      <trkpt lat="49.76318" lon="2.18724">
        <ele>76.4</ele>
        <time>2023-01-18T14:04:19Z</time>
      </trkpt>
      <trkpt lat="49.76319" lon="2.18726">
        <ele>76.5</ele>
        <time>2023-01-18T14:04:20Z</time>
      </trkpt>
      <trkpt lat="49.76319" lon="2.18727">
        <ele>76.5</ele>
        <time>2023-01-18T14:04:22Z</time>
      </trkpt>
      <trkpt lat="49.7632" lon="2.18727">
        <ele>76.5</ele>
        <time>2023-01-18T14:04:23Z</time>
      </trkpt>
      <trkpt lat="49.76321" lon="2.18728">
        <ele>76.5</ele>
        <time>2023-01-18T14:04:24Z</time>
      </trkpt>
      <trkpt lat="49.76323" lon="2.18729">
        <ele>76.5</ele>
        <time>2023-01-18T14:04:25Z</time>
      </trkpt>
      <trkpt lat="49.76325" lon="2.1873">
        <ele>76.6</ele>
        <time>2023-01-18T14:04:26Z</time>
      </trkpt>
      <trkpt lat="49.76325" lon="2.18731">
        <ele>76.6</ele>
        <time>2023-01-18T14:04:27Z</time>
      </trkpt>
      <trkpt lat="49.76326" lon="2.18731">
        <ele>76.6</ele>
        <time>2023-01-18T14:04:28Z</time>
      </trkpt>
      <trkpt lat="49.76327" lon="2.18732">
        <ele>76.6</ele>
        <time>2023-01-18T14:04:29Z</time>
      </trkpt>
      <trkpt lat="49.76328" lon="2.18734">
        <ele>76.6</ele>
        <time>2023-01-18T14:04:31Z</time>
      </trkpt>
      <trkpt lat="49.76329" lon="2.18735">
        <ele>76.6</ele>
        <time>2023-01-18T14:04:32Z</time>
      </trkpt>
      <trkpt lat="49.7633" lon="2.18736">
        <ele>76.7</ele>
        <time>2023-01-18T14:04:33Z</time>
      </trkpt>
      <trkpt lat="49.76331" lon="2.18737">
        <ele>76.7</ele>
        <time>2023-01-18T14:04:34Z</time>
      </trkpt>
      <trkpt lat="49.76333" lon="2.18739">
        <ele>76.7</ele>
        <time>2023-01-18T14:04:35Z</time>
      </trkpt>
      <trkpt lat="49.76334" lon="2.18739">
        <ele>76.7</ele>
        <time>2023-01-18T14:04:36Z</time>
      </trkpt>
      <trkpt lat="49.76335" lon="2.18739">
        <ele>76.8</ele>
        <time>2023-01-18T14:04:37Z</time>
      </trkpt>
      <trkpt lat="49.76336" lon="2.1874">
        <ele>76.8</ele>
        <time>2023-01-18T14:04:39Z</time>
      </trkpt>
      <trkpt lat="49.76338" lon="2.18741">
        <ele>76.8</ele>
        <time>2023-01-18T14:04:40Z</time>
      </trkpt>
      <trkpt lat="49.76339" lon="2.18742">
        <ele>76.9</ele>
        <time>2023-01-18T14:04:41Z</time>
      </trkpt>
      <trkpt lat="49.7634" lon="2.18743">
        <ele>76.9</ele>
        <time>2023-01-18T14:04:42Z</time>
      </trkpt>
      <trkpt lat="49.76341" lon="2.18744">
        <ele>76.9</ele>
        <time>2023-01-18T14:04:43Z</time>
      </trkpt>
      <trkpt lat="49.76342" lon="2.18745">
        <ele>76.9</ele>
        <time>2023-01-18T14:04:44Z</time>
      </trkpt>
      <trkpt lat="49.76343" lon="2.18747">
        <ele>77</ele>
        <time>2023-01-18T14:04:45Z</time>
      </trkpt>
      <trkpt lat="49.76344" lon="2.18749">
        <ele>77</ele>
        <time>2023-01-18T14:04:46Z</time>
      </trkpt>
      <trkpt lat="49.76345" lon="2.1875">
        <ele>77</ele>
        <time>2023-01-18T14:04:48Z</time>
      </trkpt>
      <trkpt lat="49.76346" lon="2.18751">
        <ele>77.1</ele>
        <time>2023-01-18T14:04:49Z</time>
      </trkpt>
      <trkpt lat="49.76347" lon="2.18752">
        <ele>77.1</ele>
        <time>2023-01-18T14:04:50Z</time>
      </trkpt>
      <trkpt lat="49.76348" lon="2.18754">
        <ele>77.1</ele>
        <time>2023-01-18T14:04:51Z</time>
      </trkpt>
      <trkpt lat="49.76349" lon="2.18756">
        <ele>77.2</ele>
        <time>2023-01-18T14:04:52Z</time>
      </trkpt>
      <trkpt lat="49.7635" lon="2.18757">
        <ele>77.2</ele>
        <time>2023-01-18T14:04:53Z</time>
      </trkpt>
      <trkpt lat="49.76353" lon="2.1876">
        <ele>77.3</ele>
        <time>2023-01-18T14:04:55Z</time>
      </trkpt>
      <trkpt lat="49.76353" lon="2.1876">
        <ele>77.4</ele>
        <time>2023-01-18T14:04:56Z</time>
      </trkpt>
      <trkpt lat="49.76356" lon="2.18762">
        <ele>77.5</ele>
        <time>2023-01-18T14:04:57Z</time>
      </trkpt>
      <trkpt lat="49.76357" lon="2.18763">
        <ele>77.5</ele>
        <time>2023-01-18T14:04:58Z</time>
      </trkpt>
      <trkpt lat="49.76358" lon="2.18764">
        <ele>77.6</ele>
        <time>2023-01-18T14:04:59Z</time>
      </trkpt>
      <trkpt lat="49.7636" lon="2.18765">
        <ele>77.6</ele>
        <time>2023-01-18T14:05:00Z</time>
      </trkpt>
      <trkpt lat="49.76362" lon="2.18766">
        <ele>77.7</ele>
        <time>2023-01-18T14:05:02Z</time>
      </trkpt>
      <trkpt lat="49.76363" lon="2.18767">
        <ele>77.7</ele>
        <time>2023-01-18T14:05:03Z</time>
      </trkpt>
      <trkpt lat="49.76364" lon="2.18767">
        <ele>77.8</ele>
        <time>2023-01-18T14:05:04Z</time>
      </trkpt>
      <trkpt lat="49.76366" lon="2.18769">
        <ele>77.9</ele>
        <time>2023-01-18T14:05:05Z</time>
      </trkpt>
      <trkpt lat="49.76367" lon="2.1877">
        <ele>77.9</ele>
        <time>2023-01-18T14:05:06Z</time>
      </trkpt>
      <trkpt lat="49.76368" lon="2.1877">
        <ele>78</ele>
        <time>2023-01-18T14:05:08Z</time>
      </trkpt>
      <trkpt lat="49.76369" lon="2.18771">
        <ele>78</ele>
        <time>2023-01-18T14:05:09Z</time>
      </trkpt>
      <trkpt lat="49.76371" lon="2.18772">
        <ele>78.1</ele>
        <time>2023-01-18T14:05:10Z</time>
      </trkpt>
      <trkpt lat="49.76372" lon="2.18772">
        <ele>78.2</ele>
        <time>2023-01-18T14:05:11Z</time>
      </trkpt>
      <trkpt lat="49.76373" lon="2.18773">
        <ele>78.2</ele>
        <time>2023-01-18T14:05:12Z</time>
      </trkpt>
      <trkpt lat="49.76375" lon="2.18773">
        <ele>78.3</ele>
        <time>2023-01-18T14:05:14Z</time>
      </trkpt>
      <trkpt lat="49.76376" lon="2.18774">
        <ele>78.4</ele>
        <time>2023-01-18T14:05:15Z</time>
      </trkpt>
      <trkpt lat="49.76378" lon="2.18774">
        <ele>78.4</ele>
        <time>2023-01-18T14:05:16Z</time>
      </trkpt>
      <trkpt lat="49.76379" lon="2.18775">
        <ele>78.5</ele>
        <time>2023-01-18T14:05:17Z</time>
      </trkpt>
      <trkpt lat="49.7638" lon="2.18776">
        <ele>78.5</ele>
        <time>2023-01-18T14:05:18Z</time>
      </trkpt>
      <trkpt lat="49.76381" lon="2.18777">
        <ele>78.6</ele>
        <time>2023-01-18T14:05:19Z</time>
      </trkpt>
      <trkpt lat="49.76382" lon="2.18777">
        <ele>78.7</ele>
        <time>2023-01-18T14:05:20Z</time>
      </trkpt>
      <trkpt lat="49.76384" lon="2.18778">
        <ele>78.7</ele>
        <time>2023-01-18T14:05:21Z</time>
      </trkpt>
      <trkpt lat="49.76385" lon="2.18779">
        <ele>78.8</ele>
        <time>2023-01-18T14:05:22Z</time>
      </trkpt>
      <trkpt lat="49.76386" lon="2.18779">
        <ele>78.8</ele>
        <time>2023-01-18T14:05:23Z</time>
      </trkpt>
      <trkpt lat="49.76386" lon="2.1878">
        <ele>78.9</ele>
        <time>2023-01-18T14:05:24Z</time>
      </trkpt>
      <trkpt lat="49.76389" lon="2.18782">
        <ele>79</ele>
        <time>2023-01-18T14:05:26Z</time>
      </trkpt>
      <trkpt lat="49.76389" lon="2.18782">
        <ele>79</ele>
        <time>2023-01-18T14:05:27Z</time>
      </trkpt>
      <trkpt lat="49.7639" lon="2.18783">
        <ele>79.1</ele>
        <time>2023-01-18T14:05:28Z</time>
      </trkpt>
      <trkpt lat="49.76391" lon="2.18784">
        <ele>79.2</ele>
        <time>2023-01-18T14:05:29Z</time>
      </trkpt>
      <trkpt lat="49.76392" lon="2.18785">
        <ele>79.2</ele>
        <time>2023-01-18T14:05:30Z</time>
      </trkpt>
      <trkpt lat="49.76393" lon="2.18785">
        <ele>79.3</ele>
        <time>2023-01-18T14:05:31Z</time>
      </trkpt>
      <trkpt lat="49.76394" lon="2.18786">
        <ele>79.3</ele>
        <time>2023-01-18T14:05:32Z</time>
      </trkpt>
      <trkpt lat="49.76395" lon="2.18787">
        <ele>79.3</ele>
        <time>2023-01-18T14:05:33Z</time>
      </trkpt>
      <trkpt lat="49.76396" lon="2.18787">
        <ele>79.4</ele>
        <time>2023-01-18T14:05:35Z</time>
      </trkpt>
      <trkpt lat="49.76397" lon="2.18788">
        <ele>79.5</ele>
        <time>2023-01-18T14:05:36Z</time>
      </trkpt>
      <trkpt lat="49.76398" lon="2.18789">
        <ele>79.5</ele>
        <time>2023-01-18T14:05:37Z</time>
      </trkpt>
      <trkpt lat="49.76399" lon="2.18789">
        <ele>79.6</ele>
        <time>2023-01-18T14:05:38Z</time>
      </trkpt>
      <trkpt lat="49.764" lon="2.1879">
        <ele>79.6</ele>
        <time>2023-01-18T14:05:39Z</time>
      </trkpt>
      <trkpt lat="49.76401" lon="2.1879">
        <ele>79.7</ele>
        <time>2023-01-18T14:05:40Z</time>
      </trkpt>
      <trkpt lat="49.76402" lon="2.18791">
        <ele>79.7</ele>
        <time>2023-01-18T14:05:41Z</time>
      </trkpt>
      <trkpt lat="49.76402" lon="2.18791">
        <ele>79.8</ele>
        <time>2023-01-18T14:05:43Z</time>
      </trkpt>
      <trkpt lat="49.76403" lon="2.18792">
        <ele>79.8</ele>
        <time>2023-01-18T14:05:44Z</time>
      </trkpt>
      <trkpt lat="49.76404" lon="2.18792">
        <ele>79.9</ele>
        <time>2023-01-18T14:05:45Z</time>
      </trkpt>
      <trkpt lat="49.76405" lon="2.18793">
        <ele>79.9</ele>
        <time>2023-01-18T14:05:46Z</time>
      </trkpt>
      <trkpt lat="49.76405" lon="2.18793">
        <ele>79.9</ele>
        <time>2023-01-18T14:05:47Z</time>
      </trkpt>
      <trkpt lat="49.76405" lon="2.18793">
        <ele>79.9</ele>
        <time>2023-01-18T14:05:48Z</time>
      </trkpt>
      <trkpt lat="49.76406" lon="2.18793">
        <ele>80</ele>
        <time>2023-01-18T14:05:49Z</time>
      </trkpt>
      <trkpt lat="49.76407" lon="2.18794">
        <ele>80</ele>
        <time>2023-01-18T14:05:50Z</time>
      </trkpt>
      <trkpt lat="49.76408" lon="2.18794">
        <ele>80.1</ele>
        <time>2023-01-18T14:05:51Z</time>
      </trkpt>
      <trkpt lat="49.7641" lon="2.18795">
        <ele>80.2</ele>
        <time>2023-01-18T14:05:53Z</time>
      </trkpt>
      <trkpt lat="49.76411" lon="2.18795">
        <ele>80.2</ele>
        <time>2023-01-18T14:05:54Z</time>
      </trkpt>
      <trkpt lat="49.76412" lon="2.18795">
        <ele>80.3</ele>
        <time>2023-01-18T14:05:55Z</time>
      </trkpt>
      <trkpt lat="49.76412" lon="2.18795">
        <ele>80.3</ele>
        <time>2023-01-18T14:05:56Z</time>
      </trkpt>
      <trkpt lat="49.76413" lon="2.18795">
        <ele>80.3</ele>
        <time>2023-01-18T14:05:57Z</time>
      </trkpt>
      <trkpt lat="49.76413" lon="2.18795">
        <ele>80.3</ele>
        <time>2023-01-18T14:05:58Z</time>
      </trkpt>
      <trkpt lat="49.76413" lon="2.18796">
        <ele>80.3</ele>
        <time>2023-01-18T14:05:59Z</time>
      </trkpt>
      <trkpt lat="49.76414" lon="2.18796">
        <ele>80.4</ele>
        <time>2023-01-18T14:06:00Z</time>
      </trkpt>
      <trkpt lat="49.76415" lon="2.18796">
        <ele>80.4</ele>
        <time>2023-01-18T14:06:01Z</time>
      </trkpt>
      <trkpt lat="49.76415" lon="2.18798">
        <ele>80.5</ele>
        <time>2023-01-18T14:06:02Z</time>
      </trkpt>
      <trkpt lat="49.76416" lon="2.18799">
        <ele>80.5</ele>
        <time>2023-01-18T14:06:04Z</time>
      </trkpt>
      <trkpt lat="49.76417" lon="2.188">
        <ele>80.6</ele>
        <time>2023-01-18T14:06:05Z</time>
      </trkpt>
      <trkpt lat="49.76419" lon="2.18801">
        <ele>80.7</ele>
        <time>2023-01-18T14:06:06Z</time>
      </trkpt>
      <trkpt lat="49.7642" lon="2.18802">
        <ele>80.8</ele>
        <time>2023-01-18T14:06:07Z</time>
      </trkpt>
      <trkpt lat="49.76421" lon="2.18804">
        <ele>80.8</ele>
        <time>2023-01-18T14:06:08Z</time>
      </trkpt>
      <trkpt lat="49.76422" lon="2.18805">
        <ele>80.9</ele>
        <time>2023-01-18T14:06:09Z</time>
      </trkpt>
      <trkpt lat="49.76425" lon="2.18807">
        <ele>81.1</ele>
        <time>2023-01-18T14:06:10Z</time>
      </trkpt>
      <trkpt lat="49.76426" lon="2.18807">
        <ele>81.1</ele>
        <time>2023-01-18T14:06:11Z</time>
      </trkpt>
      <trkpt lat="49.76427" lon="2.18808">
        <ele>81.2</ele>
        <time>2023-01-18T14:06:13Z</time>
      </trkpt>
      <trkpt lat="49.76429" lon="2.18809">
        <ele>81.3</ele>
        <time>2023-01-18T14:06:14Z</time>
      </trkpt>
      <trkpt lat="49.7643" lon="2.18811">
        <ele>81.4</ele>
        <time>2023-01-18T14:06:15Z</time>
      </trkpt>
      <trkpt lat="49.76432" lon="2.18812">
        <ele>81.5</ele>
        <time>2023-01-18T14:06:16Z</time>
      </trkpt>
      <trkpt lat="49.76433" lon="2.18813">
        <ele>81.6</ele>
        <time>2023-01-18T14:06:17Z</time>
      </trkpt>
      <trkpt lat="49.76435" lon="2.18814">
        <ele>81.7</ele>
        <time>2023-01-18T14:06:18Z</time>
      </trkpt>
      <trkpt lat="49.76437" lon="2.18815">
        <ele>81.8</ele>
        <time>2023-01-18T14:06:19Z</time>
      </trkpt>
      <trkpt lat="49.76438" lon="2.18815">
        <ele>81.9</ele>
        <time>2023-01-18T14:06:21Z</time>
      </trkpt>
      <trkpt lat="49.76439" lon="2.18816">
        <ele>82</ele>
        <time>2023-01-18T14:06:22Z</time>
      </trkpt>
      <trkpt lat="49.7644" lon="2.18817">
        <ele>82</ele>
        <time>2023-01-18T14:06:23Z</time>
      </trkpt>
      <trkpt lat="49.76441" lon="2.18817">
        <ele>82.1</ele>
        <time>2023-01-18T14:06:24Z</time>
      </trkpt>
      <trkpt lat="49.76442" lon="2.18818">
        <ele>82.2</ele>
        <time>2023-01-18T14:06:25Z</time>
      </trkpt>
      <trkpt lat="49.76444" lon="2.18819">
        <ele>82.3</ele>
        <time>2023-01-18T14:06:26Z</time>
      </trkpt>
      <trkpt lat="49.76445" lon="2.18821">
        <ele>82.4</ele>
        <time>2023-01-18T14:06:27Z</time>
      </trkpt>
      <trkpt lat="49.76446" lon="2.18822">
        <ele>82.4</ele>
        <time>2023-01-18T14:06:28Z</time>
      </trkpt>
      <trkpt lat="49.76447" lon="2.18823">
        <ele>82.5</ele>
        <time>2023-01-18T14:06:30Z</time>
      </trkpt>
      <trkpt lat="49.76448" lon="2.18824">
        <ele>82.6</ele>
        <time>2023-01-18T14:06:31Z</time>
      </trkpt>
      <trkpt lat="49.76448" lon="2.18825">
        <ele>82.6</ele>
        <time>2023-01-18T14:06:32Z</time>
      </trkpt>
      <trkpt lat="49.76449" lon="2.18826">
        <ele>82.7</ele>
        <time>2023-01-18T14:06:33Z</time>
      </trkpt>
      <trkpt lat="49.7645" lon="2.18826">
        <ele>82.7</ele>
        <time>2023-01-18T14:06:34Z</time>
      </trkpt>
      <trkpt lat="49.76451" lon="2.18827">
        <ele>82.8</ele>
        <time>2023-01-18T14:06:35Z</time>
      </trkpt>
      <trkpt lat="49.76452" lon="2.18828">
        <ele>82.9</ele>
        <time>2023-01-18T14:06:37Z</time>
      </trkpt>
      <trkpt lat="49.76453" lon="2.18829">
        <ele>83</ele>
        <time>2023-01-18T14:06:38Z</time>
      </trkpt>
      <trkpt lat="49.76454" lon="2.1883">
        <ele>83</ele>
        <time>2023-01-18T14:06:39Z</time>
      </trkpt>
      <trkpt lat="49.76455" lon="2.1883">
        <ele>83.1</ele>
        <time>2023-01-18T14:06:40Z</time>
      </trkpt>
      <trkpt lat="49.76456" lon="2.18832">
        <ele>83.2</ele>
        <time>2023-01-18T14:06:41Z</time>
      </trkpt>
      <trkpt lat="49.76457" lon="2.18832">
        <ele>83.2</ele>
        <time>2023-01-18T14:06:42Z</time>
      </trkpt>
      <trkpt lat="49.76458" lon="2.18833">
        <ele>83.3</ele>
        <time>2023-01-18T14:06:44Z</time>
      </trkpt>
      <trkpt lat="49.76459" lon="2.18834">
        <ele>83.4</ele>
        <time>2023-01-18T14:06:45Z</time>
      </trkpt>
      <trkpt lat="49.76461" lon="2.18836">
        <ele>83.5</ele>
        <time>2023-01-18T14:06:46Z</time>
      </trkpt>
      <trkpt lat="49.76462" lon="2.18836">
        <ele>83.5</ele>
        <time>2023-01-18T14:06:47Z</time>
      </trkpt>
      <trkpt lat="49.76463" lon="2.18838">
        <ele>83.6</ele>
        <time>2023-01-18T14:06:48Z</time>
      </trkpt>
      <trkpt lat="49.76464" lon="2.18839">
        <ele>83.7</ele>
        <time>2023-01-18T14:06:49Z</time>
      </trkpt>
      <trkpt lat="49.76465" lon="2.1884">
        <ele>83.8</ele>
        <time>2023-01-18T14:06:51Z</time>
      </trkpt>
      <trkpt lat="49.76466" lon="2.18841">
        <ele>83.8</ele>
        <time>2023-01-18T14:06:52Z</time>
      </trkpt>
      <trkpt lat="49.76468" lon="2.18843">
        <ele>84</ele>
        <time>2023-01-18T14:06:53Z</time>
      </trkpt>
      <trkpt lat="49.76469" lon="2.18843">
        <ele>84</ele>
        <time>2023-01-18T14:06:54Z</time>
      </trkpt>
      <trkpt lat="49.7647" lon="2.18844">
        <ele>84.1</ele>
        <time>2023-01-18T14:06:55Z</time>
      </trkpt>
      <trkpt lat="49.76472" lon="2.18845">
        <ele>84.2</ele>
        <time>2023-01-18T14:06:56Z</time>
      </trkpt>
      <trkpt lat="49.76473" lon="2.18846">
        <ele>84.3</ele>
        <time>2023-01-18T14:06:58Z</time>
      </trkpt>
      <trkpt lat="49.76474" lon="2.18847">
        <ele>84.3</ele>
        <time>2023-01-18T14:06:59Z</time>
      </trkpt>
      <trkpt lat="49.76475" lon="2.18847">
        <ele>84.4</ele>
        <time>2023-01-18T14:07:00Z</time>
      </trkpt>
      <trkpt lat="49.76476" lon="2.18848">
        <ele>84.4</ele>
        <time>2023-01-18T14:07:01Z</time>
      </trkpt>
      <trkpt lat="49.76477" lon="2.18849">
        <ele>84.5</ele>
        <time>2023-01-18T14:07:02Z</time>
      </trkpt>
      <trkpt lat="49.76478" lon="2.1885">
        <ele>84.6</ele>
        <time>2023-01-18T14:07:03Z</time>
      </trkpt>
      <trkpt lat="49.76479" lon="2.1885">
        <ele>84.6</ele>
        <time>2023-01-18T14:07:05Z</time>
      </trkpt>
      <trkpt lat="49.7648" lon="2.18851">
        <ele>84.6</ele>
        <time>2023-01-18T14:07:06Z</time>
      </trkpt>
      <trkpt lat="49.76481" lon="2.18851">
        <ele>84.7</ele>
        <time>2023-01-18T14:07:07Z</time>
      </trkpt>
      <trkpt lat="49.76482" lon="2.18852">
        <ele>84.8</ele>
        <time>2023-01-18T14:07:08Z</time>
      </trkpt>
      <trkpt lat="49.76483" lon="2.18852">
        <ele>84.9</ele>
        <time>2023-01-18T14:07:09Z</time>
      </trkpt>
      <trkpt lat="49.76484" lon="2.18852">
        <ele>84.9</ele>
        <time>2023-01-18T14:07:11Z</time>
      </trkpt>
      <trkpt lat="49.76486" lon="2.18853">
        <ele>85</ele>
        <time>2023-01-18T14:07:12Z</time>
      </trkpt>
      <trkpt lat="49.76487" lon="2.18853">
        <ele>85</ele>
        <time>2023-01-18T14:07:13Z</time>
      </trkpt>
      <trkpt lat="49.76488" lon="2.18853">
        <ele>85.1</ele>
        <time>2023-01-18T14:07:14Z</time>
      </trkpt>
      <trkpt lat="49.76489" lon="2.18854">
        <ele>85.2</ele>
        <time>2023-01-18T14:07:15Z</time>
      </trkpt>
      <trkpt lat="49.7649" lon="2.18855">
        <ele>85.2</ele>
        <time>2023-01-18T14:07:16Z</time>
      </trkpt>
      <trkpt lat="49.76491" lon="2.18855">
        <ele>85.3</ele>
        <time>2023-01-18T14:07:17Z</time>
      </trkpt>
      <trkpt lat="49.76492" lon="2.18856">
        <ele>85.3</ele>
        <time>2023-01-18T14:07:18Z</time>
      </trkpt>
      <trkpt lat="49.76493" lon="2.18856">
        <ele>85.4</ele>
        <time>2023-01-18T14:07:20Z</time>
      </trkpt>
      <trkpt lat="49.76494" lon="2.18857">
        <ele>85.5</ele>
        <time>2023-01-18T14:07:21Z</time>
      </trkpt>
      <trkpt lat="49.76495" lon="2.18858">
        <ele>85.5</ele>
        <time>2023-01-18T14:07:22Z</time>
      </trkpt>
      <trkpt lat="49.76496" lon="2.18858">
        <ele>85.6</ele>
        <time>2023-01-18T14:07:23Z</time>
      </trkpt>
      <trkpt lat="49.76497" lon="2.18859">
        <ele>85.6</ele>
        <time>2023-01-18T14:07:24Z</time>
      </trkpt>
      <trkpt lat="49.76498" lon="2.1886">
        <ele>85.7</ele>
        <time>2023-01-18T14:07:25Z</time>
      </trkpt>
      <trkpt lat="49.76499" lon="2.1886">
        <ele>85.8</ele>
        <time>2023-01-18T14:07:26Z</time>
      </trkpt>
      <trkpt lat="49.765" lon="2.18861">
        <ele>85.8</ele>
        <time>2023-01-18T14:07:28Z</time>
      </trkpt>
      <trkpt lat="49.76501" lon="2.18862">
        <ele>85.9</ele>
        <time>2023-01-18T14:07:29Z</time>
      </trkpt>
      <trkpt lat="49.76503" lon="2.18863">
        <ele>86</ele>
        <time>2023-01-18T14:07:30Z</time>
      </trkpt>
      <trkpt lat="49.76504" lon="2.18864">
        <ele>86.1</ele>
        <time>2023-01-18T14:07:31Z</time>
      </trkpt>
      <trkpt lat="49.76504" lon="2.18864">
        <ele>86.1</ele>
        <time>2023-01-18T14:07:32Z</time>
      </trkpt>
      <trkpt lat="49.76506" lon="2.18866">
        <ele>86.2</ele>
        <time>2023-01-18T14:07:33Z</time>
      </trkpt>
      <trkpt lat="49.76507" lon="2.18866">
        <ele>86.3</ele>
        <time>2023-01-18T14:07:34Z</time>
      </trkpt>
      <trkpt lat="49.76508" lon="2.18867">
        <ele>86.3</ele>
        <time>2023-01-18T14:07:36Z</time>
      </trkpt>
      <trkpt lat="49.76509" lon="2.18868">
        <ele>86.4</ele>
        <time>2023-01-18T14:07:37Z</time>
      </trkpt>
      <trkpt lat="49.7651" lon="2.18869">
        <ele>86.4</ele>
        <time>2023-01-18T14:07:38Z</time>
      </trkpt>
      <trkpt lat="49.7651" lon="2.1887">
        <ele>86.5</ele>
        <time>2023-01-18T14:07:39Z</time>
      </trkpt>
      <trkpt lat="49.76512" lon="2.18871">
        <ele>86.6</ele>
        <time>2023-01-18T14:07:40Z</time>
      </trkpt>
      <trkpt lat="49.76513" lon="2.18872">
        <ele>86.7</ele>
        <time>2023-01-18T14:07:41Z</time>
      </trkpt>
      <trkpt lat="49.76513" lon="2.18872">
        <ele>86.7</ele>
        <time>2023-01-18T14:07:42Z</time>
      </trkpt>
      <trkpt lat="49.76514" lon="2.18873">
        <ele>86.7</ele>
        <time>2023-01-18T14:07:44Z</time>
      </trkpt>
      <trkpt lat="49.76515" lon="2.18874">
        <ele>86.8</ele>
        <time>2023-01-18T14:07:45Z</time>
      </trkpt>
      <trkpt lat="49.76516" lon="2.18874">
        <ele>86.9</ele>
        <time>2023-01-18T14:07:46Z</time>
      </trkpt>
      <trkpt lat="49.76517" lon="2.18875">
        <ele>86.9</ele>
        <time>2023-01-18T14:07:47Z</time>
      </trkpt>
      <trkpt lat="49.76518" lon="2.18876">
        <ele>87</ele>
        <time>2023-01-18T14:07:48Z</time>
      </trkpt>
      <trkpt lat="49.76519" lon="2.18877">
        <ele>87</ele>
        <time>2023-01-18T14:07:49Z</time>
      </trkpt>
      <trkpt lat="49.7652" lon="2.18878">
        <ele>87.1</ele>
        <time>2023-01-18T14:07:51Z</time>
      </trkpt>
      <trkpt lat="49.76521" lon="2.18878">
        <ele>87.2</ele>
        <time>2023-01-18T14:07:52Z</time>
      </trkpt>
      <trkpt lat="49.76522" lon="2.18879">
        <ele>87.2</ele>
        <time>2023-01-18T14:07:53Z</time>
      </trkpt>
      <trkpt lat="49.76523" lon="2.18881">
        <ele>87.3</ele>
        <time>2023-01-18T14:07:54Z</time>
      </trkpt>
      <trkpt lat="49.76524" lon="2.18881">
        <ele>87.4</ele>
        <time>2023-01-18T14:07:55Z</time>
      </trkpt>
      <trkpt lat="49.76525" lon="2.18882">
        <ele>87.4</ele>
        <time>2023-01-18T14:07:56Z</time>
      </trkpt>
      <trkpt lat="49.76525" lon="2.18883">
        <ele>87.4</ele>
        <time>2023-01-18T14:07:57Z</time>
      </trkpt>
      <trkpt lat="49.76526" lon="2.18883">
        <ele>87.5</ele>
        <time>2023-01-18T14:07:59Z</time>
      </trkpt>
      <trkpt lat="49.76527" lon="2.18884">
        <ele>87.6</ele>
        <time>2023-01-18T14:08:00Z</time>
      </trkpt>
      <trkpt lat="49.76529" lon="2.18886">
        <ele>87.7</ele>
        <time>2023-01-18T14:08:01Z</time>
      </trkpt>
      <trkpt lat="49.7653" lon="2.18886">
        <ele>87.7</ele>
        <time>2023-01-18T14:08:02Z</time>
      </trkpt>
      <trkpt lat="49.76531" lon="2.18887">
        <ele>87.8</ele>
        <time>2023-01-18T14:08:03Z</time>
      </trkpt>
      <trkpt lat="49.76532" lon="2.18889">
        <ele>87.9</ele>
        <time>2023-01-18T14:08:04Z</time>
      </trkpt>
      <trkpt lat="49.76533" lon="2.18889">
        <ele>87.9</ele>
        <time>2023-01-18T14:08:06Z</time>
      </trkpt>
      <trkpt lat="49.76534" lon="2.1889">
        <ele>88</ele>
        <time>2023-01-18T14:08:07Z</time>
      </trkpt>
      <trkpt lat="49.76535" lon="2.18891">
        <ele>88</ele>
        <time>2023-01-18T14:08:08Z</time>
      </trkpt>
      <trkpt lat="49.76536" lon="2.18892">
        <ele>88.1</ele>
        <time>2023-01-18T14:08:09Z</time>
      </trkpt>
      <trkpt lat="49.76537" lon="2.18892">
        <ele>88.2</ele>
        <time>2023-01-18T14:08:10Z</time>
      </trkpt>
      <trkpt lat="49.76539" lon="2.18894">
        <ele>88.3</ele>
        <time>2023-01-18T14:08:11Z</time>
      </trkpt>
      <trkpt lat="49.76539" lon="2.18894">
        <ele>88.3</ele>
        <time>2023-01-18T14:08:13Z</time>
      </trkpt>
      <trkpt lat="49.7654" lon="2.18895">
        <ele>88.4</ele>
        <time>2023-01-18T14:08:14Z</time>
      </trkpt>
      <trkpt lat="49.76542" lon="2.18897">
        <ele>88.5</ele>
        <time>2023-01-18T14:08:15Z</time>
      </trkpt>
      <trkpt lat="49.76543" lon="2.18898">
        <ele>88.5</ele>
        <time>2023-01-18T14:08:16Z</time>
      </trkpt>
      <trkpt lat="49.76544" lon="2.18899">
        <ele>88.6</ele>
        <time>2023-01-18T14:08:17Z</time>
      </trkpt>
      <trkpt lat="49.76545" lon="2.189">
        <ele>88.7</ele>
        <time>2023-01-18T14:08:18Z</time>
      </trkpt>
      <trkpt lat="49.76546" lon="2.18901">
        <ele>88.7</ele>
        <time>2023-01-18T14:08:20Z</time>
      </trkpt>
      <trkpt lat="49.76547" lon="2.18902">
        <ele>88.8</ele>
        <time>2023-01-18T14:08:21Z</time>
      </trkpt>
      <trkpt lat="49.76549" lon="2.18904">
        <ele>88.9</ele>
        <time>2023-01-18T14:08:22Z</time>
      </trkpt>
      <trkpt lat="49.76549" lon="2.18904">
        <ele>88.9</ele>
        <time>2023-01-18T14:08:23Z</time>
      </trkpt>
      <trkpt lat="49.7655" lon="2.18905">
        <ele>89</ele>
        <time>2023-01-18T14:08:24Z</time>
      </trkpt>
      <trkpt lat="49.76551" lon="2.18906">
        <ele>89</ele>
        <time>2023-01-18T14:08:25Z</time>
      </trkpt>
      <trkpt lat="49.76553" lon="2.18907">
        <ele>89.1</ele>
        <time>2023-01-18T14:08:26Z</time>
      </trkpt>
      <trkpt lat="49.76553" lon="2.18907">
        <ele>89.2</ele>
        <time>2023-01-18T14:08:28Z</time>
      </trkpt>
      <trkpt lat="49.76554" lon="2.18908">
        <ele>89.2</ele>
        <time>2023-01-18T14:08:29Z</time>
      </trkpt>
      <trkpt lat="49.76556" lon="2.18909">
        <ele>89.3</ele>
        <time>2023-01-18T14:08:30Z</time>
      </trkpt>
      <trkpt lat="49.76557" lon="2.1891">
        <ele>89.4</ele>
        <time>2023-01-18T14:08:31Z</time>
      </trkpt>
      <trkpt lat="49.76558" lon="2.18911">
        <ele>89.4</ele>
        <time>2023-01-18T14:08:32Z</time>
      </trkpt>
      <trkpt lat="49.76559" lon="2.18912">
        <ele>89.5</ele>
        <time>2023-01-18T14:08:33Z</time>
      </trkpt>
      <trkpt lat="49.7656" lon="2.18913">
        <ele>89.5</ele>
        <time>2023-01-18T14:08:34Z</time>
      </trkpt>
      <trkpt lat="49.76561" lon="2.18913">
        <ele>89.6</ele>
        <time>2023-01-18T14:08:35Z</time>
      </trkpt>
      <trkpt lat="49.76562" lon="2.18915">
        <ele>89.7</ele>
        <time>2023-01-18T14:08:37Z</time>
      </trkpt>
      <trkpt lat="49.76563" lon="2.18915">
        <ele>89.7</ele>
        <time>2023-01-18T14:08:38Z</time>
      </trkpt>
      <trkpt lat="49.76564" lon="2.18916">
        <ele>89.8</ele>
        <time>2023-01-18T14:08:39Z</time>
      </trkpt>
      <trkpt lat="49.76565" lon="2.18917">
        <ele>89.8</ele>
        <time>2023-01-18T14:08:40Z</time>
      </trkpt>
      <trkpt lat="49.76566" lon="2.18918">
        <ele>89.9</ele>
        <time>2023-01-18T14:08:41Z</time>
      </trkpt>
      <trkpt lat="49.76567" lon="2.18919">
        <ele>89.9</ele>
        <time>2023-01-18T14:08:42Z</time>
      </trkpt>
      <trkpt lat="49.76568" lon="2.18919">
        <ele>90</ele>
        <time>2023-01-18T14:08:44Z</time>
      </trkpt>
      <trkpt lat="49.76569" lon="2.1892">
        <ele>90</ele>
        <time>2023-01-18T14:08:45Z</time>
      </trkpt>
      <trkpt lat="49.7657" lon="2.18921">
        <ele>90.1</ele>
        <time>2023-01-18T14:08:46Z</time>
      </trkpt>
      <trkpt lat="49.76571" lon="2.18921">
        <ele>90.1</ele>
        <time>2023-01-18T14:08:47Z</time>
      </trkpt>
      <trkpt lat="49.76572" lon="2.18922">
        <ele>90.2</ele>
        <time>2023-01-18T14:08:48Z</time>
      </trkpt>
      <trkpt lat="49.76573" lon="2.18923">
        <ele>90.2</ele>
        <time>2023-01-18T14:08:49Z</time>
      </trkpt>
      <trkpt lat="49.76574" lon="2.18925">
        <ele>90.3</ele>
        <time>2023-01-18T14:08:50Z</time>
      </trkpt>
      <trkpt lat="49.76576" lon="2.18927">
        <ele>90.4</ele>
        <time>2023-01-18T14:08:52Z</time>
      </trkpt>
      <trkpt lat="49.76577" lon="2.18927">
        <ele>90.4</ele>
        <time>2023-01-18T14:08:53Z</time>
      </trkpt>
      <trkpt lat="49.76577" lon="2.18928">
        <ele>90.4</ele>
        <time>2023-01-18T14:08:54Z</time>
      </trkpt>
      <trkpt lat="49.76579" lon="2.1893">
        <ele>90.5</ele>
        <time>2023-01-18T14:08:55Z</time>
      </trkpt>
      <trkpt lat="49.7658" lon="2.1893">
        <ele>90.6</ele>
        <time>2023-01-18T14:08:56Z</time>
      </trkpt>
      <trkpt lat="49.7658" lon="2.18931">
        <ele>90.6</ele>
        <time>2023-01-18T14:08:57Z</time>
      </trkpt>
      <trkpt lat="49.76581" lon="2.18932">
        <ele>90.6</ele>
        <time>2023-01-18T14:08:59Z</time>
      </trkpt>
      <trkpt lat="49.76582" lon="2.18933">
        <ele>90.7</ele>
        <time>2023-01-18T14:09:00Z</time>
      </trkpt>
      <trkpt lat="49.76583" lon="2.18933">
        <ele>90.7</ele>
        <time>2023-01-18T14:09:01Z</time>
      </trkpt>
      <trkpt lat="49.76584" lon="2.18934">
        <ele>90.8</ele>
        <time>2023-01-18T14:09:02Z</time>
      </trkpt>
      <trkpt lat="49.76585" lon="2.18935">
        <ele>90.8</ele>
        <time>2023-01-18T14:09:03Z</time>
      </trkpt>
      <trkpt lat="49.76586" lon="2.18936">
        <ele>90.9</ele>
        <time>2023-01-18T14:09:04Z</time>
      </trkpt>
      <trkpt lat="49.76587" lon="2.18937">
        <ele>90.9</ele>
        <time>2023-01-18T14:09:06Z</time>
      </trkpt>
      <trkpt lat="49.76588" lon="2.18938">
        <ele>91</ele>
        <time>2023-01-18T14:09:07Z</time>
      </trkpt>
      <trkpt lat="49.76589" lon="2.18939">
        <ele>91</ele>
        <time>2023-01-18T14:09:08Z</time>
      </trkpt>
      <trkpt lat="49.7659" lon="2.1894">
        <ele>91.1</ele>
        <time>2023-01-18T14:09:09Z</time>
      </trkpt>
      <trkpt lat="49.76591" lon="2.18941">
        <ele>91.1</ele>
        <time>2023-01-18T14:09:10Z</time>
      </trkpt>
      <trkpt lat="49.76592" lon="2.18942">
        <ele>91.2</ele>
        <time>2023-01-18T14:09:11Z</time>
      </trkpt>
      <trkpt lat="49.76593" lon="2.18943">
        <ele>91.2</ele>
        <time>2023-01-18T14:09:12Z</time>
      </trkpt>
      <trkpt lat="49.76594" lon="2.18944">
        <ele>91.3</ele>
        <time>2023-01-18T14:09:13Z</time>
      </trkpt>
      <trkpt lat="49.76595" lon="2.18946">
        <ele>91.3</ele>
        <time>2023-01-18T14:09:15Z</time>
      </trkpt>
      <trkpt lat="49.76596" lon="2.18946">
        <ele>91.4</ele>
        <time>2023-01-18T14:09:16Z</time>
      </trkpt>
      <trkpt lat="49.76597" lon="2.18947">
        <ele>91.4</ele>
        <time>2023-01-18T14:09:17Z</time>
      </trkpt>
      <trkpt lat="49.76598" lon="2.18948">
        <ele>91.5</ele>
        <time>2023-01-18T14:09:18Z</time>
      </trkpt>
      <trkpt lat="49.76599" lon="2.18949">
        <ele>91.5</ele>
        <time>2023-01-18T14:09:19Z</time>
      </trkpt>
      <trkpt lat="49.766" lon="2.18949">
        <ele>91.6</ele>
        <time>2023-01-18T14:09:20Z</time>
      </trkpt>
      <trkpt lat="49.76602" lon="2.1895">
        <ele>91.6</ele>
        <time>2023-01-18T14:09:22Z</time>
      </trkpt>
      <trkpt lat="49.76602" lon="2.18951">
        <ele>91.7</ele>
        <time>2023-01-18T14:09:23Z</time>
      </trkpt>
      <trkpt lat="49.76603" lon="2.18951">
        <ele>91.7</ele>
        <time>2023-01-18T14:09:24Z</time>
      </trkpt>
      <trkpt lat="49.76605" lon="2.18952">
        <ele>91.8</ele>
        <time>2023-01-18T14:09:25Z</time>
      </trkpt>
      <trkpt lat="49.76606" lon="2.18953">
        <ele>91.8</ele>
        <time>2023-01-18T14:09:26Z</time>
      </trkpt>
      <trkpt lat="49.76607" lon="2.18954">
        <ele>91.9</ele>
        <time>2023-01-18T14:09:27Z</time>
      </trkpt>
      <trkpt lat="49.76608" lon="2.18954">
        <ele>91.9</ele>
        <time>2023-01-18T14:09:28Z</time>
      </trkpt>
      <trkpt lat="49.76608" lon="2.18955">
        <ele>91.9</ele>
        <time>2023-01-18T14:09:29Z</time>
      </trkpt>
      <trkpt lat="49.76609" lon="2.18956">
        <ele>92</ele>
        <time>2023-01-18T14:09:31Z</time>
      </trkpt>
      <trkpt lat="49.76611" lon="2.18958">
        <ele>92</ele>
        <time>2023-01-18T14:09:32Z</time>
      </trkpt>
      <trkpt lat="49.76611" lon="2.18959">
        <ele>92.1</ele>
        <time>2023-01-18T14:09:33Z</time>
      </trkpt>
      <trkpt lat="49.76612" lon="2.1896">
        <ele>92.1</ele>
        <time>2023-01-18T14:09:34Z</time>
      </trkpt>
      <trkpt lat="49.76614" lon="2.18961">
        <ele>92.2</ele>
        <time>2023-01-18T14:09:35Z</time>
      </trkpt>
      <trkpt lat="49.76615" lon="2.18962">
        <ele>92.2</ele>
        <time>2023-01-18T14:09:36Z</time>
      </trkpt>
      <trkpt lat="49.76616" lon="2.18963">
        <ele>92.2</ele>
        <time>2023-01-18T14:09:37Z</time>
      </trkpt>
      <trkpt lat="49.76617" lon="2.18964">
        <ele>92.3</ele>
        <time>2023-01-18T14:09:39Z</time>
      </trkpt>
      <trkpt lat="49.76618" lon="2.18964">
        <ele>92.3</ele>
        <time>2023-01-18T14:09:40Z</time>
      </trkpt>
      <trkpt lat="49.76619" lon="2.18965">
        <ele>92.4</ele>
        <time>2023-01-18T14:09:41Z</time>
      </trkpt>
      <trkpt lat="49.76621" lon="2.18966">
        <ele>92.5</ele>
        <time>2023-01-18T14:09:42Z</time>
      </trkpt>
      <trkpt lat="49.76622" lon="2.18966">
        <ele>92.5</ele>
        <time>2023-01-18T14:09:43Z</time>
      </trkpt>
      <trkpt lat="49.76623" lon="2.18967">
        <ele>92.5</ele>
        <time>2023-01-18T14:09:44Z</time>
      </trkpt>
      <trkpt lat="49.76625" lon="2.18968">
        <ele>92.6</ele>
        <time>2023-01-18T14:09:45Z</time>
      </trkpt>
      <trkpt lat="49.76625" lon="2.18969">
        <ele>92.6</ele>
        <time>2023-01-18T14:09:47Z</time>
      </trkpt>
      <trkpt lat="49.76626" lon="2.1897">
        <ele>92.6</ele>
        <time>2023-01-18T14:09:48Z</time>
      </trkpt>
      <trkpt lat="49.76627" lon="2.18971">
        <ele>92.7</ele>
        <time>2023-01-18T14:09:49Z</time>
      </trkpt>
      <trkpt lat="49.76628" lon="2.18972">
        <ele>92.7</ele>
        <time>2023-01-18T14:09:50Z</time>
      </trkpt>
      <trkpt lat="49.76629" lon="2.18973">
        <ele>92.8</ele>
        <time>2023-01-18T14:09:51Z</time>
      </trkpt>
      <trkpt lat="49.7663" lon="2.18974">
        <ele>92.8</ele>
        <time>2023-01-18T14:09:52Z</time>
      </trkpt>
      <trkpt lat="49.76631" lon="2.18975">
        <ele>92.8</ele>
        <time>2023-01-18T14:09:53Z</time>
      </trkpt>
      <trkpt lat="49.76632" lon="2.18976">
        <ele>92.9</ele>
        <time>2023-01-18T14:09:54Z</time>
      </trkpt>
      <trkpt lat="49.76633" lon="2.18977">
        <ele>92.9</ele>
        <time>2023-01-18T14:09:56Z</time>
      </trkpt>
      <trkpt lat="49.76633" lon="2.18978">
        <ele>92.9</ele>
        <time>2023-01-18T14:09:57Z</time>
      </trkpt>
      <trkpt lat="49.76635" lon="2.18979">
        <ele>93</ele>
        <time>2023-01-18T14:09:58Z</time>
      </trkpt>
      <trkpt lat="49.76636" lon="2.1898">
        <ele>93</ele>
        <time>2023-01-18T14:09:59Z</time>
      </trkpt>
      <trkpt lat="49.76637" lon="2.18981">
        <ele>93.1</ele>
        <time>2023-01-18T14:10:00Z</time>
      </trkpt>
      <trkpt lat="49.76638" lon="2.18982">
        <ele>93.1</ele>
        <time>2023-01-18T14:10:01Z</time>
      </trkpt>
      <trkpt lat="49.76638" lon="2.18983">
        <ele>93.1</ele>
        <time>2023-01-18T14:10:03Z</time>
      </trkpt>
      <trkpt lat="49.76639" lon="2.18983">
        <ele>93.2</ele>
        <time>2023-01-18T14:10:04Z</time>
      </trkpt>
      <trkpt lat="49.7664" lon="2.18984">
        <ele>93.2</ele>
        <time>2023-01-18T14:10:05Z</time>
      </trkpt>
      <trkpt lat="49.76641" lon="2.18985">
        <ele>93.3</ele>
        <time>2023-01-18T14:10:06Z</time>
      </trkpt>
      <trkpt lat="49.76643" lon="2.18987">
        <ele>93.3</ele>
        <time>2023-01-18T14:10:07Z</time>
      </trkpt>
      <trkpt lat="49.76643" lon="2.18988">
        <ele>93.3</ele>
        <time>2023-01-18T14:10:08Z</time>
      </trkpt>
      <trkpt lat="49.76644" lon="2.18989">
        <ele>93.4</ele>
        <time>2023-01-18T14:10:09Z</time>
      </trkpt>
      <trkpt lat="49.76645" lon="2.18989">
        <ele>93.4</ele>
        <time>2023-01-18T14:10:11Z</time>
      </trkpt>
      <trkpt lat="49.76646" lon="2.1899">
        <ele>93.4</ele>
        <time>2023-01-18T14:10:12Z</time>
      </trkpt>
      <trkpt lat="49.76647" lon="2.18991">
        <ele>93.5</ele>
        <time>2023-01-18T14:10:13Z</time>
      </trkpt>
      <trkpt lat="49.76647" lon="2.18991">
        <ele>93.5</ele>
        <time>2023-01-18T14:10:14Z</time>
      </trkpt>
      <trkpt lat="49.76648" lon="2.18992">
        <ele>93.5</ele>
        <time>2023-01-18T14:10:15Z</time>
      </trkpt>
      <trkpt lat="49.76649" lon="2.18993">
        <ele>93.6</ele>
        <time>2023-01-18T14:10:16Z</time>
      </trkpt>
      <trkpt lat="49.76651" lon="2.18994">
        <ele>93.6</ele>
        <time>2023-01-18T14:10:17Z</time>
      </trkpt>
      <trkpt lat="49.76651" lon="2.18994">
        <ele>93.6</ele>
        <time>2023-01-18T14:10:19Z</time>
      </trkpt>
      <trkpt lat="49.76652" lon="2.18994">
        <ele>93.7</ele>
        <time>2023-01-18T14:10:20Z</time>
      </trkpt>
      <trkpt lat="49.76653" lon="2.18995">
        <ele>93.7</ele>
        <time>2023-01-18T14:10:21Z</time>
      </trkpt>
      <trkpt lat="49.76654" lon="2.18996">
        <ele>93.7</ele>
        <time>2023-01-18T14:10:22Z</time>
      </trkpt>
      <trkpt lat="49.76655" lon="2.18996">
        <ele>93.8</ele>
        <time>2023-01-18T14:10:23Z</time>
      </trkpt>
      <trkpt lat="49.76656" lon="2.18997">
        <ele>93.8</ele>
        <time>2023-01-18T14:10:24Z</time>
      </trkpt>
      <trkpt lat="49.76657" lon="2.18998">
        <ele>93.8</ele>
        <time>2023-01-18T14:10:25Z</time>
      </trkpt>
      <trkpt lat="49.76657" lon="2.18999">
        <ele>93.9</ele>
        <time>2023-01-18T14:10:26Z</time>
      </trkpt>
      <trkpt lat="49.76659" lon="2.19">
        <ele>93.9</ele>
        <time>2023-01-18T14:10:28Z</time>
      </trkpt>
      <trkpt lat="49.76659" lon="2.19">
        <ele>93.9</ele>
        <time>2023-01-18T14:10:29Z</time>
      </trkpt>
      <trkpt lat="49.76661" lon="2.19002">
        <ele>94</ele>
        <time>2023-01-18T14:10:30Z</time>
      </trkpt>
      <trkpt lat="49.76662" lon="2.19003">
        <ele>94</ele>
        <time>2023-01-18T14:10:31Z</time>
      </trkpt>
      <trkpt lat="49.76663" lon="2.19004">
        <ele>94.1</ele>
        <time>2023-01-18T14:10:32Z</time>
      </trkpt>
      <trkpt lat="49.76664" lon="2.19004">
        <ele>94.1</ele>
        <time>2023-01-18T14:10:33Z</time>
      </trkpt>
      <trkpt lat="49.76664" lon="2.19006">
        <ele>94.1</ele>
        <time>2023-01-18T14:10:35Z</time>
      </trkpt>
      <trkpt lat="49.76665" lon="2.19007">
        <ele>94.1</ele>
        <time>2023-01-18T14:10:36Z</time>
      </trkpt>
      <trkpt lat="49.76667" lon="2.19009">
        <ele>94.2</ele>
        <time>2023-01-18T14:10:37Z</time>
      </trkpt>
      <trkpt lat="49.76667" lon="2.1901">
        <ele>94.2</ele>
        <time>2023-01-18T14:10:38Z</time>
      </trkpt>
      <trkpt lat="49.76668" lon="2.1901">
        <ele>94.2</ele>
        <time>2023-01-18T14:10:39Z</time>
      </trkpt>
      <trkpt lat="49.7667" lon="2.19012">
        <ele>94.3</ele>
        <time>2023-01-18T14:10:40Z</time>
      </trkpt>
      <trkpt lat="49.76671" lon="2.19013">
        <ele>94.3</ele>
        <time>2023-01-18T14:10:41Z</time>
      </trkpt>
      <trkpt lat="49.76671" lon="2.19014">
        <ele>94.4</ele>
        <time>2023-01-18T14:10:42Z</time>
      </trkpt>
      <trkpt lat="49.76672" lon="2.19015">
        <ele>94.4</ele>
        <time>2023-01-18T14:10:44Z</time>
      </trkpt>
      <trkpt lat="49.76673" lon="2.19016">
        <ele>94.4</ele>
        <time>2023-01-18T14:10:45Z</time>
      </trkpt>
      <trkpt lat="49.76674" lon="2.19017">
        <ele>94.4</ele>
        <time>2023-01-18T14:10:46Z</time>
      </trkpt>
      <trkpt lat="49.76676" lon="2.19018">
        <ele>94.5</ele>
        <time>2023-01-18T14:10:47Z</time>
      </trkpt>
      <trkpt lat="49.76677" lon="2.19018">
        <ele>94.5</ele>
        <time>2023-01-18T14:10:48Z</time>
      </trkpt>
      <trkpt lat="49.76678" lon="2.19019">
        <ele>94.5</ele>
        <time>2023-01-18T14:10:49Z</time>
      </trkpt>
      <trkpt lat="49.7668" lon="2.1902">
        <ele>94.6</ele>
        <time>2023-01-18T14:10:51Z</time>
      </trkpt>
      <trkpt lat="49.7668" lon="2.19021">
        <ele>94.6</ele>
        <time>2023-01-18T14:10:52Z</time>
      </trkpt>
      <trkpt lat="49.76681" lon="2.19022">
        <ele>94.6</ele>
        <time>2023-01-18T14:10:53Z</time>
      </trkpt>
      <trkpt lat="49.76682" lon="2.19022">
        <ele>94.7</ele>
        <time>2023-01-18T14:10:54Z</time>
      </trkpt>
      <trkpt lat="49.76683" lon="2.19023">
        <ele>94.7</ele>
        <time>2023-01-18T14:10:55Z</time>
      </trkpt>
      <trkpt lat="49.76685" lon="2.19024">
        <ele>94.7</ele>
        <time>2023-01-18T14:10:56Z</time>
      </trkpt>
      <trkpt lat="49.76686" lon="2.19025">
        <ele>94.7</ele>
        <time>2023-01-18T14:10:58Z</time>
      </trkpt>
      <trkpt lat="49.76687" lon="2.19025">
        <ele>94.8</ele>
        <time>2023-01-18T14:10:59Z</time>
      </trkpt>
      <trkpt lat="49.76688" lon="2.19026">
        <ele>94.8</ele>
        <time>2023-01-18T14:11:00Z</time>
      </trkpt>
      <trkpt lat="49.76689" lon="2.19028">
        <ele>94.8</ele>
        <time>2023-01-18T14:11:01Z</time>
      </trkpt>
      <trkpt lat="49.7669" lon="2.19029">
        <ele>94.9</ele>
        <time>2023-01-18T14:11:02Z</time>
      </trkpt>
      <trkpt lat="49.76691" lon="2.1903">
        <ele>94.9</ele>
        <time>2023-01-18T14:11:03Z</time>
      </trkpt>
      <trkpt lat="49.76692" lon="2.19031">
        <ele>94.9</ele>
        <time>2023-01-18T14:11:04Z</time>
      </trkpt>
      <trkpt lat="49.76693" lon="2.19031">
        <ele>94.9</ele>
        <time>2023-01-18T14:11:05Z</time>
      </trkpt>
      <trkpt lat="49.76694" lon="2.19032">
        <ele>95</ele>
        <time>2023-01-18T14:11:06Z</time>
      </trkpt>
      <trkpt lat="49.76695" lon="2.19033">
        <ele>95</ele>
        <time>2023-01-18T14:11:08Z</time>
      </trkpt>
      <trkpt lat="49.76696" lon="2.19034">
        <ele>95</ele>
        <time>2023-01-18T14:11:09Z</time>
      </trkpt>
      <trkpt lat="49.76697" lon="2.19035">
        <ele>95.1</ele>
        <time>2023-01-18T14:11:10Z</time>
      </trkpt>
      <trkpt lat="49.76697" lon="2.19036">
        <ele>95.1</ele>
        <time>2023-01-18T14:11:11Z</time>
      </trkpt>
      <trkpt lat="49.76698" lon="2.19037">
        <ele>95.1</ele>
        <time>2023-01-18T14:11:12Z</time>
      </trkpt>
      <trkpt lat="49.767" lon="2.19038">
        <ele>95.1</ele>
        <time>2023-01-18T14:11:13Z</time>
      </trkpt>
      <trkpt lat="49.767" lon="2.19039">
        <ele>95.2</ele>
        <time>2023-01-18T14:11:14Z</time>
      </trkpt>
      <trkpt lat="49.76701" lon="2.1904">
        <ele>95.2</ele>
        <time>2023-01-18T14:11:16Z</time>
      </trkpt>
      <trkpt lat="49.76702" lon="2.19041">
        <ele>95.2</ele>
        <time>2023-01-18T14:11:17Z</time>
      </trkpt>
      <trkpt lat="49.76703" lon="2.19042">
        <ele>95.3</ele>
        <time>2023-01-18T14:11:18Z</time>
      </trkpt>
      <trkpt lat="49.76704" lon="2.19042">
        <ele>95.3</ele>
        <time>2023-01-18T14:11:19Z</time>
      </trkpt>
      <trkpt lat="49.76705" lon="2.19043">
        <ele>95.3</ele>
        <time>2023-01-18T14:11:20Z</time>
      </trkpt>
      <trkpt lat="49.76706" lon="2.19044">
        <ele>95.3</ele>
        <time>2023-01-18T14:11:21Z</time>
      </trkpt>
      <trkpt lat="49.76707" lon="2.19045">
        <ele>95.4</ele>
        <time>2023-01-18T14:11:22Z</time>
      </trkpt>
      <trkpt lat="49.76708" lon="2.19045">
        <ele>95.4</ele>
        <time>2023-01-18T14:11:23Z</time>
      </trkpt>
      <trkpt lat="49.76709" lon="2.19046">
        <ele>95.4</ele>
        <time>2023-01-18T14:11:25Z</time>
      </trkpt>
      <trkpt lat="49.7671" lon="2.19047">
        <ele>95.4</ele>
        <time>2023-01-18T14:11:26Z</time>
      </trkpt>
      <trkpt lat="49.76711" lon="2.19048">
        <ele>95.5</ele>
        <time>2023-01-18T14:11:27Z</time>
      </trkpt>
      <trkpt lat="49.76713" lon="2.19049">
        <ele>95.5</ele>
        <time>2023-01-18T14:11:28Z</time>
      </trkpt>
      <trkpt lat="49.76714" lon="2.1905">
        <ele>95.5</ele>
        <time>2023-01-18T14:11:29Z</time>
      </trkpt>
      <trkpt lat="49.76714" lon="2.19051">
        <ele>95.6</ele>
        <time>2023-01-18T14:11:30Z</time>
      </trkpt>
      <trkpt lat="49.76715" lon="2.19051">
        <ele>95.6</ele>
        <time>2023-01-18T14:11:31Z</time>
      </trkpt>
      <trkpt lat="49.76717" lon="2.19052">
        <ele>95.6</ele>
        <time>2023-01-18T14:11:33Z</time>
      </trkpt>
      <trkpt lat="49.76718" lon="2.19053">
        <ele>95.6</ele>
        <time>2023-01-18T14:11:34Z</time>
      </trkpt>
      <trkpt lat="49.76719" lon="2.19054">
        <ele>95.7</ele>
        <time>2023-01-18T14:11:35Z</time>
      </trkpt>
      <trkpt lat="49.7672" lon="2.19055">
        <ele>95.7</ele>
        <time>2023-01-18T14:11:36Z</time>
      </trkpt>
      <trkpt lat="49.76721" lon="2.19056">
        <ele>95.7</ele>
        <time>2023-01-18T14:11:37Z</time>
      </trkpt>
      <trkpt lat="49.76722" lon="2.19057">
        <ele>95.8</ele>
        <time>2023-01-18T14:11:38Z</time>
      </trkpt>
      <trkpt lat="49.76723" lon="2.19058">
        <ele>95.8</ele>
        <time>2023-01-18T14:11:39Z</time>
      </trkpt>
      <trkpt lat="49.76724" lon="2.19059">
        <ele>95.8</ele>
        <time>2023-01-18T14:11:41Z</time>
      </trkpt>
      <trkpt lat="49.76725" lon="2.1906">
        <ele>95.8</ele>
        <time>2023-01-18T14:11:42Z</time>
      </trkpt>
      <trkpt lat="49.76726" lon="2.19061">
        <ele>95.9</ele>
        <time>2023-01-18T14:11:43Z</time>
      </trkpt>
      <trkpt lat="49.76727" lon="2.19062">
        <ele>95.9</ele>
        <time>2023-01-18T14:11:44Z</time>
      </trkpt>
      <trkpt lat="49.76728" lon="2.19063">
        <ele>95.9</ele>
        <time>2023-01-18T14:11:45Z</time>
      </trkpt>
      <trkpt lat="49.7673" lon="2.19064">
        <ele>96</ele>
        <time>2023-01-18T14:11:46Z</time>
      </trkpt>
      <trkpt lat="49.7673" lon="2.19065">
        <ele>96</ele>
        <time>2023-01-18T14:11:47Z</time>
      </trkpt>
      <trkpt lat="49.76732" lon="2.19066">
        <ele>96</ele>
        <time>2023-01-18T14:11:49Z</time>
      </trkpt>
      <trkpt lat="49.76733" lon="2.19067">
        <ele>96.1</ele>
        <time>2023-01-18T14:11:50Z</time>
      </trkpt>
      <trkpt lat="49.76734" lon="2.19069">
        <ele>96.1</ele>
        <time>2023-01-18T14:11:51Z</time>
      </trkpt>
      <trkpt lat="49.76735" lon="2.1907">
        <ele>96.1</ele>
        <time>2023-01-18T14:11:52Z</time>
      </trkpt>
      <trkpt lat="49.76736" lon="2.1907">
        <ele>96.2</ele>
        <time>2023-01-18T14:11:53Z</time>
      </trkpt>
      <trkpt lat="49.76737" lon="2.19071">
        <ele>96.2</ele>
        <time>2023-01-18T14:11:54Z</time>
      </trkpt>
      <trkpt lat="49.76737" lon="2.19072">
        <ele>96.2</ele>
        <time>2023-01-18T14:11:56Z</time>
      </trkpt>
      <trkpt lat="49.76738" lon="2.19073">
        <ele>96.2</ele>
        <time>2023-01-18T14:11:57Z</time>
      </trkpt>
      <trkpt lat="49.7674" lon="2.19075">
        <ele>96.3</ele>
        <time>2023-01-18T14:11:58Z</time>
      </trkpt>
      <trkpt lat="49.76741" lon="2.19076">
        <ele>96.3</ele>
        <time>2023-01-18T14:11:59Z</time>
      </trkpt>
      <trkpt lat="49.76741" lon="2.19077">
        <ele>96.3</ele>
        <time>2023-01-18T14:12:00Z</time>
      </trkpt>
      <trkpt lat="49.76742" lon="2.19078">
        <ele>96.3</ele>
        <time>2023-01-18T14:12:01Z</time>
      </trkpt>
      <trkpt lat="49.76743" lon="2.19079">
        <ele>96.4</ele>
        <time>2023-01-18T14:12:03Z</time>
      </trkpt>
      <trkpt lat="49.76744" lon="2.1908">
        <ele>96.4</ele>
        <time>2023-01-18T14:12:04Z</time>
      </trkpt>
      <trkpt lat="49.76745" lon="2.19081">
        <ele>96.4</ele>
        <time>2023-01-18T14:12:05Z</time>
      </trkpt>
      <trkpt lat="49.76745" lon="2.19082">
        <ele>96.4</ele>
        <time>2023-01-18T14:12:06Z</time>
      </trkpt>
      <trkpt lat="49.76746" lon="2.19083">
        <ele>96.5</ele>
        <time>2023-01-18T14:12:07Z</time>
      </trkpt>
      <trkpt lat="49.76748" lon="2.19084">
        <ele>96.5</ele>
        <time>2023-01-18T14:12:08Z</time>
      </trkpt>
      <trkpt lat="49.76749" lon="2.19085">
        <ele>96.5</ele>
        <time>2023-01-18T14:12:09Z</time>
      </trkpt>
      <trkpt lat="49.7675" lon="2.19085">
        <ele>96.6</ele>
        <time>2023-01-18T14:12:11Z</time>
      </trkpt>
      <trkpt lat="49.76751" lon="2.19086">
        <ele>96.6</ele>
        <time>2023-01-18T14:12:12Z</time>
      </trkpt>
      <trkpt lat="49.76751" lon="2.19088">
        <ele>96.6</ele>
        <time>2023-01-18T14:12:13Z</time>
      </trkpt>
      <trkpt lat="49.76752" lon="2.19089">
        <ele>96.6</ele>
        <time>2023-01-18T14:12:14Z</time>
      </trkpt>
      <trkpt lat="49.76753" lon="2.19091">
        <ele>96.7</ele>
        <time>2023-01-18T14:12:15Z</time>
      </trkpt>
      <trkpt lat="49.76754" lon="2.19092">
        <ele>96.7</ele>
        <time>2023-01-18T14:12:16Z</time>
      </trkpt>
      <trkpt lat="49.76755" lon="2.19092">
        <ele>96.7</ele>
        <time>2023-01-18T14:12:18Z</time>
      </trkpt>
      <trkpt lat="49.76756" lon="2.19093">
        <ele>96.8</ele>
        <time>2023-01-18T14:12:19Z</time>
      </trkpt>
      <trkpt lat="49.76757" lon="2.19094">
        <ele>96.8</ele>
        <time>2023-01-18T14:12:20Z</time>
      </trkpt>
      <trkpt lat="49.76757" lon="2.19095">
        <ele>96.8</ele>
        <time>2023-01-18T14:12:21Z</time>
      </trkpt>
      <trkpt lat="49.76758" lon="2.19096">
        <ele>96.8</ele>
        <time>2023-01-18T14:12:22Z</time>
      </trkpt>
      <trkpt lat="49.7676" lon="2.19096">
        <ele>96.9</ele>
        <time>2023-01-18T14:12:23Z</time>
      </trkpt>
      <trkpt lat="49.7676" lon="2.19097">
        <ele>96.9</ele>
        <time>2023-01-18T14:12:24Z</time>
      </trkpt>
      <trkpt lat="49.76761" lon="2.19099">
        <ele>96.9</ele>
        <time>2023-01-18T14:12:26Z</time>
      </trkpt>
      <trkpt lat="49.76761" lon="2.191">
        <ele>96.9</ele>
        <time>2023-01-18T14:12:27Z</time>
      </trkpt>
      <trkpt lat="49.76761" lon="2.19102">
        <ele>96.9</ele>
        <time>2023-01-18T14:12:28Z</time>
      </trkpt>
      <trkpt lat="49.76759" lon="2.19103">
        <ele>96.9</ele>
        <time>2023-01-18T14:12:29Z</time>
      </trkpt>
      <trkpt lat="49.76758" lon="2.19105">
        <ele>96.9</ele>
        <time>2023-01-18T14:12:30Z</time>
      </trkpt>
      <trkpt lat="49.76757" lon="2.19106">
        <ele>96.9</ele>
        <time>2023-01-18T14:12:32Z</time>
      </trkpt>
      <trkpt lat="49.76757" lon="2.19106">
        <ele>96.9</ele>
        <time>2023-01-18T14:12:34Z</time>
      </trkpt>
      <trkpt lat="49.76757" lon="2.19106">
        <ele>96.9</ele>
        <time>2023-01-18T14:12:35Z</time>
      </trkpt>
      <trkpt lat="49.76757" lon="2.19106">
        <ele>96.9</ele>
        <time>2023-01-18T14:12:37Z</time>
      </trkpt>
      <trkpt lat="49.76757" lon="2.19106">
        <ele>96.9</ele>
        <time>2023-01-18T14:12:38Z</time>
      </trkpt>
      <trkpt lat="49.76757" lon="2.19106">
        <ele>96.9</ele>
        <time>2023-01-18T14:12:40Z</time>
      </trkpt>
      <trkpt lat="49.76757" lon="2.19106">
        <ele>96.9</ele>
        <time>2023-01-18T14:12:41Z</time>
      </trkpt>
      <trkpt lat="49.76757" lon="2.19106">
        <ele>96.9</ele>
        <time>2023-01-18T14:12:42Z</time>
      </trkpt>
      <trkpt lat="49.76757" lon="2.19106">
        <ele>96.9</ele>
        <time>2023-01-18T14:12:44Z</time>
      </trkpt>
      <trkpt lat="49.76757" lon="2.19105">
        <ele>96.9</ele>
        <time>2023-01-18T14:12:45Z</time>
      </trkpt>
      <trkpt lat="49.76757" lon="2.19105">
        <ele>96.9</ele>
        <time>2023-01-18T14:12:47Z</time>
      </trkpt>
      <trkpt lat="49.76757" lon="2.19105">
        <ele>96.9</ele>
        <time>2023-01-18T14:12:48Z</time>
      </trkpt>
      <trkpt lat="49.76757" lon="2.19105">
        <ele>96.9</ele>
        <time>2023-01-18T14:12:50Z</time>
      </trkpt>
      <trkpt lat="49.76757" lon="2.19105">
        <ele>96.9</ele>
        <time>2023-01-18T14:12:51Z</time>
      </trkpt>
      <trkpt lat="49.76757" lon="2.19105">
        <ele>96.9</ele>
        <time>2023-01-18T14:12:52Z</time>
      </trkpt>
      <trkpt lat="49.76757" lon="2.19105">
        <ele>96.9</ele>
        <time>2023-01-18T14:12:53Z</time>
      </trkpt>
      <trkpt lat="49.76757" lon="2.19105">
        <ele>96.9</ele>
        <time>2023-01-18T14:12:54Z</time>
      </trkpt>
      <trkpt lat="49.76757" lon="2.19105">
        <ele>96.9</ele>
        <time>2023-01-18T14:12:55Z</time>
      </trkpt>
      <trkpt lat="49.76757" lon="2.19105">
        <ele>96.9</ele>
        <time>2023-01-18T14:12:56Z</time>
      </trkpt>
      <trkpt lat="49.76757" lon="2.19105">
        <ele>96.9</ele>
        <time>2023-01-18T14:12:57Z</time>
      </trkpt>
      <trkpt lat="49.76758" lon="2.19105">
        <ele>96.9</ele>
        <time>2023-01-18T14:12:58Z</time>
      </trkpt>
      <trkpt lat="49.76758" lon="2.19105">
        <ele>96.9</ele>
        <time>2023-01-18T14:12:59Z</time>
      </trkpt>
      <trkpt lat="49.76758" lon="2.19105">
        <ele>96.9</ele>
        <time>2023-01-18T14:13:00Z</time>
      </trkpt>
      <trkpt lat="49.76758" lon="2.19105">
        <ele>96.9</ele>
        <time>2023-01-18T14:13:01Z</time>
      </trkpt>
      <trkpt lat="49.76758" lon="2.19105">
        <ele>96.9</ele>
        <time>2023-01-18T14:13:02Z</time>
      </trkpt>
      <trkpt lat="49.76758" lon="2.19104">
        <ele>96.9</ele>
        <time>2023-01-18T14:13:03Z</time>
      </trkpt>
      <trkpt lat="49.76758" lon="2.19104">
        <ele>96.9</ele>
        <time>2023-01-18T14:13:04Z</time>
      </trkpt>
      <trkpt lat="49.76758" lon="2.19104">
        <ele>96.9</ele>
        <time>2023-01-18T14:13:05Z</time>
      </trkpt>
      <trkpt lat="49.76758" lon="2.19104">
        <ele>96.9</ele>
        <time>2023-01-18T14:13:06Z</time>
      </trkpt>
      <trkpt lat="49.76758" lon="2.19104">
        <ele>96.9</ele>
        <time>2023-01-18T14:13:07Z</time>
      </trkpt>
      <trkpt lat="49.76758" lon="2.19104">
        <ele>96.9</ele>
        <time>2023-01-18T14:13:08Z</time>
      </trkpt>
      <trkpt lat="49.76758" lon="2.19104">
        <ele>96.9</ele>
        <time>2023-01-18T14:13:09Z</time>
      </trkpt>
      <trkpt lat="49.76758" lon="2.19104">
        <ele>96.9</ele>
        <time>2023-01-18T14:13:10Z</time>
      </trkpt>
      <trkpt lat="49.76758" lon="2.19104">
        <ele>96.9</ele>
        <time>2023-01-18T14:13:11Z</time>
      </trkpt>
      <trkpt lat="49.76758" lon="2.19104">
        <ele>96.9</ele>
        <time>2023-01-18T14:13:12Z</time>
      </trkpt>
      <trkpt lat="49.76758" lon="2.19104">
        <ele>96.9</ele>
        <time>2023-01-18T14:13:13Z</time>
      </trkpt>
      <trkpt lat="49.76758" lon="2.19104">
        <ele>96.9</ele>
        <time>2023-01-18T14:13:14Z</time>
      </trkpt>
      <trkpt lat="49.76758" lon="2.19104">
        <ele>96.9</ele>
        <time>2023-01-18T14:13:15Z</time>
      </trkpt>
      <trkpt lat="49.76758" lon="2.19104">
        <ele>96.9</ele>
        <time>2023-01-18T14:13:16Z</time>
      </trkpt>
      <trkpt lat="49.76758" lon="2.19104">
        <ele>96.9</ele>
        <time>2023-01-18T14:13:17Z</time>
      </trkpt>
      <trkpt lat="49.76758" lon="2.19104">
        <ele>96.9</ele>
        <time>2023-01-18T14:13:18Z</time>
      </trkpt>
      <trkpt lat="49.76758" lon="2.19103">
        <ele>96.9</ele>
        <time>2023-01-18T14:13:19Z</time>
      </trkpt>
      <trkpt lat="49.76758" lon="2.19103">
        <ele>96.9</ele>
        <time>2023-01-18T14:13:20Z</time>
      </trkpt>
      <trkpt lat="49.76758" lon="2.19103">
        <ele>96.9</ele>
        <time>2023-01-18T14:13:21Z</time>
      </trkpt>
      <trkpt lat="49.76758" lon="2.19103">
        <ele>96.9</ele>
        <time>2023-01-18T14:13:22Z</time>
      </trkpt>
      <trkpt lat="49.76758" lon="2.19103">
        <ele>96.9</ele>
        <time>2023-01-18T14:13:23Z</time>
      </trkpt>
      <trkpt lat="49.76758" lon="2.19103">
        <ele>96.9</ele>
        <time>2023-01-18T14:13:24Z</time>
      </trkpt>
      <trkpt lat="49.76758" lon="2.19103">
        <ele>96.9</ele>
        <time>2023-01-18T14:13:25Z</time>
      </trkpt>
      <trkpt lat="49.76758" lon="2.19103">
        <ele>96.9</ele>
        <time>2023-01-18T14:13:26Z</time>
      </trkpt>
      <trkpt lat="49.76758" lon="2.19103">
        <ele>96.9</ele>
        <time>2023-01-18T14:13:27Z</time>
      </trkpt>
      <trkpt lat="49.76758" lon="2.19103">
        <ele>96.9</ele>
        <time>2023-01-18T14:13:28Z</time>
      </trkpt>
      <trkpt lat="49.76758" lon="2.19103">
        <ele>96.9</ele>
        <time>2023-01-18T14:13:29Z</time>
      </trkpt>
      <trkpt lat="49.76758" lon="2.19103">
        <ele>96.9</ele>
        <time>2023-01-18T14:13:30Z</time>
      </trkpt>
      <trkpt lat="49.76758" lon="2.19103">
        <ele>96.9</ele>
        <time>2023-01-18T14:13:31Z</time>
      </trkpt>
      <trkpt lat="49.76758" lon="2.19103">
        <ele>96.9</ele>
        <time>2023-01-18T14:13:32Z</time>
      </trkpt>
      <trkpt lat="49.76758" lon="2.19103">
        <ele>96.9</ele>
        <time>2023-01-18T14:13:33Z</time>
      </trkpt>
      <trkpt lat="49.76758" lon="2.19103">
        <ele>96.9</ele>
        <time>2023-01-18T14:13:34Z</time>
      </trkpt>
      <trkpt lat="49.76758" lon="2.19102">
        <ele>96.9</ele>
        <time>2023-01-18T14:13:35Z</time>
      </trkpt>
      <trkpt lat="49.76758" lon="2.19102">
        <ele>96.9</ele>
        <time>2023-01-18T14:13:36Z</time>
      </trkpt>
      <trkpt lat="49.76758" lon="2.19102">
        <ele>96.9</ele>
        <time>2023-01-18T14:13:37Z</time>
      </trkpt>
      <trkpt lat="49.76758" lon="2.19102">
        <ele>96.9</ele>
        <time>2023-01-18T14:13:38Z</time>
      </trkpt>
      <trkpt lat="49.76758" lon="2.19102">
        <ele>96.9</ele>
        <time>2023-01-18T14:13:39Z</time>
      </trkpt>
      <trkpt lat="49.76758" lon="2.19102">
        <ele>96.9</ele>
        <time>2023-01-18T14:13:40Z</time>
      </trkpt>
      <trkpt lat="49.76758" lon="2.19102">
        <ele>96.9</ele>
        <time>2023-01-18T14:13:41Z</time>
      </trkpt>
      <trkpt lat="49.76758" lon="2.19102">
        <ele>96.9</ele>
        <time>2023-01-18T14:13:42Z</time>
      </trkpt>
      <trkpt lat="49.76758" lon="2.19102">
        <ele>96.9</ele>
        <time>2023-01-18T14:13:43Z</time>
      </trkpt>
      <trkpt lat="49.76758" lon="2.19102">
        <ele>96.9</ele>
        <time>2023-01-18T14:13:44Z</time>
      </trkpt>
      <trkpt lat="49.76758" lon="2.19102">
        <ele>96.9</ele>
        <time>2023-01-18T14:13:45Z</time>
      </trkpt>
      <trkpt lat="49.76758" lon="2.19102">
        <ele>96.9</ele>
        <time>2023-01-18T14:13:46Z</time>
      </trkpt>
      <trkpt lat="49.76759" lon="2.19102">
        <ele>96.9</ele>
        <time>2023-01-18T14:13:47Z</time>
      </trkpt>
      <trkpt lat="49.76759" lon="2.19102">
        <ele>96.9</ele>
        <time>2023-01-18T14:13:48Z</time>
      </trkpt>
      <trkpt lat="49.76759" lon="2.19102">
        <ele>96.9</ele>
        <time>2023-01-18T14:13:49Z</time>
      </trkpt>
      <trkpt lat="49.76759" lon="2.19102">
        <ele>96.9</ele>
        <time>2023-01-18T14:13:50Z</time>
      </trkpt>
      <trkpt lat="49.76759" lon="2.19101">
        <ele>96.9</ele>
        <time>2023-01-18T14:13:51Z</time>
      </trkpt>
      <trkpt lat="49.76759" lon="2.19101">
        <ele>96.9</ele>
        <time>2023-01-18T14:13:52Z</time>
      </trkpt>
      <trkpt lat="49.76759" lon="2.19101">
        <ele>96.9</ele>
        <time>2023-01-18T14:13:53Z</time>
      </trkpt>
      <trkpt lat="49.76759" lon="2.19101">
        <ele>96.9</ele>
        <time>2023-01-18T14:13:54Z</time>
      </trkpt>
      <trkpt lat="49.76759" lon="2.19101">
        <ele>96.9</ele>
        <time>2023-01-18T14:13:55Z</time>
      </trkpt>
      <trkpt lat="49.76759" lon="2.19101">
        <ele>96.9</ele>
        <time>2023-01-18T14:13:56Z</time>
      </trkpt>
      <trkpt lat="49.76759" lon="2.19101">
        <ele>96.9</ele>
        <time>2023-01-18T14:13:57Z</time>
      </trkpt>
      <trkpt lat="49.76759" lon="2.19101">
        <ele>96.9</ele>
        <time>2023-01-18T14:13:58Z</time>
      </trkpt>
      <trkpt lat="49.76759" lon="2.19101">
        <ele>96.9</ele>
        <time>2023-01-18T14:13:59Z</time>
      </trkpt>
      <trkpt lat="49.76759" lon="2.19101">
        <ele>96.9</ele>
        <time>2023-01-18T14:14:00Z</time>
      </trkpt>
      <trkpt lat="49.76759" lon="2.19101">
        <ele>96.9</ele>
        <time>2023-01-18T14:14:01Z</time>
      </trkpt>
      <trkpt lat="49.76759" lon="2.19101">
        <ele>96.9</ele>
        <time>2023-01-18T14:14:02Z</time>
      </trkpt>
      <trkpt lat="49.76759" lon="2.19101">
        <ele>96.9</ele>
        <time>2023-01-18T14:14:03Z</time>
      </trkpt>
      <trkpt lat="49.76759" lon="2.19101">
        <ele>96.9</ele>
        <time>2023-01-18T14:14:04Z</time>
      </trkpt>
      <trkpt lat="49.76759" lon="2.19101">
        <ele>96.9</ele>
        <time>2023-01-18T14:14:05Z</time>
      </trkpt>
      <trkpt lat="49.76759" lon="2.19101">
        <ele>96.9</ele>
        <time>2023-01-18T14:14:06Z</time>
      </trkpt>
      <trkpt lat="49.76759" lon="2.191">
        <ele>96.9</ele>
        <time>2023-01-18T14:14:07Z</time>
      </trkpt>
      <trkpt lat="49.76759" lon="2.191">
        <ele>96.9</ele>
        <time>2023-01-18T14:14:08Z</time>
      </trkpt>
      <trkpt lat="49.76759" lon="2.191">
        <ele>96.9</ele>
        <time>2023-01-18T14:14:09Z</time>
      </trkpt>
      <trkpt lat="49.76759" lon="2.191">
        <ele>96.9</ele>
        <time>2023-01-18T14:14:10Z</time>
      </trkpt>
      <trkpt lat="49.76759" lon="2.191">
        <ele>96.9</ele>
        <time>2023-01-18T14:14:11Z</time>
      </trkpt>
      <trkpt lat="49.76759" lon="2.191">
        <ele>96.9</ele>
        <time>2023-01-18T14:14:12Z</time>
      </trkpt>
      <trkpt lat="49.76759" lon="2.191">
        <ele>96.9</ele>
        <time>2023-01-18T14:14:13Z</time>
      </trkpt>
      <trkpt lat="49.76759" lon="2.191">
        <ele>96.9</ele>
        <time>2023-01-18T14:14:14Z</time>
      </trkpt>
      <trkpt lat="49.76759" lon="2.191">
        <ele>96.9</ele>
        <time>2023-01-18T14:14:15Z</time>
      </trkpt>
      <trkpt lat="49.76759" lon="2.191">
        <ele>96.9</ele>
        <time>2023-01-18T14:14:16Z</time>
      </trkpt>
      <trkpt lat="49.76759" lon="2.191">
        <ele>96.9</ele>
        <time>2023-01-18T14:14:17Z</time>
      </trkpt>
      <trkpt lat="49.76759" lon="2.191">
        <ele>96.9</ele>
        <time>2023-01-18T14:14:18Z</time>
      </trkpt>
      <trkpt lat="49.76759" lon="2.191">
        <ele>96.9</ele>
        <time>2023-01-18T14:14:19Z</time>
      </trkpt>
      <trkpt lat="49.76759" lon="2.191">
        <ele>96.9</ele>
        <time>2023-01-18T14:14:20Z</time>
      </trkpt>
      <trkpt lat="49.76759" lon="2.191">
        <ele>96.9</ele>
        <time>2023-01-18T14:14:21Z</time>
      </trkpt>
      <trkpt lat="49.76759" lon="2.191">
        <ele>96.9</ele>
        <time>2023-01-18T14:14:22Z</time>
      </trkpt>
      <trkpt lat="49.76759" lon="2.19099">
        <ele>96.9</ele>
        <time>2023-01-18T14:14:23Z</time>
      </trkpt>
      <trkpt lat="49.76759" lon="2.19099">
        <ele>96.9</ele>
        <time>2023-01-18T14:14:24Z</time>
      </trkpt>
      <trkpt lat="49.76759" lon="2.19099">
        <ele>96.9</ele>
        <time>2023-01-18T14:14:25Z</time>
      </trkpt>
      <trkpt lat="49.76759" lon="2.19099">
        <ele>96.9</ele>
        <time>2023-01-18T14:14:26Z</time>
      </trkpt>
      <trkpt lat="49.76759" lon="2.19099">
        <ele>96.9</ele>
        <time>2023-01-18T14:14:27Z</time>
      </trkpt>
      <trkpt lat="49.76759" lon="2.19099">
        <ele>96.9</ele>
        <time>2023-01-18T14:14:29Z</time>
      </trkpt>
      <trkpt lat="49.76759" lon="2.19099">
        <ele>96.9</ele>
        <time>2023-01-18T14:14:30Z</time>
      </trkpt>
      <trkpt lat="49.76759" lon="2.19099">
        <ele>96.9</ele>
        <time>2023-01-18T14:14:32Z</time>
      </trkpt>
      <trkpt lat="49.76759" lon="2.19099">
        <ele>96.9</ele>
        <time>2023-01-18T14:14:33Z</time>
      </trkpt>
      <trkpt lat="49.76761" lon="2.19098">
        <ele>96.9</ele>
        <time>2023-01-18T14:14:34Z</time>
      </trkpt>
      <trkpt lat="49.76761" lon="2.19097">
        <ele>96.9</ele>
        <time>2023-01-18T14:14:35Z</time>
      </trkpt>
      <trkpt lat="49.76762" lon="2.19096">
        <ele>96.9</ele>
        <time>2023-01-18T14:14:36Z</time>
      </trkpt>
      <trkpt lat="49.76763" lon="2.19094">
        <ele>96.8</ele>
        <time>2023-01-18T14:14:37Z</time>
      </trkpt>
      <trkpt lat="49.76764" lon="2.19092">
        <ele>96.8</ele>
        <time>2023-01-18T14:14:39Z</time>
      </trkpt>
      <trkpt lat="49.76765" lon="2.1909">
        <ele>96.8</ele>
        <time>2023-01-18T14:14:40Z</time>
      </trkpt>
      <trkpt lat="49.76765" lon="2.19088">
        <ele>96.8</ele>
        <time>2023-01-18T14:14:41Z</time>
      </trkpt>
      <trkpt lat="49.76765" lon="2.19087">
        <ele>96.8</ele>
        <time>2023-01-18T14:14:42Z</time>
      </trkpt>
      <trkpt lat="49.76766" lon="2.19086">
        <ele>96.8</ele>
        <time>2023-01-18T14:14:44Z</time>
      </trkpt>
      <trkpt lat="49.76767" lon="2.19085">
        <ele>96.8</ele>
        <time>2023-01-18T14:14:45Z</time>
      </trkpt>
      <trkpt lat="49.76768" lon="2.19084">
        <ele>96.8</ele>
        <time>2023-01-18T14:14:46Z</time>
      </trkpt>
      <trkpt lat="49.76769" lon="2.19083">
        <ele>96.8</ele>
        <time>2023-01-18T14:14:47Z</time>
      </trkpt>
      <trkpt lat="49.7677" lon="2.19082">
        <ele>96.7</ele>
        <time>2023-01-18T14:14:48Z</time>
      </trkpt>
      <trkpt lat="49.76771" lon="2.19081">
        <ele>96.7</ele>
        <time>2023-01-18T14:14:50Z</time>
      </trkpt>
      <trkpt lat="49.76772" lon="2.1908">
        <ele>96.7</ele>
        <time>2023-01-18T14:14:51Z</time>
      </trkpt>
      <trkpt lat="49.76773" lon="2.19079">
        <ele>96.7</ele>
        <time>2023-01-18T14:14:52Z</time>
      </trkpt>
      <trkpt lat="49.76774" lon="2.19078">
        <ele>96.7</ele>
        <time>2023-01-18T14:14:53Z</time>
      </trkpt>
      <trkpt lat="49.76774" lon="2.19078">
        <ele>96.7</ele>
        <time>2023-01-18T14:14:54Z</time>
      </trkpt>
      <trkpt lat="49.76776" lon="2.19076">
        <ele>96.7</ele>
        <time>2023-01-18T14:14:56Z</time>
      </trkpt>
      <trkpt lat="49.76777" lon="2.19076">
        <ele>96.7</ele>
        <time>2023-01-18T14:14:57Z</time>
      </trkpt>
      <trkpt lat="49.76778" lon="2.19075">
        <ele>96.7</ele>
        <time>2023-01-18T14:14:58Z</time>
      </trkpt>
      <trkpt lat="49.76779" lon="2.19074">
        <ele>96.6</ele>
        <time>2023-01-18T14:14:59Z</time>
      </trkpt>
      <trkpt lat="49.7678" lon="2.19072">
        <ele>96.6</ele>
        <time>2023-01-18T14:15:00Z</time>
      </trkpt>
      <trkpt lat="49.7678" lon="2.1907">
        <ele>96.6</ele>
        <time>2023-01-18T14:15:01Z</time>
      </trkpt>
      <trkpt lat="49.76782" lon="2.19068">
        <ele>96.6</ele>
        <time>2023-01-18T14:15:02Z</time>
      </trkpt>
      <trkpt lat="49.76782" lon="2.19067">
        <ele>96.6</ele>
        <time>2023-01-18T14:15:04Z</time>
      </trkpt>
      <trkpt lat="49.76783" lon="2.19067">
        <ele>96.6</ele>
        <time>2023-01-18T14:15:05Z</time>
      </trkpt>
      <trkpt lat="49.76784" lon="2.19066">
        <ele>96.6</ele>
        <time>2023-01-18T14:15:06Z</time>
      </trkpt>
      <trkpt lat="49.76785" lon="2.19065">
        <ele>96.6</ele>
        <time>2023-01-18T14:15:07Z</time>
      </trkpt>
      <trkpt lat="49.76786" lon="2.19064">
        <ele>96.5</ele>
        <time>2023-01-18T14:15:08Z</time>
      </trkpt>
      <trkpt lat="49.76786" lon="2.19062">
        <ele>96.5</ele>
        <time>2023-01-18T14:15:09Z</time>
      </trkpt>
      <trkpt lat="49.76787" lon="2.1906">
        <ele>96.5</ele>
        <time>2023-01-18T14:15:11Z</time>
      </trkpt>
      <trkpt lat="49.76788" lon="2.19059">
        <ele>96.5</ele>
        <time>2023-01-18T14:15:12Z</time>
      </trkpt>
      <trkpt lat="49.76788" lon="2.19057">
        <ele>96.5</ele>
        <time>2023-01-18T14:15:13Z</time>
      </trkpt>
      <trkpt lat="49.76788" lon="2.19055">
        <ele>96.5</ele>
        <time>2023-01-18T14:15:14Z</time>
      </trkpt>
      <trkpt lat="49.76788" lon="2.19053">
        <ele>96.5</ele>
        <time>2023-01-18T14:15:15Z</time>
      </trkpt>
      <trkpt lat="49.76788" lon="2.1905">
        <ele>96.4</ele>
        <time>2023-01-18T14:15:16Z</time>
      </trkpt>
      <trkpt lat="49.76788" lon="2.19049">
        <ele>96.4</ele>
        <time>2023-01-18T14:15:17Z</time>
      </trkpt>
      <trkpt lat="49.76789" lon="2.19047">
        <ele>96.4</ele>
        <time>2023-01-18T14:15:19Z</time>
      </trkpt>
      <trkpt lat="49.76789" lon="2.19045">
        <ele>96.4</ele>
        <time>2023-01-18T14:15:20Z</time>
      </trkpt>
      <trkpt lat="49.7679" lon="2.19044">
        <ele>96.4</ele>
        <time>2023-01-18T14:15:21Z</time>
      </trkpt>
      <trkpt lat="49.76791" lon="2.19043">
        <ele>96.4</ele>
        <time>2023-01-18T14:15:22Z</time>
      </trkpt>
      <trkpt lat="49.76792" lon="2.19043">
        <ele>96.4</ele>
        <time>2023-01-18T14:15:23Z</time>
      </trkpt>
      <trkpt lat="49.76793" lon="2.19042">
        <ele>96.4</ele>
        <time>2023-01-18T14:15:24Z</time>
      </trkpt>
      <trkpt lat="49.76793" lon="2.1904">
        <ele>96.4</ele>
        <time>2023-01-18T14:15:25Z</time>
      </trkpt>
      <trkpt lat="49.76794" lon="2.1904">
        <ele>96.4</ele>
        <time>2023-01-18T14:15:26Z</time>
      </trkpt>
      <trkpt lat="49.76794" lon="2.19038">
        <ele>96.3</ele>
        <time>2023-01-18T14:15:28Z</time>
      </trkpt>
      <trkpt lat="49.76794" lon="2.19037">
        <ele>96.3</ele>
        <time>2023-01-18T14:15:29Z</time>
      </trkpt>
      <trkpt lat="49.76796" lon="2.19035">
        <ele>96.3</ele>
        <time>2023-01-18T14:15:30Z</time>
      </trkpt>
      <trkpt lat="49.76796" lon="2.19035">
        <ele>96.3</ele>
        <time>2023-01-18T14:15:31Z</time>
      </trkpt>
      <trkpt lat="49.76797" lon="2.19035">
        <ele>96.3</ele>
        <time>2023-01-18T14:15:32Z</time>
      </trkpt>
      <trkpt lat="49.76798" lon="2.19034">
        <ele>96.3</ele>
        <time>2023-01-18T14:15:33Z</time>
      </trkpt>
      <trkpt lat="49.76798" lon="2.19032">
        <ele>96.3</ele>
        <time>2023-01-18T14:15:34Z</time>
      </trkpt>
      <trkpt lat="49.76799" lon="2.1903">
        <ele>96.3</ele>
        <time>2023-01-18T14:15:35Z</time>
      </trkpt>
      <trkpt lat="49.76799" lon="2.1903">
        <ele>96.3</ele>
        <time>2023-01-18T14:15:36Z</time>
      </trkpt>
      <trkpt lat="49.768" lon="2.1903">
        <ele>96.3</ele>
        <time>2023-01-18T14:15:38Z</time>
      </trkpt>
      <trkpt lat="49.76801" lon="2.19029">
        <ele>96.3</ele>
        <time>2023-01-18T14:15:39Z</time>
      </trkpt>
      <trkpt lat="49.76801" lon="2.19029">
        <ele>96.2</ele>
        <time>2023-01-18T14:15:40Z</time>
      </trkpt>
      <trkpt lat="49.76801" lon="2.1903">
        <ele>96.2</ele>
        <time>2023-01-18T14:15:41Z</time>
      </trkpt>
      <trkpt lat="49.76801" lon="2.1903">
        <ele>96.2</ele>
        <time>2023-01-18T14:15:42Z</time>
      </trkpt>
      <trkpt lat="49.76802" lon="2.19029">
        <ele>96.2</ele>
        <time>2023-01-18T14:15:43Z</time>
      </trkpt>
      <trkpt lat="49.76802" lon="2.19028">
        <ele>96.2</ele>
        <time>2023-01-18T14:15:44Z</time>
      </trkpt>
      <trkpt lat="49.76803" lon="2.19027">
        <ele>96.2</ele>
        <time>2023-01-18T14:15:46Z</time>
      </trkpt>
      <trkpt lat="49.76803" lon="2.19024">
        <ele>96.2</ele>
        <time>2023-01-18T14:15:47Z</time>
      </trkpt>
      <trkpt lat="49.76804" lon="2.19022">
        <ele>96.2</ele>
        <time>2023-01-18T14:15:48Z</time>
      </trkpt>
      <trkpt lat="49.76805" lon="2.19018">
        <ele>96.2</ele>
        <time>2023-01-18T14:15:49Z</time>
      </trkpt>
      <trkpt lat="49.76805" lon="2.19017">
        <ele>96.2</ele>
        <time>2023-01-18T14:15:50Z</time>
      </trkpt>
      <trkpt lat="49.76806" lon="2.19014">
        <ele>96.2</ele>
        <time>2023-01-18T14:15:51Z</time>
      </trkpt>
      <trkpt lat="49.76807" lon="2.19012">
        <ele>96.1</ele>
        <time>2023-01-18T14:15:52Z</time>
      </trkpt>
      <trkpt lat="49.76808" lon="2.1901">
        <ele>96.1</ele>
        <time>2023-01-18T14:15:53Z</time>
      </trkpt>
      <trkpt lat="49.76809" lon="2.19008">
        <ele>96.1</ele>
        <time>2023-01-18T14:15:54Z</time>
      </trkpt>
      <trkpt lat="49.7681" lon="2.19003">
        <ele>96.1</ele>
        <time>2023-01-18T14:15:56Z</time>
      </trkpt>
      <trkpt lat="49.76811" lon="2.19003">
        <ele>96.1</ele>
        <time>2023-01-18T14:15:57Z</time>
      </trkpt>
      <trkpt lat="49.76812" lon="2.19">
        <ele>96.1</ele>
        <time>2023-01-18T14:15:58Z</time>
      </trkpt>
      <trkpt lat="49.76812" lon="2.18999">
        <ele>96.1</ele>
        <time>2023-01-18T14:15:59Z</time>
      </trkpt>
      <trkpt lat="49.76813" lon="2.18998">
        <ele>96.1</ele>
        <time>2023-01-18T14:16:00Z</time>
      </trkpt>
      <trkpt lat="49.76814" lon="2.18995">
        <ele>96.1</ele>
        <time>2023-01-18T14:16:01Z</time>
      </trkpt>
      <trkpt lat="49.76815" lon="2.18994">
        <ele>96.1</ele>
        <time>2023-01-18T14:16:02Z</time>
      </trkpt>
      <trkpt lat="49.76816" lon="2.18992">
        <ele>96.1</ele>
        <time>2023-01-18T14:16:03Z</time>
      </trkpt>
      <trkpt lat="49.76817" lon="2.1899">
        <ele>96</ele>
        <time>2023-01-18T14:16:04Z</time>
      </trkpt>
      <trkpt lat="49.76818" lon="2.18988">
        <ele>96</ele>
        <time>2023-01-18T14:16:05Z</time>
      </trkpt>
      <trkpt lat="49.76819" lon="2.18987">
        <ele>96</ele>
        <time>2023-01-18T14:16:06Z</time>
      </trkpt>
      <trkpt lat="49.76819" lon="2.18985">
        <ele>96</ele>
        <time>2023-01-18T14:16:08Z</time>
      </trkpt>
      <trkpt lat="49.7682" lon="2.18984">
        <ele>96</ele>
        <time>2023-01-18T14:16:09Z</time>
      </trkpt>
      <trkpt lat="49.7682" lon="2.18982">
        <ele>96</ele>
        <time>2023-01-18T14:16:10Z</time>
      </trkpt>
      <trkpt lat="49.76821" lon="2.18981">
        <ele>96</ele>
        <time>2023-01-18T14:16:11Z</time>
      </trkpt>
      <trkpt lat="49.76822" lon="2.1898">
        <ele>96</ele>
        <time>2023-01-18T14:16:12Z</time>
      </trkpt>
      <trkpt lat="49.76822" lon="2.18979">
        <ele>95.9</ele>
        <time>2023-01-18T14:16:13Z</time>
      </trkpt>
      <trkpt lat="49.76823" lon="2.18977">
        <ele>95.9</ele>
        <time>2023-01-18T14:16:14Z</time>
      </trkpt>
      <trkpt lat="49.76824" lon="2.18975">
        <ele>95.9</ele>
        <time>2023-01-18T14:16:15Z</time>
      </trkpt>
      <trkpt lat="49.76824" lon="2.18974">
        <ele>95.9</ele>
        <time>2023-01-18T14:16:16Z</time>
      </trkpt>
      <trkpt lat="49.76825" lon="2.18972">
        <ele>95.9</ele>
        <time>2023-01-18T14:16:17Z</time>
      </trkpt>
      <trkpt lat="49.76826" lon="2.18971">
        <ele>95.9</ele>
        <time>2023-01-18T14:16:19Z</time>
      </trkpt>
      <trkpt lat="49.76826" lon="2.1897">
        <ele>95.9</ele>
        <time>2023-01-18T14:16:20Z</time>
      </trkpt>
      <trkpt lat="49.76827" lon="2.18968">
        <ele>95.8</ele>
        <time>2023-01-18T14:16:21Z</time>
      </trkpt>
      <trkpt lat="49.76828" lon="2.18967">
        <ele>95.8</ele>
        <time>2023-01-18T14:16:22Z</time>
      </trkpt>
      <trkpt lat="49.76828" lon="2.18966">
        <ele>95.8</ele>
        <time>2023-01-18T14:16:23Z</time>
      </trkpt>
      <trkpt lat="49.76829" lon="2.18964">
        <ele>95.8</ele>
        <time>2023-01-18T14:16:24Z</time>
      </trkpt>
      <trkpt lat="49.76829" lon="2.18963">
        <ele>95.8</ele>
        <time>2023-01-18T14:16:25Z</time>
      </trkpt>
      <trkpt lat="49.7683" lon="2.18961">
        <ele>95.8</ele>
        <time>2023-01-18T14:16:26Z</time>
      </trkpt>
      <trkpt lat="49.7683" lon="2.18959">
        <ele>95.7</ele>
        <time>2023-01-18T14:16:27Z</time>
      </trkpt>
      <trkpt lat="49.76831" lon="2.18957">
        <ele>95.7</ele>
        <time>2023-01-18T14:16:28Z</time>
      </trkpt>
      <trkpt lat="49.76832" lon="2.18955">
        <ele>95.7</ele>
        <time>2023-01-18T14:16:29Z</time>
      </trkpt>
      <trkpt lat="49.76833" lon="2.18954">
        <ele>95.7</ele>
        <time>2023-01-18T14:16:30Z</time>
      </trkpt>
      <trkpt lat="49.76833" lon="2.18953">
        <ele>95.7</ele>
        <time>2023-01-18T14:16:31Z</time>
      </trkpt>
      <trkpt lat="49.76834" lon="2.18952">
        <ele>95.6</ele>
        <time>2023-01-18T14:16:33Z</time>
      </trkpt>
      <trkpt lat="49.76834" lon="2.1895">
        <ele>95.6</ele>
        <time>2023-01-18T14:16:34Z</time>
      </trkpt>
      <trkpt lat="49.76835" lon="2.18949">
        <ele>95.6</ele>
        <time>2023-01-18T14:16:35Z</time>
      </trkpt>
      <trkpt lat="49.76836" lon="2.18948">
        <ele>95.6</ele>
        <time>2023-01-18T14:16:36Z</time>
      </trkpt>
      <trkpt lat="49.76837" lon="2.18947">
        <ele>95.6</ele>
        <time>2023-01-18T14:16:37Z</time>
      </trkpt>
      <trkpt lat="49.76837" lon="2.18946">
        <ele>95.5</ele>
        <time>2023-01-18T14:16:38Z</time>
      </trkpt>
      <trkpt lat="49.76838" lon="2.18944">
        <ele>95.5</ele>
        <time>2023-01-18T14:16:39Z</time>
      </trkpt>
      <trkpt lat="49.76839" lon="2.18943">
        <ele>95.5</ele>
        <time>2023-01-18T14:16:40Z</time>
      </trkpt>
      <trkpt lat="49.76839" lon="2.1894">
        <ele>95.5</ele>
        <time>2023-01-18T14:16:41Z</time>
      </trkpt>
      <trkpt lat="49.7684" lon="2.18939">
        <ele>95.4</ele>
        <time>2023-01-18T14:16:42Z</time>
      </trkpt>
      <trkpt lat="49.7684" lon="2.18938">
        <ele>95.4</ele>
        <time>2023-01-18T14:16:43Z</time>
      </trkpt>
      <trkpt lat="49.76841" lon="2.18937">
        <ele>95.4</ele>
        <time>2023-01-18T14:16:45Z</time>
      </trkpt>
      <trkpt lat="49.76842" lon="2.18936">
        <ele>95.4</ele>
        <time>2023-01-18T14:16:46Z</time>
      </trkpt>
      <trkpt lat="49.76843" lon="2.18934">
        <ele>95.3</ele>
        <time>2023-01-18T14:16:47Z</time>
      </trkpt>
      <trkpt lat="49.76843" lon="2.18932">
        <ele>95.3</ele>
        <time>2023-01-18T14:16:48Z</time>
      </trkpt>
      <trkpt lat="49.76844" lon="2.18931">
        <ele>95.3</ele>
        <time>2023-01-18T14:16:49Z</time>
      </trkpt>
      <trkpt lat="49.76844" lon="2.1893">
        <ele>95.3</ele>
        <time>2023-01-18T14:16:50Z</time>
      </trkpt>
      <trkpt lat="49.76845" lon="2.18929">
        <ele>95.3</ele>
        <time>2023-01-18T14:16:51Z</time>
      </trkpt>
      <trkpt lat="49.76846" lon="2.18927">
        <ele>95.2</ele>
        <time>2023-01-18T14:16:52Z</time>
      </trkpt>
      <trkpt lat="49.76846" lon="2.18926">
        <ele>95.2</ele>
        <time>2023-01-18T14:16:53Z</time>
      </trkpt>
      <trkpt lat="49.76847" lon="2.18926">
        <ele>95.2</ele>
        <time>2023-01-18T14:16:55Z</time>
      </trkpt>
      <trkpt lat="49.76847" lon="2.18925">
        <ele>95.2</ele>
        <time>2023-01-18T14:16:56Z</time>
      </trkpt>
      <trkpt lat="49.76848" lon="2.18923">
        <ele>95.1</ele>
        <time>2023-01-18T14:16:57Z</time>
      </trkpt>
      <trkpt lat="49.76849" lon="2.18922">
        <ele>95.1</ele>
        <time>2023-01-18T14:16:58Z</time>
      </trkpt>
      <trkpt lat="49.7685" lon="2.18921">
        <ele>95.1</ele>
        <time>2023-01-18T14:16:59Z</time>
      </trkpt>
      <trkpt lat="49.7685" lon="2.18921">
        <ele>95.1</ele>
        <time>2023-01-18T14:17:00Z</time>
      </trkpt>
      <trkpt lat="49.76851" lon="2.18919">
        <ele>95.1</ele>
        <time>2023-01-18T14:17:01Z</time>
      </trkpt>
      <trkpt lat="49.76852" lon="2.18917">
        <ele>95</ele>
        <time>2023-01-18T14:17:02Z</time>
      </trkpt>
      <trkpt lat="49.76853" lon="2.18914">
        <ele>95</ele>
        <time>2023-01-18T14:17:03Z</time>
      </trkpt>
      <trkpt lat="49.76854" lon="2.18913">
        <ele>95</ele>
        <time>2023-01-18T14:17:04Z</time>
      </trkpt>
      <trkpt lat="49.76854" lon="2.18912">
        <ele>95</ele>
        <time>2023-01-18T14:17:05Z</time>
      </trkpt>
      <trkpt lat="49.76855" lon="2.18909">
        <ele>94.9</ele>
        <time>2023-01-18T14:17:06Z</time>
      </trkpt>
      <trkpt lat="49.76856" lon="2.18908">
        <ele>94.9</ele>
        <time>2023-01-18T14:17:08Z</time>
      </trkpt>
      <trkpt lat="49.76856" lon="2.18907">
        <ele>94.9</ele>
        <time>2023-01-18T14:17:09Z</time>
      </trkpt>
      <trkpt lat="49.76857" lon="2.18906">
        <ele>94.9</ele>
        <time>2023-01-18T14:17:10Z</time>
      </trkpt>
      <trkpt lat="49.76858" lon="2.18905">
        <ele>94.8</ele>
        <time>2023-01-18T14:17:11Z</time>
      </trkpt>
      <trkpt lat="49.76858" lon="2.18904">
        <ele>94.8</ele>
        <time>2023-01-18T14:17:12Z</time>
      </trkpt>
      <trkpt lat="49.7686" lon="2.18901">
        <ele>94.8</ele>
        <time>2023-01-18T14:17:13Z</time>
      </trkpt>
      <trkpt lat="49.7686" lon="2.189">
        <ele>94.8</ele>
        <time>2023-01-18T14:17:14Z</time>
      </trkpt>
      <trkpt lat="49.76861" lon="2.18899">
        <ele>94.8</ele>
        <time>2023-01-18T14:17:15Z</time>
      </trkpt>
      <trkpt lat="49.76862" lon="2.18896">
        <ele>94.7</ele>
        <time>2023-01-18T14:17:16Z</time>
      </trkpt>
      <trkpt lat="49.76863" lon="2.18895">
        <ele>94.7</ele>
        <time>2023-01-18T14:17:17Z</time>
      </trkpt>
      <trkpt lat="49.76863" lon="2.18894">
        <ele>94.7</ele>
        <time>2023-01-18T14:17:18Z</time>
      </trkpt>
      <trkpt lat="49.76865" lon="2.18892">
        <ele>94.6</ele>
        <time>2023-01-18T14:17:20Z</time>
      </trkpt>
      <trkpt lat="49.76865" lon="2.18891">
        <ele>94.6</ele>
        <time>2023-01-18T14:17:21Z</time>
      </trkpt>
      <trkpt lat="49.76866" lon="2.18889">
        <ele>94.6</ele>
        <time>2023-01-18T14:17:22Z</time>
      </trkpt>
      <trkpt lat="49.76867" lon="2.18888">
        <ele>94.6</ele>
        <time>2023-01-18T14:17:23Z</time>
      </trkpt>
      <trkpt lat="49.76867" lon="2.18887">
        <ele>94.6</ele>
        <time>2023-01-18T14:17:24Z</time>
      </trkpt>
      <trkpt lat="49.76868" lon="2.18886">
        <ele>94.5</ele>
        <time>2023-01-18T14:17:25Z</time>
      </trkpt>
      <trkpt lat="49.76868" lon="2.18885">
        <ele>94.5</ele>
        <time>2023-01-18T14:17:26Z</time>
      </trkpt>
      <trkpt lat="49.7687" lon="2.18883">
        <ele>94.5</ele>
        <time>2023-01-18T14:17:27Z</time>
      </trkpt>
      <trkpt lat="49.7687" lon="2.18882">
        <ele>94.5</ele>
        <time>2023-01-18T14:17:28Z</time>
      </trkpt>
      <trkpt lat="49.76872" lon="2.1888">
        <ele>94.4</ele>
        <time>2023-01-18T14:17:29Z</time>
      </trkpt>
      <trkpt lat="49.76873" lon="2.18879">
        <ele>94.4</ele>
        <time>2023-01-18T14:17:31Z</time>
      </trkpt>
      <trkpt lat="49.76874" lon="2.18877">
        <ele>94.4</ele>
        <time>2023-01-18T14:17:32Z</time>
      </trkpt>
      <trkpt lat="49.76874" lon="2.18876">
        <ele>94.4</ele>
        <time>2023-01-18T14:17:33Z</time>
      </trkpt>
      <trkpt lat="49.76875" lon="2.18875">
        <ele>94.4</ele>
        <time>2023-01-18T14:17:34Z</time>
      </trkpt>
      <trkpt lat="49.76876" lon="2.18874">
        <ele>94.4</ele>
        <time>2023-01-18T14:17:35Z</time>
      </trkpt>
      <trkpt lat="49.76876" lon="2.18873">
        <ele>94.3</ele>
        <time>2023-01-18T14:17:36Z</time>
      </trkpt>
      <trkpt lat="49.76877" lon="2.18871">
        <ele>94.3</ele>
        <time>2023-01-18T14:17:37Z</time>
      </trkpt>
      <trkpt lat="49.76878" lon="2.1887">
        <ele>94.3</ele>
        <time>2023-01-18T14:17:38Z</time>
      </trkpt>
      <trkpt lat="49.76879" lon="2.18868">
        <ele>94.3</ele>
        <time>2023-01-18T14:17:40Z</time>
      </trkpt>
      <trkpt lat="49.7688" lon="2.18866">
        <ele>94.2</ele>
        <time>2023-01-18T14:17:41Z</time>
      </trkpt>
      <trkpt lat="49.76881" lon="2.18864">
        <ele>94.2</ele>
        <time>2023-01-18T14:17:42Z</time>
      </trkpt>
      <trkpt lat="49.76881" lon="2.18863">
        <ele>94.2</ele>
        <time>2023-01-18T14:17:43Z</time>
      </trkpt>
      <trkpt lat="49.76882" lon="2.18862">
        <ele>94.2</ele>
        <time>2023-01-18T14:17:44Z</time>
      </trkpt>
      <trkpt lat="49.76883" lon="2.1886">
        <ele>94.2</ele>
        <time>2023-01-18T14:17:45Z</time>
      </trkpt>
      <trkpt lat="49.76884" lon="2.18859">
        <ele>94.1</ele>
        <time>2023-01-18T14:17:46Z</time>
      </trkpt>
      <trkpt lat="49.76884" lon="2.18857">
        <ele>94.1</ele>
        <time>2023-01-18T14:17:48Z</time>
      </trkpt>
      <trkpt lat="49.76885" lon="2.18856">
        <ele>94.1</ele>
        <time>2023-01-18T14:17:49Z</time>
      </trkpt>
      <trkpt lat="49.76885" lon="2.18855">
        <ele>94.1</ele>
        <time>2023-01-18T14:17:50Z</time>
      </trkpt>
      <trkpt lat="49.76886" lon="2.18853">
        <ele>94.1</ele>
        <time>2023-01-18T14:17:51Z</time>
      </trkpt>
      <trkpt lat="49.76887" lon="2.18851">
        <ele>94</ele>
        <time>2023-01-18T14:17:52Z</time>
      </trkpt>
      <trkpt lat="49.76887" lon="2.1885">
        <ele>94</ele>
        <time>2023-01-18T14:17:53Z</time>
      </trkpt>
      <trkpt lat="49.76888" lon="2.18849">
        <ele>94</ele>
        <time>2023-01-18T14:17:54Z</time>
      </trkpt>
      <trkpt lat="49.76889" lon="2.18847">
        <ele>94</ele>
        <time>2023-01-18T14:17:55Z</time>
      </trkpt>
      <trkpt lat="49.7689" lon="2.18845">
        <ele>93.9</ele>
        <time>2023-01-18T14:17:56Z</time>
      </trkpt>
      <trkpt lat="49.76891" lon="2.18844">
        <ele>93.9</ele>
        <time>2023-01-18T14:17:57Z</time>
      </trkpt>
      <trkpt lat="49.76891" lon="2.18844">
        <ele>93.9</ele>
        <time>2023-01-18T14:17:58Z</time>
      </trkpt>
      <trkpt lat="49.76893" lon="2.18841">
        <ele>93.8</ele>
        <time>2023-01-18T14:18:00Z</time>
      </trkpt>
      <trkpt lat="49.76894" lon="2.1884">
        <ele>93.8</ele>
        <time>2023-01-18T14:18:01Z</time>
      </trkpt>
      <trkpt lat="49.76894" lon="2.18839">
        <ele>93.8</ele>
        <time>2023-01-18T14:18:02Z</time>
      </trkpt>
      <trkpt lat="49.76895" lon="2.18838">
        <ele>93.8</ele>
        <time>2023-01-18T14:18:03Z</time>
      </trkpt>
      <trkpt lat="49.76896" lon="2.18837">
        <ele>93.8</ele>
        <time>2023-01-18T14:18:04Z</time>
      </trkpt>
      <trkpt lat="49.76897" lon="2.18836">
        <ele>93.7</ele>
        <time>2023-01-18T14:18:05Z</time>
      </trkpt>
      <trkpt lat="49.76898" lon="2.18835">
        <ele>93.7</ele>
        <time>2023-01-18T14:18:06Z</time>
      </trkpt>
      <trkpt lat="49.76899" lon="2.18833">
        <ele>93.7</ele>
        <time>2023-01-18T14:18:07Z</time>
      </trkpt>
      <trkpt lat="49.769" lon="2.18831">
        <ele>93.7</ele>
        <time>2023-01-18T14:18:08Z</time>
      </trkpt>
      <trkpt lat="49.76901" lon="2.18831">
        <ele>93.6</ele>
        <time>2023-01-18T14:18:09Z</time>
      </trkpt>
      <trkpt lat="49.76901" lon="2.1883">
        <ele>93.6</ele>
        <time>2023-01-18T14:18:11Z</time>
      </trkpt>
      <trkpt lat="49.76902" lon="2.18829">
        <ele>93.6</ele>
        <time>2023-01-18T14:18:12Z</time>
      </trkpt>
      <trkpt lat="49.76902" lon="2.18828">
        <ele>93.6</ele>
        <time>2023-01-18T14:18:13Z</time>
      </trkpt>
      <trkpt lat="49.76903" lon="2.18827">
        <ele>93.6</ele>
        <time>2023-01-18T14:18:14Z</time>
      </trkpt>
      <trkpt lat="49.76904" lon="2.18826">
        <ele>93.6</ele>
        <time>2023-01-18T14:18:15Z</time>
      </trkpt>
      <trkpt lat="49.76905" lon="2.18825">
        <ele>93.5</ele>
        <time>2023-01-18T14:18:16Z</time>
      </trkpt>
      <trkpt lat="49.76906" lon="2.18824">
        <ele>93.5</ele>
        <time>2023-01-18T14:18:17Z</time>
      </trkpt>
      <trkpt lat="49.76907" lon="2.18823">
        <ele>93.5</ele>
        <time>2023-01-18T14:18:18Z</time>
      </trkpt>
      <trkpt lat="49.76907" lon="2.18822">
        <ele>93.5</ele>
        <time>2023-01-18T14:18:19Z</time>
      </trkpt>
      <trkpt lat="49.76908" lon="2.18821">
        <ele>93.4</ele>
        <time>2023-01-18T14:18:20Z</time>
      </trkpt>
      <trkpt lat="49.76909" lon="2.1882">
        <ele>93.4</ele>
        <time>2023-01-18T14:18:21Z</time>
      </trkpt>
      <trkpt lat="49.76911" lon="2.18818">
        <ele>93.4</ele>
        <time>2023-01-18T14:18:22Z</time>
      </trkpt>
      <trkpt lat="49.76912" lon="2.18817">
        <ele>93.4</ele>
        <time>2023-01-18T14:18:24Z</time>
      </trkpt>
      <trkpt lat="49.76912" lon="2.18816">
        <ele>93.3</ele>
        <time>2023-01-18T14:18:25Z</time>
      </trkpt>
      <trkpt lat="49.76913" lon="2.18815">
        <ele>93.3</ele>
        <time>2023-01-18T14:18:26Z</time>
      </trkpt>
      <trkpt lat="49.76914" lon="2.18813">
        <ele>93.3</ele>
        <time>2023-01-18T14:18:27Z</time>
      </trkpt>
      <trkpt lat="49.76915" lon="2.18812">
        <ele>93.3</ele>
        <time>2023-01-18T14:18:28Z</time>
      </trkpt>
      <trkpt lat="49.76916" lon="2.18811">
        <ele>93.2</ele>
        <time>2023-01-18T14:18:29Z</time>
      </trkpt>
      <trkpt lat="49.76917" lon="2.18809">
        <ele>93.2</ele>
        <time>2023-01-18T14:18:30Z</time>
      </trkpt>
      <trkpt lat="49.76918" lon="2.18807">
        <ele>93.2</ele>
        <time>2023-01-18T14:18:31Z</time>
      </trkpt>
      <trkpt lat="49.76918" lon="2.18806">
        <ele>93.2</ele>
        <time>2023-01-18T14:18:32Z</time>
      </trkpt>
      <trkpt lat="49.76919" lon="2.18805">
        <ele>93.1</ele>
        <time>2023-01-18T14:18:33Z</time>
      </trkpt>
      <trkpt lat="49.7692" lon="2.18804">
        <ele>93.1</ele>
        <time>2023-01-18T14:18:34Z</time>
      </trkpt>
      <trkpt lat="49.7692" lon="2.18802">
        <ele>93.1</ele>
        <time>2023-01-18T14:18:36Z</time>
      </trkpt>
      <trkpt lat="49.76921" lon="2.18801">
        <ele>93.1</ele>
        <time>2023-01-18T14:18:37Z</time>
      </trkpt>
      <trkpt lat="49.76923" lon="2.18799">
        <ele>93.1</ele>
        <time>2023-01-18T14:18:38Z</time>
      </trkpt>
      <trkpt lat="49.76923" lon="2.18798">
        <ele>93</ele>
        <time>2023-01-18T14:18:39Z</time>
      </trkpt>
      <trkpt lat="49.76924" lon="2.18797">
        <ele>93</ele>
        <time>2023-01-18T14:18:40Z</time>
      </trkpt>
      <trkpt lat="49.76925" lon="2.18796">
        <ele>93</ele>
        <time>2023-01-18T14:18:41Z</time>
      </trkpt>
      <trkpt lat="49.76926" lon="2.18794">
        <ele>93</ele>
        <time>2023-01-18T14:18:42Z</time>
      </trkpt>
      <trkpt lat="49.76927" lon="2.18793">
        <ele>93</ele>
        <time>2023-01-18T14:18:43Z</time>
      </trkpt>
      <trkpt lat="49.76927" lon="2.18792">
        <ele>93</ele>
        <time>2023-01-18T14:18:44Z</time>
      </trkpt>
      <trkpt lat="49.76928" lon="2.18791">
        <ele>93</ele>
        <time>2023-01-18T14:18:45Z</time>
      </trkpt>
      <trkpt lat="49.76929" lon="2.1879">
        <ele>92.9</ele>
        <time>2023-01-18T14:18:46Z</time>
      </trkpt>
      <trkpt lat="49.7693" lon="2.18789">
        <ele>92.9</ele>
        <time>2023-01-18T14:18:48Z</time>
      </trkpt>
      <trkpt lat="49.76931" lon="2.18788">
        <ele>92.9</ele>
        <time>2023-01-18T14:18:49Z</time>
      </trkpt>
      <trkpt lat="49.76932" lon="2.18785">
        <ele>92.9</ele>
        <time>2023-01-18T14:18:50Z</time>
      </trkpt>
      <trkpt lat="49.76933" lon="2.18784">
        <ele>92.9</ele>
        <time>2023-01-18T14:18:51Z</time>
      </trkpt>
      <trkpt lat="49.76934" lon="2.18783">
        <ele>92.9</ele>
        <time>2023-01-18T14:18:52Z</time>
      </trkpt>
      <trkpt lat="49.76934" lon="2.18782">
        <ele>92.9</ele>
        <time>2023-01-18T14:18:53Z</time>
      </trkpt>
      <trkpt lat="49.76935" lon="2.18781">
        <ele>92.9</ele>
        <time>2023-01-18T14:18:54Z</time>
      </trkpt>
      <trkpt lat="49.76936" lon="2.1878">
        <ele>92.8</ele>
        <time>2023-01-18T14:18:55Z</time>
      </trkpt>
      <trkpt lat="49.76937" lon="2.18778">
        <ele>92.8</ele>
        <time>2023-01-18T14:18:56Z</time>
      </trkpt>
      <trkpt lat="49.76938" lon="2.18777">
        <ele>92.8</ele>
        <time>2023-01-18T14:18:57Z</time>
      </trkpt>
      <trkpt lat="49.76939" lon="2.18776">
        <ele>92.8</ele>
        <time>2023-01-18T14:18:58Z</time>
      </trkpt>
      <trkpt lat="49.7694" lon="2.18775">
        <ele>92.8</ele>
        <time>2023-01-18T14:19:00Z</time>
      </trkpt>
      <trkpt lat="49.7694" lon="2.18773">
        <ele>92.8</ele>
        <time>2023-01-18T14:19:01Z</time>
      </trkpt>
      <trkpt lat="49.76941" lon="2.18772">
        <ele>92.8</ele>
        <time>2023-01-18T14:19:02Z</time>
      </trkpt>
      <trkpt lat="49.76942" lon="2.1877">
        <ele>92.8</ele>
        <time>2023-01-18T14:19:03Z</time>
      </trkpt>
      <trkpt lat="49.76943" lon="2.1877">
        <ele>92.8</ele>
        <time>2023-01-18T14:19:04Z</time>
      </trkpt>
      <trkpt lat="49.76944" lon="2.18767">
        <ele>92.8</ele>
        <time>2023-01-18T14:19:05Z</time>
      </trkpt>
      <trkpt lat="49.76945" lon="2.18766">
        <ele>92.8</ele>
        <time>2023-01-18T14:19:06Z</time>
      </trkpt>
      <trkpt lat="49.76945" lon="2.18765">
        <ele>92.8</ele>
        <time>2023-01-18T14:19:07Z</time>
      </trkpt>
      <trkpt lat="49.76946" lon="2.18764">
        <ele>92.8</ele>
        <time>2023-01-18T14:19:08Z</time>
      </trkpt>
      <trkpt lat="49.76946" lon="2.18763">
        <ele>92.8</ele>
        <time>2023-01-18T14:19:09Z</time>
      </trkpt>
      <trkpt lat="49.76946" lon="2.18762">
        <ele>92.8</ele>
        <time>2023-01-18T14:19:11Z</time>
      </trkpt>
      <trkpt lat="49.76947" lon="2.1876">
        <ele>92.7</ele>
        <time>2023-01-18T14:19:12Z</time>
      </trkpt>
      <trkpt lat="49.76948" lon="2.18758">
        <ele>92.7</ele>
        <time>2023-01-18T14:19:13Z</time>
      </trkpt>
      <trkpt lat="49.76948" lon="2.18757">
        <ele>92.7</ele>
        <time>2023-01-18T14:19:14Z</time>
      </trkpt>
      <trkpt lat="49.76949" lon="2.18756">
        <ele>92.7</ele>
        <time>2023-01-18T14:19:15Z</time>
      </trkpt>
      <trkpt lat="49.76949" lon="2.18755">
        <ele>92.7</ele>
        <time>2023-01-18T14:19:16Z</time>
      </trkpt>
      <trkpt lat="49.7695" lon="2.18753">
        <ele>92.7</ele>
        <time>2023-01-18T14:19:17Z</time>
      </trkpt>
      <trkpt lat="49.76951" lon="2.18752">
        <ele>92.7</ele>
        <time>2023-01-18T14:19:18Z</time>
      </trkpt>
      <trkpt lat="49.76951" lon="2.18751">
        <ele>92.7</ele>
        <time>2023-01-18T14:19:19Z</time>
      </trkpt>
      <trkpt lat="49.76952" lon="2.1875">
        <ele>92.7</ele>
        <time>2023-01-18T14:19:20Z</time>
      </trkpt>
      <trkpt lat="49.76953" lon="2.18749">
        <ele>92.7</ele>
        <time>2023-01-18T14:19:21Z</time>
      </trkpt>
      <trkpt lat="49.76953" lon="2.18747">
        <ele>92.7</ele>
        <time>2023-01-18T14:19:23Z</time>
      </trkpt>
      <trkpt lat="49.76954" lon="2.18746">
        <ele>92.7</ele>
        <time>2023-01-18T14:19:24Z</time>
      </trkpt>
      <trkpt lat="49.76954" lon="2.18744">
        <ele>92.7</ele>
        <time>2023-01-18T14:19:25Z</time>
      </trkpt>
      <trkpt lat="49.76954" lon="2.18743">
        <ele>92.7</ele>
        <time>2023-01-18T14:19:26Z</time>
      </trkpt>
      <trkpt lat="49.76955" lon="2.18741">
        <ele>92.7</ele>
        <time>2023-01-18T14:19:27Z</time>
      </trkpt>
      <trkpt lat="49.76955" lon="2.1874">
        <ele>92.6</ele>
        <time>2023-01-18T14:19:28Z</time>
      </trkpt>
      <trkpt lat="49.76956" lon="2.18738">
        <ele>92.6</ele>
        <time>2023-01-18T14:19:29Z</time>
      </trkpt>
      <trkpt lat="49.76956" lon="2.18737">
        <ele>92.6</ele>
        <time>2023-01-18T14:19:30Z</time>
      </trkpt>
      <trkpt lat="49.76957" lon="2.18736">
        <ele>92.6</ele>
        <time>2023-01-18T14:19:31Z</time>
      </trkpt>
      <trkpt lat="49.76957" lon="2.18734">
        <ele>92.6</ele>
        <time>2023-01-18T14:19:32Z</time>
      </trkpt>
      <trkpt lat="49.76957" lon="2.18733">
        <ele>92.6</ele>
        <time>2023-01-18T14:19:34Z</time>
      </trkpt>
      <trkpt lat="49.76958" lon="2.18731">
        <ele>92.6</ele>
        <time>2023-01-18T14:19:35Z</time>
      </trkpt>
      <trkpt lat="49.76958" lon="2.1873">
        <ele>92.6</ele>
        <time>2023-01-18T14:19:36Z</time>
      </trkpt>
      <trkpt lat="49.76958" lon="2.18728">
        <ele>92.6</ele>
        <time>2023-01-18T14:19:37Z</time>
      </trkpt>
      <trkpt lat="49.76958" lon="2.18726">
        <ele>92.6</ele>
        <time>2023-01-18T14:19:38Z</time>
      </trkpt>
      <trkpt lat="49.76958" lon="2.18724">
        <ele>92.5</ele>
        <time>2023-01-18T14:19:39Z</time>
      </trkpt>
      <trkpt lat="49.76958" lon="2.18723">
        <ele>92.5</ele>
        <time>2023-01-18T14:19:40Z</time>
      </trkpt>
      <trkpt lat="49.76958" lon="2.18721">
        <ele>92.5</ele>
        <time>2023-01-18T14:19:41Z</time>
      </trkpt>
      <trkpt lat="49.76959" lon="2.18718">
        <ele>92.5</ele>
        <time>2023-01-18T14:19:42Z</time>
      </trkpt>
      <trkpt lat="49.76959" lon="2.18717">
        <ele>92.5</ele>
        <time>2023-01-18T14:19:43Z</time>
      </trkpt>
      <trkpt lat="49.76959" lon="2.18715">
        <ele>92.5</ele>
        <time>2023-01-18T14:19:45Z</time>
      </trkpt>
      <trkpt lat="49.76959" lon="2.18713">
        <ele>92.4</ele>
        <time>2023-01-18T14:19:46Z</time>
      </trkpt>
      <trkpt lat="49.76959" lon="2.18712">
        <ele>92.4</ele>
        <time>2023-01-18T14:19:47Z</time>
      </trkpt>
      <trkpt lat="49.76959" lon="2.18709">
        <ele>92.4</ele>
        <time>2023-01-18T14:19:48Z</time>
      </trkpt>
      <trkpt lat="49.76961" lon="2.18709">
        <ele>92.4</ele>
        <time>2023-01-18T14:19:50Z</time>
      </trkpt>
      <trkpt lat="49.76962" lon="2.1871">
        <ele>92.4</ele>
        <time>2023-01-18T14:19:51Z</time>
      </trkpt>
      <trkpt lat="49.76962" lon="2.18711">
        <ele>92.4</ele>
        <time>2023-01-18T14:19:52Z</time>
      </trkpt>
      <trkpt lat="49.76963" lon="2.18712">
        <ele>92.4</ele>
        <time>2023-01-18T14:19:54Z</time>
      </trkpt>
      <trkpt lat="49.76963" lon="2.18712">
        <ele>92.4</ele>
        <time>2023-01-18T14:19:55Z</time>
      </trkpt>
      <trkpt lat="49.76963" lon="2.18712">
        <ele>92.4</ele>
        <time>2023-01-18T14:19:57Z</time>
      </trkpt>
      <trkpt lat="49.76963" lon="2.18712">
        <ele>92.3</ele>
        <time>2023-01-18T14:19:58Z</time>
      </trkpt>
      <trkpt lat="49.76963" lon="2.18711">
        <ele>92.3</ele>
        <time>2023-01-18T14:19:59Z</time>
      </trkpt>
      <trkpt lat="49.76963" lon="2.1871">
        <ele>92.3</ele>
        <time>2023-01-18T14:20:01Z</time>
      </trkpt>
      <trkpt lat="49.76963" lon="2.18708">
        <ele>92.3</ele>
        <time>2023-01-18T14:20:03Z</time>
      </trkpt>
      <trkpt lat="49.76963" lon="2.18707">
        <ele>92.3</ele>
        <time>2023-01-18T14:20:04Z</time>
      </trkpt>
      <trkpt lat="49.76963" lon="2.18706">
        <ele>92.3</ele>
        <time>2023-01-18T14:20:05Z</time>
      </trkpt>
      <trkpt lat="49.76964" lon="2.18705">
        <ele>92.3</ele>
        <time>2023-01-18T14:20:07Z</time>
      </trkpt>
      <trkpt lat="49.76965" lon="2.18705">
        <ele>92.3</ele>
        <time>2023-01-18T14:20:08Z</time>
      </trkpt>
      <trkpt lat="49.76965" lon="2.18705">
        <ele>92.3</ele>
        <time>2023-01-18T14:20:10Z</time>
      </trkpt>
      <trkpt lat="49.76965" lon="2.18705">
        <ele>92.3</ele>
        <time>2023-01-18T14:20:11Z</time>
      </trkpt>
      <trkpt lat="49.76965" lon="2.18705">
        <ele>92.3</ele>
        <time>2023-01-18T14:20:12Z</time>
      </trkpt>
      <trkpt lat="49.76965" lon="2.18705">
        <ele>92.3</ele>
        <time>2023-01-18T14:20:14Z</time>
      </trkpt>
      <trkpt lat="49.76965" lon="2.18705">
        <ele>92.3</ele>
        <time>2023-01-18T14:20:15Z</time>
      </trkpt>
      <trkpt lat="49.76965" lon="2.18704">
        <ele>92.3</ele>
        <time>2023-01-18T14:20:16Z</time>
      </trkpt>
      <trkpt lat="49.76966" lon="2.18704">
        <ele>92.3</ele>
        <time>2023-01-18T14:20:17Z</time>
      </trkpt>
      <trkpt lat="49.76966" lon="2.18703">
        <ele>92.3</ele>
        <time>2023-01-18T14:20:18Z</time>
      </trkpt>
      <trkpt lat="49.76967" lon="2.18702">
        <ele>92.3</ele>
        <time>2023-01-18T14:20:20Z</time>
      </trkpt>
      <trkpt lat="49.76967" lon="2.187">
        <ele>92.2</ele>
        <time>2023-01-18T14:20:21Z</time>
      </trkpt>
      <trkpt lat="49.76967" lon="2.18698">
        <ele>92.2</ele>
        <time>2023-01-18T14:20:22Z</time>
      </trkpt>
      <trkpt lat="49.76968" lon="2.18696">
        <ele>92.2</ele>
        <time>2023-01-18T14:20:23Z</time>
      </trkpt>
      <trkpt lat="49.76968" lon="2.18694">
        <ele>92.2</ele>
        <time>2023-01-18T14:20:24Z</time>
      </trkpt>
      <trkpt lat="49.76968" lon="2.18691">
        <ele>92.2</ele>
        <time>2023-01-18T14:20:25Z</time>
      </trkpt>
      <trkpt lat="49.76968" lon="2.18689">
        <ele>92.2</ele>
        <time>2023-01-18T14:20:26Z</time>
      </trkpt>
      <trkpt lat="49.76968" lon="2.18686">
        <ele>92.1</ele>
        <time>2023-01-18T14:20:28Z</time>
      </trkpt>
      <trkpt lat="49.76968" lon="2.18684">
        <ele>92.1</ele>
        <time>2023-01-18T14:20:29Z</time>
      </trkpt>
      <trkpt lat="49.76968" lon="2.18682">
        <ele>92.1</ele>
        <time>2023-01-18T14:20:30Z</time>
      </trkpt>
      <trkpt lat="49.76968" lon="2.1868">
        <ele>92.1</ele>
        <time>2023-01-18T14:20:32Z</time>
      </trkpt>
      <trkpt lat="49.76967" lon="2.18679">
        <ele>92.1</ele>
        <time>2023-01-18T14:20:33Z</time>
      </trkpt>
      <trkpt lat="49.76966" lon="2.18679">
        <ele>92.1</ele>
        <time>2023-01-18T14:20:34Z</time>
      </trkpt>
      <trkpt lat="49.76966" lon="2.18677">
        <ele>92.1</ele>
        <time>2023-01-18T14:20:35Z</time>
      </trkpt>
      <trkpt lat="49.76966" lon="2.18676">
        <ele>92.1</ele>
        <time>2023-01-18T14:20:36Z</time>
      </trkpt>
      <trkpt lat="49.76967" lon="2.18672">
        <ele>92.1</ele>
        <time>2023-01-18T14:20:37Z</time>
      </trkpt>
      <trkpt lat="49.76967" lon="2.18671">
        <ele>92.1</ele>
        <time>2023-01-18T14:20:39Z</time>
      </trkpt>
      <trkpt lat="49.76967" lon="2.1867">
        <ele>92</ele>
        <time>2023-01-18T14:20:40Z</time>
      </trkpt>
      <trkpt lat="49.76968" lon="2.18668">
        <ele>92</ele>
        <time>2023-01-18T14:20:41Z</time>
      </trkpt>
      <trkpt lat="49.76968" lon="2.18667">
        <ele>92</ele>
        <time>2023-01-18T14:20:42Z</time>
      </trkpt>
      <trkpt lat="49.76967" lon="2.18666">
        <ele>92</ele>
        <time>2023-01-18T14:20:44Z</time>
      </trkpt>
      <trkpt lat="49.76967" lon="2.18666">
        <ele>92</ele>
        <time>2023-01-18T14:20:45Z</time>
      </trkpt>
      <trkpt lat="49.76967" lon="2.18666">
        <ele>92</ele>
        <time>2023-01-18T14:20:46Z</time>
      </trkpt>
      <trkpt lat="49.76967" lon="2.18666">
        <ele>92</ele>
        <time>2023-01-18T14:20:48Z</time>
      </trkpt>
      <trkpt lat="49.76967" lon="2.18665">
        <ele>92</ele>
        <time>2023-01-18T14:20:49Z</time>
      </trkpt>
      <trkpt lat="49.76968" lon="2.18665">
        <ele>92</ele>
        <time>2023-01-18T14:20:51Z</time>
      </trkpt>
      <trkpt lat="49.76968" lon="2.18666">
        <ele>92</ele>
        <time>2023-01-18T14:20:52Z</time>
      </trkpt>
      <trkpt lat="49.76968" lon="2.18666">
        <ele>92</ele>
        <time>2023-01-18T14:20:53Z</time>
      </trkpt>
      <trkpt lat="49.76968" lon="2.18666">
        <ele>92</ele>
        <time>2023-01-18T14:20:55Z</time>
      </trkpt>
      <trkpt lat="49.76968" lon="2.18666">
        <ele>92</ele>
        <time>2023-01-18T14:20:56Z</time>
      </trkpt>
      <trkpt lat="49.76968" lon="2.18666">
        <ele>92</ele>
        <time>2023-01-18T14:20:58Z</time>
      </trkpt>
      <trkpt lat="49.76968" lon="2.18666">
        <ele>92</ele>
        <time>2023-01-18T14:20:59Z</time>
      </trkpt>
      <trkpt lat="49.76968" lon="2.18666">
        <ele>92</ele>
        <time>2023-01-18T14:21:00Z</time>
      </trkpt>
      <trkpt lat="49.76968" lon="2.18666">
        <ele>92</ele>
        <time>2023-01-18T14:21:01Z</time>
      </trkpt>
      <trkpt lat="49.76968" lon="2.18666">
        <ele>92</ele>
        <time>2023-01-18T14:21:02Z</time>
      </trkpt>
      <trkpt lat="49.76968" lon="2.18666">
        <ele>92</ele>
        <time>2023-01-18T14:21:03Z</time>
      </trkpt>
      <trkpt lat="49.76968" lon="2.18666">
        <ele>92</ele>
        <time>2023-01-18T14:21:04Z</time>
      </trkpt>
      <trkpt lat="49.76969" lon="2.18666">
        <ele>92</ele>
        <time>2023-01-18T14:21:05Z</time>
      </trkpt>
      <trkpt lat="49.76969" lon="2.18666">
        <ele>92</ele>
        <time>2023-01-18T14:21:06Z</time>
      </trkpt>
      <trkpt lat="49.76969" lon="2.18666">
        <ele>92</ele>
        <time>2023-01-18T14:21:07Z</time>
      </trkpt>
      <trkpt lat="49.76969" lon="2.18666">
        <ele>92</ele>
        <time>2023-01-18T14:21:08Z</time>
      </trkpt>
      <trkpt lat="49.76969" lon="2.18666">
        <ele>92</ele>
        <time>2023-01-18T14:21:09Z</time>
      </trkpt>
      <trkpt lat="49.76969" lon="2.18666">
        <ele>92</ele>
        <time>2023-01-18T14:21:10Z</time>
      </trkpt>
      <trkpt lat="49.76969" lon="2.18666">
        <ele>92</ele>
        <time>2023-01-18T14:21:11Z</time>
      </trkpt>
      <trkpt lat="49.76969" lon="2.18666">
        <ele>92</ele>
        <time>2023-01-18T14:21:12Z</time>
      </trkpt>
      <trkpt lat="49.76969" lon="2.18666">
        <ele>92</ele>
        <time>2023-01-18T14:21:13Z</time>
      </trkpt>
      <trkpt lat="49.76969" lon="2.18666">
        <ele>92</ele>
        <time>2023-01-18T14:21:14Z</time>
      </trkpt>
      <trkpt lat="49.76969" lon="2.18666">
        <ele>92</ele>
        <time>2023-01-18T14:21:15Z</time>
      </trkpt>
      <trkpt lat="49.76969" lon="2.18666">
        <ele>92</ele>
        <time>2023-01-18T14:21:16Z</time>
      </trkpt>
      <trkpt lat="49.76969" lon="2.18666">
        <ele>92</ele>
        <time>2023-01-18T14:21:17Z</time>
      </trkpt>
      <trkpt lat="49.76969" lon="2.18666">
        <ele>92</ele>
        <time>2023-01-18T14:21:18Z</time>
      </trkpt>
      <trkpt lat="49.76969" lon="2.18666">
        <ele>92</ele>
        <time>2023-01-18T14:21:19Z</time>
      </trkpt>
      <trkpt lat="49.76969" lon="2.18666">
        <ele>92</ele>
        <time>2023-01-18T14:21:20Z</time>
      </trkpt>
      <trkpt lat="49.76969" lon="2.18666">
        <ele>92</ele>
        <time>2023-01-18T14:21:21Z</time>
      </trkpt>
      <trkpt lat="49.76969" lon="2.18666">
        <ele>92</ele>
        <time>2023-01-18T14:21:22Z</time>
      </trkpt>
      <trkpt lat="49.76969" lon="2.18666">
        <ele>92</ele>
        <time>2023-01-18T14:21:23Z</time>
      </trkpt>
      <trkpt lat="49.76969" lon="2.18666">
        <ele>92</ele>
        <time>2023-01-18T14:21:24Z</time>
      </trkpt>
      <trkpt lat="49.76969" lon="2.18666">
        <ele>92</ele>
        <time>2023-01-18T14:21:25Z</time>
      </trkpt>
      <trkpt lat="49.76969" lon="2.18666">
        <ele>92</ele>
        <time>2023-01-18T14:21:26Z</time>
      </trkpt>
      <trkpt lat="49.76969" lon="2.18666">
        <ele>92</ele>
        <time>2023-01-18T14:21:27Z</time>
      </trkpt>
      <trkpt lat="49.76969" lon="2.18666">
        <ele>92</ele>
        <time>2023-01-18T14:21:28Z</time>
      </trkpt>
      <trkpt lat="49.76969" lon="2.18666">
        <ele>92</ele>
        <time>2023-01-18T14:21:29Z</time>
      </trkpt>
      <trkpt lat="49.76969" lon="2.18666">
        <ele>92</ele>
        <time>2023-01-18T14:21:30Z</time>
      </trkpt>
      <trkpt lat="49.76969" lon="2.18666">
        <ele>92</ele>
        <time>2023-01-18T14:21:31Z</time>
      </trkpt>
      <trkpt lat="49.76969" lon="2.18666">
        <ele>92</ele>
        <time>2023-01-18T14:21:32Z</time>
      </trkpt>
      <trkpt lat="49.76969" lon="2.18666">
        <ele>92</ele>
        <time>2023-01-18T14:21:33Z</time>
      </trkpt>
      <trkpt lat="49.76969" lon="2.18666">
        <ele>92</ele>
        <time>2023-01-18T14:21:34Z</time>
      </trkpt>
      <trkpt lat="49.76969" lon="2.18666">
        <ele>92</ele>
        <time>2023-01-18T14:21:35Z</time>
      </trkpt>
      <trkpt lat="49.76969" lon="2.18666">
        <ele>92</ele>
        <time>2023-01-18T14:21:36Z</time>
      </trkpt>
      <trkpt lat="49.76969" lon="2.18666">
        <ele>92</ele>
        <time>2023-01-18T14:21:37Z</time>
      </trkpt>
      <trkpt lat="49.76969" lon="2.18666">
        <ele>92</ele>
        <time>2023-01-18T14:21:38Z</time>
      </trkpt>
      <trkpt lat="49.76969" lon="2.18666">
        <ele>92</ele>
        <time>2023-01-18T14:21:39Z</time>
      </trkpt>
      <trkpt lat="49.76969" lon="2.18666">
        <ele>92</ele>
        <time>2023-01-18T14:21:40Z</time>
      </trkpt>
      <trkpt lat="49.76969" lon="2.18666">
        <ele>92</ele>
        <time>2023-01-18T14:21:41Z</time>
      </trkpt>
      <trkpt lat="49.76969" lon="2.18666">
        <ele>92</ele>
        <time>2023-01-18T14:21:42Z</time>
      </trkpt>
      <trkpt lat="49.76969" lon="2.18666">
        <ele>92</ele>
        <time>2023-01-18T14:21:43Z</time>
      </trkpt>
      <trkpt lat="49.76969" lon="2.18666">
        <ele>92</ele>
        <time>2023-01-18T14:21:44Z</time>
      </trkpt>
      <trkpt lat="49.76969" lon="2.18666">
        <ele>92</ele>
        <time>2023-01-18T14:21:45Z</time>
      </trkpt>
      <trkpt lat="49.76969" lon="2.18666">
        <ele>92</ele>
        <time>2023-01-18T14:21:46Z</time>
      </trkpt>
      <trkpt lat="49.76969" lon="2.18666">
        <ele>92</ele>
        <time>2023-01-18T14:21:47Z</time>
      </trkpt>
      <trkpt lat="49.76969" lon="2.18666">
        <ele>92</ele>
        <time>2023-01-18T14:21:48Z</time>
      </trkpt>
      <trkpt lat="49.76969" lon="2.18666">
        <ele>92</ele>
        <time>2023-01-18T14:21:49Z</time>
      </trkpt>
      <trkpt lat="49.76969" lon="2.18666">
        <ele>92</ele>
        <time>2023-01-18T14:21:50Z</time>
      </trkpt>
      <trkpt lat="49.76969" lon="2.18666">
        <ele>92</ele>
        <time>2023-01-18T14:21:51Z</time>
      </trkpt>
      <trkpt lat="49.76969" lon="2.18666">
        <ele>92</ele>
        <time>2023-01-18T14:21:52Z</time>
      </trkpt>
      <trkpt lat="49.76969" lon="2.18666">
        <ele>92</ele>
        <time>2023-01-18T14:21:53Z</time>
      </trkpt>
      <trkpt lat="49.76969" lon="2.18666">
        <ele>92</ele>
        <time>2023-01-18T14:21:54Z</time>
      </trkpt>
      <trkpt lat="49.76969" lon="2.18666">
        <ele>92</ele>
        <time>2023-01-18T14:21:55Z</time>
      </trkpt>
      <trkpt lat="49.76969" lon="2.18666">
        <ele>92</ele>
        <time>2023-01-18T14:21:56Z</time>
      </trkpt>
      <trkpt lat="49.76969" lon="2.18666">
        <ele>92</ele>
        <time>2023-01-18T14:21:57Z</time>
      </trkpt>
      <trkpt lat="49.76969" lon="2.18666">
        <ele>92</ele>
        <time>2023-01-18T14:21:58Z</time>
      </trkpt>
      <trkpt lat="49.76969" lon="2.18666">
        <ele>92</ele>
        <time>2023-01-18T14:21:59Z</time>
      </trkpt>
      <trkpt lat="49.76969" lon="2.18666">
        <ele>92</ele>
        <time>2023-01-18T14:22:00Z</time>
      </trkpt>
      <trkpt lat="49.76969" lon="2.18666">
        <ele>92</ele>
        <time>2023-01-18T14:22:01Z</time>
      </trkpt>
      <trkpt lat="49.76969" lon="2.18666">
        <ele>92</ele>
        <time>2023-01-18T14:22:02Z</time>
      </trkpt>
      <trkpt lat="49.76969" lon="2.18666">
        <ele>92</ele>
        <time>2023-01-18T14:22:03Z</time>
      </trkpt>
      <trkpt lat="49.76969" lon="2.18666">
        <ele>92</ele>
        <time>2023-01-18T14:22:04Z</time>
      </trkpt>
      <trkpt lat="49.76969" lon="2.18666">
        <ele>92</ele>
        <time>2023-01-18T14:22:05Z</time>
      </trkpt>
      <trkpt lat="49.76969" lon="2.18666">
        <ele>92</ele>
        <time>2023-01-18T14:22:06Z</time>
      </trkpt>
      <trkpt lat="49.76969" lon="2.18666">
        <ele>92</ele>
        <time>2023-01-18T14:22:07Z</time>
      </trkpt>
      <trkpt lat="49.76969" lon="2.18666">
        <ele>92</ele>
        <time>2023-01-18T14:22:08Z</time>
      </trkpt>
      <trkpt lat="49.76969" lon="2.18666">
        <ele>92</ele>
        <time>2023-01-18T14:22:09Z</time>
      </trkpt>
      <trkpt lat="49.76969" lon="2.18666">
        <ele>92</ele>
        <time>2023-01-18T14:22:10Z</time>
      </trkpt>
      <trkpt lat="49.76969" lon="2.18666">
        <ele>92</ele>
        <time>2023-01-18T14:22:11Z</time>
      </trkpt>
      <trkpt lat="49.76969" lon="2.18666">
        <ele>92</ele>
        <time>2023-01-18T14:22:12Z</time>
      </trkpt>
      <trkpt lat="49.76969" lon="2.18666">
        <ele>92</ele>
        <time>2023-01-18T14:22:13Z</time>
      </trkpt>
      <trkpt lat="49.76969" lon="2.18666">
        <ele>92</ele>
        <time>2023-01-18T14:22:14Z</time>
      </trkpt>
      <trkpt lat="49.76969" lon="2.18666">
        <ele>92</ele>
        <time>2023-01-18T14:22:15Z</time>
      </trkpt>
      <trkpt lat="49.7697" lon="2.18667">
        <ele>92</ele>
        <time>2023-01-18T14:22:16Z</time>
      </trkpt>
      <trkpt lat="49.76972" lon="2.18667">
        <ele>92</ele>
        <time>2023-01-18T14:22:17Z</time>
      </trkpt>
      <trkpt lat="49.76972" lon="2.18667">
        <ele>92</ele>
        <time>2023-01-18T14:22:18Z</time>
      </trkpt>
      <trkpt lat="49.76973" lon="2.18667">
        <ele>92</ele>
        <time>2023-01-18T14:22:19Z</time>
      </trkpt>
      <trkpt lat="49.76973" lon="2.18667">
        <ele>92</ele>
        <time>2023-01-18T14:22:20Z</time>
      </trkpt>
      <trkpt lat="49.76973" lon="2.18667">
        <ele>92</ele>
        <time>2023-01-18T14:22:21Z</time>
      </trkpt>
      <trkpt lat="49.76973" lon="2.18667">
        <ele>92</ele>
        <time>2023-01-18T14:22:22Z</time>
      </trkpt>
      <trkpt lat="49.76973" lon="2.18667">
        <ele>92</ele>
        <time>2023-01-18T14:22:23Z</time>
      </trkpt>
      <trkpt lat="49.76973" lon="2.18668">
        <ele>92</ele>
        <time>2023-01-18T14:22:24Z</time>
      </trkpt>
      <trkpt lat="49.76973" lon="2.18668">
        <ele>92</ele>
        <time>2023-01-18T14:22:25Z</time>
      </trkpt>
      <trkpt lat="49.76973" lon="2.18668">
        <ele>92</ele>
        <time>2023-01-18T14:22:26Z</time>
      </trkpt>
      <trkpt lat="49.76973" lon="2.18668">
        <ele>92</ele>
        <time>2023-01-18T14:22:27Z</time>
      </trkpt>
      <trkpt lat="49.76973" lon="2.18668">
        <ele>92</ele>
        <time>2023-01-18T14:22:28Z</time>
      </trkpt>
      <trkpt lat="49.76973" lon="2.18668">
        <ele>92</ele>
        <time>2023-01-18T14:22:29Z</time>
      </trkpt>
      <trkpt lat="49.76973" lon="2.18668">
        <ele>92</ele>
        <time>2023-01-18T14:22:30Z</time>
      </trkpt>
      <trkpt lat="49.76973" lon="2.18668">
        <ele>92</ele>
        <time>2023-01-18T14:22:31Z</time>
      </trkpt>
      <trkpt lat="49.76973" lon="2.18668">
        <ele>92</ele>
        <time>2023-01-18T14:22:32Z</time>
      </trkpt>
      <trkpt lat="49.76973" lon="2.18668">
        <ele>92</ele>
        <time>2023-01-18T14:22:33Z</time>
      </trkpt>
      <trkpt lat="49.76973" lon="2.18668">
        <ele>92</ele>
        <time>2023-01-18T14:22:34Z</time>
      </trkpt>
      <trkpt lat="49.76973" lon="2.18668">
        <ele>92</ele>
        <time>2023-01-18T14:22:35Z</time>
      </trkpt>
      <trkpt lat="49.76973" lon="2.18668">
        <ele>92</ele>
        <time>2023-01-18T14:22:36Z</time>
      </trkpt>
      <trkpt lat="49.76973" lon="2.18668">
        <ele>92</ele>
        <time>2023-01-18T14:22:37Z</time>
      </trkpt>
      <trkpt lat="49.76973" lon="2.18668">
        <ele>92</ele>
        <time>2023-01-18T14:22:38Z</time>
      </trkpt>
      <trkpt lat="49.76973" lon="2.18668">
        <ele>92</ele>
        <time>2023-01-18T14:22:39Z</time>
      </trkpt>
      <trkpt lat="49.76973" lon="2.18668">
        <ele>92</ele>
        <time>2023-01-18T14:22:40Z</time>
      </trkpt>
      <trkpt lat="49.76973" lon="2.18668">
        <ele>92</ele>
        <time>2023-01-18T14:22:41Z</time>
      </trkpt>
      <trkpt lat="49.76973" lon="2.18668">
        <ele>92</ele>
        <time>2023-01-18T14:22:42Z</time>
      </trkpt>
      <trkpt lat="49.76973" lon="2.18667">
        <ele>92</ele>
        <time>2023-01-18T14:22:43Z</time>
      </trkpt>
      <trkpt lat="49.76973" lon="2.18666">
        <ele>92</ele>
        <time>2023-01-18T14:22:44Z</time>
      </trkpt>
      <trkpt lat="49.76973" lon="2.18665">
        <ele>92</ele>
        <time>2023-01-18T14:22:45Z</time>
      </trkpt>
      <trkpt lat="49.76973" lon="2.18664">
        <ele>91.9</ele>
        <time>2023-01-18T14:22:46Z</time>
      </trkpt>
      <trkpt lat="49.76973" lon="2.18664">
        <ele>91.9</ele>
        <time>2023-01-18T14:22:47Z</time>
      </trkpt>
      <trkpt lat="49.76974" lon="2.18663">
        <ele>91.9</ele>
        <time>2023-01-18T14:22:48Z</time>
      </trkpt>
      <trkpt lat="49.76973" lon="2.18664">
        <ele>91.9</ele>
        <time>2023-01-18T14:22:50Z</time>
      </trkpt>
      <trkpt lat="49.76973" lon="2.18663">
        <ele>91.9</ele>
        <time>2023-01-18T14:22:52Z</time>
      </trkpt>
      <trkpt lat="49.76973" lon="2.18663">
        <ele>91.9</ele>
        <time>2023-01-18T14:22:53Z</time>
      </trkpt>
      <trkpt lat="49.76974" lon="2.18662">
        <ele>91.9</ele>
        <time>2023-01-18T14:22:54Z</time>
      </trkpt>
      <trkpt lat="49.76974" lon="2.1866">
        <ele>91.9</ele>
        <time>2023-01-18T14:22:55Z</time>
      </trkpt>
      <trkpt lat="49.76974" lon="2.18658">
        <ele>91.9</ele>
        <time>2023-01-18T14:22:57Z</time>
      </trkpt>
      <trkpt lat="49.76974" lon="2.18656">
        <ele>91.9</ele>
        <time>2023-01-18T14:22:59Z</time>
      </trkpt>
      <trkpt lat="49.76974" lon="2.18654">
        <ele>91.9</ele>
        <time>2023-01-18T14:23:00Z</time>
      </trkpt>
      <trkpt lat="49.76974" lon="2.18653">
        <ele>91.9</ele>
        <time>2023-01-18T14:23:01Z</time>
      </trkpt>
      <trkpt lat="49.76975" lon="2.18651">
        <ele>91.9</ele>
        <time>2023-01-18T14:23:02Z</time>
      </trkpt>
      <trkpt lat="49.76975" lon="2.1865">
        <ele>91.9</ele>
        <time>2023-01-18T14:23:03Z</time>
      </trkpt>
      <trkpt lat="49.76975" lon="2.18648">
        <ele>91.9</ele>
        <time>2023-01-18T14:23:05Z</time>
      </trkpt>
      <trkpt lat="49.76975" lon="2.18646">
        <ele>91.9</ele>
        <time>2023-01-18T14:23:06Z</time>
      </trkpt>
      <trkpt lat="49.76975" lon="2.18642">
        <ele>91.9</ele>
        <time>2023-01-18T14:23:07Z</time>
      </trkpt>
      <trkpt lat="49.76975" lon="2.18641">
        <ele>91.8</ele>
        <time>2023-01-18T14:23:08Z</time>
      </trkpt>
      <trkpt lat="49.76975" lon="2.18639">
        <ele>91.8</ele>
        <time>2023-01-18T14:23:09Z</time>
      </trkpt>
      <trkpt lat="49.76975" lon="2.18638">
        <ele>91.8</ele>
        <time>2023-01-18T14:23:10Z</time>
      </trkpt>
      <trkpt lat="49.76975" lon="2.18636">
        <ele>91.8</ele>
        <time>2023-01-18T14:23:12Z</time>
      </trkpt>
      <trkpt lat="49.76975" lon="2.18634">
        <ele>91.8</ele>
        <time>2023-01-18T14:23:13Z</time>
      </trkpt>
      <trkpt lat="49.76975" lon="2.18631">
        <ele>91.8</ele>
        <time>2023-01-18T14:23:14Z</time>
      </trkpt>
      <trkpt lat="49.76976" lon="2.1863">
        <ele>91.8</ele>
        <time>2023-01-18T14:23:15Z</time>
      </trkpt>
      <trkpt lat="49.76976" lon="2.18628">
        <ele>91.8</ele>
        <time>2023-01-18T14:23:16Z</time>
      </trkpt>
      <trkpt lat="49.76977" lon="2.18626">
        <ele>91.8</ele>
        <time>2023-01-18T14:23:17Z</time>
      </trkpt>
      <trkpt lat="49.76977" lon="2.18624">
        <ele>91.8</ele>
        <time>2023-01-18T14:23:18Z</time>
      </trkpt>
      <trkpt lat="49.76977" lon="2.18622">
        <ele>91.8</ele>
        <time>2023-01-18T14:23:19Z</time>
      </trkpt>
      <trkpt lat="49.76977" lon="2.18621">
        <ele>91.8</ele>
        <time>2023-01-18T14:23:21Z</time>
      </trkpt>
      <trkpt lat="49.76977" lon="2.18619">
        <ele>91.8</ele>
        <time>2023-01-18T14:23:22Z</time>
      </trkpt>
      <trkpt lat="49.76977" lon="2.18616">
        <ele>91.8</ele>
        <time>2023-01-18T14:23:23Z</time>
      </trkpt>
      <trkpt lat="49.76977" lon="2.18615">
        <ele>91.8</ele>
        <time>2023-01-18T14:23:24Z</time>
      </trkpt>
      <trkpt lat="49.76977" lon="2.18613">
        <ele>91.7</ele>
        <time>2023-01-18T14:23:25Z</time>
      </trkpt>
      <trkpt lat="49.76977" lon="2.1861">
        <ele>91.7</ele>
        <time>2023-01-18T14:23:26Z</time>
      </trkpt>
      <trkpt lat="49.76977" lon="2.18608">
        <ele>91.7</ele>
        <time>2023-01-18T14:23:27Z</time>
      </trkpt>
      <trkpt lat="49.76977" lon="2.18607">
        <ele>91.7</ele>
        <time>2023-01-18T14:23:28Z</time>
      </trkpt>
      <trkpt lat="49.76978" lon="2.18606">
        <ele>91.7</ele>
        <time>2023-01-18T14:23:30Z</time>
      </trkpt>
      <trkpt lat="49.76978" lon="2.18604">
        <ele>91.7</ele>
        <time>2023-01-18T14:23:31Z</time>
      </trkpt>
      <trkpt lat="49.76978" lon="2.18602">
        <ele>91.7</ele>
        <time>2023-01-18T14:23:32Z</time>
      </trkpt>
      <trkpt lat="49.76978" lon="2.186">
        <ele>91.7</ele>
        <time>2023-01-18T14:23:33Z</time>
      </trkpt>
      <trkpt lat="49.76978" lon="2.18598">
        <ele>91.7</ele>
        <time>2023-01-18T14:23:34Z</time>
      </trkpt>
      <trkpt lat="49.76979" lon="2.18596">
        <ele>91.7</ele>
        <time>2023-01-18T14:23:35Z</time>
      </trkpt>
      <trkpt lat="49.76979" lon="2.18594">
        <ele>91.7</ele>
        <time>2023-01-18T14:23:36Z</time>
      </trkpt>
      <trkpt lat="49.76979" lon="2.18592">
        <ele>91.7</ele>
        <time>2023-01-18T14:23:37Z</time>
      </trkpt>
      <trkpt lat="49.76979" lon="2.18591">
        <ele>91.7</ele>
        <time>2023-01-18T14:23:38Z</time>
      </trkpt>
      <trkpt lat="49.76979" lon="2.18589">
        <ele>91.7</ele>
        <time>2023-01-18T14:23:40Z</time>
      </trkpt>
      <trkpt lat="49.76979" lon="2.18588">
        <ele>91.7</ele>
        <time>2023-01-18T14:23:41Z</time>
      </trkpt>
      <trkpt lat="49.76979" lon="2.18584">
        <ele>91.7</ele>
        <time>2023-01-18T14:23:42Z</time>
      </trkpt>
      <trkpt lat="49.76979" lon="2.18583">
        <ele>91.7</ele>
        <time>2023-01-18T14:23:43Z</time>
      </trkpt>
      <trkpt lat="49.76979" lon="2.18582">
        <ele>91.7</ele>
        <time>2023-01-18T14:23:44Z</time>
      </trkpt>
      <trkpt lat="49.76978" lon="2.1858">
        <ele>91.7</ele>
        <time>2023-01-18T14:23:45Z</time>
      </trkpt>
      <trkpt lat="49.76978" lon="2.18578">
        <ele>91.7</ele>
        <time>2023-01-18T14:23:46Z</time>
      </trkpt>
      <trkpt lat="49.76978" lon="2.18577">
        <ele>91.6</ele>
        <time>2023-01-18T14:23:47Z</time>
      </trkpt>
      <trkpt lat="49.76978" lon="2.18575">
        <ele>91.6</ele>
        <time>2023-01-18T14:23:48Z</time>
      </trkpt>
      <trkpt lat="49.76978" lon="2.18573">
        <ele>91.6</ele>
        <time>2023-01-18T14:23:50Z</time>
      </trkpt>
      <trkpt lat="49.76978" lon="2.18572">
        <ele>91.6</ele>
        <time>2023-01-18T14:23:51Z</time>
      </trkpt>
      <trkpt lat="49.76978" lon="2.18568">
        <ele>91.6</ele>
        <time>2023-01-18T14:23:52Z</time>
      </trkpt>
      <trkpt lat="49.76978" lon="2.18567">
        <ele>91.6</ele>
        <time>2023-01-18T14:23:53Z</time>
      </trkpt>
      <trkpt lat="49.76979" lon="2.18566">
        <ele>91.6</ele>
        <time>2023-01-18T14:23:54Z</time>
      </trkpt>
      <trkpt lat="49.76979" lon="2.18563">
        <ele>91.6</ele>
        <time>2023-01-18T14:23:55Z</time>
      </trkpt>
      <trkpt lat="49.76979" lon="2.18561">
        <ele>91.6</ele>
        <time>2023-01-18T14:23:57Z</time>
      </trkpt>
      <trkpt lat="49.76979" lon="2.1856">
        <ele>91.6</ele>
        <time>2023-01-18T14:23:58Z</time>
      </trkpt>
      <trkpt lat="49.76979" lon="2.18557">
        <ele>91.6</ele>
        <time>2023-01-18T14:23:59Z</time>
      </trkpt>
      <trkpt lat="49.76979" lon="2.18556">
        <ele>91.6</ele>
        <time>2023-01-18T14:24:00Z</time>
      </trkpt>
      <trkpt lat="49.76979" lon="2.18555">
        <ele>91.6</ele>
        <time>2023-01-18T14:24:01Z</time>
      </trkpt>
      <trkpt lat="49.76979" lon="2.18551">
        <ele>91.6</ele>
        <time>2023-01-18T14:24:03Z</time>
      </trkpt>
      <trkpt lat="49.76979" lon="2.1855">
        <ele>91.6</ele>
        <time>2023-01-18T14:24:04Z</time>
      </trkpt>
      <trkpt lat="49.76979" lon="2.18549">
        <ele>91.6</ele>
        <time>2023-01-18T14:24:05Z</time>
      </trkpt>
      <trkpt lat="49.76979" lon="2.18546">
        <ele>91.6</ele>
        <time>2023-01-18T14:24:06Z</time>
      </trkpt>
      <trkpt lat="49.76979" lon="2.18544">
        <ele>91.6</ele>
        <time>2023-01-18T14:24:07Z</time>
      </trkpt>
      <trkpt lat="49.76979" lon="2.18543">
        <ele>91.6</ele>
        <time>2023-01-18T14:24:08Z</time>
      </trkpt>
      <trkpt lat="49.76979" lon="2.18541">
        <ele>91.6</ele>
        <time>2023-01-18T14:24:09Z</time>
      </trkpt>
      <trkpt lat="49.76979" lon="2.18539">
        <ele>91.6</ele>
        <time>2023-01-18T14:24:10Z</time>
      </trkpt>
      <trkpt lat="49.76979" lon="2.18537">
        <ele>91.6</ele>
        <time>2023-01-18T14:24:12Z</time>
      </trkpt>
      <trkpt lat="49.76979" lon="2.18536">
        <ele>91.6</ele>
        <time>2023-01-18T14:24:13Z</time>
      </trkpt>
      <trkpt lat="49.76979" lon="2.18533">
        <ele>91.6</ele>
        <time>2023-01-18T14:24:14Z</time>
      </trkpt>
      <trkpt lat="49.76979" lon="2.18532">
        <ele>91.6</ele>
        <time>2023-01-18T14:24:15Z</time>
      </trkpt>
      <trkpt lat="49.76979" lon="2.1853">
        <ele>91.6</ele>
        <time>2023-01-18T14:24:16Z</time>
      </trkpt>
      <trkpt lat="49.76979" lon="2.18528">
        <ele>91.6</ele>
        <time>2023-01-18T14:24:17Z</time>
      </trkpt>
      <trkpt lat="49.76978" lon="2.18525">
        <ele>91.6</ele>
        <time>2023-01-18T14:24:18Z</time>
      </trkpt>
      <trkpt lat="49.76978" lon="2.18523">
        <ele>91.6</ele>
        <time>2023-01-18T14:24:19Z</time>
      </trkpt>
      <trkpt lat="49.76978" lon="2.18522">
        <ele>91.6</ele>
        <time>2023-01-18T14:24:20Z</time>
      </trkpt>
      <trkpt lat="49.76978" lon="2.18519">
        <ele>91.6</ele>
        <time>2023-01-18T14:24:22Z</time>
      </trkpt>
      <trkpt lat="49.76978" lon="2.18517">
        <ele>91.6</ele>
        <time>2023-01-18T14:24:23Z</time>
      </trkpt>
      <trkpt lat="49.76978" lon="2.18516">
        <ele>91.6</ele>
        <time>2023-01-18T14:24:24Z</time>
      </trkpt>
      <trkpt lat="49.76978" lon="2.18512">
        <ele>91.6</ele>
        <time>2023-01-18T14:24:25Z</time>
      </trkpt>
      <trkpt lat="49.76978" lon="2.18511">
        <ele>91.6</ele>
        <time>2023-01-18T14:24:26Z</time>
      </trkpt>
      <trkpt lat="49.76978" lon="2.1851">
        <ele>91.6</ele>
        <time>2023-01-18T14:24:27Z</time>
      </trkpt>
      <trkpt lat="49.76977" lon="2.18508">
        <ele>91.6</ele>
        <time>2023-01-18T14:24:29Z</time>
      </trkpt>
      <trkpt lat="49.76977" lon="2.18505">
        <ele>91.6</ele>
        <time>2023-01-18T14:24:30Z</time>
      </trkpt>
      <trkpt lat="49.76977" lon="2.18504">
        <ele>91.6</ele>
        <time>2023-01-18T14:24:31Z</time>
      </trkpt>
      <trkpt lat="49.76977" lon="2.18502">
        <ele>91.6</ele>
        <time>2023-01-18T14:24:32Z</time>
      </trkpt>
      <trkpt lat="49.76977" lon="2.18501">
        <ele>91.6</ele>
        <time>2023-01-18T14:24:33Z</time>
      </trkpt>
      <trkpt lat="49.76977" lon="2.18497">
        <ele>91.6</ele>
        <time>2023-01-18T14:24:35Z</time>
      </trkpt>
      <trkpt lat="49.76977" lon="2.18496">
        <ele>91.6</ele>
        <time>2023-01-18T14:24:36Z</time>
      </trkpt>
      <trkpt lat="49.76977" lon="2.18494">
        <ele>91.6</ele>
        <time>2023-01-18T14:24:37Z</time>
      </trkpt>
      <trkpt lat="49.76978" lon="2.18492">
        <ele>91.6</ele>
        <time>2023-01-18T14:24:38Z</time>
      </trkpt>
      <trkpt lat="49.76978" lon="2.1849">
        <ele>91.6</ele>
        <time>2023-01-18T14:24:39Z</time>
      </trkpt>
      <trkpt lat="49.76978" lon="2.18487">
        <ele>91.6</ele>
        <time>2023-01-18T14:24:40Z</time>
      </trkpt>
      <trkpt lat="49.76978" lon="2.18486">
        <ele>91.6</ele>
        <time>2023-01-18T14:24:41Z</time>
      </trkpt>
      <trkpt lat="49.76978" lon="2.18485">
        <ele>91.6</ele>
        <time>2023-01-18T14:24:42Z</time>
      </trkpt>
      <trkpt lat="49.76978" lon="2.18483">
        <ele>91.6</ele>
        <time>2023-01-18T14:24:43Z</time>
      </trkpt>
      <trkpt lat="49.76978" lon="2.18481">
        <ele>91.6</ele>
        <time>2023-01-18T14:24:44Z</time>
      </trkpt>
      <trkpt lat="49.76977" lon="2.18479">
        <ele>91.6</ele>
        <time>2023-01-18T14:24:46Z</time>
      </trkpt>
      <trkpt lat="49.76977" lon="2.18478">
        <ele>91.6</ele>
        <time>2023-01-18T14:24:47Z</time>
      </trkpt>
      <trkpt lat="49.76977" lon="2.18476">
        <ele>91.6</ele>
        <time>2023-01-18T14:24:48Z</time>
      </trkpt>
      <trkpt lat="49.76976" lon="2.18473">
        <ele>91.6</ele>
        <time>2023-01-18T14:24:49Z</time>
      </trkpt>
      <trkpt lat="49.76976" lon="2.18471">
        <ele>91.6</ele>
        <time>2023-01-18T14:24:50Z</time>
      </trkpt>
      <trkpt lat="49.76976" lon="2.18469">
        <ele>91.6</ele>
        <time>2023-01-18T14:24:51Z</time>
      </trkpt>
      <trkpt lat="49.76976" lon="2.18468">
        <ele>91.6</ele>
        <time>2023-01-18T14:24:52Z</time>
      </trkpt>
      <trkpt lat="49.76976" lon="2.18466">
        <ele>91.6</ele>
        <time>2023-01-18T14:24:54Z</time>
      </trkpt>
      <trkpt lat="49.76976" lon="2.18463">
        <ele>91.6</ele>
        <time>2023-01-18T14:24:55Z</time>
      </trkpt>
      <trkpt lat="49.76977" lon="2.18462">
        <ele>91.6</ele>
        <time>2023-01-18T14:24:56Z</time>
      </trkpt>
      <trkpt lat="49.76977" lon="2.1846">
        <ele>91.6</ele>
        <time>2023-01-18T14:24:57Z</time>
      </trkpt>
      <trkpt lat="49.76978" lon="2.18456">
        <ele>91.6</ele>
        <time>2023-01-18T14:24:58Z</time>
      </trkpt>
      <trkpt lat="49.76978" lon="2.18454">
        <ele>91.6</ele>
        <time>2023-01-18T14:25:00Z</time>
      </trkpt>
      <trkpt lat="49.76978" lon="2.18453">
        <ele>91.6</ele>
        <time>2023-01-18T14:25:01Z</time>
      </trkpt>
      <trkpt lat="49.76979" lon="2.18451">
        <ele>91.6</ele>
        <time>2023-01-18T14:25:02Z</time>
      </trkpt>
      <trkpt lat="49.76979" lon="2.18449">
        <ele>91.6</ele>
        <time>2023-01-18T14:25:03Z</time>
      </trkpt>
      <trkpt lat="49.76979" lon="2.18447">
        <ele>91.6</ele>
        <time>2023-01-18T14:25:04Z</time>
      </trkpt>
      <trkpt lat="49.76979" lon="2.18445">
        <ele>91.6</ele>
        <time>2023-01-18T14:25:05Z</time>
      </trkpt>
      <trkpt lat="49.76979" lon="2.18442">
        <ele>91.6</ele>
        <time>2023-01-18T14:25:06Z</time>
      </trkpt>
      <trkpt lat="49.76979" lon="2.18441">
        <ele>91.6</ele>
        <time>2023-01-18T14:25:07Z</time>
      </trkpt>
      <trkpt lat="49.76979" lon="2.18439">
        <ele>91.7</ele>
        <time>2023-01-18T14:25:08Z</time>
      </trkpt>
      <trkpt lat="49.76979" lon="2.18437">
        <ele>91.7</ele>
        <time>2023-01-18T14:25:09Z</time>
      </trkpt>
      <trkpt lat="49.76979" lon="2.18436">
        <ele>91.7</ele>
        <time>2023-01-18T14:25:11Z</time>
      </trkpt>
      <trkpt lat="49.76979" lon="2.18434">
        <ele>91.7</ele>
        <time>2023-01-18T14:25:12Z</time>
      </trkpt>
      <trkpt lat="49.76979" lon="2.1843">
        <ele>91.7</ele>
        <time>2023-01-18T14:25:13Z</time>
      </trkpt>
      <trkpt lat="49.7698" lon="2.18429">
        <ele>91.7</ele>
        <time>2023-01-18T14:25:14Z</time>
      </trkpt>
      <trkpt lat="49.7698" lon="2.18428">
        <ele>91.7</ele>
        <time>2023-01-18T14:25:15Z</time>
      </trkpt>
      <trkpt lat="49.7698" lon="2.18425">
        <ele>91.7</ele>
        <time>2023-01-18T14:25:16Z</time>
      </trkpt>
      <trkpt lat="49.7698" lon="2.18423">
        <ele>91.7</ele>
        <time>2023-01-18T14:25:17Z</time>
      </trkpt>
      <trkpt lat="49.76981" lon="2.18422">
        <ele>91.8</ele>
        <time>2023-01-18T14:25:18Z</time>
      </trkpt>
      <trkpt lat="49.76981" lon="2.18419">
        <ele>91.8</ele>
        <time>2023-01-18T14:25:19Z</time>
      </trkpt>
      <trkpt lat="49.76982" lon="2.18418">
        <ele>91.8</ele>
        <time>2023-01-18T14:25:20Z</time>
      </trkpt>
      <trkpt lat="49.76982" lon="2.18417">
        <ele>91.8</ele>
        <time>2023-01-18T14:25:21Z</time>
      </trkpt>
      <trkpt lat="49.76982" lon="2.18414">
        <ele>91.8</ele>
        <time>2023-01-18T14:25:23Z</time>
      </trkpt>
      <trkpt lat="49.76983" lon="2.18412">
        <ele>91.8</ele>
        <time>2023-01-18T14:25:24Z</time>
      </trkpt>
      <trkpt lat="49.76983" lon="2.18411">
        <ele>91.8</ele>
        <time>2023-01-18T14:25:25Z</time>
      </trkpt>
      <trkpt lat="49.76983" lon="2.18408">
        <ele>91.9</ele>
        <time>2023-01-18T14:25:27Z</time>
      </trkpt>
      <trkpt lat="49.76983" lon="2.18407">
        <ele>91.9</ele>
        <time>2023-01-18T14:25:28Z</time>
      </trkpt>
      <trkpt lat="49.76983" lon="2.18406">
        <ele>91.9</ele>
        <time>2023-01-18T14:25:29Z</time>
      </trkpt>
      <trkpt lat="49.76983" lon="2.18405">
        <ele>91.9</ele>
        <time>2023-01-18T14:25:30Z</time>
      </trkpt>
      <trkpt lat="49.76982" lon="2.18404">
        <ele>91.9</ele>
        <time>2023-01-18T14:25:31Z</time>
      </trkpt>
      <trkpt lat="49.76982" lon="2.18402">
        <ele>91.9</ele>
        <time>2023-01-18T14:25:32Z</time>
      </trkpt>
      <trkpt lat="49.76982" lon="2.184">
        <ele>92</ele>
        <time>2023-01-18T14:25:33Z</time>
      </trkpt>
      <trkpt lat="49.76982" lon="2.18396">
        <ele>92</ele>
        <time>2023-01-18T14:25:34Z</time>
      </trkpt>
      <trkpt lat="49.76982" lon="2.18395">
        <ele>92</ele>
        <time>2023-01-18T14:25:36Z</time>
      </trkpt>
      <trkpt lat="49.76982" lon="2.18394">
        <ele>92</ele>
        <time>2023-01-18T14:25:37Z</time>
      </trkpt>
      <trkpt lat="49.76982" lon="2.18391">
        <ele>92.1</ele>
        <time>2023-01-18T14:25:38Z</time>
      </trkpt>
      <trkpt lat="49.76982" lon="2.18389">
        <ele>92.1</ele>
        <time>2023-01-18T14:25:39Z</time>
      </trkpt>
      <trkpt lat="49.76982" lon="2.18388">
        <ele>92.1</ele>
        <time>2023-01-18T14:25:40Z</time>
      </trkpt>
      <trkpt lat="49.76982" lon="2.18386">
        <ele>92.1</ele>
        <time>2023-01-18T14:25:41Z</time>
      </trkpt>
      <trkpt lat="49.76981" lon="2.18384">
        <ele>92.2</ele>
        <time>2023-01-18T14:25:42Z</time>
      </trkpt>
      <trkpt lat="49.76981" lon="2.18383">
        <ele>92.2</ele>
        <time>2023-01-18T14:25:43Z</time>
      </trkpt>
      <trkpt lat="49.76981" lon="2.1838">
        <ele>92.2</ele>
        <time>2023-01-18T14:25:44Z</time>
      </trkpt>
      <trkpt lat="49.76981" lon="2.18379">
        <ele>92.3</ele>
        <time>2023-01-18T14:25:45Z</time>
      </trkpt>
      <trkpt lat="49.76981" lon="2.18377">
        <ele>92.3</ele>
        <time>2023-01-18T14:25:47Z</time>
      </trkpt>
      <trkpt lat="49.76981" lon="2.18375">
        <ele>92.3</ele>
        <time>2023-01-18T14:25:48Z</time>
      </trkpt>
      <trkpt lat="49.7698" lon="2.18373">
        <ele>92.4</ele>
        <time>2023-01-18T14:25:49Z</time>
      </trkpt>
      <trkpt lat="49.7698" lon="2.1837">
        <ele>92.4</ele>
        <time>2023-01-18T14:25:50Z</time>
      </trkpt>
      <trkpt lat="49.7698" lon="2.18368">
        <ele>92.5</ele>
        <time>2023-01-18T14:25:51Z</time>
      </trkpt>
      <trkpt lat="49.7698" lon="2.18366">
        <ele>92.5</ele>
        <time>2023-01-18T14:25:52Z</time>
      </trkpt>
      <trkpt lat="49.76979" lon="2.18364">
        <ele>92.5</ele>
        <time>2023-01-18T14:25:54Z</time>
      </trkpt>
      <trkpt lat="49.76979" lon="2.18361">
        <ele>92.6</ele>
        <time>2023-01-18T14:25:55Z</time>
      </trkpt>
      <trkpt lat="49.76979" lon="2.18359">
        <ele>92.6</ele>
        <time>2023-01-18T14:25:56Z</time>
      </trkpt>
      <trkpt lat="49.76979" lon="2.18356">
        <ele>92.7</ele>
        <time>2023-01-18T14:25:58Z</time>
      </trkpt>
      <trkpt lat="49.7698" lon="2.18354">
        <ele>92.7</ele>
        <time>2023-01-18T14:25:59Z</time>
      </trkpt>
      <trkpt lat="49.7698" lon="2.18353">
        <ele>92.8</ele>
        <time>2023-01-18T14:26:00Z</time>
      </trkpt>
      <trkpt lat="49.7698" lon="2.18352">
        <ele>92.8</ele>
        <time>2023-01-18T14:26:01Z</time>
      </trkpt>
      <trkpt lat="49.7698" lon="2.1835">
        <ele>92.8</ele>
        <time>2023-01-18T14:26:02Z</time>
      </trkpt>
      <trkpt lat="49.7698" lon="2.18348">
        <ele>92.9</ele>
        <time>2023-01-18T14:26:03Z</time>
      </trkpt>
      <trkpt lat="49.7698" lon="2.18346">
        <ele>92.9</ele>
        <time>2023-01-18T14:26:04Z</time>
      </trkpt>
      <trkpt lat="49.7698" lon="2.18343">
        <ele>93</ele>
        <time>2023-01-18T14:26:05Z</time>
      </trkpt>
      <trkpt lat="49.7698" lon="2.18342">
        <ele>93</ele>
        <time>2023-01-18T14:26:06Z</time>
      </trkpt>
      <trkpt lat="49.7698" lon="2.1834">
        <ele>93</ele>
        <time>2023-01-18T14:26:07Z</time>
      </trkpt>
      <trkpt lat="49.7698" lon="2.18338">
        <ele>93.1</ele>
        <time>2023-01-18T14:26:08Z</time>
      </trkpt>
      <trkpt lat="49.7698" lon="2.18336">
        <ele>93.1</ele>
        <time>2023-01-18T14:26:10Z</time>
      </trkpt>
      <trkpt lat="49.7698" lon="2.18334">
        <ele>93.1</ele>
        <time>2023-01-18T14:26:11Z</time>
      </trkpt>
      <trkpt lat="49.7698" lon="2.18331">
        <ele>93.2</ele>
        <time>2023-01-18T14:26:12Z</time>
      </trkpt>
      <trkpt lat="49.7698" lon="2.1833">
        <ele>93.2</ele>
        <time>2023-01-18T14:26:13Z</time>
      </trkpt>
      <trkpt lat="49.7698" lon="2.18328">
        <ele>93.3</ele>
        <time>2023-01-18T14:26:14Z</time>
      </trkpt>
      <trkpt lat="49.7698" lon="2.18325">
        <ele>93.3</ele>
        <time>2023-01-18T14:26:15Z</time>
      </trkpt>
      <trkpt lat="49.7698" lon="2.18324">
        <ele>93.4</ele>
        <time>2023-01-18T14:26:16Z</time>
      </trkpt>
      <trkpt lat="49.7698" lon="2.18322">
        <ele>93.4</ele>
        <time>2023-01-18T14:26:17Z</time>
      </trkpt>
      <trkpt lat="49.76981" lon="2.18319">
        <ele>93.4</ele>
        <time>2023-01-18T14:26:18Z</time>
      </trkpt>
      <trkpt lat="49.76981" lon="2.18318">
        <ele>93.5</ele>
        <time>2023-01-18T14:26:20Z</time>
      </trkpt>
      <trkpt lat="49.76981" lon="2.18317">
        <ele>93.5</ele>
        <time>2023-01-18T14:26:21Z</time>
      </trkpt>
      <trkpt lat="49.76981" lon="2.18315">
        <ele>93.5</ele>
        <time>2023-01-18T14:26:22Z</time>
      </trkpt>
      <trkpt lat="49.76982" lon="2.18313">
        <ele>93.6</ele>
        <time>2023-01-18T14:26:23Z</time>
      </trkpt>
      <trkpt lat="49.76982" lon="2.18312">
        <ele>93.6</ele>
        <time>2023-01-18T14:26:24Z</time>
      </trkpt>
      <trkpt lat="49.76982" lon="2.18309">
        <ele>93.7</ele>
        <time>2023-01-18T14:26:26Z</time>
      </trkpt>
      <trkpt lat="49.76983" lon="2.18307">
        <ele>93.7</ele>
        <time>2023-01-18T14:26:27Z</time>
      </trkpt>
      <trkpt lat="49.76983" lon="2.18305">
        <ele>93.7</ele>
        <time>2023-01-18T14:26:28Z</time>
      </trkpt>
      <trkpt lat="49.76983" lon="2.18304">
        <ele>93.7</ele>
        <time>2023-01-18T14:26:29Z</time>
      </trkpt>
      <trkpt lat="49.76983" lon="2.18302">
        <ele>93.8</ele>
        <time>2023-01-18T14:26:30Z</time>
      </trkpt>
      <trkpt lat="49.76983" lon="2.18299">
        <ele>93.8</ele>
        <time>2023-01-18T14:26:31Z</time>
      </trkpt>
      <trkpt lat="49.76984" lon="2.18297">
        <ele>93.8</ele>
        <time>2023-01-18T14:26:32Z</time>
      </trkpt>
      <trkpt lat="49.76984" lon="2.18296">
        <ele>93.8</ele>
        <time>2023-01-18T14:26:33Z</time>
      </trkpt>
      <trkpt lat="49.76984" lon="2.18294">
        <ele>93.9</ele>
        <time>2023-01-18T14:26:35Z</time>
      </trkpt>
      <trkpt lat="49.76984" lon="2.18292">
        <ele>93.9</ele>
        <time>2023-01-18T14:26:36Z</time>
      </trkpt>
      <trkpt lat="49.76984" lon="2.18291">
        <ele>93.9</ele>
        <time>2023-01-18T14:26:37Z</time>
      </trkpt>
      <trkpt lat="49.76984" lon="2.18289">
        <ele>93.9</ele>
        <time>2023-01-18T14:26:38Z</time>
      </trkpt>
      <trkpt lat="49.76984" lon="2.18287">
        <ele>93.9</ele>
        <time>2023-01-18T14:26:39Z</time>
      </trkpt>
      <trkpt lat="49.76984" lon="2.18286">
        <ele>93.9</ele>
        <time>2023-01-18T14:26:40Z</time>
      </trkpt>
      <trkpt lat="49.76985" lon="2.18282">
        <ele>93.9</ele>
        <time>2023-01-18T14:26:42Z</time>
      </trkpt>
      <trkpt lat="49.76985" lon="2.1828">
        <ele>93.9</ele>
        <time>2023-01-18T14:26:44Z</time>
      </trkpt>
      <trkpt lat="49.76986" lon="2.18278">
        <ele>93.9</ele>
        <time>2023-01-18T14:26:45Z</time>
      </trkpt>
      <trkpt lat="49.76986" lon="2.18277">
        <ele>93.9</ele>
        <time>2023-01-18T14:26:46Z</time>
      </trkpt>
      <trkpt lat="49.76986" lon="2.18275">
        <ele>93.9</ele>
        <time>2023-01-18T14:26:47Z</time>
      </trkpt>
      <trkpt lat="49.76986" lon="2.18272">
        <ele>93.9</ele>
        <time>2023-01-18T14:26:49Z</time>
      </trkpt>
      <trkpt lat="49.76986" lon="2.18271">
        <ele>93.9</ele>
        <time>2023-01-18T14:26:50Z</time>
      </trkpt>
      <trkpt lat="49.76986" lon="2.18269">
        <ele>93.9</ele>
        <time>2023-01-18T14:26:51Z</time>
      </trkpt>
      <trkpt lat="49.76986" lon="2.18268">
        <ele>93.9</ele>
        <time>2023-01-18T14:26:52Z</time>
      </trkpt>
      <trkpt lat="49.76986" lon="2.18266">
        <ele>93.9</ele>
        <time>2023-01-18T14:26:53Z</time>
      </trkpt>
      <trkpt lat="49.76986" lon="2.18264">
        <ele>93.9</ele>
        <time>2023-01-18T14:26:54Z</time>
      </trkpt>
      <trkpt lat="49.76986" lon="2.18261">
        <ele>93.8</ele>
        <time>2023-01-18T14:26:55Z</time>
      </trkpt>
      <trkpt lat="49.76986" lon="2.1826">
        <ele>93.8</ele>
        <time>2023-01-18T14:26:56Z</time>
      </trkpt>
      <trkpt lat="49.76986" lon="2.18258">
        <ele>93.8</ele>
        <time>2023-01-18T14:26:57Z</time>
      </trkpt>
      <trkpt lat="49.76986" lon="2.18255">
        <ele>93.8</ele>
        <time>2023-01-18T14:26:58Z</time>
      </trkpt>
      <trkpt lat="49.76986" lon="2.18254">
        <ele>93.7</ele>
        <time>2023-01-18T14:26:59Z</time>
      </trkpt>
      <trkpt lat="49.76986" lon="2.18252">
        <ele>93.7</ele>
        <time>2023-01-18T14:27:01Z</time>
      </trkpt>
      <trkpt lat="49.76986" lon="2.1825">
        <ele>93.7</ele>
        <time>2023-01-18T14:27:02Z</time>
      </trkpt>
      <trkpt lat="49.76987" lon="2.18249">
        <ele>93.7</ele>
        <time>2023-01-18T14:27:03Z</time>
      </trkpt>
      <trkpt lat="49.76987" lon="2.18247">
        <ele>93.6</ele>
        <time>2023-01-18T14:27:04Z</time>
      </trkpt>
      <trkpt lat="49.76987" lon="2.18245">
        <ele>93.6</ele>
        <time>2023-01-18T14:27:05Z</time>
      </trkpt>
      <trkpt lat="49.76988" lon="2.18243">
        <ele>93.6</ele>
        <time>2023-01-18T14:27:06Z</time>
      </trkpt>
      <trkpt lat="49.76988" lon="2.1824">
        <ele>93.5</ele>
        <time>2023-01-18T14:27:07Z</time>
      </trkpt>
      <trkpt lat="49.76988" lon="2.18239">
        <ele>93.5</ele>
        <time>2023-01-18T14:27:08Z</time>
      </trkpt>
      <trkpt lat="49.76988" lon="2.18238">
        <ele>93.4</ele>
        <time>2023-01-18T14:27:09Z</time>
      </trkpt>
      <trkpt lat="49.76989" lon="2.18236">
        <ele>93.4</ele>
        <time>2023-01-18T14:27:10Z</time>
      </trkpt>
      <trkpt lat="49.76989" lon="2.18234">
        <ele>93.4</ele>
        <time>2023-01-18T14:27:11Z</time>
      </trkpt>
      <trkpt lat="49.76989" lon="2.18233">
        <ele>93.3</ele>
        <time>2023-01-18T14:27:12Z</time>
      </trkpt>
      <trkpt lat="49.76989" lon="2.1823">
        <ele>93.3</ele>
        <time>2023-01-18T14:27:14Z</time>
      </trkpt>
      <trkpt lat="49.76989" lon="2.18228">
        <ele>93.2</ele>
        <time>2023-01-18T14:27:15Z</time>
      </trkpt>
      <trkpt lat="49.7699" lon="2.18227">
        <ele>93.2</ele>
        <time>2023-01-18T14:27:16Z</time>
      </trkpt>
      <trkpt lat="49.7699" lon="2.18224">
        <ele>93.1</ele>
        <time>2023-01-18T14:27:17Z</time>
      </trkpt>
      <trkpt lat="49.7699" lon="2.18223">
        <ele>93.1</ele>
        <time>2023-01-18T14:27:18Z</time>
      </trkpt>
      <trkpt lat="49.76991" lon="2.18221">
        <ele>93.1</ele>
        <time>2023-01-18T14:27:19Z</time>
      </trkpt>
      <trkpt lat="49.76991" lon="2.18218">
        <ele>93</ele>
        <time>2023-01-18T14:27:20Z</time>
      </trkpt>
      <trkpt lat="49.76992" lon="2.18216">
        <ele>92.9</ele>
        <time>2023-01-18T14:27:22Z</time>
      </trkpt>
      <trkpt lat="49.76992" lon="2.18215">
        <ele>92.9</ele>
        <time>2023-01-18T14:27:23Z</time>
      </trkpt>
      <trkpt lat="49.76993" lon="2.18213">
        <ele>92.8</ele>
        <time>2023-01-18T14:27:24Z</time>
      </trkpt>
      <trkpt lat="49.76993" lon="2.18212">
        <ele>92.8</ele>
        <time>2023-01-18T14:27:25Z</time>
      </trkpt>
      <trkpt lat="49.76994" lon="2.1821">
        <ele>92.7</ele>
        <time>2023-01-18T14:27:26Z</time>
      </trkpt>
      <trkpt lat="49.76994" lon="2.18209">
        <ele>92.7</ele>
        <time>2023-01-18T14:27:27Z</time>
      </trkpt>
      <trkpt lat="49.76994" lon="2.18207">
        <ele>92.7</ele>
        <time>2023-01-18T14:27:28Z</time>
      </trkpt>
      <trkpt lat="49.76995" lon="2.18205">
        <ele>92.6</ele>
        <time>2023-01-18T14:27:29Z</time>
      </trkpt>
      <trkpt lat="49.76996" lon="2.18203">
        <ele>92.5</ele>
        <time>2023-01-18T14:27:30Z</time>
      </trkpt>
      <trkpt lat="49.76996" lon="2.18202">
        <ele>92.5</ele>
        <time>2023-01-18T14:27:32Z</time>
      </trkpt>
      <trkpt lat="49.76997" lon="2.18199">
        <ele>92.4</ele>
        <time>2023-01-18T14:27:33Z</time>
      </trkpt>
      <trkpt lat="49.76997" lon="2.18197">
        <ele>92.3</ele>
        <time>2023-01-18T14:27:34Z</time>
      </trkpt>
      <trkpt lat="49.76997" lon="2.18196">
        <ele>92.3</ele>
        <time>2023-01-18T14:27:35Z</time>
      </trkpt>
      <trkpt lat="49.76998" lon="2.18193">
        <ele>92.2</ele>
        <time>2023-01-18T14:27:36Z</time>
      </trkpt>
      <trkpt lat="49.76998" lon="2.18192">
        <ele>92.2</ele>
        <time>2023-01-18T14:27:37Z</time>
      </trkpt>
      <trkpt lat="49.76998" lon="2.18191">
        <ele>92.1</ele>
        <time>2023-01-18T14:27:38Z</time>
      </trkpt>
      <trkpt lat="49.76999" lon="2.18189">
        <ele>92.1</ele>
        <time>2023-01-18T14:27:39Z</time>
      </trkpt>
      <trkpt lat="49.76999" lon="2.18186">
        <ele>92</ele>
        <time>2023-01-18T14:27:40Z</time>
      </trkpt>
      <trkpt lat="49.77" lon="2.18185">
        <ele>92</ele>
        <time>2023-01-18T14:27:41Z</time>
      </trkpt>
      <trkpt lat="49.77" lon="2.18184">
        <ele>91.9</ele>
        <time>2023-01-18T14:27:42Z</time>
      </trkpt>
      <trkpt lat="49.77001" lon="2.18183">
        <ele>91.9</ele>
        <time>2023-01-18T14:27:43Z</time>
      </trkpt>
      <trkpt lat="49.77001" lon="2.18181">
        <ele>91.8</ele>
        <time>2023-01-18T14:27:45Z</time>
      </trkpt>
      <trkpt lat="49.77002" lon="2.18179">
        <ele>91.7</ele>
        <time>2023-01-18T14:27:46Z</time>
      </trkpt>
      <trkpt lat="49.77002" lon="2.18177">
        <ele>91.7</ele>
        <time>2023-01-18T14:27:47Z</time>
      </trkpt>
      <trkpt lat="49.77003" lon="2.18176">
        <ele>91.6</ele>
        <time>2023-01-18T14:27:48Z</time>
      </trkpt>
      <trkpt lat="49.77004" lon="2.18173">
        <ele>91.5</ele>
        <time>2023-01-18T14:27:49Z</time>
      </trkpt>
      <trkpt lat="49.77005" lon="2.18169">
        <ele>91.4</ele>
        <time>2023-01-18T14:27:50Z</time>
      </trkpt>
      <trkpt lat="49.77005" lon="2.18167">
        <ele>91.3</ele>
        <time>2023-01-18T14:27:52Z</time>
      </trkpt>
      <trkpt lat="49.77005" lon="2.18166">
        <ele>91.3</ele>
        <time>2023-01-18T14:27:53Z</time>
      </trkpt>
      <trkpt lat="49.77005" lon="2.18165">
        <ele>91.2</ele>
        <time>2023-01-18T14:27:54Z</time>
      </trkpt>
      <trkpt lat="49.77005" lon="2.18163">
        <ele>91.2</ele>
        <time>2023-01-18T14:27:55Z</time>
      </trkpt>
      <trkpt lat="49.77006" lon="2.1816">
        <ele>91.1</ele>
        <time>2023-01-18T14:27:56Z</time>
      </trkpt>
      <trkpt lat="49.77006" lon="2.18159">
        <ele>91</ele>
        <time>2023-01-18T14:27:57Z</time>
      </trkpt>
      <trkpt lat="49.77006" lon="2.18158">
        <ele>91</ele>
        <time>2023-01-18T14:27:58Z</time>
      </trkpt>
      <trkpt lat="49.77007" lon="2.18156">
        <ele>90.9</ele>
        <time>2023-01-18T14:27:59Z</time>
      </trkpt>
      <trkpt lat="49.77007" lon="2.18153">
        <ele>90.8</ele>
        <time>2023-01-18T14:28:01Z</time>
      </trkpt>
      <trkpt lat="49.77007" lon="2.18151">
        <ele>90.8</ele>
        <time>2023-01-18T14:28:02Z</time>
      </trkpt>
      <trkpt lat="49.77007" lon="2.1815">
        <ele>90.7</ele>
        <time>2023-01-18T14:28:03Z</time>
      </trkpt>
      <trkpt lat="49.77008" lon="2.18148">
        <ele>90.7</ele>
        <time>2023-01-18T14:28:04Z</time>
      </trkpt>
      <trkpt lat="49.77008" lon="2.18145">
        <ele>90.6</ele>
        <time>2023-01-18T14:28:05Z</time>
      </trkpt>
      <trkpt lat="49.77008" lon="2.18143">
        <ele>90.5</ele>
        <time>2023-01-18T14:28:06Z</time>
      </trkpt>
      <trkpt lat="49.77008" lon="2.18142">
        <ele>90.5</ele>
        <time>2023-01-18T14:28:07Z</time>
      </trkpt>
      <trkpt lat="49.77008" lon="2.18139">
        <ele>90.4</ele>
        <time>2023-01-18T14:28:08Z</time>
      </trkpt>
      <trkpt lat="49.77009" lon="2.18137">
        <ele>90.3</ele>
        <time>2023-01-18T14:28:09Z</time>
      </trkpt>
      <trkpt lat="49.77009" lon="2.18136">
        <ele>90.3</ele>
        <time>2023-01-18T14:28:10Z</time>
      </trkpt>
      <trkpt lat="49.77009" lon="2.18135">
        <ele>90.2</ele>
        <time>2023-01-18T14:28:12Z</time>
      </trkpt>
      <trkpt lat="49.77009" lon="2.18133">
        <ele>90.2</ele>
        <time>2023-01-18T14:28:13Z</time>
      </trkpt>
      <trkpt lat="49.77009" lon="2.18131">
        <ele>90.1</ele>
        <time>2023-01-18T14:28:14Z</time>
      </trkpt>
      <trkpt lat="49.77009" lon="2.18129">
        <ele>90.1</ele>
        <time>2023-01-18T14:28:15Z</time>
      </trkpt>
      <trkpt lat="49.7701" lon="2.18127">
        <ele>90</ele>
        <time>2023-01-18T14:28:16Z</time>
      </trkpt>
      <trkpt lat="49.7701" lon="2.18125">
        <ele>89.9</ele>
        <time>2023-01-18T14:28:17Z</time>
      </trkpt>
      <trkpt lat="49.7701" lon="2.18123">
        <ele>89.9</ele>
        <time>2023-01-18T14:28:18Z</time>
      </trkpt>
      <trkpt lat="49.7701" lon="2.18122">
        <ele>89.8</ele>
        <time>2023-01-18T14:28:19Z</time>
      </trkpt>
      <trkpt lat="49.77011" lon="2.18119">
        <ele>89.7</ele>
        <time>2023-01-18T14:28:20Z</time>
      </trkpt>
      <trkpt lat="49.77011" lon="2.18118">
        <ele>89.7</ele>
        <time>2023-01-18T14:28:21Z</time>
      </trkpt>
      <trkpt lat="49.77012" lon="2.18115">
        <ele>89.6</ele>
        <time>2023-01-18T14:28:22Z</time>
      </trkpt>
      <trkpt lat="49.77013" lon="2.18113">
        <ele>89.5</ele>
        <time>2023-01-18T14:28:24Z</time>
      </trkpt>
      <trkpt lat="49.77013" lon="2.18112">
        <ele>89.5</ele>
        <time>2023-01-18T14:28:25Z</time>
      </trkpt>
      <trkpt lat="49.77014" lon="2.1811">
        <ele>89.4</ele>
        <time>2023-01-18T14:28:26Z</time>
      </trkpt>
      <trkpt lat="49.77014" lon="2.18108">
        <ele>89.3</ele>
        <time>2023-01-18T14:28:27Z</time>
      </trkpt>
      <trkpt lat="49.77015" lon="2.18106">
        <ele>89.3</ele>
        <time>2023-01-18T14:28:28Z</time>
      </trkpt>
      <trkpt lat="49.77016" lon="2.18105">
        <ele>89.2</ele>
        <time>2023-01-18T14:28:29Z</time>
      </trkpt>
      <trkpt lat="49.77017" lon="2.18103">
        <ele>89.1</ele>
        <time>2023-01-18T14:28:30Z</time>
      </trkpt>
      <trkpt lat="49.77018" lon="2.18101">
        <ele>89</ele>
        <time>2023-01-18T14:28:31Z</time>
      </trkpt>
      <trkpt lat="49.77018" lon="2.18099">
        <ele>89</ele>
        <time>2023-01-18T14:28:32Z</time>
      </trkpt>
      <trkpt lat="49.77019" lon="2.18098">
        <ele>88.9</ele>
        <time>2023-01-18T14:28:33Z</time>
      </trkpt>
      <trkpt lat="49.77019" lon="2.18096">
        <ele>88.9</ele>
        <time>2023-01-18T14:28:34Z</time>
      </trkpt>
      <trkpt lat="49.7702" lon="2.18094">
        <ele>88.8</ele>
        <time>2023-01-18T14:28:36Z</time>
      </trkpt>
      <trkpt lat="49.7702" lon="2.18093">
        <ele>88.7</ele>
        <time>2023-01-18T14:28:37Z</time>
      </trkpt>
      <trkpt lat="49.77021" lon="2.18092">
        <ele>88.7</ele>
        <time>2023-01-18T14:28:38Z</time>
      </trkpt>
      <trkpt lat="49.77022" lon="2.18089">
        <ele>88.6</ele>
        <time>2023-01-18T14:28:39Z</time>
      </trkpt>
      <trkpt lat="49.77022" lon="2.18088">
        <ele>88.5</ele>
        <time>2023-01-18T14:28:40Z</time>
      </trkpt>
      <trkpt lat="49.77023" lon="2.18086">
        <ele>88.5</ele>
        <time>2023-01-18T14:28:41Z</time>
      </trkpt>
      <trkpt lat="49.77023" lon="2.18085">
        <ele>88.4</ele>
        <time>2023-01-18T14:28:42Z</time>
      </trkpt>
      <trkpt lat="49.77024" lon="2.18084">
        <ele>88.4</ele>
        <time>2023-01-18T14:28:43Z</time>
      </trkpt>
      <trkpt lat="49.77024" lon="2.18082">
        <ele>88.3</ele>
        <time>2023-01-18T14:28:44Z</time>
      </trkpt>
      <trkpt lat="49.77025" lon="2.1808">
        <ele>88.2</ele>
        <time>2023-01-18T14:28:45Z</time>
      </trkpt>
      <trkpt lat="49.77026" lon="2.18079">
        <ele>88.2</ele>
        <time>2023-01-18T14:28:47Z</time>
      </trkpt>
      <trkpt lat="49.77026" lon="2.18077">
        <ele>88.1</ele>
        <time>2023-01-18T14:28:48Z</time>
      </trkpt>
      <trkpt lat="49.77027" lon="2.18074">
        <ele>88</ele>
        <time>2023-01-18T14:28:49Z</time>
      </trkpt>
      <trkpt lat="49.77027" lon="2.18073">
        <ele>88</ele>
        <time>2023-01-18T14:28:50Z</time>
      </trkpt>
      <trkpt lat="49.77028" lon="2.18072">
        <ele>87.9</ele>
        <time>2023-01-18T14:28:51Z</time>
      </trkpt>
      <trkpt lat="49.77028" lon="2.1807">
        <ele>87.9</ele>
        <time>2023-01-18T14:28:52Z</time>
      </trkpt>
      <trkpt lat="49.77029" lon="2.18069">
        <ele>87.8</ele>
        <time>2023-01-18T14:28:53Z</time>
      </trkpt>
      <trkpt lat="49.77029" lon="2.18067">
        <ele>87.8</ele>
        <time>2023-01-18T14:28:54Z</time>
      </trkpt>
      <trkpt lat="49.7703" lon="2.18065">
        <ele>87.7</ele>
        <time>2023-01-18T14:28:55Z</time>
      </trkpt>
      <trkpt lat="49.7703" lon="2.18063">
        <ele>87.6</ele>
        <time>2023-01-18T14:28:56Z</time>
      </trkpt>
      <trkpt lat="49.77031" lon="2.18062">
        <ele>87.6</ele>
        <time>2023-01-18T14:28:57Z</time>
      </trkpt>
      <trkpt lat="49.77032" lon="2.18059">
        <ele>87.5</ele>
        <time>2023-01-18T14:28:59Z</time>
      </trkpt>
      <trkpt lat="49.77032" lon="2.18058">
        <ele>87.4</ele>
        <time>2023-01-18T14:29:00Z</time>
      </trkpt>
      <trkpt lat="49.77033" lon="2.18056">
        <ele>87.4</ele>
        <time>2023-01-18T14:29:01Z</time>
      </trkpt>
      <trkpt lat="49.77033" lon="2.18055">
        <ele>87.3</ele>
        <time>2023-01-18T14:29:02Z</time>
      </trkpt>
      <trkpt lat="49.77034" lon="2.18054">
        <ele>87.3</ele>
        <time>2023-01-18T14:29:03Z</time>
      </trkpt>
      <trkpt lat="49.77034" lon="2.18052">
        <ele>87.2</ele>
        <time>2023-01-18T14:29:04Z</time>
      </trkpt>
      <trkpt lat="49.77035" lon="2.18051">
        <ele>87.2</ele>
        <time>2023-01-18T14:29:05Z</time>
      </trkpt>
      <trkpt lat="49.77035" lon="2.18049">
        <ele>87.1</ele>
        <time>2023-01-18T14:29:06Z</time>
      </trkpt>
      <trkpt lat="49.77036" lon="2.18047">
        <ele>87.1</ele>
        <time>2023-01-18T14:29:07Z</time>
      </trkpt>
      <trkpt lat="49.77036" lon="2.18046">
        <ele>87</ele>
        <time>2023-01-18T14:29:08Z</time>
      </trkpt>
      <trkpt lat="49.77037" lon="2.18045">
        <ele>87</ele>
        <time>2023-01-18T14:29:09Z</time>
      </trkpt>
      <trkpt lat="49.77037" lon="2.18043">
        <ele>86.9</ele>
        <time>2023-01-18T14:29:11Z</time>
      </trkpt>
      <trkpt lat="49.77038" lon="2.18042">
        <ele>86.9</ele>
        <time>2023-01-18T14:29:12Z</time>
      </trkpt>
      <trkpt lat="49.77038" lon="2.18041">
        <ele>86.8</ele>
        <time>2023-01-18T14:29:13Z</time>
      </trkpt>
      <trkpt lat="49.77039" lon="2.1804">
        <ele>86.8</ele>
        <time>2023-01-18T14:29:14Z</time>
      </trkpt>
      <trkpt lat="49.77039" lon="2.18039">
        <ele>86.7</ele>
        <time>2023-01-18T14:29:15Z</time>
      </trkpt>
      <trkpt lat="49.7704" lon="2.18037">
        <ele>86.7</ele>
        <time>2023-01-18T14:29:16Z</time>
      </trkpt>
      <trkpt lat="49.7704" lon="2.18036">
        <ele>86.6</ele>
        <time>2023-01-18T14:29:17Z</time>
      </trkpt>
      <trkpt lat="49.77041" lon="2.18034">
        <ele>86.6</ele>
        <time>2023-01-18T14:29:18Z</time>
      </trkpt>
      <trkpt lat="49.77041" lon="2.18033">
        <ele>86.5</ele>
        <time>2023-01-18T14:29:19Z</time>
      </trkpt>
      <trkpt lat="49.77042" lon="2.18031">
        <ele>86.5</ele>
        <time>2023-01-18T14:29:20Z</time>
      </trkpt>
      <trkpt lat="49.77042" lon="2.18029">
        <ele>86.4</ele>
        <time>2023-01-18T14:29:21Z</time>
      </trkpt>
      <trkpt lat="49.77043" lon="2.18028">
        <ele>86.4</ele>
        <time>2023-01-18T14:29:22Z</time>
      </trkpt>
      <trkpt lat="49.77043" lon="2.18026">
        <ele>86.3</ele>
        <time>2023-01-18T14:29:24Z</time>
      </trkpt>
      <trkpt lat="49.77043" lon="2.18024">
        <ele>86.2</ele>
        <time>2023-01-18T14:29:25Z</time>
      </trkpt>
      <trkpt lat="49.77044" lon="2.18022">
        <ele>86.1</ele>
        <time>2023-01-18T14:29:26Z</time>
      </trkpt>
      <trkpt lat="49.77044" lon="2.1802">
        <ele>86.1</ele>
        <time>2023-01-18T14:29:27Z</time>
      </trkpt>
      <trkpt lat="49.77045" lon="2.18018">
        <ele>86</ele>
        <time>2023-01-18T14:29:28Z</time>
      </trkpt>
      <trkpt lat="49.77046" lon="2.18016">
        <ele>86</ele>
        <time>2023-01-18T14:29:30Z</time>
      </trkpt>
      <trkpt lat="49.77046" lon="2.18014">
        <ele>85.9</ele>
        <time>2023-01-18T14:29:31Z</time>
      </trkpt>
      <trkpt lat="49.77047" lon="2.18012">
        <ele>85.8</ele>
        <time>2023-01-18T14:29:32Z</time>
      </trkpt>
      <trkpt lat="49.77048" lon="2.1801">
        <ele>85.7</ele>
        <time>2023-01-18T14:29:33Z</time>
      </trkpt>
      <trkpt lat="49.77048" lon="2.18008">
        <ele>85.7</ele>
        <time>2023-01-18T14:29:34Z</time>
      </trkpt>
      <trkpt lat="49.77049" lon="2.18006">
        <ele>85.6</ele>
        <time>2023-01-18T14:29:35Z</time>
      </trkpt>
      <trkpt lat="49.77049" lon="2.18004">
        <ele>85.5</ele>
        <time>2023-01-18T14:29:36Z</time>
      </trkpt>
      <trkpt lat="49.7705" lon="2.18002">
        <ele>85.4</ele>
        <time>2023-01-18T14:29:38Z</time>
      </trkpt>
      <trkpt lat="49.77051" lon="2.18001">
        <ele>85.4</ele>
        <time>2023-01-18T14:29:39Z</time>
      </trkpt>
      <trkpt lat="49.77051" lon="2.17999">
        <ele>85.3</ele>
        <time>2023-01-18T14:29:40Z</time>
      </trkpt>
      <trkpt lat="49.77052" lon="2.17997">
        <ele>85.2</ele>
        <time>2023-01-18T14:29:41Z</time>
      </trkpt>
      <trkpt lat="49.77052" lon="2.17995">
        <ele>85.1</ele>
        <time>2023-01-18T14:29:42Z</time>
      </trkpt>
      <trkpt lat="49.77053" lon="2.17993">
        <ele>85.1</ele>
        <time>2023-01-18T14:29:43Z</time>
      </trkpt>
      <trkpt lat="49.77054" lon="2.17991">
        <ele>85</ele>
        <time>2023-01-18T14:29:45Z</time>
      </trkpt>
      <trkpt lat="49.77054" lon="2.17991">
        <ele>84.9</ele>
        <time>2023-01-18T14:29:46Z</time>
      </trkpt>
      <trkpt lat="49.77055" lon="2.17988">
        <ele>84.8</ele>
        <time>2023-01-18T14:29:47Z</time>
      </trkpt>
      <trkpt lat="49.77056" lon="2.17987">
        <ele>84.8</ele>
        <time>2023-01-18T14:29:48Z</time>
      </trkpt>
      <trkpt lat="49.77057" lon="2.17985">
        <ele>84.7</ele>
        <time>2023-01-18T14:29:49Z</time>
      </trkpt>
      <trkpt lat="49.77058" lon="2.17984">
        <ele>84.6</ele>
        <time>2023-01-18T14:29:50Z</time>
      </trkpt>
      <trkpt lat="49.77058" lon="2.17982">
        <ele>84.6</ele>
        <time>2023-01-18T14:29:51Z</time>
      </trkpt>
      <trkpt lat="49.77059" lon="2.1798">
        <ele>84.5</ele>
        <time>2023-01-18T14:29:52Z</time>
      </trkpt>
      <trkpt lat="49.77059" lon="2.17979">
        <ele>84.4</ele>
        <time>2023-01-18T14:29:53Z</time>
      </trkpt>
      <trkpt lat="49.7706" lon="2.17978">
        <ele>84.4</ele>
        <time>2023-01-18T14:29:54Z</time>
      </trkpt>
      <trkpt lat="49.77061" lon="2.17975">
        <ele>84.3</ele>
        <time>2023-01-18T14:29:55Z</time>
      </trkpt>
      <trkpt lat="49.77062" lon="2.17974">
        <ele>84.2</ele>
        <time>2023-01-18T14:29:57Z</time>
      </trkpt>
      <trkpt lat="49.77062" lon="2.17973">
        <ele>84.2</ele>
        <time>2023-01-18T14:29:58Z</time>
      </trkpt>
      <trkpt lat="49.77063" lon="2.17971">
        <ele>84.1</ele>
        <time>2023-01-18T14:29:59Z</time>
      </trkpt>
      <trkpt lat="49.77063" lon="2.1797">
        <ele>84.1</ele>
        <time>2023-01-18T14:30:00Z</time>
      </trkpt>
      <trkpt lat="49.77064" lon="2.17969">
        <ele>84</ele>
        <time>2023-01-18T14:30:01Z</time>
      </trkpt>
      <trkpt lat="49.77064" lon="2.17968">
        <ele>84</ele>
        <time>2023-01-18T14:30:02Z</time>
      </trkpt>
      <trkpt lat="49.77065" lon="2.17966">
        <ele>83.9</ele>
        <time>2023-01-18T14:30:03Z</time>
      </trkpt>
      <trkpt lat="49.77066" lon="2.17965">
        <ele>83.8</ele>
        <time>2023-01-18T14:30:04Z</time>
      </trkpt>
      <trkpt lat="49.77067" lon="2.17963">
        <ele>83.7</ele>
        <time>2023-01-18T14:30:06Z</time>
      </trkpt>
      <trkpt lat="49.77068" lon="2.17961">
        <ele>83.7</ele>
        <time>2023-01-18T14:30:07Z</time>
      </trkpt>
      <trkpt lat="49.77069" lon="2.17958">
        <ele>83.5</ele>
        <time>2023-01-18T14:30:08Z</time>
      </trkpt>
      <trkpt lat="49.77069" lon="2.17957">
        <ele>83.5</ele>
        <time>2023-01-18T14:30:09Z</time>
      </trkpt>
      <trkpt lat="49.7707" lon="2.17956">
        <ele>83.5</ele>
        <time>2023-01-18T14:30:10Z</time>
      </trkpt>
      <trkpt lat="49.77071" lon="2.17954">
        <ele>83.4</ele>
        <time>2023-01-18T14:30:11Z</time>
      </trkpt>
      <trkpt lat="49.77071" lon="2.17952">
        <ele>83.3</ele>
        <time>2023-01-18T14:30:12Z</time>
      </trkpt>
      <trkpt lat="49.77072" lon="2.17951">
        <ele>83.2</ele>
        <time>2023-01-18T14:30:13Z</time>
      </trkpt>
      <trkpt lat="49.77072" lon="2.17949">
        <ele>83.2</ele>
        <time>2023-01-18T14:30:14Z</time>
      </trkpt>
      <trkpt lat="49.77073" lon="2.17948">
        <ele>83.1</ele>
        <time>2023-01-18T14:30:15Z</time>
      </trkpt>
      <trkpt lat="49.77074" lon="2.17945">
        <ele>83</ele>
        <time>2023-01-18T14:30:17Z</time>
      </trkpt>
      <trkpt lat="49.77074" lon="2.17944">
        <ele>83</ele>
        <time>2023-01-18T14:30:18Z</time>
      </trkpt>
      <trkpt lat="49.77074" lon="2.17942">
        <ele>82.9</ele>
        <time>2023-01-18T14:30:19Z</time>
      </trkpt>
      <trkpt lat="49.77074" lon="2.17941">
        <ele>82.9</ele>
        <time>2023-01-18T14:30:20Z</time>
      </trkpt>
      <trkpt lat="49.77075" lon="2.17938">
        <ele>82.8</ele>
        <time>2023-01-18T14:30:21Z</time>
      </trkpt>
      <trkpt lat="49.77076" lon="2.17937">
        <ele>82.7</ele>
        <time>2023-01-18T14:30:22Z</time>
      </trkpt>
      <trkpt lat="49.77076" lon="2.17936">
        <ele>82.7</ele>
        <time>2023-01-18T14:30:23Z</time>
      </trkpt>
      <trkpt lat="49.77077" lon="2.17934">
        <ele>82.6</ele>
        <time>2023-01-18T14:30:24Z</time>
      </trkpt>
      <trkpt lat="49.77078" lon="2.17931">
        <ele>82.5</ele>
        <time>2023-01-18T14:30:26Z</time>
      </trkpt>
      <trkpt lat="49.77079" lon="2.17929">
        <ele>82.4</ele>
        <time>2023-01-18T14:30:27Z</time>
      </trkpt>
      <trkpt lat="49.77079" lon="2.17928">
        <ele>82.3</ele>
        <time>2023-01-18T14:30:28Z</time>
      </trkpt>
      <trkpt lat="49.77079" lon="2.17927">
        <ele>82.3</ele>
        <time>2023-01-18T14:30:29Z</time>
      </trkpt>
      <trkpt lat="49.7708" lon="2.17926">
        <ele>82.2</ele>
        <time>2023-01-18T14:30:30Z</time>
      </trkpt>
      <trkpt lat="49.77081" lon="2.17922">
        <ele>82.1</ele>
        <time>2023-01-18T14:30:31Z</time>
      </trkpt>
      <trkpt lat="49.77082" lon="2.17921">
        <ele>82</ele>
        <time>2023-01-18T14:30:32Z</time>
      </trkpt>
      <trkpt lat="49.77082" lon="2.17921">
        <ele>82</ele>
        <time>2023-01-18T14:30:33Z</time>
      </trkpt>
      <trkpt lat="49.77083" lon="2.17917">
        <ele>81.9</ele>
        <time>2023-01-18T14:30:34Z</time>
      </trkpt>
      <trkpt lat="49.77084" lon="2.17916">
        <ele>81.8</ele>
        <time>2023-01-18T14:30:35Z</time>
      </trkpt>
      <trkpt lat="49.77084" lon="2.17914">
        <ele>81.7</ele>
        <time>2023-01-18T14:30:36Z</time>
      </trkpt>
      <trkpt lat="49.77084" lon="2.17913">
        <ele>81.7</ele>
        <time>2023-01-18T14:30:37Z</time>
      </trkpt>
      <trkpt lat="49.77085" lon="2.17912">
        <ele>81.6</ele>
        <time>2023-01-18T14:30:39Z</time>
      </trkpt>
      <trkpt lat="49.77085" lon="2.1791">
        <ele>81.6</ele>
        <time>2023-01-18T14:30:40Z</time>
      </trkpt>
      <trkpt lat="49.77086" lon="2.17908">
        <ele>81.5</ele>
        <time>2023-01-18T14:30:41Z</time>
      </trkpt>
      <trkpt lat="49.77086" lon="2.17907">
        <ele>81.4</ele>
        <time>2023-01-18T14:30:42Z</time>
      </trkpt>
      <trkpt lat="49.77086" lon="2.17905">
        <ele>81.4</ele>
        <time>2023-01-18T14:30:43Z</time>
      </trkpt>
      <trkpt lat="49.77087" lon="2.17903">
        <ele>81.3</ele>
        <time>2023-01-18T14:30:44Z</time>
      </trkpt>
      <trkpt lat="49.77088" lon="2.17902">
        <ele>81.2</ele>
        <time>2023-01-18T14:30:45Z</time>
      </trkpt>
      <trkpt lat="49.77088" lon="2.17901">
        <ele>81.2</ele>
        <time>2023-01-18T14:30:46Z</time>
      </trkpt>
      <trkpt lat="49.77089" lon="2.17899">
        <ele>81.1</ele>
        <time>2023-01-18T14:30:48Z</time>
      </trkpt>
      <trkpt lat="49.7709" lon="2.17897">
        <ele>81</ele>
        <time>2023-01-18T14:30:49Z</time>
      </trkpt>
      <trkpt lat="49.7709" lon="2.17895">
        <ele>80.9</ele>
        <time>2023-01-18T14:30:50Z</time>
      </trkpt>
      <trkpt lat="49.77091" lon="2.17893">
        <ele>80.8</ele>
        <time>2023-01-18T14:30:51Z</time>
      </trkpt>
      <trkpt lat="49.77093" lon="2.1789">
        <ele>80.7</ele>
        <time>2023-01-18T14:30:52Z</time>
      </trkpt>
      <trkpt lat="49.77093" lon="2.17889">
        <ele>80.7</ele>
        <time>2023-01-18T14:30:53Z</time>
      </trkpt>
      <trkpt lat="49.77094" lon="2.17888">
        <ele>80.6</ele>
        <time>2023-01-18T14:30:54Z</time>
      </trkpt>
      <trkpt lat="49.77095" lon="2.17885">
        <ele>80.5</ele>
        <time>2023-01-18T14:30:56Z</time>
      </trkpt>
      <trkpt lat="49.77096" lon="2.17884">
        <ele>80.5</ele>
        <time>2023-01-18T14:30:57Z</time>
      </trkpt>
      <trkpt lat="49.77097" lon="2.17881">
        <ele>80.3</ele>
        <time>2023-01-18T14:30:58Z</time>
      </trkpt>
      <trkpt lat="49.77097" lon="2.1788">
        <ele>80.3</ele>
        <time>2023-01-18T14:30:59Z</time>
      </trkpt>
      <trkpt lat="49.77098" lon="2.17879">
        <ele>80.2</ele>
        <time>2023-01-18T14:31:00Z</time>
      </trkpt>
      <trkpt lat="49.77098" lon="2.17878">
        <ele>80.2</ele>
        <time>2023-01-18T14:31:01Z</time>
      </trkpt>
      <trkpt lat="49.77099" lon="2.17876">
        <ele>80.1</ele>
        <time>2023-01-18T14:31:02Z</time>
      </trkpt>
      <trkpt lat="49.771" lon="2.17875">
        <ele>80.1</ele>
        <time>2023-01-18T14:31:03Z</time>
      </trkpt>
      <trkpt lat="49.771" lon="2.17873">
        <ele>80</ele>
        <time>2023-01-18T14:31:04Z</time>
      </trkpt>
      <trkpt lat="49.77101" lon="2.17871">
        <ele>79.9</ele>
        <time>2023-01-18T14:31:05Z</time>
      </trkpt>
      <trkpt lat="49.77102" lon="2.1787">
        <ele>79.9</ele>
        <time>2023-01-18T14:31:06Z</time>
      </trkpt>
      <trkpt lat="49.77102" lon="2.17868">
        <ele>79.8</ele>
        <time>2023-01-18T14:31:07Z</time>
      </trkpt>
      <trkpt lat="49.77103" lon="2.17867">
        <ele>79.7</ele>
        <time>2023-01-18T14:31:08Z</time>
      </trkpt>
      <trkpt lat="49.77104" lon="2.17864">
        <ele>79.6</ele>
        <time>2023-01-18T14:31:09Z</time>
      </trkpt>
      <trkpt lat="49.77105" lon="2.17863">
        <ele>79.6</ele>
        <time>2023-01-18T14:31:11Z</time>
      </trkpt>
      <trkpt lat="49.77105" lon="2.17862">
        <ele>79.5</ele>
        <time>2023-01-18T14:31:12Z</time>
      </trkpt>
      <trkpt lat="49.77106" lon="2.17861">
        <ele>79.5</ele>
        <time>2023-01-18T14:31:13Z</time>
      </trkpt>
      <trkpt lat="49.77106" lon="2.17859">
        <ele>79.4</ele>
        <time>2023-01-18T14:31:14Z</time>
      </trkpt>
      <trkpt lat="49.77107" lon="2.17858">
        <ele>79.4</ele>
        <time>2023-01-18T14:31:15Z</time>
      </trkpt>
      <trkpt lat="49.77108" lon="2.17855">
        <ele>79.2</ele>
        <time>2023-01-18T14:31:16Z</time>
      </trkpt>
      <trkpt lat="49.77109" lon="2.17854">
        <ele>79.2</ele>
        <time>2023-01-18T14:31:17Z</time>
      </trkpt>
      <trkpt lat="49.77109" lon="2.17853">
        <ele>79.2</ele>
        <time>2023-01-18T14:31:18Z</time>
      </trkpt>
      <trkpt lat="49.7711" lon="2.17851">
        <ele>79.1</ele>
        <time>2023-01-18T14:31:19Z</time>
      </trkpt>
      <trkpt lat="49.77111" lon="2.17848">
        <ele>79</ele>
        <time>2023-01-18T14:31:20Z</time>
      </trkpt>
      <trkpt lat="49.77111" lon="2.17847">
        <ele>78.9</ele>
        <time>2023-01-18T14:31:21Z</time>
      </trkpt>
      <trkpt lat="49.77112" lon="2.17846">
        <ele>78.9</ele>
        <time>2023-01-18T14:31:22Z</time>
      </trkpt>
      <trkpt lat="49.77112" lon="2.17844">
        <ele>78.8</ele>
        <time>2023-01-18T14:31:23Z</time>
      </trkpt>
      <trkpt lat="49.77113" lon="2.17843">
        <ele>78.8</ele>
        <time>2023-01-18T14:31:24Z</time>
      </trkpt>
      <trkpt lat="49.77113" lon="2.1784">
        <ele>78.7</ele>
        <time>2023-01-18T14:31:26Z</time>
      </trkpt>
      <trkpt lat="49.77113" lon="2.17839">
        <ele>78.6</ele>
        <time>2023-01-18T14:31:27Z</time>
      </trkpt>
      <trkpt lat="49.77114" lon="2.17837">
        <ele>78.6</ele>
        <time>2023-01-18T14:31:28Z</time>
      </trkpt>
      <trkpt lat="49.77114" lon="2.17835">
        <ele>78.5</ele>
        <time>2023-01-18T14:31:29Z</time>
      </trkpt>
      <trkpt lat="49.77114" lon="2.17833">
        <ele>78.5</ele>
        <time>2023-01-18T14:31:30Z</time>
      </trkpt>
      <trkpt lat="49.77114" lon="2.17832">
        <ele>78.4</ele>
        <time>2023-01-18T14:31:31Z</time>
      </trkpt>
      <trkpt lat="49.77114" lon="2.17831">
        <ele>78.4</ele>
        <time>2023-01-18T14:31:32Z</time>
      </trkpt>
      <trkpt lat="49.77114" lon="2.1783">
        <ele>78.3</ele>
        <time>2023-01-18T14:31:34Z</time>
      </trkpt>
      <trkpt lat="49.77114" lon="2.17828">
        <ele>78.3</ele>
        <time>2023-01-18T14:31:35Z</time>
      </trkpt>
      <trkpt lat="49.77114" lon="2.17826">
        <ele>78.2</ele>
        <time>2023-01-18T14:31:36Z</time>
      </trkpt>
      <trkpt lat="49.77114" lon="2.17824">
        <ele>78.2</ele>
        <time>2023-01-18T14:31:37Z</time>
      </trkpt>
      <trkpt lat="49.77115" lon="2.17823">
        <ele>78.1</ele>
        <time>2023-01-18T14:31:38Z</time>
      </trkpt>
      <trkpt lat="49.77115" lon="2.17821">
        <ele>78.1</ele>
        <time>2023-01-18T14:31:39Z</time>
      </trkpt>
      <trkpt lat="49.77115" lon="2.17818">
        <ele>78</ele>
        <time>2023-01-18T14:31:40Z</time>
      </trkpt>
      <trkpt lat="49.77115" lon="2.17817">
        <ele>77.9</ele>
        <time>2023-01-18T14:31:41Z</time>
      </trkpt>
      <trkpt lat="49.77116" lon="2.17816">
        <ele>77.9</ele>
        <time>2023-01-18T14:31:42Z</time>
      </trkpt>
      <trkpt lat="49.77116" lon="2.17813">
        <ele>77.8</ele>
        <time>2023-01-18T14:31:43Z</time>
      </trkpt>
      <trkpt lat="49.77116" lon="2.17811">
        <ele>77.7</ele>
        <time>2023-01-18T14:31:44Z</time>
      </trkpt>
      <trkpt lat="49.77116" lon="2.1781">
        <ele>77.7</ele>
        <time>2023-01-18T14:31:45Z</time>
      </trkpt>
      <trkpt lat="49.77117" lon="2.17808">
        <ele>77.6</ele>
        <time>2023-01-18T14:31:46Z</time>
      </trkpt>
      <trkpt lat="49.77117" lon="2.17807">
        <ele>77.6</ele>
        <time>2023-01-18T14:31:48Z</time>
      </trkpt>
      <trkpt lat="49.77117" lon="2.17805">
        <ele>77.5</ele>
        <time>2023-01-18T14:31:49Z</time>
      </trkpt>
      <trkpt lat="49.77117" lon="2.17804">
        <ele>77.5</ele>
        <time>2023-01-18T14:31:50Z</time>
      </trkpt>
      <trkpt lat="49.77117" lon="2.17802">
        <ele>77.4</ele>
        <time>2023-01-18T14:31:51Z</time>
      </trkpt>
      <trkpt lat="49.77118" lon="2.178">
        <ele>77.3</ele>
        <time>2023-01-18T14:31:52Z</time>
      </trkpt>
      <trkpt lat="49.77118" lon="2.17799">
        <ele>77.3</ele>
        <time>2023-01-18T14:31:53Z</time>
      </trkpt>
      <trkpt lat="49.77119" lon="2.17795">
        <ele>77.1</ele>
        <time>2023-01-18T14:31:55Z</time>
      </trkpt>
      <trkpt lat="49.77119" lon="2.17793">
        <ele>77</ele>
        <time>2023-01-18T14:31:56Z</time>
      </trkpt>
      <trkpt lat="49.77119" lon="2.17792">
        <ele>77</ele>
        <time>2023-01-18T14:31:57Z</time>
      </trkpt>
      <trkpt lat="49.7712" lon="2.1779">
        <ele>76.9</ele>
        <time>2023-01-18T14:31:58Z</time>
      </trkpt>
      <trkpt lat="49.7712" lon="2.17789">
        <ele>76.9</ele>
        <time>2023-01-18T14:31:59Z</time>
      </trkpt>
      <trkpt lat="49.77121" lon="2.17787">
        <ele>76.8</ele>
        <time>2023-01-18T14:32:00Z</time>
      </trkpt>
      <trkpt lat="49.77122" lon="2.17785">
        <ele>76.7</ele>
        <time>2023-01-18T14:32:01Z</time>
      </trkpt>
      <trkpt lat="49.77122" lon="2.17782">
        <ele>76.6</ele>
        <time>2023-01-18T14:32:02Z</time>
      </trkpt>
      <trkpt lat="49.77123" lon="2.17781">
        <ele>76.5</ele>
        <time>2023-01-18T14:32:03Z</time>
      </trkpt>
      <trkpt lat="49.77123" lon="2.1778">
        <ele>76.4</ele>
        <time>2023-01-18T14:32:04Z</time>
      </trkpt>
      <trkpt lat="49.77124" lon="2.17777">
        <ele>76.3</ele>
        <time>2023-01-18T14:32:05Z</time>
      </trkpt>
      <trkpt lat="49.77124" lon="2.17775">
        <ele>76.2</ele>
        <time>2023-01-18T14:32:06Z</time>
      </trkpt>
      <trkpt lat="49.77125" lon="2.17773">
        <ele>76.2</ele>
        <time>2023-01-18T14:32:08Z</time>
      </trkpt>
      <trkpt lat="49.77125" lon="2.17771">
        <ele>76.1</ele>
        <time>2023-01-18T14:32:09Z</time>
      </trkpt>
      <trkpt lat="49.77126" lon="2.17769">
        <ele>76</ele>
        <time>2023-01-18T14:32:10Z</time>
      </trkpt>
      <trkpt lat="49.77127" lon="2.17766">
        <ele>75.9</ele>
        <time>2023-01-18T14:32:11Z</time>
      </trkpt>
      <trkpt lat="49.77127" lon="2.17765">
        <ele>75.8</ele>
        <time>2023-01-18T14:32:12Z</time>
      </trkpt>
      <trkpt lat="49.77128" lon="2.17763">
        <ele>75.7</ele>
        <time>2023-01-18T14:32:13Z</time>
      </trkpt>
      <trkpt lat="49.77129" lon="2.17761">
        <ele>75.6</ele>
        <time>2023-01-18T14:32:14Z</time>
      </trkpt>
      <trkpt lat="49.7713" lon="2.17758">
        <ele>75.4</ele>
        <time>2023-01-18T14:32:16Z</time>
      </trkpt>
      <trkpt lat="49.7713" lon="2.17757">
        <ele>75.4</ele>
        <time>2023-01-18T14:32:17Z</time>
      </trkpt>
      <trkpt lat="49.77131" lon="2.17755">
        <ele>75.3</ele>
        <time>2023-01-18T14:32:18Z</time>
      </trkpt>
      <trkpt lat="49.77132" lon="2.17754">
        <ele>75.2</ele>
        <time>2023-01-18T14:32:19Z</time>
      </trkpt>
      <trkpt lat="49.77133" lon="2.17752">
        <ele>75.1</ele>
        <time>2023-01-18T14:32:20Z</time>
      </trkpt>
      <trkpt lat="49.77134" lon="2.1775">
        <ele>75</ele>
        <time>2023-01-18T14:32:21Z</time>
      </trkpt>
      <trkpt lat="49.77134" lon="2.17748">
        <ele>74.9</ele>
        <time>2023-01-18T14:32:22Z</time>
      </trkpt>
      <trkpt lat="49.77135" lon="2.17747">
        <ele>74.9</ele>
        <time>2023-01-18T14:32:23Z</time>
      </trkpt>
      <trkpt lat="49.77136" lon="2.17745">
        <ele>74.8</ele>
        <time>2023-01-18T14:32:24Z</time>
      </trkpt>
      <trkpt lat="49.77137" lon="2.17742">
        <ele>74.6</ele>
        <time>2023-01-18T14:32:25Z</time>
      </trkpt>
      <trkpt lat="49.77137" lon="2.1774">
        <ele>74.5</ele>
        <time>2023-01-18T14:32:26Z</time>
      </trkpt>
      <trkpt lat="49.77138" lon="2.17739">
        <ele>74.5</ele>
        <time>2023-01-18T14:32:28Z</time>
      </trkpt>
      <trkpt lat="49.77138" lon="2.17737">
        <ele>74.4</ele>
        <time>2023-01-18T14:32:29Z</time>
      </trkpt>
      <trkpt lat="49.77139" lon="2.17736">
        <ele>74.3</ele>
        <time>2023-01-18T14:32:30Z</time>
      </trkpt>
      <trkpt lat="49.77139" lon="2.17734">
        <ele>74.3</ele>
        <time>2023-01-18T14:32:31Z</time>
      </trkpt>
      <trkpt lat="49.7714" lon="2.17733">
        <ele>74.2</ele>
        <time>2023-01-18T14:32:32Z</time>
      </trkpt>
      <trkpt lat="49.7714" lon="2.17732">
        <ele>74.1</ele>
        <time>2023-01-18T14:32:33Z</time>
      </trkpt>
      <trkpt lat="49.7714" lon="2.1773">
        <ele>74.1</ele>
        <time>2023-01-18T14:32:34Z</time>
      </trkpt>
      <trkpt lat="49.77141" lon="2.17728">
        <ele>74</ele>
        <time>2023-01-18T14:32:35Z</time>
      </trkpt>
      <trkpt lat="49.77141" lon="2.17726">
        <ele>73.9</ele>
        <time>2023-01-18T14:32:36Z</time>
      </trkpt>
      <trkpt lat="49.77142" lon="2.17723">
        <ele>73.7</ele>
        <time>2023-01-18T14:32:38Z</time>
      </trkpt>
      <trkpt lat="49.77143" lon="2.17722">
        <ele>73.7</ele>
        <time>2023-01-18T14:32:39Z</time>
      </trkpt>
      <trkpt lat="49.77143" lon="2.17721">
        <ele>73.6</ele>
        <time>2023-01-18T14:32:40Z</time>
      </trkpt>
      <trkpt lat="49.77144" lon="2.17719">
        <ele>73.5</ele>
        <time>2023-01-18T14:32:41Z</time>
      </trkpt>
      <trkpt lat="49.77144" lon="2.17718">
        <ele>73.4</ele>
        <time>2023-01-18T14:32:42Z</time>
      </trkpt>
      <trkpt lat="49.77145" lon="2.17716">
        <ele>73.3</ele>
        <time>2023-01-18T14:32:44Z</time>
      </trkpt>
      <trkpt lat="49.77146" lon="2.17714">
        <ele>73.2</ele>
        <time>2023-01-18T14:32:45Z</time>
      </trkpt>
      <trkpt lat="49.77146" lon="2.17712">
        <ele>73.1</ele>
        <time>2023-01-18T14:32:46Z</time>
      </trkpt>
      <trkpt lat="49.77147" lon="2.17711">
        <ele>73.1</ele>
        <time>2023-01-18T14:32:47Z</time>
      </trkpt>
      <trkpt lat="49.77148" lon="2.1771">
        <ele>73</ele>
        <time>2023-01-18T14:32:48Z</time>
      </trkpt>
      <trkpt lat="49.77148" lon="2.17708">
        <ele>72.9</ele>
        <time>2023-01-18T14:32:49Z</time>
      </trkpt>
      <trkpt lat="49.77149" lon="2.17707">
        <ele>72.8</ele>
        <time>2023-01-18T14:32:50Z</time>
      </trkpt>
      <trkpt lat="49.7715" lon="2.17705">
        <ele>72.7</ele>
        <time>2023-01-18T14:32:51Z</time>
      </trkpt>
      <trkpt lat="49.77151" lon="2.17704">
        <ele>72.6</ele>
        <time>2023-01-18T14:32:53Z</time>
      </trkpt>
      <trkpt lat="49.77151" lon="2.17703">
        <ele>72.5</ele>
        <time>2023-01-18T14:32:54Z</time>
      </trkpt>
      <trkpt lat="49.77152" lon="2.17701">
        <ele>72.5</ele>
        <time>2023-01-18T14:32:55Z</time>
      </trkpt>
      <trkpt lat="49.77153" lon="2.17699">
        <ele>72.3</ele>
        <time>2023-01-18T14:32:56Z</time>
      </trkpt>
      <trkpt lat="49.77154" lon="2.17698">
        <ele>72.3</ele>
        <time>2023-01-18T14:32:57Z</time>
      </trkpt>
      <trkpt lat="49.77154" lon="2.17697">
        <ele>72.2</ele>
        <time>2023-01-18T14:32:58Z</time>
      </trkpt>
      <trkpt lat="49.77155" lon="2.17696">
        <ele>72.1</ele>
        <time>2023-01-18T14:32:59Z</time>
      </trkpt>
      <trkpt lat="49.77155" lon="2.17694">
        <ele>72</ele>
        <time>2023-01-18T14:33:00Z</time>
      </trkpt>
      <trkpt lat="49.77156" lon="2.17693">
        <ele>71.9</ele>
        <time>2023-01-18T14:33:01Z</time>
      </trkpt>
      <trkpt lat="49.77156" lon="2.17691">
        <ele>71.9</ele>
        <time>2023-01-18T14:33:02Z</time>
      </trkpt>
      <trkpt lat="49.77157" lon="2.1769">
        <ele>71.8</ele>
        <time>2023-01-18T14:33:03Z</time>
      </trkpt>
      <trkpt lat="49.77157" lon="2.17688">
        <ele>71.7</ele>
        <time>2023-01-18T14:33:04Z</time>
      </trkpt>
      <trkpt lat="49.77158" lon="2.17686">
        <ele>71.6</ele>
        <time>2023-01-18T14:33:05Z</time>
      </trkpt>
      <trkpt lat="49.77158" lon="2.17684">
        <ele>71.5</ele>
        <time>2023-01-18T14:33:07Z</time>
      </trkpt>
      <trkpt lat="49.77159" lon="2.17683">
        <ele>71.4</ele>
        <time>2023-01-18T14:33:08Z</time>
      </trkpt>
      <trkpt lat="49.77159" lon="2.1768">
        <ele>71.3</ele>
        <time>2023-01-18T14:33:09Z</time>
      </trkpt>
      <trkpt lat="49.7716" lon="2.17678">
        <ele>71.2</ele>
        <time>2023-01-18T14:33:10Z</time>
      </trkpt>
      <trkpt lat="49.7716" lon="2.17677">
        <ele>71.1</ele>
        <time>2023-01-18T14:33:11Z</time>
      </trkpt>
      <trkpt lat="49.7716" lon="2.17676">
        <ele>71.1</ele>
        <time>2023-01-18T14:33:12Z</time>
      </trkpt>
      <trkpt lat="49.7716" lon="2.17675">
        <ele>71</ele>
        <time>2023-01-18T14:33:13Z</time>
      </trkpt>
      <trkpt lat="49.77161" lon="2.17672">
        <ele>70.9</ele>
        <time>2023-01-18T14:33:15Z</time>
      </trkpt>
      <trkpt lat="49.77161" lon="2.17671">
        <ele>70.8</ele>
        <time>2023-01-18T14:33:16Z</time>
      </trkpt>
      <trkpt lat="49.77161" lon="2.17668">
        <ele>70.7</ele>
        <time>2023-01-18T14:33:17Z</time>
      </trkpt>
      <trkpt lat="49.77162" lon="2.17667">
        <ele>70.6</ele>
        <time>2023-01-18T14:33:18Z</time>
      </trkpt>
      <trkpt lat="49.77162" lon="2.17665">
        <ele>70.5</ele>
        <time>2023-01-18T14:33:19Z</time>
      </trkpt>
      <trkpt lat="49.77162" lon="2.17663">
        <ele>70.4</ele>
        <time>2023-01-18T14:33:20Z</time>
      </trkpt>
      <trkpt lat="49.77162" lon="2.17661">
        <ele>70.3</ele>
        <time>2023-01-18T14:33:21Z</time>
      </trkpt>
      <trkpt lat="49.77162" lon="2.1766">
        <ele>70.2</ele>
        <time>2023-01-18T14:33:22Z</time>
      </trkpt>
      <trkpt lat="49.77162" lon="2.17658">
        <ele>70.2</ele>
        <time>2023-01-18T14:33:23Z</time>
      </trkpt>
      <trkpt lat="49.77163" lon="2.17656">
        <ele>70.1</ele>
        <time>2023-01-18T14:33:24Z</time>
      </trkpt>
      <trkpt lat="49.77163" lon="2.17655">
        <ele>70</ele>
        <time>2023-01-18T14:33:25Z</time>
      </trkpt>
      <trkpt lat="49.77163" lon="2.17653">
        <ele>69.9</ele>
        <time>2023-01-18T14:33:27Z</time>
      </trkpt>
      <trkpt lat="49.77164" lon="2.1765">
        <ele>69.7</ele>
        <time>2023-01-18T14:33:28Z</time>
      </trkpt>
      <trkpt lat="49.77164" lon="2.17648">
        <ele>69.7</ele>
        <time>2023-01-18T14:33:29Z</time>
      </trkpt>
      <trkpt lat="49.77164" lon="2.17647">
        <ele>69.6</ele>
        <time>2023-01-18T14:33:30Z</time>
      </trkpt>
      <trkpt lat="49.77165" lon="2.17645">
        <ele>69.5</ele>
        <time>2023-01-18T14:33:31Z</time>
      </trkpt>
      <trkpt lat="49.77165" lon="2.17644">
        <ele>69.4</ele>
        <time>2023-01-18T14:33:32Z</time>
      </trkpt>
      <trkpt lat="49.77166" lon="2.17642">
        <ele>69.4</ele>
        <time>2023-01-18T14:33:33Z</time>
      </trkpt>
      <trkpt lat="49.77166" lon="2.17639">
        <ele>69.2</ele>
        <time>2023-01-18T14:33:34Z</time>
      </trkpt>
      <trkpt lat="49.77167" lon="2.17638">
        <ele>69.1</ele>
        <time>2023-01-18T14:33:35Z</time>
      </trkpt>
      <trkpt lat="49.77167" lon="2.17636">
        <ele>69.1</ele>
        <time>2023-01-18T14:33:36Z</time>
      </trkpt>
      <trkpt lat="49.77168" lon="2.17635">
        <ele>69</ele>
        <time>2023-01-18T14:33:37Z</time>
      </trkpt>
      <trkpt lat="49.77168" lon="2.17634">
        <ele>68.9</ele>
        <time>2023-01-18T14:33:38Z</time>
      </trkpt>
      <trkpt lat="49.77169" lon="2.17632">
        <ele>68.9</ele>
        <time>2023-01-18T14:33:40Z</time>
      </trkpt>
      <trkpt lat="49.77169" lon="2.1763">
        <ele>68.8</ele>
        <time>2023-01-18T14:33:41Z</time>
      </trkpt>
      <trkpt lat="49.7717" lon="2.17628">
        <ele>68.7</ele>
        <time>2023-01-18T14:33:42Z</time>
      </trkpt>
      <trkpt lat="49.7717" lon="2.17627">
        <ele>68.6</ele>
        <time>2023-01-18T14:33:43Z</time>
      </trkpt>
      <trkpt lat="49.77171" lon="2.17625">
        <ele>68.5</ele>
        <time>2023-01-18T14:33:44Z</time>
      </trkpt>
      <trkpt lat="49.77172" lon="2.17624">
        <ele>68.4</ele>
        <time>2023-01-18T14:33:45Z</time>
      </trkpt>
      <trkpt lat="49.77173" lon="2.17622">
        <ele>68.3</ele>
        <time>2023-01-18T14:33:46Z</time>
      </trkpt>
      <trkpt lat="49.77174" lon="2.17621">
        <ele>68.2</ele>
        <time>2023-01-18T14:33:47Z</time>
      </trkpt>
      <trkpt lat="49.77174" lon="2.1762">
        <ele>68.2</ele>
        <time>2023-01-18T14:33:48Z</time>
      </trkpt>
      <trkpt lat="49.77175" lon="2.17617">
        <ele>68.1</ele>
        <time>2023-01-18T14:33:49Z</time>
      </trkpt>
      <trkpt lat="49.77176" lon="2.17617">
        <ele>68</ele>
        <time>2023-01-18T14:33:50Z</time>
      </trkpt>
      <trkpt lat="49.77177" lon="2.17616">
        <ele>67.9</ele>
        <time>2023-01-18T14:33:51Z</time>
      </trkpt>
      <trkpt lat="49.77177" lon="2.17614">
        <ele>67.9</ele>
        <time>2023-01-18T14:33:52Z</time>
      </trkpt>
      <trkpt lat="49.77178" lon="2.17613">
        <ele>67.8</ele>
        <time>2023-01-18T14:33:54Z</time>
      </trkpt>
      <trkpt lat="49.77179" lon="2.17612">
        <ele>67.7</ele>
        <time>2023-01-18T14:33:55Z</time>
      </trkpt>
      <trkpt lat="49.77177" lon="2.17611">
        <ele>67.6</ele>
        <time>2023-01-18T14:33:57Z</time>
      </trkpt>
      <trkpt lat="49.77177" lon="2.1761">
        <ele>67.6</ele>
        <time>2023-01-18T14:33:58Z</time>
      </trkpt>
      <trkpt lat="49.77177" lon="2.17609">
        <ele>67.5</ele>
        <time>2023-01-18T14:33:59Z</time>
      </trkpt>
      <trkpt lat="49.77177" lon="2.17608">
        <ele>67.5</ele>
        <time>2023-01-18T14:34:00Z</time>
      </trkpt>
      <trkpt lat="49.77177" lon="2.17607">
        <ele>67.4</ele>
        <time>2023-01-18T14:34:01Z</time>
      </trkpt>
      <trkpt lat="49.77178" lon="2.17606">
        <ele>67.4</ele>
        <time>2023-01-18T14:34:02Z</time>
      </trkpt>
      <trkpt lat="49.77178" lon="2.17604">
        <ele>67.3</ele>
        <time>2023-01-18T14:34:03Z</time>
      </trkpt>
      <trkpt lat="49.77178" lon="2.17603">
        <ele>67.3</ele>
        <time>2023-01-18T14:34:05Z</time>
      </trkpt>
      <trkpt lat="49.77177" lon="2.17602">
        <ele>67.2</ele>
        <time>2023-01-18T14:34:06Z</time>
      </trkpt>
      <trkpt lat="49.77176" lon="2.17602">
        <ele>67.1</ele>
        <time>2023-01-18T14:34:07Z</time>
      </trkpt>
      <trkpt lat="49.77177" lon="2.17601">
        <ele>67.1</ele>
        <time>2023-01-18T14:34:08Z</time>
      </trkpt>
      <trkpt lat="49.77177" lon="2.176">
        <ele>67.1</ele>
        <time>2023-01-18T14:34:10Z</time>
      </trkpt>
      <trkpt lat="49.77177" lon="2.17599">
        <ele>67</ele>
        <time>2023-01-18T14:34:11Z</time>
      </trkpt>
      <trkpt lat="49.77177" lon="2.17597">
        <ele>66.9</ele>
        <time>2023-01-18T14:34:12Z</time>
      </trkpt>
      <trkpt lat="49.77178" lon="2.17596">
        <ele>66.9</ele>
        <time>2023-01-18T14:34:13Z</time>
      </trkpt>
      <trkpt lat="49.77178" lon="2.17594">
        <ele>66.8</ele>
        <time>2023-01-18T14:34:14Z</time>
      </trkpt>
      <trkpt lat="49.77179" lon="2.17592">
        <ele>66.7</ele>
        <time>2023-01-18T14:34:15Z</time>
      </trkpt>
      <trkpt lat="49.77179" lon="2.1759">
        <ele>66.6</ele>
        <time>2023-01-18T14:34:17Z</time>
      </trkpt>
      <trkpt lat="49.7718" lon="2.17589">
        <ele>66.6</ele>
        <time>2023-01-18T14:34:18Z</time>
      </trkpt>
      <trkpt lat="49.7718" lon="2.17588">
        <ele>66.5</ele>
        <time>2023-01-18T14:34:19Z</time>
      </trkpt>
      <trkpt lat="49.77181" lon="2.17586">
        <ele>66.4</ele>
        <time>2023-01-18T14:34:20Z</time>
      </trkpt>
      <trkpt lat="49.77182" lon="2.17583">
        <ele>66.3</ele>
        <time>2023-01-18T14:34:21Z</time>
      </trkpt>
      <trkpt lat="49.77183" lon="2.17582">
        <ele>66.2</ele>
        <time>2023-01-18T14:34:22Z</time>
      </trkpt>
      <trkpt lat="49.77184" lon="2.1758">
        <ele>66.1</ele>
        <time>2023-01-18T14:34:23Z</time>
      </trkpt>
      <trkpt lat="49.77185" lon="2.17579">
        <ele>66.1</ele>
        <time>2023-01-18T14:34:24Z</time>
      </trkpt>
      <trkpt lat="49.77186" lon="2.17577">
        <ele>66</ele>
        <time>2023-01-18T14:34:26Z</time>
      </trkpt>
      <trkpt lat="49.77187" lon="2.17574">
        <ele>65.8</ele>
        <time>2023-01-18T14:34:27Z</time>
      </trkpt>
      <trkpt lat="49.77188" lon="2.17572">
        <ele>65.7</ele>
        <time>2023-01-18T14:34:28Z</time>
      </trkpt>
      <trkpt lat="49.77189" lon="2.17571">
        <ele>65.7</ele>
        <time>2023-01-18T14:34:29Z</time>
      </trkpt>
      <trkpt lat="49.77189" lon="2.1757">
        <ele>65.6</ele>
        <time>2023-01-18T14:34:30Z</time>
      </trkpt>
      <trkpt lat="49.77191" lon="2.17567">
        <ele>65.5</ele>
        <time>2023-01-18T14:34:31Z</time>
      </trkpt>
      <trkpt lat="49.77191" lon="2.17566">
        <ele>65.4</ele>
        <time>2023-01-18T14:34:32Z</time>
      </trkpt>
      <trkpt lat="49.77193" lon="2.17563">
        <ele>65.3</ele>
        <time>2023-01-18T14:34:33Z</time>
      </trkpt>
      <trkpt lat="49.77193" lon="2.17562">
        <ele>65.2</ele>
        <time>2023-01-18T14:34:34Z</time>
      </trkpt>
      <trkpt lat="49.77194" lon="2.17561">
        <ele>65.2</ele>
        <time>2023-01-18T14:34:35Z</time>
      </trkpt>
      <trkpt lat="49.77196" lon="2.17559">
        <ele>65.1</ele>
        <time>2023-01-18T14:34:37Z</time>
      </trkpt>
      <trkpt lat="49.77196" lon="2.17558">
        <ele>65</ele>
        <time>2023-01-18T14:34:38Z</time>
      </trkpt>
      <trkpt lat="49.77197" lon="2.17555">
        <ele>64.9</ele>
        <time>2023-01-18T14:34:39Z</time>
      </trkpt>
      <trkpt lat="49.77198" lon="2.17554">
        <ele>64.8</ele>
        <time>2023-01-18T14:34:40Z</time>
      </trkpt>
      <trkpt lat="49.77198" lon="2.17553">
        <ele>64.8</ele>
        <time>2023-01-18T14:34:41Z</time>
      </trkpt>
      <trkpt lat="49.77199" lon="2.17551">
        <ele>64.7</ele>
        <time>2023-01-18T14:34:42Z</time>
      </trkpt>
      <trkpt lat="49.772" lon="2.17549">
        <ele>64.6</ele>
        <time>2023-01-18T14:34:43Z</time>
      </trkpt>
      <trkpt lat="49.77201" lon="2.17546">
        <ele>64.5</ele>
        <time>2023-01-18T14:34:44Z</time>
      </trkpt>
      <trkpt lat="49.77201" lon="2.17545">
        <ele>64.4</ele>
        <time>2023-01-18T14:34:45Z</time>
      </trkpt>
      <trkpt lat="49.77202" lon="2.17544">
        <ele>64.4</ele>
        <time>2023-01-18T14:34:46Z</time>
      </trkpt>
      <trkpt lat="49.77202" lon="2.17543">
        <ele>64.3</ele>
        <time>2023-01-18T14:34:47Z</time>
      </trkpt>
      <trkpt lat="49.77203" lon="2.17541">
        <ele>64.3</ele>
        <time>2023-01-18T14:34:48Z</time>
      </trkpt>
      <trkpt lat="49.77204" lon="2.1754">
        <ele>64.2</ele>
        <time>2023-01-18T14:34:50Z</time>
      </trkpt>
      <trkpt lat="49.77204" lon="2.17538">
        <ele>64.1</ele>
        <time>2023-01-18T14:34:51Z</time>
      </trkpt>
      <trkpt lat="49.77205" lon="2.17536">
        <ele>64.1</ele>
        <time>2023-01-18T14:34:52Z</time>
      </trkpt>
      <trkpt lat="49.77205" lon="2.17535">
        <ele>64</ele>
        <time>2023-01-18T14:34:53Z</time>
      </trkpt>
      <trkpt lat="49.77206" lon="2.17534">
        <ele>64</ele>
        <time>2023-01-18T14:34:54Z</time>
      </trkpt>
      <trkpt lat="49.77206" lon="2.17532">
        <ele>63.9</ele>
        <time>2023-01-18T14:34:55Z</time>
      </trkpt>
      <trkpt lat="49.77207" lon="2.17531">
        <ele>63.8</ele>
        <time>2023-01-18T14:34:56Z</time>
      </trkpt>
      <trkpt lat="49.77208" lon="2.17528">
        <ele>63.7</ele>
        <time>2023-01-18T14:34:57Z</time>
      </trkpt>
      <trkpt lat="49.77208" lon="2.17527">
        <ele>63.7</ele>
        <time>2023-01-18T14:34:58Z</time>
      </trkpt>
      <trkpt lat="49.77209" lon="2.17526">
        <ele>63.6</ele>
        <time>2023-01-18T14:34:59Z</time>
      </trkpt>
      <trkpt lat="49.77209" lon="2.17524">
        <ele>63.5</ele>
        <time>2023-01-18T14:35:00Z</time>
      </trkpt>
      <trkpt lat="49.7721" lon="2.17521">
        <ele>63.4</ele>
        <time>2023-01-18T14:35:02Z</time>
      </trkpt>
      <trkpt lat="49.77211" lon="2.1752">
        <ele>63.4</ele>
        <time>2023-01-18T14:35:03Z</time>
      </trkpt>
      <trkpt lat="49.77212" lon="2.17517">
        <ele>63.2</ele>
        <time>2023-01-18T14:35:04Z</time>
      </trkpt>
      <trkpt lat="49.77212" lon="2.17516">
        <ele>63.2</ele>
        <time>2023-01-18T14:35:05Z</time>
      </trkpt>
      <trkpt lat="49.77213" lon="2.17515">
        <ele>63.2</ele>
        <time>2023-01-18T14:35:06Z</time>
      </trkpt>
      <trkpt lat="49.77214" lon="2.17512">
        <ele>63.1</ele>
        <time>2023-01-18T14:35:07Z</time>
      </trkpt>
      <trkpt lat="49.77214" lon="2.17511">
        <ele>63</ele>
        <time>2023-01-18T14:35:08Z</time>
      </trkpt>
      <trkpt lat="49.77215" lon="2.17507">
        <ele>62.9</ele>
        <time>2023-01-18T14:35:09Z</time>
      </trkpt>
      <trkpt lat="49.77216" lon="2.17506">
        <ele>62.8</ele>
        <time>2023-01-18T14:35:10Z</time>
      </trkpt>
      <trkpt lat="49.77216" lon="2.17505">
        <ele>62.8</ele>
        <time>2023-01-18T14:35:11Z</time>
      </trkpt>
      <trkpt lat="49.77217" lon="2.17503">
        <ele>62.7</ele>
        <time>2023-01-18T14:35:12Z</time>
      </trkpt>
      <trkpt lat="49.77217" lon="2.17502">
        <ele>62.7</ele>
        <time>2023-01-18T14:35:13Z</time>
      </trkpt>
      <trkpt lat="49.77218" lon="2.17501">
        <ele>62.7</ele>
        <time>2023-01-18T14:35:15Z</time>
      </trkpt>
      <trkpt lat="49.77218" lon="2.17499">
        <ele>62.6</ele>
        <time>2023-01-18T14:35:16Z</time>
      </trkpt>
      <trkpt lat="49.77218" lon="2.17497">
        <ele>62.5</ele>
        <time>2023-01-18T14:35:17Z</time>
      </trkpt>
      <trkpt lat="49.77218" lon="2.17496">
        <ele>62.5</ele>
        <time>2023-01-18T14:35:18Z</time>
      </trkpt>
      <trkpt lat="49.77219" lon="2.17495">
        <ele>62.5</ele>
        <time>2023-01-18T14:35:19Z</time>
      </trkpt>
      <trkpt lat="49.77219" lon="2.17493">
        <ele>62.4</ele>
        <time>2023-01-18T14:35:20Z</time>
      </trkpt>
      <trkpt lat="49.77219" lon="2.17492">
        <ele>62.4</ele>
        <time>2023-01-18T14:35:21Z</time>
      </trkpt>
      <trkpt lat="49.7722" lon="2.1749">
        <ele>62.3</ele>
        <time>2023-01-18T14:35:22Z</time>
      </trkpt>
      <trkpt lat="49.7722" lon="2.17489">
        <ele>62.3</ele>
        <time>2023-01-18T14:35:23Z</time>
      </trkpt>
      <trkpt lat="49.7722" lon="2.17487">
        <ele>62.2</ele>
        <time>2023-01-18T14:35:24Z</time>
      </trkpt>
      <trkpt lat="49.7722" lon="2.17486">
        <ele>62.2</ele>
        <time>2023-01-18T14:35:25Z</time>
      </trkpt>
      <trkpt lat="49.7722" lon="2.17484">
        <ele>62.1</ele>
        <time>2023-01-18T14:35:26Z</time>
      </trkpt>
      <trkpt lat="49.7722" lon="2.17482">
        <ele>62.1</ele>
        <time>2023-01-18T14:35:28Z</time>
      </trkpt>
      <trkpt lat="49.7722" lon="2.17481">
        <ele>62</ele>
        <time>2023-01-18T14:35:29Z</time>
      </trkpt>
      <trkpt lat="49.77221" lon="2.17479">
        <ele>62</ele>
        <time>2023-01-18T14:35:30Z</time>
      </trkpt>
      <trkpt lat="49.77221" lon="2.17477">
        <ele>61.9</ele>
        <time>2023-01-18T14:35:31Z</time>
      </trkpt>
      <trkpt lat="49.77221" lon="2.17475">
        <ele>61.9</ele>
        <time>2023-01-18T14:35:32Z</time>
      </trkpt>
      <trkpt lat="49.77221" lon="2.17474">
        <ele>61.8</ele>
        <time>2023-01-18T14:35:33Z</time>
      </trkpt>
      <trkpt lat="49.77222" lon="2.17472">
        <ele>61.8</ele>
        <time>2023-01-18T14:35:34Z</time>
      </trkpt>
      <trkpt lat="49.77223" lon="2.17469">
        <ele>61.7</ele>
        <time>2023-01-18T14:35:35Z</time>
      </trkpt>
      <trkpt lat="49.77223" lon="2.17468">
        <ele>61.6</ele>
        <time>2023-01-18T14:35:36Z</time>
      </trkpt>
      <trkpt lat="49.77224" lon="2.17467">
        <ele>61.6</ele>
        <time>2023-01-18T14:35:37Z</time>
      </trkpt>
      <trkpt lat="49.77224" lon="2.17466">
        <ele>61.6</ele>
        <time>2023-01-18T14:35:38Z</time>
      </trkpt>
      <trkpt lat="49.77225" lon="2.17465">
        <ele>61.5</ele>
        <time>2023-01-18T14:35:39Z</time>
      </trkpt>
      <trkpt lat="49.77226" lon="2.17463">
        <ele>61.5</ele>
        <time>2023-01-18T14:35:41Z</time>
      </trkpt>
      <trkpt lat="49.77226" lon="2.17461">
        <ele>61.4</ele>
        <time>2023-01-18T14:35:42Z</time>
      </trkpt>
      <trkpt lat="49.77227" lon="2.1746">
        <ele>61.4</ele>
        <time>2023-01-18T14:35:43Z</time>
      </trkpt>
      <trkpt lat="49.77228" lon="2.17459">
        <ele>61.3</ele>
        <time>2023-01-18T14:35:44Z</time>
      </trkpt>
      <trkpt lat="49.77229" lon="2.17457">
        <ele>61.2</ele>
        <time>2023-01-18T14:35:45Z</time>
      </trkpt>
      <trkpt lat="49.77229" lon="2.17456">
        <ele>61.2</ele>
        <time>2023-01-18T14:35:46Z</time>
      </trkpt>
      <trkpt lat="49.77229" lon="2.17454">
        <ele>61.2</ele>
        <time>2023-01-18T14:35:47Z</time>
      </trkpt>
      <trkpt lat="49.7723" lon="2.17453">
        <ele>61.1</ele>
        <time>2023-01-18T14:35:48Z</time>
      </trkpt>
      <trkpt lat="49.77231" lon="2.17452">
        <ele>61.1</ele>
        <time>2023-01-18T14:35:50Z</time>
      </trkpt>
      <trkpt lat="49.77231" lon="2.17451">
        <ele>61.1</ele>
        <time>2023-01-18T14:35:51Z</time>
      </trkpt>
      <trkpt lat="49.77232" lon="2.17449">
        <ele>61</ele>
        <time>2023-01-18T14:35:52Z</time>
      </trkpt>
      <trkpt lat="49.77232" lon="2.17449">
        <ele>61</ele>
        <time>2023-01-18T14:35:53Z</time>
      </trkpt>
      <trkpt lat="49.77233" lon="2.17448">
        <ele>60.9</ele>
        <time>2023-01-18T14:35:54Z</time>
      </trkpt>
      <trkpt lat="49.77233" lon="2.17447">
        <ele>60.9</ele>
        <time>2023-01-18T14:35:55Z</time>
      </trkpt>
      <trkpt lat="49.77234" lon="2.17445">
        <ele>60.9</ele>
        <time>2023-01-18T14:35:56Z</time>
      </trkpt>
      <trkpt lat="49.77234" lon="2.17443">
        <ele>60.8</ele>
        <time>2023-01-18T14:35:57Z</time>
      </trkpt>
      <trkpt lat="49.77235" lon="2.17442">
        <ele>60.8</ele>
        <time>2023-01-18T14:35:58Z</time>
      </trkpt>
      <trkpt lat="49.77236" lon="2.17441">
        <ele>60.7</ele>
        <time>2023-01-18T14:35:59Z</time>
      </trkpt>
      <trkpt lat="49.77236" lon="2.17439">
        <ele>60.7</ele>
        <time>2023-01-18T14:36:00Z</time>
      </trkpt>
      <trkpt lat="49.77237" lon="2.17437">
        <ele>60.6</ele>
        <time>2023-01-18T14:36:02Z</time>
      </trkpt>
      <trkpt lat="49.77237" lon="2.17436">
        <ele>60.6</ele>
        <time>2023-01-18T14:36:03Z</time>
      </trkpt>
      <trkpt lat="49.77238" lon="2.17435">
        <ele>60.5</ele>
        <time>2023-01-18T14:36:04Z</time>
      </trkpt>
      <trkpt lat="49.77238" lon="2.17434">
        <ele>60.5</ele>
        <time>2023-01-18T14:36:05Z</time>
      </trkpt>
      <trkpt lat="49.77238" lon="2.17433">
        <ele>60.5</ele>
        <time>2023-01-18T14:36:06Z</time>
      </trkpt>
      <trkpt lat="49.77239" lon="2.17431">
        <ele>60.4</ele>
        <time>2023-01-18T14:36:07Z</time>
      </trkpt>
      <trkpt lat="49.77239" lon="2.1743">
        <ele>60.4</ele>
        <time>2023-01-18T14:36:08Z</time>
      </trkpt>
      <trkpt lat="49.7724" lon="2.17428">
        <ele>60.3</ele>
        <time>2023-01-18T14:36:09Z</time>
      </trkpt>
      <trkpt lat="49.7724" lon="2.17425">
        <ele>60.3</ele>
        <time>2023-01-18T14:36:10Z</time>
      </trkpt>
      <trkpt lat="49.77241" lon="2.17424">
        <ele>60.2</ele>
        <time>2023-01-18T14:36:11Z</time>
      </trkpt>
      <trkpt lat="49.77241" lon="2.17423">
        <ele>60.2</ele>
        <time>2023-01-18T14:36:12Z</time>
      </trkpt>
      <trkpt lat="49.77242" lon="2.1742">
        <ele>60.1</ele>
        <time>2023-01-18T14:36:14Z</time>
      </trkpt>
      <trkpt lat="49.77242" lon="2.17419">
        <ele>60.1</ele>
        <time>2023-01-18T14:36:15Z</time>
      </trkpt>
      <trkpt lat="49.77242" lon="2.17417">
        <ele>60</ele>
        <time>2023-01-18T14:36:16Z</time>
      </trkpt>
      <trkpt lat="49.77244" lon="2.17414">
        <ele>59.9</ele>
        <time>2023-01-18T14:36:17Z</time>
      </trkpt>
      <trkpt lat="49.77244" lon="2.17413">
        <ele>59.9</ele>
        <time>2023-01-18T14:36:18Z</time>
      </trkpt>
      <trkpt lat="49.77244" lon="2.17412">
        <ele>59.9</ele>
        <time>2023-01-18T14:36:19Z</time>
      </trkpt>
      <trkpt lat="49.77245" lon="2.17409">
        <ele>59.8</ele>
        <time>2023-01-18T14:36:20Z</time>
      </trkpt>
      <trkpt lat="49.77246" lon="2.17408">
        <ele>59.8</ele>
        <time>2023-01-18T14:36:21Z</time>
      </trkpt>
      <trkpt lat="49.77246" lon="2.17406">
        <ele>59.7</ele>
        <time>2023-01-18T14:36:22Z</time>
      </trkpt>
      <trkpt lat="49.77247" lon="2.17405">
        <ele>59.7</ele>
        <time>2023-01-18T14:36:23Z</time>
      </trkpt>
      <trkpt lat="49.77247" lon="2.17403">
        <ele>59.7</ele>
        <time>2023-01-18T14:36:25Z</time>
      </trkpt>
      <trkpt lat="49.77248" lon="2.17402">
        <ele>59.6</ele>
        <time>2023-01-18T14:36:26Z</time>
      </trkpt>
      <trkpt lat="49.77248" lon="2.174">
        <ele>59.6</ele>
        <time>2023-01-18T14:36:27Z</time>
      </trkpt>
      <trkpt lat="49.77249" lon="2.17398">
        <ele>59.5</ele>
        <time>2023-01-18T14:36:28Z</time>
      </trkpt>
      <trkpt lat="49.77249" lon="2.17397">
        <ele>59.5</ele>
        <time>2023-01-18T14:36:29Z</time>
      </trkpt>
      <trkpt lat="49.77249" lon="2.17396">
        <ele>59.5</ele>
        <time>2023-01-18T14:36:30Z</time>
      </trkpt>
      <trkpt lat="49.7725" lon="2.17394">
        <ele>59.4</ele>
        <time>2023-01-18T14:36:31Z</time>
      </trkpt>
      <trkpt lat="49.7725" lon="2.17393">
        <ele>59.4</ele>
        <time>2023-01-18T14:36:32Z</time>
      </trkpt>
      <trkpt lat="49.77251" lon="2.17391">
        <ele>59.4</ele>
        <time>2023-01-18T14:36:33Z</time>
      </trkpt>
      <trkpt lat="49.77251" lon="2.17389">
        <ele>59.3</ele>
        <time>2023-01-18T14:36:34Z</time>
      </trkpt>
      <trkpt lat="49.77252" lon="2.17388">
        <ele>59.3</ele>
        <time>2023-01-18T14:36:36Z</time>
      </trkpt>
      <trkpt lat="49.77252" lon="2.17386">
        <ele>59.2</ele>
        <time>2023-01-18T14:36:37Z</time>
      </trkpt>
      <trkpt lat="49.77253" lon="2.17385">
        <ele>59.2</ele>
        <time>2023-01-18T14:36:38Z</time>
      </trkpt>
      <trkpt lat="49.77254" lon="2.17384">
        <ele>59.2</ele>
        <time>2023-01-18T14:36:39Z</time>
      </trkpt>
      <trkpt lat="49.77255" lon="2.17381">
        <ele>59.1</ele>
        <time>2023-01-18T14:36:40Z</time>
      </trkpt>
      <trkpt lat="49.77256" lon="2.1738">
        <ele>59</ele>
        <time>2023-01-18T14:36:42Z</time>
      </trkpt>
      <trkpt lat="49.77256" lon="2.17379">
        <ele>59</ele>
        <time>2023-01-18T14:36:43Z</time>
      </trkpt>
      <trkpt lat="49.77257" lon="2.17378">
        <ele>59</ele>
        <time>2023-01-18T14:36:44Z</time>
      </trkpt>
      <trkpt lat="49.77257" lon="2.17376">
        <ele>59</ele>
        <time>2023-01-18T14:36:45Z</time>
      </trkpt>
      <trkpt lat="49.77257" lon="2.17375">
        <ele>58.9</ele>
        <time>2023-01-18T14:36:46Z</time>
      </trkpt>
      <trkpt lat="49.77258" lon="2.17373">
        <ele>58.9</ele>
        <time>2023-01-18T14:36:47Z</time>
      </trkpt>
      <trkpt lat="49.77258" lon="2.17371">
        <ele>58.8</ele>
        <time>2023-01-18T14:36:48Z</time>
      </trkpt>
      <trkpt lat="49.77259" lon="2.1737">
        <ele>58.8</ele>
        <time>2023-01-18T14:36:49Z</time>
      </trkpt>
      <trkpt lat="49.77259" lon="2.17369">
        <ele>58.7</ele>
        <time>2023-01-18T14:36:51Z</time>
      </trkpt>
      <trkpt lat="49.77259" lon="2.17367">
        <ele>58.7</ele>
        <time>2023-01-18T14:36:52Z</time>
      </trkpt>
      <trkpt lat="49.7726" lon="2.17366">
        <ele>58.7</ele>
        <time>2023-01-18T14:36:53Z</time>
      </trkpt>
      <trkpt lat="49.77261" lon="2.17364">
        <ele>58.6</ele>
        <time>2023-01-18T14:36:54Z</time>
      </trkpt>
      <trkpt lat="49.77261" lon="2.17363">
        <ele>58.6</ele>
        <time>2023-01-18T14:36:55Z</time>
      </trkpt>
      <trkpt lat="49.77263" lon="2.17363">
        <ele>58.5</ele>
        <time>2023-01-18T14:36:56Z</time>
      </trkpt>
      <trkpt lat="49.77264" lon="2.17361">
        <ele>58.4</ele>
        <time>2023-01-18T14:36:57Z</time>
      </trkpt>
      <trkpt lat="49.77265" lon="2.1736">
        <ele>58.4</ele>
        <time>2023-01-18T14:36:58Z</time>
      </trkpt>
      <trkpt lat="49.77265" lon="2.17359">
        <ele>58.4</ele>
        <time>2023-01-18T14:36:59Z</time>
      </trkpt>
      <trkpt lat="49.77266" lon="2.17358">
        <ele>58.3</ele>
        <time>2023-01-18T14:37:01Z</time>
      </trkpt>
      <trkpt lat="49.77266" lon="2.17356">
        <ele>58.3</ele>
        <time>2023-01-18T14:37:02Z</time>
      </trkpt>
      <trkpt lat="49.77267" lon="2.17355">
        <ele>58.2</ele>
        <time>2023-01-18T14:37:03Z</time>
      </trkpt>
      <trkpt lat="49.77267" lon="2.17353">
        <ele>58.2</ele>
        <time>2023-01-18T14:37:04Z</time>
      </trkpt>
      <trkpt lat="49.77268" lon="2.17352">
        <ele>58.1</ele>
        <time>2023-01-18T14:37:05Z</time>
      </trkpt>
      <trkpt lat="49.77268" lon="2.1735">
        <ele>58.1</ele>
        <time>2023-01-18T14:37:06Z</time>
      </trkpt>
      <trkpt lat="49.77269" lon="2.17347">
        <ele>58</ele>
        <time>2023-01-18T14:37:07Z</time>
      </trkpt>
      <trkpt lat="49.77269" lon="2.17346">
        <ele>58</ele>
        <time>2023-01-18T14:37:08Z</time>
      </trkpt>
      <trkpt lat="49.77269" lon="2.17345">
        <ele>57.9</ele>
        <time>2023-01-18T14:37:09Z</time>
      </trkpt>
      <trkpt lat="49.7727" lon="2.17344">
        <ele>57.9</ele>
        <time>2023-01-18T14:37:11Z</time>
      </trkpt>
      <trkpt lat="49.77271" lon="2.17342">
        <ele>57.8</ele>
        <time>2023-01-18T14:37:12Z</time>
      </trkpt>
      <trkpt lat="49.77272" lon="2.17341">
        <ele>57.8</ele>
        <time>2023-01-18T14:37:13Z</time>
      </trkpt>
      <trkpt lat="49.77273" lon="2.17339">
        <ele>57.7</ele>
        <time>2023-01-18T14:37:14Z</time>
      </trkpt>
      <trkpt lat="49.77274" lon="2.17337">
        <ele>57.6</ele>
        <time>2023-01-18T14:37:15Z</time>
      </trkpt>
      <trkpt lat="49.77274" lon="2.17336">
        <ele>57.6</ele>
        <time>2023-01-18T14:37:16Z</time>
      </trkpt>
      <trkpt lat="49.77276" lon="2.17334">
        <ele>57.5</ele>
        <time>2023-01-18T14:37:18Z</time>
      </trkpt>
      <trkpt lat="49.77276" lon="2.17333">
        <ele>57.5</ele>
        <time>2023-01-18T14:37:19Z</time>
      </trkpt>
      <trkpt lat="49.77277" lon="2.17332">
        <ele>57.4</ele>
        <time>2023-01-18T14:37:20Z</time>
      </trkpt>
      <trkpt lat="49.77277" lon="2.1733">
        <ele>57.4</ele>
        <time>2023-01-18T14:37:21Z</time>
      </trkpt>
      <trkpt lat="49.77278" lon="2.17329">
        <ele>57.3</ele>
        <time>2023-01-18T14:37:22Z</time>
      </trkpt>
      <trkpt lat="49.77278" lon="2.17327">
        <ele>57.3</ele>
        <time>2023-01-18T14:37:23Z</time>
      </trkpt>
      <trkpt lat="49.77279" lon="2.17325">
        <ele>57.2</ele>
        <time>2023-01-18T14:37:24Z</time>
      </trkpt>
      <trkpt lat="49.77279" lon="2.17323">
        <ele>57.2</ele>
        <time>2023-01-18T14:37:26Z</time>
      </trkpt>
      <trkpt lat="49.77279" lon="2.17322">
        <ele>57.1</ele>
        <time>2023-01-18T14:37:27Z</time>
      </trkpt>
      <trkpt lat="49.7728" lon="2.17321">
        <ele>57.1</ele>
        <time>2023-01-18T14:37:28Z</time>
      </trkpt>
      <trkpt lat="49.77281" lon="2.17319">
        <ele>57.1</ele>
        <time>2023-01-18T14:37:29Z</time>
      </trkpt>
      <trkpt lat="49.77281" lon="2.17318">
        <ele>57</ele>
        <time>2023-01-18T14:37:30Z</time>
      </trkpt>
      <trkpt lat="49.77282" lon="2.17316">
        <ele>56.9</ele>
        <time>2023-01-18T14:37:31Z</time>
      </trkpt>
      <trkpt lat="49.77283" lon="2.17315">
        <ele>56.9</ele>
        <time>2023-01-18T14:37:33Z</time>
      </trkpt>
      <trkpt lat="49.77283" lon="2.17314">
        <ele>56.9</ele>
        <time>2023-01-18T14:37:34Z</time>
      </trkpt>
      <trkpt lat="49.77284" lon="2.17313">
        <ele>56.8</ele>
        <time>2023-01-18T14:37:35Z</time>
      </trkpt>
      <trkpt lat="49.77284" lon="2.17313">
        <ele>56.8</ele>
        <time>2023-01-18T14:37:36Z</time>
      </trkpt>
      <trkpt lat="49.77284" lon="2.17311">
        <ele>56.8</ele>
        <time>2023-01-18T14:37:37Z</time>
      </trkpt>
      <trkpt lat="49.77284" lon="2.1731">
        <ele>56.7</ele>
        <time>2023-01-18T14:37:39Z</time>
      </trkpt>
      <trkpt lat="49.77285" lon="2.17309">
        <ele>56.7</ele>
        <time>2023-01-18T14:37:40Z</time>
      </trkpt>
      <trkpt lat="49.77285" lon="2.17307">
        <ele>56.6</ele>
        <time>2023-01-18T14:37:41Z</time>
      </trkpt>
      <trkpt lat="49.77285" lon="2.17306">
        <ele>56.6</ele>
        <time>2023-01-18T14:37:42Z</time>
      </trkpt>
      <trkpt lat="49.77285" lon="2.17304">
        <ele>56.5</ele>
        <time>2023-01-18T14:37:43Z</time>
      </trkpt>
      <trkpt lat="49.77285" lon="2.17303">
        <ele>56.5</ele>
        <time>2023-01-18T14:37:45Z</time>
      </trkpt>
      <trkpt lat="49.77285" lon="2.17302">
        <ele>56.4</ele>
        <time>2023-01-18T14:37:46Z</time>
      </trkpt>
      <trkpt lat="49.77284" lon="2.173">
        <ele>56.4</ele>
        <time>2023-01-18T14:37:47Z</time>
      </trkpt>
      <trkpt lat="49.77284" lon="2.17299">
        <ele>56.4</ele>
        <time>2023-01-18T14:37:48Z</time>
      </trkpt>
      <trkpt lat="49.77284" lon="2.17296">
        <ele>56.3</ele>
        <time>2023-01-18T14:37:49Z</time>
      </trkpt>
      <trkpt lat="49.77285" lon="2.17295">
        <ele>56.2</ele>
        <time>2023-01-18T14:37:51Z</time>
      </trkpt>
      <trkpt lat="49.77285" lon="2.17293">
        <ele>56</ele>
        <time>2023-01-18T14:37:52Z</time>
      </trkpt>
      <trkpt lat="49.77286" lon="2.1729">
        <ele>56</ele>
        <time>2023-01-18T14:37:53Z</time>
      </trkpt>
      <trkpt lat="49.77286" lon="2.17288">
        <ele>56</ele>
        <time>2023-01-18T14:37:54Z</time>
      </trkpt>
      <trkpt lat="49.77286" lon="2.17286">
        <ele>56</ele>
        <time>2023-01-18T14:37:55Z</time>
      </trkpt>
      <trkpt lat="49.77286" lon="2.17284">
        <ele>56</ele>
        <time>2023-01-18T14:37:57Z</time>
      </trkpt>
      <trkpt lat="49.77287" lon="2.17283">
        <ele>56</ele>
        <time>2023-01-18T14:37:58Z</time>
      </trkpt>
      <trkpt lat="49.77287" lon="2.17282">
        <ele>56</ele>
        <time>2023-01-18T14:38:00Z</time>
      </trkpt>
      <trkpt lat="49.77288" lon="2.17283">
        <ele>55.9</ele>
        <time>2023-01-18T14:38:01Z</time>
      </trkpt>
      <trkpt lat="49.77289" lon="2.17283">
        <ele>55.9</ele>
        <time>2023-01-18T14:38:03Z</time>
      </trkpt>
      <trkpt lat="49.7729" lon="2.17283">
        <ele>55.9</ele>
        <time>2023-01-18T14:38:04Z</time>
      </trkpt>
      <trkpt lat="49.7729" lon="2.17284">
        <ele>55.9</ele>
        <time>2023-01-18T14:38:06Z</time>
      </trkpt>
      <trkpt lat="49.7729" lon="2.17284">
        <ele>55.9</ele>
        <time>2023-01-18T14:38:07Z</time>
      </trkpt>
      <trkpt lat="49.7729" lon="2.17284">
        <ele>55.9</ele>
        <time>2023-01-18T14:38:08Z</time>
      </trkpt>
      <trkpt lat="49.7729" lon="2.17284">
        <ele>55.9</ele>
        <time>2023-01-18T14:38:10Z</time>
      </trkpt>
      <trkpt lat="49.7729" lon="2.17284">
        <ele>55.9</ele>
        <time>2023-01-18T14:38:11Z</time>
      </trkpt>
      <trkpt lat="49.7729" lon="2.17284">
        <ele>55.9</ele>
        <time>2023-01-18T14:38:13Z</time>
      </trkpt>
      <trkpt lat="49.7729" lon="2.17284">
        <ele>55.9</ele>
        <time>2023-01-18T14:38:14Z</time>
      </trkpt>
      <trkpt lat="49.7729" lon="2.17283">
        <ele>55.9</ele>
        <time>2023-01-18T14:38:16Z</time>
      </trkpt>
      <trkpt lat="49.77289" lon="2.17284">
        <ele>55.9</ele>
        <time>2023-01-18T14:38:17Z</time>
      </trkpt>
      <trkpt lat="49.77289" lon="2.17284">
        <ele>55.8</ele>
        <time>2023-01-18T14:38:18Z</time>
      </trkpt>
      <trkpt lat="49.77289" lon="2.17284">
        <ele>55.8</ele>
        <time>2023-01-18T14:38:19Z</time>
      </trkpt>
      <trkpt lat="49.77289" lon="2.17284">
        <ele>55.8</ele>
        <time>2023-01-18T14:38:20Z</time>
      </trkpt>
      <trkpt lat="49.77289" lon="2.17285">
        <ele>55.8</ele>
        <time>2023-01-18T14:38:21Z</time>
      </trkpt>
      <trkpt lat="49.77289" lon="2.17285">
        <ele>55.8</ele>
        <time>2023-01-18T14:38:22Z</time>
      </trkpt>
      <trkpt lat="49.77289" lon="2.17285">
        <ele>55.8</ele>
        <time>2023-01-18T14:38:23Z</time>
      </trkpt>
      <trkpt lat="49.77289" lon="2.17285">
        <ele>55.8</ele>
        <time>2023-01-18T14:38:24Z</time>
      </trkpt>
      <trkpt lat="49.77289" lon="2.17285">
        <ele>55.8</ele>
        <time>2023-01-18T14:38:25Z</time>
      </trkpt>
      <trkpt lat="49.77289" lon="2.17285">
        <ele>55.8</ele>
        <time>2023-01-18T14:38:26Z</time>
      </trkpt>
      <trkpt lat="49.77289" lon="2.17285">
        <ele>55.8</ele>
        <time>2023-01-18T14:38:27Z</time>
      </trkpt>
      <trkpt lat="49.77289" lon="2.17284">
        <ele>55.8</ele>
        <time>2023-01-18T14:38:28Z</time>
      </trkpt>
      <trkpt lat="49.77289" lon="2.17284">
        <ele>55.8</ele>
        <time>2023-01-18T14:38:29Z</time>
      </trkpt>
      <trkpt lat="49.77289" lon="2.17283">
        <ele>55.8</ele>
        <time>2023-01-18T14:38:30Z</time>
      </trkpt>
      <trkpt lat="49.77288" lon="2.17282">
        <ele>55.8</ele>
        <time>2023-01-18T14:38:31Z</time>
      </trkpt>
      <trkpt lat="49.77288" lon="2.17281">
        <ele>55.7</ele>
        <time>2023-01-18T14:38:32Z</time>
      </trkpt>
      <trkpt lat="49.77288" lon="2.1728">
        <ele>55.7</ele>
        <time>2023-01-18T14:38:33Z</time>
      </trkpt>
      <trkpt lat="49.77288" lon="2.1728">
        <ele>55.7</ele>
        <time>2023-01-18T14:38:34Z</time>
      </trkpt>
      <trkpt lat="49.77288" lon="2.1728">
        <ele>55.7</ele>
        <time>2023-01-18T14:38:35Z</time>
      </trkpt>
      <trkpt lat="49.77287" lon="2.17277">
        <ele>55.6</ele>
        <time>2023-01-18T14:38:36Z</time>
      </trkpt>
      <trkpt lat="49.77287" lon="2.17276">
        <ele>55.6</ele>
        <time>2023-01-18T14:38:38Z</time>
      </trkpt>
      <trkpt lat="49.77287" lon="2.17276">
        <ele>55.6</ele>
        <time>2023-01-18T14:38:39Z</time>
      </trkpt>
      <trkpt lat="49.77287" lon="2.17275">
        <ele>55.5</ele>
        <time>2023-01-18T14:38:40Z</time>
      </trkpt>
      <trkpt lat="49.77287" lon="2.17274">
        <ele>55.5</ele>
        <time>2023-01-18T14:38:41Z</time>
      </trkpt>
      <trkpt lat="49.77287" lon="2.17272">
        <ele>55.4</ele>
        <time>2023-01-18T14:38:42Z</time>
      </trkpt>
      <trkpt lat="49.77287" lon="2.17271">
        <ele>55.4</ele>
        <time>2023-01-18T14:38:44Z</time>
      </trkpt>
      <trkpt lat="49.77287" lon="2.17269">
        <ele>55.3</ele>
        <time>2023-01-18T14:38:45Z</time>
      </trkpt>
      <trkpt lat="49.77286" lon="2.17267">
        <ele>55.2</ele>
        <time>2023-01-18T14:38:46Z</time>
      </trkpt>
      <trkpt lat="49.77286" lon="2.17267">
        <ele>55.2</ele>
        <time>2023-01-18T14:38:47Z</time>
      </trkpt>
      <trkpt lat="49.77285" lon="2.17265">
        <ele>55.1</ele>
        <time>2023-01-18T14:38:48Z</time>
      </trkpt>
      <trkpt lat="49.77284" lon="2.17263">
        <ele>55</ele>
        <time>2023-01-18T14:38:50Z</time>
      </trkpt>
      <trkpt lat="49.77283" lon="2.17259">
        <ele>54.8</ele>
        <time>2023-01-18T14:38:51Z</time>
      </trkpt>
      <trkpt lat="49.77284" lon="2.17257">
        <ele>54.7</ele>
        <time>2023-01-18T14:38:52Z</time>
      </trkpt>
      <trkpt lat="49.77283" lon="2.17255">
        <ele>54.6</ele>
        <time>2023-01-18T14:38:53Z</time>
      </trkpt>
      <trkpt lat="49.77282" lon="2.17254">
        <ele>54.5</ele>
        <time>2023-01-18T14:38:54Z</time>
      </trkpt>
      <trkpt lat="49.77281" lon="2.17253">
        <ele>54.4</ele>
        <time>2023-01-18T14:38:55Z</time>
      </trkpt>
      <trkpt lat="49.77279" lon="2.17252">
        <ele>54.3</ele>
        <time>2023-01-18T14:38:56Z</time>
      </trkpt>
      <trkpt lat="49.77278" lon="2.17252">
        <ele>54.2</ele>
        <time>2023-01-18T14:38:57Z</time>
      </trkpt>
      <trkpt lat="49.77277" lon="2.17251">
        <ele>54.1</ele>
        <time>2023-01-18T14:38:59Z</time>
      </trkpt>
      <trkpt lat="49.77276" lon="2.17251">
        <ele>54.1</ele>
        <time>2023-01-18T14:39:00Z</time>
      </trkpt>
      <trkpt lat="49.77276" lon="2.17251">
        <ele>54</ele>
        <time>2023-01-18T14:39:01Z</time>
      </trkpt>
      <trkpt lat="49.77275" lon="2.1725">
        <ele>53.9</ele>
        <time>2023-01-18T14:39:02Z</time>
      </trkpt>
      <trkpt lat="49.77274" lon="2.17249">
        <ele>53.8</ele>
        <time>2023-01-18T14:39:03Z</time>
      </trkpt>
      <trkpt lat="49.77272" lon="2.17247">
        <ele>53.6</ele>
        <time>2023-01-18T14:39:04Z</time>
      </trkpt>
      <trkpt lat="49.77271" lon="2.17246">
        <ele>53.6</ele>
        <time>2023-01-18T14:39:05Z</time>
      </trkpt>
      <trkpt lat="49.77271" lon="2.17245">
        <ele>53.5</ele>
        <time>2023-01-18T14:39:06Z</time>
      </trkpt>
      <trkpt lat="49.7727" lon="2.17244">
        <ele>53.4</ele>
        <time>2023-01-18T14:39:08Z</time>
      </trkpt>
      <trkpt lat="49.77269" lon="2.17243">
        <ele>53.3</ele>
        <time>2023-01-18T14:39:09Z</time>
      </trkpt>
      <trkpt lat="49.77268" lon="2.17242">
        <ele>53.2</ele>
        <time>2023-01-18T14:39:10Z</time>
      </trkpt>
      <trkpt lat="49.77266" lon="2.17241">
        <ele>53.1</ele>
        <time>2023-01-18T14:39:11Z</time>
      </trkpt>
      <trkpt lat="49.77265" lon="2.17241">
        <ele>53</ele>
        <time>2023-01-18T14:39:12Z</time>
      </trkpt>
      <trkpt lat="49.77264" lon="2.17241">
        <ele>53</ele>
        <time>2023-01-18T14:39:13Z</time>
      </trkpt>
      <trkpt lat="49.77264" lon="2.1724">
        <ele>52.9</ele>
        <time>2023-01-18T14:39:15Z</time>
      </trkpt>
      <trkpt lat="49.77262" lon="2.17238">
        <ele>52.7</ele>
        <time>2023-01-18T14:39:16Z</time>
      </trkpt>
      <trkpt lat="49.77262" lon="2.17238">
        <ele>52.7</ele>
        <time>2023-01-18T14:39:17Z</time>
      </trkpt>
      <trkpt lat="49.77261" lon="2.17237">
        <ele>52.7</ele>
        <time>2023-01-18T14:39:18Z</time>
      </trkpt>
      <trkpt lat="49.7726" lon="2.17236">
        <ele>52.5</ele>
        <time>2023-01-18T14:39:19Z</time>
      </trkpt>
      <trkpt lat="49.77259" lon="2.17236">
        <ele>52.4</ele>
        <time>2023-01-18T14:39:20Z</time>
      </trkpt>
      <trkpt lat="49.77258" lon="2.17233">
        <ele>52.4</ele>
        <time>2023-01-18T14:39:21Z</time>
      </trkpt>
      <trkpt lat="49.77257" lon="2.17232">
        <ele>52.4</ele>
        <time>2023-01-18T14:39:22Z</time>
      </trkpt>
      <trkpt lat="49.77256" lon="2.17232">
        <ele>52.4</ele>
        <time>2023-01-18T14:39:23Z</time>
      </trkpt>
      <trkpt lat="49.77254" lon="2.1723">
        <ele>52.3</ele>
        <time>2023-01-18T14:39:25Z</time>
      </trkpt>
      <trkpt lat="49.77253" lon="2.17229">
        <ele>52.3</ele>
        <time>2023-01-18T14:39:26Z</time>
      </trkpt>
      <trkpt lat="49.77253" lon="2.17229">
        <ele>52.3</ele>
        <time>2023-01-18T14:39:27Z</time>
      </trkpt>
      <trkpt lat="49.77252" lon="2.17228">
        <ele>52.3</ele>
        <time>2023-01-18T14:39:28Z</time>
      </trkpt>
      <trkpt lat="49.77251" lon="2.17227">
        <ele>52.3</ele>
        <time>2023-01-18T14:39:29Z</time>
      </trkpt>
      <trkpt lat="49.77249" lon="2.17226">
        <ele>52.3</ele>
        <time>2023-01-18T14:39:30Z</time>
      </trkpt>
      <trkpt lat="49.77248" lon="2.17226">
        <ele>52.2</ele>
        <time>2023-01-18T14:39:31Z</time>
      </trkpt>
      <trkpt lat="49.77247" lon="2.17226">
        <ele>52.2</ele>
        <time>2023-01-18T14:39:33Z</time>
      </trkpt>
      <trkpt lat="49.77246" lon="2.17225">
        <ele>52.2</ele>
        <time>2023-01-18T14:39:34Z</time>
      </trkpt>
      <trkpt lat="49.77245" lon="2.17225">
        <ele>52.2</ele>
        <time>2023-01-18T14:39:35Z</time>
      </trkpt>
      <trkpt lat="49.77244" lon="2.17224">
        <ele>52.2</ele>
        <time>2023-01-18T14:39:36Z</time>
      </trkpt>
      <trkpt lat="49.77243" lon="2.17224">
        <ele>52.2</ele>
        <time>2023-01-18T14:39:37Z</time>
      </trkpt>
      <trkpt lat="49.77242" lon="2.17223">
        <ele>52.2</ele>
        <time>2023-01-18T14:39:38Z</time>
      </trkpt>
      <trkpt lat="49.77241" lon="2.17222">
        <ele>52.1</ele>
        <time>2023-01-18T14:39:39Z</time>
      </trkpt>
      <trkpt lat="49.77238" lon="2.17221">
        <ele>52.1</ele>
        <time>2023-01-18T14:39:41Z</time>
      </trkpt>
      <trkpt lat="49.77237" lon="2.17221">
        <ele>52.1</ele>
        <time>2023-01-18T14:39:43Z</time>
      </trkpt>
      <trkpt lat="49.77235" lon="2.17219">
        <ele>52.1</ele>
        <time>2023-01-18T14:39:44Z</time>
      </trkpt>
      <trkpt lat="49.77233" lon="2.17219">
        <ele>52</ele>
        <time>2023-01-18T14:39:45Z</time>
      </trkpt>
      <trkpt lat="49.77232" lon="2.17218">
        <ele>52</ele>
        <time>2023-01-18T14:39:46Z</time>
      </trkpt>
      <trkpt lat="49.77232" lon="2.17217">
        <ele>52</ele>
        <time>2023-01-18T14:39:47Z</time>
      </trkpt>
      <trkpt lat="49.77232" lon="2.17216">
        <ele>52</ele>
        <time>2023-01-18T14:39:48Z</time>
      </trkpt>
      <trkpt lat="49.77231" lon="2.17216">
        <ele>52</ele>
        <time>2023-01-18T14:39:49Z</time>
      </trkpt>
      <trkpt lat="49.7723" lon="2.17214">
        <ele>52</ele>
        <time>2023-01-18T14:39:50Z</time>
      </trkpt>
      <trkpt lat="49.77229" lon="2.17213">
        <ele>51.9</ele>
        <time>2023-01-18T14:39:51Z</time>
      </trkpt>
      <trkpt lat="49.77228" lon="2.17212">
        <ele>51.9</ele>
        <time>2023-01-18T14:39:52Z</time>
      </trkpt>
      <trkpt lat="49.77227" lon="2.17211">
        <ele>51.9</ele>
        <time>2023-01-18T14:39:53Z</time>
      </trkpt>
      <trkpt lat="49.77226" lon="2.1721">
        <ele>51.9</ele>
        <time>2023-01-18T14:39:55Z</time>
      </trkpt>
      <trkpt lat="49.77224" lon="2.17209">
        <ele>51.9</ele>
        <time>2023-01-18T14:39:56Z</time>
      </trkpt>
      <trkpt lat="49.77224" lon="2.17208">
        <ele>51.9</ele>
        <time>2023-01-18T14:39:57Z</time>
      </trkpt>
      <trkpt lat="49.77223" lon="2.17207">
        <ele>51.9</ele>
        <time>2023-01-18T14:39:58Z</time>
      </trkpt>
      <trkpt lat="49.77223" lon="2.17206">
        <ele>51.9</ele>
        <time>2023-01-18T14:39:59Z</time>
      </trkpt>
      <trkpt lat="49.77222" lon="2.17205">
        <ele>51.9</ele>
        <time>2023-01-18T14:40:00Z</time>
      </trkpt>
      <trkpt lat="49.77221" lon="2.17204">
        <ele>51.8</ele>
        <time>2023-01-18T14:40:01Z</time>
      </trkpt>
      <trkpt lat="49.7722" lon="2.17204">
        <ele>51.8</ele>
        <time>2023-01-18T14:40:02Z</time>
      </trkpt>
      <trkpt lat="49.77219" lon="2.17203">
        <ele>51.8</ele>
        <time>2023-01-18T14:40:03Z</time>
      </trkpt>
      <trkpt lat="49.77217" lon="2.17201">
        <ele>51.8</ele>
        <time>2023-01-18T14:40:04Z</time>
      </trkpt>
      <trkpt lat="49.77217" lon="2.172">
        <ele>51.8</ele>
        <time>2023-01-18T14:40:06Z</time>
      </trkpt>
      <trkpt lat="49.77216" lon="2.17199">
        <ele>51.8</ele>
        <time>2023-01-18T14:40:07Z</time>
      </trkpt>
      <trkpt lat="49.77214" lon="2.17197">
        <ele>51.8</ele>
        <time>2023-01-18T14:40:08Z</time>
      </trkpt>
      <trkpt lat="49.77214" lon="2.17196">
        <ele>51.8</ele>
        <time>2023-01-18T14:40:09Z</time>
      </trkpt>
      <trkpt lat="49.77213" lon="2.17195">
        <ele>51.8</ele>
        <time>2023-01-18T14:40:10Z</time>
      </trkpt>
      <trkpt lat="49.77212" lon="2.17193">
        <ele>51.7</ele>
        <time>2023-01-18T14:40:11Z</time>
      </trkpt>
      <trkpt lat="49.77211" lon="2.17192">
        <ele>51.7</ele>
        <time>2023-01-18T14:40:12Z</time>
      </trkpt>
      <trkpt lat="49.7721" lon="2.17191">
        <ele>51.7</ele>
        <time>2023-01-18T14:40:13Z</time>
      </trkpt>
      <trkpt lat="49.7721" lon="2.1719">
        <ele>51.7</ele>
        <time>2023-01-18T14:40:14Z</time>
      </trkpt>
      <trkpt lat="49.77209" lon="2.1719">
        <ele>51.7</ele>
        <time>2023-01-18T14:40:15Z</time>
      </trkpt>
      <trkpt lat="49.77208" lon="2.17189">
        <ele>51.7</ele>
        <time>2023-01-18T14:40:17Z</time>
      </trkpt>
      <trkpt lat="49.77207" lon="2.17188">
        <ele>51.7</ele>
        <time>2023-01-18T14:40:18Z</time>
      </trkpt>
      <trkpt lat="49.77206" lon="2.17186">
        <ele>51.7</ele>
        <time>2023-01-18T14:40:19Z</time>
      </trkpt>
      <trkpt lat="49.77205" lon="2.17185">
        <ele>51.7</ele>
        <time>2023-01-18T14:40:20Z</time>
      </trkpt>
      <trkpt lat="49.77204" lon="2.17184">
        <ele>51.7</ele>
        <time>2023-01-18T14:40:21Z</time>
      </trkpt>
      <trkpt lat="49.77203" lon="2.17183">
        <ele>51.7</ele>
        <time>2023-01-18T14:40:22Z</time>
      </trkpt>
      <trkpt lat="49.77202" lon="2.17183">
        <ele>51.6</ele>
        <time>2023-01-18T14:40:23Z</time>
      </trkpt>
      <trkpt lat="49.77201" lon="2.17182">
        <ele>51.6</ele>
        <time>2023-01-18T14:40:24Z</time>
      </trkpt>
      <trkpt lat="49.772" lon="2.17181">
        <ele>51.6</ele>
        <time>2023-01-18T14:40:25Z</time>
      </trkpt>
      <trkpt lat="49.77198" lon="2.17179">
        <ele>51.6</ele>
        <time>2023-01-18T14:40:26Z</time>
      </trkpt>
      <trkpt lat="49.77198" lon="2.17179">
        <ele>51.6</ele>
        <time>2023-01-18T14:40:27Z</time>
      </trkpt>
      <trkpt lat="49.77197" lon="2.17178">
        <ele>51.6</ele>
        <time>2023-01-18T14:40:28Z</time>
      </trkpt>
      <trkpt lat="49.77196" lon="2.17177">
        <ele>51.6</ele>
        <time>2023-01-18T14:40:29Z</time>
      </trkpt>
      <trkpt lat="49.77196" lon="2.17176">
        <ele>51.6</ele>
        <time>2023-01-18T14:40:31Z</time>
      </trkpt>
      <trkpt lat="49.77195" lon="2.17175">
        <ele>51.6</ele>
        <time>2023-01-18T14:40:32Z</time>
      </trkpt>
      <trkpt lat="49.77194" lon="2.17174">
        <ele>51.6</ele>
        <time>2023-01-18T14:40:33Z</time>
      </trkpt>
      <trkpt lat="49.77193" lon="2.17174">
        <ele>51.6</ele>
        <time>2023-01-18T14:40:34Z</time>
      </trkpt>
      <trkpt lat="49.77192" lon="2.17173">
        <ele>51.6</ele>
        <time>2023-01-18T14:40:35Z</time>
      </trkpt>
      <trkpt lat="49.7719" lon="2.17174">
        <ele>51.6</ele>
        <time>2023-01-18T14:40:36Z</time>
      </trkpt>
      <trkpt lat="49.7719" lon="2.17174">
        <ele>51.6</ele>
        <time>2023-01-18T14:40:37Z</time>
      </trkpt>
      <trkpt lat="49.77189" lon="2.17175">
        <ele>51.6</ele>
        <time>2023-01-18T14:40:38Z</time>
      </trkpt>
      <trkpt lat="49.77187" lon="2.17177">
        <ele>51.6</ele>
        <time>2023-01-18T14:40:40Z</time>
      </trkpt>
      <trkpt lat="49.77187" lon="2.17178">
        <ele>51.6</ele>
        <time>2023-01-18T14:40:41Z</time>
      </trkpt>
      <trkpt lat="49.77186" lon="2.17179">
        <ele>51.6</ele>
        <time>2023-01-18T14:40:42Z</time>
      </trkpt>
      <trkpt lat="49.77184" lon="2.17182">
        <ele>51.6</ele>
        <time>2023-01-18T14:40:43Z</time>
      </trkpt>
      <trkpt lat="49.77184" lon="2.17183">
        <ele>51.6</ele>
        <time>2023-01-18T14:40:44Z</time>
      </trkpt>
      <trkpt lat="49.77183" lon="2.17184">
        <ele>51.6</ele>
        <time>2023-01-18T14:40:45Z</time>
      </trkpt>
      <trkpt lat="49.77181" lon="2.17187">
        <ele>51.6</ele>
        <time>2023-01-18T14:40:46Z</time>
      </trkpt>
      <trkpt lat="49.77181" lon="2.17188">
        <ele>51.6</ele>
        <time>2023-01-18T14:40:47Z</time>
      </trkpt>
      <trkpt lat="49.77179" lon="2.1719">
        <ele>51.6</ele>
        <time>2023-01-18T14:40:48Z</time>
      </trkpt>
      <trkpt lat="49.77179" lon="2.17191">
        <ele>51.6</ele>
        <time>2023-01-18T14:40:49Z</time>
      </trkpt>
      <trkpt lat="49.77178" lon="2.17192">
        <ele>51.5</ele>
        <time>2023-01-18T14:40:50Z</time>
      </trkpt>
      <trkpt lat="49.77177" lon="2.17194">
        <ele>51.5</ele>
        <time>2023-01-18T14:40:52Z</time>
      </trkpt>
      <trkpt lat="49.77177" lon="2.17196">
        <ele>51.5</ele>
        <time>2023-01-18T14:40:53Z</time>
      </trkpt>
      <trkpt lat="49.77176" lon="2.17197">
        <ele>51.5</ele>
        <time>2023-01-18T14:40:54Z</time>
      </trkpt>
      <trkpt lat="49.77175" lon="2.17199">
        <ele>51.5</ele>
        <time>2023-01-18T14:40:55Z</time>
      </trkpt>
      <trkpt lat="49.77173" lon="2.17203">
        <ele>51.5</ele>
        <time>2023-01-18T14:40:56Z</time>
      </trkpt>
      <trkpt lat="49.77173" lon="2.17205">
        <ele>51.5</ele>
        <time>2023-01-18T14:40:57Z</time>
      </trkpt>
      <trkpt lat="49.77172" lon="2.17206">
        <ele>51.5</ele>
        <time>2023-01-18T14:40:58Z</time>
      </trkpt>
      <trkpt lat="49.77171" lon="2.17207">
        <ele>51.5</ele>
        <time>2023-01-18T14:40:59Z</time>
      </trkpt>
      <trkpt lat="49.77171" lon="2.17208">
        <ele>51.5</ele>
        <time>2023-01-18T14:41:00Z</time>
      </trkpt>
      <trkpt lat="49.77169" lon="2.17211">
        <ele>51.5</ele>
        <time>2023-01-18T14:41:01Z</time>
      </trkpt>
      <trkpt lat="49.77169" lon="2.17212">
        <ele>51.5</ele>
        <time>2023-01-18T14:41:02Z</time>
      </trkpt>
      <trkpt lat="49.77168" lon="2.17213">
        <ele>51.5</ele>
        <time>2023-01-18T14:41:03Z</time>
      </trkpt>
      <trkpt lat="49.77168" lon="2.17214">
        <ele>51.5</ele>
        <time>2023-01-18T14:41:04Z</time>
      </trkpt>
      <trkpt lat="49.77167" lon="2.17216">
        <ele>51.5</ele>
        <time>2023-01-18T14:41:06Z</time>
      </trkpt>
      <trkpt lat="49.77166" lon="2.17217">
        <ele>51.5</ele>
        <time>2023-01-18T14:41:07Z</time>
      </trkpt>
      <trkpt lat="49.77165" lon="2.17219">
        <ele>51.5</ele>
        <time>2023-01-18T14:41:08Z</time>
      </trkpt>
      <trkpt lat="49.77164" lon="2.17221">
        <ele>51.4</ele>
        <time>2023-01-18T14:41:09Z</time>
      </trkpt>
      <trkpt lat="49.77163" lon="2.17223">
        <ele>51.4</ele>
        <time>2023-01-18T14:41:10Z</time>
      </trkpt>
      <trkpt lat="49.77161" lon="2.17226">
        <ele>51.4</ele>
        <time>2023-01-18T14:41:11Z</time>
      </trkpt>
      <trkpt lat="49.7716" lon="2.17228">
        <ele>51.4</ele>
        <time>2023-01-18T14:41:12Z</time>
      </trkpt>
      <trkpt lat="49.77159" lon="2.17229">
        <ele>51.4</ele>
        <time>2023-01-18T14:41:14Z</time>
      </trkpt>
      <trkpt lat="49.77159" lon="2.1723">
        <ele>51.4</ele>
        <time>2023-01-18T14:41:15Z</time>
      </trkpt>
      <trkpt lat="49.77158" lon="2.17232">
        <ele>51.4</ele>
        <time>2023-01-18T14:41:16Z</time>
      </trkpt>
      <trkpt lat="49.77156" lon="2.17234">
        <ele>51.4</ele>
        <time>2023-01-18T14:41:17Z</time>
      </trkpt>
      <trkpt lat="49.77155" lon="2.17235">
        <ele>51.4</ele>
        <time>2023-01-18T14:41:18Z</time>
      </trkpt>
      <trkpt lat="49.77154" lon="2.17237">
        <ele>51.4</ele>
        <time>2023-01-18T14:41:19Z</time>
      </trkpt>
      <trkpt lat="49.77152" lon="2.1724">
        <ele>51.3</ele>
        <time>2023-01-18T14:41:21Z</time>
      </trkpt>
      <trkpt lat="49.77152" lon="2.17241">
        <ele>51.3</ele>
        <time>2023-01-18T14:41:22Z</time>
      </trkpt>
      <trkpt lat="49.77151" lon="2.17242">
        <ele>51.3</ele>
        <time>2023-01-18T14:41:23Z</time>
      </trkpt>
      <trkpt lat="49.7715" lon="2.17244">
        <ele>51.3</ele>
        <time>2023-01-18T14:41:24Z</time>
      </trkpt>
      <trkpt lat="49.77149" lon="2.17245">
        <ele>51.3</ele>
        <time>2023-01-18T14:41:25Z</time>
      </trkpt>
      <trkpt lat="49.77149" lon="2.17246">
        <ele>51.3</ele>
        <time>2023-01-18T14:41:26Z</time>
      </trkpt>
      <trkpt lat="49.77148" lon="2.17248">
        <ele>51.3</ele>
        <time>2023-01-18T14:41:27Z</time>
      </trkpt>
      <trkpt lat="49.77146" lon="2.1725">
        <ele>51.3</ele>
        <time>2023-01-18T14:41:29Z</time>
      </trkpt>
      <trkpt lat="49.77145" lon="2.17251">
        <ele>51.3</ele>
        <time>2023-01-18T14:41:30Z</time>
      </trkpt>
      <trkpt lat="49.77144" lon="2.17253">
        <ele>51.3</ele>
        <time>2023-01-18T14:41:31Z</time>
      </trkpt>
      <trkpt lat="49.77144" lon="2.17254">
        <ele>51.3</ele>
        <time>2023-01-18T14:41:32Z</time>
      </trkpt>
      <trkpt lat="49.77143" lon="2.17255">
        <ele>51.3</ele>
        <time>2023-01-18T14:41:33Z</time>
      </trkpt>
      <trkpt lat="49.77142" lon="2.17257">
        <ele>51.2</ele>
        <time>2023-01-18T14:41:34Z</time>
      </trkpt>
      <trkpt lat="49.7714" lon="2.17259">
        <ele>51.2</ele>
        <time>2023-01-18T14:41:36Z</time>
      </trkpt>
      <trkpt lat="49.77139" lon="2.17261">
        <ele>51.2</ele>
        <time>2023-01-18T14:41:37Z</time>
      </trkpt>
      <trkpt lat="49.77138" lon="2.17262">
        <ele>51.2</ele>
        <time>2023-01-18T14:41:38Z</time>
      </trkpt>
      <trkpt lat="49.77138" lon="2.17263">
        <ele>51.2</ele>
        <time>2023-01-18T14:41:39Z</time>
      </trkpt>
      <trkpt lat="49.77137" lon="2.17265">
        <ele>51.2</ele>
        <time>2023-01-18T14:41:40Z</time>
      </trkpt>
      <trkpt lat="49.77136" lon="2.17266">
        <ele>51.2</ele>
        <time>2023-01-18T14:41:41Z</time>
      </trkpt>
      <trkpt lat="49.77134" lon="2.17268">
        <ele>51.2</ele>
        <time>2023-01-18T14:41:42Z</time>
      </trkpt>
      <trkpt lat="49.77134" lon="2.17269">
        <ele>51.2</ele>
        <time>2023-01-18T14:41:43Z</time>
      </trkpt>
      <trkpt lat="49.77133" lon="2.1727">
        <ele>51.1</ele>
        <time>2023-01-18T14:41:44Z</time>
      </trkpt>
      <trkpt lat="49.77131" lon="2.17272">
        <ele>51.1</ele>
        <time>2023-01-18T14:41:45Z</time>
      </trkpt>
      <trkpt lat="49.77131" lon="2.17273">
        <ele>51.1</ele>
        <time>2023-01-18T14:41:46Z</time>
      </trkpt>
      <trkpt lat="49.7713" lon="2.17275">
        <ele>51.1</ele>
        <time>2023-01-18T14:41:48Z</time>
      </trkpt>
      <trkpt lat="49.77129" lon="2.17276">
        <ele>51.1</ele>
        <time>2023-01-18T14:41:49Z</time>
      </trkpt>
      <trkpt lat="49.77129" lon="2.17277">
        <ele>51.1</ele>
        <time>2023-01-18T14:41:50Z</time>
      </trkpt>
      <trkpt lat="49.77128" lon="2.17278">
        <ele>51.1</ele>
        <time>2023-01-18T14:41:51Z</time>
      </trkpt>
      <trkpt lat="49.77127" lon="2.1728">
        <ele>51.1</ele>
        <time>2023-01-18T14:41:52Z</time>
      </trkpt>
      <trkpt lat="49.77127" lon="2.17281">
        <ele>51.1</ele>
        <time>2023-01-18T14:41:53Z</time>
      </trkpt>
      <trkpt lat="49.77126" lon="2.17282">
        <ele>51.1</ele>
        <time>2023-01-18T14:41:55Z</time>
      </trkpt>
      <trkpt lat="49.77125" lon="2.17284">
        <ele>51.1</ele>
        <time>2023-01-18T14:41:56Z</time>
      </trkpt>
      <trkpt lat="49.77122" lon="2.17285">
        <ele>51.1</ele>
        <time>2023-01-18T14:41:57Z</time>
      </trkpt>
      <trkpt lat="49.77122" lon="2.17285">
        <ele>51.1</ele>
        <time>2023-01-18T14:41:58Z</time>
      </trkpt>
      <trkpt lat="49.77121" lon="2.17286">
        <ele>51.1</ele>
        <time>2023-01-18T14:41:59Z</time>
      </trkpt>
      <trkpt lat="49.7712" lon="2.17288">
        <ele>51.1</ele>
        <time>2023-01-18T14:42:00Z</time>
      </trkpt>
      <trkpt lat="49.77119" lon="2.17289">
        <ele>51.1</ele>
        <time>2023-01-18T14:42:01Z</time>
      </trkpt>
      <trkpt lat="49.77119" lon="2.1729">
        <ele>51.1</ele>
        <time>2023-01-18T14:42:02Z</time>
      </trkpt>
      <trkpt lat="49.77118" lon="2.17292">
        <ele>51.1</ele>
        <time>2023-01-18T14:42:03Z</time>
      </trkpt>
      <trkpt lat="49.77116" lon="2.17294">
        <ele>51.1</ele>
        <time>2023-01-18T14:42:05Z</time>
      </trkpt>
      <trkpt lat="49.77115" lon="2.17294">
        <ele>51.1</ele>
        <time>2023-01-18T14:42:06Z</time>
      </trkpt>
      <trkpt lat="49.77115" lon="2.17295">
        <ele>51.1</ele>
        <time>2023-01-18T14:42:07Z</time>
      </trkpt>
      <trkpt lat="49.77113" lon="2.17297">
        <ele>51.1</ele>
        <time>2023-01-18T14:42:08Z</time>
      </trkpt>
      <trkpt lat="49.77112" lon="2.17298">
        <ele>51.1</ele>
        <time>2023-01-18T14:42:09Z</time>
      </trkpt>
      <trkpt lat="49.77112" lon="2.17298">
        <ele>51.1</ele>
        <time>2023-01-18T14:42:10Z</time>
      </trkpt>
      <trkpt lat="49.7711" lon="2.173">
        <ele>51.1</ele>
        <time>2023-01-18T14:42:11Z</time>
      </trkpt>
      <trkpt lat="49.77109" lon="2.17301">
        <ele>51.1</ele>
        <time>2023-01-18T14:42:13Z</time>
      </trkpt>
      <trkpt lat="49.77108" lon="2.17302">
        <ele>51.1</ele>
        <time>2023-01-18T14:42:14Z</time>
      </trkpt>
      <trkpt lat="49.77107" lon="2.17303">
        <ele>51.1</ele>
        <time>2023-01-18T14:42:15Z</time>
      </trkpt>
      <trkpt lat="49.77106" lon="2.17304">
        <ele>51.1</ele>
        <time>2023-01-18T14:42:16Z</time>
      </trkpt>
      <trkpt lat="49.77105" lon="2.17305">
        <ele>51.1</ele>
        <time>2023-01-18T14:42:17Z</time>
      </trkpt>
      <trkpt lat="49.77105" lon="2.17306">
        <ele>51.1</ele>
        <time>2023-01-18T14:42:18Z</time>
      </trkpt>
      <trkpt lat="49.77103" lon="2.17307">
        <ele>51.1</ele>
        <time>2023-01-18T14:42:19Z</time>
      </trkpt>
      <trkpt lat="49.77102" lon="2.17309">
        <ele>51.1</ele>
        <time>2023-01-18T14:42:20Z</time>
      </trkpt>
      <trkpt lat="49.77102" lon="2.1731">
        <ele>51.1</ele>
        <time>2023-01-18T14:42:21Z</time>
      </trkpt>
      <trkpt lat="49.771" lon="2.17312">
        <ele>51.1</ele>
        <time>2023-01-18T14:42:23Z</time>
      </trkpt>
      <trkpt lat="49.771" lon="2.17313">
        <ele>51.1</ele>
        <time>2023-01-18T14:42:24Z</time>
      </trkpt>
      <trkpt lat="49.77099" lon="2.17314">
        <ele>51.1</ele>
        <time>2023-01-18T14:42:25Z</time>
      </trkpt>
      <trkpt lat="49.77098" lon="2.17315">
        <ele>51.1</ele>
        <time>2023-01-18T14:42:26Z</time>
      </trkpt>
      <trkpt lat="49.77097" lon="2.17318">
        <ele>51.1</ele>
        <time>2023-01-18T14:42:27Z</time>
      </trkpt>
      <trkpt lat="49.77096" lon="2.17319">
        <ele>51.1</ele>
        <time>2023-01-18T14:42:28Z</time>
      </trkpt>
      <trkpt lat="49.77096" lon="2.1732">
        <ele>51.1</ele>
        <time>2023-01-18T14:42:29Z</time>
      </trkpt>
      <trkpt lat="49.77094" lon="2.17322">
        <ele>51.1</ele>
        <time>2023-01-18T14:42:30Z</time>
      </trkpt>
      <trkpt lat="49.77093" lon="2.17323">
        <ele>51.1</ele>
        <time>2023-01-18T14:42:32Z</time>
      </trkpt>
      <trkpt lat="49.77092" lon="2.17323">
        <ele>51.1</ele>
        <time>2023-01-18T14:42:33Z</time>
      </trkpt>
      <trkpt lat="49.77091" lon="2.17324">
        <ele>51.1</ele>
        <time>2023-01-18T14:42:34Z</time>
      </trkpt>
      <trkpt lat="49.77091" lon="2.17325">
        <ele>51.1</ele>
        <time>2023-01-18T14:42:35Z</time>
      </trkpt>
      <trkpt lat="49.7709" lon="2.17326">
        <ele>51.1</ele>
        <time>2023-01-18T14:42:36Z</time>
      </trkpt>
      <trkpt lat="49.77088" lon="2.17327">
        <ele>51.1</ele>
        <time>2023-01-18T14:42:38Z</time>
      </trkpt>
      <trkpt lat="49.77087" lon="2.17327">
        <ele>51.1</ele>
        <time>2023-01-18T14:42:39Z</time>
      </trkpt>
      <trkpt lat="49.77087" lon="2.17327">
        <ele>51.1</ele>
        <time>2023-01-18T14:42:40Z</time>
      </trkpt>
      <trkpt lat="49.77087" lon="2.17325">
        <ele>51.2</ele>
        <time>2023-01-18T14:42:41Z</time>
      </trkpt>
      <trkpt lat="49.77087" lon="2.17324">
        <ele>51.2</ele>
        <time>2023-01-18T14:42:43Z</time>
      </trkpt>
      <trkpt lat="49.77087" lon="2.17323">
        <ele>51.2</ele>
        <time>2023-01-18T14:42:44Z</time>
      </trkpt>
      <trkpt lat="49.77086" lon="2.17323">
        <ele>51.2</ele>
        <time>2023-01-18T14:42:45Z</time>
      </trkpt>
      <trkpt lat="49.77086" lon="2.17324">
        <ele>51.2</ele>
        <time>2023-01-18T14:42:46Z</time>
      </trkpt>
      <trkpt lat="49.77085" lon="2.17324">
        <ele>51.2</ele>
        <time>2023-01-18T14:42:47Z</time>
      </trkpt>
      <trkpt lat="49.77084" lon="2.17324">
        <ele>51.3</ele>
        <time>2023-01-18T14:42:49Z</time>
      </trkpt>
      <trkpt lat="49.77083" lon="2.17323">
        <ele>51.3</ele>
        <time>2023-01-18T14:42:50Z</time>
      </trkpt>
      <trkpt lat="49.77083" lon="2.17323">
        <ele>51.3</ele>
        <time>2023-01-18T14:42:51Z</time>
      </trkpt>
      <trkpt lat="49.77082" lon="2.17324">
        <ele>51.3</ele>
        <time>2023-01-18T14:42:52Z</time>
      </trkpt>
      <trkpt lat="49.77081" lon="2.17325">
        <ele>51.3</ele>
        <time>2023-01-18T14:42:53Z</time>
      </trkpt>
      <trkpt lat="49.7708" lon="2.17325">
        <ele>51.3</ele>
        <time>2023-01-18T14:42:54Z</time>
      </trkpt>
      <trkpt lat="49.77079" lon="2.17326">
        <ele>51.4</ele>
        <time>2023-01-18T14:42:55Z</time>
      </trkpt>
      <trkpt lat="49.77079" lon="2.17326">
        <ele>51.4</ele>
        <time>2023-01-18T14:42:56Z</time>
      </trkpt>
      <trkpt lat="49.77078" lon="2.17325">
        <ele>51.4</ele>
        <time>2023-01-18T14:42:58Z</time>
      </trkpt>
      <trkpt lat="49.77079" lon="2.17324">
        <ele>51.4</ele>
        <time>2023-01-18T14:42:59Z</time>
      </trkpt>
      <trkpt lat="49.77079" lon="2.17324">
        <ele>51.4</ele>
        <time>2023-01-18T14:43:00Z</time>
      </trkpt>
      <trkpt lat="49.77079" lon="2.17324">
        <ele>51.4</ele>
        <time>2023-01-18T14:43:02Z</time>
      </trkpt>
      <trkpt lat="49.77079" lon="2.17324">
        <ele>51.4</ele>
        <time>2023-01-18T14:43:03Z</time>
      </trkpt>
      <trkpt lat="49.77079" lon="2.17324">
        <ele>51.4</ele>
        <time>2023-01-18T14:43:04Z</time>
      </trkpt>
      <trkpt lat="49.77079" lon="2.17324">
        <ele>51.4</ele>
        <time>2023-01-18T14:43:06Z</time>
      </trkpt>
      <trkpt lat="49.77079" lon="2.17323">
        <ele>51.4</ele>
        <time>2023-01-18T14:43:07Z</time>
      </trkpt>
      <trkpt lat="49.77079" lon="2.17323">
        <ele>51.4</ele>
        <time>2023-01-18T14:43:09Z</time>
      </trkpt>
      <trkpt lat="49.77079" lon="2.17323">
        <ele>51.4</ele>
        <time>2023-01-18T14:43:10Z</time>
      </trkpt>
      <trkpt lat="49.77079" lon="2.17324">
        <ele>51.4</ele>
        <time>2023-01-18T14:43:11Z</time>
      </trkpt>
      <trkpt lat="49.77078" lon="2.17324">
        <ele>51.5</ele>
        <time>2023-01-18T14:43:12Z</time>
      </trkpt>
      <trkpt lat="49.77078" lon="2.17324">
        <ele>51.5</ele>
        <time>2023-01-18T14:43:14Z</time>
      </trkpt>
      <trkpt lat="49.77077" lon="2.17324">
        <ele>51.5</ele>
        <time>2023-01-18T14:43:15Z</time>
      </trkpt>
      <trkpt lat="49.77077" lon="2.17324">
        <ele>51.5</ele>
        <time>2023-01-18T14:43:16Z</time>
      </trkpt>
      <trkpt lat="49.77076" lon="2.17324">
        <ele>51.5</ele>
        <time>2023-01-18T14:43:17Z</time>
      </trkpt>
      <trkpt lat="49.77075" lon="2.17324">
        <ele>51.6</ele>
        <time>2023-01-18T14:43:18Z</time>
      </trkpt>
      <trkpt lat="49.77074" lon="2.17324">
        <ele>51.6</ele>
        <time>2023-01-18T14:43:19Z</time>
      </trkpt>
      <trkpt lat="49.77073" lon="2.17324">
        <ele>51.6</ele>
        <time>2023-01-18T14:43:20Z</time>
      </trkpt>
      <trkpt lat="49.77073" lon="2.17324">
        <ele>51.6</ele>
        <time>2023-01-18T14:43:22Z</time>
      </trkpt>
      <trkpt lat="49.77072" lon="2.17325">
        <ele>51.7</ele>
        <time>2023-01-18T14:43:23Z</time>
      </trkpt>
      <trkpt lat="49.77071" lon="2.17325">
        <ele>51.7</ele>
        <time>2023-01-18T14:43:24Z</time>
      </trkpt>
      <trkpt lat="49.7707" lon="2.17326">
        <ele>51.7</ele>
        <time>2023-01-18T14:43:25Z</time>
      </trkpt>
      <trkpt lat="49.77069" lon="2.17326">
        <ele>51.7</ele>
        <time>2023-01-18T14:43:26Z</time>
      </trkpt>
      <trkpt lat="49.77068" lon="2.17327">
        <ele>51.8</ele>
        <time>2023-01-18T14:43:27Z</time>
      </trkpt>
      <trkpt lat="49.77068" lon="2.17327">
        <ele>51.8</ele>
        <time>2023-01-18T14:43:29Z</time>
      </trkpt>
      <trkpt lat="49.77067" lon="2.17327">
        <ele>51.8</ele>
        <time>2023-01-18T14:43:30Z</time>
      </trkpt>
      <trkpt lat="49.77066" lon="2.17327">
        <ele>51.9</ele>
        <time>2023-01-18T14:43:31Z</time>
      </trkpt>
      <trkpt lat="49.77065" lon="2.17328">
        <ele>51.9</ele>
        <time>2023-01-18T14:43:32Z</time>
      </trkpt>
      <trkpt lat="49.77064" lon="2.17328">
        <ele>51.9</ele>
        <time>2023-01-18T14:43:33Z</time>
      </trkpt>
      <trkpt lat="49.77063" lon="2.17328">
        <ele>52</ele>
        <time>2023-01-18T14:43:34Z</time>
      </trkpt>
      <trkpt lat="49.77063" lon="2.17328">
        <ele>52</ele>
        <time>2023-01-18T14:43:36Z</time>
      </trkpt>
      <trkpt lat="49.77062" lon="2.17328">
        <ele>52</ele>
        <time>2023-01-18T14:43:37Z</time>
      </trkpt>
      <trkpt lat="49.77061" lon="2.17328">
        <ele>52</ele>
        <time>2023-01-18T14:43:38Z</time>
      </trkpt>
      <trkpt lat="49.7706" lon="2.17327">
        <ele>52.1</ele>
        <time>2023-01-18T14:43:39Z</time>
      </trkpt>
      <trkpt lat="49.77059" lon="2.17327">
        <ele>52.1</ele>
        <time>2023-01-18T14:43:40Z</time>
      </trkpt>
      <trkpt lat="49.77058" lon="2.17327">
        <ele>52.1</ele>
        <time>2023-01-18T14:43:41Z</time>
      </trkpt>
      <trkpt lat="49.77057" lon="2.17326">
        <ele>52.2</ele>
        <time>2023-01-18T14:43:43Z</time>
      </trkpt>
      <trkpt lat="49.77057" lon="2.17326">
        <ele>52.2</ele>
        <time>2023-01-18T14:43:44Z</time>
      </trkpt>
      <trkpt lat="49.77056" lon="2.17326">
        <ele>52.2</ele>
        <time>2023-01-18T14:43:45Z</time>
      </trkpt>
      <trkpt lat="49.77055" lon="2.17325">
        <ele>52.3</ele>
        <time>2023-01-18T14:43:46Z</time>
      </trkpt>
      <trkpt lat="49.77054" lon="2.17325">
        <ele>52.3</ele>
        <time>2023-01-18T14:43:47Z</time>
      </trkpt>
      <trkpt lat="49.77053" lon="2.17324">
        <ele>52.4</ele>
        <time>2023-01-18T14:43:48Z</time>
      </trkpt>
      <trkpt lat="49.77052" lon="2.17324">
        <ele>52.4</ele>
        <time>2023-01-18T14:43:50Z</time>
      </trkpt>
      <trkpt lat="49.77051" lon="2.17323">
        <ele>52.4</ele>
        <time>2023-01-18T14:43:51Z</time>
      </trkpt>
      <trkpt lat="49.77051" lon="2.17323">
        <ele>52.5</ele>
        <time>2023-01-18T14:43:52Z</time>
      </trkpt>
      <trkpt lat="49.77049" lon="2.17323">
        <ele>52.5</ele>
        <time>2023-01-18T14:43:53Z</time>
      </trkpt>
      <trkpt lat="49.77048" lon="2.17322">
        <ele>52.5</ele>
        <time>2023-01-18T14:43:54Z</time>
      </trkpt>
      <trkpt lat="49.77047" lon="2.17322">
        <ele>52.6</ele>
        <time>2023-01-18T14:43:55Z</time>
      </trkpt>
      <trkpt lat="49.77046" lon="2.17322">
        <ele>52.6</ele>
        <time>2023-01-18T14:43:57Z</time>
      </trkpt>
      <trkpt lat="49.77045" lon="2.17322">
        <ele>52.6</ele>
        <time>2023-01-18T14:43:58Z</time>
      </trkpt>
      <trkpt lat="49.77044" lon="2.17322">
        <ele>52.7</ele>
        <time>2023-01-18T14:43:59Z</time>
      </trkpt>
      <trkpt lat="49.77042" lon="2.17322">
        <ele>52.7</ele>
        <time>2023-01-18T14:44:00Z</time>
      </trkpt>
      <trkpt lat="49.77041" lon="2.17321">
        <ele>52.8</ele>
        <time>2023-01-18T14:44:01Z</time>
      </trkpt>
      <trkpt lat="49.7704" lon="2.17321">
        <ele>52.8</ele>
        <time>2023-01-18T14:44:02Z</time>
      </trkpt>
      <trkpt lat="49.77039" lon="2.17321">
        <ele>52.8</ele>
        <time>2023-01-18T14:44:04Z</time>
      </trkpt>
      <trkpt lat="49.77038" lon="2.1732">
        <ele>52.9</ele>
        <time>2023-01-18T14:44:05Z</time>
      </trkpt>
      <trkpt lat="49.77037" lon="2.1732">
        <ele>52.9</ele>
        <time>2023-01-18T14:44:06Z</time>
      </trkpt>
      <trkpt lat="49.77034" lon="2.17319">
        <ele>53</ele>
        <time>2023-01-18T14:44:07Z</time>
      </trkpt>
      <trkpt lat="49.77033" lon="2.17319">
        <ele>53</ele>
        <time>2023-01-18T14:44:08Z</time>
      </trkpt>
      <trkpt lat="49.77032" lon="2.17319">
        <ele>53.1</ele>
        <time>2023-01-18T14:44:09Z</time>
      </trkpt>
      <trkpt lat="49.77031" lon="2.17318">
        <ele>53.1</ele>
        <time>2023-01-18T14:44:10Z</time>
      </trkpt>
      <trkpt lat="49.77029" lon="2.17318">
        <ele>53.2</ele>
        <time>2023-01-18T14:44:12Z</time>
      </trkpt>
      <trkpt lat="49.77028" lon="2.17317">
        <ele>53.2</ele>
        <time>2023-01-18T14:44:13Z</time>
      </trkpt>
      <trkpt lat="49.77027" lon="2.17316">
        <ele>53.3</ele>
        <time>2023-01-18T14:44:14Z</time>
      </trkpt>
      <trkpt lat="49.77025" lon="2.17316">
        <ele>53.3</ele>
        <time>2023-01-18T14:44:15Z</time>
      </trkpt>
      <trkpt lat="49.77024" lon="2.17315">
        <ele>53.4</ele>
        <time>2023-01-18T14:44:16Z</time>
      </trkpt>
      <trkpt lat="49.77022" lon="2.17314">
        <ele>53.4</ele>
        <time>2023-01-18T14:44:17Z</time>
      </trkpt>
      <trkpt lat="49.77021" lon="2.17314">
        <ele>53.5</ele>
        <time>2023-01-18T14:44:18Z</time>
      </trkpt>
      <trkpt lat="49.7702" lon="2.17314">
        <ele>53.5</ele>
        <time>2023-01-18T14:44:20Z</time>
      </trkpt>
      <trkpt lat="49.77019" lon="2.17314">
        <ele>53.5</ele>
        <time>2023-01-18T14:44:21Z</time>
      </trkpt>
      <trkpt lat="49.77017" lon="2.17314">
        <ele>53.6</ele>
        <time>2023-01-18T14:44:22Z</time>
      </trkpt>
      <trkpt lat="49.77016" lon="2.17313">
        <ele>53.6</ele>
        <time>2023-01-18T14:44:23Z</time>
      </trkpt>
      <trkpt lat="49.77015" lon="2.17313">
        <ele>53.7</ele>
        <time>2023-01-18T14:44:24Z</time>
      </trkpt>
      <trkpt lat="49.77012" lon="2.17313">
        <ele>53.7</ele>
        <time>2023-01-18T14:44:25Z</time>
      </trkpt>
      <trkpt lat="49.77011" lon="2.17313">
        <ele>53.8</ele>
        <time>2023-01-18T14:44:27Z</time>
      </trkpt>
      <trkpt lat="49.7701" lon="2.17313">
        <ele>53.8</ele>
        <time>2023-01-18T14:44:28Z</time>
      </trkpt>
      <trkpt lat="49.7701" lon="2.17313">
        <ele>53.8</ele>
        <time>2023-01-18T14:44:29Z</time>
      </trkpt>
      <trkpt lat="49.77008" lon="2.17312">
        <ele>53.8</ele>
        <time>2023-01-18T14:44:30Z</time>
      </trkpt>
      <trkpt lat="49.77007" lon="2.17312">
        <ele>53.9</ele>
        <time>2023-01-18T14:44:31Z</time>
      </trkpt>
      <trkpt lat="49.77005" lon="2.17312">
        <ele>53.9</ele>
        <time>2023-01-18T14:44:32Z</time>
      </trkpt>
      <trkpt lat="49.77004" lon="2.17311">
        <ele>54</ele>
        <time>2023-01-18T14:44:33Z</time>
      </trkpt>
      <trkpt lat="49.77003" lon="2.17311">
        <ele>54</ele>
        <time>2023-01-18T14:44:35Z</time>
      </trkpt>
      <trkpt lat="49.77002" lon="2.17311">
        <ele>54</ele>
        <time>2023-01-18T14:44:36Z</time>
      </trkpt>
      <trkpt lat="49.77001" lon="2.1731">
        <ele>54.1</ele>
        <time>2023-01-18T14:44:37Z</time>
      </trkpt>
      <trkpt lat="49.76999" lon="2.1731">
        <ele>54.1</ele>
        <time>2023-01-18T14:44:38Z</time>
      </trkpt>
      <trkpt lat="49.76999" lon="2.1731">
        <ele>54.2</ele>
        <time>2023-01-18T14:44:39Z</time>
      </trkpt>
      <trkpt lat="49.76997" lon="2.17309">
        <ele>54.2</ele>
        <time>2023-01-18T14:44:40Z</time>
      </trkpt>
      <trkpt lat="49.76996" lon="2.17309">
        <ele>54.2</ele>
        <time>2023-01-18T14:44:42Z</time>
      </trkpt>
      <trkpt lat="49.76995" lon="2.17309">
        <ele>54.3</ele>
        <time>2023-01-18T14:44:43Z</time>
      </trkpt>
      <trkpt lat="49.76994" lon="2.17309">
        <ele>54.3</ele>
        <time>2023-01-18T14:44:44Z</time>
      </trkpt>
      <trkpt lat="49.76993" lon="2.17309">
        <ele>54.3</ele>
        <time>2023-01-18T14:44:45Z</time>
      </trkpt>
      <trkpt lat="49.76992" lon="2.17309">
        <ele>54.4</ele>
        <time>2023-01-18T14:44:46Z</time>
      </trkpt>
      <trkpt lat="49.76991" lon="2.17309">
        <ele>54.4</ele>
        <time>2023-01-18T14:44:47Z</time>
      </trkpt>
      <trkpt lat="49.76989" lon="2.17309">
        <ele>54.5</ele>
        <time>2023-01-18T14:44:48Z</time>
      </trkpt>
      <trkpt lat="49.76988" lon="2.17309">
        <ele>54.5</ele>
        <time>2023-01-18T14:44:49Z</time>
      </trkpt>
      <trkpt lat="49.76987" lon="2.17309">
        <ele>54.5</ele>
        <time>2023-01-18T14:44:51Z</time>
      </trkpt>
      <trkpt lat="49.76985" lon="2.17309">
        <ele>54.6</ele>
        <time>2023-01-18T14:44:52Z</time>
      </trkpt>
      <trkpt lat="49.76984" lon="2.17309">
        <ele>54.6</ele>
        <time>2023-01-18T14:44:53Z</time>
      </trkpt>
      <trkpt lat="49.76983" lon="2.17309">
        <ele>54.7</ele>
        <time>2023-01-18T14:44:54Z</time>
      </trkpt>
      <trkpt lat="49.76981" lon="2.17309">
        <ele>54.7</ele>
        <time>2023-01-18T14:44:55Z</time>
      </trkpt>
      <trkpt lat="49.7698" lon="2.17309">
        <ele>54.8</ele>
        <time>2023-01-18T14:44:56Z</time>
      </trkpt>
      <trkpt lat="49.76979" lon="2.1731">
        <ele>54.8</ele>
        <time>2023-01-18T14:44:58Z</time>
      </trkpt>
      <trkpt lat="49.76978" lon="2.1731">
        <ele>54.8</ele>
        <time>2023-01-18T14:44:59Z</time>
      </trkpt>
      <trkpt lat="49.76977" lon="2.1731">
        <ele>54.9</ele>
        <time>2023-01-18T14:45:00Z</time>
      </trkpt>
      <trkpt lat="49.76976" lon="2.1731">
        <ele>54.9</ele>
        <time>2023-01-18T14:45:01Z</time>
      </trkpt>
      <trkpt lat="49.76975" lon="2.1731">
        <ele>54.9</ele>
        <time>2023-01-18T14:45:02Z</time>
      </trkpt>
      <trkpt lat="49.76974" lon="2.17309">
        <ele>55</ele>
        <time>2023-01-18T14:45:04Z</time>
      </trkpt>
      <trkpt lat="49.76973" lon="2.17309">
        <ele>55</ele>
        <time>2023-01-18T14:45:05Z</time>
      </trkpt>
      <trkpt lat="49.76972" lon="2.17309">
        <ele>55</ele>
        <time>2023-01-18T14:45:06Z</time>
      </trkpt>
      <trkpt lat="49.76971" lon="2.17309">
        <ele>55</ele>
        <time>2023-01-18T14:45:07Z</time>
      </trkpt>
      <trkpt lat="49.76969" lon="2.17309">
        <ele>55.1</ele>
        <time>2023-01-18T14:45:08Z</time>
      </trkpt>
      <trkpt lat="49.76968" lon="2.17308">
        <ele>55.1</ele>
        <time>2023-01-18T14:45:09Z</time>
      </trkpt>
      <trkpt lat="49.76966" lon="2.17308">
        <ele>55.2</ele>
        <time>2023-01-18T14:45:10Z</time>
      </trkpt>
      <trkpt lat="49.76965" lon="2.17308">
        <ele>55.3</ele>
        <time>2023-01-18T14:45:12Z</time>
      </trkpt>
      <trkpt lat="49.76964" lon="2.17308">
        <ele>55.3</ele>
        <time>2023-01-18T14:45:13Z</time>
      </trkpt>
      <trkpt lat="49.76963" lon="2.17308">
        <ele>55.3</ele>
        <time>2023-01-18T14:45:14Z</time>
      </trkpt>
      <trkpt lat="49.76962" lon="2.17308">
        <ele>55.4</ele>
        <time>2023-01-18T14:45:15Z</time>
      </trkpt>
      <trkpt lat="49.76961" lon="2.17308">
        <ele>55.4</ele>
        <time>2023-01-18T14:45:16Z</time>
      </trkpt>
      <trkpt lat="49.7696" lon="2.17308">
        <ele>55.5</ele>
        <time>2023-01-18T14:45:17Z</time>
      </trkpt>
      <trkpt lat="49.76958" lon="2.17307">
        <ele>55.5</ele>
        <time>2023-01-18T14:45:18Z</time>
      </trkpt>
      <trkpt lat="49.76958" lon="2.17307">
        <ele>55.6</ele>
        <time>2023-01-18T14:45:20Z</time>
      </trkpt>
      <trkpt lat="49.76957" lon="2.17307">
        <ele>55.6</ele>
        <time>2023-01-18T14:45:21Z</time>
      </trkpt>
      <trkpt lat="49.76955" lon="2.17307">
        <ele>55.7</ele>
        <time>2023-01-18T14:45:22Z</time>
      </trkpt>
      <trkpt lat="49.76954" lon="2.17307">
        <ele>55.7</ele>
        <time>2023-01-18T14:45:23Z</time>
      </trkpt>
      <trkpt lat="49.76953" lon="2.17307">
        <ele>55.8</ele>
        <time>2023-01-18T14:45:24Z</time>
      </trkpt>
      <trkpt lat="49.76952" lon="2.17307">
        <ele>55.8</ele>
        <time>2023-01-18T14:45:25Z</time>
      </trkpt>
      <trkpt lat="49.76951" lon="2.17307">
        <ele>55.9</ele>
        <time>2023-01-18T14:45:27Z</time>
      </trkpt>
      <trkpt lat="49.76949" lon="2.17307">
        <ele>56</ele>
        <time>2023-01-18T14:45:28Z</time>
      </trkpt>
      <trkpt lat="49.76949" lon="2.17307">
        <ele>56</ele>
        <time>2023-01-18T14:45:29Z</time>
      </trkpt>
      <trkpt lat="49.76948" lon="2.17306">
        <ele>56.1</ele>
        <time>2023-01-18T14:45:30Z</time>
      </trkpt>
      <trkpt lat="49.76946" lon="2.17306">
        <ele>56.1</ele>
        <time>2023-01-18T14:45:31Z</time>
      </trkpt>
      <trkpt lat="49.76945" lon="2.17306">
        <ele>56.2</ele>
        <time>2023-01-18T14:45:32Z</time>
      </trkpt>
      <trkpt lat="49.76944" lon="2.17306">
        <ele>56.3</ele>
        <time>2023-01-18T14:45:34Z</time>
      </trkpt>
      <trkpt lat="49.76943" lon="2.17306">
        <ele>56.3</ele>
        <time>2023-01-18T14:45:35Z</time>
      </trkpt>
      <trkpt lat="49.76942" lon="2.17306">
        <ele>56.3</ele>
        <time>2023-01-18T14:45:36Z</time>
      </trkpt>
      <trkpt lat="49.76941" lon="2.17307">
        <ele>56.4</ele>
        <time>2023-01-18T14:45:37Z</time>
      </trkpt>
      <trkpt lat="49.7694" lon="2.17307">
        <ele>56.4</ele>
        <time>2023-01-18T14:45:38Z</time>
      </trkpt>
      <trkpt lat="49.76939" lon="2.17307">
        <ele>56.5</ele>
        <time>2023-01-18T14:45:39Z</time>
      </trkpt>
      <trkpt lat="49.76937" lon="2.17307">
        <ele>56.6</ele>
        <time>2023-01-18T14:45:41Z</time>
      </trkpt>
      <trkpt lat="49.76936" lon="2.17307">
        <ele>56.7</ele>
        <time>2023-01-18T14:45:42Z</time>
      </trkpt>
      <trkpt lat="49.76935" lon="2.17307">
        <ele>56.7</ele>
        <time>2023-01-18T14:45:43Z</time>
      </trkpt>
      <trkpt lat="49.76935" lon="2.17307">
        <ele>56.8</ele>
        <time>2023-01-18T14:45:44Z</time>
      </trkpt>
      <trkpt lat="49.76934" lon="2.17307">
        <ele>56.8</ele>
        <time>2023-01-18T14:45:45Z</time>
      </trkpt>
      <trkpt lat="49.76932" lon="2.17307">
        <ele>56.9</ele>
        <time>2023-01-18T14:45:46Z</time>
      </trkpt>
      <trkpt lat="49.76931" lon="2.17307">
        <ele>57</ele>
        <time>2023-01-18T14:45:47Z</time>
      </trkpt>
      <trkpt lat="49.7693" lon="2.17307">
        <ele>57</ele>
        <time>2023-01-18T14:45:49Z</time>
      </trkpt>
      <trkpt lat="49.76929" lon="2.17308">
        <ele>57.1</ele>
        <time>2023-01-18T14:45:50Z</time>
      </trkpt>
      <trkpt lat="49.76928" lon="2.17308">
        <ele>57.2</ele>
        <time>2023-01-18T14:45:51Z</time>
      </trkpt>
      <trkpt lat="49.76927" lon="2.17308">
        <ele>57.2</ele>
        <time>2023-01-18T14:45:52Z</time>
      </trkpt>
      <trkpt lat="49.76926" lon="2.17308">
        <ele>57.3</ele>
        <time>2023-01-18T14:45:53Z</time>
      </trkpt>
      <trkpt lat="49.76925" lon="2.17307">
        <ele>57.4</ele>
        <time>2023-01-18T14:45:54Z</time>
      </trkpt>
      <trkpt lat="49.76923" lon="2.17307">
        <ele>57.5</ele>
        <time>2023-01-18T14:45:55Z</time>
      </trkpt>
      <trkpt lat="49.76922" lon="2.17307">
        <ele>57.5</ele>
        <time>2023-01-18T14:45:57Z</time>
      </trkpt>
      <trkpt lat="49.76921" lon="2.17306">
        <ele>57.6</ele>
        <time>2023-01-18T14:45:58Z</time>
      </trkpt>
      <trkpt lat="49.7692" lon="2.17306">
        <ele>57.7</ele>
        <time>2023-01-18T14:45:59Z</time>
      </trkpt>
      <trkpt lat="49.76919" lon="2.17306">
        <ele>57.8</ele>
        <time>2023-01-18T14:46:00Z</time>
      </trkpt>
      <trkpt lat="49.76918" lon="2.17305">
        <ele>57.9</ele>
        <time>2023-01-18T14:46:01Z</time>
      </trkpt>
      <trkpt lat="49.76917" lon="2.17305">
        <ele>57.9</ele>
        <time>2023-01-18T14:46:02Z</time>
      </trkpt>
      <trkpt lat="49.76915" lon="2.17305">
        <ele>58</ele>
        <time>2023-01-18T14:46:04Z</time>
      </trkpt>
      <trkpt lat="49.76915" lon="2.17305">
        <ele>58.1</ele>
        <time>2023-01-18T14:46:05Z</time>
      </trkpt>
      <trkpt lat="49.76914" lon="2.17306">
        <ele>58.2</ele>
        <time>2023-01-18T14:46:06Z</time>
      </trkpt>
      <trkpt lat="49.76913" lon="2.17306">
        <ele>58.2</ele>
        <time>2023-01-18T14:46:07Z</time>
      </trkpt>
      <trkpt lat="49.76912" lon="2.17306">
        <ele>58.3</ele>
        <time>2023-01-18T14:46:08Z</time>
      </trkpt>
      <trkpt lat="49.76911" lon="2.17306">
        <ele>58.4</ele>
        <time>2023-01-18T14:46:09Z</time>
      </trkpt>
      <trkpt lat="49.7691" lon="2.17306">
        <ele>58.5</ele>
        <time>2023-01-18T14:46:11Z</time>
      </trkpt>
      <trkpt lat="49.76909" lon="2.17306">
        <ele>58.5</ele>
        <time>2023-01-18T14:46:12Z</time>
      </trkpt>
      <trkpt lat="49.76908" lon="2.17305">
        <ele>58.6</ele>
        <time>2023-01-18T14:46:13Z</time>
      </trkpt>
      <trkpt lat="49.76907" lon="2.17305">
        <ele>58.7</ele>
        <time>2023-01-18T14:46:14Z</time>
      </trkpt>
      <trkpt lat="49.76904" lon="2.17305">
        <ele>58.9</ele>
        <time>2023-01-18T14:46:16Z</time>
      </trkpt>
      <trkpt lat="49.76904" lon="2.17305">
        <ele>59</ele>
        <time>2023-01-18T14:46:17Z</time>
      </trkpt>
      <trkpt lat="49.76903" lon="2.17305">
        <ele>59</ele>
        <time>2023-01-18T14:46:18Z</time>
      </trkpt>
      <trkpt lat="49.76902" lon="2.17304">
        <ele>59.1</ele>
        <time>2023-01-18T14:46:19Z</time>
      </trkpt>
      <trkpt lat="49.76901" lon="2.17304">
        <ele>59.2</ele>
        <time>2023-01-18T14:46:20Z</time>
      </trkpt>
      <trkpt lat="49.769" lon="2.17303">
        <ele>59.3</ele>
        <time>2023-01-18T14:46:21Z</time>
      </trkpt>
      <trkpt lat="49.76899" lon="2.17303">
        <ele>59.4</ele>
        <time>2023-01-18T14:46:23Z</time>
      </trkpt>
      <trkpt lat="49.76898" lon="2.17303">
        <ele>59.5</ele>
        <time>2023-01-18T14:46:24Z</time>
      </trkpt>
      <trkpt lat="49.76897" lon="2.17302">
        <ele>59.6</ele>
        <time>2023-01-18T14:46:25Z</time>
      </trkpt>
      <trkpt lat="49.76896" lon="2.17302">
        <ele>59.7</ele>
        <time>2023-01-18T14:46:26Z</time>
      </trkpt>
      <trkpt lat="49.76895" lon="2.17302">
        <ele>59.8</ele>
        <time>2023-01-18T14:46:27Z</time>
      </trkpt>
      <trkpt lat="49.76894" lon="2.17301">
        <ele>59.9</ele>
        <time>2023-01-18T14:46:29Z</time>
      </trkpt>
      <trkpt lat="49.76893" lon="2.17301">
        <ele>59.9</ele>
        <time>2023-01-18T14:46:30Z</time>
      </trkpt>
      <trkpt lat="49.76892" lon="2.17301">
        <ele>60</ele>
        <time>2023-01-18T14:46:31Z</time>
      </trkpt>
      <trkpt lat="49.76891" lon="2.17301">
        <ele>60.1</ele>
        <time>2023-01-18T14:46:32Z</time>
      </trkpt>
      <trkpt lat="49.7689" lon="2.173">
        <ele>60.2</ele>
        <time>2023-01-18T14:46:34Z</time>
      </trkpt>
      <trkpt lat="49.76888" lon="2.173">
        <ele>60.3</ele>
        <time>2023-01-18T14:46:35Z</time>
      </trkpt>
      <trkpt lat="49.76887" lon="2.17299">
        <ele>60.4</ele>
        <time>2023-01-18T14:46:36Z</time>
      </trkpt>
      <trkpt lat="49.76885" lon="2.17298">
        <ele>60.6</ele>
        <time>2023-01-18T14:46:37Z</time>
      </trkpt>
      <trkpt lat="49.76884" lon="2.17298">
        <ele>60.7</ele>
        <time>2023-01-18T14:46:38Z</time>
      </trkpt>
      <trkpt lat="49.76883" lon="2.17297">
        <ele>60.8</ele>
        <time>2023-01-18T14:46:40Z</time>
      </trkpt>
      <trkpt lat="49.76882" lon="2.17296">
        <ele>60.9</ele>
        <time>2023-01-18T14:46:41Z</time>
      </trkpt>
      <trkpt lat="49.76881" lon="2.17296">
        <ele>61</ele>
        <time>2023-01-18T14:46:42Z</time>
      </trkpt>
      <trkpt lat="49.7688" lon="2.17295">
        <ele>61.1</ele>
        <time>2023-01-18T14:46:43Z</time>
      </trkpt>
      <trkpt lat="49.76879" lon="2.17295">
        <ele>61.2</ele>
        <time>2023-01-18T14:46:45Z</time>
      </trkpt>
      <trkpt lat="49.76878" lon="2.17294">
        <ele>61.2</ele>
        <time>2023-01-18T14:46:46Z</time>
      </trkpt>
      <trkpt lat="49.76878" lon="2.17293">
        <ele>61.3</ele>
        <time>2023-01-18T14:46:47Z</time>
      </trkpt>
      <trkpt lat="49.76877" lon="2.17293">
        <ele>61.4</ele>
        <time>2023-01-18T14:46:48Z</time>
      </trkpt>
      <trkpt lat="49.76875" lon="2.17292">
        <ele>61.5</ele>
        <time>2023-01-18T14:46:49Z</time>
      </trkpt>
      <trkpt lat="49.76874" lon="2.17291">
        <ele>61.6</ele>
        <time>2023-01-18T14:46:50Z</time>
      </trkpt>
      <trkpt lat="49.76872" lon="2.1729">
        <ele>61.8</ele>
        <time>2023-01-18T14:46:51Z</time>
      </trkpt>
      <trkpt lat="49.76872" lon="2.17289">
        <ele>61.8</ele>
        <time>2023-01-18T14:46:53Z</time>
      </trkpt>
      <trkpt lat="49.76871" lon="2.17289">
        <ele>61.9</ele>
        <time>2023-01-18T14:46:54Z</time>
      </trkpt>
      <trkpt lat="49.7687" lon="2.17288">
        <ele>62</ele>
        <time>2023-01-18T14:46:55Z</time>
      </trkpt>
      <trkpt lat="49.76869" lon="2.17288">
        <ele>62</ele>
        <time>2023-01-18T14:46:56Z</time>
      </trkpt>
      <trkpt lat="49.76868" lon="2.17287">
        <ele>62.1</ele>
        <time>2023-01-18T14:46:57Z</time>
      </trkpt>
      <trkpt lat="49.76867" lon="2.17286">
        <ele>62.2</ele>
        <time>2023-01-18T14:46:59Z</time>
      </trkpt>
      <trkpt lat="49.76866" lon="2.17284">
        <ele>62.3</ele>
        <time>2023-01-18T14:47:00Z</time>
      </trkpt>
      <trkpt lat="49.76865" lon="2.17284">
        <ele>62.4</ele>
        <time>2023-01-18T14:47:01Z</time>
      </trkpt>
      <trkpt lat="49.76865" lon="2.17283">
        <ele>62.5</ele>
        <time>2023-01-18T14:47:02Z</time>
      </trkpt>
      <trkpt lat="49.76864" lon="2.17282">
        <ele>62.5</ele>
        <time>2023-01-18T14:47:03Z</time>
      </trkpt>
      <trkpt lat="49.76863" lon="2.17281">
        <ele>62.6</ele>
        <time>2023-01-18T14:47:05Z</time>
      </trkpt>
      <trkpt lat="49.76863" lon="2.17281">
        <ele>62.6</ele>
        <time>2023-01-18T14:47:06Z</time>
      </trkpt>
      <trkpt lat="49.76862" lon="2.1728">
        <ele>62.7</ele>
        <time>2023-01-18T14:47:07Z</time>
      </trkpt>
      <trkpt lat="49.76861" lon="2.17279">
        <ele>62.7</ele>
        <time>2023-01-18T14:47:08Z</time>
      </trkpt>
      <trkpt lat="49.76861" lon="2.17278">
        <ele>62.8</ele>
        <time>2023-01-18T14:47:09Z</time>
      </trkpt>
      <trkpt lat="49.7686" lon="2.17278">
        <ele>62.8</ele>
        <time>2023-01-18T14:47:10Z</time>
      </trkpt>
      <trkpt lat="49.76859" lon="2.17277">
        <ele>62.9</ele>
        <time>2023-01-18T14:47:11Z</time>
      </trkpt>
      <trkpt lat="49.76859" lon="2.17276">
        <ele>63</ele>
        <time>2023-01-18T14:47:13Z</time>
      </trkpt>
      <trkpt lat="49.76858" lon="2.17275">
        <ele>63</ele>
        <time>2023-01-18T14:47:14Z</time>
      </trkpt>
      <trkpt lat="49.76858" lon="2.17274">
        <ele>63</ele>
        <time>2023-01-18T14:47:15Z</time>
      </trkpt>
      <trkpt lat="49.76857" lon="2.17273">
        <ele>63.1</ele>
        <time>2023-01-18T14:47:16Z</time>
      </trkpt>
      <trkpt lat="49.76857" lon="2.17272">
        <ele>63.1</ele>
        <time>2023-01-18T14:47:17Z</time>
      </trkpt>
      <trkpt lat="49.76856" lon="2.17271">
        <ele>63.2</ele>
        <time>2023-01-18T14:47:18Z</time>
      </trkpt>
      <trkpt lat="49.76855" lon="2.1727">
        <ele>63.2</ele>
        <time>2023-01-18T14:47:20Z</time>
      </trkpt>
      <trkpt lat="49.76855" lon="2.1727">
        <ele>63.3</ele>
        <time>2023-01-18T14:47:21Z</time>
      </trkpt>
      <trkpt lat="49.76854" lon="2.17269">
        <ele>63.3</ele>
        <time>2023-01-18T14:47:22Z</time>
      </trkpt>
      <trkpt lat="49.76853" lon="2.17268">
        <ele>63.4</ele>
        <time>2023-01-18T14:47:23Z</time>
      </trkpt>
      <trkpt lat="49.76852" lon="2.17267">
        <ele>63.5</ele>
        <time>2023-01-18T14:47:24Z</time>
      </trkpt>
      <trkpt lat="49.76851" lon="2.17266">
        <ele>63.5</ele>
        <time>2023-01-18T14:47:26Z</time>
      </trkpt>
      <trkpt lat="49.7685" lon="2.17264">
        <ele>63.6</ele>
        <time>2023-01-18T14:47:27Z</time>
      </trkpt>
      <trkpt lat="49.76849" lon="2.17263">
        <ele>63.6</ele>
        <time>2023-01-18T14:47:28Z</time>
      </trkpt>
      <trkpt lat="49.76848" lon="2.17262">
        <ele>63.7</ele>
        <time>2023-01-18T14:47:29Z</time>
      </trkpt>
      <trkpt lat="49.76847" lon="2.17261">
        <ele>63.8</ele>
        <time>2023-01-18T14:47:30Z</time>
      </trkpt>
      <trkpt lat="49.76847" lon="2.1726">
        <ele>63.8</ele>
        <time>2023-01-18T14:47:31Z</time>
      </trkpt>
      <trkpt lat="49.76846" lon="2.17259">
        <ele>63.9</ele>
        <time>2023-01-18T14:47:33Z</time>
      </trkpt>
      <trkpt lat="49.76843" lon="2.17256">
        <ele>64</ele>
        <time>2023-01-18T14:47:34Z</time>
      </trkpt>
      <trkpt lat="49.76843" lon="2.17255">
        <ele>64</ele>
        <time>2023-01-18T14:47:36Z</time>
      </trkpt>
      <trkpt lat="49.76842" lon="2.17254">
        <ele>64.1</ele>
        <time>2023-01-18T14:47:37Z</time>
      </trkpt>
      <trkpt lat="49.76841" lon="2.17252">
        <ele>64.1</ele>
        <time>2023-01-18T14:47:38Z</time>
      </trkpt>
      <trkpt lat="49.76841" lon="2.17251">
        <ele>64.2</ele>
        <time>2023-01-18T14:47:39Z</time>
      </trkpt>
      <trkpt lat="49.7684" lon="2.1725">
        <ele>64.2</ele>
        <time>2023-01-18T14:47:41Z</time>
      </trkpt>
      <trkpt lat="49.7684" lon="2.17249">
        <ele>64.2</ele>
        <time>2023-01-18T14:47:42Z</time>
      </trkpt>
      <trkpt lat="49.76839" lon="2.17247">
        <ele>64.3</ele>
        <time>2023-01-18T14:47:43Z</time>
      </trkpt>
      <trkpt lat="49.76838" lon="2.17245">
        <ele>64.4</ele>
        <time>2023-01-18T14:47:44Z</time>
      </trkpt>
      <trkpt lat="49.76837" lon="2.17244">
        <ele>64.4</ele>
        <time>2023-01-18T14:47:45Z</time>
      </trkpt>
      <trkpt lat="49.76837" lon="2.17243">
        <ele>64.4</ele>
        <time>2023-01-18T14:47:46Z</time>
      </trkpt>
      <trkpt lat="49.76836" lon="2.17241">
        <ele>64.5</ele>
        <time>2023-01-18T14:47:48Z</time>
      </trkpt>
      <trkpt lat="49.76835" lon="2.17239">
        <ele>64.5</ele>
        <time>2023-01-18T14:47:49Z</time>
      </trkpt>
      <trkpt lat="49.76834" lon="2.17238">
        <ele>64.5</ele>
        <time>2023-01-18T14:47:50Z</time>
      </trkpt>
      <trkpt lat="49.76834" lon="2.17237">
        <ele>64.6</ele>
        <time>2023-01-18T14:47:51Z</time>
      </trkpt>
      <trkpt lat="49.76833" lon="2.17236">
        <ele>64.6</ele>
        <time>2023-01-18T14:47:52Z</time>
      </trkpt>
      <trkpt lat="49.76832" lon="2.17235">
        <ele>64.7</ele>
        <time>2023-01-18T14:47:53Z</time>
      </trkpt>
      <trkpt lat="49.76831" lon="2.17233">
        <ele>64.7</ele>
        <time>2023-01-18T14:47:55Z</time>
      </trkpt>
      <trkpt lat="49.7683" lon="2.17232">
        <ele>64.7</ele>
        <time>2023-01-18T14:47:56Z</time>
      </trkpt>
      <trkpt lat="49.7683" lon="2.17231">
        <ele>64.8</ele>
        <time>2023-01-18T14:47:57Z</time>
      </trkpt>
      <trkpt lat="49.76829" lon="2.1723">
        <ele>64.8</ele>
        <time>2023-01-18T14:47:58Z</time>
      </trkpt>
      <trkpt lat="49.76829" lon="2.17229">
        <ele>64.8</ele>
        <time>2023-01-18T14:47:59Z</time>
      </trkpt>
      <trkpt lat="49.76827" lon="2.17227">
        <ele>64.9</ele>
        <time>2023-01-18T14:48:01Z</time>
      </trkpt>
      <trkpt lat="49.76827" lon="2.17226">
        <ele>64.9</ele>
        <time>2023-01-18T14:48:02Z</time>
      </trkpt>
      <trkpt lat="49.76827" lon="2.17226">
        <ele>64.9</ele>
        <time>2023-01-18T14:48:03Z</time>
      </trkpt>
      <trkpt lat="49.76826" lon="2.17225">
        <ele>64.9</ele>
        <time>2023-01-18T14:48:04Z</time>
      </trkpt>
      <trkpt lat="49.76825" lon="2.17224">
        <ele>65</ele>
        <time>2023-01-18T14:48:05Z</time>
      </trkpt>
      <trkpt lat="49.76824" lon="2.17223">
        <ele>65</ele>
        <time>2023-01-18T14:48:07Z</time>
      </trkpt>
      <trkpt lat="49.76824" lon="2.17223">
        <ele>65</ele>
        <time>2023-01-18T14:48:08Z</time>
      </trkpt>
      <trkpt lat="49.76823" lon="2.17222">
        <ele>65</ele>
        <time>2023-01-18T14:48:09Z</time>
      </trkpt>
      <trkpt lat="49.76822" lon="2.17222">
        <ele>65.1</ele>
        <time>2023-01-18T14:48:11Z</time>
      </trkpt>
      <trkpt lat="49.76822" lon="2.17222">
        <ele>65.1</ele>
        <time>2023-01-18T14:48:12Z</time>
      </trkpt>
      <trkpt lat="49.76821" lon="2.17223">
        <ele>65.1</ele>
        <time>2023-01-18T14:48:14Z</time>
      </trkpt>
      <trkpt lat="49.76821" lon="2.17224">
        <ele>65.1</ele>
        <time>2023-01-18T14:48:15Z</time>
      </trkpt>
      <trkpt lat="49.76821" lon="2.17224">
        <ele>65.1</ele>
        <time>2023-01-18T14:48:16Z</time>
      </trkpt>
      <trkpt lat="49.76821" lon="2.17224">
        <ele>65.1</ele>
        <time>2023-01-18T14:48:18Z</time>
      </trkpt>
      <trkpt lat="49.76821" lon="2.17224">
        <ele>65.1</ele>
        <time>2023-01-18T14:48:19Z</time>
      </trkpt>
      <trkpt lat="49.76821" lon="2.17224">
        <ele>65.1</ele>
        <time>2023-01-18T14:48:21Z</time>
      </trkpt>
      <trkpt lat="49.76821" lon="2.17225">
        <ele>65.1</ele>
        <time>2023-01-18T14:48:22Z</time>
      </trkpt>
      <trkpt lat="49.76821" lon="2.17225">
        <ele>65.1</ele>
        <time>2023-01-18T14:48:24Z</time>
      </trkpt>
      <trkpt lat="49.76821" lon="2.17225">
        <ele>65.1</ele>
        <time>2023-01-18T14:48:25Z</time>
      </trkpt>
      <trkpt lat="49.76821" lon="2.17225">
        <ele>65.1</ele>
        <time>2023-01-18T14:48:26Z</time>
      </trkpt>
      <trkpt lat="49.76821" lon="2.17225">
        <ele>65.2</ele>
        <time>2023-01-18T14:48:28Z</time>
      </trkpt>
      <trkpt lat="49.76821" lon="2.17225">
        <ele>65.2</ele>
        <time>2023-01-18T14:48:29Z</time>
      </trkpt>
      <trkpt lat="49.76821" lon="2.17225">
        <ele>65.2</ele>
        <time>2023-01-18T14:48:30Z</time>
      </trkpt>
      <trkpt lat="49.76821" lon="2.17225">
        <ele>65.2</ele>
        <time>2023-01-18T14:48:31Z</time>
      </trkpt>
      <trkpt lat="49.76821" lon="2.17225">
        <ele>65.2</ele>
        <time>2023-01-18T14:48:32Z</time>
      </trkpt>
      <trkpt lat="49.76821" lon="2.17225">
        <ele>65.2</ele>
        <time>2023-01-18T14:48:33Z</time>
      </trkpt>
      <trkpt lat="49.76821" lon="2.17225">
        <ele>65.2</ele>
        <time>2023-01-18T14:48:34Z</time>
      </trkpt>
      <trkpt lat="49.76821" lon="2.17225">
        <ele>65.2</ele>
        <time>2023-01-18T14:48:35Z</time>
      </trkpt>
      <trkpt lat="49.76821" lon="2.17225">
        <ele>65.2</ele>
        <time>2023-01-18T14:48:36Z</time>
      </trkpt>
      <trkpt lat="49.76821" lon="2.17225">
        <ele>65.2</ele>
        <time>2023-01-18T14:48:37Z</time>
      </trkpt>
      <trkpt lat="49.76821" lon="2.17225">
        <ele>65.2</ele>
        <time>2023-01-18T14:48:38Z</time>
      </trkpt>
      <trkpt lat="49.76821" lon="2.17225">
        <ele>65.2</ele>
        <time>2023-01-18T14:48:39Z</time>
      </trkpt>
      <trkpt lat="49.76821" lon="2.17225">
        <ele>65.2</ele>
        <time>2023-01-18T14:48:40Z</time>
      </trkpt>
      <trkpt lat="49.76821" lon="2.17225">
        <ele>65.2</ele>
        <time>2023-01-18T14:48:41Z</time>
      </trkpt>
      <trkpt lat="49.76821" lon="2.17225">
        <ele>65.2</ele>
        <time>2023-01-18T14:48:42Z</time>
      </trkpt>
      <trkpt lat="49.76821" lon="2.17225">
        <ele>65.2</ele>
        <time>2023-01-18T14:48:43Z</time>
      </trkpt>
      <trkpt lat="49.76821" lon="2.17225">
        <ele>65.2</ele>
        <time>2023-01-18T14:48:44Z</time>
      </trkpt>
      <trkpt lat="49.76821" lon="2.17225">
        <ele>65.2</ele>
        <time>2023-01-18T14:48:45Z</time>
      </trkpt>
      <trkpt lat="49.76821" lon="2.17225">
        <ele>65.2</ele>
        <time>2023-01-18T14:48:46Z</time>
      </trkpt>
      <trkpt lat="49.76821" lon="2.17225">
        <ele>65.2</ele>
        <time>2023-01-18T14:48:47Z</time>
      </trkpt>
      <trkpt lat="49.76821" lon="2.17225">
        <ele>65.2</ele>
        <time>2023-01-18T14:48:48Z</time>
      </trkpt>
      <trkpt lat="49.76821" lon="2.17225">
        <ele>65.2</ele>
        <time>2023-01-18T14:48:49Z</time>
      </trkpt>
      <trkpt lat="49.76821" lon="2.17225">
        <ele>65.2</ele>
        <time>2023-01-18T14:48:50Z</time>
      </trkpt>
      <trkpt lat="49.76821" lon="2.17225">
        <ele>65.2</ele>
        <time>2023-01-18T14:48:51Z</time>
      </trkpt>
      <trkpt lat="49.76822" lon="2.17225">
        <ele>65.2</ele>
        <time>2023-01-18T14:48:52Z</time>
      </trkpt>
      <trkpt lat="49.76823" lon="2.17225">
        <ele>65.2</ele>
        <time>2023-01-18T14:48:53Z</time>
      </trkpt>
      <trkpt lat="49.76823" lon="2.17225">
        <ele>65.2</ele>
        <time>2023-01-18T14:48:54Z</time>
      </trkpt>
      <trkpt lat="49.76823" lon="2.17225">
        <ele>65.2</ele>
        <time>2023-01-18T14:48:55Z</time>
      </trkpt>
      <trkpt lat="49.76823" lon="2.17224">
        <ele>65.2</ele>
        <time>2023-01-18T14:48:56Z</time>
      </trkpt>
      <trkpt lat="49.76823" lon="2.17223">
        <ele>65.2</ele>
        <time>2023-01-18T14:48:57Z</time>
      </trkpt>
      <trkpt lat="49.76822" lon="2.17223">
        <ele>65.3</ele>
        <time>2023-01-18T14:48:58Z</time>
      </trkpt>
      <trkpt lat="49.76822" lon="2.17222">
        <ele>65.3</ele>
        <time>2023-01-18T14:49:00Z</time>
      </trkpt>
      <trkpt lat="49.76822" lon="2.17221">
        <ele>65.3</ele>
        <time>2023-01-18T14:49:01Z</time>
      </trkpt>
      <trkpt lat="49.76821" lon="2.1722">
        <ele>65.3</ele>
        <time>2023-01-18T14:49:02Z</time>
      </trkpt>
      <trkpt lat="49.76819" lon="2.17217">
        <ele>65.4</ele>
        <time>2023-01-18T14:49:03Z</time>
      </trkpt>
      <trkpt lat="49.76819" lon="2.17216">
        <ele>65.4</ele>
        <time>2023-01-18T14:49:04Z</time>
      </trkpt>
      <trkpt lat="49.76818" lon="2.17215">
        <ele>65.4</ele>
        <time>2023-01-18T14:49:05Z</time>
      </trkpt>
      <trkpt lat="49.76817" lon="2.17213">
        <ele>65.4</ele>
        <time>2023-01-18T14:49:06Z</time>
      </trkpt>
      <trkpt lat="49.76816" lon="2.17211">
        <ele>65.5</ele>
        <time>2023-01-18T14:49:07Z</time>
      </trkpt>
      <trkpt lat="49.76815" lon="2.17209">
        <ele>65.5</ele>
        <time>2023-01-18T14:49:08Z</time>
      </trkpt>
      <trkpt lat="49.76814" lon="2.17208">
        <ele>65.6</ele>
        <time>2023-01-18T14:49:10Z</time>
      </trkpt>
      <trkpt lat="49.76813" lon="2.17205">
        <ele>65.6</ele>
        <time>2023-01-18T14:49:11Z</time>
      </trkpt>
      <trkpt lat="49.76812" lon="2.17204">
        <ele>65.6</ele>
        <time>2023-01-18T14:49:12Z</time>
      </trkpt>
      <trkpt lat="49.76812" lon="2.17203">
        <ele>65.6</ele>
        <time>2023-01-18T14:49:13Z</time>
      </trkpt>
      <trkpt lat="49.76811" lon="2.17201">
        <ele>65.7</ele>
        <time>2023-01-18T14:49:14Z</time>
      </trkpt>
      <trkpt lat="49.7681" lon="2.172">
        <ele>65.7</ele>
        <time>2023-01-18T14:49:15Z</time>
      </trkpt>
      <trkpt lat="49.76809" lon="2.17198">
        <ele>65.7</ele>
        <time>2023-01-18T14:49:16Z</time>
      </trkpt>
      <trkpt lat="49.76809" lon="2.17197">
        <ele>65.7</ele>
        <time>2023-01-18T14:49:17Z</time>
      </trkpt>
      <trkpt lat="49.76808" lon="2.17195">
        <ele>65.8</ele>
        <time>2023-01-18T14:49:19Z</time>
      </trkpt>
      <trkpt lat="49.76807" lon="2.17194">
        <ele>65.8</ele>
        <time>2023-01-18T14:49:20Z</time>
      </trkpt>
      <trkpt lat="49.76806" lon="2.17193">
        <ele>65.8</ele>
        <time>2023-01-18T14:49:21Z</time>
      </trkpt>
      <trkpt lat="49.76806" lon="2.17192">
        <ele>65.8</ele>
        <time>2023-01-18T14:49:22Z</time>
      </trkpt>
      <trkpt lat="49.76805" lon="2.1719">
        <ele>65.9</ele>
        <time>2023-01-18T14:49:23Z</time>
      </trkpt>
      <trkpt lat="49.76804" lon="2.17189">
        <ele>65.9</ele>
        <time>2023-01-18T14:49:24Z</time>
      </trkpt>
      <trkpt lat="49.76803" lon="2.17187">
        <ele>65.9</ele>
        <time>2023-01-18T14:49:26Z</time>
      </trkpt>
      <trkpt lat="49.76802" lon="2.17186">
        <ele>66</ele>
        <time>2023-01-18T14:49:27Z</time>
      </trkpt>
      <trkpt lat="49.76802" lon="2.17185">
        <ele>66</ele>
        <time>2023-01-18T14:49:28Z</time>
      </trkpt>
      <trkpt lat="49.76801" lon="2.17184">
        <ele>66</ele>
        <time>2023-01-18T14:49:29Z</time>
      </trkpt>
      <trkpt lat="49.768" lon="2.17182">
        <ele>66</ele>
        <time>2023-01-18T14:49:30Z</time>
      </trkpt>
      <trkpt lat="49.76799" lon="2.17181">
        <ele>66.1</ele>
        <time>2023-01-18T14:49:31Z</time>
      </trkpt>
      <trkpt lat="49.76798" lon="2.17179">
        <ele>66.1</ele>
        <time>2023-01-18T14:49:32Z</time>
      </trkpt>
      <trkpt lat="49.76797" lon="2.17178">
        <ele>66.1</ele>
        <time>2023-01-18T14:49:34Z</time>
      </trkpt>
      <trkpt lat="49.76796" lon="2.17177">
        <ele>66.1</ele>
        <time>2023-01-18T14:49:35Z</time>
      </trkpt>
      <trkpt lat="49.76796" lon="2.17176">
        <ele>66.2</ele>
        <time>2023-01-18T14:49:36Z</time>
      </trkpt>
      <trkpt lat="49.76795" lon="2.17175">
        <ele>66.2</ele>
        <time>2023-01-18T14:49:37Z</time>
      </trkpt>
      <trkpt lat="49.76794" lon="2.17173">
        <ele>66.2</ele>
        <time>2023-01-18T14:49:38Z</time>
      </trkpt>
      <trkpt lat="49.76793" lon="2.17172">
        <ele>66.2</ele>
        <time>2023-01-18T14:49:39Z</time>
      </trkpt>
      <trkpt lat="49.76793" lon="2.1717">
        <ele>66.2</ele>
        <time>2023-01-18T14:49:40Z</time>
      </trkpt>
      <trkpt lat="49.76792" lon="2.17169">
        <ele>66.3</ele>
        <time>2023-01-18T14:49:42Z</time>
      </trkpt>
      <trkpt lat="49.7679" lon="2.17166">
        <ele>66.3</ele>
        <time>2023-01-18T14:49:43Z</time>
      </trkpt>
      <trkpt lat="49.7679" lon="2.17165">
        <ele>66.3</ele>
        <time>2023-01-18T14:49:44Z</time>
      </trkpt>
      <trkpt lat="49.76789" lon="2.17164">
        <ele>66.3</ele>
        <time>2023-01-18T14:49:45Z</time>
      </trkpt>
      <trkpt lat="49.76788" lon="2.17162">
        <ele>66.4</ele>
        <time>2023-01-18T14:49:46Z</time>
      </trkpt>
      <trkpt lat="49.76787" lon="2.17161">
        <ele>66.4</ele>
        <time>2023-01-18T14:49:47Z</time>
      </trkpt>
      <trkpt lat="49.76787" lon="2.1716">
        <ele>66.4</ele>
        <time>2023-01-18T14:49:48Z</time>
      </trkpt>
      <trkpt lat="49.76786" lon="2.17159">
        <ele>66.4</ele>
        <time>2023-01-18T14:49:50Z</time>
      </trkpt>
      <trkpt lat="49.76786" lon="2.17158">
        <ele>66.5</ele>
        <time>2023-01-18T14:49:51Z</time>
      </trkpt>
      <trkpt lat="49.76785" lon="2.17156">
        <ele>66.5</ele>
        <time>2023-01-18T14:49:52Z</time>
      </trkpt>
      <trkpt lat="49.76784" lon="2.17155">
        <ele>66.5</ele>
        <time>2023-01-18T14:49:53Z</time>
      </trkpt>
      <trkpt lat="49.76784" lon="2.17154">
        <ele>66.5</ele>
        <time>2023-01-18T14:49:54Z</time>
      </trkpt>
      <trkpt lat="49.76783" lon="2.17153">
        <ele>66.5</ele>
        <time>2023-01-18T14:49:55Z</time>
      </trkpt>
      <trkpt lat="49.76782" lon="2.17151">
        <ele>66.6</ele>
        <time>2023-01-18T14:49:56Z</time>
      </trkpt>
      <trkpt lat="49.76781" lon="2.1715">
        <ele>66.6</ele>
        <time>2023-01-18T14:49:57Z</time>
      </trkpt>
      <trkpt lat="49.7678" lon="2.17148">
        <ele>66.6</ele>
        <time>2023-01-18T14:49:59Z</time>
      </trkpt>
      <trkpt lat="49.76779" lon="2.17147">
        <ele>66.6</ele>
        <time>2023-01-18T14:50:00Z</time>
      </trkpt>
      <trkpt lat="49.76779" lon="2.17145">
        <ele>66.7</ele>
        <time>2023-01-18T14:50:01Z</time>
      </trkpt>
      <trkpt lat="49.76778" lon="2.17144">
        <ele>66.7</ele>
        <time>2023-01-18T14:50:02Z</time>
      </trkpt>
      <trkpt lat="49.76777" lon="2.17141">
        <ele>66.7</ele>
        <time>2023-01-18T14:50:03Z</time>
      </trkpt>
      <trkpt lat="49.76776" lon="2.1714">
        <ele>66.7</ele>
        <time>2023-01-18T14:50:04Z</time>
      </trkpt>
      <trkpt lat="49.76776" lon="2.17139">
        <ele>66.8</ele>
        <time>2023-01-18T14:50:05Z</time>
      </trkpt>
      <trkpt lat="49.76774" lon="2.17136">
        <ele>66.8</ele>
        <time>2023-01-18T14:50:07Z</time>
      </trkpt>
      <trkpt lat="49.76774" lon="2.17135">
        <ele>66.8</ele>
        <time>2023-01-18T14:50:08Z</time>
      </trkpt>
      <trkpt lat="49.76773" lon="2.17134">
        <ele>66.8</ele>
        <time>2023-01-18T14:50:09Z</time>
      </trkpt>
      <trkpt lat="49.76773" lon="2.17133">
        <ele>66.8</ele>
        <time>2023-01-18T14:50:10Z</time>
      </trkpt>
      <trkpt lat="49.76772" lon="2.17132">
        <ele>66.9</ele>
        <time>2023-01-18T14:50:11Z</time>
      </trkpt>
      <trkpt lat="49.76771" lon="2.17131">
        <ele>66.9</ele>
        <time>2023-01-18T14:50:12Z</time>
      </trkpt>
      <trkpt lat="49.7677" lon="2.1713">
        <ele>66.9</ele>
        <time>2023-01-18T14:50:13Z</time>
      </trkpt>
      <trkpt lat="49.76769" lon="2.17128">
        <ele>66.9</ele>
        <time>2023-01-18T14:50:14Z</time>
      </trkpt>
      <trkpt lat="49.76769" lon="2.17127">
        <ele>66.9</ele>
        <time>2023-01-18T14:50:15Z</time>
      </trkpt>
      <trkpt lat="49.76768" lon="2.17127">
        <ele>66.9</ele>
        <time>2023-01-18T14:50:17Z</time>
      </trkpt>
      <trkpt lat="49.76767" lon="2.17126">
        <ele>67</ele>
        <time>2023-01-18T14:50:18Z</time>
      </trkpt>
      <trkpt lat="49.76766" lon="2.17125">
        <ele>67</ele>
        <time>2023-01-18T14:50:19Z</time>
      </trkpt>
      <trkpt lat="49.76765" lon="2.17124">
        <ele>67</ele>
        <time>2023-01-18T14:50:20Z</time>
      </trkpt>
      <trkpt lat="49.76764" lon="2.17123">
        <ele>67</ele>
        <time>2023-01-18T14:50:21Z</time>
      </trkpt>
      <trkpt lat="49.76763" lon="2.17122">
        <ele>67</ele>
        <time>2023-01-18T14:50:22Z</time>
      </trkpt>
      <trkpt lat="49.76762" lon="2.17121">
        <ele>67</ele>
        <time>2023-01-18T14:50:23Z</time>
      </trkpt>
      <trkpt lat="49.76761" lon="2.1712">
        <ele>67.1</ele>
        <time>2023-01-18T14:50:24Z</time>
      </trkpt>
      <trkpt lat="49.7676" lon="2.17119">
        <ele>67.1</ele>
        <time>2023-01-18T14:50:25Z</time>
      </trkpt>
      <trkpt lat="49.76759" lon="2.17118">
        <ele>67.1</ele>
        <time>2023-01-18T14:50:27Z</time>
      </trkpt>
      <trkpt lat="49.76758" lon="2.17118">
        <ele>67.1</ele>
        <time>2023-01-18T14:50:28Z</time>
      </trkpt>
      <trkpt lat="49.76757" lon="2.17117">
        <ele>67.1</ele>
        <time>2023-01-18T14:50:29Z</time>
      </trkpt>
      <trkpt lat="49.76756" lon="2.17116">
        <ele>67.1</ele>
        <time>2023-01-18T14:50:30Z</time>
      </trkpt>
      <trkpt lat="49.76755" lon="2.17116">
        <ele>67.2</ele>
        <time>2023-01-18T14:50:31Z</time>
      </trkpt>
      <trkpt lat="49.76754" lon="2.17115">
        <ele>67.2</ele>
        <time>2023-01-18T14:50:32Z</time>
      </trkpt>
      <trkpt lat="49.76753" lon="2.17114">
        <ele>67.2</ele>
        <time>2023-01-18T14:50:33Z</time>
      </trkpt>
      <trkpt lat="49.76752" lon="2.17113">
        <ele>67.2</ele>
        <time>2023-01-18T14:50:34Z</time>
      </trkpt>
      <trkpt lat="49.76751" lon="2.17112">
        <ele>67.2</ele>
        <time>2023-01-18T14:50:35Z</time>
      </trkpt>
      <trkpt lat="49.7675" lon="2.17112">
        <ele>67.2</ele>
        <time>2023-01-18T14:50:37Z</time>
      </trkpt>
      <trkpt lat="49.76749" lon="2.17111">
        <ele>67.2</ele>
        <time>2023-01-18T14:50:38Z</time>
      </trkpt>
      <trkpt lat="49.76747" lon="2.1711">
        <ele>67.3</ele>
        <time>2023-01-18T14:50:39Z</time>
      </trkpt>
      <trkpt lat="49.76746" lon="2.17109">
        <ele>67.3</ele>
        <time>2023-01-18T14:50:40Z</time>
      </trkpt>
      <trkpt lat="49.76745" lon="2.17109">
        <ele>67.3</ele>
        <time>2023-01-18T14:50:41Z</time>
      </trkpt>
      <trkpt lat="49.76744" lon="2.17108">
        <ele>67.3</ele>
        <time>2023-01-18T14:50:42Z</time>
      </trkpt>
      <trkpt lat="49.76742" lon="2.17106">
        <ele>67.3</ele>
        <time>2023-01-18T14:50:43Z</time>
      </trkpt>
      <trkpt lat="49.76741" lon="2.17105">
        <ele>67.3</ele>
        <time>2023-01-18T14:50:45Z</time>
      </trkpt>
      <trkpt lat="49.76741" lon="2.17104">
        <ele>67.4</ele>
        <time>2023-01-18T14:50:46Z</time>
      </trkpt>
      <trkpt lat="49.76739" lon="2.17103">
        <ele>67.4</ele>
        <time>2023-01-18T14:50:48Z</time>
      </trkpt>
      <trkpt lat="49.76738" lon="2.17102">
        <ele>67.4</ele>
        <time>2023-01-18T14:50:49Z</time>
      </trkpt>
      <trkpt lat="49.76737" lon="2.17101">
        <ele>67.4</ele>
        <time>2023-01-18T14:50:50Z</time>
      </trkpt>
      <trkpt lat="49.76736" lon="2.171">
        <ele>67.4</ele>
        <time>2023-01-18T14:50:52Z</time>
      </trkpt>
      <trkpt lat="49.76735" lon="2.17099">
        <ele>67.4</ele>
        <time>2023-01-18T14:50:53Z</time>
      </trkpt>
      <trkpt lat="49.76734" lon="2.17099">
        <ele>67.4</ele>
        <time>2023-01-18T14:50:54Z</time>
      </trkpt>
      <trkpt lat="49.76733" lon="2.17098">
        <ele>67.5</ele>
        <time>2023-01-18T14:50:55Z</time>
      </trkpt>
      <trkpt lat="49.76732" lon="2.17097">
        <ele>67.5</ele>
        <time>2023-01-18T14:50:56Z</time>
      </trkpt>
      <trkpt lat="49.76731" lon="2.17096">
        <ele>67.5</ele>
        <time>2023-01-18T14:50:57Z</time>
      </trkpt>
      <trkpt lat="49.7673" lon="2.17095">
        <ele>67.5</ele>
        <time>2023-01-18T14:50:58Z</time>
      </trkpt>
      <trkpt lat="49.76729" lon="2.17094">
        <ele>67.5</ele>
        <time>2023-01-18T14:50:59Z</time>
      </trkpt>
      <trkpt lat="49.76727" lon="2.17093">
        <ele>67.5</ele>
        <time>2023-01-18T14:51:01Z</time>
      </trkpt>
      <trkpt lat="49.76727" lon="2.17093">
        <ele>67.5</ele>
        <time>2023-01-18T14:51:02Z</time>
      </trkpt>
      <trkpt lat="49.76726" lon="2.17092">
        <ele>67.6</ele>
        <time>2023-01-18T14:51:03Z</time>
      </trkpt>
      <trkpt lat="49.76724" lon="2.1709">
        <ele>67.6</ele>
        <time>2023-01-18T14:51:04Z</time>
      </trkpt>
      <trkpt lat="49.76724" lon="2.17089">
        <ele>67.6</ele>
        <time>2023-01-18T14:51:05Z</time>
      </trkpt>
      <trkpt lat="49.76723" lon="2.17088">
        <ele>67.6</ele>
        <time>2023-01-18T14:51:06Z</time>
      </trkpt>
      <trkpt lat="49.76721" lon="2.17086">
        <ele>67.6</ele>
        <time>2023-01-18T14:51:07Z</time>
      </trkpt>
      <trkpt lat="49.7672" lon="2.17086">
        <ele>67.6</ele>
        <time>2023-01-18T14:51:08Z</time>
      </trkpt>
      <trkpt lat="49.7672" lon="2.17085">
        <ele>67.7</ele>
        <time>2023-01-18T14:51:09Z</time>
      </trkpt>
      <trkpt lat="49.76718" lon="2.17084">
        <ele>67.7</ele>
        <time>2023-01-18T14:51:10Z</time>
      </trkpt>
      <trkpt lat="49.76717" lon="2.17083">
        <ele>67.7</ele>
        <time>2023-01-18T14:51:12Z</time>
      </trkpt>
      <trkpt lat="49.76716" lon="2.17083">
        <ele>67.7</ele>
        <time>2023-01-18T14:51:13Z</time>
      </trkpt>
      <trkpt lat="49.76714" lon="2.17082">
        <ele>67.7</ele>
        <time>2023-01-18T14:51:14Z</time>
      </trkpt>
      <trkpt lat="49.76713" lon="2.17081">
        <ele>67.7</ele>
        <time>2023-01-18T14:51:15Z</time>
      </trkpt>
      <trkpt lat="49.76713" lon="2.17081">
        <ele>67.8</ele>
        <time>2023-01-18T14:51:16Z</time>
      </trkpt>
      <trkpt lat="49.76711" lon="2.1708">
        <ele>67.8</ele>
        <time>2023-01-18T14:51:17Z</time>
      </trkpt>
      <trkpt lat="49.7671" lon="2.1708">
        <ele>67.8</ele>
        <time>2023-01-18T14:51:18Z</time>
      </trkpt>
      <trkpt lat="49.76709" lon="2.17079">
        <ele>67.8</ele>
        <time>2023-01-18T14:51:19Z</time>
      </trkpt>
      <trkpt lat="49.76708" lon="2.17079">
        <ele>67.8</ele>
        <time>2023-01-18T14:51:20Z</time>
      </trkpt>
      <trkpt lat="49.76707" lon="2.17078">
        <ele>67.9</ele>
        <time>2023-01-18T14:51:22Z</time>
      </trkpt>
      <trkpt lat="49.76706" lon="2.17078">
        <ele>67.9</ele>
        <time>2023-01-18T14:51:23Z</time>
      </trkpt>
      <trkpt lat="49.76704" lon="2.17077">
        <ele>67.9</ele>
        <time>2023-01-18T14:51:24Z</time>
      </trkpt>
      <trkpt lat="49.76703" lon="2.17077">
        <ele>67.9</ele>
        <time>2023-01-18T14:51:25Z</time>
      </trkpt>
      <trkpt lat="49.76701" lon="2.17076">
        <ele>68</ele>
        <time>2023-01-18T14:51:26Z</time>
      </trkpt>
      <trkpt lat="49.767" lon="2.17076">
        <ele>68</ele>
        <time>2023-01-18T14:51:27Z</time>
      </trkpt>
      <trkpt lat="49.767" lon="2.17076">
        <ele>68</ele>
        <time>2023-01-18T14:51:28Z</time>
      </trkpt>
      <trkpt lat="49.76697" lon="2.17075">
        <ele>68.1</ele>
        <time>2023-01-18T14:51:29Z</time>
      </trkpt>
      <trkpt lat="49.76697" lon="2.17075">
        <ele>68.1</ele>
        <time>2023-01-18T14:51:30Z</time>
      </trkpt>
      <trkpt lat="49.76696" lon="2.17074">
        <ele>68.1</ele>
        <time>2023-01-18T14:51:32Z</time>
      </trkpt>
      <trkpt lat="49.76695" lon="2.17074">
        <ele>68.1</ele>
        <time>2023-01-18T14:51:33Z</time>
      </trkpt>
      <trkpt lat="49.76694" lon="2.17074">
        <ele>68.1</ele>
        <time>2023-01-18T14:51:34Z</time>
      </trkpt>
      <trkpt lat="49.76693" lon="2.17073">
        <ele>68.2</ele>
        <time>2023-01-18T14:51:35Z</time>
      </trkpt>
      <trkpt lat="49.76691" lon="2.17072">
        <ele>68.2</ele>
        <time>2023-01-18T14:51:36Z</time>
      </trkpt>
      <trkpt lat="49.7669" lon="2.17072">
        <ele>68.3</ele>
        <time>2023-01-18T14:51:37Z</time>
      </trkpt>
      <trkpt lat="49.76689" lon="2.17072">
        <ele>68.3</ele>
        <time>2023-01-18T14:51:38Z</time>
      </trkpt>
      <trkpt lat="49.76688" lon="2.17071">
        <ele>68.3</ele>
        <time>2023-01-18T14:51:39Z</time>
      </trkpt>
      <trkpt lat="49.76687" lon="2.17071">
        <ele>68.3</ele>
        <time>2023-01-18T14:51:41Z</time>
      </trkpt>
      <trkpt lat="49.76686" lon="2.17071">
        <ele>68.4</ele>
        <time>2023-01-18T14:51:42Z</time>
      </trkpt>
      <trkpt lat="49.76685" lon="2.17071">
        <ele>68.4</ele>
        <time>2023-01-18T14:51:43Z</time>
      </trkpt>
      <trkpt lat="49.76684" lon="2.17071">
        <ele>68.5</ele>
        <time>2023-01-18T14:51:44Z</time>
      </trkpt>
      <trkpt lat="49.76682" lon="2.17071">
        <ele>68.5</ele>
        <time>2023-01-18T14:51:45Z</time>
      </trkpt>
      <trkpt lat="49.76681" lon="2.17071">
        <ele>68.5</ele>
        <time>2023-01-18T14:51:46Z</time>
      </trkpt>
      <trkpt lat="49.7668" lon="2.17071">
        <ele>68.6</ele>
        <time>2023-01-18T14:51:48Z</time>
      </trkpt>
      <trkpt lat="49.76679" lon="2.17072">
        <ele>68.6</ele>
        <time>2023-01-18T14:51:49Z</time>
      </trkpt>
      <trkpt lat="49.76678" lon="2.17072">
        <ele>68.6</ele>
        <time>2023-01-18T14:51:50Z</time>
      </trkpt>
      <trkpt lat="49.76677" lon="2.17073">
        <ele>68.6</ele>
        <time>2023-01-18T14:51:51Z</time>
      </trkpt>
      <trkpt lat="49.76677" lon="2.17074">
        <ele>68.7</ele>
        <time>2023-01-18T14:51:52Z</time>
      </trkpt>
      <trkpt lat="49.76676" lon="2.17074">
        <ele>68.7</ele>
        <time>2023-01-18T14:51:53Z</time>
      </trkpt>
      <trkpt lat="49.76675" lon="2.17075">
        <ele>68.7</ele>
        <time>2023-01-18T14:51:54Z</time>
      </trkpt>
      <trkpt lat="49.76675" lon="2.17076">
        <ele>68.7</ele>
        <time>2023-01-18T14:51:55Z</time>
      </trkpt>
      <trkpt lat="49.76674" lon="2.17078">
        <ele>68.8</ele>
        <time>2023-01-18T14:51:56Z</time>
      </trkpt>
      <trkpt lat="49.76673" lon="2.17079">
        <ele>68.8</ele>
        <time>2023-01-18T14:51:58Z</time>
      </trkpt>
      <trkpt lat="49.76672" lon="2.17081">
        <ele>68.8</ele>
        <time>2023-01-18T14:51:59Z</time>
      </trkpt>
      <trkpt lat="49.76671" lon="2.17083">
        <ele>68.9</ele>
        <time>2023-01-18T14:52:00Z</time>
      </trkpt>
      <trkpt lat="49.76671" lon="2.17084">
        <ele>68.9</ele>
        <time>2023-01-18T14:52:01Z</time>
      </trkpt>
      <trkpt lat="49.76671" lon="2.17086">
        <ele>68.9</ele>
        <time>2023-01-18T14:52:02Z</time>
      </trkpt>
      <trkpt lat="49.7667" lon="2.17089">
        <ele>69</ele>
        <time>2023-01-18T14:52:04Z</time>
      </trkpt>
      <trkpt lat="49.7667" lon="2.1709">
        <ele>69</ele>
        <time>2023-01-18T14:52:05Z</time>
      </trkpt>
      <trkpt lat="49.76669" lon="2.17091">
        <ele>69</ele>
        <time>2023-01-18T14:52:06Z</time>
      </trkpt>
      <trkpt lat="49.76669" lon="2.17094">
        <ele>69</ele>
        <time>2023-01-18T14:52:07Z</time>
      </trkpt>
      <trkpt lat="49.76669" lon="2.17095">
        <ele>69.1</ele>
        <time>2023-01-18T14:52:08Z</time>
      </trkpt>
      <trkpt lat="49.76669" lon="2.17097">
        <ele>69.1</ele>
        <time>2023-01-18T14:52:09Z</time>
      </trkpt>
      <trkpt lat="49.76668" lon="2.171">
        <ele>69.1</ele>
        <time>2023-01-18T14:52:11Z</time>
      </trkpt>
      <trkpt lat="49.76667" lon="2.17101">
        <ele>69.1</ele>
        <time>2023-01-18T14:52:12Z</time>
      </trkpt>
      <trkpt lat="49.76667" lon="2.17102">
        <ele>69.1</ele>
        <time>2023-01-18T14:52:13Z</time>
      </trkpt>
      <trkpt lat="49.76666" lon="2.17103">
        <ele>69.2</ele>
        <time>2023-01-18T14:52:14Z</time>
      </trkpt>
      <trkpt lat="49.76666" lon="2.17105">
        <ele>69.2</ele>
        <time>2023-01-18T14:52:15Z</time>
      </trkpt>
      <trkpt lat="49.76665" lon="2.17107">
        <ele>69.2</ele>
        <time>2023-01-18T14:52:17Z</time>
      </trkpt>
      <trkpt lat="49.76664" lon="2.17108">
        <ele>69.2</ele>
        <time>2023-01-18T14:52:18Z</time>
      </trkpt>
      <trkpt lat="49.76663" lon="2.17109">
        <ele>69.2</ele>
        <time>2023-01-18T14:52:19Z</time>
      </trkpt>
      <trkpt lat="49.76662" lon="2.1711">
        <ele>69.3</ele>
        <time>2023-01-18T14:52:20Z</time>
      </trkpt>
      <trkpt lat="49.76661" lon="2.17111">
        <ele>69.3</ele>
        <time>2023-01-18T14:52:21Z</time>
      </trkpt>
      <trkpt lat="49.7666" lon="2.17111">
        <ele>69.3</ele>
        <time>2023-01-18T14:52:22Z</time>
      </trkpt>
      <trkpt lat="49.76659" lon="2.17112">
        <ele>69.3</ele>
        <time>2023-01-18T14:52:23Z</time>
      </trkpt>
      <trkpt lat="49.76658" lon="2.17112">
        <ele>69.4</ele>
        <time>2023-01-18T14:52:25Z</time>
      </trkpt>
      <trkpt lat="49.76657" lon="2.17112">
        <ele>69.4</ele>
        <time>2023-01-18T14:52:26Z</time>
      </trkpt>
      <trkpt lat="49.76655" lon="2.17112">
        <ele>69.4</ele>
        <time>2023-01-18T14:52:27Z</time>
      </trkpt>
      <trkpt lat="49.76654" lon="2.17112">
        <ele>69.4</ele>
        <time>2023-01-18T14:52:28Z</time>
      </trkpt>
      <trkpt lat="49.76653" lon="2.17112">
        <ele>69.4</ele>
        <time>2023-01-18T14:52:29Z</time>
      </trkpt>
      <trkpt lat="49.76652" lon="2.17111">
        <ele>69.4</ele>
        <time>2023-01-18T14:52:30Z</time>
      </trkpt>
      <trkpt lat="49.7665" lon="2.1711">
        <ele>69.5</ele>
        <time>2023-01-18T14:52:32Z</time>
      </trkpt>
      <trkpt lat="49.76649" lon="2.17109">
        <ele>69.5</ele>
        <time>2023-01-18T14:52:33Z</time>
      </trkpt>
      <trkpt lat="49.76649" lon="2.17109">
        <ele>69.5</ele>
        <time>2023-01-18T14:52:34Z</time>
      </trkpt>
      <trkpt lat="49.76648" lon="2.17108">
        <ele>69.5</ele>
        <time>2023-01-18T14:52:35Z</time>
      </trkpt>
      <trkpt lat="49.76647" lon="2.17108">
        <ele>69.5</ele>
        <time>2023-01-18T14:52:36Z</time>
      </trkpt>
      <trkpt lat="49.76645" lon="2.17108">
        <ele>69.5</ele>
        <time>2023-01-18T14:52:37Z</time>
      </trkpt>
      <trkpt lat="49.76644" lon="2.17107">
        <ele>69.6</ele>
        <time>2023-01-18T14:52:38Z</time>
      </trkpt>
      <trkpt lat="49.76643" lon="2.17107">
        <ele>69.6</ele>
        <time>2023-01-18T14:52:40Z</time>
      </trkpt>
      <trkpt lat="49.76642" lon="2.17107">
        <ele>69.6</ele>
        <time>2023-01-18T14:52:41Z</time>
      </trkpt>
      <trkpt lat="49.76641" lon="2.17107">
        <ele>69.6</ele>
        <time>2023-01-18T14:52:42Z</time>
      </trkpt>
      <trkpt lat="49.7664" lon="2.17107">
        <ele>69.6</ele>
        <time>2023-01-18T14:52:43Z</time>
      </trkpt>
      <trkpt lat="49.76639" lon="2.17107">
        <ele>69.6</ele>
        <time>2023-01-18T14:52:44Z</time>
      </trkpt>
      <trkpt lat="49.76638" lon="2.17107">
        <ele>69.7</ele>
        <time>2023-01-18T14:52:45Z</time>
      </trkpt>
      <trkpt lat="49.76636" lon="2.17107">
        <ele>69.7</ele>
        <time>2023-01-18T14:52:46Z</time>
      </trkpt>
      <trkpt lat="49.76635" lon="2.17107">
        <ele>69.7</ele>
        <time>2023-01-18T14:52:47Z</time>
      </trkpt>
      <trkpt lat="49.76634" lon="2.17106">
        <ele>69.7</ele>
        <time>2023-01-18T14:52:49Z</time>
      </trkpt>
      <trkpt lat="49.76633" lon="2.17106">
        <ele>69.7</ele>
        <time>2023-01-18T14:52:50Z</time>
      </trkpt>
      <trkpt lat="49.76632" lon="2.17105">
        <ele>69.7</ele>
        <time>2023-01-18T14:52:51Z</time>
      </trkpt>
      <trkpt lat="49.76631" lon="2.17105">
        <ele>69.7</ele>
        <time>2023-01-18T14:52:52Z</time>
      </trkpt>
      <trkpt lat="49.7663" lon="2.17105">
        <ele>69.7</ele>
        <time>2023-01-18T14:52:54Z</time>
      </trkpt>
      <trkpt lat="49.76628" lon="2.17105">
        <ele>69.8</ele>
        <time>2023-01-18T14:52:55Z</time>
      </trkpt>
      <trkpt lat="49.76628" lon="2.17106">
        <ele>69.8</ele>
        <time>2023-01-18T14:52:56Z</time>
      </trkpt>
      <trkpt lat="49.76627" lon="2.17107">
        <ele>69.8</ele>
        <time>2023-01-18T14:52:57Z</time>
      </trkpt>
      <trkpt lat="49.76626" lon="2.17107">
        <ele>69.8</ele>
        <time>2023-01-18T14:52:58Z</time>
      </trkpt>
      <trkpt lat="49.76626" lon="2.17108">
        <ele>69.8</ele>
        <time>2023-01-18T14:52:59Z</time>
      </trkpt>
      <trkpt lat="49.76625" lon="2.1711">
        <ele>69.8</ele>
        <time>2023-01-18T14:53:01Z</time>
      </trkpt>
      <trkpt lat="49.76624" lon="2.17111">
        <ele>69.8</ele>
        <time>2023-01-18T14:53:03Z</time>
      </trkpt>
      <trkpt lat="49.76623" lon="2.17111">
        <ele>69.8</ele>
        <time>2023-01-18T14:53:04Z</time>
      </trkpt>
      <trkpt lat="49.76623" lon="2.17112">
        <ele>69.8</ele>
        <time>2023-01-18T14:53:05Z</time>
      </trkpt>
      <trkpt lat="49.76622" lon="2.17112">
        <ele>69.8</ele>
        <time>2023-01-18T14:53:06Z</time>
      </trkpt>
      <trkpt lat="49.76622" lon="2.17113">
        <ele>69.8</ele>
        <time>2023-01-18T14:53:08Z</time>
      </trkpt>
      <trkpt lat="49.76622" lon="2.17113">
        <ele>69.8</ele>
        <time>2023-01-18T14:53:09Z</time>
      </trkpt>
      <trkpt lat="49.76622" lon="2.17114">
        <ele>69.8</ele>
        <time>2023-01-18T14:53:10Z</time>
      </trkpt>
      <trkpt lat="49.76621" lon="2.17114">
        <ele>69.8</ele>
        <time>2023-01-18T14:53:12Z</time>
      </trkpt>
      <trkpt lat="49.7662" lon="2.17113">
        <ele>69.9</ele>
        <time>2023-01-18T14:53:13Z</time>
      </trkpt>
      <trkpt lat="49.76619" lon="2.17113">
        <ele>69.9</ele>
        <time>2023-01-18T14:53:14Z</time>
      </trkpt>
      <trkpt lat="49.76618" lon="2.17112">
        <ele>69.9</ele>
        <time>2023-01-18T14:53:15Z</time>
      </trkpt>
      <trkpt lat="49.76617" lon="2.17112">
        <ele>69.9</ele>
        <time>2023-01-18T14:53:16Z</time>
      </trkpt>
      <trkpt lat="49.76617" lon="2.17111">
        <ele>69.9</ele>
        <time>2023-01-18T14:53:18Z</time>
      </trkpt>
      <trkpt lat="49.76616" lon="2.1711">
        <ele>69.9</ele>
        <time>2023-01-18T14:53:19Z</time>
      </trkpt>
      <trkpt lat="49.76614" lon="2.17108">
        <ele>69.9</ele>
        <time>2023-01-18T14:53:20Z</time>
      </trkpt>
      <trkpt lat="49.76614" lon="2.17107">
        <ele>69.9</ele>
        <time>2023-01-18T14:53:21Z</time>
      </trkpt>
      <trkpt lat="49.76613" lon="2.17107">
        <ele>69.9</ele>
        <time>2023-01-18T14:53:22Z</time>
      </trkpt>
      <trkpt lat="49.76611" lon="2.17106">
        <ele>70</ele>
        <time>2023-01-18T14:53:23Z</time>
      </trkpt>
      <trkpt lat="49.7661" lon="2.17105">
        <ele>70</ele>
        <time>2023-01-18T14:53:25Z</time>
      </trkpt>
      <trkpt lat="49.76609" lon="2.17105">
        <ele>70</ele>
        <time>2023-01-18T14:53:26Z</time>
      </trkpt>
      <trkpt lat="49.76607" lon="2.17104">
        <ele>70</ele>
        <time>2023-01-18T14:53:27Z</time>
      </trkpt>
      <trkpt lat="49.76606" lon="2.17104">
        <ele>70</ele>
        <time>2023-01-18T14:53:28Z</time>
      </trkpt>
      <trkpt lat="49.76606" lon="2.17103">
        <ele>70</ele>
        <time>2023-01-18T14:53:29Z</time>
      </trkpt>
      <trkpt lat="49.76604" lon="2.17103">
        <ele>70</ele>
        <time>2023-01-18T14:53:31Z</time>
      </trkpt>
      <trkpt lat="49.76603" lon="2.17103">
        <ele>70.1</ele>
        <time>2023-01-18T14:53:32Z</time>
      </trkpt>
      <trkpt lat="49.76602" lon="2.17103">
        <ele>70.1</ele>
        <time>2023-01-18T14:53:33Z</time>
      </trkpt>
      <trkpt lat="49.76601" lon="2.17103">
        <ele>70.1</ele>
        <time>2023-01-18T14:53:34Z</time>
      </trkpt>
      <trkpt lat="49.76599" lon="2.17103">
        <ele>70.1</ele>
        <time>2023-01-18T14:53:35Z</time>
      </trkpt>
      <trkpt lat="49.76598" lon="2.17103">
        <ele>70.1</ele>
        <time>2023-01-18T14:53:37Z</time>
      </trkpt>
      <trkpt lat="49.76597" lon="2.17103">
        <ele>70.1</ele>
        <time>2023-01-18T14:53:38Z</time>
      </trkpt>
      <trkpt lat="49.76596" lon="2.17103">
        <ele>70.1</ele>
        <time>2023-01-18T14:53:39Z</time>
      </trkpt>
      <trkpt lat="49.76595" lon="2.17103">
        <ele>70.2</ele>
        <time>2023-01-18T14:53:40Z</time>
      </trkpt>
      <trkpt lat="49.76594" lon="2.17103">
        <ele>70.2</ele>
        <time>2023-01-18T14:53:41Z</time>
      </trkpt>
      <trkpt lat="49.76593" lon="2.17103">
        <ele>70.2</ele>
        <time>2023-01-18T14:53:42Z</time>
      </trkpt>
      <trkpt lat="49.76592" lon="2.17103">
        <ele>70.2</ele>
        <time>2023-01-18T14:53:43Z</time>
      </trkpt>
      <trkpt lat="49.76591" lon="2.17103">
        <ele>70.2</ele>
        <time>2023-01-18T14:53:44Z</time>
      </trkpt>
      <trkpt lat="49.76589" lon="2.17103">
        <ele>70.2</ele>
        <time>2023-01-18T14:53:46Z</time>
      </trkpt>
      <trkpt lat="49.76588" lon="2.17103">
        <ele>70.2</ele>
        <time>2023-01-18T14:53:47Z</time>
      </trkpt>
      <trkpt lat="49.76587" lon="2.17103">
        <ele>70.2</ele>
        <time>2023-01-18T14:53:48Z</time>
      </trkpt>
      <trkpt lat="49.76586" lon="2.17104">
        <ele>70.2</ele>
        <time>2023-01-18T14:53:49Z</time>
      </trkpt>
      <trkpt lat="49.76584" lon="2.17104">
        <ele>70.3</ele>
        <time>2023-01-18T14:53:50Z</time>
      </trkpt>
      <trkpt lat="49.76584" lon="2.17104">
        <ele>70.3</ele>
        <time>2023-01-18T14:53:52Z</time>
      </trkpt>
      <trkpt lat="49.76583" lon="2.17104">
        <ele>70.3</ele>
        <time>2023-01-18T14:53:53Z</time>
      </trkpt>
      <trkpt lat="49.76582" lon="2.17104">
        <ele>70.3</ele>
        <time>2023-01-18T14:53:54Z</time>
      </trkpt>
      <trkpt lat="49.76581" lon="2.17104">
        <ele>70.3</ele>
        <time>2023-01-18T14:53:55Z</time>
      </trkpt>
      <trkpt lat="49.7658" lon="2.17104">
        <ele>70.3</ele>
        <time>2023-01-18T14:53:56Z</time>
      </trkpt>
      <trkpt lat="49.76577" lon="2.17104">
        <ele>70.3</ele>
        <time>2023-01-18T14:53:58Z</time>
      </trkpt>
      <trkpt lat="49.76577" lon="2.17104">
        <ele>70.3</ele>
        <time>2023-01-18T14:53:59Z</time>
      </trkpt>
      <trkpt lat="49.76576" lon="2.17104">
        <ele>70.3</ele>
        <time>2023-01-18T14:54:00Z</time>
      </trkpt>
      <trkpt lat="49.76574" lon="2.17104">
        <ele>70.4</ele>
        <time>2023-01-18T14:54:01Z</time>
      </trkpt>
      <trkpt lat="49.76573" lon="2.17104">
        <ele>70.4</ele>
        <time>2023-01-18T14:54:02Z</time>
      </trkpt>
      <trkpt lat="49.76572" lon="2.17104">
        <ele>70.4</ele>
        <time>2023-01-18T14:54:03Z</time>
      </trkpt>
      <trkpt lat="49.7657" lon="2.17104">
        <ele>70.4</ele>
        <time>2023-01-18T14:54:05Z</time>
      </trkpt>
      <trkpt lat="49.76569" lon="2.17104">
        <ele>70.4</ele>
        <time>2023-01-18T14:54:06Z</time>
      </trkpt>
      <trkpt lat="49.76568" lon="2.17103">
        <ele>70.4</ele>
        <time>2023-01-18T14:54:07Z</time>
      </trkpt>
      <trkpt lat="49.76567" lon="2.17103">
        <ele>70.4</ele>
        <time>2023-01-18T14:54:08Z</time>
      </trkpt>
      <trkpt lat="49.76566" lon="2.17103">
        <ele>70.4</ele>
        <time>2023-01-18T14:54:09Z</time>
      </trkpt>
      <trkpt lat="49.76564" lon="2.17103">
        <ele>70.4</ele>
        <time>2023-01-18T14:54:11Z</time>
      </trkpt>
      <trkpt lat="49.76563" lon="2.17102">
        <ele>70.5</ele>
        <time>2023-01-18T14:54:12Z</time>
      </trkpt>
      <trkpt lat="49.76562" lon="2.17102">
        <ele>70.5</ele>
        <time>2023-01-18T14:54:13Z</time>
      </trkpt>
      <trkpt lat="49.76561" lon="2.17102">
        <ele>70.5</ele>
        <time>2023-01-18T14:54:14Z</time>
      </trkpt>
      <trkpt lat="49.76561" lon="2.17102">
        <ele>70.5</ele>
        <time>2023-01-18T14:54:15Z</time>
      </trkpt>
      <trkpt lat="49.76559" lon="2.17102">
        <ele>70.5</ele>
        <time>2023-01-18T14:54:16Z</time>
      </trkpt>
      <trkpt lat="49.76558" lon="2.17102">
        <ele>70.5</ele>
        <time>2023-01-18T14:54:17Z</time>
      </trkpt>
      <trkpt lat="49.76557" lon="2.17102">
        <ele>70.5</ele>
        <time>2023-01-18T14:54:19Z</time>
      </trkpt>
      <trkpt lat="49.76556" lon="2.17101">
        <ele>70.5</ele>
        <time>2023-01-18T14:54:20Z</time>
      </trkpt>
      <trkpt lat="49.76555" lon="2.17101">
        <ele>70.5</ele>
        <time>2023-01-18T14:54:21Z</time>
      </trkpt>
      <trkpt lat="49.76554" lon="2.17101">
        <ele>70.5</ele>
        <time>2023-01-18T14:54:22Z</time>
      </trkpt>
      <trkpt lat="49.76553" lon="2.171">
        <ele>70.5</ele>
        <time>2023-01-18T14:54:23Z</time>
      </trkpt>
      <trkpt lat="49.76551" lon="2.171">
        <ele>70.5</ele>
        <time>2023-01-18T14:54:24Z</time>
      </trkpt>
      <trkpt lat="49.76549" lon="2.17099">
        <ele>70.5</ele>
        <time>2023-01-18T14:54:26Z</time>
      </trkpt>
      <trkpt lat="49.76549" lon="2.17098">
        <ele>70.5</ele>
        <time>2023-01-18T14:54:27Z</time>
      </trkpt>
      <trkpt lat="49.76548" lon="2.17098">
        <ele>70.5</ele>
        <time>2023-01-18T14:54:28Z</time>
      </trkpt>
      <trkpt lat="49.76547" lon="2.17098">
        <ele>70.5</ele>
        <time>2023-01-18T14:54:29Z</time>
      </trkpt>
      <trkpt lat="49.76546" lon="2.17097">
        <ele>70.5</ele>
        <time>2023-01-18T14:54:30Z</time>
      </trkpt>
      <trkpt lat="49.76545" lon="2.17097">
        <ele>70.5</ele>
        <time>2023-01-18T14:54:31Z</time>
      </trkpt>
      <trkpt lat="49.76543" lon="2.17096">
        <ele>70.5</ele>
        <time>2023-01-18T14:54:32Z</time>
      </trkpt>
      <trkpt lat="49.76542" lon="2.17095">
        <ele>70.5</ele>
        <time>2023-01-18T14:54:34Z</time>
      </trkpt>
      <trkpt lat="49.76541" lon="2.17095">
        <ele>70.5</ele>
        <time>2023-01-18T14:54:35Z</time>
      </trkpt>
      <trkpt lat="49.7654" lon="2.17094">
        <ele>70.5</ele>
        <time>2023-01-18T14:54:36Z</time>
      </trkpt>
      <trkpt lat="49.76539" lon="2.17094">
        <ele>70.5</ele>
        <time>2023-01-18T14:54:37Z</time>
      </trkpt>
      <trkpt lat="49.76538" lon="2.17093">
        <ele>70.5</ele>
        <time>2023-01-18T14:54:38Z</time>
      </trkpt>
      <trkpt lat="49.76536" lon="2.17092">
        <ele>70.5</ele>
        <time>2023-01-18T14:54:39Z</time>
      </trkpt>
      <trkpt lat="49.76536" lon="2.17092">
        <ele>70.5</ele>
        <time>2023-01-18T14:54:41Z</time>
      </trkpt>
      <trkpt lat="49.76535" lon="2.17091">
        <ele>70.5</ele>
        <time>2023-01-18T14:54:42Z</time>
      </trkpt>
      <trkpt lat="49.76534" lon="2.1709">
        <ele>70.5</ele>
        <time>2023-01-18T14:54:43Z</time>
      </trkpt>
      <trkpt lat="49.76533" lon="2.1709">
        <ele>70.5</ele>
        <time>2023-01-18T14:54:44Z</time>
      </trkpt>
      <trkpt lat="49.76532" lon="2.17089">
        <ele>70.5</ele>
        <time>2023-01-18T14:54:45Z</time>
      </trkpt>
      <trkpt lat="49.7653" lon="2.17087">
        <ele>70.5</ele>
        <time>2023-01-18T14:54:46Z</time>
      </trkpt>
      <trkpt lat="49.76529" lon="2.17087">
        <ele>70.5</ele>
        <time>2023-01-18T14:54:47Z</time>
      </trkpt>
      <trkpt lat="49.76528" lon="2.17086">
        <ele>70.5</ele>
        <time>2023-01-18T14:54:48Z</time>
      </trkpt>
      <trkpt lat="49.76526" lon="2.17085">
        <ele>70.5</ele>
        <time>2023-01-18T14:54:50Z</time>
      </trkpt>
      <trkpt lat="49.76525" lon="2.17085">
        <ele>70.5</ele>
        <time>2023-01-18T14:54:51Z</time>
      </trkpt>
      <trkpt lat="49.76524" lon="2.17084">
        <ele>70.5</ele>
        <time>2023-01-18T14:54:52Z</time>
      </trkpt>
      <trkpt lat="49.76523" lon="2.17084">
        <ele>70.5</ele>
        <time>2023-01-18T14:54:53Z</time>
      </trkpt>
      <trkpt lat="49.76522" lon="2.17083">
        <ele>70.5</ele>
        <time>2023-01-18T14:54:54Z</time>
      </trkpt>
      <trkpt lat="49.76521" lon="2.17083">
        <ele>70.5</ele>
        <time>2023-01-18T14:54:55Z</time>
      </trkpt>
      <trkpt lat="49.7652" lon="2.17082">
        <ele>70.5</ele>
        <time>2023-01-18T14:54:56Z</time>
      </trkpt>
      <trkpt lat="49.76519" lon="2.17081">
        <ele>70.5</ele>
        <time>2023-01-18T14:54:57Z</time>
      </trkpt>
      <trkpt lat="49.76517" lon="2.1708">
        <ele>70.5</ele>
        <time>2023-01-18T14:54:59Z</time>
      </trkpt>
      <trkpt lat="49.76516" lon="2.17079">
        <ele>70.5</ele>
        <time>2023-01-18T14:55:00Z</time>
      </trkpt>
      <trkpt lat="49.76515" lon="2.17079">
        <ele>70.5</ele>
        <time>2023-01-18T14:55:01Z</time>
      </trkpt>
      <trkpt lat="49.76514" lon="2.17078">
        <ele>70.5</ele>
        <time>2023-01-18T14:55:02Z</time>
      </trkpt>
      <trkpt lat="49.76513" lon="2.17078">
        <ele>70.6</ele>
        <time>2023-01-18T14:55:03Z</time>
      </trkpt>
      <trkpt lat="49.76512" lon="2.17077">
        <ele>70.6</ele>
        <time>2023-01-18T14:55:04Z</time>
      </trkpt>
      <trkpt lat="49.76511" lon="2.17077">
        <ele>70.6</ele>
        <time>2023-01-18T14:55:05Z</time>
      </trkpt>
      <trkpt lat="49.7651" lon="2.17076">
        <ele>70.6</ele>
        <time>2023-01-18T14:55:07Z</time>
      </trkpt>
      <trkpt lat="49.76508" lon="2.17075">
        <ele>70.6</ele>
        <time>2023-01-18T14:55:08Z</time>
      </trkpt>
      <trkpt lat="49.76507" lon="2.17075">
        <ele>70.6</ele>
        <time>2023-01-18T14:55:09Z</time>
      </trkpt>
      <trkpt lat="49.76506" lon="2.17074">
        <ele>70.6</ele>
        <time>2023-01-18T14:55:10Z</time>
      </trkpt>
      <trkpt lat="49.76506" lon="2.17073">
        <ele>70.6</ele>
        <time>2023-01-18T14:55:11Z</time>
      </trkpt>
      <trkpt lat="49.76504" lon="2.17073">
        <ele>70.6</ele>
        <time>2023-01-18T14:55:12Z</time>
      </trkpt>
      <trkpt lat="49.76503" lon="2.17072">
        <ele>70.6</ele>
        <time>2023-01-18T14:55:14Z</time>
      </trkpt>
      <trkpt lat="49.76502" lon="2.17071">
        <ele>70.6</ele>
        <time>2023-01-18T14:55:15Z</time>
      </trkpt>
      <trkpt lat="49.76501" lon="2.17071">
        <ele>70.6</ele>
        <time>2023-01-18T14:55:16Z</time>
      </trkpt>
      <trkpt lat="49.76501" lon="2.17071">
        <ele>70.6</ele>
        <time>2023-01-18T14:55:17Z</time>
      </trkpt>
      <trkpt lat="49.765" lon="2.1707">
        <ele>70.6</ele>
        <time>2023-01-18T14:55:18Z</time>
      </trkpt>
      <trkpt lat="49.76498" lon="2.17069">
        <ele>70.6</ele>
        <time>2023-01-18T14:55:19Z</time>
      </trkpt>
      <trkpt lat="49.76497" lon="2.17069">
        <ele>70.6</ele>
        <time>2023-01-18T14:55:20Z</time>
      </trkpt>
      <trkpt lat="49.76496" lon="2.17068">
        <ele>70.6</ele>
        <time>2023-01-18T14:55:22Z</time>
      </trkpt>
      <trkpt lat="49.76496" lon="2.17068">
        <ele>70.6</ele>
        <time>2023-01-18T14:55:23Z</time>
      </trkpt>
      <trkpt lat="49.76495" lon="2.17068">
        <ele>70.6</ele>
        <time>2023-01-18T14:55:24Z</time>
      </trkpt>
      <trkpt lat="49.76494" lon="2.17067">
        <ele>70.6</ele>
        <time>2023-01-18T14:55:25Z</time>
      </trkpt>
      <trkpt lat="49.76493" lon="2.17067">
        <ele>70.6</ele>
        <time>2023-01-18T14:55:26Z</time>
      </trkpt>
      <trkpt lat="49.76492" lon="2.17066">
        <ele>70.7</ele>
        <time>2023-01-18T14:55:27Z</time>
      </trkpt>
      <trkpt lat="49.76491" lon="2.17065">
        <ele>70.7</ele>
        <time>2023-01-18T14:55:28Z</time>
      </trkpt>
      <trkpt lat="49.7649" lon="2.17065">
        <ele>70.7</ele>
        <time>2023-01-18T14:55:30Z</time>
      </trkpt>
      <trkpt lat="49.76489" lon="2.17064">
        <ele>70.7</ele>
        <time>2023-01-18T14:55:31Z</time>
      </trkpt>
      <trkpt lat="49.76488" lon="2.17063">
        <ele>70.7</ele>
        <time>2023-01-18T14:55:32Z</time>
      </trkpt>
      <trkpt lat="49.76487" lon="2.17063">
        <ele>70.7</ele>
        <time>2023-01-18T14:55:33Z</time>
      </trkpt>
      <trkpt lat="49.76485" lon="2.17061">
        <ele>70.7</ele>
        <time>2023-01-18T14:55:34Z</time>
      </trkpt>
      <trkpt lat="49.76484" lon="2.17061">
        <ele>70.7</ele>
        <time>2023-01-18T14:55:35Z</time>
      </trkpt>
      <trkpt lat="49.76483" lon="2.17061">
        <ele>70.7</ele>
        <time>2023-01-18T14:55:36Z</time>
      </trkpt>
      <trkpt lat="49.76482" lon="2.1706">
        <ele>70.7</ele>
        <time>2023-01-18T14:55:38Z</time>
      </trkpt>
      <trkpt lat="49.7648" lon="2.17059">
        <ele>70.7</ele>
        <time>2023-01-18T14:55:39Z</time>
      </trkpt>
      <trkpt lat="49.7648" lon="2.17058">
        <ele>70.7</ele>
        <time>2023-01-18T14:55:40Z</time>
      </trkpt>
      <trkpt lat="49.76479" lon="2.17057">
        <ele>70.7</ele>
        <time>2023-01-18T14:55:41Z</time>
      </trkpt>
      <trkpt lat="49.76478" lon="2.17056">
        <ele>70.7</ele>
        <time>2023-01-18T14:55:42Z</time>
      </trkpt>
      <trkpt lat="49.76477" lon="2.17056">
        <ele>70.7</ele>
        <time>2023-01-18T14:55:43Z</time>
      </trkpt>
      <trkpt lat="49.76475" lon="2.17055">
        <ele>70.7</ele>
        <time>2023-01-18T14:55:45Z</time>
      </trkpt>
      <trkpt lat="49.76474" lon="2.17054">
        <ele>70.7</ele>
        <time>2023-01-18T14:55:46Z</time>
      </trkpt>
      <trkpt lat="49.76473" lon="2.17054">
        <ele>70.7</ele>
        <time>2023-01-18T14:55:47Z</time>
      </trkpt>
      <trkpt lat="49.76472" lon="2.17054">
        <ele>70.8</ele>
        <time>2023-01-18T14:55:48Z</time>
      </trkpt>
      <trkpt lat="49.76471" lon="2.17053">
        <ele>70.8</ele>
        <time>2023-01-18T14:55:49Z</time>
      </trkpt>
      <trkpt lat="49.7647" lon="2.17053">
        <ele>70.8</ele>
        <time>2023-01-18T14:55:50Z</time>
      </trkpt>
      <trkpt lat="49.76469" lon="2.17053">
        <ele>70.8</ele>
        <time>2023-01-18T14:55:51Z</time>
      </trkpt>
      <trkpt lat="49.76468" lon="2.17052">
        <ele>70.8</ele>
        <time>2023-01-18T14:55:52Z</time>
      </trkpt>
      <trkpt lat="49.76467" lon="2.17052">
        <ele>70.8</ele>
        <time>2023-01-18T14:55:54Z</time>
      </trkpt>
      <trkpt lat="49.76465" lon="2.17051">
        <ele>70.8</ele>
        <time>2023-01-18T14:55:55Z</time>
      </trkpt>
      <trkpt lat="49.76464" lon="2.17051">
        <ele>70.8</ele>
        <time>2023-01-18T14:55:56Z</time>
      </trkpt>
      <trkpt lat="49.76463" lon="2.1705">
        <ele>70.8</ele>
        <time>2023-01-18T14:55:57Z</time>
      </trkpt>
      <trkpt lat="49.76462" lon="2.1705">
        <ele>70.9</ele>
        <time>2023-01-18T14:55:58Z</time>
      </trkpt>
      <trkpt lat="49.76461" lon="2.17049">
        <ele>70.9</ele>
        <time>2023-01-18T14:55:59Z</time>
      </trkpt>
      <trkpt lat="49.76459" lon="2.17048">
        <ele>70.9</ele>
        <time>2023-01-18T14:56:01Z</time>
      </trkpt>
      <trkpt lat="49.76458" lon="2.17048">
        <ele>70.9</ele>
        <time>2023-01-18T14:56:02Z</time>
      </trkpt>
      <trkpt lat="49.76457" lon="2.17047">
        <ele>70.9</ele>
        <time>2023-01-18T14:56:03Z</time>
      </trkpt>
      <trkpt lat="49.76455" lon="2.17046">
        <ele>71</ele>
        <time>2023-01-18T14:56:04Z</time>
      </trkpt>
      <trkpt lat="49.76454" lon="2.17046">
        <ele>71</ele>
        <time>2023-01-18T14:56:05Z</time>
      </trkpt>
      <trkpt lat="49.76453" lon="2.17046">
        <ele>71</ele>
        <time>2023-01-18T14:56:06Z</time>
      </trkpt>
      <trkpt lat="49.76451" lon="2.17045">
        <ele>71</ele>
        <time>2023-01-18T14:56:07Z</time>
      </trkpt>
      <trkpt lat="49.7645" lon="2.17045">
        <ele>71</ele>
        <time>2023-01-18T14:56:09Z</time>
      </trkpt>
      <trkpt lat="49.7645" lon="2.17044">
        <ele>71.1</ele>
        <time>2023-01-18T14:56:10Z</time>
      </trkpt>
      <trkpt lat="49.76448" lon="2.17043">
        <ele>71.1</ele>
        <time>2023-01-18T14:56:11Z</time>
      </trkpt>
      <trkpt lat="49.76447" lon="2.17043">
        <ele>71.1</ele>
        <time>2023-01-18T14:56:12Z</time>
      </trkpt>
      <trkpt lat="49.76446" lon="2.17043">
        <ele>71.1</ele>
        <time>2023-01-18T14:56:13Z</time>
      </trkpt>
      <trkpt lat="49.76445" lon="2.17043">
        <ele>71.1</ele>
        <time>2023-01-18T14:56:14Z</time>
      </trkpt>
      <trkpt lat="49.76444" lon="2.17042">
        <ele>71.1</ele>
        <time>2023-01-18T14:56:15Z</time>
      </trkpt>
      <trkpt lat="49.76443" lon="2.17042">
        <ele>71.2</ele>
        <time>2023-01-18T14:56:17Z</time>
      </trkpt>
      <trkpt lat="49.76442" lon="2.17042">
        <ele>71.2</ele>
        <time>2023-01-18T14:56:18Z</time>
      </trkpt>
      <trkpt lat="49.76441" lon="2.17042">
        <ele>71.2</ele>
        <time>2023-01-18T14:56:19Z</time>
      </trkpt>
      <trkpt lat="49.7644" lon="2.17042">
        <ele>71.2</ele>
        <time>2023-01-18T14:56:20Z</time>
      </trkpt>
      <trkpt lat="49.76439" lon="2.17041">
        <ele>71.2</ele>
        <time>2023-01-18T14:56:21Z</time>
      </trkpt>
      <trkpt lat="49.76438" lon="2.17041">
        <ele>71.2</ele>
        <time>2023-01-18T14:56:22Z</time>
      </trkpt>
      <trkpt lat="49.76437" lon="2.1704">
        <ele>71.3</ele>
        <time>2023-01-18T14:56:23Z</time>
      </trkpt>
      <trkpt lat="49.76436" lon="2.17039">
        <ele>71.3</ele>
        <time>2023-01-18T14:56:24Z</time>
      </trkpt>
      <trkpt lat="49.76435" lon="2.17039">
        <ele>71.3</ele>
        <time>2023-01-18T14:56:25Z</time>
      </trkpt>
      <trkpt lat="49.76433" lon="2.17038">
        <ele>71.3</ele>
        <time>2023-01-18T14:56:26Z</time>
      </trkpt>
      <trkpt lat="49.76432" lon="2.17038">
        <ele>71.3</ele>
        <time>2023-01-18T14:56:28Z</time>
      </trkpt>
      <trkpt lat="49.76431" lon="2.17038">
        <ele>71.3</ele>
        <time>2023-01-18T14:56:29Z</time>
      </trkpt>
      <trkpt lat="49.7643" lon="2.17038">
        <ele>71.3</ele>
        <time>2023-01-18T14:56:30Z</time>
      </trkpt>
      <trkpt lat="49.76429" lon="2.17037">
        <ele>71.3</ele>
        <time>2023-01-18T14:56:31Z</time>
      </trkpt>
      <trkpt lat="49.76428" lon="2.17037">
        <ele>71.4</ele>
        <time>2023-01-18T14:56:32Z</time>
      </trkpt>
      <trkpt lat="49.76427" lon="2.17036">
        <ele>71.4</ele>
        <time>2023-01-18T14:56:34Z</time>
      </trkpt>
      <trkpt lat="49.76427" lon="2.17035">
        <ele>71.4</ele>
        <time>2023-01-18T14:56:35Z</time>
      </trkpt>
      <trkpt lat="49.76426" lon="2.17034">
        <ele>71.4</ele>
        <time>2023-01-18T14:56:36Z</time>
      </trkpt>
      <trkpt lat="49.76425" lon="2.17034">
        <ele>71.4</ele>
        <time>2023-01-18T14:56:37Z</time>
      </trkpt>
      <trkpt lat="49.76424" lon="2.17033">
        <ele>71.4</ele>
        <time>2023-01-18T14:56:38Z</time>
      </trkpt>
      <trkpt lat="49.76424" lon="2.17032">
        <ele>71.4</ele>
        <time>2023-01-18T14:56:39Z</time>
      </trkpt>
      <trkpt lat="49.76423" lon="2.17032">
        <ele>71.4</ele>
        <time>2023-01-18T14:56:40Z</time>
      </trkpt>
      <trkpt lat="49.76422" lon="2.17031">
        <ele>71.4</ele>
        <time>2023-01-18T14:56:42Z</time>
      </trkpt>
      <trkpt lat="49.76421" lon="2.17031">
        <ele>71.4</ele>
        <time>2023-01-18T14:56:43Z</time>
      </trkpt>
      <trkpt lat="49.7642" lon="2.17031">
        <ele>71.5</ele>
        <time>2023-01-18T14:56:44Z</time>
      </trkpt>
      <trkpt lat="49.76419" lon="2.17032">
        <ele>71.5</ele>
        <time>2023-01-18T14:56:45Z</time>
      </trkpt>
      <trkpt lat="49.76418" lon="2.17032">
        <ele>71.5</ele>
        <time>2023-01-18T14:56:46Z</time>
      </trkpt>
      <trkpt lat="49.76417" lon="2.17032">
        <ele>71.5</ele>
        <time>2023-01-18T14:56:47Z</time>
      </trkpt>
      <trkpt lat="49.76416" lon="2.17032">
        <ele>71.5</ele>
        <time>2023-01-18T14:56:48Z</time>
      </trkpt>
      <trkpt lat="49.76415" lon="2.17032">
        <ele>71.5</ele>
        <time>2023-01-18T14:56:50Z</time>
      </trkpt>
      <trkpt lat="49.76414" lon="2.17032">
        <ele>71.5</ele>
        <time>2023-01-18T14:56:51Z</time>
      </trkpt>
      <trkpt lat="49.76413" lon="2.17033">
        <ele>71.5</ele>
        <time>2023-01-18T14:56:52Z</time>
      </trkpt>
      <trkpt lat="49.76412" lon="2.17033">
        <ele>71.5</ele>
        <time>2023-01-18T14:56:53Z</time>
      </trkpt>
      <trkpt lat="49.7641" lon="2.17033">
        <ele>71.6</ele>
        <time>2023-01-18T14:56:54Z</time>
      </trkpt>
      <trkpt lat="49.76409" lon="2.17033">
        <ele>71.6</ele>
        <time>2023-01-18T14:56:55Z</time>
      </trkpt>
      <trkpt lat="49.76408" lon="2.17033">
        <ele>71.6</ele>
        <time>2023-01-18T14:56:56Z</time>
      </trkpt>
      <trkpt lat="49.76407" lon="2.17032">
        <ele>71.6</ele>
        <time>2023-01-18T14:56:58Z</time>
      </trkpt>
      <trkpt lat="49.76406" lon="2.17032">
        <ele>71.6</ele>
        <time>2023-01-18T14:56:59Z</time>
      </trkpt>
      <trkpt lat="49.76405" lon="2.17032">
        <ele>71.6</ele>
        <time>2023-01-18T14:57:00Z</time>
      </trkpt>
      <trkpt lat="49.76404" lon="2.17032">
        <ele>71.6</ele>
        <time>2023-01-18T14:57:01Z</time>
      </trkpt>
      <trkpt lat="49.76403" lon="2.17033">
        <ele>71.6</ele>
        <time>2023-01-18T14:57:02Z</time>
      </trkpt>
      <trkpt lat="49.76402" lon="2.17033">
        <ele>71.6</ele>
        <time>2023-01-18T14:57:03Z</time>
      </trkpt>
      <trkpt lat="49.764" lon="2.17033">
        <ele>71.6</ele>
        <time>2023-01-18T14:57:04Z</time>
      </trkpt>
      <trkpt lat="49.76399" lon="2.17033">
        <ele>71.6</ele>
        <time>2023-01-18T14:57:05Z</time>
      </trkpt>
      <trkpt lat="49.76398" lon="2.17033">
        <ele>71.6</ele>
        <time>2023-01-18T14:57:06Z</time>
      </trkpt>
      <trkpt lat="49.76397" lon="2.17033">
        <ele>71.6</ele>
        <time>2023-01-18T14:57:08Z</time>
      </trkpt>
      <trkpt lat="49.76396" lon="2.17033">
        <ele>71.7</ele>
        <time>2023-01-18T14:57:09Z</time>
      </trkpt>
      <trkpt lat="49.76393" lon="2.17032">
        <ele>71.7</ele>
        <time>2023-01-18T14:57:10Z</time>
      </trkpt>
      <trkpt lat="49.76393" lon="2.17032">
        <ele>71.7</ele>
        <time>2023-01-18T14:57:11Z</time>
      </trkpt>
      <trkpt lat="49.76392" lon="2.17031">
        <ele>71.7</ele>
        <time>2023-01-18T14:57:12Z</time>
      </trkpt>
      <trkpt lat="49.7639" lon="2.17031">
        <ele>71.7</ele>
        <time>2023-01-18T14:57:13Z</time>
      </trkpt>
      <trkpt lat="49.76389" lon="2.1703">
        <ele>71.7</ele>
        <time>2023-01-18T14:57:14Z</time>
      </trkpt>
      <trkpt lat="49.76388" lon="2.17029">
        <ele>71.7</ele>
        <time>2023-01-18T14:57:15Z</time>
      </trkpt>
      <trkpt lat="49.76387" lon="2.17029">
        <ele>71.7</ele>
        <time>2023-01-18T14:57:16Z</time>
      </trkpt>
      <trkpt lat="49.76385" lon="2.17028">
        <ele>71.7</ele>
        <time>2023-01-18T14:57:18Z</time>
      </trkpt>
      <trkpt lat="49.76384" lon="2.17028">
        <ele>71.7</ele>
        <time>2023-01-18T14:57:19Z</time>
      </trkpt>
      <trkpt lat="49.76383" lon="2.17027">
        <ele>71.7</ele>
        <time>2023-01-18T14:57:20Z</time>
      </trkpt>
      <trkpt lat="49.76382" lon="2.17027">
        <ele>71.7</ele>
        <time>2023-01-18T14:57:21Z</time>
      </trkpt>
      <trkpt lat="49.76381" lon="2.17026">
        <ele>71.7</ele>
        <time>2023-01-18T14:57:22Z</time>
      </trkpt>
      <trkpt lat="49.7638" lon="2.17026">
        <ele>71.7</ele>
        <time>2023-01-18T14:57:23Z</time>
      </trkpt>
      <trkpt lat="49.76379" lon="2.17026">
        <ele>71.8</ele>
        <time>2023-01-18T14:57:24Z</time>
      </trkpt>
      <trkpt lat="49.76376" lon="2.17025">
        <ele>71.8</ele>
        <time>2023-01-18T14:57:25Z</time>
      </trkpt>
      <trkpt lat="49.76376" lon="2.17025">
        <ele>71.8</ele>
        <time>2023-01-18T14:57:26Z</time>
      </trkpt>
      <trkpt lat="49.76375" lon="2.17024">
        <ele>71.8</ele>
        <time>2023-01-18T14:57:27Z</time>
      </trkpt>
      <trkpt lat="49.76374" lon="2.17024">
        <ele>71.8</ele>
        <time>2023-01-18T14:57:29Z</time>
      </trkpt>
      <trkpt lat="49.76372" lon="2.17024">
        <ele>71.8</ele>
        <time>2023-01-18T14:57:30Z</time>
      </trkpt>
      <trkpt lat="49.76372" lon="2.17023">
        <ele>71.8</ele>
        <time>2023-01-18T14:57:31Z</time>
      </trkpt>
      <trkpt lat="49.7637" lon="2.17023">
        <ele>71.8</ele>
        <time>2023-01-18T14:57:33Z</time>
      </trkpt>
      <trkpt lat="49.76369" lon="2.17023">
        <ele>71.8</ele>
        <time>2023-01-18T14:57:34Z</time>
      </trkpt>
      <trkpt lat="49.76368" lon="2.17022">
        <ele>71.8</ele>
        <time>2023-01-18T14:57:35Z</time>
      </trkpt>
      <trkpt lat="49.76367" lon="2.17022">
        <ele>71.8</ele>
        <time>2023-01-18T14:57:36Z</time>
      </trkpt>
      <trkpt lat="49.76366" lon="2.17022">
        <ele>71.8</ele>
        <time>2023-01-18T14:57:37Z</time>
      </trkpt>
      <trkpt lat="49.76365" lon="2.17022">
        <ele>71.8</ele>
        <time>2023-01-18T14:57:38Z</time>
      </trkpt>
      <trkpt lat="49.76364" lon="2.17022">
        <ele>71.8</ele>
        <time>2023-01-18T14:57:39Z</time>
      </trkpt>
      <trkpt lat="49.76363" lon="2.17021">
        <ele>71.9</ele>
        <time>2023-01-18T14:57:40Z</time>
      </trkpt>
      <trkpt lat="49.76362" lon="2.17021">
        <ele>71.9</ele>
        <time>2023-01-18T14:57:42Z</time>
      </trkpt>
      <trkpt lat="49.76361" lon="2.17021">
        <ele>71.9</ele>
        <time>2023-01-18T14:57:43Z</time>
      </trkpt>
      <trkpt lat="49.7636" lon="2.17021">
        <ele>71.9</ele>
        <time>2023-01-18T14:57:44Z</time>
      </trkpt>
      <trkpt lat="49.76359" lon="2.1702">
        <ele>71.9</ele>
        <time>2023-01-18T14:57:45Z</time>
      </trkpt>
      <trkpt lat="49.76358" lon="2.1702">
        <ele>71.9</ele>
        <time>2023-01-18T14:57:46Z</time>
      </trkpt>
      <trkpt lat="49.76357" lon="2.1702">
        <ele>71.9</ele>
        <time>2023-01-18T14:57:47Z</time>
      </trkpt>
      <trkpt lat="49.76356" lon="2.17019">
        <ele>71.9</ele>
        <time>2023-01-18T14:57:48Z</time>
      </trkpt>
      <trkpt lat="49.76354" lon="2.17019">
        <ele>71.9</ele>
        <time>2023-01-18T14:57:49Z</time>
      </trkpt>
      <trkpt lat="49.76353" lon="2.17019">
        <ele>71.9</ele>
        <time>2023-01-18T14:57:51Z</time>
      </trkpt>
      <trkpt lat="49.76353" lon="2.17019">
        <ele>71.9</ele>
        <time>2023-01-18T14:57:52Z</time>
      </trkpt>
      <trkpt lat="49.76352" lon="2.17019">
        <ele>71.9</ele>
        <time>2023-01-18T14:57:53Z</time>
      </trkpt>
      <trkpt lat="49.76351" lon="2.17019">
        <ele>71.9</ele>
        <time>2023-01-18T14:57:54Z</time>
      </trkpt>
      <trkpt lat="49.7635" lon="2.1702">
        <ele>71.9</ele>
        <time>2023-01-18T14:57:55Z</time>
      </trkpt>
      <trkpt lat="49.76349" lon="2.17021">
        <ele>71.9</ele>
        <time>2023-01-18T14:57:56Z</time>
      </trkpt>
      <trkpt lat="49.76348" lon="2.17022">
        <ele>71.9</ele>
        <time>2023-01-18T14:57:58Z</time>
      </trkpt>
      <trkpt lat="49.76347" lon="2.17022">
        <ele>71.9</ele>
        <time>2023-01-18T14:57:59Z</time>
      </trkpt>
      <trkpt lat="49.76346" lon="2.17022">
        <ele>71.9</ele>
        <time>2023-01-18T14:58:00Z</time>
      </trkpt>
      <trkpt lat="49.76345" lon="2.17022">
        <ele>71.9</ele>
        <time>2023-01-18T14:58:01Z</time>
      </trkpt>
      <trkpt lat="49.76344" lon="2.17022">
        <ele>71.9</ele>
        <time>2023-01-18T14:58:02Z</time>
      </trkpt>
      <trkpt lat="49.76344" lon="2.17022">
        <ele>71.9</ele>
        <time>2023-01-18T14:58:03Z</time>
      </trkpt>
      <trkpt lat="49.76343" lon="2.17022">
        <ele>71.9</ele>
        <time>2023-01-18T14:58:05Z</time>
      </trkpt>
      <trkpt lat="49.76342" lon="2.17021">
        <ele>71.9</ele>
        <time>2023-01-18T14:58:06Z</time>
      </trkpt>
      <trkpt lat="49.76341" lon="2.17021">
        <ele>71.9</ele>
        <time>2023-01-18T14:58:07Z</time>
      </trkpt>
      <trkpt lat="49.76341" lon="2.1702">
        <ele>71.9</ele>
        <time>2023-01-18T14:58:08Z</time>
      </trkpt>
      <trkpt lat="49.7634" lon="2.1702">
        <ele>71.9</ele>
        <time>2023-01-18T14:58:09Z</time>
      </trkpt>
      <trkpt lat="49.76338" lon="2.17019">
        <ele>72</ele>
        <time>2023-01-18T14:58:11Z</time>
      </trkpt>
      <trkpt lat="49.76337" lon="2.17019">
        <ele>72</ele>
        <time>2023-01-18T14:58:12Z</time>
      </trkpt>
      <trkpt lat="49.76337" lon="2.17019">
        <ele>72</ele>
        <time>2023-01-18T14:58:13Z</time>
      </trkpt>
      <trkpt lat="49.76336" lon="2.17018">
        <ele>72</ele>
        <time>2023-01-18T14:58:14Z</time>
      </trkpt>
      <trkpt lat="49.76335" lon="2.17018">
        <ele>72</ele>
        <time>2023-01-18T14:58:15Z</time>
      </trkpt>
      <trkpt lat="49.76333" lon="2.17018">
        <ele>72</ele>
        <time>2023-01-18T14:58:16Z</time>
      </trkpt>
      <trkpt lat="49.76332" lon="2.17018">
        <ele>72</ele>
        <time>2023-01-18T14:58:18Z</time>
      </trkpt>
      <trkpt lat="49.76331" lon="2.17017">
        <ele>72</ele>
        <time>2023-01-18T14:58:19Z</time>
      </trkpt>
      <trkpt lat="49.7633" lon="2.17017">
        <ele>72</ele>
        <time>2023-01-18T14:58:20Z</time>
      </trkpt>
      <trkpt lat="49.76329" lon="2.17017">
        <ele>72</ele>
        <time>2023-01-18T14:58:21Z</time>
      </trkpt>
      <trkpt lat="49.76328" lon="2.17017">
        <ele>72</ele>
        <time>2023-01-18T14:58:22Z</time>
      </trkpt>
      <trkpt lat="49.76327" lon="2.17017">
        <ele>72</ele>
        <time>2023-01-18T14:58:23Z</time>
      </trkpt>
      <trkpt lat="49.76325" lon="2.17017">
        <ele>72.1</ele>
        <time>2023-01-18T14:58:25Z</time>
      </trkpt>
      <trkpt lat="49.76323" lon="2.17016">
        <ele>72.1</ele>
        <time>2023-01-18T14:58:26Z</time>
      </trkpt>
      <trkpt lat="49.76322" lon="2.17016">
        <ele>72.1</ele>
        <time>2023-01-18T14:58:28Z</time>
      </trkpt>
      <trkpt lat="49.76321" lon="2.17016">
        <ele>72.1</ele>
        <time>2023-01-18T14:58:29Z</time>
      </trkpt>
      <trkpt lat="49.7632" lon="2.17016">
        <ele>72.1</ele>
        <time>2023-01-18T14:58:30Z</time>
      </trkpt>
      <trkpt lat="49.76319" lon="2.17015">
        <ele>72.1</ele>
        <time>2023-01-18T14:58:31Z</time>
      </trkpt>
      <trkpt lat="49.76318" lon="2.17015">
        <ele>72.1</ele>
        <time>2023-01-18T14:58:32Z</time>
      </trkpt>
      <trkpt lat="49.76317" lon="2.17015">
        <ele>72.1</ele>
        <time>2023-01-18T14:58:33Z</time>
      </trkpt>
      <trkpt lat="49.76316" lon="2.17014">
        <ele>72.1</ele>
        <time>2023-01-18T14:58:35Z</time>
      </trkpt>
      <trkpt lat="49.76315" lon="2.17014">
        <ele>72.1</ele>
        <time>2023-01-18T14:58:36Z</time>
      </trkpt>
      <trkpt lat="49.76314" lon="2.17014">
        <ele>72.2</ele>
        <time>2023-01-18T14:58:37Z</time>
      </trkpt>
      <trkpt lat="49.76313" lon="2.17013">
        <ele>72.2</ele>
        <time>2023-01-18T14:58:38Z</time>
      </trkpt>
      <trkpt lat="49.76312" lon="2.17013">
        <ele>72.2</ele>
        <time>2023-01-18T14:58:39Z</time>
      </trkpt>
      <trkpt lat="49.7631" lon="2.17013">
        <ele>72.2</ele>
        <time>2023-01-18T14:58:40Z</time>
      </trkpt>
      <trkpt lat="49.76309" lon="2.17013">
        <ele>72.2</ele>
        <time>2023-01-18T14:58:41Z</time>
      </trkpt>
      <trkpt lat="49.76309" lon="2.17013">
        <ele>72.2</ele>
        <time>2023-01-18T14:58:42Z</time>
      </trkpt>
      <trkpt lat="49.76307" lon="2.17012">
        <ele>72.2</ele>
        <time>2023-01-18T14:58:43Z</time>
      </trkpt>
      <trkpt lat="49.76306" lon="2.17012">
        <ele>72.2</ele>
        <time>2023-01-18T14:58:45Z</time>
      </trkpt>
      <trkpt lat="49.76305" lon="2.17012">
        <ele>72.3</ele>
        <time>2023-01-18T14:58:46Z</time>
      </trkpt>
      <trkpt lat="49.76304" lon="2.17011">
        <ele>72.3</ele>
        <time>2023-01-18T14:58:47Z</time>
      </trkpt>
      <trkpt lat="49.76303" lon="2.17011">
        <ele>72.3</ele>
        <time>2023-01-18T14:58:48Z</time>
      </trkpt>
      <trkpt lat="49.76302" lon="2.1701">
        <ele>72.3</ele>
        <time>2023-01-18T14:58:49Z</time>
      </trkpt>
      <trkpt lat="49.76301" lon="2.1701">
        <ele>72.3</ele>
        <time>2023-01-18T14:58:50Z</time>
      </trkpt>
      <trkpt lat="49.763" lon="2.1701">
        <ele>72.3</ele>
        <time>2023-01-18T14:58:52Z</time>
      </trkpt>
      <trkpt lat="49.76299" lon="2.17009">
        <ele>72.3</ele>
        <time>2023-01-18T14:58:53Z</time>
      </trkpt>
      <trkpt lat="49.76298" lon="2.17008">
        <ele>72.3</ele>
        <time>2023-01-18T14:58:54Z</time>
      </trkpt>
      <trkpt lat="49.76297" lon="2.17007">
        <ele>72.3</ele>
        <time>2023-01-18T14:58:55Z</time>
      </trkpt>
      <trkpt lat="49.76297" lon="2.17006">
        <ele>72.4</ele>
        <time>2023-01-18T14:58:56Z</time>
      </trkpt>
      <trkpt lat="49.76296" lon="2.17006">
        <ele>72.4</ele>
        <time>2023-01-18T14:58:57Z</time>
      </trkpt>
      <trkpt lat="49.76294" lon="2.17005">
        <ele>72.4</ele>
        <time>2023-01-18T14:58:59Z</time>
      </trkpt>
      <trkpt lat="49.76293" lon="2.17005">
        <ele>72.4</ele>
        <time>2023-01-18T14:59:00Z</time>
      </trkpt>
      <trkpt lat="49.76292" lon="2.17005">
        <ele>72.4</ele>
        <time>2023-01-18T14:59:01Z</time>
      </trkpt>
      <trkpt lat="49.76291" lon="2.17004">
        <ele>72.4</ele>
        <time>2023-01-18T14:59:02Z</time>
      </trkpt>
      <trkpt lat="49.76289" lon="2.17004">
        <ele>72.4</ele>
        <time>2023-01-18T14:59:04Z</time>
      </trkpt>
      <trkpt lat="49.76288" lon="2.17004">
        <ele>72.4</ele>
        <time>2023-01-18T14:59:05Z</time>
      </trkpt>
      <trkpt lat="49.76287" lon="2.17004">
        <ele>72.5</ele>
        <time>2023-01-18T14:59:06Z</time>
      </trkpt>
      <trkpt lat="49.76286" lon="2.17004">
        <ele>72.5</ele>
        <time>2023-01-18T14:59:07Z</time>
      </trkpt>
      <trkpt lat="49.76284" lon="2.17004">
        <ele>72.5</ele>
        <time>2023-01-18T14:59:08Z</time>
      </trkpt>
      <trkpt lat="49.76283" lon="2.17004">
        <ele>72.5</ele>
        <time>2023-01-18T14:59:09Z</time>
      </trkpt>
      <trkpt lat="49.76282" lon="2.17004">
        <ele>72.5</ele>
        <time>2023-01-18T14:59:10Z</time>
      </trkpt>
      <trkpt lat="49.7628" lon="2.17004">
        <ele>72.5</ele>
        <time>2023-01-18T14:59:11Z</time>
      </trkpt>
      <trkpt lat="49.76279" lon="2.17004">
        <ele>72.5</ele>
        <time>2023-01-18T14:59:13Z</time>
      </trkpt>
      <trkpt lat="49.76279" lon="2.17004">
        <ele>72.5</ele>
        <time>2023-01-18T14:59:14Z</time>
      </trkpt>
      <trkpt lat="49.76277" lon="2.17004">
        <ele>72.6</ele>
        <time>2023-01-18T14:59:15Z</time>
      </trkpt>
      <trkpt lat="49.76276" lon="2.17003">
        <ele>72.6</ele>
        <time>2023-01-18T14:59:16Z</time>
      </trkpt>
      <trkpt lat="49.76275" lon="2.17003">
        <ele>72.6</ele>
        <time>2023-01-18T14:59:17Z</time>
      </trkpt>
      <trkpt lat="49.76274" lon="2.17003">
        <ele>72.6</ele>
        <time>2023-01-18T14:59:18Z</time>
      </trkpt>
      <trkpt lat="49.76272" lon="2.17002">
        <ele>72.6</ele>
        <time>2023-01-18T14:59:20Z</time>
      </trkpt>
      <trkpt lat="49.76271" lon="2.17002">
        <ele>72.6</ele>
        <time>2023-01-18T14:59:21Z</time>
      </trkpt>
      <trkpt lat="49.7627" lon="2.17002">
        <ele>72.6</ele>
        <time>2023-01-18T14:59:23Z</time>
      </trkpt>
      <trkpt lat="49.76269" lon="2.17002">
        <ele>72.7</ele>
        <time>2023-01-18T14:59:24Z</time>
      </trkpt>
      <trkpt lat="49.76268" lon="2.17002">
        <ele>72.7</ele>
        <time>2023-01-18T14:59:25Z</time>
      </trkpt>
      <trkpt lat="49.76267" lon="2.17001">
        <ele>72.7</ele>
        <time>2023-01-18T14:59:26Z</time>
      </trkpt>
      <trkpt lat="49.76266" lon="2.17001">
        <ele>72.7</ele>
        <time>2023-01-18T14:59:27Z</time>
      </trkpt>
      <trkpt lat="49.76265" lon="2.17001">
        <ele>72.7</ele>
        <time>2023-01-18T14:59:28Z</time>
      </trkpt>
      <trkpt lat="49.76264" lon="2.17">
        <ele>72.7</ele>
        <time>2023-01-18T14:59:29Z</time>
      </trkpt>
      <trkpt lat="49.76263" lon="2.17">
        <ele>72.7</ele>
        <time>2023-01-18T14:59:31Z</time>
      </trkpt>
      <trkpt lat="49.76261" lon="2.17">
        <ele>72.7</ele>
        <time>2023-01-18T14:59:32Z</time>
      </trkpt>
      <trkpt lat="49.7626" lon="2.17">
        <ele>72.7</ele>
        <time>2023-01-18T14:59:33Z</time>
      </trkpt>
      <trkpt lat="49.76259" lon="2.16999">
        <ele>72.8</ele>
        <time>2023-01-18T14:59:34Z</time>
      </trkpt>
      <trkpt lat="49.76258" lon="2.16999">
        <ele>72.8</ele>
        <time>2023-01-18T14:59:35Z</time>
      </trkpt>
      <trkpt lat="49.76257" lon="2.16999">
        <ele>72.8</ele>
        <time>2023-01-18T14:59:36Z</time>
      </trkpt>
      <trkpt lat="49.76256" lon="2.16999">
        <ele>72.8</ele>
        <time>2023-01-18T14:59:38Z</time>
      </trkpt>
      <trkpt lat="49.76255" lon="2.16998">
        <ele>72.8</ele>
        <time>2023-01-18T14:59:39Z</time>
      </trkpt>
      <trkpt lat="49.76254" lon="2.16998">
        <ele>72.8</ele>
        <time>2023-01-18T14:59:40Z</time>
      </trkpt>
      <trkpt lat="49.76253" lon="2.16998">
        <ele>72.8</ele>
        <time>2023-01-18T14:59:41Z</time>
      </trkpt>
      <trkpt lat="49.76252" lon="2.16998">
        <ele>72.9</ele>
        <time>2023-01-18T14:59:42Z</time>
      </trkpt>
      <trkpt lat="49.76251" lon="2.16997">
        <ele>72.9</ele>
        <time>2023-01-18T14:59:43Z</time>
      </trkpt>
      <trkpt lat="49.7625" lon="2.16997">
        <ele>72.9</ele>
        <time>2023-01-18T14:59:44Z</time>
      </trkpt>
      <trkpt lat="49.76249" lon="2.16996">
        <ele>72.9</ele>
        <time>2023-01-18T14:59:45Z</time>
      </trkpt>
      <trkpt lat="49.76248" lon="2.16996">
        <ele>72.9</ele>
        <time>2023-01-18T14:59:47Z</time>
      </trkpt>
      <trkpt lat="49.76247" lon="2.16995">
        <ele>73</ele>
        <time>2023-01-18T14:59:48Z</time>
      </trkpt>
      <trkpt lat="49.76246" lon="2.16995">
        <ele>73</ele>
        <time>2023-01-18T14:59:49Z</time>
      </trkpt>
      <trkpt lat="49.76245" lon="2.16994">
        <ele>73</ele>
        <time>2023-01-18T14:59:50Z</time>
      </trkpt>
      <trkpt lat="49.76244" lon="2.16994">
        <ele>73</ele>
        <time>2023-01-18T14:59:51Z</time>
      </trkpt>
      <trkpt lat="49.76243" lon="2.16993">
        <ele>73</ele>
        <time>2023-01-18T14:59:52Z</time>
      </trkpt>
      <trkpt lat="49.76242" lon="2.16993">
        <ele>73.1</ele>
        <time>2023-01-18T14:59:53Z</time>
      </trkpt>
      <trkpt lat="49.76241" lon="2.16993">
        <ele>73.1</ele>
        <time>2023-01-18T14:59:55Z</time>
      </trkpt>
      <trkpt lat="49.7624" lon="2.16993">
        <ele>73.1</ele>
        <time>2023-01-18T14:59:56Z</time>
      </trkpt>
      <trkpt lat="49.76239" lon="2.16993">
        <ele>73.1</ele>
        <time>2023-01-18T14:59:57Z</time>
      </trkpt>
      <trkpt lat="49.76238" lon="2.16993">
        <ele>73.1</ele>
        <time>2023-01-18T14:59:58Z</time>
      </trkpt>
      <trkpt lat="49.76237" lon="2.16993">
        <ele>73.1</ele>
        <time>2023-01-18T14:59:59Z</time>
      </trkpt>
      <trkpt lat="49.76235" lon="2.16992">
        <ele>73.2</ele>
        <time>2023-01-18T15:00:00Z</time>
      </trkpt>
      <trkpt lat="49.76234" lon="2.16992">
        <ele>73.2</ele>
        <time>2023-01-18T15:00:01Z</time>
      </trkpt>
      <trkpt lat="49.76233" lon="2.16991">
        <ele>73.2</ele>
        <time>2023-01-18T15:00:02Z</time>
      </trkpt>
      <trkpt lat="49.76232" lon="2.16991">
        <ele>73.2</ele>
        <time>2023-01-18T15:00:03Z</time>
      </trkpt>
      <trkpt lat="49.76231" lon="2.1699">
        <ele>73.2</ele>
        <time>2023-01-18T15:00:05Z</time>
      </trkpt>
      <trkpt lat="49.7623" lon="2.1699">
        <ele>73.3</ele>
        <time>2023-01-18T15:00:06Z</time>
      </trkpt>
      <trkpt lat="49.76229" lon="2.1699">
        <ele>73.3</ele>
        <time>2023-01-18T15:00:07Z</time>
      </trkpt>
      <trkpt lat="49.76228" lon="2.1699">
        <ele>73.3</ele>
        <time>2023-01-18T15:00:08Z</time>
      </trkpt>
      <trkpt lat="49.76226" lon="2.1699">
        <ele>73.3</ele>
        <time>2023-01-18T15:00:09Z</time>
      </trkpt>
      <trkpt lat="49.76225" lon="2.1699">
        <ele>73.4</ele>
        <time>2023-01-18T15:00:10Z</time>
      </trkpt>
      <trkpt lat="49.76225" lon="2.1699">
        <ele>73.4</ele>
        <time>2023-01-18T15:00:11Z</time>
      </trkpt>
      <trkpt lat="49.76223" lon="2.16989">
        <ele>73.4</ele>
        <time>2023-01-18T15:00:12Z</time>
      </trkpt>
      <trkpt lat="49.76222" lon="2.16989">
        <ele>73.4</ele>
        <time>2023-01-18T15:00:14Z</time>
      </trkpt>
      <trkpt lat="49.76221" lon="2.16989">
        <ele>73.4</ele>
        <time>2023-01-18T15:00:15Z</time>
      </trkpt>
      <trkpt lat="49.7622" lon="2.16989">
        <ele>73.5</ele>
        <time>2023-01-18T15:00:16Z</time>
      </trkpt>
      <trkpt lat="49.76219" lon="2.16989">
        <ele>73.5</ele>
        <time>2023-01-18T15:00:17Z</time>
      </trkpt>
      <trkpt lat="49.76218" lon="2.16989">
        <ele>73.5</ele>
        <time>2023-01-18T15:00:18Z</time>
      </trkpt>
      <trkpt lat="49.76217" lon="2.16988">
        <ele>73.5</ele>
        <time>2023-01-18T15:00:19Z</time>
      </trkpt>
      <trkpt lat="49.76216" lon="2.16988">
        <ele>73.5</ele>
        <time>2023-01-18T15:00:20Z</time>
      </trkpt>
      <trkpt lat="49.76214" lon="2.16987">
        <ele>73.6</ele>
        <time>2023-01-18T15:00:21Z</time>
      </trkpt>
      <trkpt lat="49.76213" lon="2.16987">
        <ele>73.6</ele>
        <time>2023-01-18T15:00:22Z</time>
      </trkpt>
      <trkpt lat="49.76212" lon="2.16987">
        <ele>73.6</ele>
        <time>2023-01-18T15:00:24Z</time>
      </trkpt>
      <trkpt lat="49.76211" lon="2.16986">
        <ele>73.6</ele>
        <time>2023-01-18T15:00:25Z</time>
      </trkpt>
      <trkpt lat="49.76211" lon="2.16986">
        <ele>73.6</ele>
        <time>2023-01-18T15:00:26Z</time>
      </trkpt>
      <trkpt lat="49.7621" lon="2.16985">
        <ele>73.6</ele>
        <time>2023-01-18T15:00:27Z</time>
      </trkpt>
      <trkpt lat="49.76209" lon="2.16985">
        <ele>73.7</ele>
        <time>2023-01-18T15:00:28Z</time>
      </trkpt>
      <trkpt lat="49.76207" lon="2.16985">
        <ele>73.7</ele>
        <time>2023-01-18T15:00:29Z</time>
      </trkpt>
      <trkpt lat="49.76207" lon="2.16985">
        <ele>73.7</ele>
        <time>2023-01-18T15:00:31Z</time>
      </trkpt>
      <trkpt lat="49.76206" lon="2.16985">
        <ele>73.7</ele>
        <time>2023-01-18T15:00:32Z</time>
      </trkpt>
      <trkpt lat="49.76206" lon="2.16985">
        <ele>73.7</ele>
        <time>2023-01-18T15:00:33Z</time>
      </trkpt>
      <trkpt lat="49.76204" lon="2.16985">
        <ele>73.7</ele>
        <time>2023-01-18T15:00:34Z</time>
      </trkpt>
      <trkpt lat="49.76203" lon="2.16985">
        <ele>73.7</ele>
        <time>2023-01-18T15:00:35Z</time>
      </trkpt>
      <trkpt lat="49.76202" lon="2.16985">
        <ele>73.8</ele>
        <time>2023-01-18T15:00:37Z</time>
      </trkpt>
      <trkpt lat="49.76201" lon="2.16985">
        <ele>73.8</ele>
        <time>2023-01-18T15:00:38Z</time>
      </trkpt>
      <trkpt lat="49.762" lon="2.16985">
        <ele>73.8</ele>
        <time>2023-01-18T15:00:40Z</time>
      </trkpt>
      <trkpt lat="49.76199" lon="2.16985">
        <ele>73.8</ele>
        <time>2023-01-18T15:00:41Z</time>
      </trkpt>
      <trkpt lat="49.76197" lon="2.16984">
        <ele>73.8</ele>
        <time>2023-01-18T15:00:43Z</time>
      </trkpt>
      <trkpt lat="49.76196" lon="2.16984">
        <ele>73.8</ele>
        <time>2023-01-18T15:00:44Z</time>
      </trkpt>
      <trkpt lat="49.76195" lon="2.16985">
        <ele>73.9</ele>
        <time>2023-01-18T15:00:46Z</time>
      </trkpt>
      <trkpt lat="49.76195" lon="2.16985">
        <ele>73.9</ele>
        <time>2023-01-18T15:00:47Z</time>
      </trkpt>
      <trkpt lat="49.76194" lon="2.16985">
        <ele>73.9</ele>
        <time>2023-01-18T15:00:48Z</time>
      </trkpt>
      <trkpt lat="49.76193" lon="2.16985">
        <ele>73.9</ele>
        <time>2023-01-18T15:00:50Z</time>
      </trkpt>
      <trkpt lat="49.76192" lon="2.16985">
        <ele>73.9</ele>
        <time>2023-01-18T15:00:51Z</time>
      </trkpt>
      <trkpt lat="49.76191" lon="2.16985">
        <ele>73.9</ele>
        <time>2023-01-18T15:00:52Z</time>
      </trkpt>
      <trkpt lat="49.7619" lon="2.16985">
        <ele>73.9</ele>
        <time>2023-01-18T15:00:53Z</time>
      </trkpt>
      <trkpt lat="49.76189" lon="2.16986">
        <ele>73.9</ele>
        <time>2023-01-18T15:00:54Z</time>
      </trkpt>
      <trkpt lat="49.76189" lon="2.16986">
        <ele>73.9</ele>
        <time>2023-01-18T15:00:55Z</time>
      </trkpt>
      <trkpt lat="49.76188" lon="2.16986">
        <ele>74</ele>
        <time>2023-01-18T15:00:57Z</time>
      </trkpt>
      <trkpt lat="49.76187" lon="2.16986">
        <ele>74</ele>
        <time>2023-01-18T15:00:58Z</time>
      </trkpt>
      <trkpt lat="49.76186" lon="2.16987">
        <ele>74</ele>
        <time>2023-01-18T15:00:59Z</time>
      </trkpt>
      <trkpt lat="49.76185" lon="2.16987">
        <ele>74</ele>
        <time>2023-01-18T15:01:00Z</time>
      </trkpt>
      <trkpt lat="49.76183" lon="2.16987">
        <ele>74</ele>
        <time>2023-01-18T15:01:01Z</time>
      </trkpt>
      <trkpt lat="49.76182" lon="2.16987">
        <ele>74</ele>
        <time>2023-01-18T15:01:03Z</time>
      </trkpt>
      <trkpt lat="49.76181" lon="2.16988">
        <ele>74</ele>
        <time>2023-01-18T15:01:04Z</time>
      </trkpt>
      <trkpt lat="49.7618" lon="2.16988">
        <ele>74</ele>
        <time>2023-01-18T15:01:05Z</time>
      </trkpt>
      <trkpt lat="49.76179" lon="2.16988">
        <ele>74.1</ele>
        <time>2023-01-18T15:01:06Z</time>
      </trkpt>
      <trkpt lat="49.76177" lon="2.16988">
        <ele>74.1</ele>
        <time>2023-01-18T15:01:08Z</time>
      </trkpt>
      <trkpt lat="49.76177" lon="2.16988">
        <ele>74.1</ele>
        <time>2023-01-18T15:01:09Z</time>
      </trkpt>
      <trkpt lat="49.76176" lon="2.16987">
        <ele>74.1</ele>
        <time>2023-01-18T15:01:10Z</time>
      </trkpt>
      <trkpt lat="49.76175" lon="2.16987">
        <ele>74.1</ele>
        <time>2023-01-18T15:01:11Z</time>
      </trkpt>
      <trkpt lat="49.76174" lon="2.16988">
        <ele>74.1</ele>
        <time>2023-01-18T15:01:13Z</time>
      </trkpt>
      <trkpt lat="49.76173" lon="2.16987">
        <ele>74.1</ele>
        <time>2023-01-18T15:01:14Z</time>
      </trkpt>
      <trkpt lat="49.76172" lon="2.16987">
        <ele>74.1</ele>
        <time>2023-01-18T15:01:15Z</time>
      </trkpt>
      <trkpt lat="49.76171" lon="2.16987">
        <ele>74.1</ele>
        <time>2023-01-18T15:01:16Z</time>
      </trkpt>
      <trkpt lat="49.7617" lon="2.16987">
        <ele>74.2</ele>
        <time>2023-01-18T15:01:17Z</time>
      </trkpt>
      <trkpt lat="49.76169" lon="2.16987">
        <ele>74.2</ele>
        <time>2023-01-18T15:01:18Z</time>
      </trkpt>
      <trkpt lat="49.76168" lon="2.16987">
        <ele>74.2</ele>
        <time>2023-01-18T15:01:19Z</time>
      </trkpt>
      <trkpt lat="49.76167" lon="2.16987">
        <ele>74.2</ele>
        <time>2023-01-18T15:01:20Z</time>
      </trkpt>
      <trkpt lat="49.76166" lon="2.16988">
        <ele>74.2</ele>
        <time>2023-01-18T15:01:22Z</time>
      </trkpt>
      <trkpt lat="49.76165" lon="2.16989">
        <ele>74.2</ele>
        <time>2023-01-18T15:01:23Z</time>
      </trkpt>
      <trkpt lat="49.76164" lon="2.16989">
        <ele>74.2</ele>
        <time>2023-01-18T15:01:24Z</time>
      </trkpt>
      <trkpt lat="49.76163" lon="2.16989">
        <ele>74.2</ele>
        <time>2023-01-18T15:01:26Z</time>
      </trkpt>
      <trkpt lat="49.76162" lon="2.16989">
        <ele>74.3</ele>
        <time>2023-01-18T15:01:27Z</time>
      </trkpt>
      <trkpt lat="49.76162" lon="2.16988">
        <ele>74.3</ele>
        <time>2023-01-18T15:01:28Z</time>
      </trkpt>
      <trkpt lat="49.76161" lon="2.16988">
        <ele>74.3</ele>
        <time>2023-01-18T15:01:29Z</time>
      </trkpt>
      <trkpt lat="49.76161" lon="2.16987">
        <ele>74.3</ele>
        <time>2023-01-18T15:01:30Z</time>
      </trkpt>
      <trkpt lat="49.76161" lon="2.16987">
        <ele>74.3</ele>
        <time>2023-01-18T15:01:31Z</time>
      </trkpt>
      <trkpt lat="49.76161" lon="2.16987">
        <ele>74.3</ele>
        <time>2023-01-18T15:01:33Z</time>
      </trkpt>
      <trkpt lat="49.76161" lon="2.16987">
        <ele>74.3</ele>
        <time>2023-01-18T15:01:34Z</time>
      </trkpt>
      <trkpt lat="49.76161" lon="2.16988">
        <ele>74.3</ele>
        <time>2023-01-18T15:01:36Z</time>
      </trkpt>
      <trkpt lat="49.76161" lon="2.16989">
        <ele>74.4</ele>
        <time>2023-01-18T15:01:38Z</time>
      </trkpt>
      <trkpt lat="49.76162" lon="2.16989">
        <ele>74.4</ele>
        <time>2023-01-18T15:01:39Z</time>
      </trkpt>
      <trkpt lat="49.76162" lon="2.1699">
        <ele>74.4</ele>
        <time>2023-01-18T15:01:40Z</time>
      </trkpt>
      <trkpt lat="49.76162" lon="2.16991">
        <ele>74.4</ele>
        <time>2023-01-18T15:01:41Z</time>
      </trkpt>
      <trkpt lat="49.76162" lon="2.16992">
        <ele>74.4</ele>
        <time>2023-01-18T15:01:43Z</time>
      </trkpt>
      <trkpt lat="49.76161" lon="2.16992">
        <ele>74.4</ele>
        <time>2023-01-18T15:01:45Z</time>
      </trkpt>
      <trkpt lat="49.76161" lon="2.16993">
        <ele>74.5</ele>
        <time>2023-01-18T15:01:46Z</time>
      </trkpt>
      <trkpt lat="49.7616" lon="2.16994">
        <ele>74.5</ele>
        <time>2023-01-18T15:01:47Z</time>
      </trkpt>
      <trkpt lat="49.7616" lon="2.16995">
        <ele>74.5</ele>
        <time>2023-01-18T15:01:48Z</time>
      </trkpt>
      <trkpt lat="49.76159" lon="2.16995">
        <ele>74.5</ele>
        <time>2023-01-18T15:01:49Z</time>
      </trkpt>
      <trkpt lat="49.76158" lon="2.16996">
        <ele>74.5</ele>
        <time>2023-01-18T15:01:51Z</time>
      </trkpt>
      <trkpt lat="49.76157" lon="2.16996">
        <ele>74.6</ele>
        <time>2023-01-18T15:01:52Z</time>
      </trkpt>
      <trkpt lat="49.76156" lon="2.16997">
        <ele>74.6</ele>
        <time>2023-01-18T15:01:53Z</time>
      </trkpt>
      <trkpt lat="49.76155" lon="2.16997">
        <ele>74.6</ele>
        <time>2023-01-18T15:01:54Z</time>
      </trkpt>
      <trkpt lat="49.76154" lon="2.16997">
        <ele>74.7</ele>
        <time>2023-01-18T15:01:55Z</time>
      </trkpt>
      <trkpt lat="49.76153" lon="2.16997">
        <ele>74.7</ele>
        <time>2023-01-18T15:01:56Z</time>
      </trkpt>
      <trkpt lat="49.76152" lon="2.16998">
        <ele>74.7</ele>
        <time>2023-01-18T15:01:57Z</time>
      </trkpt>
      <trkpt lat="49.76151" lon="2.16998">
        <ele>74.7</ele>
        <time>2023-01-18T15:01:58Z</time>
      </trkpt>
      <trkpt lat="49.76149" lon="2.16999">
        <ele>74.8</ele>
        <time>2023-01-18T15:02:00Z</time>
      </trkpt>
      <trkpt lat="49.76148" lon="2.16999">
        <ele>74.8</ele>
        <time>2023-01-18T15:02:01Z</time>
      </trkpt>
      <trkpt lat="49.76147" lon="2.17">
        <ele>74.8</ele>
        <time>2023-01-18T15:02:02Z</time>
      </trkpt>
      <trkpt lat="49.76146" lon="2.17001">
        <ele>74.9</ele>
        <time>2023-01-18T15:02:03Z</time>
      </trkpt>
      <trkpt lat="49.76145" lon="2.17001">
        <ele>74.9</ele>
        <time>2023-01-18T15:02:04Z</time>
      </trkpt>
      <trkpt lat="49.76144" lon="2.17002">
        <ele>74.9</ele>
        <time>2023-01-18T15:02:05Z</time>
      </trkpt>
      <trkpt lat="49.76143" lon="2.17003">
        <ele>74.9</ele>
        <time>2023-01-18T15:02:07Z</time>
      </trkpt>
      <trkpt lat="49.76142" lon="2.17004">
        <ele>75</ele>
        <time>2023-01-18T15:02:08Z</time>
      </trkpt>
      <trkpt lat="49.76141" lon="2.17006">
        <ele>75</ele>
        <time>2023-01-18T15:02:09Z</time>
      </trkpt>
      <trkpt lat="49.7614" lon="2.17006">
        <ele>75</ele>
        <time>2023-01-18T15:02:10Z</time>
      </trkpt>
      <trkpt lat="49.76139" lon="2.17007">
        <ele>75.1</ele>
        <time>2023-01-18T15:02:11Z</time>
      </trkpt>
      <trkpt lat="49.76137" lon="2.17007">
        <ele>75.1</ele>
        <time>2023-01-18T15:02:12Z</time>
      </trkpt>
      <trkpt lat="49.76136" lon="2.17008">
        <ele>75.1</ele>
        <time>2023-01-18T15:02:13Z</time>
      </trkpt>
      <trkpt lat="49.76135" lon="2.17009">
        <ele>75.2</ele>
        <time>2023-01-18T15:02:15Z</time>
      </trkpt>
      <trkpt lat="49.76134" lon="2.1701">
        <ele>75.2</ele>
        <time>2023-01-18T15:02:16Z</time>
      </trkpt>
      <trkpt lat="49.76132" lon="2.17011">
        <ele>75.2</ele>
        <time>2023-01-18T15:02:17Z</time>
      </trkpt>
      <trkpt lat="49.76131" lon="2.17012">
        <ele>75.3</ele>
        <time>2023-01-18T15:02:18Z</time>
      </trkpt>
      <trkpt lat="49.76129" lon="2.17013">
        <ele>75.3</ele>
        <time>2023-01-18T15:02:19Z</time>
      </trkpt>
      <trkpt lat="49.76128" lon="2.17013">
        <ele>75.3</ele>
        <time>2023-01-18T15:02:20Z</time>
      </trkpt>
      <trkpt lat="49.76127" lon="2.17014">
        <ele>75.4</ele>
        <time>2023-01-18T15:02:21Z</time>
      </trkpt>
      <trkpt lat="49.76126" lon="2.17015">
        <ele>75.4</ele>
        <time>2023-01-18T15:02:23Z</time>
      </trkpt>
      <trkpt lat="49.76125" lon="2.17016">
        <ele>75.4</ele>
        <time>2023-01-18T15:02:24Z</time>
      </trkpt>
      <trkpt lat="49.76123" lon="2.17017">
        <ele>75.5</ele>
        <time>2023-01-18T15:02:25Z</time>
      </trkpt>
      <trkpt lat="49.76122" lon="2.17018">
        <ele>75.5</ele>
        <time>2023-01-18T15:02:26Z</time>
      </trkpt>
      <trkpt lat="49.76121" lon="2.17019">
        <ele>75.5</ele>
        <time>2023-01-18T15:02:27Z</time>
      </trkpt>
      <trkpt lat="49.7612" lon="2.17019">
        <ele>75.6</ele>
        <time>2023-01-18T15:02:28Z</time>
      </trkpt>
      <trkpt lat="49.76119" lon="2.17019">
        <ele>75.6</ele>
        <time>2023-01-18T15:02:29Z</time>
      </trkpt>
      <trkpt lat="49.76118" lon="2.17019">
        <ele>75.6</ele>
        <time>2023-01-18T15:02:31Z</time>
      </trkpt>
      <trkpt lat="49.76117" lon="2.17019">
        <ele>75.7</ele>
        <time>2023-01-18T15:02:32Z</time>
      </trkpt>
      <trkpt lat="49.76116" lon="2.1702">
        <ele>75.7</ele>
        <time>2023-01-18T15:02:33Z</time>
      </trkpt>
      <trkpt lat="49.76115" lon="2.17022">
        <ele>75.7</ele>
        <time>2023-01-18T15:02:34Z</time>
      </trkpt>
      <trkpt lat="49.76114" lon="2.17023">
        <ele>75.8</ele>
        <time>2023-01-18T15:02:35Z</time>
      </trkpt>
      <trkpt lat="49.76113" lon="2.17024">
        <ele>75.8</ele>
        <time>2023-01-18T15:02:36Z</time>
      </trkpt>
      <trkpt lat="49.76113" lon="2.17024">
        <ele>75.8</ele>
        <time>2023-01-18T15:02:37Z</time>
      </trkpt>
      <trkpt lat="49.76112" lon="2.17025">
        <ele>75.9</ele>
        <time>2023-01-18T15:02:39Z</time>
      </trkpt>
      <trkpt lat="49.76111" lon="2.17026">
        <ele>75.9</ele>
        <time>2023-01-18T15:02:40Z</time>
      </trkpt>
      <trkpt lat="49.7611" lon="2.17027">
        <ele>75.9</ele>
        <time>2023-01-18T15:02:41Z</time>
      </trkpt>
      <trkpt lat="49.76108" lon="2.17029">
        <ele>76</ele>
        <time>2023-01-18T15:02:42Z</time>
      </trkpt>
      <trkpt lat="49.76107" lon="2.17029">
        <ele>76</ele>
        <time>2023-01-18T15:02:43Z</time>
      </trkpt>
      <trkpt lat="49.76106" lon="2.1703">
        <ele>76.1</ele>
        <time>2023-01-18T15:02:44Z</time>
      </trkpt>
      <trkpt lat="49.76106" lon="2.1703">
        <ele>76.1</ele>
        <time>2023-01-18T15:02:46Z</time>
      </trkpt>
      <trkpt lat="49.76105" lon="2.17031">
        <ele>76.1</ele>
        <time>2023-01-18T15:02:47Z</time>
      </trkpt>
      <trkpt lat="49.76104" lon="2.17032">
        <ele>76.1</ele>
        <time>2023-01-18T15:02:48Z</time>
      </trkpt>
      <trkpt lat="49.76103" lon="2.17033">
        <ele>76.2</ele>
        <time>2023-01-18T15:02:49Z</time>
      </trkpt>
      <trkpt lat="49.76101" lon="2.17035">
        <ele>76.2</ele>
        <time>2023-01-18T15:02:50Z</time>
      </trkpt>
      <trkpt lat="49.761" lon="2.17035">
        <ele>76.2</ele>
        <time>2023-01-18T15:02:51Z</time>
      </trkpt>
      <trkpt lat="49.76099" lon="2.17036">
        <ele>76.3</ele>
        <time>2023-01-18T15:02:52Z</time>
      </trkpt>
      <trkpt lat="49.76098" lon="2.17037">
        <ele>76.3</ele>
        <time>2023-01-18T15:02:53Z</time>
      </trkpt>
      <trkpt lat="49.76097" lon="2.17038">
        <ele>76.3</ele>
        <time>2023-01-18T15:02:55Z</time>
      </trkpt>
      <trkpt lat="49.76096" lon="2.17038">
        <ele>76.3</ele>
        <time>2023-01-18T15:02:56Z</time>
      </trkpt>
      <trkpt lat="49.76095" lon="2.17039">
        <ele>76.4</ele>
        <time>2023-01-18T15:02:57Z</time>
      </trkpt>
      <trkpt lat="49.76093" lon="2.1704">
        <ele>76.4</ele>
        <time>2023-01-18T15:02:58Z</time>
      </trkpt>
      <trkpt lat="49.76092" lon="2.17041">
        <ele>76.4</ele>
        <time>2023-01-18T15:02:59Z</time>
      </trkpt>
      <trkpt lat="49.76092" lon="2.17041">
        <ele>76.4</ele>
        <time>2023-01-18T15:03:00Z</time>
      </trkpt>
      <trkpt lat="49.76091" lon="2.17042">
        <ele>76.4</ele>
        <time>2023-01-18T15:03:01Z</time>
      </trkpt>
      <trkpt lat="49.7609" lon="2.17043">
        <ele>76.5</ele>
        <time>2023-01-18T15:03:03Z</time>
      </trkpt>
      <trkpt lat="49.76089" lon="2.17043">
        <ele>76.5</ele>
        <time>2023-01-18T15:03:04Z</time>
      </trkpt>
      <trkpt lat="49.76087" lon="2.17044">
        <ele>76.5</ele>
        <time>2023-01-18T15:03:05Z</time>
      </trkpt>
      <trkpt lat="49.76086" lon="2.17045">
        <ele>76.5</ele>
        <time>2023-01-18T15:03:06Z</time>
      </trkpt>
      <trkpt lat="49.76085" lon="2.17045">
        <ele>76.5</ele>
        <time>2023-01-18T15:03:07Z</time>
      </trkpt>
      <trkpt lat="49.76084" lon="2.17046">
        <ele>76.5</ele>
        <time>2023-01-18T15:03:08Z</time>
      </trkpt>
      <trkpt lat="49.76083" lon="2.17047">
        <ele>76.5</ele>
        <time>2023-01-18T15:03:09Z</time>
      </trkpt>
      <trkpt lat="49.76082" lon="2.17047">
        <ele>76.5</ele>
        <time>2023-01-18T15:03:10Z</time>
      </trkpt>
      <trkpt lat="49.76081" lon="2.17048">
        <ele>76.5</ele>
        <time>2023-01-18T15:03:12Z</time>
      </trkpt>
      <trkpt lat="49.7608" lon="2.17048">
        <ele>76.6</ele>
        <time>2023-01-18T15:03:13Z</time>
      </trkpt>
      <trkpt lat="49.76079" lon="2.17049">
        <ele>76.6</ele>
        <time>2023-01-18T15:03:14Z</time>
      </trkpt>
      <trkpt lat="49.76078" lon="2.1705">
        <ele>76.6</ele>
        <time>2023-01-18T15:03:15Z</time>
      </trkpt>
      <trkpt lat="49.76077" lon="2.1705">
        <ele>76.6</ele>
        <time>2023-01-18T15:03:16Z</time>
      </trkpt>
      <trkpt lat="49.76075" lon="2.17052">
        <ele>76.6</ele>
        <time>2023-01-18T15:03:17Z</time>
      </trkpt>
      <trkpt lat="49.76074" lon="2.17052">
        <ele>76.6</ele>
        <time>2023-01-18T15:03:18Z</time>
      </trkpt>
      <trkpt lat="49.76073" lon="2.17053">
        <ele>76.6</ele>
        <time>2023-01-18T15:03:19Z</time>
      </trkpt>
      <trkpt lat="49.76073" lon="2.17053">
        <ele>76.7</ele>
        <time>2023-01-18T15:03:21Z</time>
      </trkpt>
      <trkpt lat="49.76072" lon="2.17054">
        <ele>76.7</ele>
        <time>2023-01-18T15:03:22Z</time>
      </trkpt>
      <trkpt lat="49.7607" lon="2.17055">
        <ele>76.7</ele>
        <time>2023-01-18T15:03:23Z</time>
      </trkpt>
      <trkpt lat="49.76069" lon="2.17055">
        <ele>76.7</ele>
        <time>2023-01-18T15:03:24Z</time>
      </trkpt>
      <trkpt lat="49.76068" lon="2.17056">
        <ele>76.7</ele>
        <time>2023-01-18T15:03:25Z</time>
      </trkpt>
      <trkpt lat="49.76067" lon="2.17057">
        <ele>76.7</ele>
        <time>2023-01-18T15:03:26Z</time>
      </trkpt>
      <trkpt lat="49.76065" lon="2.17058">
        <ele>76.8</ele>
        <time>2023-01-18T15:03:27Z</time>
      </trkpt>
      <trkpt lat="49.76064" lon="2.17058">
        <ele>76.8</ele>
        <time>2023-01-18T15:03:28Z</time>
      </trkpt>
      <trkpt lat="49.76064" lon="2.17059">
        <ele>76.8</ele>
        <time>2023-01-18T15:03:30Z</time>
      </trkpt>
      <trkpt lat="49.76063" lon="2.17059">
        <ele>76.8</ele>
        <time>2023-01-18T15:03:31Z</time>
      </trkpt>
      <trkpt lat="49.76062" lon="2.1706">
        <ele>76.8</ele>
        <time>2023-01-18T15:03:32Z</time>
      </trkpt>
      <trkpt lat="49.76061" lon="2.17061">
        <ele>76.8</ele>
        <time>2023-01-18T15:03:33Z</time>
      </trkpt>
      <trkpt lat="49.7606" lon="2.17061">
        <ele>76.9</ele>
        <time>2023-01-18T15:03:34Z</time>
      </trkpt>
      <trkpt lat="49.76058" lon="2.17062">
        <ele>76.9</ele>
        <time>2023-01-18T15:03:35Z</time>
      </trkpt>
      <trkpt lat="49.76058" lon="2.17063">
        <ele>76.9</ele>
        <time>2023-01-18T15:03:36Z</time>
      </trkpt>
      <trkpt lat="49.76057" lon="2.17063">
        <ele>76.9</ele>
        <time>2023-01-18T15:03:37Z</time>
      </trkpt>
      <trkpt lat="49.76056" lon="2.17064">
        <ele>76.9</ele>
        <time>2023-01-18T15:03:39Z</time>
      </trkpt>
      <trkpt lat="49.76054" lon="2.17064">
        <ele>77</ele>
        <time>2023-01-18T15:03:40Z</time>
      </trkpt>
      <trkpt lat="49.76053" lon="2.17065">
        <ele>77</ele>
        <time>2023-01-18T15:03:41Z</time>
      </trkpt>
      <trkpt lat="49.76051" lon="2.17066">
        <ele>77</ele>
        <time>2023-01-18T15:03:42Z</time>
      </trkpt>
      <trkpt lat="49.7605" lon="2.17066">
        <ele>77</ele>
        <time>2023-01-18T15:03:43Z</time>
      </trkpt>
      <trkpt lat="49.76049" lon="2.17066">
        <ele>77</ele>
        <time>2023-01-18T15:03:44Z</time>
      </trkpt>
      <trkpt lat="49.76047" lon="2.17067">
        <ele>77.1</ele>
        <time>2023-01-18T15:03:45Z</time>
      </trkpt>
      <trkpt lat="49.76047" lon="2.17067">
        <ele>77.1</ele>
        <time>2023-01-18T15:03:46Z</time>
      </trkpt>
      <trkpt lat="49.76046" lon="2.17068">
        <ele>77.1</ele>
        <time>2023-01-18T15:03:47Z</time>
      </trkpt>
      <trkpt lat="49.76044" lon="2.17069">
        <ele>77.1</ele>
        <time>2023-01-18T15:03:49Z</time>
      </trkpt>
      <trkpt lat="49.76043" lon="2.17069">
        <ele>77.1</ele>
        <time>2023-01-18T15:03:50Z</time>
      </trkpt>
      <trkpt lat="49.76042" lon="2.17069">
        <ele>77.1</ele>
        <time>2023-01-18T15:03:51Z</time>
      </trkpt>
      <trkpt lat="49.7604" lon="2.17071">
        <ele>77.2</ele>
        <time>2023-01-18T15:03:52Z</time>
      </trkpt>
      <trkpt lat="49.76039" lon="2.17071">
        <ele>77.2</ele>
        <time>2023-01-18T15:03:53Z</time>
      </trkpt>
      <trkpt lat="49.76039" lon="2.17071">
        <ele>77.2</ele>
        <time>2023-01-18T15:03:54Z</time>
      </trkpt>
      <trkpt lat="49.76038" lon="2.17072">
        <ele>77.2</ele>
        <time>2023-01-18T15:03:55Z</time>
      </trkpt>
      <trkpt lat="49.76036" lon="2.17073">
        <ele>77.2</ele>
        <time>2023-01-18T15:03:57Z</time>
      </trkpt>
      <trkpt lat="49.76035" lon="2.17073">
        <ele>77.3</ele>
        <time>2023-01-18T15:03:58Z</time>
      </trkpt>
      <trkpt lat="49.76034" lon="2.17074">
        <ele>77.3</ele>
        <time>2023-01-18T15:03:59Z</time>
      </trkpt>
      <trkpt lat="49.76033" lon="2.17075">
        <ele>77.3</ele>
        <time>2023-01-18T15:04:00Z</time>
      </trkpt>
      <trkpt lat="49.76031" lon="2.17075">
        <ele>77.3</ele>
        <time>2023-01-18T15:04:01Z</time>
      </trkpt>
      <trkpt lat="49.7603" lon="2.17076">
        <ele>77.4</ele>
        <time>2023-01-18T15:04:03Z</time>
      </trkpt>
      <trkpt lat="49.76029" lon="2.17076">
        <ele>77.4</ele>
        <time>2023-01-18T15:04:04Z</time>
      </trkpt>
      <trkpt lat="49.76027" lon="2.17077">
        <ele>77.4</ele>
        <time>2023-01-18T15:04:05Z</time>
      </trkpt>
      <trkpt lat="49.76026" lon="2.17077">
        <ele>77.4</ele>
        <time>2023-01-18T15:04:06Z</time>
      </trkpt>
      <trkpt lat="49.76025" lon="2.17077">
        <ele>77.4</ele>
        <time>2023-01-18T15:04:07Z</time>
      </trkpt>
      <trkpt lat="49.76024" lon="2.17077">
        <ele>77.4</ele>
        <time>2023-01-18T15:04:08Z</time>
      </trkpt>
      <trkpt lat="49.76023" lon="2.17077">
        <ele>77.5</ele>
        <time>2023-01-18T15:04:09Z</time>
      </trkpt>
      <trkpt lat="49.76022" lon="2.17078">
        <ele>77.5</ele>
        <time>2023-01-18T15:04:11Z</time>
      </trkpt>
      <trkpt lat="49.76021" lon="2.17078">
        <ele>77.5</ele>
        <time>2023-01-18T15:04:12Z</time>
      </trkpt>
      <trkpt lat="49.7602" lon="2.17078">
        <ele>77.5</ele>
        <time>2023-01-18T15:04:13Z</time>
      </trkpt>
      <trkpt lat="49.76019" lon="2.17079">
        <ele>77.5</ele>
        <time>2023-01-18T15:04:14Z</time>
      </trkpt>
      <trkpt lat="49.76018" lon="2.17079">
        <ele>77.5</ele>
        <time>2023-01-18T15:04:15Z</time>
      </trkpt>
      <trkpt lat="49.76017" lon="2.1708">
        <ele>77.5</ele>
        <time>2023-01-18T15:04:16Z</time>
      </trkpt>
      <trkpt lat="49.76015" lon="2.1708">
        <ele>77.5</ele>
        <time>2023-01-18T15:04:17Z</time>
      </trkpt>
      <trkpt lat="49.76013" lon="2.17081">
        <ele>77.6</ele>
        <time>2023-01-18T15:04:18Z</time>
      </trkpt>
      <trkpt lat="49.76013" lon="2.17081">
        <ele>77.6</ele>
        <time>2023-01-18T15:04:20Z</time>
      </trkpt>
      <trkpt lat="49.76012" lon="2.17082">
        <ele>77.6</ele>
        <time>2023-01-18T15:04:21Z</time>
      </trkpt>
      <trkpt lat="49.76011" lon="2.17082">
        <ele>77.6</ele>
        <time>2023-01-18T15:04:22Z</time>
      </trkpt>
      <trkpt lat="49.7601" lon="2.17083">
        <ele>77.6</ele>
        <time>2023-01-18T15:04:23Z</time>
      </trkpt>
      <trkpt lat="49.76009" lon="2.17084">
        <ele>77.6</ele>
        <time>2023-01-18T15:04:24Z</time>
      </trkpt>
      <trkpt lat="49.76007" lon="2.17084">
        <ele>77.6</ele>
        <time>2023-01-18T15:04:25Z</time>
      </trkpt>
      <trkpt lat="49.76006" lon="2.17085">
        <ele>77.6</ele>
        <time>2023-01-18T15:04:26Z</time>
      </trkpt>
      <trkpt lat="49.76005" lon="2.17085">
        <ele>77.7</ele>
        <time>2023-01-18T15:04:27Z</time>
      </trkpt>
      <trkpt lat="49.76003" lon="2.17086">
        <ele>77.7</ele>
        <time>2023-01-18T15:04:28Z</time>
      </trkpt>
      <trkpt lat="49.76002" lon="2.17086">
        <ele>77.7</ele>
        <time>2023-01-18T15:04:30Z</time>
      </trkpt>
      <trkpt lat="49.76001" lon="2.17086">
        <ele>77.7</ele>
        <time>2023-01-18T15:04:31Z</time>
      </trkpt>
      <trkpt lat="49.76" lon="2.17086">
        <ele>77.7</ele>
        <time>2023-01-18T15:04:32Z</time>
      </trkpt>
      <trkpt lat="49.75999" lon="2.17086">
        <ele>77.7</ele>
        <time>2023-01-18T15:04:33Z</time>
      </trkpt>
      <trkpt lat="49.75998" lon="2.17086">
        <ele>77.7</ele>
        <time>2023-01-18T15:04:34Z</time>
      </trkpt>
      <trkpt lat="49.75997" lon="2.17087">
        <ele>77.8</ele>
        <time>2023-01-18T15:04:35Z</time>
      </trkpt>
      <trkpt lat="49.75995" lon="2.17087">
        <ele>77.8</ele>
        <time>2023-01-18T15:04:36Z</time>
      </trkpt>
      <trkpt lat="49.75994" lon="2.17087">
        <ele>77.8</ele>
        <time>2023-01-18T15:04:38Z</time>
      </trkpt>
      <trkpt lat="49.75993" lon="2.17087">
        <ele>77.8</ele>
        <time>2023-01-18T15:04:39Z</time>
      </trkpt>
      <trkpt lat="49.75992" lon="2.17087">
        <ele>77.8</ele>
        <time>2023-01-18T15:04:40Z</time>
      </trkpt>
      <trkpt lat="49.75991" lon="2.17088">
        <ele>77.9</ele>
        <time>2023-01-18T15:04:41Z</time>
      </trkpt>
      <trkpt lat="49.7599" lon="2.17088">
        <ele>77.9</ele>
        <time>2023-01-18T15:04:42Z</time>
      </trkpt>
      <trkpt lat="49.75989" lon="2.17089">
        <ele>77.9</ele>
        <time>2023-01-18T15:04:43Z</time>
      </trkpt>
      <trkpt lat="49.75988" lon="2.1709">
        <ele>77.9</ele>
        <time>2023-01-18T15:04:44Z</time>
      </trkpt>
      <trkpt lat="49.75986" lon="2.1709">
        <ele>78</ele>
        <time>2023-01-18T15:04:45Z</time>
      </trkpt>
      <trkpt lat="49.75985" lon="2.1709">
        <ele>78</ele>
        <time>2023-01-18T15:04:47Z</time>
      </trkpt>
      <trkpt lat="49.75984" lon="2.17091">
        <ele>78</ele>
        <time>2023-01-18T15:04:48Z</time>
      </trkpt>
      <trkpt lat="49.75983" lon="2.17091">
        <ele>78</ele>
        <time>2023-01-18T15:04:49Z</time>
      </trkpt>
      <trkpt lat="49.75982" lon="2.17092">
        <ele>78</ele>
        <time>2023-01-18T15:04:50Z</time>
      </trkpt>
      <trkpt lat="49.75981" lon="2.17092">
        <ele>78.1</ele>
        <time>2023-01-18T15:04:51Z</time>
      </trkpt>
      <trkpt lat="49.7598" lon="2.17093">
        <ele>78.1</ele>
        <time>2023-01-18T15:04:52Z</time>
      </trkpt>
      <trkpt lat="49.75979" lon="2.17094">
        <ele>78.1</ele>
        <time>2023-01-18T15:04:53Z</time>
      </trkpt>
      <trkpt lat="49.75978" lon="2.17094">
        <ele>78.1</ele>
        <time>2023-01-18T15:04:54Z</time>
      </trkpt>
      <trkpt lat="49.75976" lon="2.17095">
        <ele>78.2</ele>
        <time>2023-01-18T15:04:56Z</time>
      </trkpt>
      <trkpt lat="49.75975" lon="2.17095">
        <ele>78.2</ele>
        <time>2023-01-18T15:04:57Z</time>
      </trkpt>
      <trkpt lat="49.75975" lon="2.17096">
        <ele>78.2</ele>
        <time>2023-01-18T15:04:58Z</time>
      </trkpt>
      <trkpt lat="49.75974" lon="2.17096">
        <ele>78.2</ele>
        <time>2023-01-18T15:04:59Z</time>
      </trkpt>
      <trkpt lat="49.75972" lon="2.17097">
        <ele>78.3</ele>
        <time>2023-01-18T15:05:00Z</time>
      </trkpt>
      <trkpt lat="49.75971" lon="2.17097">
        <ele>78.3</ele>
        <time>2023-01-18T15:05:01Z</time>
      </trkpt>
      <trkpt lat="49.7597" lon="2.17097">
        <ele>78.3</ele>
        <time>2023-01-18T15:05:02Z</time>
      </trkpt>
      <trkpt lat="49.75969" lon="2.17098">
        <ele>78.4</ele>
        <time>2023-01-18T15:05:04Z</time>
      </trkpt>
      <trkpt lat="49.75968" lon="2.17098">
        <ele>78.4</ele>
        <time>2023-01-18T15:05:05Z</time>
      </trkpt>
      <trkpt lat="49.75967" lon="2.17098">
        <ele>78.4</ele>
        <time>2023-01-18T15:05:06Z</time>
      </trkpt>
      <trkpt lat="49.75967" lon="2.17099">
        <ele>78.4</ele>
        <time>2023-01-18T15:05:07Z</time>
      </trkpt>
      <trkpt lat="49.75966" lon="2.17099">
        <ele>78.4</ele>
        <time>2023-01-18T15:05:08Z</time>
      </trkpt>
      <trkpt lat="49.75964" lon="2.17099">
        <ele>78.5</ele>
        <time>2023-01-18T15:05:09Z</time>
      </trkpt>
      <trkpt lat="49.75963" lon="2.171">
        <ele>78.5</ele>
        <time>2023-01-18T15:05:10Z</time>
      </trkpt>
      <trkpt lat="49.75962" lon="2.171">
        <ele>78.5</ele>
        <time>2023-01-18T15:05:12Z</time>
      </trkpt>
      <trkpt lat="49.75961" lon="2.17101">
        <ele>78.6</ele>
        <time>2023-01-18T15:05:13Z</time>
      </trkpt>
      <trkpt lat="49.7596" lon="2.17101">
        <ele>78.6</ele>
        <time>2023-01-18T15:05:14Z</time>
      </trkpt>
      <trkpt lat="49.75957" lon="2.17101">
        <ele>78.6</ele>
        <time>2023-01-18T15:05:15Z</time>
      </trkpt>
      <trkpt lat="49.75957" lon="2.17102">
        <ele>78.6</ele>
        <time>2023-01-18T15:05:16Z</time>
      </trkpt>
      <trkpt lat="49.75956" lon="2.17102">
        <ele>78.7</ele>
        <time>2023-01-18T15:05:17Z</time>
      </trkpt>
      <trkpt lat="49.75955" lon="2.17102">
        <ele>78.7</ele>
        <time>2023-01-18T15:05:19Z</time>
      </trkpt>
      <trkpt lat="49.75954" lon="2.17103">
        <ele>78.7</ele>
        <time>2023-01-18T15:05:20Z</time>
      </trkpt>
      <trkpt lat="49.75953" lon="2.17103">
        <ele>78.7</ele>
        <time>2023-01-18T15:05:21Z</time>
      </trkpt>
      <trkpt lat="49.75952" lon="2.17103">
        <ele>78.7</ele>
        <time>2023-01-18T15:05:22Z</time>
      </trkpt>
      <trkpt lat="49.75951" lon="2.17104">
        <ele>78.8</ele>
        <time>2023-01-18T15:05:23Z</time>
      </trkpt>
      <trkpt lat="49.7595" lon="2.17105">
        <ele>78.8</ele>
        <time>2023-01-18T15:05:24Z</time>
      </trkpt>
      <trkpt lat="49.75948" lon="2.17106">
        <ele>78.8</ele>
        <time>2023-01-18T15:05:26Z</time>
      </trkpt>
      <trkpt lat="49.75947" lon="2.17106">
        <ele>78.8</ele>
        <time>2023-01-18T15:05:27Z</time>
      </trkpt>
      <trkpt lat="49.75946" lon="2.17107">
        <ele>78.9</ele>
        <time>2023-01-18T15:05:28Z</time>
      </trkpt>
      <trkpt lat="49.75945" lon="2.17108">
        <ele>78.9</ele>
        <time>2023-01-18T15:05:29Z</time>
      </trkpt>
      <trkpt lat="49.75945" lon="2.17108">
        <ele>78.9</ele>
        <time>2023-01-18T15:05:30Z</time>
      </trkpt>
      <trkpt lat="49.75944" lon="2.17109">
        <ele>78.9</ele>
        <time>2023-01-18T15:05:31Z</time>
      </trkpt>
      <trkpt lat="49.75942" lon="2.1711">
        <ele>78.9</ele>
        <time>2023-01-18T15:05:32Z</time>
      </trkpt>
      <trkpt lat="49.75941" lon="2.1711">
        <ele>79</ele>
        <time>2023-01-18T15:05:33Z</time>
      </trkpt>
      <trkpt lat="49.7594" lon="2.17111">
        <ele>79</ele>
        <time>2023-01-18T15:05:34Z</time>
      </trkpt>
      <trkpt lat="49.75938" lon="2.17111">
        <ele>79</ele>
        <time>2023-01-18T15:05:36Z</time>
      </trkpt>
      <trkpt lat="49.75937" lon="2.17112">
        <ele>79</ele>
        <time>2023-01-18T15:05:37Z</time>
      </trkpt>
      <trkpt lat="49.75937" lon="2.17112">
        <ele>79</ele>
        <time>2023-01-18T15:05:38Z</time>
      </trkpt>
      <trkpt lat="49.75935" lon="2.17112">
        <ele>79.1</ele>
        <time>2023-01-18T15:05:39Z</time>
      </trkpt>
      <trkpt lat="49.75934" lon="2.17112">
        <ele>79.1</ele>
        <time>2023-01-18T15:05:40Z</time>
      </trkpt>
      <trkpt lat="49.75933" lon="2.17112">
        <ele>79.1</ele>
        <time>2023-01-18T15:05:41Z</time>
      </trkpt>
      <trkpt lat="49.75931" lon="2.17113">
        <ele>79.1</ele>
        <time>2023-01-18T15:05:42Z</time>
      </trkpt>
      <trkpt lat="49.7593" lon="2.17113">
        <ele>79.2</ele>
        <time>2023-01-18T15:05:44Z</time>
      </trkpt>
      <trkpt lat="49.7593" lon="2.17113">
        <ele>79.2</ele>
        <time>2023-01-18T15:05:45Z</time>
      </trkpt>
      <trkpt lat="49.75928" lon="2.17114">
        <ele>79.2</ele>
        <time>2023-01-18T15:05:46Z</time>
      </trkpt>
      <trkpt lat="49.75927" lon="2.17115">
        <ele>79.2</ele>
        <time>2023-01-18T15:05:47Z</time>
      </trkpt>
      <trkpt lat="49.75926" lon="2.17115">
        <ele>79.2</ele>
        <time>2023-01-18T15:05:48Z</time>
      </trkpt>
      <trkpt lat="49.75925" lon="2.17116">
        <ele>79.2</ele>
        <time>2023-01-18T15:05:49Z</time>
      </trkpt>
      <trkpt lat="49.75924" lon="2.17116">
        <ele>79.3</ele>
        <time>2023-01-18T15:05:50Z</time>
      </trkpt>
      <trkpt lat="49.75923" lon="2.17117">
        <ele>79.3</ele>
        <time>2023-01-18T15:05:52Z</time>
      </trkpt>
      <trkpt lat="49.75922" lon="2.17117">
        <ele>79.3</ele>
        <time>2023-01-18T15:05:53Z</time>
      </trkpt>
      <trkpt lat="49.75921" lon="2.17118">
        <ele>79.3</ele>
        <time>2023-01-18T15:05:54Z</time>
      </trkpt>
      <trkpt lat="49.7592" lon="2.17118">
        <ele>79.3</ele>
        <time>2023-01-18T15:05:55Z</time>
      </trkpt>
      <trkpt lat="49.75918" lon="2.17118">
        <ele>79.4</ele>
        <time>2023-01-18T15:05:56Z</time>
      </trkpt>
      <trkpt lat="49.75917" lon="2.17119">
        <ele>79.4</ele>
        <time>2023-01-18T15:05:57Z</time>
      </trkpt>
      <trkpt lat="49.75916" lon="2.17119">
        <ele>79.4</ele>
        <time>2023-01-18T15:05:58Z</time>
      </trkpt>
      <trkpt lat="49.75915" lon="2.1712">
        <ele>79.4</ele>
        <time>2023-01-18T15:06:00Z</time>
      </trkpt>
      <trkpt lat="49.75913" lon="2.1712">
        <ele>79.5</ele>
        <time>2023-01-18T15:06:01Z</time>
      </trkpt>
      <trkpt lat="49.75913" lon="2.1712">
        <ele>79.5</ele>
        <time>2023-01-18T15:06:02Z</time>
      </trkpt>
      <trkpt lat="49.75912" lon="2.17121">
        <ele>79.5</ele>
        <time>2023-01-18T15:06:03Z</time>
      </trkpt>
      <trkpt lat="49.75911" lon="2.17121">
        <ele>79.5</ele>
        <time>2023-01-18T15:06:04Z</time>
      </trkpt>
      <trkpt lat="49.7591" lon="2.17122">
        <ele>79.6</ele>
        <time>2023-01-18T15:06:05Z</time>
      </trkpt>
      <trkpt lat="49.75908" lon="2.17122">
        <ele>79.6</ele>
        <time>2023-01-18T15:06:06Z</time>
      </trkpt>
      <trkpt lat="49.75907" lon="2.17123">
        <ele>79.6</ele>
        <time>2023-01-18T15:06:07Z</time>
      </trkpt>
      <trkpt lat="49.75906" lon="2.17123">
        <ele>79.6</ele>
        <time>2023-01-18T15:06:09Z</time>
      </trkpt>
      <trkpt lat="49.75905" lon="2.17123">
        <ele>79.7</ele>
        <time>2023-01-18T15:06:10Z</time>
      </trkpt>
      <trkpt lat="49.75904" lon="2.17123">
        <ele>79.7</ele>
        <time>2023-01-18T15:06:11Z</time>
      </trkpt>
      <trkpt lat="49.75903" lon="2.17123">
        <ele>79.7</ele>
        <time>2023-01-18T15:06:12Z</time>
      </trkpt>
      <trkpt lat="49.75901" lon="2.17124">
        <ele>79.8</ele>
        <time>2023-01-18T15:06:13Z</time>
      </trkpt>
      <trkpt lat="49.759" lon="2.17124">
        <ele>79.8</ele>
        <time>2023-01-18T15:06:14Z</time>
      </trkpt>
      <trkpt lat="49.75899" lon="2.17124">
        <ele>79.8</ele>
        <time>2023-01-18T15:06:15Z</time>
      </trkpt>
      <trkpt lat="49.75897" lon="2.17125">
        <ele>79.8</ele>
        <time>2023-01-18T15:06:17Z</time>
      </trkpt>
      <trkpt lat="49.75896" lon="2.17125">
        <ele>79.9</ele>
        <time>2023-01-18T15:06:18Z</time>
      </trkpt>
      <trkpt lat="49.75896" lon="2.17125">
        <ele>79.9</ele>
        <time>2023-01-18T15:06:19Z</time>
      </trkpt>
      <trkpt lat="49.75895" lon="2.17125">
        <ele>79.9</ele>
        <time>2023-01-18T15:06:20Z</time>
      </trkpt>
      <trkpt lat="49.75893" lon="2.17126">
        <ele>80</ele>
        <time>2023-01-18T15:06:21Z</time>
      </trkpt>
      <trkpt lat="49.75892" lon="2.17127">
        <ele>80</ele>
        <time>2023-01-18T15:06:23Z</time>
      </trkpt>
      <trkpt lat="49.75891" lon="2.17127">
        <ele>80</ele>
        <time>2023-01-18T15:06:24Z</time>
      </trkpt>
      <trkpt lat="49.7589" lon="2.17128">
        <ele>80</ele>
        <time>2023-01-18T15:06:25Z</time>
      </trkpt>
      <trkpt lat="49.75888" lon="2.17128">
        <ele>80</ele>
        <time>2023-01-18T15:06:26Z</time>
      </trkpt>
      <trkpt lat="49.75888" lon="2.17128">
        <ele>80.1</ele>
        <time>2023-01-18T15:06:27Z</time>
      </trkpt>
      <trkpt lat="49.75886" lon="2.17128">
        <ele>80.1</ele>
        <time>2023-01-18T15:06:28Z</time>
      </trkpt>
      <trkpt lat="49.75885" lon="2.17128">
        <ele>80.1</ele>
        <time>2023-01-18T15:06:29Z</time>
      </trkpt>
      <trkpt lat="49.75883" lon="2.17128">
        <ele>80.1</ele>
        <time>2023-01-18T15:06:31Z</time>
      </trkpt>
      <trkpt lat="49.75882" lon="2.17128">
        <ele>80.2</ele>
        <time>2023-01-18T15:06:32Z</time>
      </trkpt>
      <trkpt lat="49.75881" lon="2.17128">
        <ele>80.2</ele>
        <time>2023-01-18T15:06:33Z</time>
      </trkpt>
      <trkpt lat="49.7588" lon="2.17128">
        <ele>80.2</ele>
        <time>2023-01-18T15:06:34Z</time>
      </trkpt>
      <trkpt lat="49.7588" lon="2.17127">
        <ele>80.2</ele>
        <time>2023-01-18T15:06:35Z</time>
      </trkpt>
      <trkpt lat="49.75878" lon="2.17127">
        <ele>80.2</ele>
        <time>2023-01-18T15:06:36Z</time>
      </trkpt>
      <trkpt lat="49.75877" lon="2.17127">
        <ele>80.2</ele>
        <time>2023-01-18T15:06:37Z</time>
      </trkpt>
      <trkpt lat="49.75876" lon="2.17127">
        <ele>80.3</ele>
        <time>2023-01-18T15:06:38Z</time>
      </trkpt>
      <trkpt lat="49.75875" lon="2.17128">
        <ele>80.3</ele>
        <time>2023-01-18T15:06:40Z</time>
      </trkpt>
      <trkpt lat="49.75873" lon="2.17129">
        <ele>80.3</ele>
        <time>2023-01-18T15:06:41Z</time>
      </trkpt>
      <trkpt lat="49.75873" lon="2.17129">
        <ele>80.3</ele>
        <time>2023-01-18T15:06:42Z</time>
      </trkpt>
      <trkpt lat="49.75872" lon="2.17128">
        <ele>80.3</ele>
        <time>2023-01-18T15:06:44Z</time>
      </trkpt>
      <trkpt lat="49.7587" lon="2.17128">
        <ele>80.4</ele>
        <time>2023-01-18T15:06:45Z</time>
      </trkpt>
      <trkpt lat="49.75868" lon="2.17128">
        <ele>80.4</ele>
        <time>2023-01-18T15:06:47Z</time>
      </trkpt>
      <trkpt lat="49.75866" lon="2.17127">
        <ele>80.4</ele>
        <time>2023-01-18T15:06:48Z</time>
      </trkpt>
      <trkpt lat="49.75865" lon="2.17127">
        <ele>80.4</ele>
        <time>2023-01-18T15:06:49Z</time>
      </trkpt>
      <trkpt lat="49.75865" lon="2.17127">
        <ele>80.4</ele>
        <time>2023-01-18T15:06:50Z</time>
      </trkpt>
      <trkpt lat="49.75862" lon="2.17126">
        <ele>80.5</ele>
        <time>2023-01-18T15:06:51Z</time>
      </trkpt>
      <trkpt lat="49.75861" lon="2.17126">
        <ele>80.5</ele>
        <time>2023-01-18T15:06:52Z</time>
      </trkpt>
      <trkpt lat="49.75861" lon="2.17126">
        <ele>80.5</ele>
        <time>2023-01-18T15:06:54Z</time>
      </trkpt>
      <trkpt lat="49.7586" lon="2.17125">
        <ele>80.5</ele>
        <time>2023-01-18T15:06:55Z</time>
      </trkpt>
      <trkpt lat="49.75859" lon="2.17125">
        <ele>80.5</ele>
        <time>2023-01-18T15:06:56Z</time>
      </trkpt>
      <trkpt lat="49.75858" lon="2.17125">
        <ele>80.5</ele>
        <time>2023-01-18T15:06:57Z</time>
      </trkpt>
      <trkpt lat="49.75856" lon="2.17125">
        <ele>80.5</ele>
        <time>2023-01-18T15:06:59Z</time>
      </trkpt>
      <trkpt lat="49.75855" lon="2.17125">
        <ele>80.5</ele>
        <time>2023-01-18T15:07:00Z</time>
      </trkpt>
      <trkpt lat="49.75854" lon="2.17125">
        <ele>80.5</ele>
        <time>2023-01-18T15:07:01Z</time>
      </trkpt>
      <trkpt lat="49.75853" lon="2.17125">
        <ele>80.6</ele>
        <time>2023-01-18T15:07:02Z</time>
      </trkpt>
      <trkpt lat="49.75852" lon="2.17126">
        <ele>80.6</ele>
        <time>2023-01-18T15:07:03Z</time>
      </trkpt>
      <trkpt lat="49.75849" lon="2.17125">
        <ele>80.6</ele>
        <time>2023-01-18T15:07:04Z</time>
      </trkpt>
      <trkpt lat="49.75848" lon="2.17125">
        <ele>80.6</ele>
        <time>2023-01-18T15:07:05Z</time>
      </trkpt>
      <trkpt lat="49.75847" lon="2.17125">
        <ele>80.6</ele>
        <time>2023-01-18T15:07:06Z</time>
      </trkpt>
      <trkpt lat="49.75846" lon="2.17125">
        <ele>80.6</ele>
        <time>2023-01-18T15:07:08Z</time>
      </trkpt>
      <trkpt lat="49.75845" lon="2.17125">
        <ele>80.6</ele>
        <time>2023-01-18T15:07:09Z</time>
      </trkpt>
      <trkpt lat="49.75844" lon="2.17125">
        <ele>80.6</ele>
        <time>2023-01-18T15:07:10Z</time>
      </trkpt>
      <trkpt lat="49.75843" lon="2.17125">
        <ele>80.6</ele>
        <time>2023-01-18T15:07:11Z</time>
      </trkpt>
      <trkpt lat="49.75842" lon="2.17125">
        <ele>80.6</ele>
        <time>2023-01-18T15:07:12Z</time>
      </trkpt>
      <trkpt lat="49.75841" lon="2.17125">
        <ele>80.7</ele>
        <time>2023-01-18T15:07:13Z</time>
      </trkpt>
      <trkpt lat="49.75839" lon="2.17125">
        <ele>80.7</ele>
        <time>2023-01-18T15:07:14Z</time>
      </trkpt>
      <trkpt lat="49.75838" lon="2.17125">
        <ele>80.7</ele>
        <time>2023-01-18T15:07:15Z</time>
      </trkpt>
      <trkpt lat="49.75836" lon="2.17125">
        <ele>80.7</ele>
        <time>2023-01-18T15:07:17Z</time>
      </trkpt>
      <trkpt lat="49.75835" lon="2.17125">
        <ele>80.7</ele>
        <time>2023-01-18T15:07:18Z</time>
      </trkpt>
      <trkpt lat="49.75834" lon="2.17125">
        <ele>80.7</ele>
        <time>2023-01-18T15:07:19Z</time>
      </trkpt>
      <trkpt lat="49.75833" lon="2.17124">
        <ele>80.7</ele>
        <time>2023-01-18T15:07:20Z</time>
      </trkpt>
      <trkpt lat="49.75833" lon="2.17122">
        <ele>80.7</ele>
        <time>2023-01-18T15:07:21Z</time>
      </trkpt>
      <trkpt lat="49.75833" lon="2.17121">
        <ele>80.7</ele>
        <time>2023-01-18T15:07:22Z</time>
      </trkpt>
      <trkpt lat="49.75832" lon="2.17119">
        <ele>80.7</ele>
        <time>2023-01-18T15:07:23Z</time>
      </trkpt>
      <trkpt lat="49.75831" lon="2.17119">
        <ele>80.7</ele>
        <time>2023-01-18T15:07:25Z</time>
      </trkpt>
      <trkpt lat="49.7583" lon="2.17118">
        <ele>80.8</ele>
        <time>2023-01-18T15:07:26Z</time>
      </trkpt>
      <trkpt lat="49.75828" lon="2.17118">
        <ele>80.8</ele>
        <time>2023-01-18T15:07:27Z</time>
      </trkpt>
      <trkpt lat="49.75827" lon="2.17117">
        <ele>80.8</ele>
        <time>2023-01-18T15:07:28Z</time>
      </trkpt>
      <trkpt lat="49.75826" lon="2.17117">
        <ele>80.8</ele>
        <time>2023-01-18T15:07:29Z</time>
      </trkpt>
      <trkpt lat="49.75825" lon="2.17117">
        <ele>80.8</ele>
        <time>2023-01-18T15:07:30Z</time>
      </trkpt>
      <trkpt lat="49.75824" lon="2.17117">
        <ele>80.8</ele>
        <time>2023-01-18T15:07:31Z</time>
      </trkpt>
      <trkpt lat="49.75823" lon="2.17117">
        <ele>80.8</ele>
        <time>2023-01-18T15:07:33Z</time>
      </trkpt>
      <trkpt lat="49.75821" lon="2.17117">
        <ele>80.8</ele>
        <time>2023-01-18T15:07:34Z</time>
      </trkpt>
      <trkpt lat="49.7582" lon="2.17116">
        <ele>80.8</ele>
        <time>2023-01-18T15:07:35Z</time>
      </trkpt>
      <trkpt lat="49.75819" lon="2.17116">
        <ele>80.8</ele>
        <time>2023-01-18T15:07:36Z</time>
      </trkpt>
      <trkpt lat="49.75818" lon="2.17116">
        <ele>80.8</ele>
        <time>2023-01-18T15:07:37Z</time>
      </trkpt>
      <trkpt lat="49.75817" lon="2.17116">
        <ele>80.9</ele>
        <time>2023-01-18T15:07:38Z</time>
      </trkpt>
      <trkpt lat="49.75815" lon="2.17115">
        <ele>80.9</ele>
        <time>2023-01-18T15:07:39Z</time>
      </trkpt>
      <trkpt lat="49.75814" lon="2.17115">
        <ele>80.9</ele>
        <time>2023-01-18T15:07:40Z</time>
      </trkpt>
      <trkpt lat="49.75813" lon="2.17115">
        <ele>80.9</ele>
        <time>2023-01-18T15:07:41Z</time>
      </trkpt>
      <trkpt lat="49.75812" lon="2.17115">
        <ele>80.9</ele>
        <time>2023-01-18T15:07:43Z</time>
      </trkpt>
      <trkpt lat="49.7581" lon="2.17115">
        <ele>80.9</ele>
        <time>2023-01-18T15:07:44Z</time>
      </trkpt>
      <trkpt lat="49.75809" lon="2.17114">
        <ele>80.9</ele>
        <time>2023-01-18T15:07:45Z</time>
      </trkpt>
      <trkpt lat="49.75808" lon="2.17114">
        <ele>80.9</ele>
        <time>2023-01-18T15:07:46Z</time>
      </trkpt>
      <trkpt lat="49.75808" lon="2.17114">
        <ele>80.9</ele>
        <time>2023-01-18T15:07:47Z</time>
      </trkpt>
      <trkpt lat="49.75807" lon="2.17114">
        <ele>80.9</ele>
        <time>2023-01-18T15:07:48Z</time>
      </trkpt>
      <trkpt lat="49.75805" lon="2.17114">
        <ele>80.9</ele>
        <time>2023-01-18T15:07:49Z</time>
      </trkpt>
      <trkpt lat="49.75804" lon="2.17114">
        <ele>81</ele>
        <time>2023-01-18T15:07:50Z</time>
      </trkpt>
      <trkpt lat="49.75803" lon="2.17114">
        <ele>81</ele>
        <time>2023-01-18T15:07:52Z</time>
      </trkpt>
      <trkpt lat="49.75802" lon="2.17114">
        <ele>81</ele>
        <time>2023-01-18T15:07:53Z</time>
      </trkpt>
      <trkpt lat="49.75801" lon="2.17114">
        <ele>81</ele>
        <time>2023-01-18T15:07:54Z</time>
      </trkpt>
      <trkpt lat="49.758" lon="2.17114">
        <ele>81</ele>
        <time>2023-01-18T15:07:55Z</time>
      </trkpt>
      <trkpt lat="49.75798" lon="2.17114">
        <ele>81</ele>
        <time>2023-01-18T15:07:56Z</time>
      </trkpt>
      <trkpt lat="49.75798" lon="2.17114">
        <ele>81</ele>
        <time>2023-01-18T15:07:57Z</time>
      </trkpt>
      <trkpt lat="49.75797" lon="2.17114">
        <ele>81</ele>
        <time>2023-01-18T15:07:58Z</time>
      </trkpt>
      <trkpt lat="49.75796" lon="2.17114">
        <ele>81</ele>
        <time>2023-01-18T15:07:59Z</time>
      </trkpt>
      <trkpt lat="49.75795" lon="2.17114">
        <ele>81</ele>
        <time>2023-01-18T15:08:00Z</time>
      </trkpt>
      <trkpt lat="49.75793" lon="2.17114">
        <ele>81</ele>
        <time>2023-01-18T15:08:02Z</time>
      </trkpt>
      <trkpt lat="49.75793" lon="2.17114">
        <ele>81</ele>
        <time>2023-01-18T15:08:03Z</time>
      </trkpt>
      <trkpt lat="49.75792" lon="2.17115">
        <ele>81.1</ele>
        <time>2023-01-18T15:08:04Z</time>
      </trkpt>
      <trkpt lat="49.75791" lon="2.17115">
        <ele>81.1</ele>
        <time>2023-01-18T15:08:05Z</time>
      </trkpt>
      <trkpt lat="49.75789" lon="2.17116">
        <ele>81.1</ele>
        <time>2023-01-18T15:08:06Z</time>
      </trkpt>
      <trkpt lat="49.75789" lon="2.17116">
        <ele>81.1</ele>
        <time>2023-01-18T15:08:07Z</time>
      </trkpt>
      <trkpt lat="49.75787" lon="2.17116">
        <ele>81.1</ele>
        <time>2023-01-18T15:08:08Z</time>
      </trkpt>
      <trkpt lat="49.75786" lon="2.17116">
        <ele>81.1</ele>
        <time>2023-01-18T15:08:09Z</time>
      </trkpt>
      <trkpt lat="49.75786" lon="2.17115">
        <ele>81.1</ele>
        <time>2023-01-18T15:08:10Z</time>
      </trkpt>
      <trkpt lat="49.75785" lon="2.17115">
        <ele>81.1</ele>
        <time>2023-01-18T15:08:12Z</time>
      </trkpt>
      <trkpt lat="49.75784" lon="2.17114">
        <ele>81.1</ele>
        <time>2023-01-18T15:08:13Z</time>
      </trkpt>
      <trkpt lat="49.75783" lon="2.17113">
        <ele>81.1</ele>
        <time>2023-01-18T15:08:14Z</time>
      </trkpt>
      <trkpt lat="49.75782" lon="2.17112">
        <ele>81.1</ele>
        <time>2023-01-18T15:08:15Z</time>
      </trkpt>
      <trkpt lat="49.75781" lon="2.17111">
        <ele>81.1</ele>
        <time>2023-01-18T15:08:16Z</time>
      </trkpt>
      <trkpt lat="49.7578" lon="2.17111">
        <ele>81.2</ele>
        <time>2023-01-18T15:08:17Z</time>
      </trkpt>
      <trkpt lat="49.7578" lon="2.1711">
        <ele>81.2</ele>
        <time>2023-01-18T15:08:18Z</time>
      </trkpt>
      <trkpt lat="49.75778" lon="2.1711">
        <ele>81.2</ele>
        <time>2023-01-18T15:08:20Z</time>
      </trkpt>
      <trkpt lat="49.75778" lon="2.17109">
        <ele>81.2</ele>
        <time>2023-01-18T15:08:21Z</time>
      </trkpt>
      <trkpt lat="49.75777" lon="2.17109">
        <ele>81.2</ele>
        <time>2023-01-18T15:08:22Z</time>
      </trkpt>
      <trkpt lat="49.75776" lon="2.17108">
        <ele>81.2</ele>
        <time>2023-01-18T15:08:23Z</time>
      </trkpt>
      <trkpt lat="49.75774" lon="2.17108">
        <ele>81.2</ele>
        <time>2023-01-18T15:08:24Z</time>
      </trkpt>
      <trkpt lat="49.75773" lon="2.17108">
        <ele>81.2</ele>
        <time>2023-01-18T15:08:26Z</time>
      </trkpt>
      <trkpt lat="49.75772" lon="2.17108">
        <ele>81.2</ele>
        <time>2023-01-18T15:08:27Z</time>
      </trkpt>
      <trkpt lat="49.7577" lon="2.17107">
        <ele>81.2</ele>
        <time>2023-01-18T15:08:28Z</time>
      </trkpt>
      <trkpt lat="49.75769" lon="2.17107">
        <ele>81.2</ele>
        <time>2023-01-18T15:08:29Z</time>
      </trkpt>
      <trkpt lat="49.75768" lon="2.17107">
        <ele>81.3</ele>
        <time>2023-01-18T15:08:30Z</time>
      </trkpt>
      <trkpt lat="49.75766" lon="2.17106">
        <ele>81.3</ele>
        <time>2023-01-18T15:08:31Z</time>
      </trkpt>
      <trkpt lat="49.75765" lon="2.17105">
        <ele>81.3</ele>
        <time>2023-01-18T15:08:33Z</time>
      </trkpt>
      <trkpt lat="49.75763" lon="2.17105">
        <ele>81.3</ele>
        <time>2023-01-18T15:08:34Z</time>
      </trkpt>
      <trkpt lat="49.75762" lon="2.17105">
        <ele>81.3</ele>
        <time>2023-01-18T15:08:35Z</time>
      </trkpt>
      <trkpt lat="49.7576" lon="2.17104">
        <ele>81.4</ele>
        <time>2023-01-18T15:08:36Z</time>
      </trkpt>
      <trkpt lat="49.75759" lon="2.17103">
        <ele>81.4</ele>
        <time>2023-01-18T15:08:37Z</time>
      </trkpt>
      <trkpt lat="49.75757" lon="2.17103">
        <ele>81.4</ele>
        <time>2023-01-18T15:08:38Z</time>
      </trkpt>
      <trkpt lat="49.75757" lon="2.17102">
        <ele>81.5</ele>
        <time>2023-01-18T15:08:40Z</time>
      </trkpt>
      <trkpt lat="49.75755" lon="2.17102">
        <ele>81.5</ele>
        <time>2023-01-18T15:08:41Z</time>
      </trkpt>
      <trkpt lat="49.75754" lon="2.17102">
        <ele>81.5</ele>
        <time>2023-01-18T15:08:42Z</time>
      </trkpt>
      <trkpt lat="49.75753" lon="2.17102">
        <ele>81.6</ele>
        <time>2023-01-18T15:08:43Z</time>
      </trkpt>
      <trkpt lat="49.75751" lon="2.17101">
        <ele>81.6</ele>
        <time>2023-01-18T15:08:44Z</time>
      </trkpt>
      <trkpt lat="49.75749" lon="2.17101">
        <ele>81.6</ele>
        <time>2023-01-18T15:08:45Z</time>
      </trkpt>
      <trkpt lat="49.75748" lon="2.171">
        <ele>81.7</ele>
        <time>2023-01-18T15:08:46Z</time>
      </trkpt>
      <trkpt lat="49.75747" lon="2.171">
        <ele>81.7</ele>
        <time>2023-01-18T15:08:48Z</time>
      </trkpt>
      <trkpt lat="49.75746" lon="2.171">
        <ele>81.7</ele>
        <time>2023-01-18T15:08:49Z</time>
      </trkpt>
      <trkpt lat="49.75745" lon="2.17099">
        <ele>81.7</ele>
        <time>2023-01-18T15:08:50Z</time>
      </trkpt>
      <trkpt lat="49.75744" lon="2.17099">
        <ele>81.8</ele>
        <time>2023-01-18T15:08:51Z</time>
      </trkpt>
      <trkpt lat="49.75743" lon="2.17099">
        <ele>81.8</ele>
        <time>2023-01-18T15:08:52Z</time>
      </trkpt>
      <trkpt lat="49.75742" lon="2.17098">
        <ele>81.9</ele>
        <time>2023-01-18T15:08:53Z</time>
      </trkpt>
      <trkpt lat="49.7574" lon="2.17098">
        <ele>81.9</ele>
        <time>2023-01-18T15:08:55Z</time>
      </trkpt>
      <trkpt lat="49.75738" lon="2.17097">
        <ele>82</ele>
        <time>2023-01-18T15:08:56Z</time>
      </trkpt>
      <trkpt lat="49.75737" lon="2.17097">
        <ele>82</ele>
        <time>2023-01-18T15:08:57Z</time>
      </trkpt>
      <trkpt lat="49.75737" lon="2.17096">
        <ele>82</ele>
        <time>2023-01-18T15:08:58Z</time>
      </trkpt>
      <trkpt lat="49.75735" lon="2.17096">
        <ele>82.1</ele>
        <time>2023-01-18T15:09:00Z</time>
      </trkpt>
      <trkpt lat="49.75734" lon="2.17096">
        <ele>82.1</ele>
        <time>2023-01-18T15:09:01Z</time>
      </trkpt>
      <trkpt lat="49.75733" lon="2.17096">
        <ele>82.2</ele>
        <time>2023-01-18T15:09:02Z</time>
      </trkpt>
      <trkpt lat="49.75732" lon="2.17096">
        <ele>82.2</ele>
        <time>2023-01-18T15:09:03Z</time>
      </trkpt>
      <trkpt lat="49.7573" lon="2.17098">
        <ele>82.2</ele>
        <time>2023-01-18T15:09:04Z</time>
      </trkpt>
      <trkpt lat="49.7573" lon="2.17098">
        <ele>82.3</ele>
        <time>2023-01-18T15:09:05Z</time>
      </trkpt>
      <trkpt lat="49.75729" lon="2.17099">
        <ele>82.4</ele>
        <time>2023-01-18T15:09:07Z</time>
      </trkpt>
      <trkpt lat="49.75728" lon="2.17101">
        <ele>82.4</ele>
        <time>2023-01-18T15:09:08Z</time>
      </trkpt>
      <trkpt lat="49.75726" lon="2.17102">
        <ele>82.5</ele>
        <time>2023-01-18T15:09:09Z</time>
      </trkpt>
      <trkpt lat="49.75725" lon="2.17103">
        <ele>82.5</ele>
        <time>2023-01-18T15:09:10Z</time>
      </trkpt>
      <trkpt lat="49.75724" lon="2.17105">
        <ele>82.6</ele>
        <time>2023-01-18T15:09:12Z</time>
      </trkpt>
      <trkpt lat="49.75724" lon="2.17106">
        <ele>82.7</ele>
        <time>2023-01-18T15:09:13Z</time>
      </trkpt>
      <trkpt lat="49.75723" lon="2.17109">
        <ele>82.8</ele>
        <time>2023-01-18T15:09:14Z</time>
      </trkpt>
      <trkpt lat="49.75723" lon="2.17111">
        <ele>82.8</ele>
        <time>2023-01-18T15:09:15Z</time>
      </trkpt>
      <trkpt lat="49.75723" lon="2.17113">
        <ele>82.9</ele>
        <time>2023-01-18T15:09:17Z</time>
      </trkpt>
      <trkpt lat="49.75723" lon="2.17114">
        <ele>82.9</ele>
        <time>2023-01-18T15:09:18Z</time>
      </trkpt>
      <trkpt lat="49.75723" lon="2.17116">
        <ele>83</ele>
        <time>2023-01-18T15:09:19Z</time>
      </trkpt>
      <trkpt lat="49.75723" lon="2.17118">
        <ele>83.1</ele>
        <time>2023-01-18T15:09:20Z</time>
      </trkpt>
      <trkpt lat="49.75724" lon="2.17119">
        <ele>83.1</ele>
        <time>2023-01-18T15:09:22Z</time>
      </trkpt>
      <trkpt lat="49.75724" lon="2.17121">
        <ele>83.2</ele>
        <time>2023-01-18T15:09:23Z</time>
      </trkpt>
      <trkpt lat="49.75724" lon="2.17123">
        <ele>83.3</ele>
        <time>2023-01-18T15:09:24Z</time>
      </trkpt>
      <trkpt lat="49.75723" lon="2.17124">
        <ele>83.3</ele>
        <time>2023-01-18T15:09:25Z</time>
      </trkpt>
      <trkpt lat="49.75722" lon="2.17125">
        <ele>83.4</ele>
        <time>2023-01-18T15:09:27Z</time>
      </trkpt>
      <trkpt lat="49.75722" lon="2.17125">
        <ele>83.4</ele>
        <time>2023-01-18T15:09:28Z</time>
      </trkpt>
      <trkpt lat="49.75721" lon="2.17127">
        <ele>83.5</ele>
        <time>2023-01-18T15:09:29Z</time>
      </trkpt>
      <trkpt lat="49.75721" lon="2.17128">
        <ele>83.5</ele>
        <time>2023-01-18T15:09:30Z</time>
      </trkpt>
      <trkpt lat="49.7572" lon="2.17129">
        <ele>83.6</ele>
        <time>2023-01-18T15:09:31Z</time>
      </trkpt>
      <trkpt lat="49.7572" lon="2.17131">
        <ele>83.6</ele>
        <time>2023-01-18T15:09:32Z</time>
      </trkpt>
      <trkpt lat="49.7572" lon="2.17133">
        <ele>83.7</ele>
        <time>2023-01-18T15:09:34Z</time>
      </trkpt>
      <trkpt lat="49.75719" lon="2.17135">
        <ele>83.8</ele>
        <time>2023-01-18T15:09:35Z</time>
      </trkpt>
      <trkpt lat="49.75719" lon="2.17136">
        <ele>83.8</ele>
        <time>2023-01-18T15:09:36Z</time>
      </trkpt>
      <trkpt lat="49.75719" lon="2.17139">
        <ele>83.9</ele>
        <time>2023-01-18T15:09:37Z</time>
      </trkpt>
      <trkpt lat="49.75719" lon="2.17141">
        <ele>84</ele>
        <time>2023-01-18T15:09:38Z</time>
      </trkpt>
      <trkpt lat="49.7572" lon="2.17143">
        <ele>84.1</ele>
        <time>2023-01-18T15:09:40Z</time>
      </trkpt>
      <trkpt lat="49.7572" lon="2.17145">
        <ele>84.2</ele>
        <time>2023-01-18T15:09:41Z</time>
      </trkpt>
      <trkpt lat="49.7572" lon="2.17149">
        <ele>84.3</ele>
        <time>2023-01-18T15:09:42Z</time>
      </trkpt>
      <trkpt lat="49.7572" lon="2.1715">
        <ele>84.4</ele>
        <time>2023-01-18T15:09:43Z</time>
      </trkpt>
      <trkpt lat="49.75719" lon="2.17152">
        <ele>84.4</ele>
        <time>2023-01-18T15:09:44Z</time>
      </trkpt>
      <trkpt lat="49.75719" lon="2.17154">
        <ele>84.5</ele>
        <time>2023-01-18T15:09:46Z</time>
      </trkpt>
      <trkpt lat="49.75719" lon="2.17155">
        <ele>84.6</ele>
        <time>2023-01-18T15:09:47Z</time>
      </trkpt>
      <trkpt lat="49.75718" lon="2.17157">
        <ele>84.6</ele>
        <time>2023-01-18T15:09:48Z</time>
      </trkpt>
      <trkpt lat="49.75718" lon="2.17161">
        <ele>84.8</ele>
        <time>2023-01-18T15:09:49Z</time>
      </trkpt>
      <trkpt lat="49.75717" lon="2.17161">
        <ele>84.8</ele>
        <time>2023-01-18T15:09:50Z</time>
      </trkpt>
      <trkpt lat="49.75717" lon="2.17163">
        <ele>84.9</ele>
        <time>2023-01-18T15:09:51Z</time>
      </trkpt>
      <trkpt lat="49.75717" lon="2.17164">
        <ele>85</ele>
        <time>2023-01-18T15:09:52Z</time>
      </trkpt>
      <trkpt lat="49.75716" lon="2.17165">
        <ele>85</ele>
        <time>2023-01-18T15:09:54Z</time>
      </trkpt>
      <trkpt lat="49.75716" lon="2.17166">
        <ele>85.1</ele>
        <time>2023-01-18T15:09:55Z</time>
      </trkpt>
      <trkpt lat="49.75716" lon="2.17168">
        <ele>85.1</ele>
        <time>2023-01-18T15:09:56Z</time>
      </trkpt>
      <trkpt lat="49.75716" lon="2.1717">
        <ele>85.2</ele>
        <time>2023-01-18T15:09:57Z</time>
      </trkpt>
      <trkpt lat="49.75716" lon="2.17171">
        <ele>85.3</ele>
        <time>2023-01-18T15:09:59Z</time>
      </trkpt>
      <trkpt lat="49.75716" lon="2.17173">
        <ele>85.3</ele>
        <time>2023-01-18T15:10:00Z</time>
      </trkpt>
      <trkpt lat="49.75715" lon="2.17175">
        <ele>85.4</ele>
        <time>2023-01-18T15:10:01Z</time>
      </trkpt>
      <trkpt lat="49.75715" lon="2.17176">
        <ele>85.4</ele>
        <time>2023-01-18T15:10:02Z</time>
      </trkpt>
      <trkpt lat="49.75715" lon="2.17178">
        <ele>85.5</ele>
        <time>2023-01-18T15:10:03Z</time>
      </trkpt>
      <trkpt lat="49.75714" lon="2.17179">
        <ele>85.6</ele>
        <time>2023-01-18T15:10:04Z</time>
      </trkpt>
      <trkpt lat="49.75713" lon="2.17181">
        <ele>85.7</ele>
        <time>2023-01-18T15:10:05Z</time>
      </trkpt>
      <trkpt lat="49.75713" lon="2.17182">
        <ele>85.7</ele>
        <time>2023-01-18T15:10:07Z</time>
      </trkpt>
      <trkpt lat="49.75712" lon="2.17183">
        <ele>85.8</ele>
        <time>2023-01-18T15:10:08Z</time>
      </trkpt>
      <trkpt lat="49.75712" lon="2.17185">
        <ele>85.9</ele>
        <time>2023-01-18T15:10:09Z</time>
      </trkpt>
      <trkpt lat="49.75711" lon="2.17186">
        <ele>85.9</ele>
        <time>2023-01-18T15:10:10Z</time>
      </trkpt>
      <trkpt lat="49.75711" lon="2.17188">
        <ele>86</ele>
        <time>2023-01-18T15:10:11Z</time>
      </trkpt>
      <trkpt lat="49.7571" lon="2.1719">
        <ele>86.1</ele>
        <time>2023-01-18T15:10:12Z</time>
      </trkpt>
      <trkpt lat="49.7571" lon="2.17192">
        <ele>86.1</ele>
        <time>2023-01-18T15:10:14Z</time>
      </trkpt>
      <trkpt lat="49.7571" lon="2.17194">
        <ele>86.2</ele>
        <time>2023-01-18T15:10:15Z</time>
      </trkpt>
      <trkpt lat="49.7571" lon="2.17195">
        <ele>86.3</ele>
        <time>2023-01-18T15:10:16Z</time>
      </trkpt>
      <trkpt lat="49.7571" lon="2.17197">
        <ele>86.4</ele>
        <time>2023-01-18T15:10:17Z</time>
      </trkpt>
      <trkpt lat="49.7571" lon="2.17198">
        <ele>86.4</ele>
        <time>2023-01-18T15:10:18Z</time>
      </trkpt>
      <trkpt lat="49.7571" lon="2.172">
        <ele>86.5</ele>
        <time>2023-01-18T15:10:20Z</time>
      </trkpt>
      <trkpt lat="49.75709" lon="2.17201">
        <ele>86.5</ele>
        <time>2023-01-18T15:10:21Z</time>
      </trkpt>
      <trkpt lat="49.75709" lon="2.17203">
        <ele>86.6</ele>
        <time>2023-01-18T15:10:22Z</time>
      </trkpt>
      <trkpt lat="49.75708" lon="2.17204">
        <ele>86.7</ele>
        <time>2023-01-18T15:10:23Z</time>
      </trkpt>
      <trkpt lat="49.75708" lon="2.17206">
        <ele>86.7</ele>
        <time>2023-01-18T15:10:24Z</time>
      </trkpt>
      <trkpt lat="49.75708" lon="2.17208">
        <ele>86.8</ele>
        <time>2023-01-18T15:10:25Z</time>
      </trkpt>
      <trkpt lat="49.75707" lon="2.17211">
        <ele>86.9</ele>
        <time>2023-01-18T15:10:27Z</time>
      </trkpt>
      <trkpt lat="49.75707" lon="2.17212">
        <ele>87</ele>
        <time>2023-01-18T15:10:28Z</time>
      </trkpt>
      <trkpt lat="49.75707" lon="2.17214">
        <ele>87.1</ele>
        <time>2023-01-18T15:10:29Z</time>
      </trkpt>
      <trkpt lat="49.75707" lon="2.17214">
        <ele>87.1</ele>
        <time>2023-01-18T15:10:30Z</time>
      </trkpt>
      <trkpt lat="49.75706" lon="2.17216">
        <ele>87.1</ele>
        <time>2023-01-18T15:10:32Z</time>
      </trkpt>
      <trkpt lat="49.75706" lon="2.17217">
        <ele>87.2</ele>
        <time>2023-01-18T15:10:33Z</time>
      </trkpt>
      <trkpt lat="49.75705" lon="2.17218">
        <ele>87.3</ele>
        <time>2023-01-18T15:10:34Z</time>
      </trkpt>
      <trkpt lat="49.75705" lon="2.1722">
        <ele>87.3</ele>
        <time>2023-01-18T15:10:35Z</time>
      </trkpt>
      <trkpt lat="49.75705" lon="2.17221">
        <ele>87.4</ele>
        <time>2023-01-18T15:10:36Z</time>
      </trkpt>
      <trkpt lat="49.75704" lon="2.17223">
        <ele>87.4</ele>
        <time>2023-01-18T15:10:37Z</time>
      </trkpt>
      <trkpt lat="49.75704" lon="2.17224">
        <ele>87.5</ele>
        <time>2023-01-18T15:10:38Z</time>
      </trkpt>
      <trkpt lat="49.75704" lon="2.17226">
        <ele>87.5</ele>
        <time>2023-01-18T15:10:40Z</time>
      </trkpt>
      <trkpt lat="49.75704" lon="2.17227">
        <ele>87.6</ele>
        <time>2023-01-18T15:10:41Z</time>
      </trkpt>
      <trkpt lat="49.75703" lon="2.1723">
        <ele>87.7</ele>
        <time>2023-01-18T15:10:42Z</time>
      </trkpt>
      <trkpt lat="49.75703" lon="2.17231">
        <ele>87.7</ele>
        <time>2023-01-18T15:10:43Z</time>
      </trkpt>
      <trkpt lat="49.75703" lon="2.17233">
        <ele>87.8</ele>
        <time>2023-01-18T15:10:44Z</time>
      </trkpt>
      <trkpt lat="49.75703" lon="2.17234">
        <ele>87.8</ele>
        <time>2023-01-18T15:10:45Z</time>
      </trkpt>
      <trkpt lat="49.75702" lon="2.17236">
        <ele>87.9</ele>
        <time>2023-01-18T15:10:47Z</time>
      </trkpt>
      <trkpt lat="49.75702" lon="2.17237">
        <ele>87.9</ele>
        <time>2023-01-18T15:10:48Z</time>
      </trkpt>
      <trkpt lat="49.75701" lon="2.17239">
        <ele>88</ele>
        <time>2023-01-18T15:10:49Z</time>
      </trkpt>
      <trkpt lat="49.757" lon="2.17241">
        <ele>88.1</ele>
        <time>2023-01-18T15:10:50Z</time>
      </trkpt>
      <trkpt lat="49.757" lon="2.17244">
        <ele>88.2</ele>
        <time>2023-01-18T15:10:51Z</time>
      </trkpt>
      <trkpt lat="49.75699" lon="2.17246">
        <ele>88.2</ele>
        <time>2023-01-18T15:10:52Z</time>
      </trkpt>
      <trkpt lat="49.75699" lon="2.17247">
        <ele>88.3</ele>
        <time>2023-01-18T15:10:53Z</time>
      </trkpt>
      <trkpt lat="49.75697" lon="2.1725">
        <ele>88.4</ele>
        <time>2023-01-18T15:10:54Z</time>
      </trkpt>
      <trkpt lat="49.75696" lon="2.17251">
        <ele>88.5</ele>
        <time>2023-01-18T15:10:56Z</time>
      </trkpt>
      <trkpt lat="49.75695" lon="2.17252">
        <ele>88.5</ele>
        <time>2023-01-18T15:10:57Z</time>
      </trkpt>
      <trkpt lat="49.75695" lon="2.17253">
        <ele>88.6</ele>
        <time>2023-01-18T15:10:58Z</time>
      </trkpt>
      <trkpt lat="49.75694" lon="2.17254">
        <ele>88.6</ele>
        <time>2023-01-18T15:10:59Z</time>
      </trkpt>
      <trkpt lat="49.75693" lon="2.17257">
        <ele>88.7</ele>
        <time>2023-01-18T15:11:00Z</time>
      </trkpt>
      <trkpt lat="49.75692" lon="2.17259">
        <ele>88.8</ele>
        <time>2023-01-18T15:11:01Z</time>
      </trkpt>
      <trkpt lat="49.75691" lon="2.17261">
        <ele>88.9</ele>
        <time>2023-01-18T15:11:02Z</time>
      </trkpt>
      <trkpt lat="49.75691" lon="2.17262">
        <ele>89</ele>
        <time>2023-01-18T15:11:04Z</time>
      </trkpt>
      <trkpt lat="49.7569" lon="2.17263">
        <ele>89</ele>
        <time>2023-01-18T15:11:05Z</time>
      </trkpt>
      <trkpt lat="49.7569" lon="2.17264">
        <ele>89</ele>
        <time>2023-01-18T15:11:06Z</time>
      </trkpt>
      <trkpt lat="49.75689" lon="2.17264">
        <ele>89.1</ele>
        <time>2023-01-18T15:11:07Z</time>
      </trkpt>
      <trkpt lat="49.75688" lon="2.17264">
        <ele>89.1</ele>
        <time>2023-01-18T15:11:09Z</time>
      </trkpt>
      <trkpt lat="49.75687" lon="2.17265">
        <ele>89.2</ele>
        <time>2023-01-18T15:11:10Z</time>
      </trkpt>
      <trkpt lat="49.75686" lon="2.17267">
        <ele>89.3</ele>
        <time>2023-01-18T15:11:11Z</time>
      </trkpt>
      <trkpt lat="49.75685" lon="2.17268">
        <ele>89.3</ele>
        <time>2023-01-18T15:11:12Z</time>
      </trkpt>
      <trkpt lat="49.75685" lon="2.17269">
        <ele>89.4</ele>
        <time>2023-01-18T15:11:13Z</time>
      </trkpt>
      <trkpt lat="49.75683" lon="2.17272">
        <ele>89.5</ele>
        <time>2023-01-18T15:11:14Z</time>
      </trkpt>
      <trkpt lat="49.75683" lon="2.17273">
        <ele>89.6</ele>
        <time>2023-01-18T15:11:16Z</time>
      </trkpt>
      <trkpt lat="49.75682" lon="2.17275">
        <ele>89.6</ele>
        <time>2023-01-18T15:11:17Z</time>
      </trkpt>
      <trkpt lat="49.75681" lon="2.17276">
        <ele>89.7</ele>
        <time>2023-01-18T15:11:18Z</time>
      </trkpt>
      <trkpt lat="49.75681" lon="2.17277">
        <ele>89.7</ele>
        <time>2023-01-18T15:11:19Z</time>
      </trkpt>
      <trkpt lat="49.75679" lon="2.1728">
        <ele>89.9</ele>
        <time>2023-01-18T15:11:20Z</time>
      </trkpt>
      <trkpt lat="49.75678" lon="2.17282">
        <ele>89.9</ele>
        <time>2023-01-18T15:11:22Z</time>
      </trkpt>
      <trkpt lat="49.75678" lon="2.17283">
        <ele>90</ele>
        <time>2023-01-18T15:11:23Z</time>
      </trkpt>
      <trkpt lat="49.75677" lon="2.17284">
        <ele>90.1</ele>
        <time>2023-01-18T15:11:24Z</time>
      </trkpt>
      <trkpt lat="49.75676" lon="2.17285">
        <ele>90.1</ele>
        <time>2023-01-18T15:11:25Z</time>
      </trkpt>
      <trkpt lat="49.75676" lon="2.17284">
        <ele>90.2</ele>
        <time>2023-01-18T15:11:26Z</time>
      </trkpt>
      <trkpt lat="49.75675" lon="2.17284">
        <ele>90.2</ele>
        <time>2023-01-18T15:11:27Z</time>
      </trkpt>
      <trkpt lat="49.75675" lon="2.17284">
        <ele>90.3</ele>
        <time>2023-01-18T15:11:29Z</time>
      </trkpt>
      <trkpt lat="49.75674" lon="2.17284">
        <ele>90.3</ele>
        <time>2023-01-18T15:11:30Z</time>
      </trkpt>
      <trkpt lat="49.75673" lon="2.17285">
        <ele>90.3</ele>
        <time>2023-01-18T15:11:31Z</time>
      </trkpt>
      <trkpt lat="49.75672" lon="2.17286">
        <ele>90.4</ele>
        <time>2023-01-18T15:11:32Z</time>
      </trkpt>
      <trkpt lat="49.75672" lon="2.17287">
        <ele>90.4</ele>
        <time>2023-01-18T15:11:33Z</time>
      </trkpt>
      <trkpt lat="49.7567" lon="2.17288">
        <ele>90.5</ele>
        <time>2023-01-18T15:11:35Z</time>
      </trkpt>
      <trkpt lat="49.75669" lon="2.17289">
        <ele>90.6</ele>
        <time>2023-01-18T15:11:36Z</time>
      </trkpt>
      <trkpt lat="49.75669" lon="2.1729">
        <ele>90.6</ele>
        <time>2023-01-18T15:11:38Z</time>
      </trkpt>
      <trkpt lat="49.75668" lon="2.17291">
        <ele>90.6</ele>
        <time>2023-01-18T15:11:39Z</time>
      </trkpt>
      <trkpt lat="49.75667" lon="2.17292">
        <ele>90.7</ele>
        <time>2023-01-18T15:11:40Z</time>
      </trkpt>
      <trkpt lat="49.75666" lon="2.17293">
        <ele>90.7</ele>
        <time>2023-01-18T15:11:41Z</time>
      </trkpt>
      <trkpt lat="49.75665" lon="2.17294">
        <ele>90.8</ele>
        <time>2023-01-18T15:11:42Z</time>
      </trkpt>
      <trkpt lat="49.75664" lon="2.17295">
        <ele>90.9</ele>
        <time>2023-01-18T15:11:43Z</time>
      </trkpt>
      <trkpt lat="49.75663" lon="2.17296">
        <ele>90.9</ele>
        <time>2023-01-18T15:11:45Z</time>
      </trkpt>
      <trkpt lat="49.75662" lon="2.17297">
        <ele>91</ele>
        <time>2023-01-18T15:11:46Z</time>
      </trkpt>
      <trkpt lat="49.75661" lon="2.17298">
        <ele>91.1</ele>
        <time>2023-01-18T15:11:47Z</time>
      </trkpt>
      <trkpt lat="49.7566" lon="2.17299">
        <ele>91.1</ele>
        <time>2023-01-18T15:11:48Z</time>
      </trkpt>
      <trkpt lat="49.75659" lon="2.17301">
        <ele>91.2</ele>
        <time>2023-01-18T15:11:49Z</time>
      </trkpt>
      <trkpt lat="49.75658" lon="2.17303">
        <ele>91.3</ele>
        <time>2023-01-18T15:11:50Z</time>
      </trkpt>
      <trkpt lat="49.75657" lon="2.17304">
        <ele>91.3</ele>
        <time>2023-01-18T15:11:52Z</time>
      </trkpt>
      <trkpt lat="49.75657" lon="2.17305">
        <ele>91.4</ele>
        <time>2023-01-18T15:11:53Z</time>
      </trkpt>
      <trkpt lat="49.75656" lon="2.17306">
        <ele>91.4</ele>
        <time>2023-01-18T15:11:54Z</time>
      </trkpt>
      <trkpt lat="49.75655" lon="2.17308">
        <ele>91.5</ele>
        <time>2023-01-18T15:11:55Z</time>
      </trkpt>
      <trkpt lat="49.75655" lon="2.17308">
        <ele>91.5</ele>
        <time>2023-01-18T15:11:56Z</time>
      </trkpt>
      <trkpt lat="49.75654" lon="2.17308">
        <ele>91.6</ele>
        <time>2023-01-18T15:11:57Z</time>
      </trkpt>
      <trkpt lat="49.75654" lon="2.1731">
        <ele>91.6</ele>
        <time>2023-01-18T15:11:59Z</time>
      </trkpt>
      <trkpt lat="49.75653" lon="2.17312">
        <ele>91.7</ele>
        <time>2023-01-18T15:12:00Z</time>
      </trkpt>
      <trkpt lat="49.75653" lon="2.17312">
        <ele>91.7</ele>
        <time>2023-01-18T15:12:01Z</time>
      </trkpt>
      <trkpt lat="49.75652" lon="2.17314">
        <ele>91.8</ele>
        <time>2023-01-18T15:12:02Z</time>
      </trkpt>
      <trkpt lat="49.75651" lon="2.17316">
        <ele>91.8</ele>
        <time>2023-01-18T15:12:03Z</time>
      </trkpt>
      <trkpt lat="49.75651" lon="2.17317">
        <ele>91.9</ele>
        <time>2023-01-18T15:12:04Z</time>
      </trkpt>
      <trkpt lat="49.75651" lon="2.1732">
        <ele>92</ele>
        <time>2023-01-18T15:12:06Z</time>
      </trkpt>
      <trkpt lat="49.75651" lon="2.17322">
        <ele>92</ele>
        <time>2023-01-18T15:12:07Z</time>
      </trkpt>
      <trkpt lat="49.75651" lon="2.17323">
        <ele>92.1</ele>
        <time>2023-01-18T15:12:08Z</time>
      </trkpt>
      <trkpt lat="49.7565" lon="2.17325">
        <ele>92.2</ele>
        <time>2023-01-18T15:12:09Z</time>
      </trkpt>
      <trkpt lat="49.7565" lon="2.17327">
        <ele>92.2</ele>
        <time>2023-01-18T15:12:11Z</time>
      </trkpt>
      <trkpt lat="49.75649" lon="2.17329">
        <ele>92.3</ele>
        <time>2023-01-18T15:12:12Z</time>
      </trkpt>
      <trkpt lat="49.75648" lon="2.1733">
        <ele>92.3</ele>
        <time>2023-01-18T15:12:13Z</time>
      </trkpt>
      <trkpt lat="49.75647" lon="2.1733">
        <ele>92.4</ele>
        <time>2023-01-18T15:12:14Z</time>
      </trkpt>
      <trkpt lat="49.75645" lon="2.17329">
        <ele>92.5</ele>
        <time>2023-01-18T15:12:15Z</time>
      </trkpt>
      <trkpt lat="49.75643" lon="2.17328">
        <ele>92.6</ele>
        <time>2023-01-18T15:12:16Z</time>
      </trkpt>
      <trkpt lat="49.75643" lon="2.17328">
        <ele>92.6</ele>
        <time>2023-01-18T15:12:17Z</time>
      </trkpt>
      <trkpt lat="49.75642" lon="2.17328">
        <ele>92.6</ele>
        <time>2023-01-18T15:12:18Z</time>
      </trkpt>
      <trkpt lat="49.75641" lon="2.17328">
        <ele>92.7</ele>
        <time>2023-01-18T15:12:19Z</time>
      </trkpt>
      <trkpt lat="49.75639" lon="2.17327">
        <ele>92.7</ele>
        <time>2023-01-18T15:12:21Z</time>
      </trkpt>
      <trkpt lat="49.75638" lon="2.17327">
        <ele>92.8</ele>
        <time>2023-01-18T15:12:22Z</time>
      </trkpt>
      <trkpt lat="49.75637" lon="2.17326">
        <ele>92.8</ele>
        <time>2023-01-18T15:12:23Z</time>
      </trkpt>
      <trkpt lat="49.75636" lon="2.17326">
        <ele>92.9</ele>
        <time>2023-01-18T15:12:24Z</time>
      </trkpt>
      <trkpt lat="49.75634" lon="2.17326">
        <ele>93</ele>
        <time>2023-01-18T15:12:25Z</time>
      </trkpt>
      <trkpt lat="49.75633" lon="2.17327">
        <ele>93</ele>
        <time>2023-01-18T15:12:26Z</time>
      </trkpt>
      <trkpt lat="49.75632" lon="2.17327">
        <ele>93.1</ele>
        <time>2023-01-18T15:12:27Z</time>
      </trkpt>
      <trkpt lat="49.75631" lon="2.17328">
        <ele>93.1</ele>
        <time>2023-01-18T15:12:29Z</time>
      </trkpt>
      <trkpt lat="49.75629" lon="2.17329">
        <ele>93.2</ele>
        <time>2023-01-18T15:12:30Z</time>
      </trkpt>
      <trkpt lat="49.75629" lon="2.17329">
        <ele>93.2</ele>
        <time>2023-01-18T15:12:31Z</time>
      </trkpt>
      <trkpt lat="49.75628" lon="2.1733">
        <ele>93.2</ele>
        <time>2023-01-18T15:12:32Z</time>
      </trkpt>
      <trkpt lat="49.75627" lon="2.17331">
        <ele>93.3</ele>
        <time>2023-01-18T15:12:33Z</time>
      </trkpt>
      <trkpt lat="49.75626" lon="2.17332">
        <ele>93.3</ele>
        <time>2023-01-18T15:12:34Z</time>
      </trkpt>
      <trkpt lat="49.75625" lon="2.17334">
        <ele>93.4</ele>
        <time>2023-01-18T15:12:35Z</time>
      </trkpt>
      <trkpt lat="49.75625" lon="2.17335">
        <ele>93.4</ele>
        <time>2023-01-18T15:12:37Z</time>
      </trkpt>
      <trkpt lat="49.75624" lon="2.17336">
        <ele>93.5</ele>
        <time>2023-01-18T15:12:38Z</time>
      </trkpt>
      <trkpt lat="49.75623" lon="2.17336">
        <ele>93.5</ele>
        <time>2023-01-18T15:12:39Z</time>
      </trkpt>
      <trkpt lat="49.75621" lon="2.17337">
        <ele>93.6</ele>
        <time>2023-01-18T15:12:40Z</time>
      </trkpt>
      <trkpt lat="49.7562" lon="2.17337">
        <ele>93.7</ele>
        <time>2023-01-18T15:12:41Z</time>
      </trkpt>
      <trkpt lat="49.75619" lon="2.17337">
        <ele>93.7</ele>
        <time>2023-01-18T15:12:42Z</time>
      </trkpt>
      <trkpt lat="49.75618" lon="2.17338">
        <ele>93.8</ele>
        <time>2023-01-18T15:12:43Z</time>
      </trkpt>
      <trkpt lat="49.75616" lon="2.17338">
        <ele>93.8</ele>
        <time>2023-01-18T15:12:45Z</time>
      </trkpt>
      <trkpt lat="49.75615" lon="2.17338">
        <ele>93.9</ele>
        <time>2023-01-18T15:12:46Z</time>
      </trkpt>
      <trkpt lat="49.75614" lon="2.17338">
        <ele>93.9</ele>
        <time>2023-01-18T15:12:47Z</time>
      </trkpt>
      <trkpt lat="49.75613" lon="2.17338">
        <ele>94</ele>
        <time>2023-01-18T15:12:48Z</time>
      </trkpt>
      <trkpt lat="49.75612" lon="2.17338">
        <ele>94</ele>
        <time>2023-01-18T15:12:49Z</time>
      </trkpt>
      <trkpt lat="49.7561" lon="2.17338">
        <ele>94.1</ele>
        <time>2023-01-18T15:12:50Z</time>
      </trkpt>
      <trkpt lat="49.75609" lon="2.17338">
        <ele>94.1</ele>
        <time>2023-01-18T15:12:51Z</time>
      </trkpt>
      <trkpt lat="49.75608" lon="2.17338">
        <ele>94.2</ele>
        <time>2023-01-18T15:12:52Z</time>
      </trkpt>
      <trkpt lat="49.75607" lon="2.17339">
        <ele>94.2</ele>
        <time>2023-01-18T15:12:53Z</time>
      </trkpt>
      <trkpt lat="49.75605" lon="2.1734">
        <ele>94.3</ele>
        <time>2023-01-18T15:12:55Z</time>
      </trkpt>
      <trkpt lat="49.75605" lon="2.1734">
        <ele>94.3</ele>
        <time>2023-01-18T15:12:56Z</time>
      </trkpt>
      <trkpt lat="49.75604" lon="2.17341">
        <ele>94.4</ele>
        <time>2023-01-18T15:12:57Z</time>
      </trkpt>
      <trkpt lat="49.75603" lon="2.17342">
        <ele>94.4</ele>
        <time>2023-01-18T15:12:58Z</time>
      </trkpt>
      <trkpt lat="49.75601" lon="2.17342">
        <ele>94.5</ele>
        <time>2023-01-18T15:12:59Z</time>
      </trkpt>
      <trkpt lat="49.75599" lon="2.17343">
        <ele>94.6</ele>
        <time>2023-01-18T15:13:00Z</time>
      </trkpt>
      <trkpt lat="49.75599" lon="2.17343">
        <ele>94.6</ele>
        <time>2023-01-18T15:13:01Z</time>
      </trkpt>
      <trkpt lat="49.75598" lon="2.17343">
        <ele>94.6</ele>
        <time>2023-01-18T15:13:03Z</time>
      </trkpt>
      <trkpt lat="49.75597" lon="2.17344">
        <ele>94.7</ele>
        <time>2023-01-18T15:13:04Z</time>
      </trkpt>
      <trkpt lat="49.75596" lon="2.17344">
        <ele>94.7</ele>
        <time>2023-01-18T15:13:05Z</time>
      </trkpt>
      <trkpt lat="49.75594" lon="2.17344">
        <ele>94.8</ele>
        <time>2023-01-18T15:13:06Z</time>
      </trkpt>
      <trkpt lat="49.75593" lon="2.17345">
        <ele>94.9</ele>
        <time>2023-01-18T15:13:07Z</time>
      </trkpt>
      <trkpt lat="49.75592" lon="2.17346">
        <ele>94.9</ele>
        <time>2023-01-18T15:13:08Z</time>
      </trkpt>
      <trkpt lat="49.75591" lon="2.17346">
        <ele>94.9</ele>
        <time>2023-01-18T15:13:09Z</time>
      </trkpt>
      <trkpt lat="49.75589" lon="2.17348">
        <ele>95</ele>
        <time>2023-01-18T15:13:11Z</time>
      </trkpt>
      <trkpt lat="49.75588" lon="2.17349">
        <ele>95</ele>
        <time>2023-01-18T15:13:12Z</time>
      </trkpt>
      <trkpt lat="49.75588" lon="2.17349">
        <ele>95.1</ele>
        <time>2023-01-18T15:13:13Z</time>
      </trkpt>
      <trkpt lat="49.75586" lon="2.1735">
        <ele>95.1</ele>
        <time>2023-01-18T15:13:14Z</time>
      </trkpt>
      <trkpt lat="49.75585" lon="2.1735">
        <ele>95.2</ele>
        <time>2023-01-18T15:13:15Z</time>
      </trkpt>
      <trkpt lat="49.75584" lon="2.1735">
        <ele>95.2</ele>
        <time>2023-01-18T15:13:16Z</time>
      </trkpt>
      <trkpt lat="49.75583" lon="2.17351">
        <ele>95.2</ele>
        <time>2023-01-18T15:13:18Z</time>
      </trkpt>
      <trkpt lat="49.75582" lon="2.17351">
        <ele>95.3</ele>
        <time>2023-01-18T15:13:19Z</time>
      </trkpt>
      <trkpt lat="49.75582" lon="2.17353">
        <ele>95.3</ele>
        <time>2023-01-18T15:13:20Z</time>
      </trkpt>
      <trkpt lat="49.75581" lon="2.17354">
        <ele>95.3</ele>
        <time>2023-01-18T15:13:21Z</time>
      </trkpt>
      <trkpt lat="49.7558" lon="2.17355">
        <ele>95.4</ele>
        <time>2023-01-18T15:13:22Z</time>
      </trkpt>
      <trkpt lat="49.75579" lon="2.17357">
        <ele>95.4</ele>
        <time>2023-01-18T15:13:23Z</time>
      </trkpt>
      <trkpt lat="49.75579" lon="2.1736">
        <ele>95.4</ele>
        <time>2023-01-18T15:13:24Z</time>
      </trkpt>
      <trkpt lat="49.75579" lon="2.17361">
        <ele>95.4</ele>
        <time>2023-01-18T15:13:26Z</time>
      </trkpt>
      <trkpt lat="49.75578" lon="2.17362">
        <ele>95.5</ele>
        <time>2023-01-18T15:13:27Z</time>
      </trkpt>
      <trkpt lat="49.75578" lon="2.17365">
        <ele>95.5</ele>
        <time>2023-01-18T15:13:28Z</time>
      </trkpt>
      <trkpt lat="49.75578" lon="2.17367">
        <ele>95.5</ele>
        <time>2023-01-18T15:13:29Z</time>
      </trkpt>
      <trkpt lat="49.75578" lon="2.17368">
        <ele>95.5</ele>
        <time>2023-01-18T15:13:30Z</time>
      </trkpt>
      <trkpt lat="49.75577" lon="2.17369">
        <ele>95.6</ele>
        <time>2023-01-18T15:13:32Z</time>
      </trkpt>
      <trkpt lat="49.75576" lon="2.1737">
        <ele>95.6</ele>
        <time>2023-01-18T15:13:33Z</time>
      </trkpt>
      <trkpt lat="49.75575" lon="2.17371">
        <ele>95.6</ele>
        <time>2023-01-18T15:13:34Z</time>
      </trkpt>
      <trkpt lat="49.75574" lon="2.17373">
        <ele>95.7</ele>
        <time>2023-01-18T15:13:35Z</time>
      </trkpt>
      <trkpt lat="49.75573" lon="2.17375">
        <ele>95.7</ele>
        <time>2023-01-18T15:13:36Z</time>
      </trkpt>
      <trkpt lat="49.75573" lon="2.17379">
        <ele>95.7</ele>
        <time>2023-01-18T15:13:38Z</time>
      </trkpt>
      <trkpt lat="49.75573" lon="2.17381">
        <ele>95.8</ele>
        <time>2023-01-18T15:13:40Z</time>
      </trkpt>
      <trkpt lat="49.75575" lon="2.17384">
        <ele>95.8</ele>
        <time>2023-01-18T15:13:41Z</time>
      </trkpt>
      <trkpt lat="49.75575" lon="2.17385">
        <ele>95.8</ele>
        <time>2023-01-18T15:13:42Z</time>
      </trkpt>
      <trkpt lat="49.75576" lon="2.17386">
        <ele>95.9</ele>
        <time>2023-01-18T15:13:44Z</time>
      </trkpt>
      <trkpt lat="49.75577" lon="2.17387">
        <ele>95.9</ele>
        <time>2023-01-18T15:13:45Z</time>
      </trkpt>
      <trkpt lat="49.75576" lon="2.17388">
        <ele>95.9</ele>
        <time>2023-01-18T15:13:47Z</time>
      </trkpt>
      <trkpt lat="49.75576" lon="2.17388">
        <ele>95.9</ele>
        <time>2023-01-18T15:13:48Z</time>
      </trkpt>
      <trkpt lat="49.75577" lon="2.17388">
        <ele>95.9</ele>
        <time>2023-01-18T15:13:49Z</time>
      </trkpt>
      <trkpt lat="49.75577" lon="2.17387">
        <ele>95.9</ele>
        <time>2023-01-18T15:13:51Z</time>
      </trkpt>
      <trkpt lat="49.75577" lon="2.17387">
        <ele>95.9</ele>
        <time>2023-01-18T15:13:52Z</time>
      </trkpt>
      <trkpt lat="49.75576" lon="2.17386">
        <ele>95.9</ele>
        <time>2023-01-18T15:13:54Z</time>
      </trkpt>
      <trkpt lat="49.75576" lon="2.17386">
        <ele>95.9</ele>
        <time>2023-01-18T15:13:55Z</time>
      </trkpt>
      <trkpt lat="49.75576" lon="2.17386">
        <ele>95.9</ele>
        <time>2023-01-18T15:13:56Z</time>
      </trkpt>
      <trkpt lat="49.75576" lon="2.17385">
        <ele>95.9</ele>
        <time>2023-01-18T15:13:58Z</time>
      </trkpt>
      <trkpt lat="49.75576" lon="2.17385">
        <ele>95.9</ele>
        <time>2023-01-18T15:13:59Z</time>
      </trkpt>
      <trkpt lat="49.75576" lon="2.17385">
        <ele>95.9</ele>
        <time>2023-01-18T15:14:00Z</time>
      </trkpt>
      <trkpt lat="49.75576" lon="2.17386">
        <ele>95.9</ele>
        <time>2023-01-18T15:14:02Z</time>
      </trkpt>
      <trkpt lat="49.75577" lon="2.17386">
        <ele>95.9</ele>
        <time>2023-01-18T15:14:03Z</time>
      </trkpt>
      <trkpt lat="49.75577" lon="2.17386">
        <ele>95.9</ele>
        <time>2023-01-18T15:14:04Z</time>
      </trkpt>
      <trkpt lat="49.75577" lon="2.17386">
        <ele>95.9</ele>
        <time>2023-01-18T15:14:05Z</time>
      </trkpt>
      <trkpt lat="49.75577" lon="2.17386">
        <ele>95.9</ele>
        <time>2023-01-18T15:14:06Z</time>
      </trkpt>
      <trkpt lat="49.75577" lon="2.17386">
        <ele>95.9</ele>
        <time>2023-01-18T15:14:07Z</time>
      </trkpt>
      <trkpt lat="49.75577" lon="2.17386">
        <ele>95.9</ele>
        <time>2023-01-18T15:14:08Z</time>
      </trkpt>
      <trkpt lat="49.75577" lon="2.17386">
        <ele>95.9</ele>
        <time>2023-01-18T15:14:09Z</time>
      </trkpt>
      <trkpt lat="49.75577" lon="2.17386">
        <ele>95.9</ele>
        <time>2023-01-18T15:14:10Z</time>
      </trkpt>
      <trkpt lat="49.75578" lon="2.17386">
        <ele>96</ele>
        <time>2023-01-18T15:14:11Z</time>
      </trkpt>
      <trkpt lat="49.75577" lon="2.17387">
        <ele>96</ele>
        <time>2023-01-18T15:14:12Z</time>
      </trkpt>
      <trkpt lat="49.75578" lon="2.17387">
        <ele>96</ele>
        <time>2023-01-18T15:14:13Z</time>
      </trkpt>
      <trkpt lat="49.75578" lon="2.17388">
        <ele>96</ele>
        <time>2023-01-18T15:14:14Z</time>
      </trkpt>
      <trkpt lat="49.75578" lon="2.17388">
        <ele>96</ele>
        <time>2023-01-18T15:14:16Z</time>
      </trkpt>
      <trkpt lat="49.75578" lon="2.17389">
        <ele>96</ele>
        <time>2023-01-18T15:14:17Z</time>
      </trkpt>
      <trkpt lat="49.75579" lon="2.17391">
        <ele>96</ele>
        <time>2023-01-18T15:14:18Z</time>
      </trkpt>
      <trkpt lat="49.75579" lon="2.17392">
        <ele>96</ele>
        <time>2023-01-18T15:14:19Z</time>
      </trkpt>
      <trkpt lat="49.75579" lon="2.17394">
        <ele>96</ele>
        <time>2023-01-18T15:14:20Z</time>
      </trkpt>
      <trkpt lat="49.75579" lon="2.17395">
        <ele>96.1</ele>
        <time>2023-01-18T15:14:21Z</time>
      </trkpt>
      <trkpt lat="49.75579" lon="2.17398">
        <ele>96.1</ele>
        <time>2023-01-18T15:14:23Z</time>
      </trkpt>
      <trkpt lat="49.75578" lon="2.174">
        <ele>96.1</ele>
        <time>2023-01-18T15:14:24Z</time>
      </trkpt>
      <trkpt lat="49.75578" lon="2.17403">
        <ele>96.1</ele>
        <time>2023-01-18T15:14:25Z</time>
      </trkpt>
      <trkpt lat="49.75577" lon="2.17404">
        <ele>96.1</ele>
        <time>2023-01-18T15:14:26Z</time>
      </trkpt>
      <trkpt lat="49.75577" lon="2.17406">
        <ele>96.2</ele>
        <time>2023-01-18T15:14:27Z</time>
      </trkpt>
      <trkpt lat="49.75575" lon="2.17409">
        <ele>96.2</ele>
        <time>2023-01-18T15:14:28Z</time>
      </trkpt>
      <trkpt lat="49.75575" lon="2.17409">
        <ele>96.2</ele>
        <time>2023-01-18T15:14:29Z</time>
      </trkpt>
      <trkpt lat="49.75574" lon="2.1741">
        <ele>96.2</ele>
        <time>2023-01-18T15:14:30Z</time>
      </trkpt>
      <trkpt lat="49.75574" lon="2.17411">
        <ele>96.2</ele>
        <time>2023-01-18T15:14:31Z</time>
      </trkpt>
      <trkpt lat="49.75574" lon="2.17412">
        <ele>96.2</ele>
        <time>2023-01-18T15:14:32Z</time>
      </trkpt>
      <trkpt lat="49.75573" lon="2.17414">
        <ele>96.2</ele>
        <time>2023-01-18T15:14:34Z</time>
      </trkpt>
      <trkpt lat="49.75573" lon="2.17415">
        <ele>96.2</ele>
        <time>2023-01-18T15:14:35Z</time>
      </trkpt>
      <trkpt lat="49.75572" lon="2.17417">
        <ele>96.3</ele>
        <time>2023-01-18T15:14:36Z</time>
      </trkpt>
      <trkpt lat="49.75571" lon="2.17418">
        <ele>96.3</ele>
        <time>2023-01-18T15:14:37Z</time>
      </trkpt>
      <trkpt lat="49.75571" lon="2.1742">
        <ele>96.3</ele>
        <time>2023-01-18T15:14:38Z</time>
      </trkpt>
      <trkpt lat="49.7557" lon="2.17422">
        <ele>96.3</ele>
        <time>2023-01-18T15:14:39Z</time>
      </trkpt>
      <trkpt lat="49.75567" lon="2.17426">
        <ele>96.4</ele>
        <time>2023-01-18T15:14:41Z</time>
      </trkpt>
      <trkpt lat="49.75566" lon="2.17427">
        <ele>96.4</ele>
        <time>2023-01-18T15:14:43Z</time>
      </trkpt>
      <trkpt lat="49.75566" lon="2.17429">
        <ele>96.4</ele>
        <time>2023-01-18T15:14:44Z</time>
      </trkpt>
      <trkpt lat="49.75565" lon="2.1743">
        <ele>96.4</ele>
        <time>2023-01-18T15:14:45Z</time>
      </trkpt>
      <trkpt lat="49.75564" lon="2.17432">
        <ele>96.4</ele>
        <time>2023-01-18T15:14:46Z</time>
      </trkpt>
      <trkpt lat="49.75563" lon="2.17434">
        <ele>96.4</ele>
        <time>2023-01-18T15:14:48Z</time>
      </trkpt>
      <trkpt lat="49.75562" lon="2.17435">
        <ele>96.4</ele>
        <time>2023-01-18T15:14:49Z</time>
      </trkpt>
      <trkpt lat="49.7556" lon="2.17436">
        <ele>96.4</ele>
        <time>2023-01-18T15:14:50Z</time>
      </trkpt>
      <trkpt lat="49.75559" lon="2.17436">
        <ele>96.4</ele>
        <time>2023-01-18T15:14:51Z</time>
      </trkpt>
      <trkpt lat="49.75556" lon="2.17437">
        <ele>96.4</ele>
        <time>2023-01-18T15:14:53Z</time>
      </trkpt>
      <trkpt lat="49.75554" lon="2.17438">
        <ele>96.5</ele>
        <time>2023-01-18T15:14:54Z</time>
      </trkpt>
      <trkpt lat="49.75553" lon="2.17438">
        <ele>96.5</ele>
        <time>2023-01-18T15:14:55Z</time>
      </trkpt>
      <trkpt lat="49.75552" lon="2.17438">
        <ele>96.5</ele>
        <time>2023-01-18T15:14:56Z</time>
      </trkpt>
      <trkpt lat="49.75549" lon="2.17439">
        <ele>96.5</ele>
        <time>2023-01-18T15:14:57Z</time>
      </trkpt>
      <trkpt lat="49.75548" lon="2.1744">
        <ele>96.5</ele>
        <time>2023-01-18T15:14:58Z</time>
      </trkpt>
      <trkpt lat="49.75547" lon="2.1744">
        <ele>96.5</ele>
        <time>2023-01-18T15:14:59Z</time>
      </trkpt>
      <trkpt lat="49.75545" lon="2.1744">
        <ele>96.6</ele>
        <time>2023-01-18T15:15:00Z</time>
      </trkpt>
      <trkpt lat="49.75544" lon="2.1744">
        <ele>96.6</ele>
        <time>2023-01-18T15:15:01Z</time>
      </trkpt>
      <trkpt lat="49.75542" lon="2.1744">
        <ele>96.6</ele>
        <time>2023-01-18T15:15:02Z</time>
      </trkpt>
      <trkpt lat="49.75541" lon="2.1744">
        <ele>96.6</ele>
        <time>2023-01-18T15:15:03Z</time>
      </trkpt>
      <trkpt lat="49.7554" lon="2.1744">
        <ele>96.6</ele>
        <time>2023-01-18T15:15:05Z</time>
      </trkpt>
      <trkpt lat="49.75537" lon="2.17441">
        <ele>96.7</ele>
        <time>2023-01-18T15:15:06Z</time>
      </trkpt>
      <trkpt lat="49.75536" lon="2.17442">
        <ele>96.7</ele>
        <time>2023-01-18T15:15:07Z</time>
      </trkpt>
      <trkpt lat="49.75534" lon="2.17443">
        <ele>96.7</ele>
        <time>2023-01-18T15:15:08Z</time>
      </trkpt>
      <trkpt lat="49.75533" lon="2.17444">
        <ele>96.7</ele>
        <time>2023-01-18T15:15:09Z</time>
      </trkpt>
      <trkpt lat="49.75532" lon="2.17444">
        <ele>96.7</ele>
        <time>2023-01-18T15:15:10Z</time>
      </trkpt>
      <trkpt lat="49.7553" lon="2.17444">
        <ele>96.7</ele>
        <time>2023-01-18T15:15:11Z</time>
      </trkpt>
      <trkpt lat="49.7553" lon="2.17443">
        <ele>96.8</ele>
        <time>2023-01-18T15:15:13Z</time>
      </trkpt>
      <trkpt lat="49.7553" lon="2.17442">
        <ele>96.8</ele>
        <time>2023-01-18T15:15:14Z</time>
      </trkpt>
      <trkpt lat="49.75529" lon="2.17442">
        <ele>96.8</ele>
        <time>2023-01-18T15:15:15Z</time>
      </trkpt>
      <trkpt lat="49.75529" lon="2.17442">
        <ele>96.8</ele>
        <time>2023-01-18T15:15:16Z</time>
      </trkpt>
      <trkpt lat="49.75528" lon="2.17444">
        <ele>96.8</ele>
        <time>2023-01-18T15:15:17Z</time>
      </trkpt>
      <trkpt lat="49.75527" lon="2.17444">
        <ele>96.8</ele>
        <time>2023-01-18T15:15:18Z</time>
      </trkpt>
      <trkpt lat="49.75525" lon="2.17444">
        <ele>96.8</ele>
        <time>2023-01-18T15:15:20Z</time>
      </trkpt>
      <trkpt lat="49.75524" lon="2.17444">
        <ele>96.9</ele>
        <time>2023-01-18T15:15:21Z</time>
      </trkpt>
      <trkpt lat="49.75522" lon="2.17445">
        <ele>96.9</ele>
        <time>2023-01-18T15:15:22Z</time>
      </trkpt>
      <trkpt lat="49.75521" lon="2.17445">
        <ele>96.9</ele>
        <time>2023-01-18T15:15:23Z</time>
      </trkpt>
      <trkpt lat="49.75519" lon="2.17446">
        <ele>96.9</ele>
        <time>2023-01-18T15:15:24Z</time>
      </trkpt>
      <trkpt lat="49.75518" lon="2.17446">
        <ele>96.9</ele>
        <time>2023-01-18T15:15:25Z</time>
      </trkpt>
      <trkpt lat="49.75517" lon="2.17446">
        <ele>97</ele>
        <time>2023-01-18T15:15:26Z</time>
      </trkpt>
      <trkpt lat="49.75515" lon="2.17446">
        <ele>97</ele>
        <time>2023-01-18T15:15:27Z</time>
      </trkpt>
      <trkpt lat="49.75514" lon="2.17446">
        <ele>97</ele>
        <time>2023-01-18T15:15:28Z</time>
      </trkpt>
      <trkpt lat="49.75514" lon="2.17447">
        <ele>97</ele>
        <time>2023-01-18T15:15:30Z</time>
      </trkpt>
      <trkpt lat="49.75513" lon="2.17447">
        <ele>97</ele>
        <time>2023-01-18T15:15:31Z</time>
      </trkpt>
      <trkpt lat="49.75511" lon="2.1745">
        <ele>97.1</ele>
        <time>2023-01-18T15:15:32Z</time>
      </trkpt>
      <trkpt lat="49.75511" lon="2.17451">
        <ele>97.1</ele>
        <time>2023-01-18T15:15:33Z</time>
      </trkpt>
      <trkpt lat="49.7551" lon="2.17451">
        <ele>97.1</ele>
        <time>2023-01-18T15:15:34Z</time>
      </trkpt>
      <trkpt lat="49.75508" lon="2.17452">
        <ele>97.1</ele>
        <time>2023-01-18T15:15:36Z</time>
      </trkpt>
      <trkpt lat="49.75507" lon="2.17456">
        <ele>97.2</ele>
        <time>2023-01-18T15:15:37Z</time>
      </trkpt>
      <trkpt lat="49.75506" lon="2.17458">
        <ele>97.2</ele>
        <time>2023-01-18T15:15:38Z</time>
      </trkpt>
      <trkpt lat="49.75505" lon="2.17458">
        <ele>97.2</ele>
        <time>2023-01-18T15:15:39Z</time>
      </trkpt>
      <trkpt lat="49.75504" lon="2.17458">
        <ele>97.2</ele>
        <time>2023-01-18T15:15:40Z</time>
      </trkpt>
      <trkpt lat="49.75503" lon="2.17459">
        <ele>97.2</ele>
        <time>2023-01-18T15:15:41Z</time>
      </trkpt>
      <trkpt lat="49.75503" lon="2.1746">
        <ele>97.3</ele>
        <time>2023-01-18T15:15:42Z</time>
      </trkpt>
      <trkpt lat="49.75502" lon="2.17461">
        <ele>97.3</ele>
        <time>2023-01-18T15:15:43Z</time>
      </trkpt>
      <trkpt lat="49.75501" lon="2.17462">
        <ele>97.3</ele>
        <time>2023-01-18T15:15:45Z</time>
      </trkpt>
      <trkpt lat="49.755" lon="2.17462">
        <ele>97.3</ele>
        <time>2023-01-18T15:15:46Z</time>
      </trkpt>
      <trkpt lat="49.75497" lon="2.17463">
        <ele>97.4</ele>
        <time>2023-01-18T15:15:47Z</time>
      </trkpt>
      <trkpt lat="49.75496" lon="2.17463">
        <ele>97.4</ele>
        <time>2023-01-18T15:15:48Z</time>
      </trkpt>
      <trkpt lat="49.75495" lon="2.17463">
        <ele>97.4</ele>
        <time>2023-01-18T15:15:49Z</time>
      </trkpt>
      <trkpt lat="49.75495" lon="2.17463">
        <ele>97.4</ele>
        <time>2023-01-18T15:15:50Z</time>
      </trkpt>
      <trkpt lat="49.75494" lon="2.17463">
        <ele>97.5</ele>
        <time>2023-01-18T15:15:51Z</time>
      </trkpt>
      <trkpt lat="49.75493" lon="2.17465">
        <ele>97.5</ele>
        <time>2023-01-18T15:15:52Z</time>
      </trkpt>
      <trkpt lat="49.75493" lon="2.17465">
        <ele>97.5</ele>
        <time>2023-01-18T15:15:53Z</time>
      </trkpt>
      <trkpt lat="49.75492" lon="2.17465">
        <ele>97.5</ele>
        <time>2023-01-18T15:15:54Z</time>
      </trkpt>
      <trkpt lat="49.7549" lon="2.17465">
        <ele>97.5</ele>
        <time>2023-01-18T15:15:56Z</time>
      </trkpt>
      <trkpt lat="49.7549" lon="2.17465">
        <ele>97.6</ele>
        <time>2023-01-18T15:15:57Z</time>
      </trkpt>
      <trkpt lat="49.7549" lon="2.17466">
        <ele>97.6</ele>
        <time>2023-01-18T15:15:58Z</time>
      </trkpt>
      <trkpt lat="49.75489" lon="2.17466">
        <ele>97.6</ele>
        <time>2023-01-18T15:15:59Z</time>
      </trkpt>
      <trkpt lat="49.75487" lon="2.17466">
        <ele>97.6</ele>
        <time>2023-01-18T15:16:00Z</time>
      </trkpt>
      <trkpt lat="49.75484" lon="2.17467">
        <ele>97.7</ele>
        <time>2023-01-18T15:16:01Z</time>
      </trkpt>
      <trkpt lat="49.75483" lon="2.17468">
        <ele>97.7</ele>
        <time>2023-01-18T15:16:02Z</time>
      </trkpt>
      <trkpt lat="49.75481" lon="2.17468">
        <ele>97.7</ele>
        <time>2023-01-18T15:16:04Z</time>
      </trkpt>
      <trkpt lat="49.7548" lon="2.17468">
        <ele>97.8</ele>
        <time>2023-01-18T15:16:05Z</time>
      </trkpt>
      <trkpt lat="49.75479" lon="2.17468">
        <ele>97.8</ele>
        <time>2023-01-18T15:16:06Z</time>
      </trkpt>
      <trkpt lat="49.75477" lon="2.17468">
        <ele>97.8</ele>
        <time>2023-01-18T15:16:07Z</time>
      </trkpt>
      <trkpt lat="49.75477" lon="2.17469">
        <ele>97.8</ele>
        <time>2023-01-18T15:16:08Z</time>
      </trkpt>
      <trkpt lat="49.75476" lon="2.17469">
        <ele>97.8</ele>
        <time>2023-01-18T15:16:09Z</time>
      </trkpt>
      <trkpt lat="49.75475" lon="2.1747">
        <ele>97.9</ele>
        <time>2023-01-18T15:16:10Z</time>
      </trkpt>
      <trkpt lat="49.75472" lon="2.17469">
        <ele>97.9</ele>
        <time>2023-01-18T15:16:12Z</time>
      </trkpt>
      <trkpt lat="49.75472" lon="2.17469">
        <ele>97.9</ele>
        <time>2023-01-18T15:16:13Z</time>
      </trkpt>
      <trkpt lat="49.75471" lon="2.1747">
        <ele>97.9</ele>
        <time>2023-01-18T15:16:14Z</time>
      </trkpt>
      <trkpt lat="49.7547" lon="2.1747">
        <ele>98</ele>
        <time>2023-01-18T15:16:15Z</time>
      </trkpt>
      <trkpt lat="49.75469" lon="2.17471">
        <ele>98</ele>
        <time>2023-01-18T15:16:16Z</time>
      </trkpt>
      <trkpt lat="49.75468" lon="2.17474">
        <ele>98</ele>
        <time>2023-01-18T15:16:17Z</time>
      </trkpt>
      <trkpt lat="49.75468" lon="2.17474">
        <ele>98</ele>
        <time>2023-01-18T15:16:18Z</time>
      </trkpt>
      <trkpt lat="49.75467" lon="2.17475">
        <ele>98</ele>
        <time>2023-01-18T15:16:20Z</time>
      </trkpt>
      <trkpt lat="49.75466" lon="2.17476">
        <ele>98</ele>
        <time>2023-01-18T15:16:21Z</time>
      </trkpt>
      <trkpt lat="49.75465" lon="2.17478">
        <ele>98.1</ele>
        <time>2023-01-18T15:16:22Z</time>
      </trkpt>
      <trkpt lat="49.75465" lon="2.17479">
        <ele>98.1</ele>
        <time>2023-01-18T15:16:23Z</time>
      </trkpt>
      <trkpt lat="49.75464" lon="2.17479">
        <ele>98.1</ele>
        <time>2023-01-18T15:16:24Z</time>
      </trkpt>
      <trkpt lat="49.75463" lon="2.1748">
        <ele>98.1</ele>
        <time>2023-01-18T15:16:25Z</time>
      </trkpt>
      <trkpt lat="49.75462" lon="2.17481">
        <ele>98.1</ele>
        <time>2023-01-18T15:16:26Z</time>
      </trkpt>
      <trkpt lat="49.75462" lon="2.17483">
        <ele>98.1</ele>
        <time>2023-01-18T15:16:27Z</time>
      </trkpt>
      <trkpt lat="49.75461" lon="2.17483">
        <ele>98.1</ele>
        <time>2023-01-18T15:16:28Z</time>
      </trkpt>
      <trkpt lat="49.75461" lon="2.17484">
        <ele>98.1</ele>
        <time>2023-01-18T15:16:30Z</time>
      </trkpt>
      <trkpt lat="49.75461" lon="2.17485">
        <ele>98.2</ele>
        <time>2023-01-18T15:16:31Z</time>
      </trkpt>
      <trkpt lat="49.75459" lon="2.17488">
        <ele>98.2</ele>
        <time>2023-01-18T15:16:32Z</time>
      </trkpt>
      <trkpt lat="49.75459" lon="2.17488">
        <ele>98.2</ele>
        <time>2023-01-18T15:16:33Z</time>
      </trkpt>
      <trkpt lat="49.75459" lon="2.1749">
        <ele>98.2</ele>
        <time>2023-01-18T15:16:34Z</time>
      </trkpt>
      <trkpt lat="49.75457" lon="2.17492">
        <ele>98.2</ele>
        <time>2023-01-18T15:16:35Z</time>
      </trkpt>
      <trkpt lat="49.75457" lon="2.17493">
        <ele>98.2</ele>
        <time>2023-01-18T15:16:36Z</time>
      </trkpt>
      <trkpt lat="49.75456" lon="2.17494">
        <ele>98.2</ele>
        <time>2023-01-18T15:16:37Z</time>
      </trkpt>
      <trkpt lat="49.75455" lon="2.17497">
        <ele>98.3</ele>
        <time>2023-01-18T15:16:38Z</time>
      </trkpt>
      <trkpt lat="49.75455" lon="2.17498">
        <ele>98.3</ele>
        <time>2023-01-18T15:16:40Z</time>
      </trkpt>
      <trkpt lat="49.75455" lon="2.175">
        <ele>98.3</ele>
        <time>2023-01-18T15:16:41Z</time>
      </trkpt>
      <trkpt lat="49.75453" lon="2.17504">
        <ele>98.3</ele>
        <time>2023-01-18T15:16:42Z</time>
      </trkpt>
      <trkpt lat="49.75453" lon="2.17505">
        <ele>98.3</ele>
        <time>2023-01-18T15:16:44Z</time>
      </trkpt>
      <trkpt lat="49.75452" lon="2.17507">
        <ele>98.3</ele>
        <time>2023-01-18T15:16:45Z</time>
      </trkpt>
      <trkpt lat="49.75452" lon="2.17509">
        <ele>98.3</ele>
        <time>2023-01-18T15:16:46Z</time>
      </trkpt>
      <trkpt lat="49.75451" lon="2.1751">
        <ele>98.3</ele>
        <time>2023-01-18T15:16:47Z</time>
      </trkpt>
      <trkpt lat="49.75451" lon="2.17511">
        <ele>98.3</ele>
        <time>2023-01-18T15:16:48Z</time>
      </trkpt>
      <trkpt lat="49.7545" lon="2.17513">
        <ele>98.3</ele>
        <time>2023-01-18T15:16:49Z</time>
      </trkpt>
      <trkpt lat="49.7545" lon="2.17514">
        <ele>98.3</ele>
        <time>2023-01-18T15:16:50Z</time>
      </trkpt>
      <trkpt lat="49.75449" lon="2.17516">
        <ele>98.4</ele>
        <time>2023-01-18T15:16:51Z</time>
      </trkpt>
      <trkpt lat="49.75449" lon="2.17518">
        <ele>98.4</ele>
        <time>2023-01-18T15:16:52Z</time>
      </trkpt>
      <trkpt lat="49.75448" lon="2.17519">
        <ele>98.4</ele>
        <time>2023-01-18T15:16:54Z</time>
      </trkpt>
      <trkpt lat="49.75447" lon="2.17522">
        <ele>98.4</ele>
        <time>2023-01-18T15:16:55Z</time>
      </trkpt>
      <trkpt lat="49.75446" lon="2.17524">
        <ele>98.4</ele>
        <time>2023-01-18T15:16:56Z</time>
      </trkpt>
      <trkpt lat="49.75446" lon="2.17525">
        <ele>98.4</ele>
        <time>2023-01-18T15:16:57Z</time>
      </trkpt>
      <trkpt lat="49.75446" lon="2.17526">
        <ele>98.4</ele>
        <time>2023-01-18T15:16:58Z</time>
      </trkpt>
      <trkpt lat="49.75445" lon="2.17527">
        <ele>98.4</ele>
        <time>2023-01-18T15:16:59Z</time>
      </trkpt>
      <trkpt lat="49.75444" lon="2.17529">
        <ele>98.4</ele>
        <time>2023-01-18T15:17:01Z</time>
      </trkpt>
      <trkpt lat="49.75444" lon="2.1753">
        <ele>98.4</ele>
        <time>2023-01-18T15:17:02Z</time>
      </trkpt>
      <trkpt lat="49.75444" lon="2.17532">
        <ele>98.4</ele>
        <time>2023-01-18T15:17:03Z</time>
      </trkpt>
      <trkpt lat="49.75444" lon="2.17532">
        <ele>98.4</ele>
        <time>2023-01-18T15:17:04Z</time>
      </trkpt>
      <trkpt lat="49.75444" lon="2.17533">
        <ele>98.4</ele>
        <time>2023-01-18T15:17:05Z</time>
      </trkpt>
      <trkpt lat="49.75443" lon="2.17534">
        <ele>98.4</ele>
        <time>2023-01-18T15:17:06Z</time>
      </trkpt>
      <trkpt lat="49.75443" lon="2.17535">
        <ele>98.4</ele>
        <time>2023-01-18T15:17:07Z</time>
      </trkpt>
      <trkpt lat="49.75442" lon="2.17536">
        <ele>98.4</ele>
        <time>2023-01-18T15:17:08Z</time>
      </trkpt>
      <trkpt lat="49.75442" lon="2.17537">
        <ele>98.4</ele>
        <time>2023-01-18T15:17:09Z</time>
      </trkpt>
      <trkpt lat="49.7544" lon="2.1754">
        <ele>98.4</ele>
        <time>2023-01-18T15:17:11Z</time>
      </trkpt>
      <trkpt lat="49.75439" lon="2.17541">
        <ele>98.4</ele>
        <time>2023-01-18T15:17:12Z</time>
      </trkpt>
      <trkpt lat="49.75439" lon="2.17542">
        <ele>98.4</ele>
        <time>2023-01-18T15:17:13Z</time>
      </trkpt>
      <trkpt lat="49.75438" lon="2.17544">
        <ele>98.4</ele>
        <time>2023-01-18T15:17:14Z</time>
      </trkpt>
      <trkpt lat="49.75438" lon="2.17545">
        <ele>98.4</ele>
        <time>2023-01-18T15:17:15Z</time>
      </trkpt>
      <trkpt lat="49.75437" lon="2.17546">
        <ele>98.4</ele>
        <time>2023-01-18T15:17:16Z</time>
      </trkpt>
      <trkpt lat="49.75435" lon="2.1755">
        <ele>98.4</ele>
        <time>2023-01-18T15:17:17Z</time>
      </trkpt>
      <trkpt lat="49.75435" lon="2.1755">
        <ele>98.4</ele>
        <time>2023-01-18T15:17:18Z</time>
      </trkpt>
      <trkpt lat="49.75435" lon="2.17551">
        <ele>98.4</ele>
        <time>2023-01-18T15:17:19Z</time>
      </trkpt>
      <trkpt lat="49.75434" lon="2.17552">
        <ele>98.4</ele>
        <time>2023-01-18T15:17:21Z</time>
      </trkpt>
      <trkpt lat="49.75433" lon="2.17553">
        <ele>98.4</ele>
        <time>2023-01-18T15:17:22Z</time>
      </trkpt>
      <trkpt lat="49.75433" lon="2.17555">
        <ele>98.4</ele>
        <time>2023-01-18T15:17:23Z</time>
      </trkpt>
      <trkpt lat="49.75432" lon="2.17556">
        <ele>98.4</ele>
        <time>2023-01-18T15:17:24Z</time>
      </trkpt>
      <trkpt lat="49.75431" lon="2.17557">
        <ele>98.4</ele>
        <time>2023-01-18T15:17:25Z</time>
      </trkpt>
      <trkpt lat="49.7543" lon="2.17559">
        <ele>98.4</ele>
        <time>2023-01-18T15:17:26Z</time>
      </trkpt>
      <trkpt lat="49.75428" lon="2.17561">
        <ele>98.4</ele>
        <time>2023-01-18T15:17:27Z</time>
      </trkpt>
      <trkpt lat="49.75428" lon="2.17562">
        <ele>98.4</ele>
        <time>2023-01-18T15:17:28Z</time>
      </trkpt>
      <trkpt lat="49.75428" lon="2.17563">
        <ele>98.4</ele>
        <time>2023-01-18T15:17:29Z</time>
      </trkpt>
      <trkpt lat="49.75427" lon="2.17565">
        <ele>98.4</ele>
        <time>2023-01-18T15:17:30Z</time>
      </trkpt>
      <trkpt lat="49.75426" lon="2.17566">
        <ele>98.4</ele>
        <time>2023-01-18T15:17:32Z</time>
      </trkpt>
      <trkpt lat="49.75425" lon="2.17566">
        <ele>98.4</ele>
        <time>2023-01-18T15:17:33Z</time>
      </trkpt>
      <trkpt lat="49.75424" lon="2.17566">
        <ele>98.4</ele>
        <time>2023-01-18T15:17:34Z</time>
      </trkpt>
      <trkpt lat="49.75423" lon="2.17567">
        <ele>98.4</ele>
        <time>2023-01-18T15:17:35Z</time>
      </trkpt>
      <trkpt lat="49.75422" lon="2.17568">
        <ele>98.4</ele>
        <time>2023-01-18T15:17:36Z</time>
      </trkpt>
      <trkpt lat="49.75421" lon="2.17571">
        <ele>98.4</ele>
        <time>2023-01-18T15:17:37Z</time>
      </trkpt>
      <trkpt lat="49.7542" lon="2.17573">
        <ele>98.4</ele>
        <time>2023-01-18T15:17:38Z</time>
      </trkpt>
      <trkpt lat="49.7542" lon="2.17574">
        <ele>98.4</ele>
        <time>2023-01-18T15:17:39Z</time>
      </trkpt>
      <trkpt lat="49.75419" lon="2.17575">
        <ele>98.4</ele>
        <time>2023-01-18T15:17:40Z</time>
      </trkpt>
      <trkpt lat="49.75419" lon="2.17577">
        <ele>98.4</ele>
        <time>2023-01-18T15:17:41Z</time>
      </trkpt>
      <trkpt lat="49.75418" lon="2.1758">
        <ele>98.4</ele>
        <time>2023-01-18T15:17:43Z</time>
      </trkpt>
      <trkpt lat="49.75418" lon="2.17581">
        <ele>98.4</ele>
        <time>2023-01-18T15:17:44Z</time>
      </trkpt>
      <trkpt lat="49.75418" lon="2.17582">
        <ele>98.4</ele>
        <time>2023-01-18T15:17:45Z</time>
      </trkpt>
      <trkpt lat="49.75418" lon="2.17585">
        <ele>98.4</ele>
        <time>2023-01-18T15:17:46Z</time>
      </trkpt>
      <trkpt lat="49.75418" lon="2.17586">
        <ele>98.4</ele>
        <time>2023-01-18T15:17:47Z</time>
      </trkpt>
      <trkpt lat="49.75418" lon="2.17588">
        <ele>98.4</ele>
        <time>2023-01-18T15:17:48Z</time>
      </trkpt>
      <trkpt lat="49.75417" lon="2.17589">
        <ele>98.4</ele>
        <time>2023-01-18T15:17:49Z</time>
      </trkpt>
      <trkpt lat="49.75416" lon="2.1759">
        <ele>98.4</ele>
        <time>2023-01-18T15:17:50Z</time>
      </trkpt>
      <trkpt lat="49.75416" lon="2.17591">
        <ele>98.4</ele>
        <time>2023-01-18T15:17:51Z</time>
      </trkpt>
      <trkpt lat="49.75415" lon="2.17592">
        <ele>98.4</ele>
        <time>2023-01-18T15:17:53Z</time>
      </trkpt>
      <trkpt lat="49.75415" lon="2.17593">
        <ele>98.3</ele>
        <time>2023-01-18T15:17:54Z</time>
      </trkpt>
      <trkpt lat="49.75414" lon="2.17593">
        <ele>98.3</ele>
        <time>2023-01-18T15:17:55Z</time>
      </trkpt>
      <trkpt lat="49.75414" lon="2.17592">
        <ele>98.3</ele>
        <time>2023-01-18T15:17:56Z</time>
      </trkpt>
      <trkpt lat="49.75413" lon="2.17592">
        <ele>98.3</ele>
        <time>2023-01-18T15:17:57Z</time>
      </trkpt>
      <trkpt lat="49.75413" lon="2.17593">
        <ele>98.3</ele>
        <time>2023-01-18T15:17:58Z</time>
      </trkpt>
      <trkpt lat="49.75412" lon="2.17595">
        <ele>98.3</ele>
        <time>2023-01-18T15:17:59Z</time>
      </trkpt>
      <trkpt lat="49.75411" lon="2.17596">
        <ele>98.3</ele>
        <time>2023-01-18T15:18:00Z</time>
      </trkpt>
      <trkpt lat="49.75411" lon="2.17598">
        <ele>98.3</ele>
        <time>2023-01-18T15:18:02Z</time>
      </trkpt>
      <trkpt lat="49.7541" lon="2.17599">
        <ele>98.3</ele>
        <time>2023-01-18T15:18:03Z</time>
      </trkpt>
      <trkpt lat="49.75409" lon="2.176">
        <ele>98.3</ele>
        <time>2023-01-18T15:18:04Z</time>
      </trkpt>
      <trkpt lat="49.75408" lon="2.17601">
        <ele>98.3</ele>
        <time>2023-01-18T15:18:05Z</time>
      </trkpt>
      <trkpt lat="49.75408" lon="2.17602">
        <ele>98.3</ele>
        <time>2023-01-18T15:18:06Z</time>
      </trkpt>
      <trkpt lat="49.75407" lon="2.17602">
        <ele>98.3</ele>
        <time>2023-01-18T15:18:07Z</time>
      </trkpt>
      <trkpt lat="49.75405" lon="2.17604">
        <ele>98.3</ele>
        <time>2023-01-18T15:18:08Z</time>
      </trkpt>
      <trkpt lat="49.75405" lon="2.17606">
        <ele>98.3</ele>
        <time>2023-01-18T15:18:09Z</time>
      </trkpt>
      <trkpt lat="49.75403" lon="2.17608">
        <ele>98.3</ele>
        <time>2023-01-18T15:18:11Z</time>
      </trkpt>
      <trkpt lat="49.75403" lon="2.1761">
        <ele>98.3</ele>
        <time>2023-01-18T15:18:12Z</time>
      </trkpt>
      <trkpt lat="49.75402" lon="2.17611">
        <ele>98.3</ele>
        <time>2023-01-18T15:18:13Z</time>
      </trkpt>
      <trkpt lat="49.75402" lon="2.17612">
        <ele>98.3</ele>
        <time>2023-01-18T15:18:14Z</time>
      </trkpt>
      <trkpt lat="49.75401" lon="2.17613">
        <ele>98.3</ele>
        <time>2023-01-18T15:18:15Z</time>
      </trkpt>
      <trkpt lat="49.754" lon="2.17614">
        <ele>98.3</ele>
        <time>2023-01-18T15:18:16Z</time>
      </trkpt>
      <trkpt lat="49.75398" lon="2.17617">
        <ele>98.3</ele>
        <time>2023-01-18T15:18:17Z</time>
      </trkpt>
      <trkpt lat="49.75397" lon="2.17618">
        <ele>98.3</ele>
        <time>2023-01-18T15:18:19Z</time>
      </trkpt>
      <trkpt lat="49.75396" lon="2.17619">
        <ele>98.3</ele>
        <time>2023-01-18T15:18:20Z</time>
      </trkpt>
      <trkpt lat="49.75395" lon="2.1762">
        <ele>98.3</ele>
        <time>2023-01-18T15:18:21Z</time>
      </trkpt>
      <trkpt lat="49.75393" lon="2.17623">
        <ele>98.3</ele>
        <time>2023-01-18T15:18:22Z</time>
      </trkpt>
      <trkpt lat="49.75392" lon="2.17625">
        <ele>98.3</ele>
        <time>2023-01-18T15:18:23Z</time>
      </trkpt>
      <trkpt lat="49.75392" lon="2.17626">
        <ele>98.3</ele>
        <time>2023-01-18T15:18:24Z</time>
      </trkpt>
      <trkpt lat="49.75391" lon="2.17627">
        <ele>98.3</ele>
        <time>2023-01-18T15:18:25Z</time>
      </trkpt>
      <trkpt lat="49.7539" lon="2.17629">
        <ele>98.3</ele>
        <time>2023-01-18T15:18:26Z</time>
      </trkpt>
      <trkpt lat="49.75388" lon="2.17634">
        <ele>98.3</ele>
        <time>2023-01-18T15:18:27Z</time>
      </trkpt>
      <trkpt lat="49.75387" lon="2.17635">
        <ele>98.3</ele>
        <time>2023-01-18T15:18:29Z</time>
      </trkpt>
      <trkpt lat="49.75387" lon="2.17637">
        <ele>98.3</ele>
        <time>2023-01-18T15:18:30Z</time>
      </trkpt>
      <trkpt lat="49.75386" lon="2.17639">
        <ele>98.3</ele>
        <time>2023-01-18T15:18:31Z</time>
      </trkpt>
      <trkpt lat="49.75386" lon="2.17642">
        <ele>98.3</ele>
        <time>2023-01-18T15:18:32Z</time>
      </trkpt>
      <trkpt lat="49.75386" lon="2.17643">
        <ele>98.3</ele>
        <time>2023-01-18T15:18:33Z</time>
      </trkpt>
      <trkpt lat="49.75386" lon="2.17644">
        <ele>98.3</ele>
        <time>2023-01-18T15:18:34Z</time>
      </trkpt>
      <trkpt lat="49.75386" lon="2.17649">
        <ele>98.3</ele>
        <time>2023-01-18T15:18:35Z</time>
      </trkpt>
      <trkpt lat="49.75386" lon="2.17651">
        <ele>98.3</ele>
        <time>2023-01-18T15:18:37Z</time>
      </trkpt>
      <trkpt lat="49.75386" lon="2.17653">
        <ele>98.4</ele>
        <time>2023-01-18T15:18:38Z</time>
      </trkpt>
      <trkpt lat="49.75386" lon="2.17654">
        <ele>98.4</ele>
        <time>2023-01-18T15:18:39Z</time>
      </trkpt>
      <trkpt lat="49.75386" lon="2.17656">
        <ele>98.4</ele>
        <time>2023-01-18T15:18:40Z</time>
      </trkpt>
      <trkpt lat="49.75386" lon="2.17657">
        <ele>98.4</ele>
        <time>2023-01-18T15:18:41Z</time>
      </trkpt>
      <trkpt lat="49.75386" lon="2.17658">
        <ele>98.4</ele>
        <time>2023-01-18T15:18:42Z</time>
      </trkpt>
      <trkpt lat="49.75387" lon="2.1766">
        <ele>98.4</ele>
        <time>2023-01-18T15:18:43Z</time>
      </trkpt>
      <trkpt lat="49.75387" lon="2.17662">
        <ele>98.4</ele>
        <time>2023-01-18T15:18:45Z</time>
      </trkpt>
      <trkpt lat="49.75387" lon="2.17663">
        <ele>98.4</ele>
        <time>2023-01-18T15:18:46Z</time>
      </trkpt>
      <trkpt lat="49.75387" lon="2.17665">
        <ele>98.4</ele>
        <time>2023-01-18T15:18:47Z</time>
      </trkpt>
      <trkpt lat="49.75386" lon="2.17666">
        <ele>98.4</ele>
        <time>2023-01-18T15:18:48Z</time>
      </trkpt>
      <trkpt lat="49.75385" lon="2.17667">
        <ele>98.5</ele>
        <time>2023-01-18T15:18:49Z</time>
      </trkpt>
      <trkpt lat="49.75384" lon="2.17669">
        <ele>98.5</ele>
        <time>2023-01-18T15:18:50Z</time>
      </trkpt>
      <trkpt lat="49.75383" lon="2.1767">
        <ele>98.5</ele>
        <time>2023-01-18T15:18:52Z</time>
      </trkpt>
      <trkpt lat="49.75382" lon="2.17671">
        <ele>98.5</ele>
        <time>2023-01-18T15:18:53Z</time>
      </trkpt>
      <trkpt lat="49.75382" lon="2.17671">
        <ele>98.5</ele>
        <time>2023-01-18T15:18:54Z</time>
      </trkpt>
      <trkpt lat="49.75382" lon="2.17672">
        <ele>98.5</ele>
        <time>2023-01-18T15:18:55Z</time>
      </trkpt>
      <trkpt lat="49.75382" lon="2.17674">
        <ele>98.5</ele>
        <time>2023-01-18T15:18:56Z</time>
      </trkpt>
      <trkpt lat="49.75382" lon="2.17676">
        <ele>98.5</ele>
        <time>2023-01-18T15:18:57Z</time>
      </trkpt>
      <trkpt lat="49.7538" lon="2.17677">
        <ele>98.5</ele>
        <time>2023-01-18T15:18:58Z</time>
      </trkpt>
      <trkpt lat="49.7538" lon="2.17678">
        <ele>98.5</ele>
        <time>2023-01-18T15:19:00Z</time>
      </trkpt>
      <trkpt lat="49.7538" lon="2.17679">
        <ele>98.6</ele>
        <time>2023-01-18T15:19:01Z</time>
      </trkpt>
      <trkpt lat="49.75379" lon="2.1768">
        <ele>98.6</ele>
        <time>2023-01-18T15:19:02Z</time>
      </trkpt>
      <trkpt lat="49.75379" lon="2.17682">
        <ele>98.6</ele>
        <time>2023-01-18T15:19:03Z</time>
      </trkpt>
      <trkpt lat="49.75379" lon="2.17683">
        <ele>98.6</ele>
        <time>2023-01-18T15:19:04Z</time>
      </trkpt>
      <trkpt lat="49.75379" lon="2.17685">
        <ele>98.6</ele>
        <time>2023-01-18T15:19:06Z</time>
      </trkpt>
      <trkpt lat="49.75378" lon="2.17686">
        <ele>98.6</ele>
        <time>2023-01-18T15:19:07Z</time>
      </trkpt>
      <trkpt lat="49.75378" lon="2.17688">
        <ele>98.6</ele>
        <time>2023-01-18T15:19:08Z</time>
      </trkpt>
      <trkpt lat="49.75378" lon="2.17688">
        <ele>98.6</ele>
        <time>2023-01-18T15:19:09Z</time>
      </trkpt>
      <trkpt lat="49.75377" lon="2.1769">
        <ele>98.6</ele>
        <time>2023-01-18T15:19:11Z</time>
      </trkpt>
      <trkpt lat="49.75377" lon="2.17691">
        <ele>98.6</ele>
        <time>2023-01-18T15:19:12Z</time>
      </trkpt>
      <trkpt lat="49.75377" lon="2.1769">
        <ele>98.6</ele>
        <time>2023-01-18T15:19:13Z</time>
      </trkpt>
      <trkpt lat="49.75377" lon="2.17689">
        <ele>98.6</ele>
        <time>2023-01-18T15:19:15Z</time>
      </trkpt>
      <trkpt lat="49.75377" lon="2.1769">
        <ele>98.6</ele>
        <time>2023-01-18T15:19:17Z</time>
      </trkpt>
      <trkpt lat="49.75377" lon="2.17688">
        <ele>98.6</ele>
        <time>2023-01-18T15:19:18Z</time>
      </trkpt>
      <trkpt lat="49.75377" lon="2.17687">
        <ele>98.6</ele>
        <time>2023-01-18T15:19:20Z</time>
      </trkpt>
      <trkpt lat="49.75377" lon="2.17687">
        <ele>98.6</ele>
        <time>2023-01-18T15:19:21Z</time>
      </trkpt>
      <trkpt lat="49.75378" lon="2.17687">
        <ele>98.6</ele>
        <time>2023-01-18T15:19:22Z</time>
      </trkpt>
      <trkpt lat="49.75378" lon="2.17687">
        <ele>98.6</ele>
        <time>2023-01-18T15:19:24Z</time>
      </trkpt>
      <trkpt lat="49.75379" lon="2.17686">
        <ele>98.6</ele>
        <time>2023-01-18T15:19:25Z</time>
      </trkpt>
      <trkpt lat="49.75379" lon="2.17687">
        <ele>98.6</ele>
        <time>2023-01-18T15:19:26Z</time>
      </trkpt>
      <trkpt lat="49.75379" lon="2.17687">
        <ele>98.6</ele>
        <time>2023-01-18T15:19:28Z</time>
      </trkpt>
      <trkpt lat="49.75379" lon="2.17685">
        <ele>98.7</ele>
        <time>2023-01-18T15:19:29Z</time>
      </trkpt>
      <trkpt lat="49.75378" lon="2.17688">
        <ele>98.7</ele>
        <time>2023-01-18T15:19:30Z</time>
      </trkpt>
      <trkpt lat="49.75378" lon="2.17689">
        <ele>98.7</ele>
        <time>2023-01-18T15:19:31Z</time>
      </trkpt>
      <trkpt lat="49.75378" lon="2.17691">
        <ele>98.7</ele>
        <time>2023-01-18T15:19:32Z</time>
      </trkpt>
      <trkpt lat="49.75377" lon="2.17693">
        <ele>98.7</ele>
        <time>2023-01-18T15:19:34Z</time>
      </trkpt>
      <trkpt lat="49.75377" lon="2.17694">
        <ele>98.7</ele>
        <time>2023-01-18T15:19:35Z</time>
      </trkpt>
      <trkpt lat="49.75376" lon="2.17696">
        <ele>98.7</ele>
        <time>2023-01-18T15:19:37Z</time>
      </trkpt>
      <trkpt lat="49.75376" lon="2.17697">
        <ele>98.7</ele>
        <time>2023-01-18T15:19:38Z</time>
      </trkpt>
      <trkpt lat="49.75376" lon="2.17699">
        <ele>98.7</ele>
        <time>2023-01-18T15:19:40Z</time>
      </trkpt>
      <trkpt lat="49.75375" lon="2.17701">
        <ele>98.7</ele>
        <time>2023-01-18T15:19:41Z</time>
      </trkpt>
      <trkpt lat="49.75375" lon="2.17703">
        <ele>98.7</ele>
        <time>2023-01-18T15:19:42Z</time>
      </trkpt>
      <trkpt lat="49.75375" lon="2.17706">
        <ele>98.7</ele>
        <time>2023-01-18T15:19:43Z</time>
      </trkpt>
      <trkpt lat="49.75375" lon="2.17708">
        <ele>98.7</ele>
        <time>2023-01-18T15:19:44Z</time>
      </trkpt>
      <trkpt lat="49.75375" lon="2.17709">
        <ele>98.6</ele>
        <time>2023-01-18T15:19:46Z</time>
      </trkpt>
      <trkpt lat="49.75375" lon="2.1771">
        <ele>98.6</ele>
        <time>2023-01-18T15:19:47Z</time>
      </trkpt>
      <trkpt lat="49.75375" lon="2.17712">
        <ele>98.6</ele>
        <time>2023-01-18T15:19:48Z</time>
      </trkpt>
      <trkpt lat="49.75375" lon="2.17714">
        <ele>98.6</ele>
        <time>2023-01-18T15:19:49Z</time>
      </trkpt>
      <trkpt lat="49.75375" lon="2.17716">
        <ele>98.6</ele>
        <time>2023-01-18T15:19:50Z</time>
      </trkpt>
      <trkpt lat="49.75375" lon="2.17718">
        <ele>98.6</ele>
        <time>2023-01-18T15:19:52Z</time>
      </trkpt>
      <trkpt lat="49.75375" lon="2.17719">
        <ele>98.6</ele>
        <time>2023-01-18T15:19:53Z</time>
      </trkpt>
      <trkpt lat="49.75375" lon="2.17722">
        <ele>98.6</ele>
        <time>2023-01-18T15:19:54Z</time>
      </trkpt>
      <trkpt lat="49.75375" lon="2.17723">
        <ele>98.6</ele>
        <time>2023-01-18T15:19:55Z</time>
      </trkpt>
      <trkpt lat="49.75375" lon="2.17725">
        <ele>98.6</ele>
        <time>2023-01-18T15:19:56Z</time>
      </trkpt>
      <trkpt lat="49.75375" lon="2.17727">
        <ele>98.6</ele>
        <time>2023-01-18T15:19:58Z</time>
      </trkpt>
      <trkpt lat="49.75374" lon="2.17729">
        <ele>98.6</ele>
        <time>2023-01-18T15:19:59Z</time>
      </trkpt>
      <trkpt lat="49.75373" lon="2.1773">
        <ele>98.6</ele>
        <time>2023-01-18T15:20:00Z</time>
      </trkpt>
      <trkpt lat="49.75373" lon="2.17731">
        <ele>98.6</ele>
        <time>2023-01-18T15:20:01Z</time>
      </trkpt>
      <trkpt lat="49.75373" lon="2.17734">
        <ele>98.5</ele>
        <time>2023-01-18T15:20:02Z</time>
      </trkpt>
      <trkpt lat="49.75373" lon="2.17736">
        <ele>98.5</ele>
        <time>2023-01-18T15:20:03Z</time>
      </trkpt>
      <trkpt lat="49.75373" lon="2.17736">
        <ele>98.5</ele>
        <time>2023-01-18T15:20:05Z</time>
      </trkpt>
      <trkpt lat="49.75373" lon="2.17737">
        <ele>98.5</ele>
        <time>2023-01-18T15:20:06Z</time>
      </trkpt>
      <trkpt lat="49.75373" lon="2.17738">
        <ele>98.5</ele>
        <time>2023-01-18T15:20:07Z</time>
      </trkpt>
      <trkpt lat="49.75372" lon="2.17739">
        <ele>98.5</ele>
        <time>2023-01-18T15:20:08Z</time>
      </trkpt>
      <trkpt lat="49.75372" lon="2.1774">
        <ele>98.5</ele>
        <time>2023-01-18T15:20:09Z</time>
      </trkpt>
      <trkpt lat="49.75371" lon="2.17741">
        <ele>98.5</ele>
        <time>2023-01-18T15:20:10Z</time>
      </trkpt>
      <trkpt lat="49.75371" lon="2.17742">
        <ele>98.5</ele>
        <time>2023-01-18T15:20:12Z</time>
      </trkpt>
      <trkpt lat="49.7537" lon="2.17743">
        <ele>98.5</ele>
        <time>2023-01-18T15:20:13Z</time>
      </trkpt>
      <trkpt lat="49.7537" lon="2.17744">
        <ele>98.5</ele>
        <time>2023-01-18T15:20:14Z</time>
      </trkpt>
      <trkpt lat="49.75369" lon="2.17745">
        <ele>98.5</ele>
        <time>2023-01-18T15:20:15Z</time>
      </trkpt>
      <trkpt lat="49.75369" lon="2.17747">
        <ele>98.4</ele>
        <time>2023-01-18T15:20:17Z</time>
      </trkpt>
      <trkpt lat="49.75368" lon="2.17748">
        <ele>98.4</ele>
        <time>2023-01-18T15:20:18Z</time>
      </trkpt>
      <trkpt lat="49.75368" lon="2.17749">
        <ele>98.4</ele>
        <time>2023-01-18T15:20:19Z</time>
      </trkpt>
      <trkpt lat="49.75367" lon="2.1775">
        <ele>98.4</ele>
        <time>2023-01-18T15:20:20Z</time>
      </trkpt>
      <trkpt lat="49.75367" lon="2.17752">
        <ele>98.4</ele>
        <time>2023-01-18T15:20:21Z</time>
      </trkpt>
      <trkpt lat="49.75366" lon="2.17754">
        <ele>98.4</ele>
        <time>2023-01-18T15:20:23Z</time>
      </trkpt>
      <trkpt lat="49.75365" lon="2.17755">
        <ele>98.4</ele>
        <time>2023-01-18T15:20:24Z</time>
      </trkpt>
      <trkpt lat="49.75365" lon="2.17756">
        <ele>98.3</ele>
        <time>2023-01-18T15:20:25Z</time>
      </trkpt>
      <trkpt lat="49.75365" lon="2.17756">
        <ele>98.3</ele>
        <time>2023-01-18T15:20:26Z</time>
      </trkpt>
      <trkpt lat="49.75364" lon="2.17758">
        <ele>98.3</ele>
        <time>2023-01-18T15:20:27Z</time>
      </trkpt>
      <trkpt lat="49.75363" lon="2.17759">
        <ele>98.3</ele>
        <time>2023-01-18T15:20:29Z</time>
      </trkpt>
      <trkpt lat="49.75362" lon="2.17759">
        <ele>98.3</ele>
        <time>2023-01-18T15:20:31Z</time>
      </trkpt>
      <trkpt lat="49.75362" lon="2.1776">
        <ele>98.3</ele>
        <time>2023-01-18T15:20:32Z</time>
      </trkpt>
      <trkpt lat="49.75362" lon="2.1776">
        <ele>98.3</ele>
        <time>2023-01-18T15:20:33Z</time>
      </trkpt>
      <trkpt lat="49.75362" lon="2.17761">
        <ele>98.3</ele>
        <time>2023-01-18T15:20:34Z</time>
      </trkpt>
      <trkpt lat="49.75362" lon="2.17761">
        <ele>98.3</ele>
        <time>2023-01-18T15:20:35Z</time>
      </trkpt>
      <trkpt lat="49.75363" lon="2.17762">
        <ele>98.3</ele>
        <time>2023-01-18T15:20:36Z</time>
      </trkpt>
      <trkpt lat="49.75363" lon="2.17763">
        <ele>98.2</ele>
        <time>2023-01-18T15:20:37Z</time>
      </trkpt>
      <trkpt lat="49.75364" lon="2.17764">
        <ele>98.2</ele>
        <time>2023-01-18T15:20:39Z</time>
      </trkpt>
      <trkpt lat="49.75364" lon="2.17764">
        <ele>98.2</ele>
        <time>2023-01-18T15:20:40Z</time>
      </trkpt>
      <trkpt lat="49.75364" lon="2.17762">
        <ele>98.2</ele>
        <time>2023-01-18T15:20:41Z</time>
      </trkpt>
      <trkpt lat="49.75364" lon="2.17762">
        <ele>98.2</ele>
        <time>2023-01-18T15:20:43Z</time>
      </trkpt>
      <trkpt lat="49.75364" lon="2.1776">
        <ele>98.2</ele>
        <time>2023-01-18T15:20:44Z</time>
      </trkpt>
      <trkpt lat="49.75364" lon="2.17759">
        <ele>98.2</ele>
        <time>2023-01-18T15:20:46Z</time>
      </trkpt>
      <trkpt lat="49.75364" lon="2.17759">
        <ele>98.2</ele>
        <time>2023-01-18T15:20:47Z</time>
      </trkpt>
      <trkpt lat="49.75364" lon="2.17759">
        <ele>98.2</ele>
        <time>2023-01-18T15:20:48Z</time>
      </trkpt>
      <trkpt lat="49.75363" lon="2.17758">
        <ele>98.2</ele>
        <time>2023-01-18T15:20:49Z</time>
      </trkpt>
      <trkpt lat="49.75363" lon="2.17758">
        <ele>98.2</ele>
        <time>2023-01-18T15:20:51Z</time>
      </trkpt>
      <trkpt lat="49.75363" lon="2.17758">
        <ele>98.2</ele>
        <time>2023-01-18T15:20:53Z</time>
      </trkpt>
      <trkpt lat="49.75363" lon="2.17757">
        <ele>98.2</ele>
        <time>2023-01-18T15:20:54Z</time>
      </trkpt>
      <trkpt lat="49.75362" lon="2.17756">
        <ele>98.1</ele>
        <time>2023-01-18T15:20:56Z</time>
      </trkpt>
      <trkpt lat="49.75362" lon="2.17756">
        <ele>98.1</ele>
        <time>2023-01-18T15:20:57Z</time>
      </trkpt>
      <trkpt lat="49.75362" lon="2.17755">
        <ele>98.1</ele>
        <time>2023-01-18T15:20:58Z</time>
      </trkpt>
      <trkpt lat="49.75362" lon="2.17755">
        <ele>98.1</ele>
        <time>2023-01-18T15:21:00Z</time>
      </trkpt>
      <trkpt lat="49.75363" lon="2.17754">
        <ele>98.1</ele>
        <time>2023-01-18T15:21:01Z</time>
      </trkpt>
      <trkpt lat="49.75362" lon="2.17754">
        <ele>98.1</ele>
        <time>2023-01-18T15:21:02Z</time>
      </trkpt>
      <trkpt lat="49.75362" lon="2.17753">
        <ele>98.1</ele>
        <time>2023-01-18T15:21:04Z</time>
      </trkpt>
      <trkpt lat="49.75362" lon="2.17753">
        <ele>98.1</ele>
        <time>2023-01-18T15:21:05Z</time>
      </trkpt>
      <trkpt lat="49.75362" lon="2.17752">
        <ele>98.1</ele>
        <time>2023-01-18T15:21:06Z</time>
      </trkpt>
      <trkpt lat="49.75361" lon="2.17752">
        <ele>98.1</ele>
        <time>2023-01-18T15:21:07Z</time>
      </trkpt>
      <trkpt lat="49.75362" lon="2.17752">
        <ele>98.1</ele>
        <time>2023-01-18T15:21:08Z</time>
      </trkpt>
      <trkpt lat="49.75361" lon="2.17751">
        <ele>98.1</ele>
        <time>2023-01-18T15:21:10Z</time>
      </trkpt>
      <trkpt lat="49.75362" lon="2.17751">
        <ele>98.1</ele>
        <time>2023-01-18T15:21:12Z</time>
      </trkpt>
      <trkpt lat="49.75362" lon="2.17751">
        <ele>98.1</ele>
        <time>2023-01-18T15:21:13Z</time>
      </trkpt>
      <trkpt lat="49.75362" lon="2.17752">
        <ele>98.1</ele>
        <time>2023-01-18T15:21:14Z</time>
      </trkpt>
      <trkpt lat="49.75362" lon="2.17752">
        <ele>98.1</ele>
        <time>2023-01-18T15:21:16Z</time>
      </trkpt>
      <trkpt lat="49.75362" lon="2.17752">
        <ele>98.1</ele>
        <time>2023-01-18T15:21:17Z</time>
      </trkpt>
      <trkpt lat="49.75362" lon="2.17753">
        <ele>98.1</ele>
        <time>2023-01-18T15:21:18Z</time>
      </trkpt>
      <trkpt lat="49.75362" lon="2.17753">
        <ele>98.1</ele>
        <time>2023-01-18T15:21:20Z</time>
      </trkpt>
      <trkpt lat="49.75362" lon="2.17753">
        <ele>98.1</ele>
        <time>2023-01-18T15:21:22Z</time>
      </trkpt>
      <trkpt lat="49.75362" lon="2.17753">
        <ele>98.1</ele>
        <time>2023-01-18T15:21:23Z</time>
      </trkpt>
      <trkpt lat="49.75362" lon="2.17753">
        <ele>98.1</ele>
        <time>2023-01-18T15:21:24Z</time>
      </trkpt>
      <trkpt lat="49.75361" lon="2.17753">
        <ele>98.1</ele>
        <time>2023-01-18T15:21:26Z</time>
      </trkpt>
      <trkpt lat="49.75361" lon="2.17753">
        <ele>98.1</ele>
        <time>2023-01-18T15:21:27Z</time>
      </trkpt>
      <trkpt lat="49.75361" lon="2.17754">
        <ele>98.1</ele>
        <time>2023-01-18T15:21:28Z</time>
      </trkpt>
      <trkpt lat="49.75361" lon="2.17754">
        <ele>98.1</ele>
        <time>2023-01-18T15:21:29Z</time>
      </trkpt>
      <trkpt lat="49.75361" lon="2.17754">
        <ele>98.1</ele>
        <time>2023-01-18T15:21:30Z</time>
      </trkpt>
      <trkpt lat="49.75361" lon="2.17754">
        <ele>98.1</ele>
        <time>2023-01-18T15:21:31Z</time>
      </trkpt>
      <trkpt lat="49.75361" lon="2.17754">
        <ele>98.1</ele>
        <time>2023-01-18T15:21:32Z</time>
      </trkpt>
      <trkpt lat="49.75361" lon="2.17754">
        <ele>98.1</ele>
        <time>2023-01-18T15:21:33Z</time>
      </trkpt>
      <trkpt lat="49.75361" lon="2.17754">
        <ele>98.1</ele>
        <time>2023-01-18T15:21:34Z</time>
      </trkpt>
      <trkpt lat="49.75361" lon="2.17754">
        <ele>98.1</ele>
        <time>2023-01-18T15:21:35Z</time>
      </trkpt>
      <trkpt lat="49.75361" lon="2.17754">
        <ele>98.1</ele>
        <time>2023-01-18T15:21:36Z</time>
      </trkpt>
      <trkpt lat="49.75361" lon="2.17754">
        <ele>98.1</ele>
        <time>2023-01-18T15:21:37Z</time>
      </trkpt>
      <trkpt lat="49.75361" lon="2.17754">
        <ele>98.1</ele>
        <time>2023-01-18T15:21:38Z</time>
      </trkpt>
      <trkpt lat="49.75361" lon="2.17754">
        <ele>98.1</ele>
        <time>2023-01-18T15:21:39Z</time>
      </trkpt>
      <trkpt lat="49.75361" lon="2.17754">
        <ele>98.1</ele>
        <time>2023-01-18T15:21:40Z</time>
      </trkpt>
      <trkpt lat="49.75361" lon="2.17754">
        <ele>98.1</ele>
        <time>2023-01-18T15:21:41Z</time>
      </trkpt>
      <trkpt lat="49.75361" lon="2.17754">
        <ele>98.1</ele>
        <time>2023-01-18T15:21:42Z</time>
      </trkpt>
      <trkpt lat="49.75361" lon="2.17754">
        <ele>98.1</ele>
        <time>2023-01-18T15:21:43Z</time>
      </trkpt>
      <trkpt lat="49.75361" lon="2.17754">
        <ele>98.1</ele>
        <time>2023-01-18T15:21:44Z</time>
      </trkpt>
      <trkpt lat="49.75361" lon="2.17754">
        <ele>98.1</ele>
        <time>2023-01-18T15:21:45Z</time>
      </trkpt>
      <trkpt lat="49.75361" lon="2.17754">
        <ele>98.1</ele>
        <time>2023-01-18T15:21:46Z</time>
      </trkpt>
      <trkpt lat="49.75361" lon="2.17754">
        <ele>98.1</ele>
        <time>2023-01-18T15:21:47Z</time>
      </trkpt>
      <trkpt lat="49.75361" lon="2.17754">
        <ele>98.1</ele>
        <time>2023-01-18T15:21:48Z</time>
      </trkpt>
      <trkpt lat="49.75361" lon="2.17753">
        <ele>98.1</ele>
        <time>2023-01-18T15:21:49Z</time>
      </trkpt>
      <trkpt lat="49.75361" lon="2.17752">
        <ele>98</ele>
        <time>2023-01-18T15:21:50Z</time>
      </trkpt>
      <trkpt lat="49.75361" lon="2.17752">
        <ele>98</ele>
        <time>2023-01-18T15:21:51Z</time>
      </trkpt>
      <trkpt lat="49.7536" lon="2.17752">
        <ele>98</ele>
        <time>2023-01-18T15:21:52Z</time>
      </trkpt>
      <trkpt lat="49.7536" lon="2.17752">
        <ele>98</ele>
        <time>2023-01-18T15:21:53Z</time>
      </trkpt>
      <trkpt lat="49.7536" lon="2.17752">
        <ele>98</ele>
        <time>2023-01-18T15:21:54Z</time>
      </trkpt>
      <trkpt lat="49.7536" lon="2.17752">
        <ele>98</ele>
        <time>2023-01-18T15:21:55Z</time>
      </trkpt>
      <trkpt lat="49.7536" lon="2.17752">
        <ele>98</ele>
        <time>2023-01-18T15:21:56Z</time>
      </trkpt>
      <trkpt lat="49.7536" lon="2.17752">
        <ele>98</ele>
        <time>2023-01-18T15:21:57Z</time>
      </trkpt>
      <trkpt lat="49.7536" lon="2.17752">
        <ele>98</ele>
        <time>2023-01-18T15:21:58Z</time>
      </trkpt>
      <trkpt lat="49.7536" lon="2.17752">
        <ele>98</ele>
        <time>2023-01-18T15:21:59Z</time>
      </trkpt>
      <trkpt lat="49.7536" lon="2.17751">
        <ele>98</ele>
        <time>2023-01-18T15:22:00Z</time>
      </trkpt>
      <trkpt lat="49.7536" lon="2.17751">
        <ele>98</ele>
        <time>2023-01-18T15:22:01Z</time>
      </trkpt>
      <trkpt lat="49.7536" lon="2.17751">
        <ele>98</ele>
        <time>2023-01-18T15:22:02Z</time>
      </trkpt>
      <trkpt lat="49.7536" lon="2.17751">
        <ele>98</ele>
        <time>2023-01-18T15:22:03Z</time>
      </trkpt>
      <trkpt lat="49.7536" lon="2.17751">
        <ele>98</ele>
        <time>2023-01-18T15:22:04Z</time>
      </trkpt>
      <trkpt lat="49.7536" lon="2.17751">
        <ele>98</ele>
        <time>2023-01-18T15:22:05Z</time>
      </trkpt>
      <trkpt lat="49.7536" lon="2.17751">
        <ele>98</ele>
        <time>2023-01-18T15:22:06Z</time>
      </trkpt>
      <trkpt lat="49.7536" lon="2.17751">
        <ele>98</ele>
        <time>2023-01-18T15:22:07Z</time>
      </trkpt>
      <trkpt lat="49.7536" lon="2.17751">
        <ele>98</ele>
        <time>2023-01-18T15:22:08Z</time>
      </trkpt>
      <trkpt lat="49.7536" lon="2.17751">
        <ele>98</ele>
        <time>2023-01-18T15:22:09Z</time>
      </trkpt>
      <trkpt lat="49.7536" lon="2.17751">
        <ele>98</ele>
        <time>2023-01-18T15:22:10Z</time>
      </trkpt>
      <trkpt lat="49.7536" lon="2.17751">
        <ele>98</ele>
        <time>2023-01-18T15:22:11Z</time>
      </trkpt>
      <trkpt lat="49.7536" lon="2.17751">
        <ele>98</ele>
        <time>2023-01-18T15:22:12Z</time>
      </trkpt>
      <trkpt lat="49.7536" lon="2.17751">
        <ele>98</ele>
        <time>2023-01-18T15:22:13Z</time>
      </trkpt>
      <trkpt lat="49.7536" lon="2.17751">
        <ele>98</ele>
        <time>2023-01-18T15:22:14Z</time>
      </trkpt>
      <trkpt lat="49.7536" lon="2.17751">
        <ele>98</ele>
        <time>2023-01-18T15:22:15Z</time>
      </trkpt>
      <trkpt lat="49.7536" lon="2.17751">
        <ele>98</ele>
        <time>2023-01-18T15:22:16Z</time>
      </trkpt>
      <trkpt lat="49.7536" lon="2.17751">
        <ele>98</ele>
        <time>2023-01-18T15:22:17Z</time>
      </trkpt>
      <trkpt lat="49.7536" lon="2.17751">
        <ele>98</ele>
        <time>2023-01-18T15:22:18Z</time>
      </trkpt>
      <trkpt lat="49.7536" lon="2.17751">
        <ele>98</ele>
        <time>2023-01-18T15:22:19Z</time>
      </trkpt>
      <trkpt lat="49.7536" lon="2.17751">
        <ele>98</ele>
        <time>2023-01-18T15:22:20Z</time>
      </trkpt>
      <trkpt lat="49.7536" lon="2.17751">
        <ele>98</ele>
        <time>2023-01-18T15:22:21Z</time>
      </trkpt>
      <trkpt lat="49.7536" lon="2.17751">
        <ele>98</ele>
        <time>2023-01-18T15:22:22Z</time>
      </trkpt>
      <trkpt lat="49.7536" lon="2.17751">
        <ele>98</ele>
        <time>2023-01-18T15:22:23Z</time>
      </trkpt>
      <trkpt lat="49.7536" lon="2.17751">
        <ele>98</ele>
        <time>2023-01-18T15:22:24Z</time>
      </trkpt>
      <trkpt lat="49.7536" lon="2.17751">
        <ele>98</ele>
        <time>2023-01-18T15:22:25Z</time>
      </trkpt>
      <trkpt lat="49.7536" lon="2.17751">
        <ele>98</ele>
        <time>2023-01-18T15:22:26Z</time>
      </trkpt>
      <trkpt lat="49.7536" lon="2.17751">
        <ele>98</ele>
        <time>2023-01-18T15:22:27Z</time>
      </trkpt>
      <trkpt lat="49.7536" lon="2.17751">
        <ele>98</ele>
        <time>2023-01-18T15:22:28Z</time>
      </trkpt>
      <trkpt lat="49.7536" lon="2.17751">
        <ele>98</ele>
        <time>2023-01-18T15:22:29Z</time>
      </trkpt>
      <trkpt lat="49.7536" lon="2.17751">
        <ele>98</ele>
        <time>2023-01-18T15:22:30Z</time>
      </trkpt>
      <trkpt lat="49.7536" lon="2.17751">
        <ele>98</ele>
        <time>2023-01-18T15:22:31Z</time>
      </trkpt>
      <trkpt lat="49.7536" lon="2.17751">
        <ele>98</ele>
        <time>2023-01-18T15:22:32Z</time>
      </trkpt>
      <trkpt lat="49.7536" lon="2.17751">
        <ele>98</ele>
        <time>2023-01-18T15:22:33Z</time>
      </trkpt>
      <trkpt lat="49.7536" lon="2.17751">
        <ele>98</ele>
        <time>2023-01-18T15:22:34Z</time>
      </trkpt>
      <trkpt lat="49.7536" lon="2.17751">
        <ele>98</ele>
        <time>2023-01-18T15:22:35Z</time>
      </trkpt>
      <trkpt lat="49.7536" lon="2.17751">
        <ele>98</ele>
        <time>2023-01-18T15:22:36Z</time>
      </trkpt>
      <trkpt lat="49.7536" lon="2.17751">
        <ele>98</ele>
        <time>2023-01-18T15:22:37Z</time>
      </trkpt>
      <trkpt lat="49.7536" lon="2.17751">
        <ele>98</ele>
        <time>2023-01-18T15:22:38Z</time>
      </trkpt>
      <trkpt lat="49.7536" lon="2.17751">
        <ele>98</ele>
        <time>2023-01-18T15:22:39Z</time>
      </trkpt>
      <trkpt lat="49.7536" lon="2.17751">
        <ele>98</ele>
        <time>2023-01-18T15:22:40Z</time>
      </trkpt>
      <trkpt lat="49.7536" lon="2.17751">
        <ele>98</ele>
        <time>2023-01-18T15:22:41Z</time>
      </trkpt>
      <trkpt lat="49.7536" lon="2.17751">
        <ele>98</ele>
        <time>2023-01-18T15:22:42Z</time>
      </trkpt>
      <trkpt lat="49.7536" lon="2.17751">
        <ele>98</ele>
        <time>2023-01-18T15:22:43Z</time>
      </trkpt>
      <trkpt lat="49.7536" lon="2.17751">
        <ele>98</ele>
        <time>2023-01-18T15:22:44Z</time>
      </trkpt>
      <trkpt lat="49.7536" lon="2.17751">
        <ele>98</ele>
        <time>2023-01-18T15:22:45Z</time>
      </trkpt>
      <trkpt lat="49.7536" lon="2.17751">
        <ele>98</ele>
        <time>2023-01-18T15:22:46Z</time>
      </trkpt>
      <trkpt lat="49.7536" lon="2.17751">
        <ele>98</ele>
        <time>2023-01-18T15:22:47Z</time>
      </trkpt>
      <trkpt lat="49.7536" lon="2.17751">
        <ele>98</ele>
        <time>2023-01-18T15:22:48Z</time>
      </trkpt>
      <trkpt lat="49.7536" lon="2.17751">
        <ele>98</ele>
        <time>2023-01-18T15:22:49Z</time>
      </trkpt>
      <trkpt lat="49.7536" lon="2.17751">
        <ele>98</ele>
        <time>2023-01-18T15:22:50Z</time>
      </trkpt>
      <trkpt lat="49.7536" lon="2.17751">
        <ele>98</ele>
        <time>2023-01-18T15:22:51Z</time>
      </trkpt>
      <trkpt lat="49.7536" lon="2.17751">
        <ele>98</ele>
        <time>2023-01-18T15:22:52Z</time>
      </trkpt>
      <trkpt lat="49.7536" lon="2.17751">
        <ele>98</ele>
        <time>2023-01-18T15:22:53Z</time>
      </trkpt>
      <trkpt lat="49.7536" lon="2.17751">
        <ele>98</ele>
        <time>2023-01-18T15:22:54Z</time>
      </trkpt>
      <trkpt lat="49.7536" lon="2.17751">
        <ele>98</ele>
        <time>2023-01-18T15:22:55Z</time>
      </trkpt>
      <trkpt lat="49.7536" lon="2.17751">
        <ele>98</ele>
        <time>2023-01-18T15:22:56Z</time>
      </trkpt>
      <trkpt lat="49.7536" lon="2.17751">
        <ele>98</ele>
        <time>2023-01-18T15:22:57Z</time>
      </trkpt>
      <trkpt lat="49.7536" lon="2.17751">
        <ele>98</ele>
        <time>2023-01-18T15:22:58Z</time>
      </trkpt>
      <trkpt lat="49.7536" lon="2.17751">
        <ele>98</ele>
        <time>2023-01-18T15:22:59Z</time>
      </trkpt>
      <trkpt lat="49.7536" lon="2.17751">
        <ele>98</ele>
        <time>2023-01-18T15:23:00Z</time>
      </trkpt>
      <trkpt lat="49.7536" lon="2.17751">
        <ele>98</ele>
        <time>2023-01-18T15:23:01Z</time>
      </trkpt>
      <trkpt lat="49.7536" lon="2.17751">
        <ele>98</ele>
        <time>2023-01-18T15:23:02Z</time>
      </trkpt>
      <trkpt lat="49.7536" lon="2.17751">
        <ele>98</ele>
        <time>2023-01-18T15:23:03Z</time>
      </trkpt>
      <trkpt lat="49.7536" lon="2.17751">
        <ele>98</ele>
        <time>2023-01-18T15:23:04Z</time>
      </trkpt>
      <trkpt lat="49.7536" lon="2.17751">
        <ele>98</ele>
        <time>2023-01-18T15:23:05Z</time>
      </trkpt>
      <trkpt lat="49.7536" lon="2.17751">
        <ele>98</ele>
        <time>2023-01-18T15:23:06Z</time>
      </trkpt>
      <trkpt lat="49.7536" lon="2.17751">
        <ele>98</ele>
        <time>2023-01-18T15:23:07Z</time>
      </trkpt>
      <trkpt lat="49.7536" lon="2.17751">
        <ele>98</ele>
        <time>2023-01-18T15:23:08Z</time>
      </trkpt>
      <trkpt lat="49.7536" lon="2.17751">
        <ele>98</ele>
        <time>2023-01-18T15:23:09Z</time>
      </trkpt>
      <trkpt lat="49.7536" lon="2.17751">
        <ele>98</ele>
        <time>2023-01-18T15:23:10Z</time>
      </trkpt>
      <trkpt lat="49.7536" lon="2.17751">
        <ele>98</ele>
        <time>2023-01-18T15:23:11Z</time>
      </trkpt>
      <trkpt lat="49.7536" lon="2.17751">
        <ele>98</ele>
        <time>2023-01-18T15:23:12Z</time>
      </trkpt>
      <trkpt lat="49.7536" lon="2.17751">
        <ele>98</ele>
        <time>2023-01-18T15:23:13Z</time>
      </trkpt>
      <trkpt lat="49.7536" lon="2.17751">
        <ele>98</ele>
        <time>2023-01-18T15:23:14Z</time>
      </trkpt>
      <trkpt lat="49.7536" lon="2.17751">
        <ele>98</ele>
        <time>2023-01-18T15:23:15Z</time>
      </trkpt>
      <trkpt lat="49.7536" lon="2.17751">
        <ele>98</ele>
        <time>2023-01-18T15:23:16Z</time>
      </trkpt>
      <trkpt lat="49.7536" lon="2.17751">
        <ele>98</ele>
        <time>2023-01-18T15:23:17Z</time>
      </trkpt>
      <trkpt lat="49.7536" lon="2.17751">
        <ele>98</ele>
        <time>2023-01-18T15:23:18Z</time>
      </trkpt>
      <trkpt lat="49.7536" lon="2.17751">
        <ele>98</ele>
        <time>2023-01-18T15:23:19Z</time>
      </trkpt>
      <trkpt lat="49.7536" lon="2.17751">
        <ele>98</ele>
        <time>2023-01-18T15:23:20Z</time>
      </trkpt>
      <trkpt lat="49.7536" lon="2.17751">
        <ele>98</ele>
        <time>2023-01-18T15:23:21Z</time>
      </trkpt>
      <trkpt lat="49.7536" lon="2.17751">
        <ele>98</ele>
        <time>2023-01-18T15:23:22Z</time>
      </trkpt>
      <trkpt lat="49.7536" lon="2.17751">
        <ele>98</ele>
        <time>2023-01-18T15:23:23Z</time>
      </trkpt>
      <trkpt lat="49.7536" lon="2.17751">
        <ele>98</ele>
        <time>2023-01-18T15:23:24Z</time>
      </trkpt>
      <trkpt lat="49.7536" lon="2.17751">
        <ele>98</ele>
        <time>2023-01-18T15:23:25Z</time>
      </trkpt>
      <trkpt lat="49.7536" lon="2.17751">
        <ele>98</ele>
        <time>2023-01-18T15:23:26Z</time>
      </trkpt>
      <trkpt lat="49.75361" lon="2.17752">
        <ele>98</ele>
        <time>2023-01-18T15:23:27Z</time>
      </trkpt>
      <trkpt lat="49.75361" lon="2.17753">
        <ele>98</ele>
        <time>2023-01-18T15:23:28Z</time>
      </trkpt>
      <trkpt lat="49.75361" lon="2.17753">
        <ele>98</ele>
        <time>2023-01-18T15:23:29Z</time>
      </trkpt>
      <trkpt lat="49.75361" lon="2.17753">
        <ele>98</ele>
        <time>2023-01-18T15:23:30Z</time>
      </trkpt>
      <trkpt lat="49.75361" lon="2.17753">
        <ele>98</ele>
        <time>2023-01-18T15:23:31Z</time>
      </trkpt>
      <trkpt lat="49.75361" lon="2.17753">
        <ele>98</ele>
        <time>2023-01-18T15:23:32Z</time>
      </trkpt>
      <trkpt lat="49.75361" lon="2.17753">
        <ele>98</ele>
        <time>2023-01-18T15:23:33Z</time>
      </trkpt>
      <trkpt lat="49.75361" lon="2.17753">
        <ele>98</ele>
        <time>2023-01-18T15:23:34Z</time>
      </trkpt>
      <trkpt lat="49.75361" lon="2.17753">
        <ele>98</ele>
        <time>2023-01-18T15:23:35Z</time>
      </trkpt>
      <trkpt lat="49.75361" lon="2.17753">
        <ele>98</ele>
        <time>2023-01-18T15:23:36Z</time>
      </trkpt>
      <trkpt lat="49.75361" lon="2.17753">
        <ele>98</ele>
        <time>2023-01-18T15:23:37Z</time>
      </trkpt>
      <trkpt lat="49.75361" lon="2.17753">
        <ele>98</ele>
        <time>2023-01-18T15:23:38Z</time>
      </trkpt>
      <trkpt lat="49.75361" lon="2.17753">
        <ele>98</ele>
        <time>2023-01-18T15:23:39Z</time>
      </trkpt>
      <trkpt lat="49.75361" lon="2.17753">
        <ele>98</ele>
        <time>2023-01-18T15:23:40Z</time>
      </trkpt>
      <trkpt lat="49.75361" lon="2.17753">
        <ele>98</ele>
        <time>2023-01-18T15:23:41Z</time>
      </trkpt>
      <trkpt lat="49.75361" lon="2.17753">
        <ele>98</ele>
        <time>2023-01-18T15:23:42Z</time>
      </trkpt>
      <trkpt lat="49.75361" lon="2.17753">
        <ele>98</ele>
        <time>2023-01-18T15:23:43Z</time>
      </trkpt>
      <trkpt lat="49.75361" lon="2.17753">
        <ele>98</ele>
        <time>2023-01-18T15:23:44Z</time>
      </trkpt>
      <trkpt lat="49.75361" lon="2.17753">
        <ele>98</ele>
        <time>2023-01-18T15:23:45Z</time>
      </trkpt>
      <trkpt lat="49.75361" lon="2.17753">
        <ele>98</ele>
        <time>2023-01-18T15:23:46Z</time>
      </trkpt>
      <trkpt lat="49.75361" lon="2.17753">
        <ele>98</ele>
        <time>2023-01-18T15:23:47Z</time>
      </trkpt>
      <trkpt lat="49.75361" lon="2.17753">
        <ele>98</ele>
        <time>2023-01-18T15:23:48Z</time>
      </trkpt>
      <trkpt lat="49.75361" lon="2.17753">
        <ele>98</ele>
        <time>2023-01-18T15:23:49Z</time>
      </trkpt>
      <trkpt lat="49.75361" lon="2.17753">
        <ele>98</ele>
        <time>2023-01-18T15:23:50Z</time>
      </trkpt>
      <trkpt lat="49.75361" lon="2.17753">
        <ele>98</ele>
        <time>2023-01-18T15:23:51Z</time>
      </trkpt>
      <trkpt lat="49.75361" lon="2.17753">
        <ele>98</ele>
        <time>2023-01-18T15:23:52Z</time>
      </trkpt>
      <trkpt lat="49.75361" lon="2.17753">
        <ele>98</ele>
        <time>2023-01-18T15:23:53Z</time>
      </trkpt>
      <trkpt lat="49.75361" lon="2.17753">
        <ele>98</ele>
        <time>2023-01-18T15:23:54Z</time>
      </trkpt>
      <trkpt lat="49.75361" lon="2.17753">
        <ele>98</ele>
        <time>2023-01-18T15:23:55Z</time>
      </trkpt>
      <trkpt lat="49.75361" lon="2.17753">
        <ele>98</ele>
        <time>2023-01-18T15:23:56Z</time>
      </trkpt>
      <trkpt lat="49.75361" lon="2.17753">
        <ele>98</ele>
        <time>2023-01-18T15:23:57Z</time>
      </trkpt>
      <trkpt lat="49.75361" lon="2.17753">
        <ele>98</ele>
        <time>2023-01-18T15:23:58Z</time>
      </trkpt>
      <trkpt lat="49.75361" lon="2.17753">
        <ele>98</ele>
        <time>2023-01-18T15:23:59Z</time>
      </trkpt>
      <trkpt lat="49.75361" lon="2.17753">
        <ele>98</ele>
        <time>2023-01-18T15:24:00Z</time>
      </trkpt>
      <trkpt lat="49.75361" lon="2.17753">
        <ele>98</ele>
        <time>2023-01-18T15:24:01Z</time>
      </trkpt>
      <trkpt lat="49.75361" lon="2.17753">
        <ele>98</ele>
        <time>2023-01-18T15:24:02Z</time>
      </trkpt>
      <trkpt lat="49.75361" lon="2.17753">
        <ele>98</ele>
        <time>2023-01-18T15:24:03Z</time>
      </trkpt>
      <trkpt lat="49.75361" lon="2.17753">
        <ele>98</ele>
        <time>2023-01-18T15:24:04Z</time>
      </trkpt>
      <trkpt lat="49.75361" lon="2.17753">
        <ele>98</ele>
        <time>2023-01-18T15:24:05Z</time>
      </trkpt>
      <trkpt lat="49.75361" lon="2.17753">
        <ele>98</ele>
        <time>2023-01-18T15:24:06Z</time>
      </trkpt>
      <trkpt lat="49.75361" lon="2.17753">
        <ele>98</ele>
        <time>2023-01-18T15:24:07Z</time>
      </trkpt>
      <trkpt lat="49.75361" lon="2.17753">
        <ele>98</ele>
        <time>2023-01-18T15:24:08Z</time>
      </trkpt>
      <trkpt lat="49.75361" lon="2.17753">
        <ele>98</ele>
        <time>2023-01-18T15:24:09Z</time>
      </trkpt>
      <trkpt lat="49.75361" lon="2.17753">
        <ele>98</ele>
        <time>2023-01-18T15:24:10Z</time>
      </trkpt>
      <trkpt lat="49.75361" lon="2.17753">
        <ele>98</ele>
        <time>2023-01-18T15:24:11Z</time>
      </trkpt>
      <trkpt lat="49.75361" lon="2.17753">
        <ele>98</ele>
        <time>2023-01-18T15:24:12Z</time>
      </trkpt>
      <trkpt lat="49.75361" lon="2.17753">
        <ele>98</ele>
        <time>2023-01-18T15:24:13Z</time>
      </trkpt>
      <trkpt lat="49.75361" lon="2.17753">
        <ele>98</ele>
        <time>2023-01-18T15:24:14Z</time>
      </trkpt>
      <trkpt lat="49.75361" lon="2.17753">
        <ele>98</ele>
        <time>2023-01-18T15:24:15Z</time>
      </trkpt>
      <trkpt lat="49.75361" lon="2.17753">
        <ele>98</ele>
        <time>2023-01-18T15:24:16Z</time>
      </trkpt>
      <trkpt lat="49.75361" lon="2.17753">
        <ele>98</ele>
        <time>2023-01-18T15:24:17Z</time>
      </trkpt>
      <trkpt lat="49.75361" lon="2.17753">
        <ele>98</ele>
        <time>2023-01-18T15:24:18Z</time>
      </trkpt>
      <trkpt lat="49.75361" lon="2.17753">
        <ele>98</ele>
        <time>2023-01-18T15:24:19Z</time>
      </trkpt>
      <trkpt lat="49.75361" lon="2.17753">
        <ele>98</ele>
        <time>2023-01-18T15:24:20Z</time>
      </trkpt>
      <trkpt lat="49.75361" lon="2.17753">
        <ele>98</ele>
        <time>2023-01-18T15:24:22Z</time>
      </trkpt>
      <trkpt lat="49.75361" lon="2.17753">
        <ele>98</ele>
        <time>2023-01-18T15:24:23Z</time>
      </trkpt>
      <trkpt lat="49.75361" lon="2.17753">
        <ele>98</ele>
        <time>2023-01-18T15:24:24Z</time>
      </trkpt>
      <trkpt lat="49.75361" lon="2.17753">
        <ele>98</ele>
        <time>2023-01-18T15:24:25Z</time>
      </trkpt>
      <trkpt lat="49.75361" lon="2.17753">
        <ele>98</ele>
        <time>2023-01-18T15:24:26Z</time>
      </trkpt>
      <trkpt lat="49.75361" lon="2.17753">
        <ele>98</ele>
        <time>2023-01-18T15:24:27Z</time>
      </trkpt>
      <trkpt lat="49.75361" lon="2.17753">
        <ele>98</ele>
        <time>2023-01-18T15:24:28Z</time>
      </trkpt>
      <trkpt lat="49.75361" lon="2.17753">
        <ele>98</ele>
        <time>2023-01-18T15:24:29Z</time>
      </trkpt>
      <trkpt lat="49.75361" lon="2.17753">
        <ele>98</ele>
        <time>2023-01-18T15:24:30Z</time>
      </trkpt>
      <trkpt lat="49.75361" lon="2.17753">
        <ele>98</ele>
        <time>2023-01-18T15:24:31Z</time>
      </trkpt>
      <trkpt lat="49.75361" lon="2.17753">
        <ele>98</ele>
        <time>2023-01-18T15:24:32Z</time>
      </trkpt>
      <trkpt lat="49.75361" lon="2.17753">
        <ele>98</ele>
        <time>2023-01-18T15:24:33Z</time>
      </trkpt>
      <trkpt lat="49.75361" lon="2.17753">
        <ele>98</ele>
        <time>2023-01-18T15:24:34Z</time>
      </trkpt>
      <trkpt lat="49.75361" lon="2.17753">
        <ele>98</ele>
        <time>2023-01-18T15:24:35Z</time>
      </trkpt>
      <trkpt lat="49.75361" lon="2.17753">
        <ele>98</ele>
        <time>2023-01-18T15:24:36Z</time>
      </trkpt>
      <trkpt lat="49.75361" lon="2.17753">
        <ele>98</ele>
        <time>2023-01-18T15:24:37Z</time>
      </trkpt>
      <trkpt lat="49.75361" lon="2.17753">
        <ele>98</ele>
        <time>2023-01-18T15:24:38Z</time>
      </trkpt>
      <trkpt lat="49.75361" lon="2.17753">
        <ele>98</ele>
        <time>2023-01-18T15:24:39Z</time>
      </trkpt>
      <trkpt lat="49.75361" lon="2.17753">
        <ele>98</ele>
        <time>2023-01-18T15:24:40Z</time>
      </trkpt>
      <trkpt lat="49.75361" lon="2.17753">
        <ele>98</ele>
        <time>2023-01-18T15:24:41Z</time>
      </trkpt>
      <trkpt lat="49.75361" lon="2.17753">
        <ele>98</ele>
        <time>2023-01-18T15:24:42Z</time>
      </trkpt>
      <trkpt lat="49.75361" lon="2.17753">
        <ele>98</ele>
        <time>2023-01-18T15:24:43Z</time>
      </trkpt>
      <trkpt lat="49.75361" lon="2.17753">
        <ele>98</ele>
        <time>2023-01-18T15:24:44Z</time>
      </trkpt>
      <trkpt lat="49.75361" lon="2.17753">
        <ele>98</ele>
        <time>2023-01-18T15:24:45Z</time>
      </trkpt>
      <trkpt lat="49.75361" lon="2.17753">
        <ele>98</ele>
        <time>2023-01-18T15:24:46Z</time>
      </trkpt>
      <trkpt lat="49.75361" lon="2.17753">
        <ele>98</ele>
        <time>2023-01-18T15:24:47Z</time>
      </trkpt>
      <trkpt lat="49.75361" lon="2.17753">
        <ele>98</ele>
        <time>2023-01-18T15:24:48Z</time>
      </trkpt>
      <trkpt lat="49.75361" lon="2.17753">
        <ele>98</ele>
        <time>2023-01-18T15:24:49Z</time>
      </trkpt>
      <trkpt lat="49.75361" lon="2.17753">
        <ele>98</ele>
        <time>2023-01-18T15:24:50Z</time>
      </trkpt>
      <trkpt lat="49.75361" lon="2.17753">
        <ele>98</ele>
        <time>2023-01-18T15:24:51Z</time>
      </trkpt>
      <trkpt lat="49.75361" lon="2.17753">
        <ele>98</ele>
        <time>2023-01-18T15:24:52Z</time>
      </trkpt>
      <trkpt lat="49.75361" lon="2.17753">
        <ele>98</ele>
        <time>2023-01-18T15:24:53Z</time>
      </trkpt>
      <trkpt lat="49.75361" lon="2.17753">
        <ele>98</ele>
        <time>2023-01-18T15:24:54Z</time>
      </trkpt>
      <trkpt lat="49.75361" lon="2.17753">
        <ele>98</ele>
        <time>2023-01-18T15:24:55Z</time>
      </trkpt>
      <trkpt lat="49.75361" lon="2.17753">
        <ele>98</ele>
        <time>2023-01-18T15:24:56Z</time>
      </trkpt>
      <trkpt lat="49.75361" lon="2.17753">
        <ele>98</ele>
        <time>2023-01-18T15:24:57Z</time>
      </trkpt>
      <trkpt lat="49.75361" lon="2.17753">
        <ele>98</ele>
        <time>2023-01-18T15:24:58Z</time>
      </trkpt>
      <trkpt lat="49.75361" lon="2.17753">
        <ele>98</ele>
        <time>2023-01-18T15:24:59Z</time>
      </trkpt>
      <trkpt lat="49.75361" lon="2.17753">
        <ele>98</ele>
        <time>2023-01-18T15:25:00Z</time>
      </trkpt>
      <trkpt lat="49.75361" lon="2.17753">
        <ele>98</ele>
        <time>2023-01-18T15:25:01Z</time>
      </trkpt>
      <trkpt lat="49.75361" lon="2.17753">
        <ele>98</ele>
        <time>2023-01-18T15:25:02Z</time>
      </trkpt>
      <trkpt lat="49.75361" lon="2.17753">
        <ele>98</ele>
        <time>2023-01-18T15:25:03Z</time>
      </trkpt>
      <trkpt lat="49.75361" lon="2.17753">
        <ele>98</ele>
        <time>2023-01-18T15:25:04Z</time>
      </trkpt>
      <trkpt lat="49.75361" lon="2.17753">
        <ele>98</ele>
        <time>2023-01-18T15:25:05Z</time>
      </trkpt>
      <trkpt lat="49.75361" lon="2.17753">
        <ele>98</ele>
        <time>2023-01-18T15:25:06Z</time>
      </trkpt>
      <trkpt lat="49.75361" lon="2.17753">
        <ele>98</ele>
        <time>2023-01-18T15:25:07Z</time>
      </trkpt>
      <trkpt lat="49.75361" lon="2.17753">
        <ele>98</ele>
        <time>2023-01-18T15:25:08Z</time>
      </trkpt>
      <trkpt lat="49.75361" lon="2.17753">
        <ele>98</ele>
        <time>2023-01-18T15:25:09Z</time>
      </trkpt>
      <trkpt lat="49.75361" lon="2.17753">
        <ele>98</ele>
        <time>2023-01-18T15:25:10Z</time>
      </trkpt>
      <trkpt lat="49.75361" lon="2.17753">
        <ele>98</ele>
        <time>2023-01-18T15:25:11Z</time>
      </trkpt>
      <trkpt lat="49.75361" lon="2.17753">
        <ele>98</ele>
        <time>2023-01-18T15:25:12Z</time>
      </trkpt>
      <trkpt lat="49.75361" lon="2.17753">
        <ele>98</ele>
        <time>2023-01-18T15:25:13Z</time>
      </trkpt>
      <trkpt lat="49.75361" lon="2.17753">
        <ele>98</ele>
        <time>2023-01-18T15:25:14Z</time>
      </trkpt>
      <trkpt lat="49.75361" lon="2.17753">
        <ele>98</ele>
        <time>2023-01-18T15:25:15Z</time>
      </trkpt>
      <trkpt lat="49.75361" lon="2.17753">
        <ele>98</ele>
        <time>2023-01-18T15:25:16Z</time>
      </trkpt>
      <trkpt lat="49.75361" lon="2.17753">
        <ele>98</ele>
        <time>2023-01-18T15:25:17Z</time>
      </trkpt>
      <trkpt lat="49.75361" lon="2.17753">
        <ele>98</ele>
        <time>2023-01-18T15:25:18Z</time>
      </trkpt>
      <trkpt lat="49.75361" lon="2.17753">
        <ele>98</ele>
        <time>2023-01-18T15:25:19Z</time>
      </trkpt>
      <trkpt lat="49.75361" lon="2.17753">
        <ele>98</ele>
        <time>2023-01-18T15:25:20Z</time>
      </trkpt>
      <trkpt lat="49.75361" lon="2.17753">
        <ele>98</ele>
        <time>2023-01-18T15:25:21Z</time>
      </trkpt>
      <trkpt lat="49.75361" lon="2.17753">
        <ele>98</ele>
        <time>2023-01-18T15:25:22Z</time>
      </trkpt>
      <trkpt lat="49.75361" lon="2.17753">
        <ele>98</ele>
        <time>2023-01-18T15:25:23Z</time>
      </trkpt>
      <trkpt lat="49.75361" lon="2.17753">
        <ele>98</ele>
        <time>2023-01-18T15:25:24Z</time>
      </trkpt>
      <trkpt lat="49.75361" lon="2.17753">
        <ele>98</ele>
        <time>2023-01-18T15:25:25Z</time>
      </trkpt>
      <trkpt lat="49.75361" lon="2.17753">
        <ele>98</ele>
        <time>2023-01-18T15:25:26Z</time>
      </trkpt>
      <trkpt lat="49.75361" lon="2.17753">
        <ele>98</ele>
        <time>2023-01-18T15:25:27Z</time>
      </trkpt>
      <trkpt lat="49.75361" lon="2.17753">
        <ele>98</ele>
        <time>2023-01-18T15:25:28Z</time>
      </trkpt>
      <trkpt lat="49.75361" lon="2.17753">
        <ele>98</ele>
        <time>2023-01-18T15:25:29Z</time>
      </trkpt>
      <trkpt lat="49.75361" lon="2.17753">
        <ele>98</ele>
        <time>2023-01-18T15:25:30Z</time>
      </trkpt>
      <trkpt lat="49.75361" lon="2.17753">
        <ele>98</ele>
        <time>2023-01-18T15:25:31Z</time>
      </trkpt>
      <trkpt lat="49.75361" lon="2.17753">
        <ele>98</ele>
        <time>2023-01-18T15:25:32Z</time>
      </trkpt>
      <trkpt lat="49.75361" lon="2.17753">
        <ele>98</ele>
        <time>2023-01-18T15:25:33Z</time>
      </trkpt>
      <trkpt lat="49.75361" lon="2.17753">
        <ele>98</ele>
        <time>2023-01-18T15:25:34Z</time>
      </trkpt>
      <trkpt lat="49.75361" lon="2.17753">
        <ele>98</ele>
        <time>2023-01-18T15:25:35Z</time>
      </trkpt>
      <trkpt lat="49.75361" lon="2.17753">
        <ele>98</ele>
        <time>2023-01-18T15:25:36Z</time>
      </trkpt>
      <trkpt lat="49.75361" lon="2.17753">
        <ele>98</ele>
        <time>2023-01-18T15:25:37Z</time>
      </trkpt>
      <trkpt lat="49.75361" lon="2.17753">
        <ele>98</ele>
        <time>2023-01-18T15:25:38Z</time>
      </trkpt>
      <trkpt lat="49.75361" lon="2.17752">
        <ele>98</ele>
        <time>2023-01-18T15:25:39Z</time>
      </trkpt>
      <trkpt lat="49.75361" lon="2.17752">
        <ele>98</ele>
        <time>2023-01-18T15:25:40Z</time>
      </trkpt>
      <trkpt lat="49.75361" lon="2.17752">
        <ele>98</ele>
        <time>2023-01-18T15:25:41Z</time>
      </trkpt>
      <trkpt lat="49.75362" lon="2.17752">
        <ele>98</ele>
        <time>2023-01-18T15:25:42Z</time>
      </trkpt>
      <trkpt lat="49.75362" lon="2.17753">
        <ele>98</ele>
        <time>2023-01-18T15:25:43Z</time>
      </trkpt>
      <trkpt lat="49.75362" lon="2.17752">
        <ele>98</ele>
        <time>2023-01-18T15:25:45Z</time>
      </trkpt>
      <trkpt lat="49.75361" lon="2.17752">
        <ele>98</ele>
        <time>2023-01-18T15:25:46Z</time>
      </trkpt>
      <trkpt lat="49.75361" lon="2.17753">
        <ele>98</ele>
        <time>2023-01-18T15:25:47Z</time>
      </trkpt>
    </trkseg>
  </trk>
</gpx>